<?xml version="1.0" encoding="UTF-8" standalone="no" ?>
<gpx xmlns="http://www.topografix.com/GPX/1/1" xmlns:xsi="http://www.w3.org/2001/XMLSchema-instance" xsi:schemaLocation="http://www.topografix.com/GPX/1/1 http://www.topografix.com/GPX/1/1/gpx.xsd" version="1.1" creator="VisuGPX - https://www.visugpx.com">
  <metadata>
    <name>Le Markstein</name>
    <desc><![CDATA[Gunsbach - Griesbach au Val - Soultzbach les Bains - [i]Col de Firtsplan (722.m)[/i] - Osenbach - Soultzmatt - [i]Col de Bannstein (482.m[/i]) - St-Gangolphe - Schweighouse - Lauterbach - Linthal - Lac de la Lauch - Le Markstein - Le Breitfirst - [i]Col du Platzerwaesel (1182.m)[/i] - Sondernach - Metzeral - Muhlbach sur Munster - Lutterbach près Munster - Munster - Gunsbach.]]></desc>
  </metadata>
  <trk>
    <name><![CDATA[Trip 2021-06-16]]></name>
    <trkseg>
      <trkpt lat="48.0456" lon="7.16512">
        <ele>396.93533325</ele>
        <time>2021-06-17T06:30:58Z</time>
      </trkpt>
      <trkpt lat="48.04562" lon="7.1651">
        <ele>396.82550049</ele>
        <time>2021-06-17T06:31:03Z</time>
      </trkpt>
      <trkpt lat="48.04556" lon="7.16531">
        <ele>396.82550049</ele>
        <time>2021-06-17T06:31:06Z</time>
      </trkpt>
      <trkpt lat="48.04557" lon="7.16549">
        <ele>395.56240845</ele>
        <time>2021-06-17T06:31:09Z</time>
      </trkpt>
      <trkpt lat="48.04557" lon="7.16566">
        <ele>395.56240845</ele>
        <time>2021-06-17T06:31:11Z</time>
      </trkpt>
      <trkpt lat="48.04557" lon="7.16583">
        <ele>395.56240845</ele>
        <time>2021-06-17T06:31:13Z</time>
      </trkpt>
      <trkpt lat="48.04556" lon="7.16587">
        <ele>394.67166138</ele>
        <time>2021-06-17T06:31:14Z</time>
      </trkpt>
      <trkpt lat="48.04556" lon="7.166">
        <ele>394.67166138</ele>
        <time>2021-06-17T06:31:15Z</time>
      </trkpt>
      <trkpt lat="48.04555" lon="7.16616">
        <ele>394.67166138</ele>
        <time>2021-06-17T06:31:17Z</time>
      </trkpt>
      <trkpt lat="48.04557" lon="7.16632">
        <ele>394.67166138</ele>
        <time>2021-06-17T06:31:19Z</time>
      </trkpt>
      <trkpt lat="48.04557" lon="7.1665">
        <ele>393.74920654</ele>
        <time>2021-06-17T06:31:21Z</time>
      </trkpt>
      <trkpt lat="48.04559" lon="7.16669">
        <ele>393.74920654</ele>
        <time>2021-06-17T06:31:23Z</time>
      </trkpt>
      <trkpt lat="48.0456" lon="7.16688">
        <ele>392.64529419</ele>
        <time>2021-06-17T06:31:25Z</time>
      </trkpt>
      <trkpt lat="48.04561" lon="7.16708">
        <ele>392.64529419</ele>
        <time>2021-06-17T06:31:27Z</time>
      </trkpt>
      <trkpt lat="48.04559" lon="7.16727">
        <ele>392.64529419</ele>
        <time>2021-06-17T06:31:29Z</time>
      </trkpt>
      <trkpt lat="48.0456" lon="7.16742">
        <ele>392.64529419</ele>
        <time>2021-06-17T06:31:31Z</time>
      </trkpt>
      <trkpt lat="48.04562" lon="7.16759">
        <ele>392.64529419</ele>
        <time>2021-06-17T06:31:33Z</time>
      </trkpt>
      <trkpt lat="48.04563" lon="7.16774">
        <ele>392.64529419</ele>
        <time>2021-06-17T06:31:35Z</time>
      </trkpt>
      <trkpt lat="48.04564" lon="7.16792">
        <ele>391.6204834</ele>
        <time>2021-06-17T06:31:37Z</time>
      </trkpt>
      <trkpt lat="48.04563" lon="7.1681">
        <ele>391.6204834</ele>
        <time>2021-06-17T06:31:39Z</time>
      </trkpt>
      <trkpt lat="48.04563" lon="7.16827">
        <ele>391.6204834</ele>
        <time>2021-06-17T06:31:41Z</time>
      </trkpt>
      <trkpt lat="48.04562" lon="7.16843">
        <ele>391.6204834</ele>
        <time>2021-06-17T06:31:43Z</time>
      </trkpt>
      <trkpt lat="48.04562" lon="7.16861">
        <ele>391.6204834</ele>
        <time>2021-06-17T06:31:45Z</time>
      </trkpt>
      <trkpt lat="48.04562" lon="7.16877">
        <ele>391.6204834</ele>
        <time>2021-06-17T06:31:47Z</time>
      </trkpt>
      <trkpt lat="48.04564" lon="7.16893">
        <ele>391.6204834</ele>
        <time>2021-06-17T06:31:49Z</time>
      </trkpt>
      <trkpt lat="48.04567" lon="7.16926">
        <ele>390.59085083</ele>
        <time>2021-06-17T06:31:53Z</time>
      </trkpt>
      <trkpt lat="48.04567" lon="7.16943">
        <ele>390.59085083</ele>
        <time>2021-06-17T06:31:55Z</time>
      </trkpt>
      <trkpt lat="48.04567" lon="7.16961">
        <ele>390.59085083</ele>
        <time>2021-06-17T06:31:57Z</time>
      </trkpt>
      <trkpt lat="48.04566" lon="7.1698">
        <ele>390.59085083</ele>
        <time>2021-06-17T06:31:59Z</time>
      </trkpt>
      <trkpt lat="48.04564" lon="7.16998">
        <ele>390.59085083</ele>
        <time>2021-06-17T06:32:01Z</time>
      </trkpt>
      <trkpt lat="48.04563" lon="7.17016">
        <ele>390.59085083</ele>
        <time>2021-06-17T06:32:03Z</time>
      </trkpt>
      <trkpt lat="48.04562" lon="7.17035">
        <ele>390.59085083</ele>
        <time>2021-06-17T06:32:05Z</time>
      </trkpt>
      <trkpt lat="48.0456" lon="7.17054">
        <ele>390.59085083</ele>
        <time>2021-06-17T06:32:07Z</time>
      </trkpt>
      <trkpt lat="48.04559" lon="7.17073">
        <ele>390.59085083</ele>
        <time>2021-06-17T06:32:09Z</time>
      </trkpt>
      <trkpt lat="48.04562" lon="7.17091">
        <ele>390.59085083</ele>
        <time>2021-06-17T06:32:11Z</time>
      </trkpt>
      <trkpt lat="48.04568" lon="7.17107">
        <ele>390.59085083</ele>
        <time>2021-06-17T06:32:13Z</time>
      </trkpt>
      <trkpt lat="48.0457" lon="7.17111">
        <ele>389.67016602</ele>
        <time>2021-06-17T06:32:14Z</time>
      </trkpt>
      <trkpt lat="48.04574" lon="7.17123">
        <ele>389.67016602</ele>
        <time>2021-06-17T06:32:15Z</time>
      </trkpt>
      <trkpt lat="48.04578" lon="7.17137">
        <ele>389.67016602</ele>
        <time>2021-06-17T06:32:17Z</time>
      </trkpt>
      <trkpt lat="48.04587" lon="7.17153">
        <ele>389.67016602</ele>
        <time>2021-06-17T06:32:19Z</time>
      </trkpt>
      <trkpt lat="48.04594" lon="7.1717">
        <ele>389.67016602</ele>
        <time>2021-06-17T06:32:21Z</time>
      </trkpt>
      <trkpt lat="48.046" lon="7.17186">
        <ele>389.67016602</ele>
        <time>2021-06-17T06:32:23Z</time>
      </trkpt>
      <trkpt lat="48.04606" lon="7.17201">
        <ele>389.67016602</ele>
        <time>2021-06-17T06:32:25Z</time>
      </trkpt>
      <trkpt lat="48.04611" lon="7.17215">
        <ele>388.86538696</ele>
        <time>2021-06-17T06:32:27Z</time>
      </trkpt>
      <trkpt lat="48.04616" lon="7.17228">
        <ele>388.86538696</ele>
        <time>2021-06-17T06:32:29Z</time>
      </trkpt>
      <trkpt lat="48.04621" lon="7.17244">
        <ele>388.86538696</ele>
        <time>2021-06-17T06:32:32Z</time>
      </trkpt>
      <trkpt lat="48.04628" lon="7.17256">
        <ele>388.86538696</ele>
        <time>2021-06-17T06:32:34Z</time>
      </trkpt>
      <trkpt lat="48.04632" lon="7.17269">
        <ele>388.86538696</ele>
        <time>2021-06-17T06:32:36Z</time>
      </trkpt>
      <trkpt lat="48.04636" lon="7.17285">
        <ele>388.86538696</ele>
        <time>2021-06-17T06:32:38Z</time>
      </trkpt>
      <trkpt lat="48.04641" lon="7.17299">
        <ele>388.86538696</ele>
        <time>2021-06-17T06:32:40Z</time>
      </trkpt>
      <trkpt lat="48.04644" lon="7.17313">
        <ele>388.86538696</ele>
        <time>2021-06-17T06:32:42Z</time>
      </trkpt>
      <trkpt lat="48.04648" lon="7.17327">
        <ele>388.86538696</ele>
        <time>2021-06-17T06:32:44Z</time>
      </trkpt>
      <trkpt lat="48.0465" lon="7.17347">
        <ele>388.86538696</ele>
        <time>2021-06-17T06:32:46Z</time>
      </trkpt>
      <trkpt lat="48.04651" lon="7.17364">
        <ele>388.86538696</ele>
        <time>2021-06-17T06:32:48Z</time>
      </trkpt>
      <trkpt lat="48.0465" lon="7.17381">
        <ele>388.86538696</ele>
        <time>2021-06-17T06:32:50Z</time>
      </trkpt>
      <trkpt lat="48.04647" lon="7.17399">
        <ele>388.86538696</ele>
        <time>2021-06-17T06:32:52Z</time>
      </trkpt>
      <trkpt lat="48.04644" lon="7.17416">
        <ele>387.88150024</ele>
        <time>2021-06-17T06:32:54Z</time>
      </trkpt>
      <trkpt lat="48.04641" lon="7.17431">
        <ele>387.88150024</ele>
        <time>2021-06-17T06:32:56Z</time>
      </trkpt>
      <trkpt lat="48.04638" lon="7.17447">
        <ele>387.88150024</ele>
        <time>2021-06-17T06:32:59Z</time>
      </trkpt>
      <trkpt lat="48.04631" lon="7.17463">
        <ele>387.88150024</ele>
        <time>2021-06-17T06:33:02Z</time>
      </trkpt>
      <trkpt lat="48.04628" lon="7.17478">
        <ele>387.88150024</ele>
        <time>2021-06-17T06:33:05Z</time>
      </trkpt>
      <trkpt lat="48.04628" lon="7.17492">
        <ele>387.88150024</ele>
        <time>2021-06-17T06:33:09Z</time>
      </trkpt>
      <trkpt lat="48.04629" lon="7.17504">
        <ele>387.51708984</ele>
        <time>2021-06-17T06:33:14Z</time>
      </trkpt>
      <trkpt lat="48.04635" lon="7.17514">
        <ele>387.51708984</ele>
        <time>2021-06-17T06:33:17Z</time>
      </trkpt>
      <trkpt lat="48.04631" lon="7.17527">
        <ele>387.51708984</ele>
        <time>2021-06-17T06:33:23Z</time>
      </trkpt>
      <trkpt lat="48.04622" lon="7.17534">
        <ele>387.51708984</ele>
        <time>2021-06-17T06:33:26Z</time>
      </trkpt>
      <trkpt lat="48.04608" lon="7.17535">
        <ele>387.51708984</ele>
        <time>2021-06-17T06:33:28Z</time>
      </trkpt>
      <trkpt lat="48.04594" lon="7.17537">
        <ele>387.51708984</ele>
        <time>2021-06-17T06:33:30Z</time>
      </trkpt>
      <trkpt lat="48.04583" lon="7.1754">
        <ele>387.63235474</ele>
        <time>2021-06-17T06:33:35Z</time>
      </trkpt>
      <trkpt lat="48.04573" lon="7.17539">
        <ele>387.63235474</ele>
        <time>2021-06-17T06:33:37Z</time>
      </trkpt>
      <trkpt lat="48.04557" lon="7.1754">
        <ele>387.63235474</ele>
        <time>2021-06-17T06:33:39Z</time>
      </trkpt>
      <trkpt lat="48.04547" lon="7.17537">
        <ele>387.63235474</ele>
        <time>2021-06-17T06:33:42Z</time>
      </trkpt>
      <trkpt lat="48.04535" lon="7.17533">
        <ele>387.63235474</ele>
        <time>2021-06-17T06:33:45Z</time>
      </trkpt>
      <trkpt lat="48.04524" lon="7.17531">
        <ele>385.94055176</ele>
        <time>2021-06-17T06:33:47Z</time>
      </trkpt>
      <trkpt lat="48.04515" lon="7.1753">
        <ele>385.94055176</ele>
        <time>2021-06-17T06:33:49Z</time>
      </trkpt>
      <trkpt lat="48.04504" lon="7.17527">
        <ele>385.94055176</ele>
        <time>2021-06-17T06:33:52Z</time>
      </trkpt>
      <trkpt lat="48.04492" lon="7.17523">
        <ele>385.94055176</ele>
        <time>2021-06-17T06:33:54Z</time>
      </trkpt>
      <trkpt lat="48.04483" lon="7.17522">
        <ele>385.94055176</ele>
        <time>2021-06-17T06:33:56Z</time>
      </trkpt>
      <trkpt lat="48.04473" lon="7.17521">
        <ele>385.94055176</ele>
        <time>2021-06-17T06:33:58Z</time>
      </trkpt>
      <trkpt lat="48.04462" lon="7.1752">
        <ele>385.94055176</ele>
        <time>2021-06-17T06:34:00Z</time>
      </trkpt>
      <trkpt lat="48.04452" lon="7.17517">
        <ele>385.94055176</ele>
        <time>2021-06-17T06:34:03Z</time>
      </trkpt>
      <trkpt lat="48.04441" lon="7.17515">
        <ele>385.94055176</ele>
        <time>2021-06-17T06:34:06Z</time>
      </trkpt>
      <trkpt lat="48.04429" lon="7.17512">
        <ele>385.06787109</ele>
        <time>2021-06-17T06:34:09Z</time>
      </trkpt>
      <trkpt lat="48.04417" lon="7.17509">
        <ele>385.06787109</ele>
        <time>2021-06-17T06:34:12Z</time>
      </trkpt>
      <trkpt lat="48.04408" lon="7.17506">
        <ele>384.60723877</ele>
        <time>2021-06-17T06:34:14Z</time>
      </trkpt>
      <trkpt lat="48.044" lon="7.17505">
        <ele>384.60723877</ele>
        <time>2021-06-17T06:34:16Z</time>
      </trkpt>
      <trkpt lat="48.04387" lon="7.17502">
        <ele>384.60723877</ele>
        <time>2021-06-17T06:34:19Z</time>
      </trkpt>
      <trkpt lat="48.04375" lon="7.17499">
        <ele>384.60723877</ele>
        <time>2021-06-17T06:34:22Z</time>
      </trkpt>
      <trkpt lat="48.04363" lon="7.17497">
        <ele>384.60723877</ele>
        <time>2021-06-17T06:34:24Z</time>
      </trkpt>
      <trkpt lat="48.04354" lon="7.17495">
        <ele>384.60723877</ele>
        <time>2021-06-17T06:34:26Z</time>
      </trkpt>
      <trkpt lat="48.04345" lon="7.17492">
        <ele>384.60723877</ele>
        <time>2021-06-17T06:34:28Z</time>
      </trkpt>
      <trkpt lat="48.04335" lon="7.17491">
        <ele>384.60723877</ele>
        <time>2021-06-17T06:34:30Z</time>
      </trkpt>
      <trkpt lat="48.04325" lon="7.1749">
        <ele>385.35461426</ele>
        <time>2021-06-17T06:34:33Z</time>
      </trkpt>
      <trkpt lat="48.04313" lon="7.17488">
        <ele>385.35461426</ele>
        <time>2021-06-17T06:34:36Z</time>
      </trkpt>
      <trkpt lat="48.04302" lon="7.17486">
        <ele>385.35461426</ele>
        <time>2021-06-17T06:34:39Z</time>
      </trkpt>
      <trkpt lat="48.04293" lon="7.17485">
        <ele>385.35461426</ele>
        <time>2021-06-17T06:34:43Z</time>
      </trkpt>
      <trkpt lat="48.04283" lon="7.17482">
        <ele>385.35461426</ele>
        <time>2021-06-17T06:34:47Z</time>
      </trkpt>
      <trkpt lat="48.04274" lon="7.17479">
        <ele>385.35461426</ele>
        <time>2021-06-17T06:34:53Z</time>
      </trkpt>
      <trkpt lat="48.04268" lon="7.1747">
        <ele>386.14126587</ele>
        <time>2021-06-17T06:35:02Z</time>
      </trkpt>
      <trkpt lat="48.04266" lon="7.17462">
        <ele>386.14126587</ele>
        <time>2021-06-17T06:35:06Z</time>
      </trkpt>
      <trkpt lat="48.04265" lon="7.17444">
        <ele>386.14126587</ele>
        <time>2021-06-17T06:35:11Z</time>
      </trkpt>
      <trkpt lat="48.04264" lon="7.17429">
        <ele>387.35922241</ele>
        <time>2021-06-17T06:35:14Z</time>
      </trkpt>
      <trkpt lat="48.04263" lon="7.17415">
        <ele>387.35922241</ele>
        <time>2021-06-17T06:35:16Z</time>
      </trkpt>
      <trkpt lat="48.0426" lon="7.17401">
        <ele>387.35922241</ele>
        <time>2021-06-17T06:35:19Z</time>
      </trkpt>
      <trkpt lat="48.0426" lon="7.17383">
        <ele>387.35922241</ele>
        <time>2021-06-17T06:35:21Z</time>
      </trkpt>
      <trkpt lat="48.0426" lon="7.17366">
        <ele>387.35922241</ele>
        <time>2021-06-17T06:35:24Z</time>
      </trkpt>
      <trkpt lat="48.04254" lon="7.17353">
        <ele>388.05374146</ele>
        <time>2021-06-17T06:35:27Z</time>
      </trkpt>
      <trkpt lat="48.04252" lon="7.17339">
        <ele>388.05374146</ele>
        <time>2021-06-17T06:35:31Z</time>
      </trkpt>
      <trkpt lat="48.0425" lon="7.17324">
        <ele>388.05374146</ele>
        <time>2021-06-17T06:35:35Z</time>
      </trkpt>
      <trkpt lat="48.04248" lon="7.17307">
        <ele>388.05374146</ele>
        <time>2021-06-17T06:35:39Z</time>
      </trkpt>
      <trkpt lat="48.04244" lon="7.17291">
        <ele>388.05374146</ele>
        <time>2021-06-17T06:35:43Z</time>
      </trkpt>
      <trkpt lat="48.04237" lon="7.17279">
        <ele>388.05374146</ele>
        <time>2021-06-17T06:35:46Z</time>
      </trkpt>
      <trkpt lat="48.04227" lon="7.17278">
        <ele>388.05374146</ele>
        <time>2021-06-17T06:35:49Z</time>
      </trkpt>
      <trkpt lat="48.04218" lon="7.17281">
        <ele>388.05374146</ele>
        <time>2021-06-17T06:35:52Z</time>
      </trkpt>
      <trkpt lat="48.04208" lon="7.17284">
        <ele>388.05374146</ele>
        <time>2021-06-17T06:35:55Z</time>
      </trkpt>
      <trkpt lat="48.04199" lon="7.17286">
        <ele>388.05374146</ele>
        <time>2021-06-17T06:35:58Z</time>
      </trkpt>
      <trkpt lat="48.0419" lon="7.17289">
        <ele>388.05374146</ele>
        <time>2021-06-17T06:36:01Z</time>
      </trkpt>
      <trkpt lat="48.0418" lon="7.1729">
        <ele>388.05374146</ele>
        <time>2021-06-17T06:36:05Z</time>
      </trkpt>
      <trkpt lat="48.0417" lon="7.17287">
        <ele>389.05999756</ele>
        <time>2021-06-17T06:36:08Z</time>
      </trkpt>
      <trkpt lat="48.0416" lon="7.1729">
        <ele>389.05999756</ele>
        <time>2021-06-17T06:36:10Z</time>
      </trkpt>
      <trkpt lat="48.0415" lon="7.17293">
        <ele>389.05999756</ele>
        <time>2021-06-17T06:36:13Z</time>
      </trkpt>
      <trkpt lat="48.04147" lon="7.17293">
        <ele>389.92410278</ele>
        <time>2021-06-17T06:36:14Z</time>
      </trkpt>
      <trkpt lat="48.0414" lon="7.17295">
        <ele>389.92410278</ele>
        <time>2021-06-17T06:36:16Z</time>
      </trkpt>
      <trkpt lat="48.0413" lon="7.17299">
        <ele>389.92410278</ele>
        <time>2021-06-17T06:36:19Z</time>
      </trkpt>
      <trkpt lat="48.0412" lon="7.17298">
        <ele>389.92410278</ele>
        <time>2021-06-17T06:36:23Z</time>
      </trkpt>
      <trkpt lat="48.0411" lon="7.17297">
        <ele>390.73724365</ele>
        <time>2021-06-17T06:36:26Z</time>
      </trkpt>
      <trkpt lat="48.04099" lon="7.173">
        <ele>390.73724365</ele>
        <time>2021-06-17T06:36:29Z</time>
      </trkpt>
      <trkpt lat="48.04088" lon="7.17301">
        <ele>390.73724365</ele>
        <time>2021-06-17T06:36:33Z</time>
      </trkpt>
      <trkpt lat="48.04078" lon="7.17302">
        <ele>391.78759766</ele>
        <time>2021-06-17T06:36:37Z</time>
      </trkpt>
      <trkpt lat="48.04067" lon="7.17303">
        <ele>391.78759766</ele>
        <time>2021-06-17T06:36:40Z</time>
      </trkpt>
      <trkpt lat="48.04057" lon="7.17306">
        <ele>391.78759766</ele>
        <time>2021-06-17T06:36:43Z</time>
      </trkpt>
      <trkpt lat="48.04048" lon="7.17306">
        <ele>391.78759766</ele>
        <time>2021-06-17T06:36:46Z</time>
      </trkpt>
      <trkpt lat="48.04037" lon="7.17307">
        <ele>392.96704102</ele>
        <time>2021-06-17T06:36:50Z</time>
      </trkpt>
      <trkpt lat="48.04027" lon="7.17309">
        <ele>392.96704102</ele>
        <time>2021-06-17T06:36:53Z</time>
      </trkpt>
      <trkpt lat="48.04018" lon="7.17311">
        <ele>394.04928589</ele>
        <time>2021-06-17T06:36:57Z</time>
      </trkpt>
      <trkpt lat="48.04006" lon="7.17313">
        <ele>394.04928589</ele>
        <time>2021-06-17T06:37:00Z</time>
      </trkpt>
      <trkpt lat="48.03995" lon="7.17316">
        <ele>394.04928589</ele>
        <time>2021-06-17T06:37:03Z</time>
      </trkpt>
      <trkpt lat="48.03984" lon="7.17316">
        <ele>394.04928589</ele>
        <time>2021-06-17T06:37:07Z</time>
      </trkpt>
      <trkpt lat="48.03973" lon="7.17316">
        <ele>395.07498169</ele>
        <time>2021-06-17T06:37:10Z</time>
      </trkpt>
      <trkpt lat="48.03964" lon="7.17318">
        <ele>395.76873779</ele>
        <time>2021-06-17T06:37:14Z</time>
      </trkpt>
      <trkpt lat="48.03955" lon="7.17321">
        <ele>395.76873779</ele>
        <time>2021-06-17T06:37:17Z</time>
      </trkpt>
      <trkpt lat="48.03945" lon="7.17323">
        <ele>395.76873779</ele>
        <time>2021-06-17T06:37:20Z</time>
      </trkpt>
      <trkpt lat="48.03934" lon="7.17325">
        <ele>395.76873779</ele>
        <time>2021-06-17T06:37:24Z</time>
      </trkpt>
      <trkpt lat="48.03925" lon="7.17328">
        <ele>395.76873779</ele>
        <time>2021-06-17T06:37:27Z</time>
      </trkpt>
      <trkpt lat="48.03914" lon="7.17332">
        <ele>396.50497437</ele>
        <time>2021-06-17T06:37:31Z</time>
      </trkpt>
      <trkpt lat="48.03903" lon="7.17336">
        <ele>396.50497437</ele>
        <time>2021-06-17T06:37:34Z</time>
      </trkpt>
      <trkpt lat="48.03894" lon="7.17341">
        <ele>396.50497437</ele>
        <time>2021-06-17T06:37:38Z</time>
      </trkpt>
      <trkpt lat="48.03883" lon="7.17346">
        <ele>397.56304932</ele>
        <time>2021-06-17T06:37:41Z</time>
      </trkpt>
      <trkpt lat="48.03874" lon="7.17349">
        <ele>397.56304932</ele>
        <time>2021-06-17T06:37:45Z</time>
      </trkpt>
      <trkpt lat="48.03864" lon="7.17354">
        <ele>397.56304932</ele>
        <time>2021-06-17T06:37:48Z</time>
      </trkpt>
      <trkpt lat="48.03854" lon="7.17359">
        <ele>397.56304932</ele>
        <time>2021-06-17T06:37:52Z</time>
      </trkpt>
      <trkpt lat="48.03843" lon="7.17362">
        <ele>398.61193848</ele>
        <time>2021-06-17T06:37:56Z</time>
      </trkpt>
      <trkpt lat="48.03833" lon="7.17364">
        <ele>398.61193848</ele>
        <time>2021-06-17T06:38:00Z</time>
      </trkpt>
      <trkpt lat="48.03824" lon="7.17368">
        <ele>398.61193848</ele>
        <time>2021-06-17T06:38:03Z</time>
      </trkpt>
      <trkpt lat="48.03814" lon="7.17373">
        <ele>399.68267822</ele>
        <time>2021-06-17T06:38:07Z</time>
      </trkpt>
      <trkpt lat="48.03804" lon="7.17379">
        <ele>399.68267822</ele>
        <time>2021-06-17T06:38:11Z</time>
      </trkpt>
      <trkpt lat="48.03796" lon="7.17384">
        <ele>401.45001221</ele>
        <time>2021-06-17T06:38:14Z</time>
      </trkpt>
      <trkpt lat="48.03789" lon="7.17388">
        <ele>401.45001221</ele>
        <time>2021-06-17T06:38:17Z</time>
      </trkpt>
      <trkpt lat="48.03781" lon="7.17394">
        <ele>402.16876221</ele>
        <time>2021-06-17T06:38:22Z</time>
      </trkpt>
      <trkpt lat="48.03772" lon="7.17402">
        <ele>402.16876221</ele>
        <time>2021-06-17T06:38:26Z</time>
      </trkpt>
      <trkpt lat="48.03762" lon="7.17409">
        <ele>403.28408813</ele>
        <time>2021-06-17T06:38:31Z</time>
      </trkpt>
      <trkpt lat="48.03753" lon="7.17416">
        <ele>403.28408813</ele>
        <time>2021-06-17T06:38:35Z</time>
      </trkpt>
      <trkpt lat="48.03744" lon="7.17423">
        <ele>404.26190186</ele>
        <time>2021-06-17T06:38:39Z</time>
      </trkpt>
      <trkpt lat="48.03735" lon="7.17429">
        <ele>405.40463257</ele>
        <time>2021-06-17T06:38:43Z</time>
      </trkpt>
      <trkpt lat="48.03727" lon="7.17435">
        <ele>405.40463257</ele>
        <time>2021-06-17T06:38:48Z</time>
      </trkpt>
      <trkpt lat="48.03717" lon="7.17441">
        <ele>406.58654785</ele>
        <time>2021-06-17T06:38:53Z</time>
      </trkpt>
      <trkpt lat="48.03708" lon="7.17448">
        <ele>406.58654785</ele>
        <time>2021-06-17T06:38:58Z</time>
      </trkpt>
      <trkpt lat="48.03698" lon="7.17453">
        <ele>407.60906982</ele>
        <time>2021-06-17T06:39:02Z</time>
      </trkpt>
      <trkpt lat="48.03689" lon="7.17457">
        <ele>408.68688965</ele>
        <time>2021-06-17T06:39:07Z</time>
      </trkpt>
      <trkpt lat="48.03681" lon="7.17465">
        <ele>408.68688965</ele>
        <time>2021-06-17T06:39:11Z</time>
      </trkpt>
      <trkpt lat="48.0368" lon="7.17474">
        <ele>409.5531311</ele>
        <time>2021-06-17T06:39:14Z</time>
      </trkpt>
      <trkpt lat="48.03682" lon="7.17484">
        <ele>409.5531311</ele>
        <time>2021-06-17T06:39:17Z</time>
      </trkpt>
      <trkpt lat="48.0369" lon="7.17498">
        <ele>409.5531311</ele>
        <time>2021-06-17T06:39:19Z</time>
      </trkpt>
      <trkpt lat="48.03696" lon="7.17508">
        <ele>409.5531311</ele>
        <time>2021-06-17T06:39:22Z</time>
      </trkpt>
      <trkpt lat="48.03703" lon="7.17521">
        <ele>409.00808716</ele>
        <time>2021-06-17T06:39:25Z</time>
      </trkpt>
      <trkpt lat="48.03709" lon="7.17532">
        <ele>409.00808716</ele>
        <time>2021-06-17T06:39:28Z</time>
      </trkpt>
      <trkpt lat="48.03715" lon="7.17542">
        <ele>409.00808716</ele>
        <time>2021-06-17T06:39:32Z</time>
      </trkpt>
      <trkpt lat="48.03723" lon="7.17552">
        <ele>407.86495972</ele>
        <time>2021-06-17T06:39:36Z</time>
      </trkpt>
      <trkpt lat="48.03734" lon="7.17564">
        <ele>406.7678833</ele>
        <time>2021-06-17T06:39:38Z</time>
      </trkpt>
      <trkpt lat="48.03743" lon="7.17575">
        <ele>406.7678833</ele>
        <time>2021-06-17T06:39:41Z</time>
      </trkpt>
      <trkpt lat="48.03754" lon="7.17581">
        <ele>405.35449219</ele>
        <time>2021-06-17T06:39:44Z</time>
      </trkpt>
      <trkpt lat="48.03764" lon="7.17587">
        <ele>404.19271851</ele>
        <time>2021-06-17T06:39:47Z</time>
      </trkpt>
      <trkpt lat="48.03774" lon="7.17594">
        <ele>404.19271851</ele>
        <time>2021-06-17T06:39:50Z</time>
      </trkpt>
      <trkpt lat="48.03784" lon="7.17602">
        <ele>404.19271851</ele>
        <time>2021-06-17T06:39:52Z</time>
      </trkpt>
      <trkpt lat="48.03792" lon="7.17609">
        <ele>403.20568848</ele>
        <time>2021-06-17T06:39:54Z</time>
      </trkpt>
      <trkpt lat="48.03801" lon="7.17618">
        <ele>403.20568848</ele>
        <time>2021-06-17T06:39:56Z</time>
      </trkpt>
      <trkpt lat="48.03809" lon="7.17628">
        <ele>403.20568848</ele>
        <time>2021-06-17T06:39:58Z</time>
      </trkpt>
      <trkpt lat="48.03814" lon="7.17641">
        <ele>402.1305542</ele>
        <time>2021-06-17T06:40:01Z</time>
      </trkpt>
      <trkpt lat="48.03818" lon="7.17655">
        <ele>402.1305542</ele>
        <time>2021-06-17T06:40:04Z</time>
      </trkpt>
      <trkpt lat="48.03823" lon="7.17667">
        <ele>402.1305542</ele>
        <time>2021-06-17T06:40:07Z</time>
      </trkpt>
      <trkpt lat="48.03827" lon="7.1768">
        <ele>401.14260864</ele>
        <time>2021-06-17T06:40:10Z</time>
      </trkpt>
      <trkpt lat="48.03832" lon="7.17692">
        <ele>401.14260864</ele>
        <time>2021-06-17T06:40:13Z</time>
      </trkpt>
      <trkpt lat="48.03835" lon="7.17696">
        <ele>400.27532959</ele>
        <time>2021-06-17T06:40:14Z</time>
      </trkpt>
      <trkpt lat="48.03839" lon="7.17707">
        <ele>400.27532959</ele>
        <time>2021-06-17T06:40:16Z</time>
      </trkpt>
      <trkpt lat="48.03845" lon="7.17724">
        <ele>400.27532959</ele>
        <time>2021-06-17T06:40:18Z</time>
      </trkpt>
      <trkpt lat="48.03851" lon="7.1774">
        <ele>399.35986328</ele>
        <time>2021-06-17T06:40:20Z</time>
      </trkpt>
      <trkpt lat="48.03857" lon="7.17756">
        <ele>399.35986328</ele>
        <time>2021-06-17T06:40:22Z</time>
      </trkpt>
      <trkpt lat="48.03862" lon="7.17774">
        <ele>398.17855835</ele>
        <time>2021-06-17T06:40:24Z</time>
      </trkpt>
      <trkpt lat="48.03867" lon="7.17791">
        <ele>398.17855835</ele>
        <time>2021-06-17T06:40:26Z</time>
      </trkpt>
      <trkpt lat="48.03872" lon="7.17808">
        <ele>398.17855835</ele>
        <time>2021-06-17T06:40:28Z</time>
      </trkpt>
      <trkpt lat="48.03875" lon="7.17826">
        <ele>397.06018066</ele>
        <time>2021-06-17T06:40:30Z</time>
      </trkpt>
      <trkpt lat="48.03878" lon="7.17846">
        <ele>397.06018066</ele>
        <time>2021-06-17T06:40:32Z</time>
      </trkpt>
      <trkpt lat="48.0388" lon="7.17865">
        <ele>397.06018066</ele>
        <time>2021-06-17T06:40:34Z</time>
      </trkpt>
      <trkpt lat="48.0388" lon="7.17885">
        <ele>396.05612183</ele>
        <time>2021-06-17T06:40:36Z</time>
      </trkpt>
      <trkpt lat="48.0388" lon="7.17906">
        <ele>396.05612183</ele>
        <time>2021-06-17T06:40:38Z</time>
      </trkpt>
      <trkpt lat="48.03881" lon="7.17927">
        <ele>396.05612183</ele>
        <time>2021-06-17T06:40:40Z</time>
      </trkpt>
      <trkpt lat="48.03883" lon="7.17947">
        <ele>394.96954346</ele>
        <time>2021-06-17T06:40:42Z</time>
      </trkpt>
      <trkpt lat="48.03885" lon="7.17966">
        <ele>394.96954346</ele>
        <time>2021-06-17T06:40:44Z</time>
      </trkpt>
      <trkpt lat="48.03888" lon="7.17986">
        <ele>393.99713135</ele>
        <time>2021-06-17T06:40:46Z</time>
      </trkpt>
      <trkpt lat="48.03891" lon="7.18008">
        <ele>393.99713135</ele>
        <time>2021-06-17T06:40:48Z</time>
      </trkpt>
      <trkpt lat="48.03894" lon="7.1803">
        <ele>392.71948242</ele>
        <time>2021-06-17T06:40:50Z</time>
      </trkpt>
      <trkpt lat="48.03897" lon="7.18063">
        <ele>391.4203186</ele>
        <time>2021-06-17T06:40:52Z</time>
      </trkpt>
      <trkpt lat="48.03899" lon="7.18082">
        <ele>391.4203186</ele>
        <time>2021-06-17T06:40:54Z</time>
      </trkpt>
      <trkpt lat="48.03905" lon="7.18107">
        <ele>390.02368164</ele>
        <time>2021-06-17T06:40:56Z</time>
      </trkpt>
      <trkpt lat="48.03909" lon="7.18127">
        <ele>390.02368164</ele>
        <time>2021-06-17T06:40:57Z</time>
      </trkpt>
      <trkpt lat="48.03912" lon="7.1814">
        <ele>388.70846558</ele>
        <time>2021-06-17T06:40:58Z</time>
      </trkpt>
      <trkpt lat="48.03915" lon="7.18153">
        <ele>388.70846558</ele>
        <time>2021-06-17T06:40:59Z</time>
      </trkpt>
      <trkpt lat="48.03917" lon="7.18167">
        <ele>388.70846558</ele>
        <time>2021-06-17T06:41:00Z</time>
      </trkpt>
      <trkpt lat="48.0392" lon="7.1818">
        <ele>387.62832642</ele>
        <time>2021-06-17T06:41:01Z</time>
      </trkpt>
      <trkpt lat="48.03922" lon="7.18193">
        <ele>387.62832642</ele>
        <time>2021-06-17T06:41:02Z</time>
      </trkpt>
      <trkpt lat="48.03926" lon="7.18205">
        <ele>387.62832642</ele>
        <time>2021-06-17T06:41:03Z</time>
      </trkpt>
      <trkpt lat="48.03929" lon="7.18218">
        <ele>386.61297607</ele>
        <time>2021-06-17T06:41:04Z</time>
      </trkpt>
      <trkpt lat="48.03931" lon="7.18233">
        <ele>386.61297607</ele>
        <time>2021-06-17T06:41:05Z</time>
      </trkpt>
      <trkpt lat="48.03934" lon="7.18248">
        <ele>386.61297607</ele>
        <time>2021-06-17T06:41:06Z</time>
      </trkpt>
      <trkpt lat="48.03938" lon="7.1826">
        <ele>386.61297607</ele>
        <time>2021-06-17T06:41:07Z</time>
      </trkpt>
      <trkpt lat="48.03943" lon="7.18273">
        <ele>385.50408936</ele>
        <time>2021-06-17T06:41:08Z</time>
      </trkpt>
      <trkpt lat="48.03946" lon="7.18286">
        <ele>385.50408936</ele>
        <time>2021-06-17T06:41:09Z</time>
      </trkpt>
      <trkpt lat="48.03949" lon="7.18299">
        <ele>385.50408936</ele>
        <time>2021-06-17T06:41:10Z</time>
      </trkpt>
      <trkpt lat="48.03952" lon="7.18312">
        <ele>385.50408936</ele>
        <time>2021-06-17T06:41:11Z</time>
      </trkpt>
      <trkpt lat="48.03957" lon="7.1833">
        <ele>385.50408936</ele>
        <time>2021-06-17T06:41:13Z</time>
      </trkpt>
      <trkpt lat="48.03959" lon="7.18336">
        <ele>384.58270264</ele>
        <time>2021-06-17T06:41:14Z</time>
      </trkpt>
      <trkpt lat="48.03965" lon="7.18353">
        <ele>384.58270264</ele>
        <time>2021-06-17T06:41:15Z</time>
      </trkpt>
      <trkpt lat="48.03972" lon="7.18375">
        <ele>384.58270264</ele>
        <time>2021-06-17T06:41:17Z</time>
      </trkpt>
      <trkpt lat="48.03977" lon="7.18397">
        <ele>384.58270264</ele>
        <time>2021-06-17T06:41:19Z</time>
      </trkpt>
      <trkpt lat="48.0398" lon="7.18419">
        <ele>384.58270264</ele>
        <time>2021-06-17T06:41:21Z</time>
      </trkpt>
      <trkpt lat="48.03981" lon="7.18439">
        <ele>384.58270264</ele>
        <time>2021-06-17T06:41:23Z</time>
      </trkpt>
      <trkpt lat="48.03982" lon="7.1846">
        <ele>384.58270264</ele>
        <time>2021-06-17T06:41:25Z</time>
      </trkpt>
      <trkpt lat="48.03983" lon="7.18477">
        <ele>384.58270264</ele>
        <time>2021-06-17T06:41:27Z</time>
      </trkpt>
      <trkpt lat="48.03985" lon="7.18494">
        <ele>384.58270264</ele>
        <time>2021-06-17T06:41:29Z</time>
      </trkpt>
      <trkpt lat="48.03987" lon="7.1851">
        <ele>384.58270264</ele>
        <time>2021-06-17T06:41:31Z</time>
      </trkpt>
      <trkpt lat="48.03988" lon="7.18528">
        <ele>384.58270264</ele>
        <time>2021-06-17T06:41:33Z</time>
      </trkpt>
      <trkpt lat="48.03991" lon="7.18545">
        <ele>384.58270264</ele>
        <time>2021-06-17T06:41:35Z</time>
      </trkpt>
      <trkpt lat="48.03995" lon="7.18562">
        <ele>384.58270264</ele>
        <time>2021-06-17T06:41:37Z</time>
      </trkpt>
      <trkpt lat="48.04" lon="7.18577">
        <ele>384.58270264</ele>
        <time>2021-06-17T06:41:39Z</time>
      </trkpt>
      <trkpt lat="48.04005" lon="7.18594">
        <ele>384.58270264</ele>
        <time>2021-06-17T06:41:41Z</time>
      </trkpt>
      <trkpt lat="48.0401" lon="7.18607">
        <ele>384.58270264</ele>
        <time>2021-06-17T06:41:43Z</time>
      </trkpt>
      <trkpt lat="48.04015" lon="7.1862">
        <ele>384.58270264</ele>
        <time>2021-06-17T06:41:45Z</time>
      </trkpt>
      <trkpt lat="48.04018" lon="7.18632">
        <ele>384.58270264</ele>
        <time>2021-06-17T06:41:47Z</time>
      </trkpt>
      <trkpt lat="48.04021" lon="7.18645">
        <ele>384.58270264</ele>
        <time>2021-06-17T06:41:49Z</time>
      </trkpt>
      <trkpt lat="48.04024" lon="7.18662">
        <ele>384.58270264</ele>
        <time>2021-06-17T06:41:52Z</time>
      </trkpt>
      <trkpt lat="48.04025" lon="7.18681">
        <ele>384.58270264</ele>
        <time>2021-06-17T06:41:55Z</time>
      </trkpt>
      <trkpt lat="48.04027" lon="7.18699">
        <ele>384.58270264</ele>
        <time>2021-06-17T06:41:58Z</time>
      </trkpt>
      <trkpt lat="48.04026" lon="7.18718">
        <ele>384.7076416</ele>
        <time>2021-06-17T06:42:01Z</time>
      </trkpt>
      <trkpt lat="48.04022" lon="7.18739">
        <ele>384.7076416</ele>
        <time>2021-06-17T06:42:03Z</time>
      </trkpt>
      <trkpt lat="48.0402" lon="7.1876">
        <ele>382.46447754</ele>
        <time>2021-06-17T06:42:05Z</time>
      </trkpt>
      <trkpt lat="48.04018" lon="7.1878">
        <ele>382.46447754</ele>
        <time>2021-06-17T06:42:06Z</time>
      </trkpt>
      <trkpt lat="48.04016" lon="7.18798">
        <ele>381.27178955</ele>
        <time>2021-06-17T06:42:08Z</time>
      </trkpt>
      <trkpt lat="48.04016" lon="7.18822">
        <ele>381.27178955</ele>
        <time>2021-06-17T06:42:10Z</time>
      </trkpt>
      <trkpt lat="48.04018" lon="7.18844">
        <ele>380.1762085</ele>
        <time>2021-06-17T06:42:12Z</time>
      </trkpt>
      <trkpt lat="48.04021" lon="7.18862">
        <ele>379.45578003</ele>
        <time>2021-06-17T06:42:14Z</time>
      </trkpt>
      <trkpt lat="48.04023" lon="7.18878">
        <ele>379.45578003</ele>
        <time>2021-06-17T06:42:15Z</time>
      </trkpt>
      <trkpt lat="48.04026" lon="7.18899">
        <ele>379.45578003</ele>
        <time>2021-06-17T06:42:17Z</time>
      </trkpt>
      <trkpt lat="48.04032" lon="7.18919">
        <ele>379.45578003</ele>
        <time>2021-06-17T06:42:19Z</time>
      </trkpt>
      <trkpt lat="48.04037" lon="7.1894">
        <ele>378.69100952</ele>
        <time>2021-06-17T06:42:21Z</time>
      </trkpt>
      <trkpt lat="48.04042" lon="7.18957">
        <ele>378.69100952</ele>
        <time>2021-06-17T06:42:23Z</time>
      </trkpt>
      <trkpt lat="48.04047" lon="7.18973">
        <ele>378.69100952</ele>
        <time>2021-06-17T06:42:25Z</time>
      </trkpt>
      <trkpt lat="48.0405" lon="7.18992">
        <ele>378.69100952</ele>
        <time>2021-06-17T06:42:27Z</time>
      </trkpt>
      <trkpt lat="48.04053" lon="7.1901">
        <ele>378.69100952</ele>
        <time>2021-06-17T06:42:29Z</time>
      </trkpt>
      <trkpt lat="48.04055" lon="7.19027">
        <ele>378.69100952</ele>
        <time>2021-06-17T06:42:31Z</time>
      </trkpt>
      <trkpt lat="48.04057" lon="7.19044">
        <ele>378.69100952</ele>
        <time>2021-06-17T06:42:33Z</time>
      </trkpt>
      <trkpt lat="48.04056" lon="7.19058">
        <ele>378.69100952</ele>
        <time>2021-06-17T06:42:35Z</time>
      </trkpt>
      <trkpt lat="48.04054" lon="7.19072">
        <ele>377.84008789</ele>
        <time>2021-06-17T06:42:37Z</time>
      </trkpt>
      <trkpt lat="48.0405" lon="7.19088">
        <ele>377.84008789</ele>
        <time>2021-06-17T06:42:39Z</time>
      </trkpt>
      <trkpt lat="48.04047" lon="7.19104">
        <ele>377.84008789</ele>
        <time>2021-06-17T06:42:41Z</time>
      </trkpt>
      <trkpt lat="48.04044" lon="7.19118">
        <ele>377.84008789</ele>
        <time>2021-06-17T06:42:43Z</time>
      </trkpt>
      <trkpt lat="48.04044" lon="7.19133">
        <ele>377.84008789</ele>
        <time>2021-06-17T06:42:45Z</time>
      </trkpt>
      <trkpt lat="48.04042" lon="7.19149">
        <ele>377.84008789</ele>
        <time>2021-06-17T06:42:47Z</time>
      </trkpt>
      <trkpt lat="48.04043" lon="7.19165">
        <ele>377.84008789</ele>
        <time>2021-06-17T06:42:49Z</time>
      </trkpt>
      <trkpt lat="48.04044" lon="7.19184">
        <ele>377.84008789</ele>
        <time>2021-06-17T06:42:51Z</time>
      </trkpt>
      <trkpt lat="48.04042" lon="7.19202">
        <ele>376.82125854</ele>
        <time>2021-06-17T06:42:53Z</time>
      </trkpt>
      <trkpt lat="48.04044" lon="7.19219">
        <ele>376.82125854</ele>
        <time>2021-06-17T06:42:56Z</time>
      </trkpt>
      <trkpt lat="48.04054" lon="7.19232">
        <ele>376.82125854</ele>
        <time>2021-06-17T06:42:58Z</time>
      </trkpt>
      <trkpt lat="48.04064" lon="7.19242">
        <ele>376.82125854</ele>
        <time>2021-06-17T06:43:01Z</time>
      </trkpt>
      <trkpt lat="48.04069" lon="7.19257">
        <ele>376.82125854</ele>
        <time>2021-06-17T06:43:04Z</time>
      </trkpt>
      <trkpt lat="48.04075" lon="7.19271">
        <ele>376.82125854</ele>
        <time>2021-06-17T06:43:06Z</time>
      </trkpt>
      <trkpt lat="48.04083" lon="7.19283">
        <ele>376.82125854</ele>
        <time>2021-06-17T06:43:09Z</time>
      </trkpt>
      <trkpt lat="48.04092" lon="7.19295">
        <ele>376.82125854</ele>
        <time>2021-06-17T06:43:11Z</time>
      </trkpt>
      <trkpt lat="48.04096" lon="7.19305">
        <ele>375.66165161</ele>
        <time>2021-06-17T06:43:14Z</time>
      </trkpt>
      <trkpt lat="48.04101" lon="7.19319">
        <ele>375.66165161</ele>
        <time>2021-06-17T06:43:16Z</time>
      </trkpt>
      <trkpt lat="48.04102" lon="7.19338">
        <ele>375.66165161</ele>
        <time>2021-06-17T06:43:19Z</time>
      </trkpt>
      <trkpt lat="48.04105" lon="7.19357">
        <ele>375.66165161</ele>
        <time>2021-06-17T06:43:22Z</time>
      </trkpt>
      <trkpt lat="48.0411" lon="7.19372">
        <ele>375.66165161</ele>
        <time>2021-06-17T06:43:24Z</time>
      </trkpt>
      <trkpt lat="48.04112" lon="7.19387">
        <ele>375.64126587</ele>
        <time>2021-06-17T06:43:26Z</time>
      </trkpt>
      <trkpt lat="48.04115" lon="7.19406">
        <ele>375.64126587</ele>
        <time>2021-06-17T06:43:28Z</time>
      </trkpt>
      <trkpt lat="48.04117" lon="7.19426">
        <ele>375.64126587</ele>
        <time>2021-06-17T06:43:30Z</time>
      </trkpt>
      <trkpt lat="48.0412" lon="7.19445">
        <ele>374.17651367</ele>
        <time>2021-06-17T06:43:32Z</time>
      </trkpt>
      <trkpt lat="48.04122" lon="7.19469">
        <ele>374.17651367</ele>
        <time>2021-06-17T06:43:34Z</time>
      </trkpt>
      <trkpt lat="48.04122" lon="7.19492">
        <ele>372.86413574</ele>
        <time>2021-06-17T06:43:36Z</time>
      </trkpt>
      <trkpt lat="48.04122" lon="7.19514">
        <ele>372.86413574</ele>
        <time>2021-06-17T06:43:38Z</time>
      </trkpt>
      <trkpt lat="48.04121" lon="7.19533">
        <ele>372.86413574</ele>
        <time>2021-06-17T06:43:40Z</time>
      </trkpt>
      <trkpt lat="48.04121" lon="7.1955">
        <ele>372.86413574</ele>
        <time>2021-06-17T06:43:42Z</time>
      </trkpt>
      <trkpt lat="48.04121" lon="7.19564">
        <ele>372.86413574</ele>
        <time>2021-06-17T06:43:44Z</time>
      </trkpt>
      <trkpt lat="48.04123" lon="7.19579">
        <ele>371.71484375</ele>
        <time>2021-06-17T06:43:46Z</time>
      </trkpt>
      <trkpt lat="48.0413" lon="7.19592">
        <ele>371.71484375</ele>
        <time>2021-06-17T06:43:48Z</time>
      </trkpt>
      <trkpt lat="48.04138" lon="7.19606">
        <ele>371.71484375</ele>
        <time>2021-06-17T06:43:50Z</time>
      </trkpt>
      <trkpt lat="48.04145" lon="7.19619">
        <ele>371.71484375</ele>
        <time>2021-06-17T06:43:52Z</time>
      </trkpt>
      <trkpt lat="48.04151" lon="7.19634">
        <ele>371.71484375</ele>
        <time>2021-06-17T06:43:54Z</time>
      </trkpt>
      <trkpt lat="48.04159" lon="7.1965">
        <ele>371.71484375</ele>
        <time>2021-06-17T06:43:56Z</time>
      </trkpt>
      <trkpt lat="48.04166" lon="7.19665">
        <ele>371.01589966</ele>
        <time>2021-06-17T06:43:58Z</time>
      </trkpt>
      <trkpt lat="48.04174" lon="7.1968">
        <ele>371.01589966</ele>
        <time>2021-06-17T06:44:00Z</time>
      </trkpt>
      <trkpt lat="48.0418" lon="7.19693">
        <ele>371.01589966</ele>
        <time>2021-06-17T06:44:02Z</time>
      </trkpt>
      <trkpt lat="48.04185" lon="7.19709">
        <ele>371.01589966</ele>
        <time>2021-06-17T06:44:04Z</time>
      </trkpt>
      <trkpt lat="48.04192" lon="7.19724">
        <ele>369.66543579</ele>
        <time>2021-06-17T06:44:06Z</time>
      </trkpt>
      <trkpt lat="48.04198" lon="7.19741">
        <ele>369.66543579</ele>
        <time>2021-06-17T06:44:08Z</time>
      </trkpt>
      <trkpt lat="48.04202" lon="7.19758">
        <ele>369.66543579</ele>
        <time>2021-06-17T06:44:10Z</time>
      </trkpt>
      <trkpt lat="48.04204" lon="7.19772">
        <ele>369.66543579</ele>
        <time>2021-06-17T06:44:12Z</time>
      </trkpt>
      <trkpt lat="48.04207" lon="7.1978">
        <ele>368.98431396</ele>
        <time>2021-06-17T06:44:14Z</time>
      </trkpt>
      <trkpt lat="48.04208" lon="7.1979">
        <ele>368.98431396</ele>
        <time>2021-06-17T06:44:17Z</time>
      </trkpt>
      <trkpt lat="48.04207" lon="7.19802">
        <ele>368.98431396</ele>
        <time>2021-06-17T06:44:22Z</time>
      </trkpt>
      <trkpt lat="48.04203" lon="7.19819">
        <ele>368.35546875</ele>
        <time>2021-06-17T06:44:25Z</time>
      </trkpt>
      <trkpt lat="48.04202" lon="7.19837">
        <ele>368.35546875</ele>
        <time>2021-06-17T06:44:27Z</time>
      </trkpt>
      <trkpt lat="48.04207" lon="7.19851">
        <ele>368.35546875</ele>
        <time>2021-06-17T06:44:29Z</time>
      </trkpt>
      <trkpt lat="48.04211" lon="7.19864">
        <ele>368.35546875</ele>
        <time>2021-06-17T06:44:32Z</time>
      </trkpt>
      <trkpt lat="48.04216" lon="7.19877">
        <ele>368.35546875</ele>
        <time>2021-06-17T06:44:35Z</time>
      </trkpt>
      <trkpt lat="48.04221" lon="7.1989">
        <ele>368.35546875</ele>
        <time>2021-06-17T06:44:39Z</time>
      </trkpt>
      <trkpt lat="48.04221" lon="7.19904">
        <ele>368.35546875</ele>
        <time>2021-06-17T06:44:45Z</time>
      </trkpt>
      <trkpt lat="48.04216" lon="7.19916">
        <ele>368.35546875</ele>
        <time>2021-06-17T06:44:50Z</time>
      </trkpt>
      <trkpt lat="48.04205" lon="7.19923">
        <ele>368.35546875</ele>
        <time>2021-06-17T06:44:53Z</time>
      </trkpt>
      <trkpt lat="48.04195" lon="7.19922">
        <ele>367.99377441</ele>
        <time>2021-06-17T06:44:57Z</time>
      </trkpt>
      <trkpt lat="48.04184" lon="7.1992">
        <ele>367.99377441</ele>
        <time>2021-06-17T06:45:01Z</time>
      </trkpt>
      <trkpt lat="48.04174" lon="7.19914">
        <ele>367.99377441</ele>
        <time>2021-06-17T06:45:04Z</time>
      </trkpt>
      <trkpt lat="48.04166" lon="7.19911">
        <ele>367.99377441</ele>
        <time>2021-06-17T06:45:08Z</time>
      </trkpt>
      <trkpt lat="48.04156" lon="7.19906">
        <ele>367.99377441</ele>
        <time>2021-06-17T06:45:11Z</time>
      </trkpt>
      <trkpt lat="48.0415" lon="7.19902">
        <ele>369.15338135</ele>
        <time>2021-06-17T06:45:14Z</time>
      </trkpt>
      <trkpt lat="48.04142" lon="7.19899">
        <ele>369.15338135</ele>
        <time>2021-06-17T06:45:17Z</time>
      </trkpt>
      <trkpt lat="48.04132" lon="7.19896">
        <ele>369.15338135</ele>
        <time>2021-06-17T06:45:21Z</time>
      </trkpt>
      <trkpt lat="48.04121" lon="7.19895">
        <ele>369.15338135</ele>
        <time>2021-06-17T06:45:24Z</time>
      </trkpt>
      <trkpt lat="48.04111" lon="7.19893">
        <ele>370.22540283</ele>
        <time>2021-06-17T06:45:28Z</time>
      </trkpt>
      <trkpt lat="48.041" lon="7.19891">
        <ele>370.22540283</ele>
        <time>2021-06-17T06:45:31Z</time>
      </trkpt>
      <trkpt lat="48.0409" lon="7.1989">
        <ele>370.22540283</ele>
        <time>2021-06-17T06:45:35Z</time>
      </trkpt>
      <trkpt lat="48.04079" lon="7.1989">
        <ele>370.22540283</ele>
        <time>2021-06-17T06:45:38Z</time>
      </trkpt>
      <trkpt lat="48.04069" lon="7.1989">
        <ele>371.40493774</ele>
        <time>2021-06-17T06:45:42Z</time>
      </trkpt>
      <trkpt lat="48.04058" lon="7.19892">
        <ele>371.40493774</ele>
        <time>2021-06-17T06:45:46Z</time>
      </trkpt>
      <trkpt lat="48.04046" lon="7.19894">
        <ele>371.40493774</ele>
        <time>2021-06-17T06:45:50Z</time>
      </trkpt>
      <trkpt lat="48.04035" lon="7.19896">
        <ele>371.40493774</ele>
        <time>2021-06-17T06:45:53Z</time>
      </trkpt>
      <trkpt lat="48.04025" lon="7.19897">
        <ele>372.4324646</ele>
        <time>2021-06-17T06:45:57Z</time>
      </trkpt>
      <trkpt lat="48.04014" lon="7.199">
        <ele>372.4324646</ele>
        <time>2021-06-17T06:46:00Z</time>
      </trkpt>
      <trkpt lat="48.04004" lon="7.19902">
        <ele>372.4324646</ele>
        <time>2021-06-17T06:46:04Z</time>
      </trkpt>
      <trkpt lat="48.03993" lon="7.19905">
        <ele>372.4324646</ele>
        <time>2021-06-17T06:46:08Z</time>
      </trkpt>
      <trkpt lat="48.03981" lon="7.19907">
        <ele>372.4324646</ele>
        <time>2021-06-17T06:46:12Z</time>
      </trkpt>
      <trkpt lat="48.03973" lon="7.19908">
        <ele>373.35006714</ele>
        <time>2021-06-17T06:46:14Z</time>
      </trkpt>
      <trkpt lat="48.03967" lon="7.1991">
        <ele>373.35006714</ele>
        <time>2021-06-17T06:46:17Z</time>
      </trkpt>
      <trkpt lat="48.03955" lon="7.19912">
        <ele>373.35006714</ele>
        <time>2021-06-17T06:46:21Z</time>
      </trkpt>
      <trkpt lat="48.03945" lon="7.19913">
        <ele>373.35006714</ele>
        <time>2021-06-17T06:46:25Z</time>
      </trkpt>
      <trkpt lat="48.03935" lon="7.19915">
        <ele>373.35006714</ele>
        <time>2021-06-17T06:46:28Z</time>
      </trkpt>
      <trkpt lat="48.03925" lon="7.19915">
        <ele>373.35006714</ele>
        <time>2021-06-17T06:46:31Z</time>
      </trkpt>
      <trkpt lat="48.03915" lon="7.19916">
        <ele>374.34887695</ele>
        <time>2021-06-17T06:46:34Z</time>
      </trkpt>
      <trkpt lat="48.03905" lon="7.19917">
        <ele>374.34887695</ele>
        <time>2021-06-17T06:46:38Z</time>
      </trkpt>
      <trkpt lat="48.03893" lon="7.19914">
        <ele>374.34887695</ele>
        <time>2021-06-17T06:46:42Z</time>
      </trkpt>
      <trkpt lat="48.03882" lon="7.19912">
        <ele>374.34887695</ele>
        <time>2021-06-17T06:46:46Z</time>
      </trkpt>
      <trkpt lat="48.0387" lon="7.19912">
        <ele>374.34887695</ele>
        <time>2021-06-17T06:46:50Z</time>
      </trkpt>
      <trkpt lat="48.03859" lon="7.19913">
        <ele>374.34887695</ele>
        <time>2021-06-17T06:46:53Z</time>
      </trkpt>
      <trkpt lat="48.03849" lon="7.19916">
        <ele>374.34887695</ele>
        <time>2021-06-17T06:46:56Z</time>
      </trkpt>
      <trkpt lat="48.03838" lon="7.19925">
        <ele>374.34887695</ele>
        <time>2021-06-17T06:46:59Z</time>
      </trkpt>
      <trkpt lat="48.03828" lon="7.19935">
        <ele>374.34887695</ele>
        <time>2021-06-17T06:47:02Z</time>
      </trkpt>
      <trkpt lat="48.0382" lon="7.19946">
        <ele>374.34887695</ele>
        <time>2021-06-17T06:47:05Z</time>
      </trkpt>
      <trkpt lat="48.03812" lon="7.19958">
        <ele>374.34887695</ele>
        <time>2021-06-17T06:47:08Z</time>
      </trkpt>
      <trkpt lat="48.03806" lon="7.19969">
        <ele>374.34887695</ele>
        <time>2021-06-17T06:47:11Z</time>
      </trkpt>
      <trkpt lat="48.038" lon="7.19979">
        <ele>375.58999634</ele>
        <time>2021-06-17T06:47:14Z</time>
      </trkpt>
      <trkpt lat="48.03794" lon="7.19987">
        <ele>375.58999634</ele>
        <time>2021-06-17T06:47:16Z</time>
      </trkpt>
      <trkpt lat="48.03788" lon="7.19997">
        <ele>375.58999634</ele>
        <time>2021-06-17T06:47:19Z</time>
      </trkpt>
      <trkpt lat="48.03781" lon="7.20007">
        <ele>375.58999634</ele>
        <time>2021-06-17T06:47:22Z</time>
      </trkpt>
      <trkpt lat="48.03774" lon="7.20016">
        <ele>375.58999634</ele>
        <time>2021-06-17T06:47:25Z</time>
      </trkpt>
      <trkpt lat="48.03764" lon="7.20026">
        <ele>375.58999634</ele>
        <time>2021-06-17T06:47:28Z</time>
      </trkpt>
      <trkpt lat="48.03754" lon="7.20034">
        <ele>375.58999634</ele>
        <time>2021-06-17T06:47:31Z</time>
      </trkpt>
      <trkpt lat="48.03746" lon="7.20042">
        <ele>375.58999634</ele>
        <time>2021-06-17T06:47:34Z</time>
      </trkpt>
      <trkpt lat="48.03737" lon="7.20052">
        <ele>375.58999634</ele>
        <time>2021-06-17T06:47:36Z</time>
      </trkpt>
      <trkpt lat="48.03729" lon="7.2006">
        <ele>375.58999634</ele>
        <time>2021-06-17T06:47:39Z</time>
      </trkpt>
      <trkpt lat="48.0372" lon="7.20069">
        <ele>375.58999634</ele>
        <time>2021-06-17T06:47:42Z</time>
      </trkpt>
      <trkpt lat="48.03711" lon="7.20079">
        <ele>375.58999634</ele>
        <time>2021-06-17T06:47:46Z</time>
      </trkpt>
      <trkpt lat="48.03705" lon="7.20093">
        <ele>376.23986816</ele>
        <time>2021-06-17T06:47:50Z</time>
      </trkpt>
      <trkpt lat="48.03705" lon="7.2011">
        <ele>376.23986816</ele>
        <time>2021-06-17T06:47:54Z</time>
      </trkpt>
      <trkpt lat="48.03706" lon="7.2013">
        <ele>376.23986816</ele>
        <time>2021-06-17T06:47:57Z</time>
      </trkpt>
      <trkpt lat="48.03708" lon="7.20144">
        <ele>376.23986816</ele>
        <time>2021-06-17T06:48:00Z</time>
      </trkpt>
      <trkpt lat="48.0371" lon="7.20159">
        <ele>376.23986816</ele>
        <time>2021-06-17T06:48:03Z</time>
      </trkpt>
      <trkpt lat="48.03711" lon="7.20174">
        <ele>376.23986816</ele>
        <time>2021-06-17T06:48:06Z</time>
      </trkpt>
      <trkpt lat="48.03714" lon="7.20188">
        <ele>376.23986816</ele>
        <time>2021-06-17T06:48:10Z</time>
      </trkpt>
      <trkpt lat="48.03716" lon="7.202">
        <ele>376.84588623</ele>
        <time>2021-06-17T06:48:14Z</time>
      </trkpt>
      <trkpt lat="48.03718" lon="7.20213">
        <ele>376.84588623</ele>
        <time>2021-06-17T06:48:17Z</time>
      </trkpt>
      <trkpt lat="48.03718" lon="7.20231">
        <ele>376.84588623</ele>
        <time>2021-06-17T06:48:20Z</time>
      </trkpt>
      <trkpt lat="48.03713" lon="7.20245">
        <ele>376.84588623</ele>
        <time>2021-06-17T06:48:22Z</time>
      </trkpt>
      <trkpt lat="48.03709" lon="7.20257">
        <ele>376.84588623</ele>
        <time>2021-06-17T06:48:29Z</time>
      </trkpt>
      <trkpt lat="48.03708" lon="7.20271">
        <ele>376.84588623</ele>
        <time>2021-06-17T06:48:34Z</time>
      </trkpt>
      <trkpt lat="48.03698" lon="7.20279">
        <ele>377.37545776</ele>
        <time>2021-06-17T06:48:37Z</time>
      </trkpt>
      <trkpt lat="48.03688" lon="7.20288">
        <ele>377.37545776</ele>
        <time>2021-06-17T06:48:42Z</time>
      </trkpt>
      <trkpt lat="48.03682" lon="7.20297">
        <ele>377.37545776</ele>
        <time>2021-06-17T06:48:53Z</time>
      </trkpt>
      <trkpt lat="48.03681" lon="7.20296">
        <ele>377.37545776</ele>
        <time>2021-06-17T06:49:05Z</time>
      </trkpt>
      <trkpt lat="48.03691" lon="7.20288">
        <ele>378.53955078</ele>
        <time>2021-06-17T06:49:14Z</time>
      </trkpt>
      <trkpt lat="48.03701" lon="7.20283">
        <ele>378.53955078</ele>
        <time>2021-06-17T06:49:17Z</time>
      </trkpt>
      <trkpt lat="48.03711" lon="7.20294">
        <ele>378.53955078</ele>
        <time>2021-06-17T06:49:21Z</time>
      </trkpt>
      <trkpt lat="48.03718" lon="7.20301">
        <ele>378.72463989</ele>
        <time>2021-06-17T06:49:27Z</time>
      </trkpt>
      <trkpt lat="48.03725" lon="7.20311">
        <ele>378.72463989</ele>
        <time>2021-06-17T06:49:32Z</time>
      </trkpt>
      <trkpt lat="48.03736" lon="7.20318">
        <ele>378.72463989</ele>
        <time>2021-06-17T06:49:35Z</time>
      </trkpt>
      <trkpt lat="48.03745" lon="7.2032">
        <ele>379.96466064</ele>
        <time>2021-06-17T06:49:38Z</time>
      </trkpt>
      <trkpt lat="48.03754" lon="7.2032">
        <ele>379.96466064</ele>
        <time>2021-06-17T06:49:40Z</time>
      </trkpt>
      <trkpt lat="48.03762" lon="7.20324">
        <ele>381.06173706</ele>
        <time>2021-06-17T06:49:45Z</time>
      </trkpt>
      <trkpt lat="48.03766" lon="7.20337">
        <ele>382.10635376</ele>
        <time>2021-06-17T06:49:52Z</time>
      </trkpt>
      <trkpt lat="48.03761" lon="7.2035">
        <ele>382.10635376</ele>
        <time>2021-06-17T06:49:59Z</time>
      </trkpt>
      <trkpt lat="48.03755" lon="7.20364">
        <ele>382.10635376</ele>
        <time>2021-06-17T06:50:03Z</time>
      </trkpt>
      <trkpt lat="48.03745" lon="7.20368">
        <ele>383.08682251</ele>
        <time>2021-06-17T06:50:07Z</time>
      </trkpt>
      <trkpt lat="48.03735" lon="7.20372">
        <ele>383.08682251</ele>
        <time>2021-06-17T06:50:10Z</time>
      </trkpt>
      <trkpt lat="48.03723" lon="7.20378">
        <ele>383.08682251</ele>
        <time>2021-06-17T06:50:13Z</time>
      </trkpt>
      <trkpt lat="48.0372" lon="7.2038">
        <ele>384.14202881</ele>
        <time>2021-06-17T06:50:14Z</time>
      </trkpt>
      <trkpt lat="48.03713" lon="7.20382">
        <ele>384.14202881</ele>
        <time>2021-06-17T06:50:17Z</time>
      </trkpt>
      <trkpt lat="48.03702" lon="7.20385">
        <ele>384.14202881</ele>
        <time>2021-06-17T06:50:20Z</time>
      </trkpt>
      <trkpt lat="48.03691" lon="7.20389">
        <ele>384.14202881</ele>
        <time>2021-06-17T06:50:24Z</time>
      </trkpt>
      <trkpt lat="48.03681" lon="7.20388">
        <ele>384.14202881</ele>
        <time>2021-06-17T06:50:28Z</time>
      </trkpt>
      <trkpt lat="48.03669" lon="7.20387">
        <ele>384.14202881</ele>
        <time>2021-06-17T06:50:31Z</time>
      </trkpt>
      <trkpt lat="48.03658" lon="7.20387">
        <ele>384.14202881</ele>
        <time>2021-06-17T06:50:35Z</time>
      </trkpt>
      <trkpt lat="48.03646" lon="7.20385">
        <ele>384.14202881</ele>
        <time>2021-06-17T06:50:39Z</time>
      </trkpt>
      <trkpt lat="48.03635" lon="7.20382">
        <ele>384.14202881</ele>
        <time>2021-06-17T06:50:42Z</time>
      </trkpt>
      <trkpt lat="48.03626" lon="7.20377">
        <ele>384.14202881</ele>
        <time>2021-06-17T06:50:45Z</time>
      </trkpt>
      <trkpt lat="48.03616" lon="7.20374">
        <ele>384.14202881</ele>
        <time>2021-06-17T06:50:48Z</time>
      </trkpt>
      <trkpt lat="48.03603" lon="7.2037">
        <ele>384.14202881</ele>
        <time>2021-06-17T06:50:51Z</time>
      </trkpt>
      <trkpt lat="48.03592" lon="7.20365">
        <ele>384.14202881</ele>
        <time>2021-06-17T06:50:54Z</time>
      </trkpt>
      <trkpt lat="48.03581" lon="7.20361">
        <ele>384.14202881</ele>
        <time>2021-06-17T06:50:57Z</time>
      </trkpt>
      <trkpt lat="48.0357" lon="7.20358">
        <ele>385.12554932</ele>
        <time>2021-06-17T06:51:00Z</time>
      </trkpt>
      <trkpt lat="48.0356" lon="7.20354">
        <ele>385.12554932</ele>
        <time>2021-06-17T06:51:03Z</time>
      </trkpt>
      <trkpt lat="48.0355" lon="7.20349">
        <ele>385.12554932</ele>
        <time>2021-06-17T06:51:06Z</time>
      </trkpt>
      <trkpt lat="48.03539" lon="7.20343">
        <ele>385.12554932</ele>
        <time>2021-06-17T06:51:09Z</time>
      </trkpt>
      <trkpt lat="48.03529" lon="7.20337">
        <ele>385.12554932</ele>
        <time>2021-06-17T06:51:12Z</time>
      </trkpt>
      <trkpt lat="48.03521" lon="7.20333">
        <ele>385.88751221</ele>
        <time>2021-06-17T06:51:14Z</time>
      </trkpt>
      <trkpt lat="48.03514" lon="7.2033">
        <ele>385.88751221</ele>
        <time>2021-06-17T06:51:16Z</time>
      </trkpt>
      <trkpt lat="48.03502" lon="7.20326">
        <ele>385.88751221</ele>
        <time>2021-06-17T06:51:19Z</time>
      </trkpt>
      <trkpt lat="48.03492" lon="7.20323">
        <ele>385.88751221</ele>
        <time>2021-06-17T06:51:22Z</time>
      </trkpt>
      <trkpt lat="48.03483" lon="7.20319">
        <ele>385.88751221</ele>
        <time>2021-06-17T06:51:25Z</time>
      </trkpt>
      <trkpt lat="48.03474" lon="7.20314">
        <ele>385.88751221</ele>
        <time>2021-06-17T06:51:28Z</time>
      </trkpt>
      <trkpt lat="48.03463" lon="7.2031">
        <ele>386.71286011</ele>
        <time>2021-06-17T06:51:31Z</time>
      </trkpt>
      <trkpt lat="48.03452" lon="7.20305">
        <ele>386.71286011</ele>
        <time>2021-06-17T06:51:35Z</time>
      </trkpt>
      <trkpt lat="48.03441" lon="7.20301">
        <ele>386.71286011</ele>
        <time>2021-06-17T06:51:39Z</time>
      </trkpt>
      <trkpt lat="48.0343" lon="7.20297">
        <ele>387.92407227</ele>
        <time>2021-06-17T06:51:42Z</time>
      </trkpt>
      <trkpt lat="48.0342" lon="7.20294">
        <ele>387.92407227</ele>
        <time>2021-06-17T06:51:46Z</time>
      </trkpt>
      <trkpt lat="48.03409" lon="7.20291">
        <ele>387.92407227</ele>
        <time>2021-06-17T06:51:49Z</time>
      </trkpt>
      <trkpt lat="48.03399" lon="7.20287">
        <ele>389.01107788</ele>
        <time>2021-06-17T06:51:53Z</time>
      </trkpt>
      <trkpt lat="48.03388" lon="7.20284">
        <ele>389.01107788</ele>
        <time>2021-06-17T06:51:57Z</time>
      </trkpt>
      <trkpt lat="48.03378" lon="7.20279">
        <ele>389.01107788</ele>
        <time>2021-06-17T06:52:01Z</time>
      </trkpt>
      <trkpt lat="48.03368" lon="7.20279">
        <ele>390.10223389</ele>
        <time>2021-06-17T06:52:04Z</time>
      </trkpt>
      <trkpt lat="48.03359" lon="7.20276">
        <ele>390.10223389</ele>
        <time>2021-06-17T06:52:09Z</time>
      </trkpt>
      <trkpt lat="48.03348" lon="7.20275">
        <ele>391.1355896</ele>
        <time>2021-06-17T06:52:12Z</time>
      </trkpt>
      <trkpt lat="48.03341" lon="7.20275">
        <ele>391.88851929</ele>
        <time>2021-06-17T06:52:14Z</time>
      </trkpt>
      <trkpt lat="48.03335" lon="7.20274">
        <ele>391.88851929</ele>
        <time>2021-06-17T06:52:17Z</time>
      </trkpt>
      <trkpt lat="48.03325" lon="7.20274">
        <ele>391.88851929</ele>
        <time>2021-06-17T06:52:20Z</time>
      </trkpt>
      <trkpt lat="48.03314" lon="7.20273">
        <ele>391.88851929</ele>
        <time>2021-06-17T06:52:24Z</time>
      </trkpt>
      <trkpt lat="48.03302" lon="7.20272">
        <ele>392.57592773</ele>
        <time>2021-06-17T06:52:27Z</time>
      </trkpt>
      <trkpt lat="48.03291" lon="7.2027">
        <ele>392.57592773</ele>
        <time>2021-06-17T06:52:30Z</time>
      </trkpt>
      <trkpt lat="48.0328" lon="7.20266">
        <ele>392.57592773</ele>
        <time>2021-06-17T06:52:33Z</time>
      </trkpt>
      <trkpt lat="48.03272" lon="7.20259">
        <ele>393.57559204</ele>
        <time>2021-06-17T06:52:36Z</time>
      </trkpt>
      <trkpt lat="48.03264" lon="7.20248">
        <ele>393.57559204</ele>
        <time>2021-06-17T06:52:39Z</time>
      </trkpt>
      <trkpt lat="48.03254" lon="7.20235">
        <ele>393.57559204</ele>
        <time>2021-06-17T06:52:42Z</time>
      </trkpt>
      <trkpt lat="48.03246" lon="7.20223">
        <ele>393.57559204</ele>
        <time>2021-06-17T06:52:45Z</time>
      </trkpt>
      <trkpt lat="48.03236" lon="7.20215">
        <ele>393.57559204</ele>
        <time>2021-06-17T06:52:48Z</time>
      </trkpt>
      <trkpt lat="48.03226" lon="7.20202">
        <ele>393.57559204</ele>
        <time>2021-06-17T06:52:51Z</time>
      </trkpt>
      <trkpt lat="48.0322" lon="7.20186">
        <ele>393.57559204</ele>
        <time>2021-06-17T06:52:53Z</time>
      </trkpt>
      <trkpt lat="48.03214" lon="7.20174">
        <ele>393.57559204</ele>
        <time>2021-06-17T06:52:55Z</time>
      </trkpt>
      <trkpt lat="48.03205" lon="7.20165">
        <ele>393.57559204</ele>
        <time>2021-06-17T06:52:57Z</time>
      </trkpt>
      <trkpt lat="48.03197" lon="7.20155">
        <ele>393.57559204</ele>
        <time>2021-06-17T06:53:00Z</time>
      </trkpt>
      <trkpt lat="48.03189" lon="7.20141">
        <ele>393.57559204</ele>
        <time>2021-06-17T06:53:02Z</time>
      </trkpt>
      <trkpt lat="48.03181" lon="7.20131">
        <ele>393.57559204</ele>
        <time>2021-06-17T06:53:04Z</time>
      </trkpt>
      <trkpt lat="48.03173" lon="7.20122">
        <ele>393.57559204</ele>
        <time>2021-06-17T06:53:07Z</time>
      </trkpt>
      <trkpt lat="48.03164" lon="7.20109">
        <ele>393.57559204</ele>
        <time>2021-06-17T06:53:09Z</time>
      </trkpt>
      <trkpt lat="48.03158" lon="7.20096">
        <ele>393.57559204</ele>
        <time>2021-06-17T06:53:12Z</time>
      </trkpt>
      <trkpt lat="48.03151" lon="7.20086">
        <ele>394.30703735</ele>
        <time>2021-06-17T06:53:14Z</time>
      </trkpt>
      <trkpt lat="48.03145" lon="7.20077">
        <ele>394.30703735</ele>
        <time>2021-06-17T06:53:16Z</time>
      </trkpt>
      <trkpt lat="48.03135" lon="7.20065">
        <ele>394.30703735</ele>
        <time>2021-06-17T06:53:19Z</time>
      </trkpt>
      <trkpt lat="48.03124" lon="7.20056">
        <ele>394.30703735</ele>
        <time>2021-06-17T06:53:21Z</time>
      </trkpt>
      <trkpt lat="48.03115" lon="7.20049">
        <ele>394.30703735</ele>
        <time>2021-06-17T06:53:23Z</time>
      </trkpt>
      <trkpt lat="48.03105" lon="7.20046">
        <ele>394.30703735</ele>
        <time>2021-06-17T06:53:25Z</time>
      </trkpt>
      <trkpt lat="48.03095" lon="7.20044">
        <ele>394.30703735</ele>
        <time>2021-06-17T06:53:28Z</time>
      </trkpt>
      <trkpt lat="48.03082" lon="7.20041">
        <ele>394.6194458</ele>
        <time>2021-06-17T06:53:31Z</time>
      </trkpt>
      <trkpt lat="48.0307" lon="7.20038">
        <ele>394.6194458</ele>
        <time>2021-06-17T06:53:34Z</time>
      </trkpt>
      <trkpt lat="48.03059" lon="7.20033">
        <ele>395.79400635</ele>
        <time>2021-06-17T06:53:37Z</time>
      </trkpt>
      <trkpt lat="48.03049" lon="7.20029">
        <ele>395.79400635</ele>
        <time>2021-06-17T06:53:40Z</time>
      </trkpt>
      <trkpt lat="48.03039" lon="7.20024">
        <ele>395.79400635</ele>
        <time>2021-06-17T06:53:43Z</time>
      </trkpt>
      <trkpt lat="48.03029" lon="7.20019">
        <ele>396.89706421</ele>
        <time>2021-06-17T06:53:46Z</time>
      </trkpt>
      <trkpt lat="48.03019" lon="7.20016">
        <ele>396.89706421</ele>
        <time>2021-06-17T06:53:49Z</time>
      </trkpt>
      <trkpt lat="48.03009" lon="7.20009">
        <ele>397.95046997</ele>
        <time>2021-06-17T06:53:53Z</time>
      </trkpt>
      <trkpt lat="48.03" lon="7.20003">
        <ele>397.95046997</ele>
        <time>2021-06-17T06:53:56Z</time>
      </trkpt>
      <trkpt lat="48.0299" lon="7.2">
        <ele>399.02804565</ele>
        <time>2021-06-17T06:54:00Z</time>
      </trkpt>
      <trkpt lat="48.02981" lon="7.19993">
        <ele>399.02804565</ele>
        <time>2021-06-17T06:54:04Z</time>
      </trkpt>
      <trkpt lat="48.02973" lon="7.19983">
        <ele>399.97930908</ele>
        <time>2021-06-17T06:54:08Z</time>
      </trkpt>
      <trkpt lat="48.02962" lon="7.19981">
        <ele>399.97930908</ele>
        <time>2021-06-17T06:54:12Z</time>
      </trkpt>
      <trkpt lat="48.02955" lon="7.1998">
        <ele>401.07479858</ele>
        <time>2021-06-17T06:54:14Z</time>
      </trkpt>
      <trkpt lat="48.02948" lon="7.19978">
        <ele>401.07479858</ele>
        <time>2021-06-17T06:54:17Z</time>
      </trkpt>
      <trkpt lat="48.02937" lon="7.19976">
        <ele>402.0463562</ele>
        <time>2021-06-17T06:54:21Z</time>
      </trkpt>
      <trkpt lat="48.02926" lon="7.19975">
        <ele>402.0463562</ele>
        <time>2021-06-17T06:54:25Z</time>
      </trkpt>
      <trkpt lat="48.02917" lon="7.19973">
        <ele>403.26361084</ele>
        <time>2021-06-17T06:54:30Z</time>
      </trkpt>
      <trkpt lat="48.02906" lon="7.19971">
        <ele>403.26361084</ele>
        <time>2021-06-17T06:54:34Z</time>
      </trkpt>
      <trkpt lat="48.02896" lon="7.1997">
        <ele>404.33572388</ele>
        <time>2021-06-17T06:54:38Z</time>
      </trkpt>
      <trkpt lat="48.02885" lon="7.19969">
        <ele>404.33572388</ele>
        <time>2021-06-17T06:54:42Z</time>
      </trkpt>
      <trkpt lat="48.02875" lon="7.19968">
        <ele>405.32278442</ele>
        <time>2021-06-17T06:54:47Z</time>
      </trkpt>
      <trkpt lat="48.02866" lon="7.19963">
        <ele>405.32278442</ele>
        <time>2021-06-17T06:54:53Z</time>
      </trkpt>
      <trkpt lat="48.02857" lon="7.19962">
        <ele>405.32278442</ele>
        <time>2021-06-17T06:54:57Z</time>
      </trkpt>
      <trkpt lat="48.02846" lon="7.19964">
        <ele>406.48324585</ele>
        <time>2021-06-17T06:55:01Z</time>
      </trkpt>
      <trkpt lat="48.02836" lon="7.19965">
        <ele>407.65539551</ele>
        <time>2021-06-17T06:55:06Z</time>
      </trkpt>
      <trkpt lat="48.02826" lon="7.19965">
        <ele>407.65539551</ele>
        <time>2021-06-17T06:55:11Z</time>
      </trkpt>
      <trkpt lat="48.02819" lon="7.19963">
        <ele>408.50604248</ele>
        <time>2021-06-17T06:55:14Z</time>
      </trkpt>
      <trkpt lat="48.02811" lon="7.19962">
        <ele>408.50604248</ele>
        <time>2021-06-17T06:55:18Z</time>
      </trkpt>
      <trkpt lat="48.02801" lon="7.19957">
        <ele>409.45361328</ele>
        <time>2021-06-17T06:55:24Z</time>
      </trkpt>
      <trkpt lat="48.02791" lon="7.19954">
        <ele>409.45361328</ele>
        <time>2021-06-17T06:55:29Z</time>
      </trkpt>
      <trkpt lat="48.0278" lon="7.19953">
        <ele>410.60092163</ele>
        <time>2021-06-17T06:55:33Z</time>
      </trkpt>
      <trkpt lat="48.02771" lon="7.19951">
        <ele>410.60092163</ele>
        <time>2021-06-17T06:55:38Z</time>
      </trkpt>
      <trkpt lat="48.02762" lon="7.19946">
        <ele>411.67547607</ele>
        <time>2021-06-17T06:55:44Z</time>
      </trkpt>
      <trkpt lat="48.02751" lon="7.19945">
        <ele>412.7673645</ele>
        <time>2021-06-17T06:55:48Z</time>
      </trkpt>
      <trkpt lat="48.02742" lon="7.19945">
        <ele>412.7673645</ele>
        <time>2021-06-17T06:55:52Z</time>
      </trkpt>
      <trkpt lat="48.02731" lon="7.19946">
        <ele>413.84649658</ele>
        <time>2021-06-17T06:55:56Z</time>
      </trkpt>
      <trkpt lat="48.02721" lon="7.19944">
        <ele>414.83758545</ele>
        <time>2021-06-17T06:56:00Z</time>
      </trkpt>
      <trkpt lat="48.02711" lon="7.19943">
        <ele>415.96795654</ele>
        <time>2021-06-17T06:56:04Z</time>
      </trkpt>
      <trkpt lat="48.02702" lon="7.19939">
        <ele>415.96795654</ele>
        <time>2021-06-17T06:56:08Z</time>
      </trkpt>
      <trkpt lat="48.0269" lon="7.19939">
        <ele>416.93295288</ele>
        <time>2021-06-17T06:56:11Z</time>
      </trkpt>
      <trkpt lat="48.02683" lon="7.1994">
        <ele>417.7885437</ele>
        <time>2021-06-17T06:56:14Z</time>
      </trkpt>
      <trkpt lat="48.02676" lon="7.19938">
        <ele>417.7885437</ele>
        <time>2021-06-17T06:56:17Z</time>
      </trkpt>
      <trkpt lat="48.02666" lon="7.19938">
        <ele>418.6362915</ele>
        <time>2021-06-17T06:56:21Z</time>
      </trkpt>
      <trkpt lat="48.02657" lon="7.19934">
        <ele>418.6362915</ele>
        <time>2021-06-17T06:56:27Z</time>
      </trkpt>
      <trkpt lat="48.0265" lon="7.19921">
        <ele>419.72213745</ele>
        <time>2021-06-17T06:56:32Z</time>
      </trkpt>
      <trkpt lat="48.02641" lon="7.19915">
        <ele>420.81964111</ele>
        <time>2021-06-17T06:56:36Z</time>
      </trkpt>
      <trkpt lat="48.02633" lon="7.19908">
        <ele>421.76428223</ele>
        <time>2021-06-17T06:56:41Z</time>
      </trkpt>
      <trkpt lat="48.02624" lon="7.19904">
        <ele>422.88085938</ele>
        <time>2021-06-17T06:56:47Z</time>
      </trkpt>
      <trkpt lat="48.02613" lon="7.19898">
        <ele>422.88085938</ele>
        <time>2021-06-17T06:56:51Z</time>
      </trkpt>
      <trkpt lat="48.02606" lon="7.19889">
        <ele>422.88085938</ele>
        <time>2021-06-17T06:56:56Z</time>
      </trkpt>
      <trkpt lat="48.02598" lon="7.19881">
        <ele>425.16815186</ele>
        <time>2021-06-17T06:57:01Z</time>
      </trkpt>
      <trkpt lat="48.0259" lon="7.19873">
        <ele>425.16815186</ele>
        <time>2021-06-17T06:57:06Z</time>
      </trkpt>
      <trkpt lat="48.0258" lon="7.19868">
        <ele>426.34616089</ele>
        <time>2021-06-17T06:57:10Z</time>
      </trkpt>
      <trkpt lat="48.02571" lon="7.19867">
        <ele>427.30895996</ele>
        <time>2021-06-17T06:57:14Z</time>
      </trkpt>
      <trkpt lat="48.02563" lon="7.19863">
        <ele>427.30895996</ele>
        <time>2021-06-17T06:57:18Z</time>
      </trkpt>
      <trkpt lat="48.02542" lon="7.19857">
        <ele>428.38372803</ele>
        <time>2021-06-17T06:57:26Z</time>
      </trkpt>
      <trkpt lat="48.02533" lon="7.19854">
        <ele>429.43380737</ele>
        <time>2021-06-17T06:57:29Z</time>
      </trkpt>
      <trkpt lat="48.02522" lon="7.19853">
        <ele>430.61843872</ele>
        <time>2021-06-17T06:57:33Z</time>
      </trkpt>
      <trkpt lat="48.02512" lon="7.19849">
        <ele>431.55862427</ele>
        <time>2021-06-17T06:57:38Z</time>
      </trkpt>
      <trkpt lat="48.02502" lon="7.19847">
        <ele>431.55862427</ele>
        <time>2021-06-17T06:57:42Z</time>
      </trkpt>
      <trkpt lat="48.02491" lon="7.19842">
        <ele>432.68374634</ele>
        <time>2021-06-17T06:57:47Z</time>
      </trkpt>
      <trkpt lat="48.02482" lon="7.19836">
        <ele>433.73980713</ele>
        <time>2021-06-17T06:57:51Z</time>
      </trkpt>
      <trkpt lat="48.02473" lon="7.1983">
        <ele>433.73980713</ele>
        <time>2021-06-17T06:57:55Z</time>
      </trkpt>
      <trkpt lat="48.02465" lon="7.19824">
        <ele>435.91693115</ele>
        <time>2021-06-17T06:58:00Z</time>
      </trkpt>
      <trkpt lat="48.02456" lon="7.19821">
        <ele>435.91693115</ele>
        <time>2021-06-17T06:58:04Z</time>
      </trkpt>
      <trkpt lat="48.02447" lon="7.1982">
        <ele>436.99890137</ele>
        <time>2021-06-17T06:58:10Z</time>
      </trkpt>
      <trkpt lat="48.0244" lon="7.19816">
        <ele>438.58010864</ele>
        <time>2021-06-17T06:58:14Z</time>
      </trkpt>
      <trkpt lat="48.02431" lon="7.19816">
        <ele>438.58010864</ele>
        <time>2021-06-17T06:58:21Z</time>
      </trkpt>
      <trkpt lat="48.02422" lon="7.19822">
        <ele>439.19659424</ele>
        <time>2021-06-17T06:58:26Z</time>
      </trkpt>
      <trkpt lat="48.02413" lon="7.1983">
        <ele>440.38134766</ele>
        <time>2021-06-17T06:58:30Z</time>
      </trkpt>
      <trkpt lat="48.02407" lon="7.19841">
        <ele>441.60061646</ele>
        <time>2021-06-17T06:58:38Z</time>
      </trkpt>
      <trkpt lat="48.02406" lon="7.19858">
        <ele>441.60061646</ele>
        <time>2021-06-17T06:58:42Z</time>
      </trkpt>
      <trkpt lat="48.02406" lon="7.19873">
        <ele>442.62298584</ele>
        <time>2021-06-17T06:58:48Z</time>
      </trkpt>
      <trkpt lat="48.02408" lon="7.19887">
        <ele>443.6546936</ele>
        <time>2021-06-17T06:58:54Z</time>
      </trkpt>
      <trkpt lat="48.02411" lon="7.19899">
        <ele>444.86428833</ele>
        <time>2021-06-17T06:58:59Z</time>
      </trkpt>
      <trkpt lat="48.02411" lon="7.19913">
        <ele>445.89364624</ele>
        <time>2021-06-17T06:59:05Z</time>
      </trkpt>
      <trkpt lat="48.02413" lon="7.19929">
        <ele>445.89364624</ele>
        <time>2021-06-17T06:59:09Z</time>
      </trkpt>
      <trkpt lat="48.02407" lon="7.19947">
        <ele>445.89364624</ele>
        <time>2021-06-17T06:59:11Z</time>
      </trkpt>
      <trkpt lat="48.024" lon="7.19952">
        <ele>447.40927124</ele>
        <time>2021-06-17T06:59:14Z</time>
      </trkpt>
      <trkpt lat="48.02392" lon="7.19958">
        <ele>447.40927124</ele>
        <time>2021-06-17T06:59:16Z</time>
      </trkpt>
      <trkpt lat="48.02383" lon="7.19964">
        <ele>447.40927124</ele>
        <time>2021-06-17T06:59:19Z</time>
      </trkpt>
      <trkpt lat="48.02362" lon="7.19964">
        <ele>447.40927124</ele>
        <time>2021-06-17T06:59:28Z</time>
      </trkpt>
      <trkpt lat="48.02353" lon="7.19961">
        <ele>449.09692383</ele>
        <time>2021-06-17T06:59:34Z</time>
      </trkpt>
      <trkpt lat="48.02346" lon="7.19951">
        <ele>450.24923706</ele>
        <time>2021-06-17T06:59:40Z</time>
      </trkpt>
      <trkpt lat="48.02343" lon="7.19936">
        <ele>451.42831421</ele>
        <time>2021-06-17T06:59:44Z</time>
      </trkpt>
      <trkpt lat="48.02341" lon="7.19923">
        <ele>451.42831421</ele>
        <time>2021-06-17T06:59:49Z</time>
      </trkpt>
      <trkpt lat="48.02335" lon="7.19911">
        <ele>452.49249268</ele>
        <time>2021-06-17T06:59:53Z</time>
      </trkpt>
      <trkpt lat="48.02329" lon="7.19898">
        <ele>453.60736084</ele>
        <time>2021-06-17T06:59:57Z</time>
      </trkpt>
      <trkpt lat="48.02321" lon="7.19887">
        <ele>453.60736084</ele>
        <time>2021-06-17T07:00:00Z</time>
      </trkpt>
      <trkpt lat="48.02316" lon="7.19876">
        <ele>454.79650879</ele>
        <time>2021-06-17T07:00:04Z</time>
      </trkpt>
      <trkpt lat="48.02303" lon="7.19876">
        <ele>454.79650879</ele>
        <time>2021-06-17T07:00:07Z</time>
      </trkpt>
      <trkpt lat="48.02294" lon="7.19872">
        <ele>455.85601807</ele>
        <time>2021-06-17T07:00:10Z</time>
      </trkpt>
      <trkpt lat="48.02288" lon="7.19869">
        <ele>456.7220459</ele>
        <time>2021-06-17T07:00:14Z</time>
      </trkpt>
      <trkpt lat="48.02282" lon="7.19861">
        <ele>456.7220459</ele>
        <time>2021-06-17T07:00:18Z</time>
      </trkpt>
      <trkpt lat="48.02272" lon="7.19858">
        <ele>457.64505005</ele>
        <time>2021-06-17T07:00:22Z</time>
      </trkpt>
      <trkpt lat="48.02264" lon="7.19849">
        <ele>457.64505005</ele>
        <time>2021-06-17T07:00:27Z</time>
      </trkpt>
      <trkpt lat="48.02259" lon="7.19838">
        <ele>458.6902771</ele>
        <time>2021-06-17T07:00:32Z</time>
      </trkpt>
      <trkpt lat="48.02259" lon="7.19821">
        <ele>459.91174316</ele>
        <time>2021-06-17T07:00:36Z</time>
      </trkpt>
      <trkpt lat="48.0226" lon="7.19806">
        <ele>459.91174316</ele>
        <time>2021-06-17T07:00:40Z</time>
      </trkpt>
      <trkpt lat="48.02256" lon="7.19793">
        <ele>461.01370239</ele>
        <time>2021-06-17T07:00:44Z</time>
      </trkpt>
      <trkpt lat="48.02249" lon="7.19785">
        <ele>462.05426025</ele>
        <time>2021-06-17T07:00:48Z</time>
      </trkpt>
      <trkpt lat="48.0224" lon="7.19781">
        <ele>462.05426025</ele>
        <time>2021-06-17T07:00:52Z</time>
      </trkpt>
      <trkpt lat="48.02231" lon="7.19774">
        <ele>463.10479736</ele>
        <time>2021-06-17T07:00:57Z</time>
      </trkpt>
      <trkpt lat="48.02224" lon="7.19764">
        <ele>464.11901855</ele>
        <time>2021-06-17T07:01:02Z</time>
      </trkpt>
      <trkpt lat="48.02215" lon="7.19756">
        <ele>465.19549561</ele>
        <time>2021-06-17T07:01:06Z</time>
      </trkpt>
      <trkpt lat="48.02206" lon="7.19748">
        <ele>465.19549561</ele>
        <time>2021-06-17T07:01:10Z</time>
      </trkpt>
      <trkpt lat="48.02201" lon="7.19738">
        <ele>466.73855591</ele>
        <time>2021-06-17T07:01:14Z</time>
      </trkpt>
      <trkpt lat="48.02198" lon="7.19726">
        <ele>466.73855591</ele>
        <time>2021-06-17T07:01:18Z</time>
      </trkpt>
      <trkpt lat="48.02197" lon="7.19712">
        <ele>466.73855591</ele>
        <time>2021-06-17T07:01:23Z</time>
      </trkpt>
      <trkpt lat="48.022" lon="7.19695">
        <ele>467.28979492</ele>
        <time>2021-06-17T07:01:26Z</time>
      </trkpt>
      <trkpt lat="48.02199" lon="7.19681">
        <ele>468.46759033</ele>
        <time>2021-06-17T07:01:31Z</time>
      </trkpt>
      <trkpt lat="48.02198" lon="7.19666">
        <ele>469.64300537</ele>
        <time>2021-06-17T07:01:37Z</time>
      </trkpt>
      <trkpt lat="48.02195" lon="7.19652">
        <ele>470.57171631</ele>
        <time>2021-06-17T07:01:41Z</time>
      </trkpt>
      <trkpt lat="48.0219" lon="7.1964">
        <ele>470.57171631</ele>
        <time>2021-06-17T07:01:46Z</time>
      </trkpt>
      <trkpt lat="48.02185" lon="7.19627">
        <ele>471.66601562</ele>
        <time>2021-06-17T07:01:52Z</time>
      </trkpt>
      <trkpt lat="48.02175" lon="7.19617">
        <ele>471.66601562</ele>
        <time>2021-06-17T07:01:56Z</time>
      </trkpt>
      <trkpt lat="48.02167" lon="7.19611">
        <ele>472.71395874</ele>
        <time>2021-06-17T07:02:00Z</time>
      </trkpt>
      <trkpt lat="48.02158" lon="7.19607">
        <ele>473.74942017</ele>
        <time>2021-06-17T07:02:06Z</time>
      </trkpt>
      <trkpt lat="48.0215" lon="7.19598">
        <ele>473.74942017</ele>
        <time>2021-06-17T07:02:10Z</time>
      </trkpt>
      <trkpt lat="48.02142" lon="7.19592">
        <ele>475.3092041</ele>
        <time>2021-06-17T07:02:14Z</time>
      </trkpt>
      <trkpt lat="48.02135" lon="7.19587">
        <ele>475.3092041</ele>
        <time>2021-06-17T07:02:18Z</time>
      </trkpt>
      <trkpt lat="48.02126" lon="7.1958">
        <ele>475.88052368</ele>
        <time>2021-06-17T07:02:22Z</time>
      </trkpt>
      <trkpt lat="48.02122" lon="7.19569">
        <ele>476.97579956</ele>
        <time>2021-06-17T07:02:27Z</time>
      </trkpt>
      <trkpt lat="48.02115" lon="7.19559">
        <ele>476.97579956</ele>
        <time>2021-06-17T07:02:32Z</time>
      </trkpt>
      <trkpt lat="48.02107" lon="7.1955">
        <ele>478.06015015</ele>
        <time>2021-06-17T07:02:37Z</time>
      </trkpt>
      <trkpt lat="48.02099" lon="7.19545">
        <ele>479.18582153</ele>
        <time>2021-06-17T07:02:42Z</time>
      </trkpt>
      <trkpt lat="48.02089" lon="7.19539">
        <ele>479.18582153</ele>
        <time>2021-06-17T07:02:47Z</time>
      </trkpt>
      <trkpt lat="48.02082" lon="7.19531">
        <ele>480.29782104</ele>
        <time>2021-06-17T07:02:52Z</time>
      </trkpt>
      <trkpt lat="48.02075" lon="7.19521">
        <ele>481.43777466</ele>
        <time>2021-06-17T07:02:58Z</time>
      </trkpt>
      <trkpt lat="48.02069" lon="7.19511">
        <ele>482.54074097</ele>
        <time>2021-06-17T07:03:02Z</time>
      </trkpt>
      <trkpt lat="48.02061" lon="7.19503">
        <ele>482.54074097</ele>
        <time>2021-06-17T07:03:07Z</time>
      </trkpt>
      <trkpt lat="48.02052" lon="7.19495">
        <ele>483.57495117</ele>
        <time>2021-06-17T07:03:12Z</time>
      </trkpt>
      <trkpt lat="48.02047" lon="7.19489">
        <ele>484.4387207</ele>
        <time>2021-06-17T07:03:14Z</time>
      </trkpt>
      <trkpt lat="48.02041" lon="7.19487">
        <ele>484.4387207</ele>
        <time>2021-06-17T07:03:17Z</time>
      </trkpt>
      <trkpt lat="48.0203" lon="7.19484">
        <ele>484.4387207</ele>
        <time>2021-06-17T07:03:22Z</time>
      </trkpt>
      <trkpt lat="48.02023" lon="7.19474">
        <ele>485.2696228</ele>
        <time>2021-06-17T07:03:28Z</time>
      </trkpt>
      <trkpt lat="48.02014" lon="7.19465">
        <ele>486.37387085</ele>
        <time>2021-06-17T07:03:32Z</time>
      </trkpt>
      <trkpt lat="48.02006" lon="7.19459">
        <ele>486.37387085</ele>
        <time>2021-06-17T07:03:37Z</time>
      </trkpt>
      <trkpt lat="48.01999" lon="7.19448">
        <ele>487.49145508</ele>
        <time>2021-06-17T07:03:43Z</time>
      </trkpt>
      <trkpt lat="48.01991" lon="7.19439">
        <ele>488.58059692</ele>
        <time>2021-06-17T07:03:47Z</time>
      </trkpt>
      <trkpt lat="48.01984" lon="7.19429">
        <ele>489.59320068</ele>
        <time>2021-06-17T07:03:53Z</time>
      </trkpt>
      <trkpt lat="48.01977" lon="7.19417">
        <ele>489.59320068</ele>
        <time>2021-06-17T07:03:58Z</time>
      </trkpt>
      <trkpt lat="48.01971" lon="7.19404">
        <ele>490.61230469</ele>
        <time>2021-06-17T07:04:03Z</time>
      </trkpt>
      <trkpt lat="48.01966" lon="7.19391">
        <ele>491.65536499</ele>
        <time>2021-06-17T07:04:07Z</time>
      </trkpt>
      <trkpt lat="48.01961" lon="7.19378">
        <ele>491.65536499</ele>
        <time>2021-06-17T07:04:12Z</time>
      </trkpt>
      <trkpt lat="48.01959" lon="7.19369">
        <ele>493.42895508</ele>
        <time>2021-06-17T07:04:14Z</time>
      </trkpt>
      <trkpt lat="48.01956" lon="7.19362">
        <ele>493.42895508</ele>
        <time>2021-06-17T07:04:18Z</time>
      </trkpt>
      <trkpt lat="48.0195" lon="7.19349">
        <ele>494.04830933</ele>
        <time>2021-06-17T07:04:22Z</time>
      </trkpt>
      <trkpt lat="48.0194" lon="7.19342">
        <ele>494.04830933</ele>
        <time>2021-06-17T07:04:26Z</time>
      </trkpt>
      <trkpt lat="48.01932" lon="7.19335">
        <ele>495.1385498</ele>
        <time>2021-06-17T07:04:30Z</time>
      </trkpt>
      <trkpt lat="48.01926" lon="7.19326">
        <ele>496.20675659</ele>
        <time>2021-06-17T07:04:35Z</time>
      </trkpt>
      <trkpt lat="48.0192" lon="7.19315">
        <ele>497.31896973</ele>
        <time>2021-06-17T07:04:40Z</time>
      </trkpt>
      <trkpt lat="48.01914" lon="7.19304">
        <ele>497.31896973</ele>
        <time>2021-06-17T07:04:44Z</time>
      </trkpt>
      <trkpt lat="48.01905" lon="7.19296">
        <ele>498.2571106</ele>
        <time>2021-06-17T07:04:49Z</time>
      </trkpt>
      <trkpt lat="48.01895" lon="7.19288">
        <ele>499.37966919</ele>
        <time>2021-06-17T07:04:54Z</time>
      </trkpt>
      <trkpt lat="48.01885" lon="7.19281">
        <ele>499.37966919</ele>
        <time>2021-06-17T07:04:59Z</time>
      </trkpt>
      <trkpt lat="48.01876" lon="7.19276">
        <ele>500.44104004</ele>
        <time>2021-06-17T07:05:04Z</time>
      </trkpt>
      <trkpt lat="48.01867" lon="7.19273">
        <ele>501.54006958</ele>
        <time>2021-06-17T07:05:08Z</time>
      </trkpt>
      <trkpt lat="48.01856" lon="7.19273">
        <ele>501.54006958</ele>
        <time>2021-06-17T07:05:12Z</time>
      </trkpt>
      <trkpt lat="48.01849" lon="7.19275">
        <ele>502.574646</ele>
        <time>2021-06-17T07:05:14Z</time>
      </trkpt>
      <trkpt lat="48.01844" lon="7.19274">
        <ele>502.574646</ele>
        <time>2021-06-17T07:05:20Z</time>
      </trkpt>
      <trkpt lat="48.01833" lon="7.19276">
        <ele>503.59020996</ele>
        <time>2021-06-17T07:05:23Z</time>
      </trkpt>
      <trkpt lat="48.01824" lon="7.19283">
        <ele>504.67907715</ele>
        <time>2021-06-17T07:05:30Z</time>
      </trkpt>
      <trkpt lat="48.01816" lon="7.19291">
        <ele>505.73336792</ele>
        <time>2021-06-17T07:05:36Z</time>
      </trkpt>
      <trkpt lat="48.01807" lon="7.19303">
        <ele>506.76315308</ele>
        <time>2021-06-17T07:05:44Z</time>
      </trkpt>
      <trkpt lat="48.01799" lon="7.19312">
        <ele>506.76315308</ele>
        <time>2021-06-17T07:05:46Z</time>
      </trkpt>
      <trkpt lat="48.01789" lon="7.19321">
        <ele>507.90209961</ele>
        <time>2021-06-17T07:05:52Z</time>
      </trkpt>
      <trkpt lat="48.01778" lon="7.19326">
        <ele>508.98202515</ele>
        <time>2021-06-17T07:06:00Z</time>
      </trkpt>
      <trkpt lat="48.01767" lon="7.19334">
        <ele>508.98202515</ele>
        <time>2021-06-17T07:06:04Z</time>
      </trkpt>
      <trkpt lat="48.01757" lon="7.1934">
        <ele>510.14718628</ele>
        <time>2021-06-17T07:06:08Z</time>
      </trkpt>
      <trkpt lat="48.0175" lon="7.19347">
        <ele>511.2779541</ele>
        <time>2021-06-17T07:06:12Z</time>
      </trkpt>
      <trkpt lat="48.01744" lon="7.19355">
        <ele>511.99075317</ele>
        <time>2021-06-17T07:06:14Z</time>
      </trkpt>
      <trkpt lat="48.01739" lon="7.19359">
        <ele>512.76507568</ele>
        <time>2021-06-17T07:06:22Z</time>
      </trkpt>
      <trkpt lat="48.01731" lon="7.19371">
        <ele>512.76507568</ele>
        <time>2021-06-17T07:06:27Z</time>
      </trkpt>
      <trkpt lat="48.01724" lon="7.19383">
        <ele>513.76037598</ele>
        <time>2021-06-17T07:06:32Z</time>
      </trkpt>
      <trkpt lat="48.01717" lon="7.19394">
        <ele>514.97015381</ele>
        <time>2021-06-17T07:06:40Z</time>
      </trkpt>
      <trkpt lat="48.01712" lon="7.19406">
        <ele>516.05200195</ele>
        <time>2021-06-17T07:06:46Z</time>
      </trkpt>
      <trkpt lat="48.01706" lon="7.1942">
        <ele>516.05200195</ele>
        <time>2021-06-17T07:06:52Z</time>
      </trkpt>
      <trkpt lat="48.01701" lon="7.19431">
        <ele>518.18927002</ele>
        <time>2021-06-17T07:07:01Z</time>
      </trkpt>
      <trkpt lat="48.01696" lon="7.19445">
        <ele>518.18927002</ele>
        <time>2021-06-17T07:07:04Z</time>
      </trkpt>
      <trkpt lat="48.01688" lon="7.19456">
        <ele>518.18927002</ele>
        <time>2021-06-17T07:07:07Z</time>
      </trkpt>
      <trkpt lat="48.01682" lon="7.19463">
        <ele>519.21331787</ele>
        <time>2021-06-17T07:07:12Z</time>
      </trkpt>
      <trkpt lat="48.01675" lon="7.19472">
        <ele>520.14929199</ele>
        <time>2021-06-17T07:07:14Z</time>
      </trkpt>
      <trkpt lat="48.01668" lon="7.19477">
        <ele>520.14929199</ele>
        <time>2021-06-17T07:07:17Z</time>
      </trkpt>
      <trkpt lat="48.01659" lon="7.19482">
        <ele>521.1307373</ele>
        <time>2021-06-17T07:07:23Z</time>
      </trkpt>
      <trkpt lat="48.01648" lon="7.19487">
        <ele>521.1307373</ele>
        <time>2021-06-17T07:07:27Z</time>
      </trkpt>
      <trkpt lat="48.01639" lon="7.19493">
        <ele>522.28570557</ele>
        <time>2021-06-17T07:07:30Z</time>
      </trkpt>
      <trkpt lat="48.01631" lon="7.19498">
        <ele>523.34759521</ele>
        <time>2021-06-17T07:07:36Z</time>
      </trkpt>
      <trkpt lat="48.01622" lon="7.19505">
        <ele>523.34759521</ele>
        <time>2021-06-17T07:07:39Z</time>
      </trkpt>
      <trkpt lat="48.01613" lon="7.1951">
        <ele>524.43286133</ele>
        <time>2021-06-17T07:07:44Z</time>
      </trkpt>
      <trkpt lat="48.01607" lon="7.19516">
        <ele>525.43865967</ele>
        <time>2021-06-17T07:07:51Z</time>
      </trkpt>
      <trkpt lat="48.01596" lon="7.19526">
        <ele>525.43865967</ele>
        <time>2021-06-17T07:07:54Z</time>
      </trkpt>
      <trkpt lat="48.01589" lon="7.19534">
        <ele>526.51531982</ele>
        <time>2021-06-17T07:08:00Z</time>
      </trkpt>
      <trkpt lat="48.01582" lon="7.19549">
        <ele>527.65905762</ele>
        <time>2021-06-17T07:08:06Z</time>
      </trkpt>
      <trkpt lat="48.01576" lon="7.19561">
        <ele>528.69354248</ele>
        <time>2021-06-17T07:08:11Z</time>
      </trkpt>
      <trkpt lat="48.01574" lon="7.19563">
        <ele>529.51824951</ele>
        <time>2021-06-17T07:08:14Z</time>
      </trkpt>
      <trkpt lat="48.0157" lon="7.19567">
        <ele>529.51824951</ele>
        <time>2021-06-17T07:08:19Z</time>
      </trkpt>
      <trkpt lat="48.01555" lon="7.19575">
        <ele>530.32598877</ele>
        <time>2021-06-17T07:08:23Z</time>
      </trkpt>
      <trkpt lat="48.01546" lon="7.19579">
        <ele>530.32598877</ele>
        <time>2021-06-17T07:08:27Z</time>
      </trkpt>
      <trkpt lat="48.01534" lon="7.19583">
        <ele>531.34912109</ele>
        <time>2021-06-17T07:08:31Z</time>
      </trkpt>
      <trkpt lat="48.01524" lon="7.19582">
        <ele>532.50115967</ele>
        <time>2021-06-17T07:08:37Z</time>
      </trkpt>
      <trkpt lat="48.01515" lon="7.19586">
        <ele>533.49682617</ele>
        <time>2021-06-17T07:08:41Z</time>
      </trkpt>
      <trkpt lat="48.01506" lon="7.19587">
        <ele>533.49682617</ele>
        <time>2021-06-17T07:08:48Z</time>
      </trkpt>
      <trkpt lat="48.01495" lon="7.19589">
        <ele>534.50079346</ele>
        <time>2021-06-17T07:08:52Z</time>
      </trkpt>
      <trkpt lat="48.01486" lon="7.19595">
        <ele>534.50079346</ele>
        <time>2021-06-17T07:08:55Z</time>
      </trkpt>
      <trkpt lat="48.01478" lon="7.19603">
        <ele>535.46191406</ele>
        <time>2021-06-17T07:09:00Z</time>
      </trkpt>
      <trkpt lat="48.01469" lon="7.19606">
        <ele>536.59393311</ele>
        <time>2021-06-17T07:09:07Z</time>
      </trkpt>
      <trkpt lat="48.0146" lon="7.19609">
        <ele>536.59393311</ele>
        <time>2021-06-17T07:09:11Z</time>
      </trkpt>
      <trkpt lat="48.01455" lon="7.19612">
        <ele>537.84094238</ele>
        <time>2021-06-17T07:09:14Z</time>
      </trkpt>
      <trkpt lat="48.01447" lon="7.1961">
        <ele>537.84094238</ele>
        <time>2021-06-17T07:09:20Z</time>
      </trkpt>
      <trkpt lat="48.01437" lon="7.19613">
        <ele>538.80285645</ele>
        <time>2021-06-17T07:09:27Z</time>
      </trkpt>
      <trkpt lat="48.01426" lon="7.19618">
        <ele>539.81536865</ele>
        <time>2021-06-17T07:09:32Z</time>
      </trkpt>
      <trkpt lat="48.01417" lon="7.1962">
        <ele>540.9342041</ele>
        <time>2021-06-17T07:09:38Z</time>
      </trkpt>
      <trkpt lat="48.01409" lon="7.19629">
        <ele>540.9342041</ele>
        <time>2021-06-17T07:09:43Z</time>
      </trkpt>
      <trkpt lat="48.01401" lon="7.19638">
        <ele>543.14538574</ele>
        <time>2021-06-17T07:09:58Z</time>
      </trkpt>
      <trkpt lat="48.01396" lon="7.19655">
        <ele>544.25848389</ele>
        <time>2021-06-17T07:10:03Z</time>
      </trkpt>
      <trkpt lat="48.01393" lon="7.19666">
        <ele>544.25848389</ele>
        <time>2021-06-17T07:10:08Z</time>
      </trkpt>
      <trkpt lat="48.01389" lon="7.19681">
        <ele>545.29907227</ele>
        <time>2021-06-17T07:10:12Z</time>
      </trkpt>
      <trkpt lat="48.01385" lon="7.19692">
        <ele>546.11706543</ele>
        <time>2021-06-17T07:10:14Z</time>
      </trkpt>
      <trkpt lat="48.01381" lon="7.19702">
        <ele>546.11706543</ele>
        <time>2021-06-17T07:10:18Z</time>
      </trkpt>
      <trkpt lat="48.01373" lon="7.19712">
        <ele>546.11706543</ele>
        <time>2021-06-17T07:10:22Z</time>
      </trkpt>
      <trkpt lat="48.01363" lon="7.19721">
        <ele>546.97503662</ele>
        <time>2021-06-17T07:10:25Z</time>
      </trkpt>
      <trkpt lat="48.01354" lon="7.19728">
        <ele>546.97503662</ele>
        <time>2021-06-17T07:10:28Z</time>
      </trkpt>
      <trkpt lat="48.01344" lon="7.19732">
        <ele>548.0512085</ele>
        <time>2021-06-17T07:10:31Z</time>
      </trkpt>
      <trkpt lat="48.01334" lon="7.19734">
        <ele>549.24951172</ele>
        <time>2021-06-17T07:10:35Z</time>
      </trkpt>
      <trkpt lat="48.01332" lon="7.19723">
        <ele>550.43206787</ele>
        <time>2021-06-17T07:10:38Z</time>
      </trkpt>
      <trkpt lat="48.01331" lon="7.19709">
        <ele>551.57366943</ele>
        <time>2021-06-17T07:10:42Z</time>
      </trkpt>
      <trkpt lat="48.01327" lon="7.19697">
        <ele>552.78039551</ele>
        <time>2021-06-17T07:10:47Z</time>
      </trkpt>
      <trkpt lat="48.01321" lon="7.19687">
        <ele>552.78039551</ele>
        <time>2021-06-17T07:10:52Z</time>
      </trkpt>
      <trkpt lat="48.0131" lon="7.19679">
        <ele>553.85205078</ele>
        <time>2021-06-17T07:10:57Z</time>
      </trkpt>
      <trkpt lat="48.01303" lon="7.19669">
        <ele>553.85205078</ele>
        <time>2021-06-17T07:11:01Z</time>
      </trkpt>
      <trkpt lat="48.01296" lon="7.19663">
        <ele>554.79150391</ele>
        <time>2021-06-17T07:11:06Z</time>
      </trkpt>
      <trkpt lat="48.01288" lon="7.19657">
        <ele>555.94744873</ele>
        <time>2021-06-17T07:11:12Z</time>
      </trkpt>
      <trkpt lat="48.01284" lon="7.19649">
        <ele>557.01269531</ele>
        <time>2021-06-17T07:11:14Z</time>
      </trkpt>
      <trkpt lat="48.01278" lon="7.19643">
        <ele>557.01269531</ele>
        <time>2021-06-17T07:11:19Z</time>
      </trkpt>
      <trkpt lat="48.01268" lon="7.19642">
        <ele>558.0557251</ele>
        <time>2021-06-17T07:11:24Z</time>
      </trkpt>
      <trkpt lat="48.01257" lon="7.19644">
        <ele>559.12860107</ele>
        <time>2021-06-17T07:11:28Z</time>
      </trkpt>
      <trkpt lat="48.01246" lon="7.19646">
        <ele>559.12860107</ele>
        <time>2021-06-17T07:11:31Z</time>
      </trkpt>
      <trkpt lat="48.01236" lon="7.19647">
        <ele>560.32110596</ele>
        <time>2021-06-17T07:11:35Z</time>
      </trkpt>
      <trkpt lat="48.01225" lon="7.1965">
        <ele>561.47662354</ele>
        <time>2021-06-17T07:11:39Z</time>
      </trkpt>
      <trkpt lat="48.01214" lon="7.19652">
        <ele>561.47662354</ele>
        <time>2021-06-17T07:11:42Z</time>
      </trkpt>
      <trkpt lat="48.01205" lon="7.19651">
        <ele>561.47662354</ele>
        <time>2021-06-17T07:11:46Z</time>
      </trkpt>
      <trkpt lat="48.01196" lon="7.19647">
        <ele>562.51629639</ele>
        <time>2021-06-17T07:11:51Z</time>
      </trkpt>
      <trkpt lat="48.01188" lon="7.1964">
        <ele>563.67071533</ele>
        <time>2021-06-17T07:11:55Z</time>
      </trkpt>
      <trkpt lat="48.01183" lon="7.19628">
        <ele>563.67071533</ele>
        <time>2021-06-17T07:11:59Z</time>
      </trkpt>
      <trkpt lat="48.01178" lon="7.19617">
        <ele>564.84313965</ele>
        <time>2021-06-17T07:12:04Z</time>
      </trkpt>
      <trkpt lat="48.0117" lon="7.19607">
        <ele>565.8694458</ele>
        <time>2021-06-17T07:12:09Z</time>
      </trkpt>
      <trkpt lat="48.01164" lon="7.19598">
        <ele>567.40380859</ele>
        <time>2021-06-17T07:12:14Z</time>
      </trkpt>
      <trkpt lat="48.01162" lon="7.19583">
        <ele>567.40380859</ele>
        <time>2021-06-17T07:12:17Z</time>
      </trkpt>
      <trkpt lat="48.01161" lon="7.19569">
        <ele>568.01556396</ele>
        <time>2021-06-17T07:12:23Z</time>
      </trkpt>
      <trkpt lat="48.01163" lon="7.19553">
        <ele>569.23431396</ele>
        <time>2021-06-17T07:12:30Z</time>
      </trkpt>
      <trkpt lat="48.01171" lon="7.19539">
        <ele>569.23431396</ele>
        <time>2021-06-17T07:12:33Z</time>
      </trkpt>
      <trkpt lat="48.01177" lon="7.19527">
        <ele>570.30993652</ele>
        <time>2021-06-17T07:12:36Z</time>
      </trkpt>
      <trkpt lat="48.01182" lon="7.19519">
        <ele>570.30993652</ele>
        <time>2021-06-17T07:12:41Z</time>
      </trkpt>
      <trkpt lat="48.01191" lon="7.1951">
        <ele>571.36212158</ele>
        <time>2021-06-17T07:12:46Z</time>
      </trkpt>
      <trkpt lat="48.01201" lon="7.19502">
        <ele>571.36212158</ele>
        <time>2021-06-17T07:12:49Z</time>
      </trkpt>
      <trkpt lat="48.01209" lon="7.19496">
        <ele>572.33062744</ele>
        <time>2021-06-17T07:12:54Z</time>
      </trkpt>
      <trkpt lat="48.0122" lon="7.19494">
        <ele>574.59570312</ele>
        <time>2021-06-17T07:13:07Z</time>
      </trkpt>
      <trkpt lat="48.01231" lon="7.19489">
        <ele>575.83935547</ele>
        <time>2021-06-17T07:13:13Z</time>
      </trkpt>
      <trkpt lat="48.01238" lon="7.19484">
        <ele>576.34606934</ele>
        <time>2021-06-17T07:13:14Z</time>
      </trkpt>
      <trkpt lat="48.01242" lon="7.19484">
        <ele>576.91375732</ele>
        <time>2021-06-17T07:13:26Z</time>
      </trkpt>
      <trkpt lat="48.0125" lon="7.1948">
        <ele>578.10614014</ele>
        <time>2021-06-17T07:13:34Z</time>
      </trkpt>
      <trkpt lat="48.01258" lon="7.19464">
        <ele>579.13165283</ele>
        <time>2021-06-17T07:13:43Z</time>
      </trkpt>
      <trkpt lat="48.01263" lon="7.19453">
        <ele>580.16564941</ele>
        <time>2021-06-17T07:13:50Z</time>
      </trkpt>
      <trkpt lat="48.0127" lon="7.1944">
        <ele>581.20996094</ele>
        <time>2021-06-17T07:13:55Z</time>
      </trkpt>
      <trkpt lat="48.01279" lon="7.19428">
        <ele>582.25195312</ele>
        <time>2021-06-17T07:13:59Z</time>
      </trkpt>
      <trkpt lat="48.01287" lon="7.19422">
        <ele>582.25195312</ele>
        <time>2021-06-17T07:14:03Z</time>
      </trkpt>
      <trkpt lat="48.01297" lon="7.1941">
        <ele>583.38360596</ele>
        <time>2021-06-17T07:14:07Z</time>
      </trkpt>
      <trkpt lat="48.01304" lon="7.19402">
        <ele>583.38360596</ele>
        <time>2021-06-17T07:14:13Z</time>
      </trkpt>
      <trkpt lat="48.01308" lon="7.19394">
        <ele>584.90496826</ele>
        <time>2021-06-17T07:14:14Z</time>
      </trkpt>
      <trkpt lat="48.01312" lon="7.1939">
        <ele>584.90496826</ele>
        <time>2021-06-17T07:14:20Z</time>
      </trkpt>
      <trkpt lat="48.0132" lon="7.19378">
        <ele>585.53460693</ele>
        <time>2021-06-17T07:14:25Z</time>
      </trkpt>
      <trkpt lat="48.01329" lon="7.19372">
        <ele>585.53460693</ele>
        <time>2021-06-17T07:14:29Z</time>
      </trkpt>
      <trkpt lat="48.01339" lon="7.19368">
        <ele>586.71331787</ele>
        <time>2021-06-17T07:14:35Z</time>
      </trkpt>
      <trkpt lat="48.01347" lon="7.19362">
        <ele>587.76843262</ele>
        <time>2021-06-17T07:14:39Z</time>
      </trkpt>
      <trkpt lat="48.01356" lon="7.19356">
        <ele>588.77648926</ele>
        <time>2021-06-17T07:14:43Z</time>
      </trkpt>
      <trkpt lat="48.01365" lon="7.19349">
        <ele>589.86785889</ele>
        <time>2021-06-17T07:14:48Z</time>
      </trkpt>
      <trkpt lat="48.01374" lon="7.19339">
        <ele>589.86785889</ele>
        <time>2021-06-17T07:14:52Z</time>
      </trkpt>
      <trkpt lat="48.01384" lon="7.19334">
        <ele>590.90338135</ele>
        <time>2021-06-17T07:14:57Z</time>
      </trkpt>
      <trkpt lat="48.01393" lon="7.19332">
        <ele>591.93548584</ele>
        <time>2021-06-17T07:15:02Z</time>
      </trkpt>
      <trkpt lat="48.01402" lon="7.19319">
        <ele>593</ele>
        <time>2021-06-17T07:15:05Z</time>
      </trkpt>
      <trkpt lat="48.01407" lon="7.19307">
        <ele>593</ele>
        <time>2021-06-17T07:15:09Z</time>
      </trkpt>
      <trkpt lat="48.01413" lon="7.19295">
        <ele>594.08666992</ele>
        <time>2021-06-17T07:15:13Z</time>
      </trkpt>
      <trkpt lat="48.01413" lon="7.19288">
        <ele>594.97583008</ele>
        <time>2021-06-17T07:15:14Z</time>
      </trkpt>
      <trkpt lat="48.01411" lon="7.1928">
        <ele>594.97583008</ele>
        <time>2021-06-17T07:15:18Z</time>
      </trkpt>
      <trkpt lat="48.01413" lon="7.19264">
        <ele>595.82965088</ele>
        <time>2021-06-17T07:15:21Z</time>
      </trkpt>
      <trkpt lat="48.01416" lon="7.19248">
        <ele>595.82965088</ele>
        <time>2021-06-17T07:15:25Z</time>
      </trkpt>
      <trkpt lat="48.01416" lon="7.19238">
        <ele>596.82196045</ele>
        <time>2021-06-17T07:15:31Z</time>
      </trkpt>
      <trkpt lat="48.01418" lon="7.19221">
        <ele>597.9239502</ele>
        <time>2021-06-17T07:15:35Z</time>
      </trkpt>
      <trkpt lat="48.01423" lon="7.19207">
        <ele>598.89532471</ele>
        <time>2021-06-17T07:15:39Z</time>
      </trkpt>
      <trkpt lat="48.01429" lon="7.19195">
        <ele>599.97320557</ele>
        <time>2021-06-17T07:15:47Z</time>
      </trkpt>
      <trkpt lat="48.01436" lon="7.19181">
        <ele>599.97320557</ele>
        <time>2021-06-17T07:15:50Z</time>
      </trkpt>
      <trkpt lat="48.01439" lon="7.19171">
        <ele>600.99609375</ele>
        <time>2021-06-17T07:15:56Z</time>
      </trkpt>
      <trkpt lat="48.01442" lon="7.1916">
        <ele>603.26257324</ele>
        <time>2021-06-17T07:16:06Z</time>
      </trkpt>
      <trkpt lat="48.01436" lon="7.19142">
        <ele>603.26257324</ele>
        <time>2021-06-17T07:16:09Z</time>
      </trkpt>
      <trkpt lat="48.01437" lon="7.19128">
        <ele>604.32415771</ele>
        <time>2021-06-17T07:16:12Z</time>
      </trkpt>
      <trkpt lat="48.01432" lon="7.1912">
        <ele>605.21246338</ele>
        <time>2021-06-17T07:16:14Z</time>
      </trkpt>
      <trkpt lat="48.01424" lon="7.19116">
        <ele>605.21246338</ele>
        <time>2021-06-17T07:16:17Z</time>
      </trkpt>
      <trkpt lat="48.01418" lon="7.19108">
        <ele>605.94055176</ele>
        <time>2021-06-17T07:16:22Z</time>
      </trkpt>
      <trkpt lat="48.01411" lon="7.19097">
        <ele>607.0748291</ele>
        <time>2021-06-17T07:16:26Z</time>
      </trkpt>
      <trkpt lat="48.01404" lon="7.19086">
        <ele>607.0748291</ele>
        <time>2021-06-17T07:16:30Z</time>
      </trkpt>
      <trkpt lat="48.01395" lon="7.19084">
        <ele>608.04742432</ele>
        <time>2021-06-17T07:16:33Z</time>
      </trkpt>
      <trkpt lat="48.01387" lon="7.19081">
        <ele>609.17224121</ele>
        <time>2021-06-17T07:16:37Z</time>
      </trkpt>
      <trkpt lat="48.01377" lon="7.19077">
        <ele>609.17224121</ele>
        <time>2021-06-17T07:16:41Z</time>
      </trkpt>
      <trkpt lat="48.01368" lon="7.19073">
        <ele>610.2144165</ele>
        <time>2021-06-17T07:16:46Z</time>
      </trkpt>
      <trkpt lat="48.0136" lon="7.19065">
        <ele>611.22473145</ele>
        <time>2021-06-17T07:16:52Z</time>
      </trkpt>
      <trkpt lat="48.01353" lon="7.19054">
        <ele>612.37670898</ele>
        <time>2021-06-17T07:16:58Z</time>
      </trkpt>
      <trkpt lat="48.01347" lon="7.19041">
        <ele>613.61956787</ele>
        <time>2021-06-17T07:17:03Z</time>
      </trkpt>
      <trkpt lat="48.01341" lon="7.19032">
        <ele>614.62487793</ele>
        <time>2021-06-17T07:17:07Z</time>
      </trkpt>
      <trkpt lat="48.01328" lon="7.19034">
        <ele>614.62487793</ele>
        <time>2021-06-17T07:17:10Z</time>
      </trkpt>
      <trkpt lat="48.01317" lon="7.19036">
        <ele>614.62487793</ele>
        <time>2021-06-17T07:17:13Z</time>
      </trkpt>
      <trkpt lat="48.01312" lon="7.19035">
        <ele>616.18951416</ele>
        <time>2021-06-17T07:17:14Z</time>
      </trkpt>
      <trkpt lat="48.01308" lon="7.1903">
        <ele>616.18951416</ele>
        <time>2021-06-17T07:17:19Z</time>
      </trkpt>
      <trkpt lat="48.01304" lon="7.19017">
        <ele>616.72869873</ele>
        <time>2021-06-17T07:17:24Z</time>
      </trkpt>
      <trkpt lat="48.01298" lon="7.1901">
        <ele>616.72869873</ele>
        <time>2021-06-17T07:17:28Z</time>
      </trkpt>
      <trkpt lat="48.01287" lon="7.19013">
        <ele>617.8104248</ele>
        <time>2021-06-17T07:17:31Z</time>
      </trkpt>
      <trkpt lat="48.01284" lon="7.19005">
        <ele>617.8104248</ele>
        <time>2021-06-17T07:17:34Z</time>
      </trkpt>
      <trkpt lat="48.01284" lon="7.18989">
        <ele>618.95129395</ele>
        <time>2021-06-17T07:17:38Z</time>
      </trkpt>
      <trkpt lat="48.01284" lon="7.18976">
        <ele>620.03594971</ele>
        <time>2021-06-17T07:17:43Z</time>
      </trkpt>
      <trkpt lat="48.01284" lon="7.18961">
        <ele>620.03594971</ele>
        <time>2021-06-17T07:17:47Z</time>
      </trkpt>
      <trkpt lat="48.01286" lon="7.18948">
        <ele>621.03259277</ele>
        <time>2021-06-17T07:17:54Z</time>
      </trkpt>
      <trkpt lat="48.01283" lon="7.18934">
        <ele>622.14611816</ele>
        <time>2021-06-17T07:18:00Z</time>
      </trkpt>
      <trkpt lat="48.01283" lon="7.18917">
        <ele>622.14611816</ele>
        <time>2021-06-17T07:18:05Z</time>
      </trkpt>
      <trkpt lat="48.01286" lon="7.18901">
        <ele>623.37127686</ele>
        <time>2021-06-17T07:18:09Z</time>
      </trkpt>
      <trkpt lat="48.01286" lon="7.18885">
        <ele>623.37127686</ele>
        <time>2021-06-17T07:18:13Z</time>
      </trkpt>
      <trkpt lat="48.01284" lon="7.18876">
        <ele>624.83319092</ele>
        <time>2021-06-17T07:18:14Z</time>
      </trkpt>
      <trkpt lat="48.01281" lon="7.18869">
        <ele>624.83319092</ele>
        <time>2021-06-17T07:18:19Z</time>
      </trkpt>
      <trkpt lat="48.01275" lon="7.18859">
        <ele>625.4486084</ele>
        <time>2021-06-17T07:18:25Z</time>
      </trkpt>
      <trkpt lat="48.01269" lon="7.18847">
        <ele>626.37835693</ele>
        <time>2021-06-17T07:18:31Z</time>
      </trkpt>
      <trkpt lat="48.01261" lon="7.18839">
        <ele>626.37835693</ele>
        <time>2021-06-17T07:18:36Z</time>
      </trkpt>
      <trkpt lat="48.01258" lon="7.18825">
        <ele>627.46832275</ele>
        <time>2021-06-17T07:18:40Z</time>
      </trkpt>
      <trkpt lat="48.01251" lon="7.18817">
        <ele>628.62457275</ele>
        <time>2021-06-17T07:18:45Z</time>
      </trkpt>
      <trkpt lat="48.01241" lon="7.18814">
        <ele>628.62457275</ele>
        <time>2021-06-17T07:18:49Z</time>
      </trkpt>
      <trkpt lat="48.01233" lon="7.18809">
        <ele>629.72003174</ele>
        <time>2021-06-17T07:18:54Z</time>
      </trkpt>
      <trkpt lat="48.01223" lon="7.18801">
        <ele>630.78607178</ele>
        <time>2021-06-17T07:18:59Z</time>
      </trkpt>
      <trkpt lat="48.01211" lon="7.188">
        <ele>630.78607178</ele>
        <time>2021-06-17T07:19:02Z</time>
      </trkpt>
      <trkpt lat="48.01201" lon="7.188">
        <ele>631.97375488</ele>
        <time>2021-06-17T07:19:07Z</time>
      </trkpt>
      <trkpt lat="48.01193" lon="7.18798">
        <ele>633.0670166</ele>
        <time>2021-06-17T07:19:12Z</time>
      </trkpt>
      <trkpt lat="48.01182" lon="7.188">
        <ele>633.70153809</ele>
        <time>2021-06-17T07:19:14Z</time>
      </trkpt>
      <trkpt lat="48.01178" lon="7.188">
        <ele>633.70153809</ele>
        <time>2021-06-17T07:19:19Z</time>
      </trkpt>
      <trkpt lat="48.01167" lon="7.18803">
        <ele>634.35327148</ele>
        <time>2021-06-17T07:19:24Z</time>
      </trkpt>
      <trkpt lat="48.01157" lon="7.18801">
        <ele>634.35327148</ele>
        <time>2021-06-17T07:19:28Z</time>
      </trkpt>
      <trkpt lat="48.01148" lon="7.18797">
        <ele>635.50067139</ele>
        <time>2021-06-17T07:19:34Z</time>
      </trkpt>
      <trkpt lat="48.01143" lon="7.18785">
        <ele>636.49908447</ele>
        <time>2021-06-17T07:19:40Z</time>
      </trkpt>
      <trkpt lat="48.01128" lon="7.18792">
        <ele>636.49908447</ele>
        <time>2021-06-17T07:19:42Z</time>
      </trkpt>
      <trkpt lat="48.01118" lon="7.18797">
        <ele>637.67932129</ele>
        <time>2021-06-17T07:19:45Z</time>
      </trkpt>
      <trkpt lat="48.0111" lon="7.18796">
        <ele>637.67932129</ele>
        <time>2021-06-17T07:19:49Z</time>
      </trkpt>
      <trkpt lat="48.01095" lon="7.18801">
        <ele>637.67932129</ele>
        <time>2021-06-17T07:19:51Z</time>
      </trkpt>
      <trkpt lat="48.01087" lon="7.18803">
        <ele>638.69171143</ele>
        <time>2021-06-17T07:19:56Z</time>
      </trkpt>
      <trkpt lat="48.0108" lon="7.18797">
        <ele>639.79888916</ele>
        <time>2021-06-17T07:20:03Z</time>
      </trkpt>
      <trkpt lat="48.01068" lon="7.18795">
        <ele>640.88537598</ele>
        <time>2021-06-17T07:20:06Z</time>
      </trkpt>
      <trkpt lat="48.01059" lon="7.18795">
        <ele>641.89678955</ele>
        <time>2021-06-17T07:20:13Z</time>
      </trkpt>
      <trkpt lat="48.01053" lon="7.18793">
        <ele>642.52294922</ele>
        <time>2021-06-17T07:20:14Z</time>
      </trkpt>
      <trkpt lat="48.01048" lon="7.1879">
        <ele>642.52294922</ele>
        <time>2021-06-17T07:20:20Z</time>
      </trkpt>
      <trkpt lat="48.0104" lon="7.18785">
        <ele>643.18371582</ele>
        <time>2021-06-17T07:20:25Z</time>
      </trkpt>
      <trkpt lat="48.01029" lon="7.18782">
        <ele>644.22698975</ele>
        <time>2021-06-17T07:20:31Z</time>
      </trkpt>
      <trkpt lat="48.01019" lon="7.18782">
        <ele>644.22698975</ele>
        <time>2021-06-17T07:20:36Z</time>
      </trkpt>
      <trkpt lat="48.01008" lon="7.18786">
        <ele>645.3371582</ele>
        <time>2021-06-17T07:20:41Z</time>
      </trkpt>
      <trkpt lat="48.00998" lon="7.18795">
        <ele>646.38879395</ele>
        <time>2021-06-17T07:20:49Z</time>
      </trkpt>
      <trkpt lat="48.00994" lon="7.188">
        <ele>647.4095459</ele>
        <time>2021-06-17T07:20:56Z</time>
      </trkpt>
      <trkpt lat="48.00978" lon="7.18814">
        <ele>647.4095459</ele>
        <time>2021-06-17T07:20:59Z</time>
      </trkpt>
      <trkpt lat="48.00967" lon="7.18823">
        <ele>648.46221924</ele>
        <time>2021-06-17T07:21:01Z</time>
      </trkpt>
      <trkpt lat="48.0096" lon="7.18828">
        <ele>648.46221924</ele>
        <time>2021-06-17T07:21:04Z</time>
      </trkpt>
      <trkpt lat="48.00951" lon="7.18834">
        <ele>649.58081055</ele>
        <time>2021-06-17T07:21:07Z</time>
      </trkpt>
      <trkpt lat="48.0094" lon="7.18826">
        <ele>651.09838867</ele>
        <time>2021-06-17T07:21:14Z</time>
      </trkpt>
      <trkpt lat="48.00937" lon="7.18818">
        <ele>651.69891357</ele>
        <time>2021-06-17T07:21:22Z</time>
      </trkpt>
      <trkpt lat="48.00925" lon="7.1882">
        <ele>651.69891357</ele>
        <time>2021-06-17T07:21:27Z</time>
      </trkpt>
      <trkpt lat="48.00917" lon="7.18823">
        <ele>652.77111816</ele>
        <time>2021-06-17T07:21:31Z</time>
      </trkpt>
      <trkpt lat="48.00908" lon="7.18828">
        <ele>652.77111816</ele>
        <time>2021-06-17T07:21:36Z</time>
      </trkpt>
      <trkpt lat="48.009" lon="7.18833">
        <ele>653.82214355</ele>
        <time>2021-06-17T07:21:41Z</time>
      </trkpt>
      <trkpt lat="48.00892" lon="7.18844">
        <ele>654.93566895</ele>
        <time>2021-06-17T07:21:46Z</time>
      </trkpt>
      <trkpt lat="48.00888" lon="7.18858">
        <ele>654.93566895</ele>
        <time>2021-06-17T07:21:52Z</time>
      </trkpt>
      <trkpt lat="48.00889" lon="7.18871">
        <ele>656.11193848</ele>
        <time>2021-06-17T07:21:58Z</time>
      </trkpt>
      <trkpt lat="48.00885" lon="7.18887">
        <ele>657.16619873</ele>
        <time>2021-06-17T07:22:05Z</time>
      </trkpt>
      <trkpt lat="48.0088" lon="7.18899">
        <ele>658.39477539</ele>
        <time>2021-06-17T07:22:12Z</time>
      </trkpt>
      <trkpt lat="48.00875" lon="7.18907">
        <ele>659.20159912</ele>
        <time>2021-06-17T07:22:14Z</time>
      </trkpt>
      <trkpt lat="48.00869" lon="7.18909">
        <ele>659.90606689</ele>
        <time>2021-06-17T07:22:21Z</time>
      </trkpt>
      <trkpt lat="48.00859" lon="7.18916">
        <ele>659.90606689</ele>
        <time>2021-06-17T07:22:25Z</time>
      </trkpt>
      <trkpt lat="48.00849" lon="7.18918">
        <ele>661.00085449</ele>
        <time>2021-06-17T07:22:29Z</time>
      </trkpt>
      <trkpt lat="48.00835" lon="7.18927">
        <ele>661.00085449</ele>
        <time>2021-06-17T07:22:31Z</time>
      </trkpt>
      <trkpt lat="48.00827" lon="7.1893">
        <ele>662.19061279</ele>
        <time>2021-06-17T07:22:36Z</time>
      </trkpt>
      <trkpt lat="48.00821" lon="7.18934">
        <ele>663.17047119</ele>
        <time>2021-06-17T07:22:42Z</time>
      </trkpt>
      <trkpt lat="48.0081" lon="7.18942">
        <ele>663.17047119</ele>
        <time>2021-06-17T07:22:44Z</time>
      </trkpt>
      <trkpt lat="48.00805" lon="7.18947">
        <ele>665.44677734</ele>
        <time>2021-06-17T07:22:55Z</time>
      </trkpt>
      <trkpt lat="48.00785" lon="7.18963">
        <ele>666.48382568</ele>
        <time>2021-06-17T07:22:59Z</time>
      </trkpt>
      <trkpt lat="48.00778" lon="7.18972">
        <ele>666.48382568</ele>
        <time>2021-06-17T07:23:04Z</time>
      </trkpt>
      <trkpt lat="48.0077" lon="7.18978">
        <ele>667.53039551</ele>
        <time>2021-06-17T07:23:09Z</time>
      </trkpt>
      <trkpt lat="48.00763" lon="7.18984">
        <ele>668.44464111</ele>
        <time>2021-06-17T07:23:14Z</time>
      </trkpt>
      <trkpt lat="48.00757" lon="7.18994">
        <ele>668.44464111</ele>
        <time>2021-06-17T07:23:18Z</time>
      </trkpt>
      <trkpt lat="48.00747" lon="7.19009">
        <ele>668.44464111</ele>
        <time>2021-06-17T07:23:20Z</time>
      </trkpt>
      <trkpt lat="48.0074" lon="7.19022">
        <ele>669.3303833</ele>
        <time>2021-06-17T07:23:22Z</time>
      </trkpt>
      <trkpt lat="48.00731" lon="7.19035">
        <ele>669.3303833</ele>
        <time>2021-06-17T07:23:24Z</time>
      </trkpt>
      <trkpt lat="48.00726" lon="7.19047">
        <ele>669.3303833</ele>
        <time>2021-06-17T07:23:28Z</time>
      </trkpt>
      <trkpt lat="48.00721" lon="7.19062">
        <ele>670.44421387</ele>
        <time>2021-06-17T07:23:31Z</time>
      </trkpt>
      <trkpt lat="48.00716" lon="7.19075">
        <ele>670.44421387</ele>
        <time>2021-06-17T07:23:35Z</time>
      </trkpt>
      <trkpt lat="48.00715" lon="7.19089">
        <ele>671.49279785</ele>
        <time>2021-06-17T07:23:42Z</time>
      </trkpt>
      <trkpt lat="48.0072" lon="7.19101">
        <ele>674.85223389</ele>
        <time>2021-06-17T07:23:56Z</time>
      </trkpt>
      <trkpt lat="48.00706" lon="7.19113">
        <ele>675.90893555</ele>
        <time>2021-06-17T07:24:04Z</time>
      </trkpt>
      <trkpt lat="48.00693" lon="7.19123">
        <ele>675.90893555</ele>
        <time>2021-06-17T07:24:06Z</time>
      </trkpt>
      <trkpt lat="48.00682" lon="7.19123">
        <ele>677.0168457</ele>
        <time>2021-06-17T07:24:48Z</time>
      </trkpt>
      <trkpt lat="48.00692" lon="7.19111">
        <ele>677.0168457</ele>
        <time>2021-06-17T07:24:52Z</time>
      </trkpt>
      <trkpt lat="48.00692" lon="7.1911">
        <ele>677.0168457</ele>
        <time>2021-06-17T07:24:59Z</time>
      </trkpt>
      <trkpt lat="48.0068" lon="7.19115">
        <ele>677.36761475</ele>
        <time>2021-06-17T07:25:04Z</time>
      </trkpt>
      <trkpt lat="48.00672" lon="7.19121">
        <ele>677.36761475</ele>
        <time>2021-06-17T07:25:07Z</time>
      </trkpt>
      <trkpt lat="48.00663" lon="7.19124">
        <ele>678.69421387</ele>
        <time>2021-06-17T07:25:12Z</time>
      </trkpt>
      <trkpt lat="48.00655" lon="7.19127">
        <ele>679.61505127</ele>
        <time>2021-06-17T07:25:14Z</time>
      </trkpt>
      <trkpt lat="48.00647" lon="7.1913">
        <ele>679.61505127</ele>
        <time>2021-06-17T07:25:18Z</time>
      </trkpt>
      <trkpt lat="48.00637" lon="7.19134">
        <ele>680.55889893</ele>
        <time>2021-06-17T07:25:24Z</time>
      </trkpt>
      <trkpt lat="48.00628" lon="7.19139">
        <ele>681.59179688</ele>
        <time>2021-06-17T07:25:32Z</time>
      </trkpt>
      <trkpt lat="48.00618" lon="7.1914">
        <ele>682.68011475</ele>
        <time>2021-06-17T07:25:39Z</time>
      </trkpt>
      <trkpt lat="48.00604" lon="7.19145">
        <ele>682.68011475</ele>
        <time>2021-06-17T07:25:43Z</time>
      </trkpt>
      <trkpt lat="48.00594" lon="7.19148">
        <ele>683.75354004</ele>
        <time>2021-06-17T07:25:46Z</time>
      </trkpt>
      <trkpt lat="48.00581" lon="7.19151">
        <ele>683.75354004</ele>
        <time>2021-06-17T07:25:48Z</time>
      </trkpt>
      <trkpt lat="48.00573" lon="7.19153">
        <ele>684.80419922</ele>
        <time>2021-06-17T07:25:57Z</time>
      </trkpt>
      <trkpt lat="48.00562" lon="7.19157">
        <ele>685.89245605</ele>
        <time>2021-06-17T07:26:01Z</time>
      </trkpt>
      <trkpt lat="48.00548" lon="7.19162">
        <ele>685.89245605</ele>
        <time>2021-06-17T07:26:04Z</time>
      </trkpt>
      <trkpt lat="48.00539" lon="7.19164">
        <ele>687.00830078</ele>
        <time>2021-06-17T07:26:09Z</time>
      </trkpt>
      <trkpt lat="48.00532" lon="7.19161">
        <ele>688.79553223</ele>
        <time>2021-06-17T07:26:14Z</time>
      </trkpt>
      <trkpt lat="48.00525" lon="7.19161">
        <ele>688.79553223</ele>
        <time>2021-06-17T07:26:17Z</time>
      </trkpt>
      <trkpt lat="48.00518" lon="7.19159">
        <ele>689.4553833</ele>
        <time>2021-06-17T07:26:24Z</time>
      </trkpt>
      <trkpt lat="48.00507" lon="7.19158">
        <ele>690.4833374</ele>
        <time>2021-06-17T07:26:28Z</time>
      </trkpt>
      <trkpt lat="48.00494" lon="7.1916">
        <ele>691.55438232</ele>
        <time>2021-06-17T07:26:36Z</time>
      </trkpt>
      <trkpt lat="48.00487" lon="7.1916">
        <ele>691.55438232</ele>
        <time>2021-06-17T07:26:40Z</time>
      </trkpt>
      <trkpt lat="48.00474" lon="7.19168">
        <ele>692.55645752</ele>
        <time>2021-06-17T07:26:42Z</time>
      </trkpt>
      <trkpt lat="48.00465" lon="7.19174">
        <ele>692.55645752</ele>
        <time>2021-06-17T07:26:45Z</time>
      </trkpt>
      <trkpt lat="48.00456" lon="7.19176">
        <ele>692.55645752</ele>
        <time>2021-06-17T07:26:49Z</time>
      </trkpt>
      <trkpt lat="48.00446" lon="7.19174">
        <ele>693.65783691</ele>
        <time>2021-06-17T07:26:55Z</time>
      </trkpt>
      <trkpt lat="48.00438" lon="7.19171">
        <ele>694.77166748</ele>
        <time>2021-06-17T07:27:01Z</time>
      </trkpt>
      <trkpt lat="48.00429" lon="7.19168">
        <ele>695.82635498</ele>
        <time>2021-06-17T07:27:08Z</time>
      </trkpt>
      <trkpt lat="48.00418" lon="7.19171">
        <ele>696.88348389</ele>
        <time>2021-06-17T07:27:13Z</time>
      </trkpt>
      <trkpt lat="48.0041" lon="7.19172">
        <ele>697.58703613</ele>
        <time>2021-06-17T07:27:14Z</time>
      </trkpt>
      <trkpt lat="48.00404" lon="7.19171">
        <ele>697.58703613</ele>
        <time>2021-06-17T07:27:18Z</time>
      </trkpt>
      <trkpt lat="48.00395" lon="7.19171">
        <ele>698.25488281</ele>
        <time>2021-06-17T07:27:22Z</time>
      </trkpt>
      <trkpt lat="48.00381" lon="7.19179">
        <ele>698.25488281</ele>
        <time>2021-06-17T07:27:25Z</time>
      </trkpt>
      <trkpt lat="48.00371" lon="7.19183">
        <ele>699.40661621</ele>
        <time>2021-06-17T07:27:30Z</time>
      </trkpt>
      <trkpt lat="48.00363" lon="7.19186">
        <ele>700.52532959</ele>
        <time>2021-06-17T07:27:37Z</time>
      </trkpt>
      <trkpt lat="48.00355" lon="7.19183">
        <ele>702.7701416</ele>
        <time>2021-06-17T07:27:49Z</time>
      </trkpt>
      <trkpt lat="48.00343" lon="7.19182">
        <ele>702.7701416</ele>
        <time>2021-06-17T07:27:51Z</time>
      </trkpt>
      <trkpt lat="48.00335" lon="7.19185">
        <ele>702.7701416</ele>
        <time>2021-06-17T07:27:54Z</time>
      </trkpt>
      <trkpt lat="48.00324" lon="7.19187">
        <ele>703.94787598</ele>
        <time>2021-06-17T07:27:58Z</time>
      </trkpt>
      <trkpt lat="48.00314" lon="7.19183">
        <ele>704.85797119</ele>
        <time>2021-06-17T07:28:07Z</time>
      </trkpt>
      <trkpt lat="48.00306" lon="7.19181">
        <ele>704.85797119</ele>
        <time>2021-06-17T07:28:10Z</time>
      </trkpt>
      <trkpt lat="48.00291" lon="7.19181">
        <ele>706.71600342</ele>
        <time>2021-06-17T07:28:14Z</time>
      </trkpt>
      <trkpt lat="48.00288" lon="7.19175">
        <ele>706.71600342</ele>
        <time>2021-06-17T07:28:20Z</time>
      </trkpt>
      <trkpt lat="48.00273" lon="7.19156">
        <ele>708.44006348</ele>
        <time>2021-06-17T07:28:31Z</time>
      </trkpt>
      <trkpt lat="48.00259" lon="7.1915">
        <ele>708.44006348</ele>
        <time>2021-06-17T07:28:35Z</time>
      </trkpt>
      <trkpt lat="48.00255" lon="7.19137">
        <ele>709.33300781</ele>
        <time>2021-06-17T07:28:41Z</time>
      </trkpt>
      <trkpt lat="48.00245" lon="7.1913">
        <ele>709.33300781</ele>
        <time>2021-06-17T07:28:45Z</time>
      </trkpt>
      <trkpt lat="48.00237" lon="7.19124">
        <ele>710.36102295</ele>
        <time>2021-06-17T07:28:49Z</time>
      </trkpt>
      <trkpt lat="48.00227" lon="7.19116">
        <ele>710.36102295</ele>
        <time>2021-06-17T07:28:53Z</time>
      </trkpt>
      <trkpt lat="48.00219" lon="7.19107">
        <ele>711.38397217</ele>
        <time>2021-06-17T07:28:58Z</time>
      </trkpt>
      <trkpt lat="48.00209" lon="7.19102">
        <ele>712.44616699</ele>
        <time>2021-06-17T07:29:02Z</time>
      </trkpt>
      <trkpt lat="48.00206" lon="7.1909">
        <ele>712.44616699</ele>
        <time>2021-06-17T07:29:06Z</time>
      </trkpt>
      <trkpt lat="48.00205" lon="7.19072">
        <ele>713.48846436</ele>
        <time>2021-06-17T07:29:10Z</time>
      </trkpt>
      <trkpt lat="48.002" lon="7.19062">
        <ele>714.47045898</ele>
        <time>2021-06-17T07:29:14Z</time>
      </trkpt>
      <trkpt lat="48.00192" lon="7.19057">
        <ele>714.47045898</ele>
        <time>2021-06-17T07:29:18Z</time>
      </trkpt>
      <trkpt lat="48.00184" lon="7.19048">
        <ele>715.35473633</ele>
        <time>2021-06-17T07:29:22Z</time>
      </trkpt>
      <trkpt lat="48.00179" lon="7.19034">
        <ele>715.35473633</ele>
        <time>2021-06-17T07:29:26Z</time>
      </trkpt>
      <trkpt lat="48.00179" lon="7.19018">
        <ele>716.44311523</ele>
        <time>2021-06-17T07:29:30Z</time>
      </trkpt>
      <trkpt lat="48.00175" lon="7.19007">
        <ele>716.44311523</ele>
        <time>2021-06-17T07:29:35Z</time>
      </trkpt>
      <trkpt lat="48.00171" lon="7.18994">
        <ele>717.52484131</ele>
        <time>2021-06-17T07:29:39Z</time>
      </trkpt>
      <trkpt lat="48.00164" lon="7.18981">
        <ele>717.52484131</ele>
        <time>2021-06-17T07:29:43Z</time>
      </trkpt>
      <trkpt lat="48.00162" lon="7.18967">
        <ele>718.65155029</ele>
        <time>2021-06-17T07:29:47Z</time>
      </trkpt>
      <trkpt lat="48.00161" lon="7.18949">
        <ele>719.89562988</ele>
        <time>2021-06-17T07:29:51Z</time>
      </trkpt>
      <trkpt lat="48.00156" lon="7.18936">
        <ele>719.89562988</ele>
        <time>2021-06-17T07:29:56Z</time>
      </trkpt>
      <trkpt lat="48.00153" lon="7.18922">
        <ele>721.03210449</ele>
        <time>2021-06-17T07:30:01Z</time>
      </trkpt>
      <trkpt lat="48.00156" lon="7.18908">
        <ele>722.12902832</ele>
        <time>2021-06-17T07:30:07Z</time>
      </trkpt>
      <trkpt lat="48.00155" lon="7.18894">
        <ele>723.13079834</ele>
        <time>2021-06-17T07:30:13Z</time>
      </trkpt>
      <trkpt lat="48.00154" lon="7.18883">
        <ele>723.79064941</ele>
        <time>2021-06-17T07:30:14Z</time>
      </trkpt>
      <trkpt lat="48.00151" lon="7.18878">
        <ele>724.41589355</ele>
        <time>2021-06-17T07:30:20Z</time>
      </trkpt>
      <trkpt lat="48.0015" lon="7.18861">
        <ele>724.41589355</ele>
        <time>2021-06-17T07:30:24Z</time>
      </trkpt>
      <trkpt lat="48.00147" lon="7.18847">
        <ele>725.50213623</ele>
        <time>2021-06-17T07:30:28Z</time>
      </trkpt>
      <trkpt lat="48.00139" lon="7.18838">
        <ele>725.50213623</ele>
        <time>2021-06-17T07:30:32Z</time>
      </trkpt>
      <trkpt lat="48.00134" lon="7.18824">
        <ele>726.45501709</ele>
        <time>2021-06-17T07:30:36Z</time>
      </trkpt>
      <trkpt lat="48.00131" lon="7.18812">
        <ele>726.45501709</ele>
        <time>2021-06-17T07:30:40Z</time>
      </trkpt>
      <trkpt lat="48.0013" lon="7.18798">
        <ele>727.46002197</ele>
        <time>2021-06-17T07:30:45Z</time>
      </trkpt>
      <trkpt lat="48.00127" lon="7.18783">
        <ele>728.57427979</ele>
        <time>2021-06-17T07:30:50Z</time>
      </trkpt>
      <trkpt lat="48.00123" lon="7.18769">
        <ele>728.57427979</ele>
        <time>2021-06-17T07:30:55Z</time>
      </trkpt>
      <trkpt lat="48.00119" lon="7.18758">
        <ele>729.69824219</ele>
        <time>2021-06-17T07:31:00Z</time>
      </trkpt>
      <trkpt lat="48.00118" lon="7.18744">
        <ele>730.85925293</ele>
        <time>2021-06-17T07:31:06Z</time>
      </trkpt>
      <trkpt lat="48.00116" lon="7.18729">
        <ele>730.85925293</ele>
        <time>2021-06-17T07:31:11Z</time>
      </trkpt>
      <trkpt lat="48.00113" lon="7.18717">
        <ele>732.62030029</ele>
        <time>2021-06-17T07:31:14Z</time>
      </trkpt>
      <trkpt lat="48.00112" lon="7.18705">
        <ele>732.62030029</ele>
        <time>2021-06-17T07:31:20Z</time>
      </trkpt>
      <trkpt lat="48.00104" lon="7.18695">
        <ele>733.16705322</ele>
        <time>2021-06-17T07:31:25Z</time>
      </trkpt>
      <trkpt lat="48.00097" lon="7.18686">
        <ele>733.16705322</ele>
        <time>2021-06-17T07:31:30Z</time>
      </trkpt>
      <trkpt lat="48.00089" lon="7.18677">
        <ele>734.21533203</ele>
        <time>2021-06-17T07:31:36Z</time>
      </trkpt>
      <trkpt lat="48.00081" lon="7.18666">
        <ele>735.29296875</ele>
        <time>2021-06-17T07:31:42Z</time>
      </trkpt>
      <trkpt lat="48.00076" lon="7.18653">
        <ele>735.29296875</ele>
        <time>2021-06-17T07:31:47Z</time>
      </trkpt>
      <trkpt lat="48.00071" lon="7.18641">
        <ele>736.34680176</ele>
        <time>2021-06-17T07:31:52Z</time>
      </trkpt>
      <trkpt lat="48.00065" lon="7.18629">
        <ele>737.38189697</ele>
        <time>2021-06-17T07:31:59Z</time>
      </trkpt>
      <trkpt lat="48.00057" lon="7.18618">
        <ele>738.41168213</ele>
        <time>2021-06-17T07:32:04Z</time>
      </trkpt>
      <trkpt lat="48.00052" lon="7.18606">
        <ele>738.41168213</ele>
        <time>2021-06-17T07:32:10Z</time>
      </trkpt>
      <trkpt lat="48.0004" lon="7.18599">
        <ele>739.41174316</ele>
        <time>2021-06-17T07:32:13Z</time>
      </trkpt>
      <trkpt lat="48.00037" lon="7.18596">
        <ele>740.01391602</ele>
        <time>2021-06-17T07:32:14Z</time>
      </trkpt>
      <trkpt lat="48.00034" lon="7.18589">
        <ele>740.01391602</ele>
        <time>2021-06-17T07:32:19Z</time>
      </trkpt>
      <trkpt lat="48.00028" lon="7.1858">
        <ele>740.01391602</ele>
        <time>2021-06-17T07:32:22Z</time>
      </trkpt>
      <trkpt lat="48.00016" lon="7.18577">
        <ele>740.66052246</ele>
        <time>2021-06-17T07:32:27Z</time>
      </trkpt>
      <trkpt lat="48.00007" lon="7.18569">
        <ele>741.84362793</ele>
        <time>2021-06-17T07:32:32Z</time>
      </trkpt>
      <trkpt lat="47.99999" lon="7.18558">
        <ele>741.84362793</ele>
        <time>2021-06-17T07:32:37Z</time>
      </trkpt>
      <trkpt lat="47.99989" lon="7.18548">
        <ele>742.91400146</ele>
        <time>2021-06-17T07:32:41Z</time>
      </trkpt>
      <trkpt lat="47.99981" lon="7.1854">
        <ele>744.08166504</ele>
        <time>2021-06-17T07:32:46Z</time>
      </trkpt>
      <trkpt lat="47.99973" lon="7.18531">
        <ele>744.08166504</ele>
        <time>2021-06-17T07:32:50Z</time>
      </trkpt>
      <trkpt lat="47.99956" lon="7.18516">
        <ele>745.12268066</ele>
        <time>2021-06-17T07:33:01Z</time>
      </trkpt>
      <trkpt lat="47.99948" lon="7.18508">
        <ele>746.15246582</ele>
        <time>2021-06-17T07:33:07Z</time>
      </trkpt>
      <trkpt lat="47.99937" lon="7.18506">
        <ele>748.67163086</ele>
        <time>2021-06-17T07:45:50Z</time>
      </trkpt>
      <trkpt lat="47.99935" lon="7.18508">
        <ele>748.2277832</ele>
        <time>2021-06-17T07:45:53Z</time>
      </trkpt>
      <trkpt lat="47.99925" lon="7.18521">
        <ele>748.2277832</ele>
        <time>2021-06-17T07:45:57Z</time>
      </trkpt>
      <trkpt lat="47.99918" lon="7.18533">
        <ele>748.2277832</ele>
        <time>2021-06-17T07:46:00Z</time>
      </trkpt>
      <trkpt lat="47.99913" lon="7.18546">
        <ele>747.12286377</ele>
        <time>2021-06-17T07:46:03Z</time>
      </trkpt>
      <trkpt lat="47.99909" lon="7.18563">
        <ele>747.12286377</ele>
        <time>2021-06-17T07:46:06Z</time>
      </trkpt>
      <trkpt lat="47.99904" lon="7.18577">
        <ele>745.97167969</ele>
        <time>2021-06-17T07:46:08Z</time>
      </trkpt>
      <trkpt lat="47.99899" lon="7.18592">
        <ele>745.97167969</ele>
        <time>2021-06-17T07:46:10Z</time>
      </trkpt>
      <trkpt lat="47.99895" lon="7.18608">
        <ele>744.49029541</ele>
        <time>2021-06-17T07:46:14Z</time>
      </trkpt>
      <trkpt lat="47.9989" lon="7.1864">
        <ele>743.17822266</ele>
        <time>2021-06-17T07:46:15Z</time>
      </trkpt>
      <trkpt lat="47.99887" lon="7.18654">
        <ele>742.00146484</ele>
        <time>2021-06-17T07:46:17Z</time>
      </trkpt>
      <trkpt lat="47.99884" lon="7.18683">
        <ele>742.00146484</ele>
        <time>2021-06-17T07:46:21Z</time>
      </trkpt>
      <trkpt lat="47.99885" lon="7.18711">
        <ele>739.54827881</ele>
        <time>2021-06-17T07:46:23Z</time>
      </trkpt>
      <trkpt lat="47.99888" lon="7.18729">
        <ele>739.54827881</ele>
        <time>2021-06-17T07:46:25Z</time>
      </trkpt>
      <trkpt lat="47.99888" lon="7.18748">
        <ele>738.27331543</ele>
        <time>2021-06-17T07:46:27Z</time>
      </trkpt>
      <trkpt lat="47.99889" lon="7.18769">
        <ele>737.0524292</ele>
        <time>2021-06-17T07:46:30Z</time>
      </trkpt>
      <trkpt lat="47.99891" lon="7.18788">
        <ele>735.85235596</ele>
        <time>2021-06-17T07:46:34Z</time>
      </trkpt>
      <trkpt lat="47.99893" lon="7.18811">
        <ele>735.85235596</ele>
        <time>2021-06-17T07:46:35Z</time>
      </trkpt>
      <trkpt lat="47.99888" lon="7.18827">
        <ele>734.67504883</ele>
        <time>2021-06-17T07:46:36Z</time>
      </trkpt>
      <trkpt lat="47.99882" lon="7.18842">
        <ele>734.67504883</ele>
        <time>2021-06-17T07:46:38Z</time>
      </trkpt>
      <trkpt lat="47.99875" lon="7.18864">
        <ele>732.03649902</ele>
        <time>2021-06-17T07:46:42Z</time>
      </trkpt>
      <trkpt lat="47.99875" lon="7.18907">
        <ele>732.03649902</ele>
        <time>2021-06-17T07:46:43Z</time>
      </trkpt>
      <trkpt lat="47.9988" lon="7.18925">
        <ele>730.79797363</ele>
        <time>2021-06-17T07:46:45Z</time>
      </trkpt>
      <trkpt lat="47.99881" lon="7.18949">
        <ele>729.67706299</ele>
        <time>2021-06-17T07:46:47Z</time>
      </trkpt>
      <trkpt lat="47.99882" lon="7.18972">
        <ele>729.67706299</ele>
        <time>2021-06-17T07:46:49Z</time>
      </trkpt>
      <trkpt lat="47.99885" lon="7.18993">
        <ele>728.43963623</ele>
        <time>2021-06-17T07:46:51Z</time>
      </trkpt>
      <trkpt lat="47.9989" lon="7.19013">
        <ele>727.17419434</ele>
        <time>2021-06-17T07:46:53Z</time>
      </trkpt>
      <trkpt lat="47.99888" lon="7.19038">
        <ele>725.8949585</ele>
        <time>2021-06-17T07:46:55Z</time>
      </trkpt>
      <trkpt lat="47.99887" lon="7.19058">
        <ele>725.8949585</ele>
        <time>2021-06-17T07:46:56Z</time>
      </trkpt>
      <trkpt lat="47.99887" lon="7.19075">
        <ele>724.75341797</ele>
        <time>2021-06-17T07:46:58Z</time>
      </trkpt>
      <trkpt lat="47.99887" lon="7.19099">
        <ele>723.5769043</ele>
        <time>2021-06-17T07:47:00Z</time>
      </trkpt>
      <trkpt lat="47.99884" lon="7.19119">
        <ele>723.5769043</ele>
        <time>2021-06-17T07:47:01Z</time>
      </trkpt>
      <trkpt lat="47.99881" lon="7.19133">
        <ele>722.29400635</ele>
        <time>2021-06-17T07:47:02Z</time>
      </trkpt>
      <trkpt lat="47.9988" lon="7.19151">
        <ele>722.29400635</ele>
        <time>2021-06-17T07:47:04Z</time>
      </trkpt>
      <trkpt lat="47.99881" lon="7.19172">
        <ele>720.84899902</ele>
        <time>2021-06-17T07:47:07Z</time>
      </trkpt>
      <trkpt lat="47.9988" lon="7.19201">
        <ele>719.39880371</ele>
        <time>2021-06-17T07:47:09Z</time>
      </trkpt>
      <trkpt lat="47.99882" lon="7.1922">
        <ele>719.39880371</ele>
        <time>2021-06-17T07:47:11Z</time>
      </trkpt>
      <trkpt lat="47.99883" lon="7.19274">
        <ele>718.0682373</ele>
        <time>2021-06-17T07:47:14Z</time>
      </trkpt>
      <trkpt lat="47.99888" lon="7.19293">
        <ele>714.6270752</ele>
        <time>2021-06-17T07:47:16Z</time>
      </trkpt>
      <trkpt lat="47.99892" lon="7.19318">
        <ele>713.53253174</ele>
        <time>2021-06-17T07:47:18Z</time>
      </trkpt>
      <trkpt lat="47.99897" lon="7.19337">
        <ele>713.53253174</ele>
        <time>2021-06-17T07:47:19Z</time>
      </trkpt>
      <trkpt lat="47.99899" lon="7.19353">
        <ele>712.28918457</ele>
        <time>2021-06-17T07:47:21Z</time>
      </trkpt>
      <trkpt lat="47.99896" lon="7.19374">
        <ele>711.15148926</ele>
        <time>2021-06-17T07:47:23Z</time>
      </trkpt>
      <trkpt lat="47.99899" lon="7.19396">
        <ele>710.10418701</ele>
        <time>2021-06-17T07:47:25Z</time>
      </trkpt>
      <trkpt lat="47.99905" lon="7.19411">
        <ele>710.10418701</ele>
        <time>2021-06-17T07:47:26Z</time>
      </trkpt>
      <trkpt lat="47.99907" lon="7.19427">
        <ele>708.96411133</ele>
        <time>2021-06-17T07:47:28Z</time>
      </trkpt>
      <trkpt lat="47.99908" lon="7.19452">
        <ele>707.83679199</ele>
        <time>2021-06-17T07:47:30Z</time>
      </trkpt>
      <trkpt lat="47.99914" lon="7.19473">
        <ele>707.83679199</ele>
        <time>2021-06-17T07:47:31Z</time>
      </trkpt>
      <trkpt lat="47.99918" lon="7.19485">
        <ele>706.59777832</ele>
        <time>2021-06-17T07:47:32Z</time>
      </trkpt>
      <trkpt lat="47.99922" lon="7.195">
        <ele>706.59777832</ele>
        <time>2021-06-17T07:47:35Z</time>
      </trkpt>
      <trkpt lat="47.99915" lon="7.19534">
        <ele>705.15338135</ele>
        <time>2021-06-17T07:47:36Z</time>
      </trkpt>
      <trkpt lat="47.9991" lon="7.19566">
        <ele>703.8336792</ele>
        <time>2021-06-17T07:47:41Z</time>
      </trkpt>
      <trkpt lat="47.99905" lon="7.19603">
        <ele>703.8336792</ele>
        <time>2021-06-17T07:47:43Z</time>
      </trkpt>
      <trkpt lat="47.99904" lon="7.19635">
        <ele>702.74737549</ele>
        <time>2021-06-17T07:47:47Z</time>
      </trkpt>
      <trkpt lat="47.99902" lon="7.19668">
        <ele>697.8885498</ele>
        <time>2021-06-17T07:47:51Z</time>
      </trkpt>
      <trkpt lat="47.99903" lon="7.19709">
        <ele>697.8885498</ele>
        <time>2021-06-17T07:47:53Z</time>
      </trkpt>
      <trkpt lat="47.99907" lon="7.19736">
        <ele>696.65045166</ele>
        <time>2021-06-17T07:47:55Z</time>
      </trkpt>
      <trkpt lat="47.99914" lon="7.19761">
        <ele>695.37597656</ele>
        <time>2021-06-17T07:47:57Z</time>
      </trkpt>
      <trkpt lat="47.99918" lon="7.19785">
        <ele>695.37597656</ele>
        <time>2021-06-17T07:47:59Z</time>
      </trkpt>
      <trkpt lat="47.99921" lon="7.19806">
        <ele>694.08282471</ele>
        <time>2021-06-17T07:48:01Z</time>
      </trkpt>
      <trkpt lat="47.99928" lon="7.19823">
        <ele>692.85473633</ele>
        <time>2021-06-17T07:48:02Z</time>
      </trkpt>
      <trkpt lat="47.99932" lon="7.19835">
        <ele>692.85473633</ele>
        <time>2021-06-17T07:48:03Z</time>
      </trkpt>
      <trkpt lat="47.99939" lon="7.19853">
        <ele>691.67297363</ele>
        <time>2021-06-17T07:48:05Z</time>
      </trkpt>
      <trkpt lat="47.99953" lon="7.19871">
        <ele>690.40454102</ele>
        <time>2021-06-17T07:48:06Z</time>
      </trkpt>
      <trkpt lat="47.99962" lon="7.19884">
        <ele>690.40454102</ele>
        <time>2021-06-17T07:48:07Z</time>
      </trkpt>
      <trkpt lat="47.99968" lon="7.19894">
        <ele>689.18762207</ele>
        <time>2021-06-17T07:48:08Z</time>
      </trkpt>
      <trkpt lat="47.99974" lon="7.19904">
        <ele>688.05224609</ele>
        <time>2021-06-17T07:48:10Z</time>
      </trkpt>
      <trkpt lat="47.99979" lon="7.19917">
        <ele>688.05224609</ele>
        <time>2021-06-17T07:48:12Z</time>
      </trkpt>
      <trkpt lat="47.99992" lon="7.19933">
        <ele>686.15484619</ele>
        <time>2021-06-17T07:48:14Z</time>
      </trkpt>
      <trkpt lat="48.00001" lon="7.19941">
        <ele>685.37200928</ele>
        <time>2021-06-17T07:48:16Z</time>
      </trkpt>
      <trkpt lat="48.00012" lon="7.19949">
        <ele>685.37200928</ele>
        <time>2021-06-17T07:48:18Z</time>
      </trkpt>
      <trkpt lat="48.00027" lon="7.19951">
        <ele>684.10516357</ele>
        <time>2021-06-17T07:48:20Z</time>
      </trkpt>
      <trkpt lat="48.00041" lon="7.19948">
        <ele>682.68487549</ele>
        <time>2021-06-17T07:48:22Z</time>
      </trkpt>
      <trkpt lat="48.00057" lon="7.19944">
        <ele>682.68487549</ele>
        <time>2021-06-17T07:48:24Z</time>
      </trkpt>
      <trkpt lat="48.00071" lon="7.19936">
        <ele>681.28057861</ele>
        <time>2021-06-17T07:48:25Z</time>
      </trkpt>
      <trkpt lat="48.00079" lon="7.19939">
        <ele>681.28057861</ele>
        <time>2021-06-17T07:48:27Z</time>
      </trkpt>
      <trkpt lat="48.00077" lon="7.19957">
        <ele>681.28057861</ele>
        <time>2021-06-17T07:48:29Z</time>
      </trkpt>
      <trkpt lat="48.00079" lon="7.19978">
        <ele>678.90289307</ele>
        <time>2021-06-17T07:48:31Z</time>
      </trkpt>
      <trkpt lat="48.00078" lon="7.19995">
        <ele>677.52844238</ele>
        <time>2021-06-17T07:48:33Z</time>
      </trkpt>
      <trkpt lat="48.00076" lon="7.20013">
        <ele>677.52844238</ele>
        <time>2021-06-17T07:48:35Z</time>
      </trkpt>
      <trkpt lat="48.00079" lon="7.20029">
        <ele>676.19781494</ele>
        <time>2021-06-17T07:48:37Z</time>
      </trkpt>
      <trkpt lat="48.00088" lon="7.20046">
        <ele>674.80773926</ele>
        <time>2021-06-17T07:48:39Z</time>
      </trkpt>
      <trkpt lat="48.00098" lon="7.20067">
        <ele>673.50128174</ele>
        <time>2021-06-17T07:48:41Z</time>
      </trkpt>
      <trkpt lat="48.00108" lon="7.20088">
        <ele>672.33703613</ele>
        <time>2021-06-17T07:48:43Z</time>
      </trkpt>
      <trkpt lat="48.00114" lon="7.2011">
        <ele>671.19177246</ele>
        <time>2021-06-17T07:48:45Z</time>
      </trkpt>
      <trkpt lat="48.0012" lon="7.20131">
        <ele>670.06781006</ele>
        <time>2021-06-17T07:48:47Z</time>
      </trkpt>
      <trkpt lat="48.00126" lon="7.20152">
        <ele>668.96002197</ele>
        <time>2021-06-17T07:48:49Z</time>
      </trkpt>
      <trkpt lat="48.00127" lon="7.20173">
        <ele>667.90386963</ele>
        <time>2021-06-17T07:48:51Z</time>
      </trkpt>
      <trkpt lat="48.00131" lon="7.20196">
        <ele>667.90386963</ele>
        <time>2021-06-17T07:48:53Z</time>
      </trkpt>
      <trkpt lat="48.00131" lon="7.20217">
        <ele>666.67712402</ele>
        <time>2021-06-17T07:48:55Z</time>
      </trkpt>
      <trkpt lat="48.00129" lon="7.20239">
        <ele>665.44012451</ele>
        <time>2021-06-17T07:48:57Z</time>
      </trkpt>
      <trkpt lat="48.00129" lon="7.20262">
        <ele>664.36047363</ele>
        <time>2021-06-17T07:48:59Z</time>
      </trkpt>
      <trkpt lat="48.0013" lon="7.20284">
        <ele>663.25036621</ele>
        <time>2021-06-17T07:49:01Z</time>
      </trkpt>
      <trkpt lat="48.00128" lon="7.20306">
        <ele>662.19830322</ele>
        <time>2021-06-17T07:49:03Z</time>
      </trkpt>
      <trkpt lat="48.00127" lon="7.20325">
        <ele>661.07983398</ele>
        <time>2021-06-17T07:49:05Z</time>
      </trkpt>
      <trkpt lat="48.0013" lon="7.20342">
        <ele>661.07983398</ele>
        <time>2021-06-17T07:49:07Z</time>
      </trkpt>
      <trkpt lat="48.00132" lon="7.20357">
        <ele>659.61181641</ele>
        <time>2021-06-17T07:49:09Z</time>
      </trkpt>
      <trkpt lat="48.00135" lon="7.20375">
        <ele>658.16204834</ele>
        <time>2021-06-17T07:49:11Z</time>
      </trkpt>
      <trkpt lat="48.00135" lon="7.20396">
        <ele>656.89611816</ele>
        <time>2021-06-17T07:49:13Z</time>
      </trkpt>
      <trkpt lat="48.00134" lon="7.20413">
        <ele>656.03833008</ele>
        <time>2021-06-17T07:49:14Z</time>
      </trkpt>
      <trkpt lat="48.00134" lon="7.20429">
        <ele>655.18603516</ele>
        <time>2021-06-17T07:49:16Z</time>
      </trkpt>
      <trkpt lat="48.00136" lon="7.2045">
        <ele>654.11657715</ele>
        <time>2021-06-17T07:49:18Z</time>
      </trkpt>
      <trkpt lat="48.00137" lon="7.2047">
        <ele>653.05847168</ele>
        <time>2021-06-17T07:49:20Z</time>
      </trkpt>
      <trkpt lat="48.00141" lon="7.20488">
        <ele>653.05847168</ele>
        <time>2021-06-17T07:49:22Z</time>
      </trkpt>
      <trkpt lat="48.00145" lon="7.20508">
        <ele>651.84893799</ele>
        <time>2021-06-17T07:49:24Z</time>
      </trkpt>
      <trkpt lat="48.00153" lon="7.20529">
        <ele>650.55700684</ele>
        <time>2021-06-17T07:49:26Z</time>
      </trkpt>
      <trkpt lat="48.00167" lon="7.20549">
        <ele>649.5166626</ele>
        <time>2021-06-17T07:49:28Z</time>
      </trkpt>
      <trkpt lat="48.00182" lon="7.20568">
        <ele>648.36114502</ele>
        <time>2021-06-17T07:49:30Z</time>
      </trkpt>
      <trkpt lat="48.00191" lon="7.2058">
        <ele>648.36114502</ele>
        <time>2021-06-17T07:49:32Z</time>
      </trkpt>
      <trkpt lat="48.002" lon="7.20589">
        <ele>647.15332031</ele>
        <time>2021-06-17T07:49:34Z</time>
      </trkpt>
      <trkpt lat="48.00212" lon="7.20593">
        <ele>645.91418457</ele>
        <time>2021-06-17T07:49:36Z</time>
      </trkpt>
      <trkpt lat="48.00224" lon="7.20592">
        <ele>645.91418457</ele>
        <time>2021-06-17T07:49:38Z</time>
      </trkpt>
      <trkpt lat="48.00237" lon="7.20585">
        <ele>644.57824707</ele>
        <time>2021-06-17T07:49:40Z</time>
      </trkpt>
      <trkpt lat="48.00253" lon="7.20579">
        <ele>643.32318115</ele>
        <time>2021-06-17T07:49:42Z</time>
      </trkpt>
      <trkpt lat="48.00265" lon="7.20577">
        <ele>641.91247559</ele>
        <time>2021-06-17T07:49:45Z</time>
      </trkpt>
      <trkpt lat="48.00269" lon="7.20598">
        <ele>640.62902832</ele>
        <time>2021-06-17T07:49:47Z</time>
      </trkpt>
      <trkpt lat="48.00267" lon="7.20627">
        <ele>640.62902832</ele>
        <time>2021-06-17T07:49:49Z</time>
      </trkpt>
      <trkpt lat="48.00267" lon="7.20647">
        <ele>639.44281006</ele>
        <time>2021-06-17T07:49:51Z</time>
      </trkpt>
      <trkpt lat="48.00267" lon="7.20667">
        <ele>638.19165039</ele>
        <time>2021-06-17T07:49:53Z</time>
      </trkpt>
      <trkpt lat="48.00266" lon="7.20688">
        <ele>637.03704834</ele>
        <time>2021-06-17T07:49:55Z</time>
      </trkpt>
      <trkpt lat="48.00268" lon="7.20709">
        <ele>637.03704834</ele>
        <time>2021-06-17T07:49:57Z</time>
      </trkpt>
      <trkpt lat="48.00267" lon="7.20728">
        <ele>635.75836182</ele>
        <time>2021-06-17T07:49:59Z</time>
      </trkpt>
      <trkpt lat="48.00274" lon="7.20743">
        <ele>635.75836182</ele>
        <time>2021-06-17T07:50:00Z</time>
      </trkpt>
      <trkpt lat="48.0029" lon="7.20752">
        <ele>634.48553467</ele>
        <time>2021-06-17T07:50:01Z</time>
      </trkpt>
      <trkpt lat="48.00296" lon="7.20766">
        <ele>633.2869873</ele>
        <time>2021-06-17T07:50:03Z</time>
      </trkpt>
      <trkpt lat="48.00307" lon="7.20782">
        <ele>633.2869873</ele>
        <time>2021-06-17T07:50:05Z</time>
      </trkpt>
      <trkpt lat="48.00317" lon="7.20796">
        <ele>632.1907959</ele>
        <time>2021-06-17T07:50:07Z</time>
      </trkpt>
      <trkpt lat="48.00328" lon="7.20807">
        <ele>631.05419922</ele>
        <time>2021-06-17T07:50:09Z</time>
      </trkpt>
      <trkpt lat="48.00339" lon="7.20816">
        <ele>631.05419922</ele>
        <time>2021-06-17T07:50:11Z</time>
      </trkpt>
      <trkpt lat="48.00349" lon="7.20821">
        <ele>629.93212891</ele>
        <time>2021-06-17T07:50:13Z</time>
      </trkpt>
      <trkpt lat="48.00357" lon="7.20823">
        <ele>628.81152344</ele>
        <time>2021-06-17T07:50:14Z</time>
      </trkpt>
      <trkpt lat="48.00367" lon="7.20825">
        <ele>627.78601074</ele>
        <time>2021-06-17T07:50:16Z</time>
      </trkpt>
      <trkpt lat="48.00382" lon="7.20827">
        <ele>626.67126465</ele>
        <time>2021-06-17T07:50:18Z</time>
      </trkpt>
      <trkpt lat="48.00397" lon="7.20835">
        <ele>625.51159668</ele>
        <time>2021-06-17T07:50:20Z</time>
      </trkpt>
      <trkpt lat="48.00407" lon="7.20854">
        <ele>624.39978027</ele>
        <time>2021-06-17T07:50:22Z</time>
      </trkpt>
      <trkpt lat="48.00409" lon="7.2088">
        <ele>624.39978027</ele>
        <time>2021-06-17T07:50:24Z</time>
      </trkpt>
      <trkpt lat="48.00412" lon="7.209">
        <ele>623.24822998</ele>
        <time>2021-06-17T07:50:26Z</time>
      </trkpt>
      <trkpt lat="48.00411" lon="7.2092">
        <ele>621.93798828</ele>
        <time>2021-06-17T07:50:28Z</time>
      </trkpt>
      <trkpt lat="48.00408" lon="7.20943">
        <ele>621.93798828</ele>
        <time>2021-06-17T07:50:30Z</time>
      </trkpt>
      <trkpt lat="48.00405" lon="7.20965">
        <ele>620.51861572</ele>
        <time>2021-06-17T07:50:32Z</time>
      </trkpt>
      <trkpt lat="48.00402" lon="7.20988">
        <ele>619.21118164</ele>
        <time>2021-06-17T07:50:34Z</time>
      </trkpt>
      <trkpt lat="48.00399" lon="7.21009">
        <ele>619.21118164</ele>
        <time>2021-06-17T07:50:35Z</time>
      </trkpt>
      <trkpt lat="48.00399" lon="7.21029">
        <ele>617.78863525</ele>
        <time>2021-06-17T07:50:37Z</time>
      </trkpt>
      <trkpt lat="48.004" lon="7.2105">
        <ele>617.78863525</ele>
        <time>2021-06-17T07:50:38Z</time>
      </trkpt>
      <trkpt lat="48.004" lon="7.21064">
        <ele>616.46246338</ele>
        <time>2021-06-17T07:50:39Z</time>
      </trkpt>
      <trkpt lat="48.00398" lon="7.21078">
        <ele>616.46246338</ele>
        <time>2021-06-17T07:50:40Z</time>
      </trkpt>
      <trkpt lat="48.00397" lon="7.21091">
        <ele>615.33459473</ele>
        <time>2021-06-17T07:50:41Z</time>
      </trkpt>
      <trkpt lat="48.00395" lon="7.21107">
        <ele>615.33459473</ele>
        <time>2021-06-17T07:50:42Z</time>
      </trkpt>
      <trkpt lat="48.00396" lon="7.21122">
        <ele>614.2598877</ele>
        <time>2021-06-17T07:50:43Z</time>
      </trkpt>
      <trkpt lat="48.00396" lon="7.21137">
        <ele>614.2598877</ele>
        <time>2021-06-17T07:50:44Z</time>
      </trkpt>
      <trkpt lat="48.00396" lon="7.21152">
        <ele>613.08880615</ele>
        <time>2021-06-17T07:50:45Z</time>
      </trkpt>
      <trkpt lat="48.00396" lon="7.21168">
        <ele>613.08880615</ele>
        <time>2021-06-17T07:50:46Z</time>
      </trkpt>
      <trkpt lat="48.00396" lon="7.21185">
        <ele>611.82739258</ele>
        <time>2021-06-17T07:50:47Z</time>
      </trkpt>
      <trkpt lat="48.00396" lon="7.21204">
        <ele>611.82739258</ele>
        <time>2021-06-17T07:50:48Z</time>
      </trkpt>
      <trkpt lat="48.00398" lon="7.21219">
        <ele>610.46936035</ele>
        <time>2021-06-17T07:50:49Z</time>
      </trkpt>
      <trkpt lat="48.00401" lon="7.21233">
        <ele>610.46936035</ele>
        <time>2021-06-17T07:50:50Z</time>
      </trkpt>
      <trkpt lat="48.00406" lon="7.21246">
        <ele>608.92248535</ele>
        <time>2021-06-17T07:50:51Z</time>
      </trkpt>
      <trkpt lat="48.00413" lon="7.21257">
        <ele>608.92248535</ele>
        <time>2021-06-17T07:50:52Z</time>
      </trkpt>
      <trkpt lat="48.00425" lon="7.21273">
        <ele>607.39599609</ele>
        <time>2021-06-17T07:50:53Z</time>
      </trkpt>
      <trkpt lat="48.00449" lon="7.21287">
        <ele>607.39599609</ele>
        <time>2021-06-17T07:50:54Z</time>
      </trkpt>
      <trkpt lat="48.00461" lon="7.21296">
        <ele>606.0166626</ele>
        <time>2021-06-17T07:50:55Z</time>
      </trkpt>
      <trkpt lat="48.00471" lon="7.21303">
        <ele>606.0166626</ele>
        <time>2021-06-17T07:50:57Z</time>
      </trkpt>
      <trkpt lat="48.00485" lon="7.21306">
        <ele>603.53515625</ele>
        <time>2021-06-17T07:50:59Z</time>
      </trkpt>
      <trkpt lat="48.00499" lon="7.21304">
        <ele>602.26806641</ele>
        <time>2021-06-17T07:51:01Z</time>
      </trkpt>
      <trkpt lat="48.00514" lon="7.21304">
        <ele>601.08416748</ele>
        <time>2021-06-17T07:51:03Z</time>
      </trkpt>
      <trkpt lat="48.00529" lon="7.213">
        <ele>599.98168945</ele>
        <time>2021-06-17T07:51:05Z</time>
      </trkpt>
      <trkpt lat="48.00546" lon="7.21296">
        <ele>598.75842285</ele>
        <time>2021-06-17T07:51:07Z</time>
      </trkpt>
      <trkpt lat="48.00568" lon="7.21289">
        <ele>598.75842285</ele>
        <time>2021-06-17T07:51:08Z</time>
      </trkpt>
      <trkpt lat="48.00577" lon="7.21295">
        <ele>597.42626953</ele>
        <time>2021-06-17T07:51:10Z</time>
      </trkpt>
      <trkpt lat="48.00584" lon="7.21315">
        <ele>596.13562012</ele>
        <time>2021-06-17T07:51:12Z</time>
      </trkpt>
      <trkpt lat="48.00588" lon="7.21344">
        <ele>593.90844727</ele>
        <time>2021-06-17T07:51:14Z</time>
      </trkpt>
      <trkpt lat="48.00583" lon="7.21356">
        <ele>593.90844727</ele>
        <time>2021-06-17T07:51:15Z</time>
      </trkpt>
      <trkpt lat="48.00576" lon="7.21367">
        <ele>592.9710083</ele>
        <time>2021-06-17T07:51:16Z</time>
      </trkpt>
      <trkpt lat="48.0057" lon="7.21385">
        <ele>591.60058594</ele>
        <time>2021-06-17T07:51:18Z</time>
      </trkpt>
      <trkpt lat="48.00562" lon="7.21407">
        <ele>590.3260498</ele>
        <time>2021-06-17T07:51:20Z</time>
      </trkpt>
      <trkpt lat="48.00552" lon="7.21427">
        <ele>589.03900146</ele>
        <time>2021-06-17T07:51:22Z</time>
      </trkpt>
      <trkpt lat="48.00539" lon="7.21446">
        <ele>587.88378906</ele>
        <time>2021-06-17T07:51:24Z</time>
      </trkpt>
      <trkpt lat="48.00531" lon="7.21466">
        <ele>587.88378906</ele>
        <time>2021-06-17T07:51:25Z</time>
      </trkpt>
      <trkpt lat="48.00524" lon="7.21482">
        <ele>586.81384277</ele>
        <time>2021-06-17T07:51:26Z</time>
      </trkpt>
      <trkpt lat="48.00516" lon="7.21501">
        <ele>586.81384277</ele>
        <time>2021-06-17T07:51:27Z</time>
      </trkpt>
      <trkpt lat="48.00511" lon="7.21514">
        <ele>585.60571289</ele>
        <time>2021-06-17T07:51:28Z</time>
      </trkpt>
      <trkpt lat="48.00507" lon="7.21531">
        <ele>585.60571289</ele>
        <time>2021-06-17T07:51:29Z</time>
      </trkpt>
      <trkpt lat="48.00506" lon="7.2155">
        <ele>584.4588623</ele>
        <time>2021-06-17T07:51:30Z</time>
      </trkpt>
      <trkpt lat="48.00501" lon="7.21568">
        <ele>584.4588623</ele>
        <time>2021-06-17T07:51:31Z</time>
      </trkpt>
      <trkpt lat="48.00496" lon="7.21582">
        <ele>583.38708496</ele>
        <time>2021-06-17T07:51:32Z</time>
      </trkpt>
      <trkpt lat="48.00497" lon="7.21598">
        <ele>582.29370117</ele>
        <time>2021-06-17T07:51:34Z</time>
      </trkpt>
      <trkpt lat="48.00493" lon="7.21614">
        <ele>581.20336914</ele>
        <time>2021-06-17T07:51:36Z</time>
      </trkpt>
      <trkpt lat="48.00481" lon="7.21622">
        <ele>581.20336914</ele>
        <time>2021-06-17T07:51:38Z</time>
      </trkpt>
      <trkpt lat="48.0047" lon="7.21622">
        <ele>580.28588867</ele>
        <time>2021-06-17T07:51:40Z</time>
      </trkpt>
      <trkpt lat="48.0046" lon="7.21614">
        <ele>580.28588867</ele>
        <time>2021-06-17T07:51:42Z</time>
      </trkpt>
      <trkpt lat="48.00448" lon="7.21608">
        <ele>579.15447998</ele>
        <time>2021-06-17T07:51:43Z</time>
      </trkpt>
      <trkpt lat="48.00437" lon="7.21606">
        <ele>579.15447998</ele>
        <time>2021-06-17T07:51:44Z</time>
      </trkpt>
      <trkpt lat="48.00428" lon="7.21606">
        <ele>579.15447998</ele>
        <time>2021-06-17T07:51:45Z</time>
      </trkpt>
      <trkpt lat="48.00418" lon="7.21606">
        <ele>577.95715332</ele>
        <time>2021-06-17T07:51:47Z</time>
      </trkpt>
      <trkpt lat="48.00403" lon="7.21609">
        <ele>576.73913574</ele>
        <time>2021-06-17T07:51:49Z</time>
      </trkpt>
      <trkpt lat="48.00388" lon="7.21612">
        <ele>576.73913574</ele>
        <time>2021-06-17T07:51:50Z</time>
      </trkpt>
      <trkpt lat="48.00377" lon="7.21612">
        <ele>576.73913574</ele>
        <time>2021-06-17T07:51:51Z</time>
      </trkpt>
      <trkpt lat="48.00368" lon="7.21615">
        <ele>575.35186768</ele>
        <time>2021-06-17T07:51:52Z</time>
      </trkpt>
      <trkpt lat="48.00348" lon="7.21615">
        <ele>575.35186768</ele>
        <time>2021-06-17T07:51:53Z</time>
      </trkpt>
      <trkpt lat="48.00336" lon="7.21619">
        <ele>574.09655762</ele>
        <time>2021-06-17T07:51:55Z</time>
      </trkpt>
      <trkpt lat="48.00322" lon="7.21623">
        <ele>572.89172363</ele>
        <time>2021-06-17T07:51:56Z</time>
      </trkpt>
      <trkpt lat="48.00312" lon="7.21622">
        <ele>572.89172363</ele>
        <time>2021-06-17T07:51:57Z</time>
      </trkpt>
      <trkpt lat="48.003" lon="7.21621">
        <ele>571.85760498</ele>
        <time>2021-06-17T07:51:58Z</time>
      </trkpt>
      <trkpt lat="48.0029" lon="7.21619">
        <ele>571.85760498</ele>
        <time>2021-06-17T07:51:59Z</time>
      </trkpt>
      <trkpt lat="48.00269" lon="7.21618">
        <ele>570.78375244</ele>
        <time>2021-06-17T07:52:00Z</time>
      </trkpt>
      <trkpt lat="48.00256" lon="7.21618">
        <ele>570.78375244</ele>
        <time>2021-06-17T07:52:02Z</time>
      </trkpt>
      <trkpt lat="48.00239" lon="7.2162">
        <ele>569.52545166</ele>
        <time>2021-06-17T07:52:03Z</time>
      </trkpt>
      <trkpt lat="48.00229" lon="7.21624">
        <ele>569.52545166</ele>
        <time>2021-06-17T07:52:04Z</time>
      </trkpt>
      <trkpt lat="48.00221" lon="7.2163">
        <ele>569.52545166</ele>
        <time>2021-06-17T07:52:05Z</time>
      </trkpt>
      <trkpt lat="48.00212" lon="7.21636">
        <ele>568.12072754</ele>
        <time>2021-06-17T07:52:06Z</time>
      </trkpt>
      <trkpt lat="48.00205" lon="7.21645">
        <ele>568.12072754</ele>
        <time>2021-06-17T07:52:07Z</time>
      </trkpt>
      <trkpt lat="48.00197" lon="7.21656">
        <ele>568.12072754</ele>
        <time>2021-06-17T07:52:08Z</time>
      </trkpt>
      <trkpt lat="48.00191" lon="7.21671">
        <ele>566.90991211</ele>
        <time>2021-06-17T07:52:10Z</time>
      </trkpt>
      <trkpt lat="48.00184" lon="7.21689">
        <ele>565.90472412</ele>
        <time>2021-06-17T07:52:12Z</time>
      </trkpt>
      <trkpt lat="48.002" lon="7.21707">
        <ele>565.90472412</ele>
        <time>2021-06-17T07:52:13Z</time>
      </trkpt>
      <trkpt lat="48.00218" lon="7.21718">
        <ele>564.88330078</ele>
        <time>2021-06-17T07:52:14Z</time>
      </trkpt>
      <trkpt lat="48.00227" lon="7.21727">
        <ele>564.88330078</ele>
        <time>2021-06-17T07:52:16Z</time>
      </trkpt>
      <trkpt lat="48.0024" lon="7.21734">
        <ele>563.94665527</ele>
        <time>2021-06-17T07:52:18Z</time>
      </trkpt>
      <trkpt lat="48.00252" lon="7.21739">
        <ele>562.78320312</ele>
        <time>2021-06-17T07:52:20Z</time>
      </trkpt>
      <trkpt lat="48.00264" lon="7.21742">
        <ele>562.78320312</ele>
        <time>2021-06-17T07:52:21Z</time>
      </trkpt>
      <trkpt lat="48.00274" lon="7.21743">
        <ele>562.78320312</ele>
        <time>2021-06-17T07:52:22Z</time>
      </trkpt>
      <trkpt lat="48.00283" lon="7.21743">
        <ele>561.56079102</ele>
        <time>2021-06-17T07:52:23Z</time>
      </trkpt>
      <trkpt lat="48.00292" lon="7.21747">
        <ele>561.56079102</ele>
        <time>2021-06-17T07:52:24Z</time>
      </trkpt>
      <trkpt lat="48.00303" lon="7.21748">
        <ele>561.56079102</ele>
        <time>2021-06-17T07:52:25Z</time>
      </trkpt>
      <trkpt lat="48.00315" lon="7.21752">
        <ele>560.31695557</ele>
        <time>2021-06-17T07:52:27Z</time>
      </trkpt>
      <trkpt lat="48.00328" lon="7.21759">
        <ele>560.31695557</ele>
        <time>2021-06-17T07:52:28Z</time>
      </trkpt>
      <trkpt lat="48.00338" lon="7.21765">
        <ele>559.00830078</ele>
        <time>2021-06-17T07:52:29Z</time>
      </trkpt>
      <trkpt lat="48.00349" lon="7.21773">
        <ele>559.00830078</ele>
        <time>2021-06-17T07:52:31Z</time>
      </trkpt>
      <trkpt lat="48.00362" lon="7.21788">
        <ele>557.70178223</ele>
        <time>2021-06-17T07:52:33Z</time>
      </trkpt>
      <trkpt lat="48.00375" lon="7.21802">
        <ele>556.47058105</ele>
        <time>2021-06-17T07:52:35Z</time>
      </trkpt>
      <trkpt lat="48.00387" lon="7.21812">
        <ele>556.47058105</ele>
        <time>2021-06-17T07:52:36Z</time>
      </trkpt>
      <trkpt lat="48.00396" lon="7.21819">
        <ele>556.47058105</ele>
        <time>2021-06-17T07:52:37Z</time>
      </trkpt>
      <trkpt lat="48.00404" lon="7.21828">
        <ele>555.17907715</ele>
        <time>2021-06-17T07:52:38Z</time>
      </trkpt>
      <trkpt lat="48.00414" lon="7.2184">
        <ele>555.17907715</ele>
        <time>2021-06-17T07:52:40Z</time>
      </trkpt>
      <trkpt lat="48.00426" lon="7.21853">
        <ele>553.96624756</ele>
        <time>2021-06-17T07:52:42Z</time>
      </trkpt>
      <trkpt lat="48.00438" lon="7.21863">
        <ele>552.91864014</ele>
        <time>2021-06-17T07:52:44Z</time>
      </trkpt>
      <trkpt lat="48.00451" lon="7.2187">
        <ele>552.91864014</ele>
        <time>2021-06-17T07:52:46Z</time>
      </trkpt>
      <trkpt lat="48.00462" lon="7.21877">
        <ele>551.79718018</ele>
        <time>2021-06-17T07:52:48Z</time>
      </trkpt>
      <trkpt lat="48.00476" lon="7.21881">
        <ele>551.79718018</ele>
        <time>2021-06-17T07:52:50Z</time>
      </trkpt>
      <trkpt lat="48.00488" lon="7.21888">
        <ele>550.62353516</ele>
        <time>2021-06-17T07:52:52Z</time>
      </trkpt>
      <trkpt lat="48.00502" lon="7.21899">
        <ele>549.51580811</ele>
        <time>2021-06-17T07:52:54Z</time>
      </trkpt>
      <trkpt lat="48.00512" lon="7.21912">
        <ele>549.51580811</ele>
        <time>2021-06-17T07:52:56Z</time>
      </trkpt>
      <trkpt lat="48.00518" lon="7.21924">
        <ele>549.51580811</ele>
        <time>2021-06-17T07:53:02Z</time>
      </trkpt>
      <trkpt lat="48.0051" lon="7.2193">
        <ele>548.46118164</ele>
        <time>2021-06-17T07:53:08Z</time>
      </trkpt>
      <trkpt lat="48.00468" lon="7.21924">
        <ele>547.5994873</ele>
        <time>2021-06-17T07:55:40Z</time>
      </trkpt>
      <trkpt lat="48.00463" lon="7.21936">
        <ele>547.17767334</ele>
        <time>2021-06-17T07:56:26Z</time>
      </trkpt>
      <trkpt lat="48.00462" lon="7.21939">
        <ele>547.17767334</ele>
        <time>2021-06-17T07:56:38Z</time>
      </trkpt>
      <trkpt lat="48.00448" lon="7.21939">
        <ele>547.07055664</ele>
        <time>2021-06-17T07:56:41Z</time>
      </trkpt>
      <trkpt lat="48.00436" lon="7.21941">
        <ele>545.18292236</ele>
        <time>2021-06-17T07:56:44Z</time>
      </trkpt>
      <trkpt lat="48.00427" lon="7.21941">
        <ele>545.18292236</ele>
        <time>2021-06-17T07:56:46Z</time>
      </trkpt>
      <trkpt lat="48.00412" lon="7.21942">
        <ele>544.04296875</ele>
        <time>2021-06-17T07:56:48Z</time>
      </trkpt>
      <trkpt lat="48.00393" lon="7.21942">
        <ele>544.04296875</ele>
        <time>2021-06-17T07:56:49Z</time>
      </trkpt>
      <trkpt lat="48.00381" lon="7.21941">
        <ele>542.80828857</ele>
        <time>2021-06-17T07:56:50Z</time>
      </trkpt>
      <trkpt lat="48.00371" lon="7.21942">
        <ele>542.80828857</ele>
        <time>2021-06-17T07:56:51Z</time>
      </trkpt>
      <trkpt lat="48.00362" lon="7.21942">
        <ele>541.53503418</ele>
        <time>2021-06-17T07:56:52Z</time>
      </trkpt>
      <trkpt lat="48.00351" lon="7.21944">
        <ele>541.53503418</ele>
        <time>2021-06-17T07:56:53Z</time>
      </trkpt>
      <trkpt lat="48.00338" lon="7.21944">
        <ele>540.50219727</ele>
        <time>2021-06-17T07:56:54Z</time>
      </trkpt>
      <trkpt lat="48.00324" lon="7.21943">
        <ele>540.50219727</ele>
        <time>2021-06-17T07:56:55Z</time>
      </trkpt>
      <trkpt lat="48.00312" lon="7.21946">
        <ele>539.28564453</ele>
        <time>2021-06-17T07:56:56Z</time>
      </trkpt>
      <trkpt lat="48.003" lon="7.21949">
        <ele>539.28564453</ele>
        <time>2021-06-17T07:56:57Z</time>
      </trkpt>
      <trkpt lat="48.00288" lon="7.21949">
        <ele>537.85217285</ele>
        <time>2021-06-17T07:56:58Z</time>
      </trkpt>
      <trkpt lat="48.00275" lon="7.21948">
        <ele>537.85217285</ele>
        <time>2021-06-17T07:56:59Z</time>
      </trkpt>
      <trkpt lat="48.00263" lon="7.21951">
        <ele>536.39233398</ele>
        <time>2021-06-17T07:57:00Z</time>
      </trkpt>
      <trkpt lat="48.00251" lon="7.21954">
        <ele>536.39233398</ele>
        <time>2021-06-17T07:57:01Z</time>
      </trkpt>
      <trkpt lat="48.00238" lon="7.21955">
        <ele>534.98681641</ele>
        <time>2021-06-17T07:57:02Z</time>
      </trkpt>
      <trkpt lat="48.00221" lon="7.21954">
        <ele>534.98681641</ele>
        <time>2021-06-17T07:57:03Z</time>
      </trkpt>
      <trkpt lat="48.0021" lon="7.21963">
        <ele>533.68597412</ele>
        <time>2021-06-17T07:57:05Z</time>
      </trkpt>
      <trkpt lat="48.00197" lon="7.21979">
        <ele>532.37817383</ele>
        <time>2021-06-17T07:57:07Z</time>
      </trkpt>
      <trkpt lat="48.00182" lon="7.2199">
        <ele>531.07183838</ele>
        <time>2021-06-17T07:57:08Z</time>
      </trkpt>
      <trkpt lat="48.00175" lon="7.22">
        <ele>531.07183838</ele>
        <time>2021-06-17T07:57:09Z</time>
      </trkpt>
      <trkpt lat="48.00167" lon="7.2201">
        <ele>529.60479736</ele>
        <time>2021-06-17T07:57:10Z</time>
      </trkpt>
      <trkpt lat="48.0016" lon="7.22022">
        <ele>529.60479736</ele>
        <time>2021-06-17T07:57:11Z</time>
      </trkpt>
      <trkpt lat="48.00151" lon="7.22031">
        <ele>528.15704346</ele>
        <time>2021-06-17T07:57:12Z</time>
      </trkpt>
      <trkpt lat="48.00142" lon="7.2204">
        <ele>528.15704346</ele>
        <time>2021-06-17T07:57:13Z</time>
      </trkpt>
      <trkpt lat="48.00131" lon="7.2205">
        <ele>526.36901855</ele>
        <time>2021-06-17T07:57:14Z</time>
      </trkpt>
      <trkpt lat="48.00122" lon="7.22062">
        <ele>526.36901855</ele>
        <time>2021-06-17T07:57:15Z</time>
      </trkpt>
      <trkpt lat="48.00114" lon="7.22073">
        <ele>525.16845703</ele>
        <time>2021-06-17T07:57:16Z</time>
      </trkpt>
      <trkpt lat="48.00106" lon="7.22088">
        <ele>525.16845703</ele>
        <time>2021-06-17T07:57:17Z</time>
      </trkpt>
      <trkpt lat="48.00099" lon="7.22103">
        <ele>523.59649658</ele>
        <time>2021-06-17T07:57:18Z</time>
      </trkpt>
      <trkpt lat="48.0009" lon="7.22117">
        <ele>523.59649658</ele>
        <time>2021-06-17T07:57:19Z</time>
      </trkpt>
      <trkpt lat="48.00079" lon="7.2213">
        <ele>521.98327637</ele>
        <time>2021-06-17T07:57:20Z</time>
      </trkpt>
      <trkpt lat="48.00067" lon="7.2214">
        <ele>521.98327637</ele>
        <time>2021-06-17T07:57:21Z</time>
      </trkpt>
      <trkpt lat="48.00056" lon="7.2215">
        <ele>520.25683594</ele>
        <time>2021-06-17T07:57:22Z</time>
      </trkpt>
      <trkpt lat="48.00044" lon="7.22159">
        <ele>520.25683594</ele>
        <time>2021-06-17T07:57:23Z</time>
      </trkpt>
      <trkpt lat="48.00032" lon="7.22165">
        <ele>518.46282959</ele>
        <time>2021-06-17T07:57:24Z</time>
      </trkpt>
      <trkpt lat="48.00018" lon="7.22169">
        <ele>518.46282959</ele>
        <time>2021-06-17T07:57:25Z</time>
      </trkpt>
      <trkpt lat="48.00006" lon="7.22175">
        <ele>516.62231445</ele>
        <time>2021-06-17T07:57:26Z</time>
      </trkpt>
      <trkpt lat="47.99992" lon="7.22181">
        <ele>516.62231445</ele>
        <time>2021-06-17T07:57:27Z</time>
      </trkpt>
      <trkpt lat="47.99978" lon="7.2219">
        <ele>514.72247314</ele>
        <time>2021-06-17T07:57:28Z</time>
      </trkpt>
      <trkpt lat="47.99959" lon="7.22196">
        <ele>514.72247314</ele>
        <time>2021-06-17T07:57:29Z</time>
      </trkpt>
      <trkpt lat="47.99946" lon="7.22203">
        <ele>512.73260498</ele>
        <time>2021-06-17T07:57:30Z</time>
      </trkpt>
      <trkpt lat="47.99934" lon="7.22205">
        <ele>512.73260498</ele>
        <time>2021-06-17T07:57:31Z</time>
      </trkpt>
      <trkpt lat="47.99923" lon="7.22206">
        <ele>510.8326416</ele>
        <time>2021-06-17T07:57:32Z</time>
      </trkpt>
      <trkpt lat="47.99912" lon="7.22206">
        <ele>510.8326416</ele>
        <time>2021-06-17T07:57:33Z</time>
      </trkpt>
      <trkpt lat="47.99899" lon="7.22199">
        <ele>509.08642578</ele>
        <time>2021-06-17T07:57:34Z</time>
      </trkpt>
      <trkpt lat="47.99891" lon="7.2219">
        <ele>509.08642578</ele>
        <time>2021-06-17T07:57:35Z</time>
      </trkpt>
      <trkpt lat="47.99882" lon="7.22183">
        <ele>507.59216309</ele>
        <time>2021-06-17T07:57:36Z</time>
      </trkpt>
      <trkpt lat="47.99873" lon="7.22176">
        <ele>507.59216309</ele>
        <time>2021-06-17T07:57:37Z</time>
      </trkpt>
      <trkpt lat="47.99863" lon="7.22169">
        <ele>506.08679199</ele>
        <time>2021-06-17T07:57:38Z</time>
      </trkpt>
      <trkpt lat="47.9985" lon="7.22161">
        <ele>506.08679199</ele>
        <time>2021-06-17T07:57:39Z</time>
      </trkpt>
      <trkpt lat="47.99838" lon="7.22151">
        <ele>504.51721191</ele>
        <time>2021-06-17T07:57:40Z</time>
      </trkpt>
      <trkpt lat="47.99828" lon="7.22142">
        <ele>504.51721191</ele>
        <time>2021-06-17T07:57:41Z</time>
      </trkpt>
      <trkpt lat="47.99819" lon="7.22133">
        <ele>502.800354</ele>
        <time>2021-06-17T07:57:42Z</time>
      </trkpt>
      <trkpt lat="47.9981" lon="7.22125">
        <ele>502.800354</ele>
        <time>2021-06-17T07:57:43Z</time>
      </trkpt>
      <trkpt lat="47.99795" lon="7.22115">
        <ele>501.05578613</ele>
        <time>2021-06-17T07:57:44Z</time>
      </trkpt>
      <trkpt lat="47.99783" lon="7.22105">
        <ele>501.05578613</ele>
        <time>2021-06-17T07:57:45Z</time>
      </trkpt>
      <trkpt lat="47.99767" lon="7.22094">
        <ele>499.07778931</ele>
        <time>2021-06-17T07:57:46Z</time>
      </trkpt>
      <trkpt lat="47.99755" lon="7.22086">
        <ele>497.38897705</ele>
        <time>2021-06-17T07:57:47Z</time>
      </trkpt>
      <trkpt lat="47.9974" lon="7.22075">
        <ele>496.31231689</ele>
        <time>2021-06-17T07:57:48Z</time>
      </trkpt>
      <trkpt lat="47.99724" lon="7.22062">
        <ele>496.31231689</ele>
        <time>2021-06-17T07:57:49Z</time>
      </trkpt>
      <trkpt lat="47.99706" lon="7.22051">
        <ele>494.8505249</ele>
        <time>2021-06-17T07:57:50Z</time>
      </trkpt>
      <trkpt lat="47.99695" lon="7.22044">
        <ele>493.26495361</ele>
        <time>2021-06-17T07:57:51Z</time>
      </trkpt>
      <trkpt lat="47.99682" lon="7.22037">
        <ele>492.19030762</ele>
        <time>2021-06-17T07:57:52Z</time>
      </trkpt>
      <trkpt lat="47.99668" lon="7.22029">
        <ele>491.16165161</ele>
        <time>2021-06-17T07:57:53Z</time>
      </trkpt>
      <trkpt lat="47.99653" lon="7.22019">
        <ele>491.16165161</ele>
        <time>2021-06-17T07:57:54Z</time>
      </trkpt>
      <trkpt lat="47.99644" lon="7.22009">
        <ele>489.64520264</ele>
        <time>2021-06-17T07:57:55Z</time>
      </trkpt>
      <trkpt lat="47.99633" lon="7.22007">
        <ele>488.07681274</ele>
        <time>2021-06-17T07:57:56Z</time>
      </trkpt>
      <trkpt lat="47.99619" lon="7.22002">
        <ele>486.99478149</ele>
        <time>2021-06-17T07:57:57Z</time>
      </trkpt>
      <trkpt lat="47.99602" lon="7.21994">
        <ele>485.96981812</ele>
        <time>2021-06-17T07:57:58Z</time>
      </trkpt>
      <trkpt lat="47.99588" lon="7.21985">
        <ele>485.96981812</ele>
        <time>2021-06-17T07:57:59Z</time>
      </trkpt>
      <trkpt lat="47.99575" lon="7.21977">
        <ele>484.43887329</ele>
        <time>2021-06-17T07:58:00Z</time>
      </trkpt>
      <trkpt lat="47.99561" lon="7.2197">
        <ele>482.85964966</ele>
        <time>2021-06-17T07:58:01Z</time>
      </trkpt>
      <trkpt lat="47.99541" lon="7.21964">
        <ele>481.85668945</ele>
        <time>2021-06-17T07:58:02Z</time>
      </trkpt>
      <trkpt lat="47.99519" lon="7.21958">
        <ele>481.85668945</ele>
        <time>2021-06-17T07:58:03Z</time>
      </trkpt>
      <trkpt lat="47.99497" lon="7.21953">
        <ele>480.40246582</ele>
        <time>2021-06-17T07:58:04Z</time>
      </trkpt>
      <trkpt lat="47.99476" lon="7.21949">
        <ele>478.90890503</ele>
        <time>2021-06-17T07:58:05Z</time>
      </trkpt>
      <trkpt lat="47.9946" lon="7.21947">
        <ele>478.90890503</ele>
        <time>2021-06-17T07:58:06Z</time>
      </trkpt>
      <trkpt lat="47.99443" lon="7.21947">
        <ele>477.54406738</ele>
        <time>2021-06-17T07:58:07Z</time>
      </trkpt>
      <trkpt lat="47.99426" lon="7.21954">
        <ele>477.54406738</ele>
        <time>2021-06-17T07:58:08Z</time>
      </trkpt>
      <trkpt lat="47.99417" lon="7.21968">
        <ele>475.65322876</ele>
        <time>2021-06-17T07:58:09Z</time>
      </trkpt>
      <trkpt lat="47.99404" lon="7.21977">
        <ele>475.65322876</ele>
        <time>2021-06-17T07:58:10Z</time>
      </trkpt>
      <trkpt lat="47.99389" lon="7.21987">
        <ele>473.79351807</ele>
        <time>2021-06-17T07:58:11Z</time>
      </trkpt>
      <trkpt lat="47.9937" lon="7.21992">
        <ele>473.79351807</ele>
        <time>2021-06-17T07:58:12Z</time>
      </trkpt>
      <trkpt lat="47.99352" lon="7.21995">
        <ele>471.79470825</ele>
        <time>2021-06-17T07:58:13Z</time>
      </trkpt>
      <trkpt lat="47.99339" lon="7.21996">
        <ele>470.10430908</ele>
        <time>2021-06-17T07:58:14Z</time>
      </trkpt>
      <trkpt lat="47.99327" lon="7.22003">
        <ele>468.98681641</ele>
        <time>2021-06-17T07:58:15Z</time>
      </trkpt>
      <trkpt lat="47.99314" lon="7.22002">
        <ele>467.92892456</ele>
        <time>2021-06-17T07:58:16Z</time>
      </trkpt>
      <trkpt lat="47.99299" lon="7.21999">
        <ele>466.88583374</ele>
        <time>2021-06-17T07:58:17Z</time>
      </trkpt>
      <trkpt lat="47.99285" lon="7.21996">
        <ele>465.87915039</ele>
        <time>2021-06-17T07:58:18Z</time>
      </trkpt>
      <trkpt lat="47.99271" lon="7.21993">
        <ele>464.85626221</ele>
        <time>2021-06-17T07:58:19Z</time>
      </trkpt>
      <trkpt lat="47.99258" lon="7.21989">
        <ele>463.79931641</ele>
        <time>2021-06-17T07:58:20Z</time>
      </trkpt>
      <trkpt lat="47.99243" lon="7.21983">
        <ele>462.70513916</ele>
        <time>2021-06-17T07:58:21Z</time>
      </trkpt>
      <trkpt lat="47.99229" lon="7.21984">
        <ele>461.63525391</ele>
        <time>2021-06-17T07:58:22Z</time>
      </trkpt>
      <trkpt lat="47.99215" lon="7.2198">
        <ele>460.55023193</ele>
        <time>2021-06-17T07:58:23Z</time>
      </trkpt>
      <trkpt lat="47.99202" lon="7.21973">
        <ele>459.41802979</ele>
        <time>2021-06-17T07:58:24Z</time>
      </trkpt>
      <trkpt lat="47.99186" lon="7.21966">
        <ele>458.27017212</ele>
        <time>2021-06-17T07:58:25Z</time>
      </trkpt>
      <trkpt lat="47.99169" lon="7.21961">
        <ele>457.16500854</ele>
        <time>2021-06-17T07:58:26Z</time>
      </trkpt>
      <trkpt lat="47.99151" lon="7.21957">
        <ele>455.93597412</ele>
        <time>2021-06-17T07:58:27Z</time>
      </trkpt>
      <trkpt lat="47.99138" lon="7.21953">
        <ele>454.77905273</ele>
        <time>2021-06-17T07:58:28Z</time>
      </trkpt>
      <trkpt lat="47.99118" lon="7.21953">
        <ele>453.67269897</ele>
        <time>2021-06-17T07:58:29Z</time>
      </trkpt>
      <trkpt lat="47.99105" lon="7.21955">
        <ele>452.52130127</ele>
        <time>2021-06-17T07:58:30Z</time>
      </trkpt>
      <trkpt lat="47.99091" lon="7.21954">
        <ele>451.43093872</ele>
        <time>2021-06-17T07:58:31Z</time>
      </trkpt>
      <trkpt lat="47.9907" lon="7.2195">
        <ele>451.43093872</ele>
        <time>2021-06-17T07:58:32Z</time>
      </trkpt>
      <trkpt lat="47.99056" lon="7.21951">
        <ele>450.12432861</ele>
        <time>2021-06-17T07:58:33Z</time>
      </trkpt>
      <trkpt lat="47.99044" lon="7.21951">
        <ele>450.12432861</ele>
        <time>2021-06-17T07:58:34Z</time>
      </trkpt>
      <trkpt lat="47.99031" lon="7.21953">
        <ele>448.5758667</ele>
        <time>2021-06-17T07:58:35Z</time>
      </trkpt>
      <trkpt lat="47.9902" lon="7.21952">
        <ele>448.5758667</ele>
        <time>2021-06-17T07:58:36Z</time>
      </trkpt>
      <trkpt lat="47.99009" lon="7.21951">
        <ele>446.98376465</ele>
        <time>2021-06-17T07:58:37Z</time>
      </trkpt>
      <trkpt lat="47.98996" lon="7.21949">
        <ele>446.98376465</ele>
        <time>2021-06-17T07:58:38Z</time>
      </trkpt>
      <trkpt lat="47.98985" lon="7.21949">
        <ele>445.60186768</ele>
        <time>2021-06-17T07:58:39Z</time>
      </trkpt>
      <trkpt lat="47.98976" lon="7.21942">
        <ele>445.60186768</ele>
        <time>2021-06-17T07:58:40Z</time>
      </trkpt>
      <trkpt lat="47.98967" lon="7.21942">
        <ele>444.40362549</ele>
        <time>2021-06-17T07:58:41Z</time>
      </trkpt>
      <trkpt lat="47.98957" lon="7.21943">
        <ele>444.40362549</ele>
        <time>2021-06-17T07:58:42Z</time>
      </trkpt>
      <trkpt lat="47.98948" lon="7.21946">
        <ele>443.19708252</ele>
        <time>2021-06-17T07:58:43Z</time>
      </trkpt>
      <trkpt lat="47.98939" lon="7.21949">
        <ele>443.19708252</ele>
        <time>2021-06-17T07:58:44Z</time>
      </trkpt>
      <trkpt lat="47.98927" lon="7.21945">
        <ele>443.19708252</ele>
        <time>2021-06-17T07:58:45Z</time>
      </trkpt>
      <trkpt lat="47.98918" lon="7.21942">
        <ele>441.96463013</ele>
        <time>2021-06-17T07:58:46Z</time>
      </trkpt>
      <trkpt lat="47.98904" lon="7.21941">
        <ele>441.96463013</ele>
        <time>2021-06-17T07:58:48Z</time>
      </trkpt>
      <trkpt lat="47.98889" lon="7.21945">
        <ele>440.65557861</ele>
        <time>2021-06-17T07:58:49Z</time>
      </trkpt>
      <trkpt lat="47.98881" lon="7.21958">
        <ele>440.65557861</ele>
        <time>2021-06-17T07:58:51Z</time>
      </trkpt>
      <trkpt lat="47.98867" lon="7.21965">
        <ele>439.47973633</ele>
        <time>2021-06-17T07:58:52Z</time>
      </trkpt>
      <trkpt lat="47.98858" lon="7.21972">
        <ele>439.47973633</ele>
        <time>2021-06-17T07:58:53Z</time>
      </trkpt>
      <trkpt lat="47.98853" lon="7.21986">
        <ele>438.41418457</ele>
        <time>2021-06-17T07:58:55Z</time>
      </trkpt>
      <trkpt lat="47.98849" lon="7.22005">
        <ele>438.41418457</ele>
        <time>2021-06-17T07:58:57Z</time>
      </trkpt>
      <trkpt lat="47.98848" lon="7.22025">
        <ele>438.41418457</ele>
        <time>2021-06-17T07:58:58Z</time>
      </trkpt>
      <trkpt lat="47.98846" lon="7.22044">
        <ele>437.26934814</ele>
        <time>2021-06-17T07:59:00Z</time>
      </trkpt>
      <trkpt lat="47.9885" lon="7.22073">
        <ele>437.26934814</ele>
        <time>2021-06-17T07:59:02Z</time>
      </trkpt>
      <trkpt lat="47.98861" lon="7.22099">
        <ele>436.18572998</ele>
        <time>2021-06-17T07:59:03Z</time>
      </trkpt>
      <trkpt lat="47.98865" lon="7.22112">
        <ele>436.18572998</ele>
        <time>2021-06-17T07:59:05Z</time>
      </trkpt>
      <trkpt lat="47.98866" lon="7.2213">
        <ele>435.12173462</ele>
        <time>2021-06-17T07:59:07Z</time>
      </trkpt>
      <trkpt lat="47.98866" lon="7.2215">
        <ele>435.12173462</ele>
        <time>2021-06-17T07:59:09Z</time>
      </trkpt>
      <trkpt lat="47.98861" lon="7.22168">
        <ele>433.97540283</ele>
        <time>2021-06-17T07:59:11Z</time>
      </trkpt>
      <trkpt lat="47.98854" lon="7.22183">
        <ele>433.97540283</ele>
        <time>2021-06-17T07:59:13Z</time>
      </trkpt>
      <trkpt lat="47.98847" lon="7.22192">
        <ele>432.11401367</ele>
        <time>2021-06-17T07:59:14Z</time>
      </trkpt>
      <trkpt lat="47.98839" lon="7.22202">
        <ele>432.11401367</ele>
        <time>2021-06-17T07:59:16Z</time>
      </trkpt>
      <trkpt lat="47.98825" lon="7.22214">
        <ele>431.32824707</ele>
        <time>2021-06-17T07:59:18Z</time>
      </trkpt>
      <trkpt lat="47.98808" lon="7.22219">
        <ele>431.32824707</ele>
        <time>2021-06-17T07:59:20Z</time>
      </trkpt>
      <trkpt lat="47.98795" lon="7.22214">
        <ele>430.28939819</ele>
        <time>2021-06-17T07:59:22Z</time>
      </trkpt>
      <trkpt lat="47.98784" lon="7.22204">
        <ele>430.28939819</ele>
        <time>2021-06-17T07:59:24Z</time>
      </trkpt>
      <trkpt lat="47.98771" lon="7.22194">
        <ele>430.28939819</ele>
        <time>2021-06-17T07:59:26Z</time>
      </trkpt>
      <trkpt lat="47.9876" lon="7.22181">
        <ele>430.28939819</ele>
        <time>2021-06-17T07:59:28Z</time>
      </trkpt>
      <trkpt lat="47.9875" lon="7.22166">
        <ele>429.22384644</ele>
        <time>2021-06-17T07:59:30Z</time>
      </trkpt>
      <trkpt lat="47.98742" lon="7.22148">
        <ele>429.22384644</ele>
        <time>2021-06-17T07:59:32Z</time>
      </trkpt>
      <trkpt lat="47.98732" lon="7.2213">
        <ele>428.17752075</ele>
        <time>2021-06-17T07:59:34Z</time>
      </trkpt>
      <trkpt lat="47.98724" lon="7.2211">
        <ele>428.17752075</ele>
        <time>2021-06-17T07:59:36Z</time>
      </trkpt>
      <trkpt lat="47.98716" lon="7.22089">
        <ele>426.77316284</ele>
        <time>2021-06-17T07:59:38Z</time>
      </trkpt>
      <trkpt lat="47.98706" lon="7.22066">
        <ele>425.65304565</ele>
        <time>2021-06-17T07:59:40Z</time>
      </trkpt>
      <trkpt lat="47.98698" lon="7.22043">
        <ele>425.65304565</ele>
        <time>2021-06-17T07:59:42Z</time>
      </trkpt>
      <trkpt lat="47.98689" lon="7.22024">
        <ele>424.3380127</ele>
        <time>2021-06-17T07:59:44Z</time>
      </trkpt>
      <trkpt lat="47.98682" lon="7.22011">
        <ele>424.3380127</ele>
        <time>2021-06-17T07:59:46Z</time>
      </trkpt>
      <trkpt lat="47.98674" lon="7.22004">
        <ele>423.1456604</ele>
        <time>2021-06-17T07:59:48Z</time>
      </trkpt>
      <trkpt lat="47.98663" lon="7.22">
        <ele>423.1456604</ele>
        <time>2021-06-17T07:59:51Z</time>
      </trkpt>
      <trkpt lat="47.98656" lon="7.22003">
        <ele>421.97216797</ele>
        <time>2021-06-17T08:00:45Z</time>
      </trkpt>
      <trkpt lat="47.98657" lon="7.22005">
        <ele>421.97216797</ele>
        <time>2021-06-17T08:00:49Z</time>
      </trkpt>
      <trkpt lat="47.9867" lon="7.22008">
        <ele>421.97216797</ele>
        <time>2021-06-17T08:01:02Z</time>
      </trkpt>
      <trkpt lat="47.98674" lon="7.22002">
        <ele>421.87606812</ele>
        <time>2021-06-17T08:01:28Z</time>
      </trkpt>
      <trkpt lat="47.98674" lon="7.21999">
        <ele>421.87606812</ele>
        <time>2021-06-17T08:01:33Z</time>
      </trkpt>
      <trkpt lat="47.98675" lon="7.21979">
        <ele>421.87606812</ele>
        <time>2021-06-17T08:01:40Z</time>
      </trkpt>
      <trkpt lat="47.98667" lon="7.21964">
        <ele>421.87606812</ele>
        <time>2021-06-17T08:01:42Z</time>
      </trkpt>
      <trkpt lat="47.98661" lon="7.21955">
        <ele>421.87606812</ele>
        <time>2021-06-17T08:01:46Z</time>
      </trkpt>
      <trkpt lat="47.98654" lon="7.21941">
        <ele>421.87606812</ele>
        <time>2021-06-17T08:01:49Z</time>
      </trkpt>
      <trkpt lat="47.98649" lon="7.21931">
        <ele>421.87606812</ele>
        <time>2021-06-17T08:01:53Z</time>
      </trkpt>
      <trkpt lat="47.98641" lon="7.21918">
        <ele>421.87606812</ele>
        <time>2021-06-17T08:01:57Z</time>
      </trkpt>
      <trkpt lat="47.98633" lon="7.21909">
        <ele>421.87606812</ele>
        <time>2021-06-17T08:02:01Z</time>
      </trkpt>
      <trkpt lat="47.98625" lon="7.219">
        <ele>421.87606812</ele>
        <time>2021-06-17T08:02:04Z</time>
      </trkpt>
      <trkpt lat="47.98616" lon="7.21893">
        <ele>421.78320312</ele>
        <time>2021-06-17T08:02:08Z</time>
      </trkpt>
      <trkpt lat="47.98606" lon="7.21885">
        <ele>423.69494629</ele>
        <time>2021-06-17T08:02:12Z</time>
      </trkpt>
      <trkpt lat="47.98599" lon="7.21877">
        <ele>424.5557251</ele>
        <time>2021-06-17T08:02:14Z</time>
      </trkpt>
      <trkpt lat="47.98592" lon="7.2187">
        <ele>424.5557251</ele>
        <time>2021-06-17T08:02:18Z</time>
      </trkpt>
      <trkpt lat="47.98583" lon="7.21861">
        <ele>425.35296631</ele>
        <time>2021-06-17T08:02:22Z</time>
      </trkpt>
      <trkpt lat="47.98575" lon="7.21853">
        <ele>426.43640137</ele>
        <time>2021-06-17T08:02:28Z</time>
      </trkpt>
      <trkpt lat="47.98571" lon="7.21841">
        <ele>427.57397461</ele>
        <time>2021-06-17T08:02:35Z</time>
      </trkpt>
      <trkpt lat="47.98567" lon="7.21827">
        <ele>428.56445312</ele>
        <time>2021-06-17T08:02:41Z</time>
      </trkpt>
      <trkpt lat="47.98575" lon="7.21817">
        <ele>429.77337646</ele>
        <time>2021-06-17T08:02:45Z</time>
      </trkpt>
      <trkpt lat="47.98581" lon="7.21808">
        <ele>431.12179565</ele>
        <time>2021-06-17T08:04:47Z</time>
      </trkpt>
      <trkpt lat="47.98579" lon="7.21805">
        <ele>431.40710449</ele>
        <time>2021-06-17T08:06:01Z</time>
      </trkpt>
      <trkpt lat="47.98581" lon="7.21807">
        <ele>431.40710449</ele>
        <time>2021-06-17T08:06:05Z</time>
      </trkpt>
      <trkpt lat="47.98566" lon="7.21824">
        <ele>431.2277832</ele>
        <time>2021-06-17T08:06:08Z</time>
      </trkpt>
      <trkpt lat="47.98563" lon="7.21835">
        <ele>429.71508789</ele>
        <time>2021-06-17T08:06:12Z</time>
      </trkpt>
      <trkpt lat="47.98566" lon="7.21848">
        <ele>428.81988525</ele>
        <time>2021-06-17T08:06:14Z</time>
      </trkpt>
      <trkpt lat="47.98572" lon="7.2186">
        <ele>428.81988525</ele>
        <time>2021-06-17T08:06:17Z</time>
      </trkpt>
      <trkpt lat="47.98584" lon="7.21872">
        <ele>428.03933716</ele>
        <time>2021-06-17T08:06:19Z</time>
      </trkpt>
      <trkpt lat="47.98593" lon="7.21882">
        <ele>426.7598877</ele>
        <time>2021-06-17T08:06:21Z</time>
      </trkpt>
      <trkpt lat="47.98603" lon="7.21891">
        <ele>426.7598877</ele>
        <time>2021-06-17T08:06:23Z</time>
      </trkpt>
      <trkpt lat="47.98613" lon="7.21898">
        <ele>425.515625</ele>
        <time>2021-06-17T08:06:25Z</time>
      </trkpt>
      <trkpt lat="47.98621" lon="7.21906">
        <ele>424.40103149</ele>
        <time>2021-06-17T08:06:27Z</time>
      </trkpt>
      <trkpt lat="47.9863" lon="7.21917">
        <ele>424.40103149</ele>
        <time>2021-06-17T08:06:29Z</time>
      </trkpt>
      <trkpt lat="47.98639" lon="7.21928">
        <ele>423.23626709</ele>
        <time>2021-06-17T08:06:31Z</time>
      </trkpt>
      <trkpt lat="47.98647" lon="7.2194">
        <ele>423.23626709</ele>
        <time>2021-06-17T08:06:33Z</time>
      </trkpt>
      <trkpt lat="47.98655" lon="7.21951">
        <ele>423.23626709</ele>
        <time>2021-06-17T08:06:35Z</time>
      </trkpt>
      <trkpt lat="47.98662" lon="7.21963">
        <ele>422.02484131</ele>
        <time>2021-06-17T08:06:37Z</time>
      </trkpt>
      <trkpt lat="47.98668" lon="7.21975">
        <ele>422.02484131</ele>
        <time>2021-06-17T08:06:40Z</time>
      </trkpt>
      <trkpt lat="47.98671" lon="7.21987">
        <ele>422.02484131</ele>
        <time>2021-06-17T08:06:45Z</time>
      </trkpt>
      <trkpt lat="47.98662" lon="7.22">
        <ele>422.02484131</ele>
        <time>2021-06-17T08:06:48Z</time>
      </trkpt>
      <trkpt lat="47.98655" lon="7.22009">
        <ele>422.02484131</ele>
        <time>2021-06-17T08:06:51Z</time>
      </trkpt>
      <trkpt lat="47.98645" lon="7.22011">
        <ele>422.02484131</ele>
        <time>2021-06-17T08:06:54Z</time>
      </trkpt>
      <trkpt lat="47.98634" lon="7.2201">
        <ele>422.02484131</ele>
        <time>2021-06-17T08:06:57Z</time>
      </trkpt>
      <trkpt lat="47.98621" lon="7.22008">
        <ele>422.02484131</ele>
        <time>2021-06-17T08:07:00Z</time>
      </trkpt>
      <trkpt lat="47.98608" lon="7.22007">
        <ele>421.32702637</ele>
        <time>2021-06-17T08:07:03Z</time>
      </trkpt>
      <trkpt lat="47.98595" lon="7.22003">
        <ele>421.32702637</ele>
        <time>2021-06-17T08:07:05Z</time>
      </trkpt>
      <trkpt lat="47.98586" lon="7.21995">
        <ele>421.32702637</ele>
        <time>2021-06-17T08:07:08Z</time>
      </trkpt>
      <trkpt lat="47.98576" lon="7.21984">
        <ele>420.10968018</ele>
        <time>2021-06-17T08:07:10Z</time>
      </trkpt>
      <trkpt lat="47.98566" lon="7.21974">
        <ele>420.10968018</ele>
        <time>2021-06-17T08:07:11Z</time>
      </trkpt>
      <trkpt lat="47.98557" lon="7.21967">
        <ele>420.10968018</ele>
        <time>2021-06-17T08:07:13Z</time>
      </trkpt>
      <trkpt lat="47.98548" lon="7.2196">
        <ele>419.01220703</ele>
        <time>2021-06-17T08:07:14Z</time>
      </trkpt>
      <trkpt lat="47.98539" lon="7.21955">
        <ele>419.01220703</ele>
        <time>2021-06-17T08:07:16Z</time>
      </trkpt>
      <trkpt lat="47.98526" lon="7.21952">
        <ele>417.97576904</ele>
        <time>2021-06-17T08:07:18Z</time>
      </trkpt>
      <trkpt lat="47.98512" lon="7.21954">
        <ele>417.97576904</ele>
        <time>2021-06-17T08:07:20Z</time>
      </trkpt>
      <trkpt lat="47.98497" lon="7.21957">
        <ele>416.85748291</ele>
        <time>2021-06-17T08:07:22Z</time>
      </trkpt>
      <trkpt lat="47.98481" lon="7.21963">
        <ele>416.85748291</ele>
        <time>2021-06-17T08:07:24Z</time>
      </trkpt>
      <trkpt lat="47.98465" lon="7.21969">
        <ele>415.77798462</ele>
        <time>2021-06-17T08:07:26Z</time>
      </trkpt>
      <trkpt lat="47.98449" lon="7.21977">
        <ele>415.77798462</ele>
        <time>2021-06-17T08:07:28Z</time>
      </trkpt>
      <trkpt lat="47.98436" lon="7.21983">
        <ele>414.48925781</ele>
        <time>2021-06-17T08:07:29Z</time>
      </trkpt>
      <trkpt lat="47.98425" lon="7.21992">
        <ele>414.48925781</ele>
        <time>2021-06-17T08:07:31Z</time>
      </trkpt>
      <trkpt lat="47.9841" lon="7.22007">
        <ele>413.18466187</ele>
        <time>2021-06-17T08:07:33Z</time>
      </trkpt>
      <trkpt lat="47.98398" lon="7.2202">
        <ele>411.980896</ele>
        <time>2021-06-17T08:07:34Z</time>
      </trkpt>
      <trkpt lat="47.9839" lon="7.22029">
        <ele>411.980896</ele>
        <time>2021-06-17T08:07:35Z</time>
      </trkpt>
      <trkpt lat="47.98381" lon="7.22039">
        <ele>410.86761475</ele>
        <time>2021-06-17T08:07:36Z</time>
      </trkpt>
      <trkpt lat="47.98373" lon="7.22048">
        <ele>410.86761475</ele>
        <time>2021-06-17T08:07:37Z</time>
      </trkpt>
      <trkpt lat="47.98364" lon="7.22055">
        <ele>409.48034668</ele>
        <time>2021-06-17T08:07:38Z</time>
      </trkpt>
      <trkpt lat="47.98355" lon="7.22064">
        <ele>409.48034668</ele>
        <time>2021-06-17T08:07:39Z</time>
      </trkpt>
      <trkpt lat="47.98346" lon="7.22073">
        <ele>408.21749878</ele>
        <time>2021-06-17T08:07:40Z</time>
      </trkpt>
      <trkpt lat="47.98336" lon="7.22082">
        <ele>408.21749878</ele>
        <time>2021-06-17T08:07:41Z</time>
      </trkpt>
      <trkpt lat="47.98328" lon="7.22092">
        <ele>407.10198975</ele>
        <time>2021-06-17T08:07:42Z</time>
      </trkpt>
      <trkpt lat="47.98318" lon="7.22102">
        <ele>407.10198975</ele>
        <time>2021-06-17T08:07:43Z</time>
      </trkpt>
      <trkpt lat="47.98308" lon="7.22108">
        <ele>405.99029541</ele>
        <time>2021-06-17T08:07:44Z</time>
      </trkpt>
      <trkpt lat="47.98298" lon="7.22116">
        <ele>405.99029541</ele>
        <time>2021-06-17T08:07:45Z</time>
      </trkpt>
      <trkpt lat="47.98288" lon="7.22123">
        <ele>405.99029541</ele>
        <time>2021-06-17T08:07:46Z</time>
      </trkpt>
      <trkpt lat="47.98278" lon="7.2213">
        <ele>404.83380127</ele>
        <time>2021-06-17T08:07:47Z</time>
      </trkpt>
      <trkpt lat="47.98268" lon="7.22138">
        <ele>404.83380127</ele>
        <time>2021-06-17T08:07:48Z</time>
      </trkpt>
      <trkpt lat="47.98258" lon="7.22148">
        <ele>403.60778809</ele>
        <time>2021-06-17T08:07:49Z</time>
      </trkpt>
      <trkpt lat="47.98248" lon="7.22158">
        <ele>403.60778809</ele>
        <time>2021-06-17T08:07:50Z</time>
      </trkpt>
      <trkpt lat="47.98238" lon="7.22168">
        <ele>403.60778809</ele>
        <time>2021-06-17T08:07:51Z</time>
      </trkpt>
      <trkpt lat="47.98227" lon="7.22179">
        <ele>402.3527832</ele>
        <time>2021-06-17T08:07:52Z</time>
      </trkpt>
      <trkpt lat="47.98217" lon="7.2219">
        <ele>402.3527832</ele>
        <time>2021-06-17T08:07:53Z</time>
      </trkpt>
      <trkpt lat="47.98206" lon="7.22202">
        <ele>400.95898438</ele>
        <time>2021-06-17T08:07:54Z</time>
      </trkpt>
      <trkpt lat="47.98196" lon="7.22213">
        <ele>400.95898438</ele>
        <time>2021-06-17T08:07:55Z</time>
      </trkpt>
      <trkpt lat="47.98185" lon="7.22225">
        <ele>400.95898438</ele>
        <time>2021-06-17T08:07:56Z</time>
      </trkpt>
      <trkpt lat="47.98185" lon="7.22239">
        <ele>399.90454102</ele>
        <time>2021-06-17T08:07:57Z</time>
      </trkpt>
      <trkpt lat="47.98177" lon="7.2225">
        <ele>399.90454102</ele>
        <time>2021-06-17T08:07:58Z</time>
      </trkpt>
      <trkpt lat="47.98168" lon="7.2226">
        <ele>398.54705811</ele>
        <time>2021-06-17T08:07:59Z</time>
      </trkpt>
      <trkpt lat="47.98158" lon="7.2227">
        <ele>398.54705811</ele>
        <time>2021-06-17T08:08:00Z</time>
      </trkpt>
      <trkpt lat="47.98147" lon="7.22279">
        <ele>397.14398193</ele>
        <time>2021-06-17T08:08:01Z</time>
      </trkpt>
      <trkpt lat="47.98137" lon="7.22287">
        <ele>397.14398193</ele>
        <time>2021-06-17T08:08:02Z</time>
      </trkpt>
      <trkpt lat="47.98127" lon="7.22294">
        <ele>395.84655762</ele>
        <time>2021-06-17T08:08:03Z</time>
      </trkpt>
      <trkpt lat="47.98117" lon="7.22301">
        <ele>395.84655762</ele>
        <time>2021-06-17T08:08:04Z</time>
      </trkpt>
      <trkpt lat="47.98106" lon="7.22308">
        <ele>394.49816895</ele>
        <time>2021-06-17T08:08:05Z</time>
      </trkpt>
      <trkpt lat="47.98097" lon="7.22317">
        <ele>394.49816895</ele>
        <time>2021-06-17T08:08:06Z</time>
      </trkpt>
      <trkpt lat="47.98086" lon="7.22327">
        <ele>393.06347656</ele>
        <time>2021-06-17T08:08:07Z</time>
      </trkpt>
      <trkpt lat="47.98076" lon="7.22336">
        <ele>393.06347656</ele>
        <time>2021-06-17T08:08:08Z</time>
      </trkpt>
      <trkpt lat="47.98066" lon="7.22347">
        <ele>391.58908081</ele>
        <time>2021-06-17T08:08:09Z</time>
      </trkpt>
      <trkpt lat="47.98056" lon="7.22359">
        <ele>391.58908081</ele>
        <time>2021-06-17T08:08:10Z</time>
      </trkpt>
      <trkpt lat="47.98046" lon="7.22371">
        <ele>390.07543945</ele>
        <time>2021-06-17T08:08:11Z</time>
      </trkpt>
      <trkpt lat="47.98035" lon="7.22383">
        <ele>390.07543945</ele>
        <time>2021-06-17T08:08:12Z</time>
      </trkpt>
      <trkpt lat="47.98026" lon="7.22398">
        <ele>388.49261475</ele>
        <time>2021-06-17T08:08:13Z</time>
      </trkpt>
      <trkpt lat="47.98016" lon="7.22412">
        <ele>387.25109863</ele>
        <time>2021-06-17T08:08:14Z</time>
      </trkpt>
      <trkpt lat="47.97981" lon="7.22653">
        <ele>377.06506348</ele>
        <time>2021-06-17T08:08:30Z</time>
      </trkpt>
      <trkpt lat="47.97982" lon="7.22667">
        <ele>377.06506348</ele>
        <time>2021-06-17T08:08:31Z</time>
      </trkpt>
      <trkpt lat="47.9798" lon="7.22686">
        <ele>375.78057861</ele>
        <time>2021-06-17T08:08:33Z</time>
      </trkpt>
      <trkpt lat="47.97962" lon="7.227">
        <ele>374.55651855</ele>
        <time>2021-06-17T08:08:34Z</time>
      </trkpt>
      <trkpt lat="47.97959" lon="7.22713">
        <ele>374.55651855</ele>
        <time>2021-06-17T08:08:35Z</time>
      </trkpt>
      <trkpt lat="47.97951" lon="7.22731">
        <ele>373.41989136</ele>
        <time>2021-06-17T08:08:37Z</time>
      </trkpt>
      <trkpt lat="47.97928" lon="7.22743">
        <ele>372.40951538</ele>
        <time>2021-06-17T08:08:38Z</time>
      </trkpt>
      <trkpt lat="47.979" lon="7.22746">
        <ele>372.40951538</ele>
        <time>2021-06-17T08:08:39Z</time>
      </trkpt>
      <trkpt lat="47.97888" lon="7.22754">
        <ele>371.25125122</ele>
        <time>2021-06-17T08:08:40Z</time>
      </trkpt>
      <trkpt lat="47.9788" lon="7.22763">
        <ele>371.25125122</ele>
        <time>2021-06-17T08:08:41Z</time>
      </trkpt>
      <trkpt lat="47.97873" lon="7.22771">
        <ele>371.25125122</ele>
        <time>2021-06-17T08:08:42Z</time>
      </trkpt>
      <trkpt lat="47.97866" lon="7.2278">
        <ele>370.05053711</ele>
        <time>2021-06-17T08:08:43Z</time>
      </trkpt>
      <trkpt lat="47.97855" lon="7.22791">
        <ele>370.05053711</ele>
        <time>2021-06-17T08:08:45Z</time>
      </trkpt>
      <trkpt lat="47.97845" lon="7.22807">
        <ele>368.94381714</ele>
        <time>2021-06-17T08:08:47Z</time>
      </trkpt>
      <trkpt lat="47.97836" lon="7.2282">
        <ele>368.94381714</ele>
        <time>2021-06-17T08:08:48Z</time>
      </trkpt>
      <trkpt lat="47.97825" lon="7.22828">
        <ele>368.94381714</ele>
        <time>2021-06-17T08:08:49Z</time>
      </trkpt>
      <trkpt lat="47.97813" lon="7.22835">
        <ele>367.70858765</ele>
        <time>2021-06-17T08:08:50Z</time>
      </trkpt>
      <trkpt lat="47.97804" lon="7.22848">
        <ele>367.70858765</ele>
        <time>2021-06-17T08:08:52Z</time>
      </trkpt>
      <trkpt lat="47.97789" lon="7.22864">
        <ele>366.43234253</ele>
        <time>2021-06-17T08:08:54Z</time>
      </trkpt>
      <trkpt lat="47.97775" lon="7.22874">
        <ele>366.43234253</ele>
        <time>2021-06-17T08:08:55Z</time>
      </trkpt>
      <trkpt lat="47.97765" lon="7.22881">
        <ele>365.1133728</ele>
        <time>2021-06-17T08:08:56Z</time>
      </trkpt>
      <trkpt lat="47.97755" lon="7.22888">
        <ele>365.1133728</ele>
        <time>2021-06-17T08:08:57Z</time>
      </trkpt>
      <trkpt lat="47.97747" lon="7.22893">
        <ele>365.1133728</ele>
        <time>2021-06-17T08:08:58Z</time>
      </trkpt>
      <trkpt lat="47.97736" lon="7.22896">
        <ele>363.80029297</ele>
        <time>2021-06-17T08:08:59Z</time>
      </trkpt>
      <trkpt lat="47.97727" lon="7.22897">
        <ele>363.80029297</ele>
        <time>2021-06-17T08:09:00Z</time>
      </trkpt>
      <trkpt lat="47.97717" lon="7.22902">
        <ele>363.80029297</ele>
        <time>2021-06-17T08:09:01Z</time>
      </trkpt>
      <trkpt lat="47.97707" lon="7.22907">
        <ele>362.48721313</ele>
        <time>2021-06-17T08:09:02Z</time>
      </trkpt>
      <trkpt lat="47.97697" lon="7.22913">
        <ele>362.48721313</ele>
        <time>2021-06-17T08:09:03Z</time>
      </trkpt>
      <trkpt lat="47.97688" lon="7.22919">
        <ele>362.48721313</ele>
        <time>2021-06-17T08:09:04Z</time>
      </trkpt>
      <trkpt lat="47.97678" lon="7.22926">
        <ele>361.18002319</ele>
        <time>2021-06-17T08:09:05Z</time>
      </trkpt>
      <trkpt lat="47.97668" lon="7.22934">
        <ele>361.18002319</ele>
        <time>2021-06-17T08:09:06Z</time>
      </trkpt>
      <trkpt lat="47.97659" lon="7.2294">
        <ele>361.18002319</ele>
        <time>2021-06-17T08:09:07Z</time>
      </trkpt>
      <trkpt lat="47.97648" lon="7.22947">
        <ele>359.96740723</ele>
        <time>2021-06-17T08:09:08Z</time>
      </trkpt>
      <trkpt lat="47.97638" lon="7.22954">
        <ele>359.96740723</ele>
        <time>2021-06-17T08:09:09Z</time>
      </trkpt>
      <trkpt lat="47.97628" lon="7.22961">
        <ele>359.96740723</ele>
        <time>2021-06-17T08:09:10Z</time>
      </trkpt>
      <trkpt lat="47.97617" lon="7.22968">
        <ele>358.72399902</ele>
        <time>2021-06-17T08:09:11Z</time>
      </trkpt>
      <trkpt lat="47.97607" lon="7.22974">
        <ele>358.72399902</ele>
        <time>2021-06-17T08:09:12Z</time>
      </trkpt>
      <trkpt lat="47.97597" lon="7.2298">
        <ele>358.72399902</ele>
        <time>2021-06-17T08:09:13Z</time>
      </trkpt>
      <trkpt lat="47.97587" lon="7.22988">
        <ele>357.12081909</ele>
        <time>2021-06-17T08:09:14Z</time>
      </trkpt>
      <trkpt lat="47.97577" lon="7.22995">
        <ele>357.12081909</ele>
        <time>2021-06-17T08:09:15Z</time>
      </trkpt>
      <trkpt lat="47.97567" lon="7.23004">
        <ele>357.12081909</ele>
        <time>2021-06-17T08:09:16Z</time>
      </trkpt>
      <trkpt lat="47.97558" lon="7.23014">
        <ele>357.12081909</ele>
        <time>2021-06-17T08:09:17Z</time>
      </trkpt>
      <trkpt lat="47.97549" lon="7.23024">
        <ele>356.30224609</ele>
        <time>2021-06-17T08:09:18Z</time>
      </trkpt>
      <trkpt lat="47.97541" lon="7.23034">
        <ele>356.30224609</ele>
        <time>2021-06-17T08:09:19Z</time>
      </trkpt>
      <trkpt lat="47.97533" lon="7.23048">
        <ele>356.30224609</ele>
        <time>2021-06-17T08:09:20Z</time>
      </trkpt>
      <trkpt lat="47.97525" lon="7.23059">
        <ele>356.30224609</ele>
        <time>2021-06-17T08:09:21Z</time>
      </trkpt>
      <trkpt lat="47.97517" lon="7.2307">
        <ele>355.11233521</ele>
        <time>2021-06-17T08:09:22Z</time>
      </trkpt>
      <trkpt lat="47.97509" lon="7.23083">
        <ele>355.11233521</ele>
        <time>2021-06-17T08:09:23Z</time>
      </trkpt>
      <trkpt lat="47.97502" lon="7.23096">
        <ele>355.11233521</ele>
        <time>2021-06-17T08:09:24Z</time>
      </trkpt>
      <trkpt lat="47.97495" lon="7.23108">
        <ele>353.92681885</ele>
        <time>2021-06-17T08:09:25Z</time>
      </trkpt>
      <trkpt lat="47.97487" lon="7.23119">
        <ele>353.92681885</ele>
        <time>2021-06-17T08:09:26Z</time>
      </trkpt>
      <trkpt lat="47.97478" lon="7.23129">
        <ele>353.92681885</ele>
        <time>2021-06-17T08:09:27Z</time>
      </trkpt>
      <trkpt lat="47.97468" lon="7.23138">
        <ele>352.74450684</ele>
        <time>2021-06-17T08:09:28Z</time>
      </trkpt>
      <trkpt lat="47.97461" lon="7.2315">
        <ele>352.74450684</ele>
        <time>2021-06-17T08:09:29Z</time>
      </trkpt>
      <trkpt lat="47.97452" lon="7.23161">
        <ele>352.74450684</ele>
        <time>2021-06-17T08:09:30Z</time>
      </trkpt>
      <trkpt lat="47.97445" lon="7.23171">
        <ele>351.39556885</ele>
        <time>2021-06-17T08:09:31Z</time>
      </trkpt>
      <trkpt lat="47.97435" lon="7.23179">
        <ele>351.39556885</ele>
        <time>2021-06-17T08:09:32Z</time>
      </trkpt>
      <trkpt lat="47.97422" lon="7.23192">
        <ele>351.39556885</ele>
        <time>2021-06-17T08:09:33Z</time>
      </trkpt>
      <trkpt lat="47.97409" lon="7.23199">
        <ele>350.20227051</ele>
        <time>2021-06-17T08:09:34Z</time>
      </trkpt>
      <trkpt lat="47.97398" lon="7.23205">
        <ele>350.20227051</ele>
        <time>2021-06-17T08:09:35Z</time>
      </trkpt>
      <trkpt lat="47.97387" lon="7.2321">
        <ele>350.20227051</ele>
        <time>2021-06-17T08:09:36Z</time>
      </trkpt>
      <trkpt lat="47.97376" lon="7.23213">
        <ele>349.01745605</ele>
        <time>2021-06-17T08:09:37Z</time>
      </trkpt>
      <trkpt lat="47.97366" lon="7.23216">
        <ele>349.01745605</ele>
        <time>2021-06-17T08:09:38Z</time>
      </trkpt>
      <trkpt lat="47.97355" lon="7.23218">
        <ele>347.81344604</ele>
        <time>2021-06-17T08:09:39Z</time>
      </trkpt>
      <trkpt lat="47.97342" lon="7.23219">
        <ele>347.81344604</ele>
        <time>2021-06-17T08:09:40Z</time>
      </trkpt>
      <trkpt lat="47.97331" lon="7.23221">
        <ele>346.72314453</ele>
        <time>2021-06-17T08:09:41Z</time>
      </trkpt>
      <trkpt lat="47.97319" lon="7.23222">
        <ele>346.72314453</ele>
        <time>2021-06-17T08:09:42Z</time>
      </trkpt>
      <trkpt lat="47.97306" lon="7.2322">
        <ele>345.5524292</ele>
        <time>2021-06-17T08:09:43Z</time>
      </trkpt>
      <trkpt lat="47.97294" lon="7.23221">
        <ele>345.5524292</ele>
        <time>2021-06-17T08:09:44Z</time>
      </trkpt>
      <trkpt lat="47.9728" lon="7.23223">
        <ele>344.46679688</ele>
        <time>2021-06-17T08:09:45Z</time>
      </trkpt>
      <trkpt lat="47.97267" lon="7.23223">
        <ele>344.46679688</ele>
        <time>2021-06-17T08:09:46Z</time>
      </trkpt>
      <trkpt lat="47.97255" lon="7.23223">
        <ele>343.33609009</ele>
        <time>2021-06-17T08:09:47Z</time>
      </trkpt>
      <trkpt lat="47.97243" lon="7.23224">
        <ele>343.33609009</ele>
        <time>2021-06-17T08:09:48Z</time>
      </trkpt>
      <trkpt lat="47.97232" lon="7.23224">
        <ele>342.18652344</ele>
        <time>2021-06-17T08:09:49Z</time>
      </trkpt>
      <trkpt lat="47.97222" lon="7.23224">
        <ele>342.18652344</ele>
        <time>2021-06-17T08:09:50Z</time>
      </trkpt>
      <trkpt lat="47.97212" lon="7.23222">
        <ele>341.04931641</ele>
        <time>2021-06-17T08:09:51Z</time>
      </trkpt>
      <trkpt lat="47.97201" lon="7.23224">
        <ele>341.04931641</ele>
        <time>2021-06-17T08:09:53Z</time>
      </trkpt>
      <trkpt lat="47.97189" lon="7.23226">
        <ele>339.91833496</ele>
        <time>2021-06-17T08:09:55Z</time>
      </trkpt>
      <trkpt lat="47.97181" lon="7.23226">
        <ele>337.88961792</ele>
        <time>2021-06-17T08:10:17Z</time>
      </trkpt>
      <trkpt lat="47.9718" lon="7.2323">
        <ele>337.88961792</ele>
        <time>2021-06-17T08:10:23Z</time>
      </trkpt>
      <trkpt lat="47.97166" lon="7.23234">
        <ele>337.2428894</ele>
        <time>2021-06-17T08:10:27Z</time>
      </trkpt>
      <trkpt lat="47.97156" lon="7.23238">
        <ele>337.2428894</ele>
        <time>2021-06-17T08:10:31Z</time>
      </trkpt>
      <trkpt lat="47.97138" lon="7.23243">
        <ele>335.83822632</ele>
        <time>2021-06-17T08:10:33Z</time>
      </trkpt>
      <trkpt lat="47.97125" lon="7.23247">
        <ele>335.83822632</ele>
        <time>2021-06-17T08:10:35Z</time>
      </trkpt>
      <trkpt lat="47.97112" lon="7.2325">
        <ele>334.59216309</ele>
        <time>2021-06-17T08:10:37Z</time>
      </trkpt>
      <trkpt lat="47.97099" lon="7.23249">
        <ele>334.59216309</ele>
        <time>2021-06-17T08:10:39Z</time>
      </trkpt>
      <trkpt lat="47.97083" lon="7.23253">
        <ele>333.59350586</ele>
        <time>2021-06-17T08:10:41Z</time>
      </trkpt>
      <trkpt lat="47.97069" lon="7.23255">
        <ele>333.59350586</ele>
        <time>2021-06-17T08:10:42Z</time>
      </trkpt>
      <trkpt lat="47.9706" lon="7.23258">
        <ele>333.59350586</ele>
        <time>2021-06-17T08:10:43Z</time>
      </trkpt>
      <trkpt lat="47.97047" lon="7.23261">
        <ele>332.43725586</ele>
        <time>2021-06-17T08:10:45Z</time>
      </trkpt>
      <trkpt lat="47.9703" lon="7.23265">
        <ele>332.43725586</ele>
        <time>2021-06-17T08:10:47Z</time>
      </trkpt>
      <trkpt lat="47.97012" lon="7.23262">
        <ele>331.31872559</ele>
        <time>2021-06-17T08:10:49Z</time>
      </trkpt>
      <trkpt lat="47.96999" lon="7.23258">
        <ele>331.31872559</ele>
        <time>2021-06-17T08:10:50Z</time>
      </trkpt>
      <trkpt lat="47.96987" lon="7.23253">
        <ele>330.1491394</ele>
        <time>2021-06-17T08:10:52Z</time>
      </trkpt>
      <trkpt lat="47.96973" lon="7.23246">
        <ele>330.1491394</ele>
        <time>2021-06-17T08:10:53Z</time>
      </trkpt>
      <trkpt lat="47.96964" lon="7.23243">
        <ele>328.93685913</ele>
        <time>2021-06-17T08:10:54Z</time>
      </trkpt>
      <trkpt lat="47.96955" lon="7.23241">
        <ele>328.93685913</ele>
        <time>2021-06-17T08:10:55Z</time>
      </trkpt>
      <trkpt lat="47.96946" lon="7.23238">
        <ele>328.93685913</ele>
        <time>2021-06-17T08:10:56Z</time>
      </trkpt>
      <trkpt lat="47.96936" lon="7.23235">
        <ele>328.93685913</ele>
        <time>2021-06-17T08:10:57Z</time>
      </trkpt>
      <trkpt lat="47.96923" lon="7.23236">
        <ele>327.65478516</ele>
        <time>2021-06-17T08:10:59Z</time>
      </trkpt>
      <trkpt lat="47.96909" lon="7.23238">
        <ele>327.65478516</ele>
        <time>2021-06-17T08:11:00Z</time>
      </trkpt>
      <trkpt lat="47.96896" lon="7.2324">
        <ele>326.32919312</ele>
        <time>2021-06-17T08:11:02Z</time>
      </trkpt>
      <trkpt lat="47.96878" lon="7.23241">
        <ele>326.32919312</ele>
        <time>2021-06-17T08:11:04Z</time>
      </trkpt>
      <trkpt lat="47.96861" lon="7.2324">
        <ele>325.16809082</ele>
        <time>2021-06-17T08:11:06Z</time>
      </trkpt>
      <trkpt lat="47.96845" lon="7.23235">
        <ele>325.16809082</ele>
        <time>2021-06-17T08:11:08Z</time>
      </trkpt>
      <trkpt lat="47.96828" lon="7.23227">
        <ele>324.03765869</ele>
        <time>2021-06-17T08:11:10Z</time>
      </trkpt>
      <trkpt lat="47.96816" lon="7.2322">
        <ele>324.03765869</ele>
        <time>2021-06-17T08:11:12Z</time>
      </trkpt>
      <trkpt lat="47.96799" lon="7.23211">
        <ele>322.58276367</ele>
        <time>2021-06-17T08:11:14Z</time>
      </trkpt>
      <trkpt lat="47.96793" lon="7.23208">
        <ele>322.58276367</ele>
        <time>2021-06-17T08:11:17Z</time>
      </trkpt>
      <trkpt lat="47.96777" lon="7.23201">
        <ele>321.97821045</ele>
        <time>2021-06-17T08:11:20Z</time>
      </trkpt>
      <trkpt lat="47.96762" lon="7.23193">
        <ele>321.97821045</ele>
        <time>2021-06-17T08:11:22Z</time>
      </trkpt>
      <trkpt lat="47.96751" lon="7.23184">
        <ele>320.8894043</ele>
        <time>2021-06-17T08:11:24Z</time>
      </trkpt>
      <trkpt lat="47.96742" lon="7.23176">
        <ele>319.6000061</ele>
        <time>2021-06-17T08:11:27Z</time>
      </trkpt>
      <trkpt lat="47.96732" lon="7.23168">
        <ele>319.6000061</ele>
        <time>2021-06-17T08:11:30Z</time>
      </trkpt>
      <trkpt lat="47.96732" lon="7.2316">
        <ele>318.44580078</ele>
        <time>2021-06-17T08:12:02Z</time>
      </trkpt>
      <trkpt lat="47.96734" lon="7.23143">
        <ele>318.44580078</ele>
        <time>2021-06-17T08:12:07Z</time>
      </trkpt>
      <trkpt lat="47.96739" lon="7.2313">
        <ele>318.44580078</ele>
        <time>2021-06-17T08:12:10Z</time>
      </trkpt>
      <trkpt lat="47.96744" lon="7.23117">
        <ele>318.44580078</ele>
        <time>2021-06-17T08:12:13Z</time>
      </trkpt>
      <trkpt lat="47.96748" lon="7.23109">
        <ele>317.86090088</ele>
        <time>2021-06-17T08:12:14Z</time>
      </trkpt>
      <trkpt lat="47.96752" lon="7.23099">
        <ele>317.86090088</ele>
        <time>2021-06-17T08:12:17Z</time>
      </trkpt>
      <trkpt lat="47.96755" lon="7.23084">
        <ele>317.86090088</ele>
        <time>2021-06-17T08:12:20Z</time>
      </trkpt>
      <trkpt lat="47.96761" lon="7.2307">
        <ele>317.86090088</ele>
        <time>2021-06-17T08:12:23Z</time>
      </trkpt>
      <trkpt lat="47.96767" lon="7.23056">
        <ele>317.86090088</ele>
        <time>2021-06-17T08:12:26Z</time>
      </trkpt>
      <trkpt lat="47.96775" lon="7.23042">
        <ele>317.86090088</ele>
        <time>2021-06-17T08:12:29Z</time>
      </trkpt>
      <trkpt lat="47.96783" lon="7.23029">
        <ele>317.86090088</ele>
        <time>2021-06-17T08:12:32Z</time>
      </trkpt>
      <trkpt lat="47.96791" lon="7.23015">
        <ele>317.86090088</ele>
        <time>2021-06-17T08:12:35Z</time>
      </trkpt>
      <trkpt lat="47.96799" lon="7.22999">
        <ele>317.86090088</ele>
        <time>2021-06-17T08:12:38Z</time>
      </trkpt>
      <trkpt lat="47.96805" lon="7.22983">
        <ele>318.15182495</ele>
        <time>2021-06-17T08:12:41Z</time>
      </trkpt>
      <trkpt lat="47.96812" lon="7.22967">
        <ele>318.15182495</ele>
        <time>2021-06-17T08:12:44Z</time>
      </trkpt>
      <trkpt lat="47.96816" lon="7.2295">
        <ele>318.15182495</ele>
        <time>2021-06-17T08:12:47Z</time>
      </trkpt>
      <trkpt lat="47.96822" lon="7.22933">
        <ele>318.15182495</ele>
        <time>2021-06-17T08:12:50Z</time>
      </trkpt>
      <trkpt lat="47.9683" lon="7.22918">
        <ele>318.15182495</ele>
        <time>2021-06-17T08:12:53Z</time>
      </trkpt>
      <trkpt lat="47.96838" lon="7.22903">
        <ele>318.15182495</ele>
        <time>2021-06-17T08:12:56Z</time>
      </trkpt>
      <trkpt lat="47.96846" lon="7.22888">
        <ele>319.27371216</ele>
        <time>2021-06-17T08:12:59Z</time>
      </trkpt>
      <trkpt lat="47.96853" lon="7.22876">
        <ele>319.27371216</ele>
        <time>2021-06-17T08:13:01Z</time>
      </trkpt>
      <trkpt lat="47.96858" lon="7.22864">
        <ele>319.27371216</ele>
        <time>2021-06-17T08:13:03Z</time>
      </trkpt>
      <trkpt lat="47.96863" lon="7.22851">
        <ele>320.34207153</ele>
        <time>2021-06-17T08:13:06Z</time>
      </trkpt>
      <trkpt lat="47.96869" lon="7.22836">
        <ele>320.34207153</ele>
        <time>2021-06-17T08:13:09Z</time>
      </trkpt>
      <trkpt lat="47.96875" lon="7.22823">
        <ele>320.34207153</ele>
        <time>2021-06-17T08:13:12Z</time>
      </trkpt>
      <trkpt lat="47.96879" lon="7.22812">
        <ele>321.4130249</ele>
        <time>2021-06-17T08:13:14Z</time>
      </trkpt>
      <trkpt lat="47.96882" lon="7.22798">
        <ele>321.4130249</ele>
        <time>2021-06-17T08:13:17Z</time>
      </trkpt>
      <trkpt lat="47.96885" lon="7.22782">
        <ele>321.4130249</ele>
        <time>2021-06-17T08:13:20Z</time>
      </trkpt>
      <trkpt lat="47.96891" lon="7.22766">
        <ele>322.39025879</ele>
        <time>2021-06-17T08:13:23Z</time>
      </trkpt>
      <trkpt lat="47.96895" lon="7.22752">
        <ele>322.39025879</ele>
        <time>2021-06-17T08:13:26Z</time>
      </trkpt>
      <trkpt lat="47.96896" lon="7.22735">
        <ele>322.39025879</ele>
        <time>2021-06-17T08:13:28Z</time>
      </trkpt>
      <trkpt lat="47.96899" lon="7.22721">
        <ele>323.39303589</ele>
        <time>2021-06-17T08:13:31Z</time>
      </trkpt>
      <trkpt lat="47.96904" lon="7.22707">
        <ele>323.39303589</ele>
        <time>2021-06-17T08:13:34Z</time>
      </trkpt>
      <trkpt lat="47.96907" lon="7.22691">
        <ele>323.39303589</ele>
        <time>2021-06-17T08:13:37Z</time>
      </trkpt>
      <trkpt lat="47.96911" lon="7.22675">
        <ele>324.56671143</ele>
        <time>2021-06-17T08:13:40Z</time>
      </trkpt>
      <trkpt lat="47.96915" lon="7.22661">
        <ele>324.56671143</ele>
        <time>2021-06-17T08:13:43Z</time>
      </trkpt>
      <trkpt lat="47.96919" lon="7.22646">
        <ele>324.56671143</ele>
        <time>2021-06-17T08:13:46Z</time>
      </trkpt>
      <trkpt lat="47.96922" lon="7.22632">
        <ele>325.67211914</ele>
        <time>2021-06-17T08:13:49Z</time>
      </trkpt>
      <trkpt lat="47.96926" lon="7.22617">
        <ele>325.67211914</ele>
        <time>2021-06-17T08:13:52Z</time>
      </trkpt>
      <trkpt lat="47.9693" lon="7.22601">
        <ele>325.67211914</ele>
        <time>2021-06-17T08:13:55Z</time>
      </trkpt>
      <trkpt lat="47.96934" lon="7.22584">
        <ele>326.73687744</ele>
        <time>2021-06-17T08:13:58Z</time>
      </trkpt>
      <trkpt lat="47.96936" lon="7.22569">
        <ele>326.73687744</ele>
        <time>2021-06-17T08:14:01Z</time>
      </trkpt>
      <trkpt lat="47.96938" lon="7.22553">
        <ele>327.86645508</ele>
        <time>2021-06-17T08:14:04Z</time>
      </trkpt>
      <trkpt lat="47.96938" lon="7.22537">
        <ele>327.86645508</ele>
        <time>2021-06-17T08:14:07Z</time>
      </trkpt>
      <trkpt lat="47.96938" lon="7.22522">
        <ele>327.86645508</ele>
        <time>2021-06-17T08:14:10Z</time>
      </trkpt>
      <trkpt lat="47.96936" lon="7.22503">
        <ele>328.95236206</ele>
        <time>2021-06-17T08:14:13Z</time>
      </trkpt>
      <trkpt lat="47.96936" lon="7.22491">
        <ele>329.55932617</ele>
        <time>2021-06-17T08:14:14Z</time>
      </trkpt>
      <trkpt lat="47.96936" lon="7.2248">
        <ele>329.55932617</ele>
        <time>2021-06-17T08:14:17Z</time>
      </trkpt>
      <trkpt lat="47.96938" lon="7.22462">
        <ele>329.55932617</ele>
        <time>2021-06-17T08:14:20Z</time>
      </trkpt>
      <trkpt lat="47.96938" lon="7.22445">
        <ele>330.17370605</ele>
        <time>2021-06-17T08:14:23Z</time>
      </trkpt>
      <trkpt lat="47.96936" lon="7.22429">
        <ele>330.17370605</ele>
        <time>2021-06-17T08:14:26Z</time>
      </trkpt>
      <trkpt lat="47.96936" lon="7.22413">
        <ele>330.17370605</ele>
        <time>2021-06-17T08:14:29Z</time>
      </trkpt>
      <trkpt lat="47.96935" lon="7.22395">
        <ele>331.31063843</ele>
        <time>2021-06-17T08:14:32Z</time>
      </trkpt>
      <trkpt lat="47.96935" lon="7.22379">
        <ele>331.31063843</ele>
        <time>2021-06-17T08:14:35Z</time>
      </trkpt>
      <trkpt lat="47.96935" lon="7.22363">
        <ele>332.45230103</ele>
        <time>2021-06-17T08:14:38Z</time>
      </trkpt>
      <trkpt lat="47.96935" lon="7.22347">
        <ele>332.45230103</ele>
        <time>2021-06-17T08:14:41Z</time>
      </trkpt>
      <trkpt lat="47.96935" lon="7.2233">
        <ele>332.45230103</ele>
        <time>2021-06-17T08:14:43Z</time>
      </trkpt>
      <trkpt lat="47.96933" lon="7.22314">
        <ele>333.55117798</ele>
        <time>2021-06-17T08:14:46Z</time>
      </trkpt>
      <trkpt lat="47.96933" lon="7.22296">
        <ele>333.55117798</ele>
        <time>2021-06-17T08:14:49Z</time>
      </trkpt>
      <trkpt lat="47.96932" lon="7.2228">
        <ele>333.55117798</ele>
        <time>2021-06-17T08:14:52Z</time>
      </trkpt>
      <trkpt lat="47.9693" lon="7.22267">
        <ele>334.66921997</ele>
        <time>2021-06-17T08:14:55Z</time>
      </trkpt>
      <trkpt lat="47.96929" lon="7.22251">
        <ele>334.66921997</ele>
        <time>2021-06-17T08:14:58Z</time>
      </trkpt>
      <trkpt lat="47.96927" lon="7.22236">
        <ele>334.66921997</ele>
        <time>2021-06-17T08:15:01Z</time>
      </trkpt>
      <trkpt lat="47.96925" lon="7.22221">
        <ele>335.68878174</ele>
        <time>2021-06-17T08:15:04Z</time>
      </trkpt>
      <trkpt lat="47.96926" lon="7.22206">
        <ele>335.68878174</ele>
        <time>2021-06-17T08:15:07Z</time>
      </trkpt>
      <trkpt lat="47.96927" lon="7.2219">
        <ele>335.68878174</ele>
        <time>2021-06-17T08:15:10Z</time>
      </trkpt>
      <trkpt lat="47.96925" lon="7.22172">
        <ele>336.80599976</ele>
        <time>2021-06-17T08:15:13Z</time>
      </trkpt>
      <trkpt lat="47.96923" lon="7.2216">
        <ele>337.42358398</ele>
        <time>2021-06-17T08:15:14Z</time>
      </trkpt>
      <trkpt lat="47.96922" lon="7.2215">
        <ele>337.42358398</ele>
        <time>2021-06-17T08:15:17Z</time>
      </trkpt>
      <trkpt lat="47.96922" lon="7.22135">
        <ele>337.42358398</ele>
        <time>2021-06-17T08:15:21Z</time>
      </trkpt>
      <trkpt lat="47.96924" lon="7.22118">
        <ele>337.42358398</ele>
        <time>2021-06-17T08:15:24Z</time>
      </trkpt>
      <trkpt lat="47.96923" lon="7.22102">
        <ele>337.42358398</ele>
        <time>2021-06-17T08:15:27Z</time>
      </trkpt>
      <trkpt lat="47.96922" lon="7.22087">
        <ele>337.42358398</ele>
        <time>2021-06-17T08:15:30Z</time>
      </trkpt>
      <trkpt lat="47.96921" lon="7.22073">
        <ele>339.15139771</ele>
        <time>2021-06-17T08:15:33Z</time>
      </trkpt>
      <trkpt lat="47.9692" lon="7.22057">
        <ele>339.15139771</ele>
        <time>2021-06-17T08:15:36Z</time>
      </trkpt>
      <trkpt lat="47.9692" lon="7.22042">
        <ele>339.15139771</ele>
        <time>2021-06-17T08:15:39Z</time>
      </trkpt>
      <trkpt lat="47.9692" lon="7.22025">
        <ele>340.20507812</ele>
        <time>2021-06-17T08:15:42Z</time>
      </trkpt>
      <trkpt lat="47.9692" lon="7.22006">
        <ele>340.20507812</ele>
        <time>2021-06-17T08:15:45Z</time>
      </trkpt>
      <trkpt lat="47.9692" lon="7.21991">
        <ele>340.20507812</ele>
        <time>2021-06-17T08:15:48Z</time>
      </trkpt>
      <trkpt lat="47.96921" lon="7.21974">
        <ele>341.18917847</ele>
        <time>2021-06-17T08:15:51Z</time>
      </trkpt>
      <trkpt lat="47.96922" lon="7.21958">
        <ele>341.18917847</ele>
        <time>2021-06-17T08:15:54Z</time>
      </trkpt>
      <trkpt lat="47.96924" lon="7.21943">
        <ele>341.18917847</ele>
        <time>2021-06-17T08:15:57Z</time>
      </trkpt>
      <trkpt lat="47.96925" lon="7.21927">
        <ele>342.32937622</ele>
        <time>2021-06-17T08:16:00Z</time>
      </trkpt>
      <trkpt lat="47.96926" lon="7.21911">
        <ele>342.32937622</ele>
        <time>2021-06-17T08:16:03Z</time>
      </trkpt>
      <trkpt lat="47.96926" lon="7.21895">
        <ele>342.32937622</ele>
        <time>2021-06-17T08:16:06Z</time>
      </trkpt>
      <trkpt lat="47.96927" lon="7.21878">
        <ele>343.35089111</ele>
        <time>2021-06-17T08:16:09Z</time>
      </trkpt>
      <trkpt lat="47.96926" lon="7.2186">
        <ele>343.35089111</ele>
        <time>2021-06-17T08:16:12Z</time>
      </trkpt>
      <trkpt lat="47.96925" lon="7.21841">
        <ele>344.12783813</ele>
        <time>2021-06-17T08:16:14Z</time>
      </trkpt>
      <trkpt lat="47.96927" lon="7.21829">
        <ele>344.12783813</ele>
        <time>2021-06-17T08:16:17Z</time>
      </trkpt>
      <trkpt lat="47.96925" lon="7.21814">
        <ele>344.12783813</ele>
        <time>2021-06-17T08:16:19Z</time>
      </trkpt>
      <trkpt lat="47.96925" lon="7.21798">
        <ele>344.12783813</ele>
        <time>2021-06-17T08:16:22Z</time>
      </trkpt>
      <trkpt lat="47.96925" lon="7.21779">
        <ele>344.12783813</ele>
        <time>2021-06-17T08:16:25Z</time>
      </trkpt>
      <trkpt lat="47.96925" lon="7.21763">
        <ele>344.12783813</ele>
        <time>2021-06-17T08:16:28Z</time>
      </trkpt>
      <trkpt lat="47.9692" lon="7.21748">
        <ele>344.64547729</ele>
        <time>2021-06-17T08:16:31Z</time>
      </trkpt>
      <trkpt lat="47.96914" lon="7.21731">
        <ele>344.64547729</ele>
        <time>2021-06-17T08:16:34Z</time>
      </trkpt>
      <trkpt lat="47.96914" lon="7.21718">
        <ele>344.64547729</ele>
        <time>2021-06-17T08:16:37Z</time>
      </trkpt>
      <trkpt lat="47.96911" lon="7.21703">
        <ele>344.64547729</ele>
        <time>2021-06-17T08:16:40Z</time>
      </trkpt>
      <trkpt lat="47.96909" lon="7.21685">
        <ele>345.89349365</ele>
        <time>2021-06-17T08:16:43Z</time>
      </trkpt>
      <trkpt lat="47.96907" lon="7.21668">
        <ele>345.89349365</ele>
        <time>2021-06-17T08:16:46Z</time>
      </trkpt>
      <trkpt lat="47.96906" lon="7.21653">
        <ele>347.05993652</ele>
        <time>2021-06-17T08:16:49Z</time>
      </trkpt>
      <trkpt lat="47.96906" lon="7.21638">
        <ele>347.05993652</ele>
        <time>2021-06-17T08:16:52Z</time>
      </trkpt>
      <trkpt lat="47.96909" lon="7.21624">
        <ele>347.05993652</ele>
        <time>2021-06-17T08:16:55Z</time>
      </trkpt>
      <trkpt lat="47.96912" lon="7.21609">
        <ele>348.18148804</ele>
        <time>2021-06-17T08:16:58Z</time>
      </trkpt>
      <trkpt lat="47.96917" lon="7.21592">
        <ele>348.18148804</ele>
        <time>2021-06-17T08:17:01Z</time>
      </trkpt>
      <trkpt lat="47.96919" lon="7.21573">
        <ele>348.18148804</ele>
        <time>2021-06-17T08:17:04Z</time>
      </trkpt>
      <trkpt lat="47.9692" lon="7.21555">
        <ele>348.18148804</ele>
        <time>2021-06-17T08:17:07Z</time>
      </trkpt>
      <trkpt lat="47.96922" lon="7.2154">
        <ele>348.18148804</ele>
        <time>2021-06-17T08:17:10Z</time>
      </trkpt>
      <trkpt lat="47.96925" lon="7.21525">
        <ele>348.18148804</ele>
        <time>2021-06-17T08:17:13Z</time>
      </trkpt>
      <trkpt lat="47.96927" lon="7.21517">
        <ele>349.00314331</ele>
        <time>2021-06-17T08:17:14Z</time>
      </trkpt>
      <trkpt lat="47.96928" lon="7.21507">
        <ele>349.00314331</ele>
        <time>2021-06-17T08:17:18Z</time>
      </trkpt>
      <trkpt lat="47.96925" lon="7.21491">
        <ele>349.00314331</ele>
        <time>2021-06-17T08:17:21Z</time>
      </trkpt>
      <trkpt lat="47.96919" lon="7.21476">
        <ele>349.00314331</ele>
        <time>2021-06-17T08:17:25Z</time>
      </trkpt>
      <trkpt lat="47.96913" lon="7.21464">
        <ele>349.00314331</ele>
        <time>2021-06-17T08:17:48Z</time>
      </trkpt>
      <trkpt lat="47.96901" lon="7.21456">
        <ele>349.00314331</ele>
        <time>2021-06-17T08:17:50Z</time>
      </trkpt>
      <trkpt lat="47.96894" lon="7.21444">
        <ele>349.00314331</ele>
        <time>2021-06-17T08:17:54Z</time>
      </trkpt>
      <trkpt lat="47.9689" lon="7.2143">
        <ele>349.00314331</ele>
        <time>2021-06-17T08:17:57Z</time>
      </trkpt>
      <trkpt lat="47.9688" lon="7.21417">
        <ele>349.00314331</ele>
        <time>2021-06-17T08:17:59Z</time>
      </trkpt>
      <trkpt lat="47.96874" lon="7.21405">
        <ele>349.00314331</ele>
        <time>2021-06-17T08:18:02Z</time>
      </trkpt>
      <trkpt lat="47.96867" lon="7.21392">
        <ele>349.00314331</ele>
        <time>2021-06-17T08:18:05Z</time>
      </trkpt>
      <trkpt lat="47.9686" lon="7.21379">
        <ele>349.19107056</ele>
        <time>2021-06-17T08:18:08Z</time>
      </trkpt>
      <trkpt lat="47.96856" lon="7.21369">
        <ele>349.19107056</ele>
        <time>2021-06-17T08:18:11Z</time>
      </trkpt>
      <trkpt lat="47.96851" lon="7.21357">
        <ele>351.81884766</ele>
        <time>2021-06-17T08:18:14Z</time>
      </trkpt>
      <trkpt lat="47.96847" lon="7.21347">
        <ele>351.81884766</ele>
        <time>2021-06-17T08:18:17Z</time>
      </trkpt>
      <trkpt lat="47.96845" lon="7.21334">
        <ele>352.53344727</ele>
        <time>2021-06-17T08:18:22Z</time>
      </trkpt>
      <trkpt lat="47.96845" lon="7.21322">
        <ele>353.5871582</ele>
        <time>2021-06-17T08:18:27Z</time>
      </trkpt>
      <trkpt lat="47.96835" lon="7.21311">
        <ele>354.71011353</ele>
        <time>2021-06-17T08:18:31Z</time>
      </trkpt>
      <trkpt lat="47.96828" lon="7.213">
        <ele>355.75924683</ele>
        <time>2021-06-17T08:18:35Z</time>
      </trkpt>
      <trkpt lat="47.9682" lon="7.21289">
        <ele>355.75924683</ele>
        <time>2021-06-17T08:18:38Z</time>
      </trkpt>
      <trkpt lat="47.96816" lon="7.21276">
        <ele>355.75924683</ele>
        <time>2021-06-17T08:18:42Z</time>
      </trkpt>
      <trkpt lat="47.96807" lon="7.21263">
        <ele>356.78671265</ele>
        <time>2021-06-17T08:18:46Z</time>
      </trkpt>
      <trkpt lat="47.96801" lon="7.21252">
        <ele>356.78671265</ele>
        <time>2021-06-17T08:18:50Z</time>
      </trkpt>
      <trkpt lat="47.96793" lon="7.21238">
        <ele>357.87844849</ele>
        <time>2021-06-17T08:18:53Z</time>
      </trkpt>
      <trkpt lat="47.96788" lon="7.21225">
        <ele>357.87844849</ele>
        <time>2021-06-17T08:18:59Z</time>
      </trkpt>
      <trkpt lat="47.96782" lon="7.21211">
        <ele>358.89678955</ele>
        <time>2021-06-17T08:19:03Z</time>
      </trkpt>
      <trkpt lat="47.96777" lon="7.21198">
        <ele>360.00799561</ele>
        <time>2021-06-17T08:19:07Z</time>
      </trkpt>
      <trkpt lat="47.96771" lon="7.21187">
        <ele>360.00799561</ele>
        <time>2021-06-17T08:19:11Z</time>
      </trkpt>
      <trkpt lat="47.96758" lon="7.21178">
        <ele>360.00799561</ele>
        <time>2021-06-17T08:19:13Z</time>
      </trkpt>
      <trkpt lat="47.9675" lon="7.21174">
        <ele>361.49221802</ele>
        <time>2021-06-17T08:19:14Z</time>
      </trkpt>
      <trkpt lat="47.96743" lon="7.21168">
        <ele>361.49221802</ele>
        <time>2021-06-17T08:19:17Z</time>
      </trkpt>
      <trkpt lat="47.96734" lon="7.2116">
        <ele>361.49221802</ele>
        <time>2021-06-17T08:19:20Z</time>
      </trkpt>
      <trkpt lat="47.96719" lon="7.21141">
        <ele>361.49221802</ele>
        <time>2021-06-17T08:19:27Z</time>
      </trkpt>
      <trkpt lat="47.96713" lon="7.21133">
        <ele>363.04489136</ele>
        <time>2021-06-17T08:19:33Z</time>
      </trkpt>
      <trkpt lat="47.96707" lon="7.21123">
        <ele>364.27770996</ele>
        <time>2021-06-17T08:19:38Z</time>
      </trkpt>
      <trkpt lat="47.96698" lon="7.21113">
        <ele>365.3508606</ele>
        <time>2021-06-17T08:19:41Z</time>
      </trkpt>
      <trkpt lat="47.96686" lon="7.21104">
        <ele>365.3508606</ele>
        <time>2021-06-17T08:19:46Z</time>
      </trkpt>
      <trkpt lat="47.96677" lon="7.21095">
        <ele>366.46292114</ele>
        <time>2021-06-17T08:19:50Z</time>
      </trkpt>
      <trkpt lat="47.96667" lon="7.2109">
        <ele>367.46783447</ele>
        <time>2021-06-17T08:19:54Z</time>
      </trkpt>
      <trkpt lat="47.96656" lon="7.21086">
        <ele>367.46783447</ele>
        <time>2021-06-17T08:19:58Z</time>
      </trkpt>
      <trkpt lat="47.96645" lon="7.21085">
        <ele>367.46783447</ele>
        <time>2021-06-17T08:20:01Z</time>
      </trkpt>
      <trkpt lat="47.96635" lon="7.21089">
        <ele>368.64801025</ele>
        <time>2021-06-17T08:20:05Z</time>
      </trkpt>
      <trkpt lat="47.96624" lon="7.21091">
        <ele>368.64801025</ele>
        <time>2021-06-17T08:20:09Z</time>
      </trkpt>
      <trkpt lat="47.96613" lon="7.2109">
        <ele>369.581604</ele>
        <time>2021-06-17T08:20:13Z</time>
      </trkpt>
      <trkpt lat="47.96606" lon="7.2109">
        <ele>370.52026367</ele>
        <time>2021-06-17T08:20:14Z</time>
      </trkpt>
      <trkpt lat="47.96599" lon="7.21089">
        <ele>370.52026367</ele>
        <time>2021-06-17T08:20:18Z</time>
      </trkpt>
      <trkpt lat="47.9659" lon="7.21096">
        <ele>371.44628906</ele>
        <time>2021-06-17T08:20:22Z</time>
      </trkpt>
      <trkpt lat="47.9658" lon="7.21104">
        <ele>371.44628906</ele>
        <time>2021-06-17T08:20:25Z</time>
      </trkpt>
      <trkpt lat="47.96571" lon="7.21111">
        <ele>371.44628906</ele>
        <time>2021-06-17T08:20:28Z</time>
      </trkpt>
      <trkpt lat="47.96562" lon="7.21115">
        <ele>372.52249146</ele>
        <time>2021-06-17T08:20:31Z</time>
      </trkpt>
      <trkpt lat="47.96552" lon="7.21118">
        <ele>372.52249146</ele>
        <time>2021-06-17T08:20:34Z</time>
      </trkpt>
      <trkpt lat="47.96542" lon="7.21118">
        <ele>373.65353394</ele>
        <time>2021-06-17T08:20:38Z</time>
      </trkpt>
      <trkpt lat="47.96532" lon="7.21121">
        <ele>373.65353394</ele>
        <time>2021-06-17T08:20:42Z</time>
      </trkpt>
      <trkpt lat="47.96521" lon="7.21124">
        <ele>374.6340332</ele>
        <time>2021-06-17T08:20:45Z</time>
      </trkpt>
      <trkpt lat="47.96512" lon="7.21125">
        <ele>374.6340332</ele>
        <time>2021-06-17T08:20:49Z</time>
      </trkpt>
      <trkpt lat="47.96503" lon="7.21131">
        <ele>375.66598511</ele>
        <time>2021-06-17T08:20:54Z</time>
      </trkpt>
      <trkpt lat="47.96492" lon="7.21134">
        <ele>376.6729126</ele>
        <time>2021-06-17T08:20:58Z</time>
      </trkpt>
      <trkpt lat="47.96482" lon="7.21137">
        <ele>376.6729126</ele>
        <time>2021-06-17T08:21:02Z</time>
      </trkpt>
      <trkpt lat="47.96473" lon="7.21142">
        <ele>377.8074646</ele>
        <time>2021-06-17T08:21:06Z</time>
      </trkpt>
      <trkpt lat="47.96463" lon="7.21145">
        <ele>377.8074646</ele>
        <time>2021-06-17T08:21:10Z</time>
      </trkpt>
      <trkpt lat="47.96455" lon="7.21151">
        <ele>379.53192139</ele>
        <time>2021-06-17T08:21:14Z</time>
      </trkpt>
      <trkpt lat="47.96447" lon="7.21157">
        <ele>380.15081787</ele>
        <time>2021-06-17T08:21:21Z</time>
      </trkpt>
      <trkpt lat="47.96435" lon="7.21165">
        <ele>380.15081787</ele>
        <time>2021-06-17T08:21:24Z</time>
      </trkpt>
      <trkpt lat="47.96426" lon="7.21173">
        <ele>381.27105713</ele>
        <time>2021-06-17T08:21:28Z</time>
      </trkpt>
      <trkpt lat="47.96418" lon="7.21183">
        <ele>381.27105713</ele>
        <time>2021-06-17T08:21:33Z</time>
      </trkpt>
      <trkpt lat="47.96407" lon="7.21187">
        <ele>382.28189087</ele>
        <time>2021-06-17T08:21:37Z</time>
      </trkpt>
      <trkpt lat="47.96399" lon="7.21193">
        <ele>383.4432373</ele>
        <time>2021-06-17T08:21:43Z</time>
      </trkpt>
      <trkpt lat="47.96389" lon="7.21201">
        <ele>383.4432373</ele>
        <time>2021-06-17T08:21:46Z</time>
      </trkpt>
      <trkpt lat="47.96379" lon="7.2121">
        <ele>383.4432373</ele>
        <time>2021-06-17T08:21:50Z</time>
      </trkpt>
      <trkpt lat="47.9637" lon="7.2122">
        <ele>384.50238037</ele>
        <time>2021-06-17T08:21:54Z</time>
      </trkpt>
      <trkpt lat="47.9636" lon="7.21226">
        <ele>384.50238037</ele>
        <time>2021-06-17T08:21:58Z</time>
      </trkpt>
      <trkpt lat="47.96352" lon="7.21234">
        <ele>385.60238647</ele>
        <time>2021-06-17T08:22:02Z</time>
      </trkpt>
      <trkpt lat="47.96344" lon="7.21243">
        <ele>386.68029785</ele>
        <time>2021-06-17T08:22:06Z</time>
      </trkpt>
      <trkpt lat="47.96335" lon="7.21249">
        <ele>386.68029785</ele>
        <time>2021-06-17T08:22:10Z</time>
      </trkpt>
      <trkpt lat="47.96322" lon="7.21254">
        <ele>388.53436279</ele>
        <time>2021-06-17T08:22:14Z</time>
      </trkpt>
      <trkpt lat="47.96315" lon="7.21256">
        <ele>388.53436279</ele>
        <time>2021-06-17T08:22:19Z</time>
      </trkpt>
      <trkpt lat="47.96307" lon="7.2126">
        <ele>389.21502686</ele>
        <time>2021-06-17T08:22:24Z</time>
      </trkpt>
      <trkpt lat="47.96299" lon="7.21268">
        <ele>390.26889038</ele>
        <time>2021-06-17T08:22:29Z</time>
      </trkpt>
      <trkpt lat="47.96288" lon="7.21274">
        <ele>391.34991455</ele>
        <time>2021-06-17T08:22:33Z</time>
      </trkpt>
      <trkpt lat="47.9628" lon="7.21276">
        <ele>391.34991455</ele>
        <time>2021-06-17T08:22:38Z</time>
      </trkpt>
      <trkpt lat="47.96267" lon="7.2128">
        <ele>392.4418335</ele>
        <time>2021-06-17T08:22:42Z</time>
      </trkpt>
      <trkpt lat="47.96257" lon="7.21285">
        <ele>392.4418335</ele>
        <time>2021-06-17T08:22:45Z</time>
      </trkpt>
      <trkpt lat="47.96247" lon="7.21287">
        <ele>393.440979</ele>
        <time>2021-06-17T08:22:49Z</time>
      </trkpt>
      <trkpt lat="47.96238" lon="7.21291">
        <ele>394.63833618</ele>
        <time>2021-06-17T08:22:53Z</time>
      </trkpt>
      <trkpt lat="47.96228" lon="7.21292">
        <ele>394.63833618</ele>
        <time>2021-06-17T08:22:57Z</time>
      </trkpt>
      <trkpt lat="47.96217" lon="7.21289">
        <ele>395.66827393</ele>
        <time>2021-06-17T08:23:01Z</time>
      </trkpt>
      <trkpt lat="47.96208" lon="7.2129">
        <ele>396.72033691</ele>
        <time>2021-06-17T08:23:05Z</time>
      </trkpt>
      <trkpt lat="47.96198" lon="7.21291">
        <ele>396.72033691</ele>
        <time>2021-06-17T08:23:10Z</time>
      </trkpt>
      <trkpt lat="47.96183" lon="7.21292">
        <ele>398.38586426</ele>
        <time>2021-06-17T08:23:14Z</time>
      </trkpt>
      <trkpt lat="47.96178" lon="7.21292">
        <ele>398.38586426</ele>
        <time>2021-06-17T08:23:19Z</time>
      </trkpt>
      <trkpt lat="47.96169" lon="7.21292">
        <ele>398.99380493</ele>
        <time>2021-06-17T08:23:25Z</time>
      </trkpt>
      <trkpt lat="47.96158" lon="7.21294">
        <ele>398.99380493</ele>
        <time>2021-06-17T08:23:30Z</time>
      </trkpt>
      <trkpt lat="47.96146" lon="7.21295">
        <ele>400.08584595</ele>
        <time>2021-06-17T08:23:35Z</time>
      </trkpt>
      <trkpt lat="47.96135" lon="7.21299">
        <ele>401.27212524</ele>
        <time>2021-06-17T08:23:39Z</time>
      </trkpt>
      <trkpt lat="47.96124" lon="7.21303">
        <ele>401.27212524</ele>
        <time>2021-06-17T08:23:43Z</time>
      </trkpt>
      <trkpt lat="47.96114" lon="7.21307">
        <ele>402.3326416</ele>
        <time>2021-06-17T08:23:47Z</time>
      </trkpt>
      <trkpt lat="47.96108" lon="7.21317">
        <ele>402.3326416</ele>
        <time>2021-06-17T08:23:52Z</time>
      </trkpt>
      <trkpt lat="47.96099" lon="7.21326">
        <ele>403.35705566</ele>
        <time>2021-06-17T08:23:56Z</time>
      </trkpt>
      <trkpt lat="47.96092" lon="7.21338">
        <ele>403.35705566</ele>
        <time>2021-06-17T08:24:00Z</time>
      </trkpt>
      <trkpt lat="47.96085" lon="7.21346">
        <ele>404.33959961</ele>
        <time>2021-06-17T08:24:05Z</time>
      </trkpt>
      <trkpt lat="47.96076" lon="7.21351">
        <ele>404.33959961</ele>
        <time>2021-06-17T08:24:08Z</time>
      </trkpt>
      <trkpt lat="47.96067" lon="7.2136">
        <ele>405.42193604</ele>
        <time>2021-06-17T08:24:12Z</time>
      </trkpt>
      <trkpt lat="47.96062" lon="7.21368">
        <ele>406.38742065</ele>
        <time>2021-06-17T08:24:14Z</time>
      </trkpt>
      <trkpt lat="47.96056" lon="7.21375">
        <ele>406.38742065</ele>
        <time>2021-06-17T08:24:17Z</time>
      </trkpt>
      <trkpt lat="47.96048" lon="7.21383">
        <ele>406.38742065</ele>
        <time>2021-06-17T08:24:21Z</time>
      </trkpt>
      <trkpt lat="47.96042" lon="7.21394">
        <ele>406.38742065</ele>
        <time>2021-06-17T08:24:24Z</time>
      </trkpt>
      <trkpt lat="47.96035" lon="7.21406">
        <ele>407.29373169</ele>
        <time>2021-06-17T08:24:28Z</time>
      </trkpt>
      <trkpt lat="47.9603" lon="7.2142">
        <ele>407.29373169</ele>
        <time>2021-06-17T08:24:31Z</time>
      </trkpt>
      <trkpt lat="47.96023" lon="7.21433">
        <ele>407.29373169</ele>
        <time>2021-06-17T08:24:35Z</time>
      </trkpt>
      <trkpt lat="47.96016" lon="7.21444">
        <ele>408.25341797</ele>
        <time>2021-06-17T08:24:40Z</time>
      </trkpt>
      <trkpt lat="47.96009" lon="7.21457">
        <ele>408.25341797</ele>
        <time>2021-06-17T08:24:44Z</time>
      </trkpt>
      <trkpt lat="47.96001" lon="7.21469">
        <ele>408.25341797</ele>
        <time>2021-06-17T08:24:47Z</time>
      </trkpt>
      <trkpt lat="47.95994" lon="7.2148">
        <ele>409.2489624</ele>
        <time>2021-06-17T08:24:51Z</time>
      </trkpt>
      <trkpt lat="47.95988" lon="7.21493">
        <ele>409.2489624</ele>
        <time>2021-06-17T08:24:55Z</time>
      </trkpt>
      <trkpt lat="47.95981" lon="7.21507">
        <ele>410.32992554</ele>
        <time>2021-06-17T08:24:59Z</time>
      </trkpt>
      <trkpt lat="47.95972" lon="7.21517">
        <ele>410.32992554</ele>
        <time>2021-06-17T08:25:03Z</time>
      </trkpt>
      <trkpt lat="47.95965" lon="7.2153">
        <ele>411.43313599</ele>
        <time>2021-06-17T08:25:06Z</time>
      </trkpt>
      <trkpt lat="47.95959" lon="7.21545">
        <ele>411.43313599</ele>
        <time>2021-06-17T08:25:10Z</time>
      </trkpt>
      <trkpt lat="47.95952" lon="7.21558">
        <ele>411.43313599</ele>
        <time>2021-06-17T08:25:13Z</time>
      </trkpt>
      <trkpt lat="47.95949" lon="7.21567">
        <ele>412.23010254</ele>
        <time>2021-06-17T08:25:14Z</time>
      </trkpt>
      <trkpt lat="47.95944" lon="7.21578">
        <ele>412.23010254</ele>
        <time>2021-06-17T08:25:17Z</time>
      </trkpt>
      <trkpt lat="47.95938" lon="7.21592">
        <ele>412.23010254</ele>
        <time>2021-06-17T08:25:20Z</time>
      </trkpt>
      <trkpt lat="47.95931" lon="7.21605">
        <ele>412.23010254</ele>
        <time>2021-06-17T08:25:23Z</time>
      </trkpt>
      <trkpt lat="47.95924" lon="7.21616">
        <ele>413.10186768</ele>
        <time>2021-06-17T08:25:26Z</time>
      </trkpt>
      <trkpt lat="47.95921" lon="7.21629">
        <ele>413.10186768</ele>
        <time>2021-06-17T08:25:29Z</time>
      </trkpt>
      <trkpt lat="47.95916" lon="7.21643">
        <ele>414.34957886</ele>
        <time>2021-06-17T08:25:32Z</time>
      </trkpt>
      <trkpt lat="47.95911" lon="7.21656">
        <ele>414.34957886</ele>
        <time>2021-06-17T08:25:35Z</time>
      </trkpt>
      <trkpt lat="47.95906" lon="7.21669">
        <ele>414.34957886</ele>
        <time>2021-06-17T08:25:38Z</time>
      </trkpt>
      <trkpt lat="47.95898" lon="7.21681">
        <ele>415.53994751</ele>
        <time>2021-06-17T08:25:42Z</time>
      </trkpt>
      <trkpt lat="47.95892" lon="7.21694">
        <ele>416.48788452</ele>
        <time>2021-06-17T08:25:46Z</time>
      </trkpt>
      <trkpt lat="47.95888" lon="7.21709">
        <ele>416.48788452</ele>
        <time>2021-06-17T08:25:49Z</time>
      </trkpt>
      <trkpt lat="47.95884" lon="7.21723">
        <ele>416.48788452</ele>
        <time>2021-06-17T08:25:52Z</time>
      </trkpt>
      <trkpt lat="47.9588" lon="7.21736">
        <ele>417.58361816</ele>
        <time>2021-06-17T08:25:55Z</time>
      </trkpt>
      <trkpt lat="47.95878" lon="7.21751">
        <ele>417.58361816</ele>
        <time>2021-06-17T08:25:59Z</time>
      </trkpt>
      <trkpt lat="47.95872" lon="7.21764">
        <ele>417.58361816</ele>
        <time>2021-06-17T08:26:02Z</time>
      </trkpt>
      <trkpt lat="47.95866" lon="7.21774">
        <ele>418.74066162</ele>
        <time>2021-06-17T08:26:05Z</time>
      </trkpt>
      <trkpt lat="47.95855" lon="7.21799">
        <ele>419.74990845</ele>
        <time>2021-06-17T08:26:12Z</time>
      </trkpt>
      <trkpt lat="47.9585" lon="7.21809">
        <ele>420.50177002</ele>
        <time>2021-06-17T08:26:14Z</time>
      </trkpt>
      <trkpt lat="47.95845" lon="7.21819">
        <ele>420.50177002</ele>
        <time>2021-06-17T08:26:17Z</time>
      </trkpt>
      <trkpt lat="47.95839" lon="7.21831">
        <ele>420.50177002</ele>
        <time>2021-06-17T08:26:20Z</time>
      </trkpt>
      <trkpt lat="47.95832" lon="7.21842">
        <ele>421.26455688</ele>
        <time>2021-06-17T08:26:24Z</time>
      </trkpt>
      <trkpt lat="47.95824" lon="7.21854">
        <ele>421.26455688</ele>
        <time>2021-06-17T08:26:27Z</time>
      </trkpt>
      <trkpt lat="47.95817" lon="7.21864">
        <ele>421.26455688</ele>
        <time>2021-06-17T08:26:30Z</time>
      </trkpt>
      <trkpt lat="47.95806" lon="7.21869">
        <ele>421.26455688</ele>
        <time>2021-06-17T08:26:34Z</time>
      </trkpt>
      <trkpt lat="47.95796" lon="7.21868">
        <ele>422.23864746</ele>
        <time>2021-06-17T08:26:37Z</time>
      </trkpt>
      <trkpt lat="47.95786" lon="7.21865">
        <ele>422.23864746</ele>
        <time>2021-06-17T08:26:40Z</time>
      </trkpt>
      <trkpt lat="47.95777" lon="7.21858">
        <ele>422.23864746</ele>
        <time>2021-06-17T08:26:43Z</time>
      </trkpt>
      <trkpt lat="47.9577" lon="7.21846">
        <ele>422.23864746</ele>
        <time>2021-06-17T08:26:46Z</time>
      </trkpt>
      <trkpt lat="47.95764" lon="7.21834">
        <ele>423.33255005</ele>
        <time>2021-06-17T08:26:49Z</time>
      </trkpt>
      <trkpt lat="47.95758" lon="7.21821">
        <ele>423.33255005</ele>
        <time>2021-06-17T08:26:52Z</time>
      </trkpt>
      <trkpt lat="47.95749" lon="7.21806">
        <ele>423.33255005</ele>
        <time>2021-06-17T08:26:55Z</time>
      </trkpt>
      <trkpt lat="47.95741" lon="7.21792">
        <ele>423.33255005</ele>
        <time>2021-06-17T08:26:57Z</time>
      </trkpt>
      <trkpt lat="47.95736" lon="7.21779">
        <ele>423.33255005</ele>
        <time>2021-06-17T08:27:00Z</time>
      </trkpt>
      <trkpt lat="47.95729" lon="7.21764">
        <ele>423.33255005</ele>
        <time>2021-06-17T08:27:03Z</time>
      </trkpt>
      <trkpt lat="47.95722" lon="7.21752">
        <ele>424.35479736</ele>
        <time>2021-06-17T08:27:06Z</time>
      </trkpt>
      <trkpt lat="47.95716" lon="7.21737">
        <ele>424.35479736</ele>
        <time>2021-06-17T08:27:09Z</time>
      </trkpt>
      <trkpt lat="47.9571" lon="7.21725">
        <ele>424.35479736</ele>
        <time>2021-06-17T08:27:12Z</time>
      </trkpt>
      <trkpt lat="47.95705" lon="7.21712">
        <ele>425.0015564</ele>
        <time>2021-06-17T08:27:14Z</time>
      </trkpt>
      <trkpt lat="47.95698" lon="7.21704">
        <ele>425.0015564</ele>
        <time>2021-06-17T08:27:17Z</time>
      </trkpt>
      <trkpt lat="47.95692" lon="7.21691">
        <ele>425.0015564</ele>
        <time>2021-06-17T08:27:20Z</time>
      </trkpt>
      <trkpt lat="47.95688" lon="7.21676">
        <ele>425.0015564</ele>
        <time>2021-06-17T08:27:22Z</time>
      </trkpt>
      <trkpt lat="47.95684" lon="7.21659">
        <ele>425.0015564</ele>
        <time>2021-06-17T08:27:25Z</time>
      </trkpt>
      <trkpt lat="47.95679" lon="7.21648">
        <ele>425.0015564</ele>
        <time>2021-06-17T08:27:29Z</time>
      </trkpt>
      <trkpt lat="47.95668" lon="7.21647">
        <ele>425.0015564</ele>
        <time>2021-06-17T08:27:32Z</time>
      </trkpt>
      <trkpt lat="47.95664" lon="7.21659">
        <ele>425.0015564</ele>
        <time>2021-06-17T08:27:36Z</time>
      </trkpt>
      <trkpt lat="47.95668" lon="7.21673">
        <ele>425.50476074</ele>
        <time>2021-06-17T08:31:03Z</time>
      </trkpt>
      <trkpt lat="47.95668" lon="7.21673">
        <ele>425.50476074</ele>
        <time>2021-06-17T08:31:09Z</time>
      </trkpt>
      <trkpt lat="47.95673" lon="7.21649">
        <ele>425.50476074</ele>
        <time>2021-06-17T08:31:13Z</time>
      </trkpt>
      <trkpt lat="47.95674" lon="7.21641">
        <ele>425.5385437</ele>
        <time>2021-06-17T08:31:14Z</time>
      </trkpt>
      <trkpt lat="47.95674" lon="7.21631">
        <ele>425.5385437</ele>
        <time>2021-06-17T08:31:18Z</time>
      </trkpt>
      <trkpt lat="47.95674" lon="7.21614">
        <ele>425.5385437</ele>
        <time>2021-06-17T08:31:21Z</time>
      </trkpt>
      <trkpt lat="47.95673" lon="7.21597">
        <ele>425.5385437</ele>
        <time>2021-06-17T08:31:24Z</time>
      </trkpt>
      <trkpt lat="47.9567" lon="7.21579">
        <ele>425.5385437</ele>
        <time>2021-06-17T08:31:27Z</time>
      </trkpt>
      <trkpt lat="47.95668" lon="7.21561">
        <ele>425.5385437</ele>
        <time>2021-06-17T08:31:30Z</time>
      </trkpt>
      <trkpt lat="47.95666" lon="7.21545">
        <ele>425.5385437</ele>
        <time>2021-06-17T08:31:33Z</time>
      </trkpt>
      <trkpt lat="47.95664" lon="7.21529">
        <ele>425.5385437</ele>
        <time>2021-06-17T08:31:36Z</time>
      </trkpt>
      <trkpt lat="47.95661" lon="7.21513">
        <ele>425.5385437</ele>
        <time>2021-06-17T08:31:39Z</time>
      </trkpt>
      <trkpt lat="47.95658" lon="7.21498">
        <ele>425.35040283</ele>
        <time>2021-06-17T08:31:43Z</time>
      </trkpt>
      <trkpt lat="47.95656" lon="7.21481">
        <ele>425.35040283</ele>
        <time>2021-06-17T08:31:46Z</time>
      </trkpt>
      <trkpt lat="47.95654" lon="7.21466">
        <ele>426.78887939</ele>
        <time>2021-06-17T08:31:50Z</time>
      </trkpt>
      <trkpt lat="47.95654" lon="7.2145">
        <ele>426.78887939</ele>
        <time>2021-06-17T08:31:53Z</time>
      </trkpt>
      <trkpt lat="47.95652" lon="7.21435">
        <ele>426.78887939</ele>
        <time>2021-06-17T08:31:56Z</time>
      </trkpt>
      <trkpt lat="47.9565" lon="7.21421">
        <ele>427.85437012</ele>
        <time>2021-06-17T08:31:59Z</time>
      </trkpt>
      <trkpt lat="47.95648" lon="7.21406">
        <ele>429.01831055</ele>
        <time>2021-06-17T08:32:03Z</time>
      </trkpt>
      <trkpt lat="47.95647" lon="7.21391">
        <ele>429.01831055</ele>
        <time>2021-06-17T08:32:07Z</time>
      </trkpt>
      <trkpt lat="47.95646" lon="7.21376">
        <ele>430.21734619</ele>
        <time>2021-06-17T08:32:11Z</time>
      </trkpt>
      <trkpt lat="47.95641" lon="7.21357">
        <ele>431.17269897</ele>
        <time>2021-06-17T08:32:14Z</time>
      </trkpt>
      <trkpt lat="47.95641" lon="7.21349">
        <ele>431.17269897</ele>
        <time>2021-06-17T08:32:18Z</time>
      </trkpt>
      <trkpt lat="47.95638" lon="7.21334">
        <ele>432.23452759</ele>
        <time>2021-06-17T08:32:21Z</time>
      </trkpt>
      <trkpt lat="47.95635" lon="7.2132">
        <ele>432.23452759</ele>
        <time>2021-06-17T08:32:25Z</time>
      </trkpt>
      <trkpt lat="47.95633" lon="7.21305">
        <ele>433.27496338</ele>
        <time>2021-06-17T08:32:29Z</time>
      </trkpt>
      <trkpt lat="47.95629" lon="7.21288">
        <ele>433.27496338</ele>
        <time>2021-06-17T08:32:32Z</time>
      </trkpt>
      <trkpt lat="47.95626" lon="7.21275">
        <ele>434.2694397</ele>
        <time>2021-06-17T08:32:37Z</time>
      </trkpt>
      <trkpt lat="47.95623" lon="7.21261">
        <ele>435.41687012</ele>
        <time>2021-06-17T08:32:41Z</time>
      </trkpt>
      <trkpt lat="47.95618" lon="7.21246">
        <ele>435.41687012</ele>
        <time>2021-06-17T08:32:45Z</time>
      </trkpt>
      <trkpt lat="47.95613" lon="7.21232">
        <ele>436.41766357</ele>
        <time>2021-06-17T08:32:50Z</time>
      </trkpt>
      <trkpt lat="47.95609" lon="7.2122">
        <ele>437.50003052</ele>
        <time>2021-06-17T08:32:55Z</time>
      </trkpt>
      <trkpt lat="47.95604" lon="7.21206">
        <ele>437.50003052</ele>
        <time>2021-06-17T08:32:59Z</time>
      </trkpt>
      <trkpt lat="47.95598" lon="7.21194">
        <ele>438.57369995</ele>
        <time>2021-06-17T08:33:03Z</time>
      </trkpt>
      <trkpt lat="47.95592" lon="7.21183">
        <ele>438.57369995</ele>
        <time>2021-06-17T08:33:07Z</time>
      </trkpt>
      <trkpt lat="47.95584" lon="7.2117">
        <ele>438.57369995</ele>
        <time>2021-06-17T08:33:10Z</time>
      </trkpt>
      <trkpt lat="47.95579" lon="7.21159">
        <ele>439.50076294</ele>
        <time>2021-06-17T08:33:13Z</time>
      </trkpt>
      <trkpt lat="47.95576" lon="7.21151">
        <ele>440.43539429</ele>
        <time>2021-06-17T08:33:14Z</time>
      </trkpt>
      <trkpt lat="47.95574" lon="7.21142">
        <ele>440.43539429</ele>
        <time>2021-06-17T08:33:18Z</time>
      </trkpt>
      <trkpt lat="47.9557" lon="7.21128">
        <ele>441.21099854</ele>
        <time>2021-06-17T08:33:22Z</time>
      </trkpt>
      <trkpt lat="47.95563" lon="7.21116">
        <ele>441.21099854</ele>
        <time>2021-06-17T08:33:25Z</time>
      </trkpt>
      <trkpt lat="47.95556" lon="7.21106">
        <ele>442.23297119</ele>
        <time>2021-06-17T08:33:28Z</time>
      </trkpt>
      <trkpt lat="47.95549" lon="7.21095">
        <ele>442.23297119</ele>
        <time>2021-06-17T08:33:31Z</time>
      </trkpt>
      <trkpt lat="47.95545" lon="7.21082">
        <ele>442.23297119</ele>
        <time>2021-06-17T08:33:35Z</time>
      </trkpt>
      <trkpt lat="47.95537" lon="7.21069">
        <ele>443.27120972</ele>
        <time>2021-06-17T08:33:39Z</time>
      </trkpt>
      <trkpt lat="47.95533" lon="7.21054">
        <ele>443.27120972</ele>
        <time>2021-06-17T08:33:43Z</time>
      </trkpt>
      <trkpt lat="47.95536" lon="7.21039">
        <ele>444.42120361</ele>
        <time>2021-06-17T08:33:47Z</time>
      </trkpt>
      <trkpt lat="47.95536" lon="7.21024">
        <ele>445.53125</ele>
        <time>2021-06-17T08:33:51Z</time>
      </trkpt>
      <trkpt lat="47.95539" lon="7.2101">
        <ele>445.53125</ele>
        <time>2021-06-17T08:33:55Z</time>
      </trkpt>
      <trkpt lat="47.95543" lon="7.20996">
        <ele>445.53125</ele>
        <time>2021-06-17T08:33:59Z</time>
      </trkpt>
      <trkpt lat="47.95548" lon="7.20981">
        <ele>447.64086914</ele>
        <time>2021-06-17T08:34:03Z</time>
      </trkpt>
      <trkpt lat="47.95555" lon="7.20968">
        <ele>447.64086914</ele>
        <time>2021-06-17T08:34:06Z</time>
      </trkpt>
      <trkpt lat="47.95562" lon="7.20955">
        <ele>448.58956909</ele>
        <time>2021-06-17T08:34:09Z</time>
      </trkpt>
      <trkpt lat="47.95567" lon="7.20941">
        <ele>448.58956909</ele>
        <time>2021-06-17T08:34:13Z</time>
      </trkpt>
      <trkpt lat="47.95572" lon="7.20932">
        <ele>449.74267578</ele>
        <time>2021-06-17T08:34:14Z</time>
      </trkpt>
      <trkpt lat="47.95579" lon="7.20927">
        <ele>449.74267578</ele>
        <time>2021-06-17T08:34:16Z</time>
      </trkpt>
      <trkpt lat="47.95583" lon="7.20916">
        <ele>450.75241089</ele>
        <time>2021-06-17T08:34:20Z</time>
      </trkpt>
      <trkpt lat="47.95591" lon="7.20904">
        <ele>450.75241089</ele>
        <time>2021-06-17T08:34:23Z</time>
      </trkpt>
      <trkpt lat="47.95598" lon="7.20893">
        <ele>451.86434937</ele>
        <time>2021-06-17T08:34:27Z</time>
      </trkpt>
      <trkpt lat="47.95604" lon="7.20879">
        <ele>452.74804688</ele>
        <time>2021-06-17T08:34:31Z</time>
      </trkpt>
      <trkpt lat="47.95612" lon="7.20869">
        <ele>452.74804688</ele>
        <time>2021-06-17T08:34:34Z</time>
      </trkpt>
      <trkpt lat="47.95618" lon="7.2086">
        <ele>453.87863159</ele>
        <time>2021-06-17T08:34:37Z</time>
      </trkpt>
      <trkpt lat="47.95624" lon="7.20849">
        <ele>453.87863159</ele>
        <time>2021-06-17T08:34:41Z</time>
      </trkpt>
      <trkpt lat="47.95629" lon="7.20837">
        <ele>454.95080566</ele>
        <time>2021-06-17T08:34:45Z</time>
      </trkpt>
      <trkpt lat="47.95636" lon="7.20825">
        <ele>454.95080566</ele>
        <time>2021-06-17T08:34:48Z</time>
      </trkpt>
      <trkpt lat="47.95642" lon="7.20812">
        <ele>454.95080566</ele>
        <time>2021-06-17T08:34:52Z</time>
      </trkpt>
      <trkpt lat="47.95647" lon="7.20798">
        <ele>456.11914062</ele>
        <time>2021-06-17T08:34:56Z</time>
      </trkpt>
      <trkpt lat="47.95653" lon="7.20784">
        <ele>456.11914062</ele>
        <time>2021-06-17T08:35:00Z</time>
      </trkpt>
      <trkpt lat="47.95659" lon="7.20771">
        <ele>457.24240112</ele>
        <time>2021-06-17T08:35:05Z</time>
      </trkpt>
      <trkpt lat="47.95664" lon="7.20756">
        <ele>458.32662964</ele>
        <time>2021-06-17T08:35:09Z</time>
      </trkpt>
      <trkpt lat="47.9567" lon="7.20741">
        <ele>458.32662964</ele>
        <time>2021-06-17T08:35:13Z</time>
      </trkpt>
      <trkpt lat="47.95673" lon="7.20733">
        <ele>459.18737793</ele>
        <time>2021-06-17T08:35:14Z</time>
      </trkpt>
      <trkpt lat="47.95675" lon="7.20724">
        <ele>459.18737793</ele>
        <time>2021-06-17T08:35:17Z</time>
      </trkpt>
      <trkpt lat="47.95678" lon="7.2071">
        <ele>459.18737793</ele>
        <time>2021-06-17T08:35:21Z</time>
      </trkpt>
      <trkpt lat="47.95681" lon="7.20695">
        <ele>460.12524414</ele>
        <time>2021-06-17T08:35:25Z</time>
      </trkpt>
      <trkpt lat="47.95687" lon="7.20679">
        <ele>460.12524414</ele>
        <time>2021-06-17T08:35:28Z</time>
      </trkpt>
      <trkpt lat="47.95692" lon="7.20667">
        <ele>461.26647949</ele>
        <time>2021-06-17T08:35:31Z</time>
      </trkpt>
      <trkpt lat="47.95697" lon="7.20653">
        <ele>461.26647949</ele>
        <time>2021-06-17T08:35:35Z</time>
      </trkpt>
      <trkpt lat="47.95702" lon="7.20637">
        <ele>462.43896484</ele>
        <time>2021-06-17T08:35:39Z</time>
      </trkpt>
      <trkpt lat="47.95706" lon="7.20621">
        <ele>462.43896484</ele>
        <time>2021-06-17T08:35:43Z</time>
      </trkpt>
      <trkpt lat="47.95709" lon="7.20604">
        <ele>463.44177246</ele>
        <time>2021-06-17T08:35:47Z</time>
      </trkpt>
      <trkpt lat="47.95712" lon="7.20589">
        <ele>463.44177246</ele>
        <time>2021-06-17T08:35:52Z</time>
      </trkpt>
      <trkpt lat="47.95715" lon="7.20571">
        <ele>464.63699341</ele>
        <time>2021-06-17T08:35:56Z</time>
      </trkpt>
      <trkpt lat="47.95713" lon="7.20554">
        <ele>464.63699341</ele>
        <time>2021-06-17T08:36:00Z</time>
      </trkpt>
      <trkpt lat="47.95713" lon="7.20539">
        <ele>465.68826294</ele>
        <time>2021-06-17T08:36:04Z</time>
      </trkpt>
      <trkpt lat="47.95714" lon="7.20524">
        <ele>465.68826294</ele>
        <time>2021-06-17T08:36:08Z</time>
      </trkpt>
      <trkpt lat="47.95715" lon="7.2051">
        <ele>466.74612427</ele>
        <time>2021-06-17T08:36:12Z</time>
      </trkpt>
      <trkpt lat="47.95716" lon="7.20498">
        <ele>467.68746948</ele>
        <time>2021-06-17T08:36:14Z</time>
      </trkpt>
      <trkpt lat="47.95718" lon="7.20486">
        <ele>467.68746948</ele>
        <time>2021-06-17T08:36:18Z</time>
      </trkpt>
      <trkpt lat="47.9572" lon="7.20472">
        <ele>468.46820068</ele>
        <time>2021-06-17T08:36:22Z</time>
      </trkpt>
      <trkpt lat="47.9572" lon="7.20456">
        <ele>468.46820068</ele>
        <time>2021-06-17T08:36:26Z</time>
      </trkpt>
      <trkpt lat="47.95721" lon="7.20439">
        <ele>469.41860962</ele>
        <time>2021-06-17T08:36:31Z</time>
      </trkpt>
      <trkpt lat="47.95725" lon="7.20423">
        <ele>470.48620605</ele>
        <time>2021-06-17T08:36:35Z</time>
      </trkpt>
      <trkpt lat="47.95726" lon="7.20408">
        <ele>470.48620605</ele>
        <time>2021-06-17T08:36:39Z</time>
      </trkpt>
      <trkpt lat="47.95732" lon="7.20395">
        <ele>471.62371826</ele>
        <time>2021-06-17T08:36:42Z</time>
      </trkpt>
      <trkpt lat="47.95737" lon="7.20381">
        <ele>471.62371826</ele>
        <time>2021-06-17T08:36:46Z</time>
      </trkpt>
      <trkpt lat="47.95741" lon="7.20365">
        <ele>472.64978027</ele>
        <time>2021-06-17T08:36:50Z</time>
      </trkpt>
      <trkpt lat="47.95745" lon="7.20347">
        <ele>472.64978027</ele>
        <time>2021-06-17T08:36:54Z</time>
      </trkpt>
      <trkpt lat="47.95744" lon="7.2033">
        <ele>473.67251587</ele>
        <time>2021-06-17T08:36:58Z</time>
      </trkpt>
      <trkpt lat="47.95744" lon="7.20315">
        <ele>473.67251587</ele>
        <time>2021-06-17T08:37:01Z</time>
      </trkpt>
      <trkpt lat="47.95744" lon="7.20301">
        <ele>474.83673096</ele>
        <time>2021-06-17T08:37:04Z</time>
      </trkpt>
      <trkpt lat="47.95746" lon="7.20287">
        <ele>474.83673096</ele>
        <time>2021-06-17T08:37:07Z</time>
      </trkpt>
      <trkpt lat="47.95747" lon="7.20271">
        <ele>475.8979187</ele>
        <time>2021-06-17T08:37:11Z</time>
      </trkpt>
      <trkpt lat="47.95748" lon="7.20256">
        <ele>476.60931396</ele>
        <time>2021-06-17T08:37:14Z</time>
      </trkpt>
      <trkpt lat="47.95751" lon="7.20243">
        <ele>476.60931396</ele>
        <time>2021-06-17T08:37:18Z</time>
      </trkpt>
      <trkpt lat="47.95749" lon="7.20227">
        <ele>477.46981812</ele>
        <time>2021-06-17T08:37:22Z</time>
      </trkpt>
      <trkpt lat="47.95749" lon="7.20211">
        <ele>477.46981812</ele>
        <time>2021-06-17T08:37:26Z</time>
      </trkpt>
      <trkpt lat="47.95749" lon="7.20196">
        <ele>478.45788574</ele>
        <time>2021-06-17T08:37:30Z</time>
      </trkpt>
      <trkpt lat="47.95747" lon="7.2018">
        <ele>478.45788574</ele>
        <time>2021-06-17T08:37:34Z</time>
      </trkpt>
      <trkpt lat="47.95747" lon="7.20165">
        <ele>479.60198975</ele>
        <time>2021-06-17T08:37:38Z</time>
      </trkpt>
      <trkpt lat="47.95744" lon="7.2015">
        <ele>479.60198975</ele>
        <time>2021-06-17T08:37:42Z</time>
      </trkpt>
      <trkpt lat="47.95742" lon="7.20133">
        <ele>479.60198975</ele>
        <time>2021-06-17T08:37:46Z</time>
      </trkpt>
      <trkpt lat="47.95741" lon="7.20118">
        <ele>480.67385864</ele>
        <time>2021-06-17T08:37:49Z</time>
      </trkpt>
      <trkpt lat="47.95739" lon="7.20105">
        <ele>480.67385864</ele>
        <time>2021-06-17T08:37:53Z</time>
      </trkpt>
      <trkpt lat="47.95739" lon="7.20091">
        <ele>481.75653076</ele>
        <time>2021-06-17T08:37:57Z</time>
      </trkpt>
      <trkpt lat="47.95738" lon="7.20076">
        <ele>482.92340088</ele>
        <time>2021-06-17T08:38:02Z</time>
      </trkpt>
      <trkpt lat="47.95738" lon="7.20059">
        <ele>482.92340088</ele>
        <time>2021-06-17T08:38:06Z</time>
      </trkpt>
      <trkpt lat="47.95736" lon="7.20041">
        <ele>483.92993164</ele>
        <time>2021-06-17T08:38:10Z</time>
      </trkpt>
      <trkpt lat="47.95732" lon="7.2002">
        <ele>484.76968384</ele>
        <time>2021-06-17T08:38:14Z</time>
      </trkpt>
      <trkpt lat="47.95732" lon="7.20012">
        <ele>484.76968384</ele>
        <time>2021-06-17T08:38:19Z</time>
      </trkpt>
      <trkpt lat="47.95732" lon="7.19996">
        <ele>485.69281006</ele>
        <time>2021-06-17T08:38:24Z</time>
      </trkpt>
      <trkpt lat="47.95737" lon="7.1998">
        <ele>485.69281006</ele>
        <time>2021-06-17T08:38:27Z</time>
      </trkpt>
      <trkpt lat="47.9574" lon="7.19967">
        <ele>486.69085693</ele>
        <time>2021-06-17T08:38:31Z</time>
      </trkpt>
      <trkpt lat="47.95742" lon="7.19953">
        <ele>486.69085693</ele>
        <time>2021-06-17T08:38:35Z</time>
      </trkpt>
      <trkpt lat="47.95748" lon="7.19939">
        <ele>487.73986816</ele>
        <time>2021-06-17T08:38:39Z</time>
      </trkpt>
      <trkpt lat="47.95752" lon="7.19924">
        <ele>488.75567627</ele>
        <time>2021-06-17T08:38:43Z</time>
      </trkpt>
      <trkpt lat="47.95755" lon="7.19909">
        <ele>488.75567627</ele>
        <time>2021-06-17T08:38:47Z</time>
      </trkpt>
      <trkpt lat="47.95757" lon="7.19893">
        <ele>489.83221436</ele>
        <time>2021-06-17T08:38:51Z</time>
      </trkpt>
      <trkpt lat="47.9576" lon="7.1988">
        <ele>489.83221436</ele>
        <time>2021-06-17T08:38:54Z</time>
      </trkpt>
      <trkpt lat="47.9576" lon="7.19865">
        <ele>489.83221436</ele>
        <time>2021-06-17T08:38:57Z</time>
      </trkpt>
      <trkpt lat="47.9576" lon="7.19851">
        <ele>490.85205078</ele>
        <time>2021-06-17T08:39:00Z</time>
      </trkpt>
      <trkpt lat="47.95763" lon="7.19838">
        <ele>490.85205078</ele>
        <time>2021-06-17T08:39:04Z</time>
      </trkpt>
      <trkpt lat="47.95762" lon="7.19824">
        <ele>490.85205078</ele>
        <time>2021-06-17T08:39:08Z</time>
      </trkpt>
      <trkpt lat="47.95758" lon="7.19807">
        <ele>490.85205078</ele>
        <time>2021-06-17T08:39:12Z</time>
      </trkpt>
      <trkpt lat="47.95754" lon="7.19798">
        <ele>492.98126221</ele>
        <time>2021-06-17T08:39:14Z</time>
      </trkpt>
      <trkpt lat="47.95749" lon="7.19789">
        <ele>492.98126221</ele>
        <time>2021-06-17T08:39:19Z</time>
      </trkpt>
      <trkpt lat="47.95744" lon="7.19777">
        <ele>494.03540039</ele>
        <time>2021-06-17T08:39:24Z</time>
      </trkpt>
      <trkpt lat="47.95734" lon="7.19766">
        <ele>494.03540039</ele>
        <time>2021-06-17T08:39:28Z</time>
      </trkpt>
      <trkpt lat="47.95725" lon="7.19758">
        <ele>495.09207153</ele>
        <time>2021-06-17T08:39:31Z</time>
      </trkpt>
      <trkpt lat="47.95718" lon="7.19749">
        <ele>495.09207153</ele>
        <time>2021-06-17T08:39:36Z</time>
      </trkpt>
      <trkpt lat="47.95709" lon="7.19736">
        <ele>496.20611572</ele>
        <time>2021-06-17T08:39:40Z</time>
      </trkpt>
      <trkpt lat="47.95699" lon="7.19731">
        <ele>496.20611572</ele>
        <time>2021-06-17T08:39:43Z</time>
      </trkpt>
      <trkpt lat="47.95689" lon="7.19724">
        <ele>497.32595825</ele>
        <time>2021-06-17T08:39:47Z</time>
      </trkpt>
      <trkpt lat="47.95679" lon="7.19716">
        <ele>497.32595825</ele>
        <time>2021-06-17T08:39:51Z</time>
      </trkpt>
      <trkpt lat="47.95668" lon="7.19711">
        <ele>498.37060547</ele>
        <time>2021-06-17T08:39:56Z</time>
      </trkpt>
      <trkpt lat="47.9566" lon="7.19704">
        <ele>499.48504639</ele>
        <time>2021-06-17T08:40:00Z</time>
      </trkpt>
      <trkpt lat="47.95651" lon="7.19697">
        <ele>499.48504639</ele>
        <time>2021-06-17T08:40:04Z</time>
      </trkpt>
      <trkpt lat="47.95631" lon="7.19684">
        <ele>500.56942749</ele>
        <time>2021-06-17T08:40:12Z</time>
      </trkpt>
      <trkpt lat="47.95626" lon="7.19676">
        <ele>501.45129395</ele>
        <time>2021-06-17T08:40:14Z</time>
      </trkpt>
      <trkpt lat="47.95622" lon="7.19667">
        <ele>501.45129395</ele>
        <time>2021-06-17T08:40:19Z</time>
      </trkpt>
      <trkpt lat="47.95615" lon="7.19653">
        <ele>502.28134155</ele>
        <time>2021-06-17T08:40:22Z</time>
      </trkpt>
      <trkpt lat="47.9561" lon="7.19639">
        <ele>503.36953735</ele>
        <time>2021-06-17T08:40:26Z</time>
      </trkpt>
      <trkpt lat="47.95603" lon="7.19627">
        <ele>503.36953735</ele>
        <time>2021-06-17T08:40:30Z</time>
      </trkpt>
      <trkpt lat="47.95596" lon="7.19613">
        <ele>504.46920776</ele>
        <time>2021-06-17T08:40:33Z</time>
      </trkpt>
      <trkpt lat="47.95589" lon="7.196">
        <ele>504.46920776</ele>
        <time>2021-06-17T08:40:36Z</time>
      </trkpt>
      <trkpt lat="47.95583" lon="7.19589">
        <ele>504.46920776</ele>
        <time>2021-06-17T08:40:40Z</time>
      </trkpt>
      <trkpt lat="47.95575" lon="7.19578">
        <ele>505.51876831</ele>
        <time>2021-06-17T08:40:44Z</time>
      </trkpt>
      <trkpt lat="47.95567" lon="7.19569">
        <ele>505.51876831</ele>
        <time>2021-06-17T08:40:47Z</time>
      </trkpt>
      <trkpt lat="47.95559" lon="7.1956">
        <ele>506.60360718</ele>
        <time>2021-06-17T08:40:50Z</time>
      </trkpt>
      <trkpt lat="47.95551" lon="7.19551">
        <ele>506.60360718</ele>
        <time>2021-06-17T08:40:53Z</time>
      </trkpt>
      <trkpt lat="47.95544" lon="7.19542">
        <ele>506.60360718</ele>
        <time>2021-06-17T08:40:56Z</time>
      </trkpt>
      <trkpt lat="47.95537" lon="7.19532">
        <ele>507.53048706</ele>
        <time>2021-06-17T08:41:01Z</time>
      </trkpt>
      <trkpt lat="47.95531" lon="7.1952">
        <ele>507.53048706</ele>
        <time>2021-06-17T08:41:05Z</time>
      </trkpt>
      <trkpt lat="47.95523" lon="7.19509">
        <ele>508.73565674</ele>
        <time>2021-06-17T08:41:09Z</time>
      </trkpt>
      <trkpt lat="47.95515" lon="7.19497">
        <ele>509.8062439</ele>
        <time>2021-06-17T08:41:13Z</time>
      </trkpt>
      <trkpt lat="47.95511" lon="7.19489">
        <ele>510.4987793</ele>
        <time>2021-06-17T08:41:14Z</time>
      </trkpt>
      <trkpt lat="47.95506" lon="7.19482">
        <ele>510.4987793</ele>
        <time>2021-06-17T08:41:17Z</time>
      </trkpt>
      <trkpt lat="47.95501" lon="7.19471">
        <ele>511.15820312</ele>
        <time>2021-06-17T08:41:21Z</time>
      </trkpt>
      <trkpt lat="47.95498" lon="7.19457">
        <ele>511.15820312</ele>
        <time>2021-06-17T08:41:24Z</time>
      </trkpt>
      <trkpt lat="47.95491" lon="7.19447">
        <ele>512.23547363</ele>
        <time>2021-06-17T08:41:28Z</time>
      </trkpt>
      <trkpt lat="47.95483" lon="7.19436">
        <ele>512.23547363</ele>
        <time>2021-06-17T08:41:32Z</time>
      </trkpt>
      <trkpt lat="47.95475" lon="7.19423">
        <ele>513.23388672</ele>
        <time>2021-06-17T08:41:36Z</time>
      </trkpt>
      <trkpt lat="47.95471" lon="7.19411">
        <ele>513.23388672</ele>
        <time>2021-06-17T08:41:40Z</time>
      </trkpt>
      <trkpt lat="47.95466" lon="7.19398">
        <ele>514.22247314</ele>
        <time>2021-06-17T08:41:45Z</time>
      </trkpt>
      <trkpt lat="47.95461" lon="7.19383">
        <ele>514.22247314</ele>
        <time>2021-06-17T08:41:49Z</time>
      </trkpt>
      <trkpt lat="47.95455" lon="7.19372">
        <ele>515.36309814</ele>
        <time>2021-06-17T08:41:53Z</time>
      </trkpt>
      <trkpt lat="47.95447" lon="7.19365">
        <ele>515.36309814</ele>
        <time>2021-06-17T08:41:56Z</time>
      </trkpt>
      <trkpt lat="47.95441" lon="7.19353">
        <ele>516.41674805</ele>
        <time>2021-06-17T08:42:01Z</time>
      </trkpt>
      <trkpt lat="47.95436" lon="7.19341">
        <ele>516.41674805</ele>
        <time>2021-06-17T08:42:05Z</time>
      </trkpt>
      <trkpt lat="47.95429" lon="7.19328">
        <ele>517.40582275</ele>
        <time>2021-06-17T08:42:08Z</time>
      </trkpt>
      <trkpt lat="47.95419" lon="7.19318">
        <ele>517.40582275</ele>
        <time>2021-06-17T08:42:11Z</time>
      </trkpt>
      <trkpt lat="47.95413" lon="7.1931">
        <ele>518.45904541</ele>
        <time>2021-06-17T08:42:14Z</time>
      </trkpt>
      <trkpt lat="47.95407" lon="7.19298">
        <ele>518.45904541</ele>
        <time>2021-06-17T08:42:18Z</time>
      </trkpt>
      <trkpt lat="47.95397" lon="7.19288">
        <ele>518.45904541</ele>
        <time>2021-06-17T08:42:21Z</time>
      </trkpt>
      <trkpt lat="47.95389" lon="7.19278">
        <ele>518.45904541</ele>
        <time>2021-06-17T08:42:24Z</time>
      </trkpt>
      <trkpt lat="47.95382" lon="7.19269">
        <ele>519.48706055</ele>
        <time>2021-06-17T08:42:29Z</time>
      </trkpt>
      <trkpt lat="47.95372" lon="7.19245">
        <ele>519.86541748</ele>
        <time>2021-06-17T08:46:51Z</time>
      </trkpt>
      <trkpt lat="47.95372" lon="7.19247">
        <ele>519.68658447</ele>
        <time>2021-06-17T08:47:56Z</time>
      </trkpt>
      <trkpt lat="47.9537" lon="7.19248">
        <ele>519.68658447</ele>
        <time>2021-06-17T08:48:03Z</time>
      </trkpt>
      <trkpt lat="47.95359" lon="7.19232">
        <ele>519.68658447</ele>
        <time>2021-06-17T08:48:08Z</time>
      </trkpt>
      <trkpt lat="47.95352" lon="7.19222">
        <ele>519.68658447</ele>
        <time>2021-06-17T08:48:12Z</time>
      </trkpt>
      <trkpt lat="47.95344" lon="7.19217">
        <ele>519.66259766</ele>
        <time>2021-06-17T08:48:14Z</time>
      </trkpt>
      <trkpt lat="47.95337" lon="7.1921">
        <ele>519.66259766</ele>
        <time>2021-06-17T08:48:17Z</time>
      </trkpt>
      <trkpt lat="47.95327" lon="7.19202">
        <ele>519.66259766</ele>
        <time>2021-06-17T08:48:20Z</time>
      </trkpt>
      <trkpt lat="47.95316" lon="7.19194">
        <ele>519.66259766</ele>
        <time>2021-06-17T08:48:23Z</time>
      </trkpt>
      <trkpt lat="47.95306" lon="7.19187">
        <ele>519.66259766</ele>
        <time>2021-06-17T08:48:25Z</time>
      </trkpt>
      <trkpt lat="47.95297" lon="7.1918">
        <ele>519.66259766</ele>
        <time>2021-06-17T08:48:27Z</time>
      </trkpt>
      <trkpt lat="47.95288" lon="7.19173">
        <ele>519.66259766</ele>
        <time>2021-06-17T08:48:29Z</time>
      </trkpt>
      <trkpt lat="47.95279" lon="7.19163">
        <ele>519.66259766</ele>
        <time>2021-06-17T08:48:31Z</time>
      </trkpt>
      <trkpt lat="47.9527" lon="7.19154">
        <ele>519.02825928</ele>
        <time>2021-06-17T08:48:33Z</time>
      </trkpt>
      <trkpt lat="47.95258" lon="7.19146">
        <ele>519.02825928</ele>
        <time>2021-06-17T08:48:35Z</time>
      </trkpt>
      <trkpt lat="47.95247" lon="7.19135">
        <ele>519.02825928</ele>
        <time>2021-06-17T08:48:37Z</time>
      </trkpt>
      <trkpt lat="47.95237" lon="7.1912">
        <ele>517.56915283</ele>
        <time>2021-06-17T08:48:39Z</time>
      </trkpt>
      <trkpt lat="47.95226" lon="7.19104">
        <ele>517.56915283</ele>
        <time>2021-06-17T08:48:41Z</time>
      </trkpt>
      <trkpt lat="47.95215" lon="7.19088">
        <ele>516.31115723</ele>
        <time>2021-06-17T08:48:43Z</time>
      </trkpt>
      <trkpt lat="47.95204" lon="7.19076">
        <ele>516.31115723</ele>
        <time>2021-06-17T08:48:44Z</time>
      </trkpt>
      <trkpt lat="47.95196" lon="7.19068">
        <ele>515.08239746</ele>
        <time>2021-06-17T08:48:45Z</time>
      </trkpt>
      <trkpt lat="47.95189" lon="7.1906">
        <ele>515.08239746</ele>
        <time>2021-06-17T08:48:46Z</time>
      </trkpt>
      <trkpt lat="47.95179" lon="7.19048">
        <ele>513.89471436</ele>
        <time>2021-06-17T08:48:48Z</time>
      </trkpt>
      <trkpt lat="47.95168" lon="7.19038">
        <ele>513.89471436</ele>
        <time>2021-06-17T08:48:49Z</time>
      </trkpt>
      <trkpt lat="47.95158" lon="7.1903">
        <ele>512.64941406</ele>
        <time>2021-06-17T08:48:50Z</time>
      </trkpt>
      <trkpt lat="47.9515" lon="7.19022">
        <ele>512.64941406</ele>
        <time>2021-06-17T08:48:51Z</time>
      </trkpt>
      <trkpt lat="47.95142" lon="7.19014">
        <ele>511.64321899</ele>
        <time>2021-06-17T08:48:52Z</time>
      </trkpt>
      <trkpt lat="47.95133" lon="7.19005">
        <ele>511.64321899</ele>
        <time>2021-06-17T08:48:53Z</time>
      </trkpt>
      <trkpt lat="47.95124" lon="7.18997">
        <ele>510.51199341</ele>
        <time>2021-06-17T08:48:54Z</time>
      </trkpt>
      <trkpt lat="47.95115" lon="7.18988">
        <ele>510.51199341</ele>
        <time>2021-06-17T08:48:55Z</time>
      </trkpt>
      <trkpt lat="47.95105" lon="7.18979">
        <ele>509.2578125</ele>
        <time>2021-06-17T08:48:56Z</time>
      </trkpt>
      <trkpt lat="47.95095" lon="7.18971">
        <ele>509.2578125</ele>
        <time>2021-06-17T08:48:57Z</time>
      </trkpt>
      <trkpt lat="47.95085" lon="7.18962">
        <ele>507.99194336</ele>
        <time>2021-06-17T08:48:58Z</time>
      </trkpt>
      <trkpt lat="47.95075" lon="7.18953">
        <ele>507.99194336</ele>
        <time>2021-06-17T08:48:59Z</time>
      </trkpt>
      <trkpt lat="47.95065" lon="7.18943">
        <ele>506.69317627</ele>
        <time>2021-06-17T08:49:00Z</time>
      </trkpt>
      <trkpt lat="47.95057" lon="7.18932">
        <ele>506.69317627</ele>
        <time>2021-06-17T08:49:01Z</time>
      </trkpt>
      <trkpt lat="47.95047" lon="7.18921">
        <ele>505.3449707</ele>
        <time>2021-06-17T08:49:02Z</time>
      </trkpt>
      <trkpt lat="47.95039" lon="7.18906">
        <ele>505.3449707</ele>
        <time>2021-06-17T08:49:03Z</time>
      </trkpt>
      <trkpt lat="47.95031" lon="7.18892">
        <ele>503.9855957</ele>
        <time>2021-06-17T08:49:04Z</time>
      </trkpt>
      <trkpt lat="47.95023" lon="7.18878">
        <ele>503.9855957</ele>
        <time>2021-06-17T08:49:05Z</time>
      </trkpt>
      <trkpt lat="47.95015" lon="7.18864">
        <ele>502.62457275</ele>
        <time>2021-06-17T08:49:06Z</time>
      </trkpt>
      <trkpt lat="47.95007" lon="7.18849">
        <ele>502.62457275</ele>
        <time>2021-06-17T08:49:07Z</time>
      </trkpt>
      <trkpt lat="47.95" lon="7.18832">
        <ele>501.1998291</ele>
        <time>2021-06-17T08:49:08Z</time>
      </trkpt>
      <trkpt lat="47.94994" lon="7.18816">
        <ele>501.1998291</ele>
        <time>2021-06-17T08:49:09Z</time>
      </trkpt>
      <trkpt lat="47.9499" lon="7.18798">
        <ele>499.54449463</ele>
        <time>2021-06-17T08:49:10Z</time>
      </trkpt>
      <trkpt lat="47.94986" lon="7.18782">
        <ele>499.54449463</ele>
        <time>2021-06-17T08:49:11Z</time>
      </trkpt>
      <trkpt lat="47.9498" lon="7.18765">
        <ele>497.85296631</ele>
        <time>2021-06-17T08:49:12Z</time>
      </trkpt>
      <trkpt lat="47.94974" lon="7.18748">
        <ele>497.85296631</ele>
        <time>2021-06-17T08:49:13Z</time>
      </trkpt>
      <trkpt lat="47.94968" lon="7.18729">
        <ele>495.95837402</ele>
        <time>2021-06-17T08:49:14Z</time>
      </trkpt>
      <trkpt lat="47.94961" lon="7.18711">
        <ele>495.95837402</ele>
        <time>2021-06-17T08:49:15Z</time>
      </trkpt>
      <trkpt lat="47.94955" lon="7.18694">
        <ele>494.65298462</ele>
        <time>2021-06-17T08:49:16Z</time>
      </trkpt>
      <trkpt lat="47.94947" lon="7.18677">
        <ele>494.65298462</ele>
        <time>2021-06-17T08:49:17Z</time>
      </trkpt>
      <trkpt lat="47.9494" lon="7.18662">
        <ele>493.02478027</ele>
        <time>2021-06-17T08:49:18Z</time>
      </trkpt>
      <trkpt lat="47.94933" lon="7.18647">
        <ele>493.02478027</ele>
        <time>2021-06-17T08:49:19Z</time>
      </trkpt>
      <trkpt lat="47.94926" lon="7.18632">
        <ele>491.51727295</ele>
        <time>2021-06-17T08:49:20Z</time>
      </trkpt>
      <trkpt lat="47.9492" lon="7.18619">
        <ele>491.51727295</ele>
        <time>2021-06-17T08:49:21Z</time>
      </trkpt>
      <trkpt lat="47.94913" lon="7.18607">
        <ele>490.07617188</ele>
        <time>2021-06-17T08:49:22Z</time>
      </trkpt>
      <trkpt lat="47.94908" lon="7.18596">
        <ele>490.07617188</ele>
        <time>2021-06-17T08:49:23Z</time>
      </trkpt>
      <trkpt lat="47.94901" lon="7.18583">
        <ele>488.5045166</ele>
        <time>2021-06-17T08:49:24Z</time>
      </trkpt>
      <trkpt lat="47.94895" lon="7.18572">
        <ele>488.5045166</ele>
        <time>2021-06-17T08:49:25Z</time>
      </trkpt>
      <trkpt lat="47.94887" lon="7.18561">
        <ele>486.99453735</ele>
        <time>2021-06-17T08:49:26Z</time>
      </trkpt>
      <trkpt lat="47.94875" lon="7.18552">
        <ele>486.99453735</ele>
        <time>2021-06-17T08:49:27Z</time>
      </trkpt>
      <trkpt lat="47.94865" lon="7.18545">
        <ele>485.37756348</ele>
        <time>2021-06-17T08:49:28Z</time>
      </trkpt>
      <trkpt lat="47.94853" lon="7.18532">
        <ele>485.37756348</ele>
        <time>2021-06-17T08:49:29Z</time>
      </trkpt>
      <trkpt lat="47.94844" lon="7.18521">
        <ele>483.70547485</ele>
        <time>2021-06-17T08:49:30Z</time>
      </trkpt>
      <trkpt lat="47.94833" lon="7.18509">
        <ele>483.70547485</ele>
        <time>2021-06-17T08:49:31Z</time>
      </trkpt>
      <trkpt lat="47.94823" lon="7.18497">
        <ele>481.88961792</ele>
        <time>2021-06-17T08:49:32Z</time>
      </trkpt>
      <trkpt lat="47.94813" lon="7.18485">
        <ele>481.88961792</ele>
        <time>2021-06-17T08:49:33Z</time>
      </trkpt>
      <trkpt lat="47.94803" lon="7.18472">
        <ele>480.13754272</ele>
        <time>2021-06-17T08:49:34Z</time>
      </trkpt>
      <trkpt lat="47.94791" lon="7.18459">
        <ele>480.13754272</ele>
        <time>2021-06-17T08:49:35Z</time>
      </trkpt>
      <trkpt lat="47.94779" lon="7.1845">
        <ele>478.52661133</ele>
        <time>2021-06-17T08:49:36Z</time>
      </trkpt>
      <trkpt lat="47.94766" lon="7.18441">
        <ele>478.52661133</ele>
        <time>2021-06-17T08:49:37Z</time>
      </trkpt>
      <trkpt lat="47.94753" lon="7.18433">
        <ele>476.92858887</ele>
        <time>2021-06-17T08:49:38Z</time>
      </trkpt>
      <trkpt lat="47.9474" lon="7.18425">
        <ele>476.92858887</ele>
        <time>2021-06-17T08:49:39Z</time>
      </trkpt>
      <trkpt lat="47.94729" lon="7.18416">
        <ele>475.32183838</ele>
        <time>2021-06-17T08:49:40Z</time>
      </trkpt>
      <trkpt lat="47.94717" lon="7.18406">
        <ele>475.32183838</ele>
        <time>2021-06-17T08:49:41Z</time>
      </trkpt>
      <trkpt lat="47.94703" lon="7.18397">
        <ele>473.72009277</ele>
        <time>2021-06-17T08:49:42Z</time>
      </trkpt>
      <trkpt lat="47.9469" lon="7.18388">
        <ele>473.72009277</ele>
        <time>2021-06-17T08:49:43Z</time>
      </trkpt>
      <trkpt lat="47.94677" lon="7.18379">
        <ele>472.1078186</ele>
        <time>2021-06-17T08:49:44Z</time>
      </trkpt>
      <trkpt lat="47.94664" lon="7.1837">
        <ele>472.1078186</ele>
        <time>2021-06-17T08:49:45Z</time>
      </trkpt>
      <trkpt lat="47.9465" lon="7.18363">
        <ele>470.56048584</ele>
        <time>2021-06-17T08:49:46Z</time>
      </trkpt>
      <trkpt lat="47.94635" lon="7.18359">
        <ele>470.56048584</ele>
        <time>2021-06-17T08:49:47Z</time>
      </trkpt>
      <trkpt lat="47.94622" lon="7.18358">
        <ele>468.87164307</ele>
        <time>2021-06-17T08:49:48Z</time>
      </trkpt>
      <trkpt lat="47.9461" lon="7.18356">
        <ele>468.87164307</ele>
        <time>2021-06-17T08:49:49Z</time>
      </trkpt>
      <trkpt lat="47.94595" lon="7.18354">
        <ele>467.0536499</ele>
        <time>2021-06-17T08:49:50Z</time>
      </trkpt>
      <trkpt lat="47.94578" lon="7.18356">
        <ele>467.0536499</ele>
        <time>2021-06-17T08:49:51Z</time>
      </trkpt>
      <trkpt lat="47.94564" lon="7.18355">
        <ele>465.1673584</ele>
        <time>2021-06-17T08:49:52Z</time>
      </trkpt>
      <trkpt lat="47.9455" lon="7.18353">
        <ele>465.1673584</ele>
        <time>2021-06-17T08:49:53Z</time>
      </trkpt>
      <trkpt lat="47.94536" lon="7.18351">
        <ele>463.31585693</ele>
        <time>2021-06-17T08:49:54Z</time>
      </trkpt>
      <trkpt lat="47.94524" lon="7.18346">
        <ele>463.31585693</ele>
        <time>2021-06-17T08:49:55Z</time>
      </trkpt>
      <trkpt lat="47.94511" lon="7.1834">
        <ele>461.66522217</ele>
        <time>2021-06-17T08:49:56Z</time>
      </trkpt>
      <trkpt lat="47.94504" lon="7.18325">
        <ele>461.66522217</ele>
        <time>2021-06-17T08:49:57Z</time>
      </trkpt>
      <trkpt lat="47.94492" lon="7.18316">
        <ele>459.96047974</ele>
        <time>2021-06-17T08:49:58Z</time>
      </trkpt>
      <trkpt lat="47.94481" lon="7.18306">
        <ele>459.96047974</ele>
        <time>2021-06-17T08:49:59Z</time>
      </trkpt>
      <trkpt lat="47.94467" lon="7.18297">
        <ele>458.32510376</ele>
        <time>2021-06-17T08:50:00Z</time>
      </trkpt>
      <trkpt lat="47.94455" lon="7.18288">
        <ele>458.32510376</ele>
        <time>2021-06-17T08:50:01Z</time>
      </trkpt>
      <trkpt lat="47.94442" lon="7.1828">
        <ele>456.57336426</ele>
        <time>2021-06-17T08:50:02Z</time>
      </trkpt>
      <trkpt lat="47.94429" lon="7.18274">
        <ele>456.57336426</ele>
        <time>2021-06-17T08:50:03Z</time>
      </trkpt>
      <trkpt lat="47.94417" lon="7.18267">
        <ele>454.73834229</ele>
        <time>2021-06-17T08:50:04Z</time>
      </trkpt>
      <trkpt lat="47.94405" lon="7.18258">
        <ele>454.73834229</ele>
        <time>2021-06-17T08:50:05Z</time>
      </trkpt>
      <trkpt lat="47.94392" lon="7.18249">
        <ele>452.84277344</ele>
        <time>2021-06-17T08:50:06Z</time>
      </trkpt>
      <trkpt lat="47.94379" lon="7.18236">
        <ele>451.25183105</ele>
        <time>2021-06-17T08:50:07Z</time>
      </trkpt>
      <trkpt lat="47.94369" lon="7.1822">
        <ele>450.08969116</ele>
        <time>2021-06-17T08:50:08Z</time>
      </trkpt>
      <trkpt lat="47.94359" lon="7.18205">
        <ele>448.90716553</ele>
        <time>2021-06-17T08:50:09Z</time>
      </trkpt>
      <trkpt lat="47.94349" lon="7.18189">
        <ele>447.76574707</ele>
        <time>2021-06-17T08:50:10Z</time>
      </trkpt>
      <trkpt lat="47.94339" lon="7.18172">
        <ele>446.58401489</ele>
        <time>2021-06-17T08:50:11Z</time>
      </trkpt>
      <trkpt lat="47.9433" lon="7.18154">
        <ele>445.35519409</ele>
        <time>2021-06-17T08:50:12Z</time>
      </trkpt>
      <trkpt lat="47.94321" lon="7.18136">
        <ele>444.27868652</ele>
        <time>2021-06-17T08:50:13Z</time>
      </trkpt>
      <trkpt lat="47.94313" lon="7.18118">
        <ele>443.30465698</ele>
        <time>2021-06-17T08:50:14Z</time>
      </trkpt>
      <trkpt lat="47.94306" lon="7.18098">
        <ele>443.30465698</ele>
        <time>2021-06-17T08:50:15Z</time>
      </trkpt>
      <trkpt lat="47.94301" lon="7.18078">
        <ele>442.00250244</ele>
        <time>2021-06-17T08:50:16Z</time>
      </trkpt>
      <trkpt lat="47.94296" lon="7.18058">
        <ele>442.00250244</ele>
        <time>2021-06-17T08:50:17Z</time>
      </trkpt>
      <trkpt lat="47.94289" lon="7.18037">
        <ele>440.66796875</ele>
        <time>2021-06-17T08:50:18Z</time>
      </trkpt>
      <trkpt lat="47.94283" lon="7.18019">
        <ele>440.66796875</ele>
        <time>2021-06-17T08:50:19Z</time>
      </trkpt>
      <trkpt lat="47.94275" lon="7.18003">
        <ele>439.48968506</ele>
        <time>2021-06-17T08:50:20Z</time>
      </trkpt>
      <trkpt lat="47.94264" lon="7.1799">
        <ele>439.48968506</ele>
        <time>2021-06-17T08:50:21Z</time>
      </trkpt>
      <trkpt lat="47.94253" lon="7.1798">
        <ele>439.48968506</ele>
        <time>2021-06-17T08:50:22Z</time>
      </trkpt>
      <trkpt lat="47.9424" lon="7.17971">
        <ele>439.48968506</ele>
        <time>2021-06-17T08:50:23Z</time>
      </trkpt>
      <trkpt lat="47.9423" lon="7.17962">
        <ele>438.48306274</ele>
        <time>2021-06-17T08:50:24Z</time>
      </trkpt>
      <trkpt lat="47.9422" lon="7.17955">
        <ele>438.48306274</ele>
        <time>2021-06-17T08:50:25Z</time>
      </trkpt>
      <trkpt lat="47.9421" lon="7.17945">
        <ele>438.48306274</ele>
        <time>2021-06-17T08:50:26Z</time>
      </trkpt>
      <trkpt lat="47.94201" lon="7.17934">
        <ele>438.48306274</ele>
        <time>2021-06-17T08:50:27Z</time>
      </trkpt>
      <trkpt lat="47.94192" lon="7.17924">
        <ele>438.48306274</ele>
        <time>2021-06-17T08:50:28Z</time>
      </trkpt>
      <trkpt lat="47.94183" lon="7.17913">
        <ele>437.43319702</ele>
        <time>2021-06-17T08:50:29Z</time>
      </trkpt>
      <trkpt lat="47.94173" lon="7.17903">
        <ele>437.43319702</ele>
        <time>2021-06-17T08:50:30Z</time>
      </trkpt>
      <trkpt lat="47.94165" lon="7.17891">
        <ele>437.43319702</ele>
        <time>2021-06-17T08:50:31Z</time>
      </trkpt>
      <trkpt lat="47.94156" lon="7.17882">
        <ele>437.43319702</ele>
        <time>2021-06-17T08:50:32Z</time>
      </trkpt>
      <trkpt lat="47.94146" lon="7.17873">
        <ele>437.43319702</ele>
        <time>2021-06-17T08:50:33Z</time>
      </trkpt>
      <trkpt lat="47.94137" lon="7.17863">
        <ele>436.39813232</ele>
        <time>2021-06-17T08:50:34Z</time>
      </trkpt>
      <trkpt lat="47.94128" lon="7.17853">
        <ele>436.39813232</ele>
        <time>2021-06-17T08:50:35Z</time>
      </trkpt>
      <trkpt lat="47.9412" lon="7.17844">
        <ele>436.39813232</ele>
        <time>2021-06-17T08:50:36Z</time>
      </trkpt>
      <trkpt lat="47.94112" lon="7.17835">
        <ele>436.39813232</ele>
        <time>2021-06-17T08:50:37Z</time>
      </trkpt>
      <trkpt lat="47.94104" lon="7.17826">
        <ele>436.39813232</ele>
        <time>2021-06-17T08:50:38Z</time>
      </trkpt>
      <trkpt lat="47.94097" lon="7.17818">
        <ele>436.39813232</ele>
        <time>2021-06-17T08:50:39Z</time>
      </trkpt>
      <trkpt lat="47.94088" lon="7.17809">
        <ele>436.39813232</ele>
        <time>2021-06-17T08:50:40Z</time>
      </trkpt>
      <trkpt lat="47.9408" lon="7.178">
        <ele>435.38171387</ele>
        <time>2021-06-17T08:50:41Z</time>
      </trkpt>
      <trkpt lat="47.94072" lon="7.17786">
        <ele>435.38171387</ele>
        <time>2021-06-17T08:50:43Z</time>
      </trkpt>
      <trkpt lat="47.94062" lon="7.17764">
        <ele>435.38171387</ele>
        <time>2021-06-17T08:50:45Z</time>
      </trkpt>
      <trkpt lat="47.94053" lon="7.17742">
        <ele>434.3921814</ele>
        <time>2021-06-17T08:50:47Z</time>
      </trkpt>
      <trkpt lat="47.94045" lon="7.17725">
        <ele>434.3921814</ele>
        <time>2021-06-17T08:50:48Z</time>
      </trkpt>
      <trkpt lat="47.94039" lon="7.17714">
        <ele>433.03598022</ele>
        <time>2021-06-17T08:50:49Z</time>
      </trkpt>
      <trkpt lat="47.94034" lon="7.17702">
        <ele>433.03598022</ele>
        <time>2021-06-17T08:50:50Z</time>
      </trkpt>
      <trkpt lat="47.9403" lon="7.1769">
        <ele>433.03598022</ele>
        <time>2021-06-17T08:50:51Z</time>
      </trkpt>
      <trkpt lat="47.94025" lon="7.17676">
        <ele>431.7142334</ele>
        <time>2021-06-17T08:50:52Z</time>
      </trkpt>
      <trkpt lat="47.94023" lon="7.17663">
        <ele>431.7142334</ele>
        <time>2021-06-17T08:50:53Z</time>
      </trkpt>
      <trkpt lat="47.94021" lon="7.17649">
        <ele>430.37142944</ele>
        <time>2021-06-17T08:50:54Z</time>
      </trkpt>
      <trkpt lat="47.94018" lon="7.17631">
        <ele>429.13327026</ele>
        <time>2021-06-17T08:50:56Z</time>
      </trkpt>
      <trkpt lat="47.94016" lon="7.17611">
        <ele>429.13327026</ele>
        <time>2021-06-17T08:50:57Z</time>
      </trkpt>
      <trkpt lat="47.94014" lon="7.17595">
        <ele>427.92956543</ele>
        <time>2021-06-17T08:50:59Z</time>
      </trkpt>
      <trkpt lat="47.94013" lon="7.17578">
        <ele>426.74365234</ele>
        <time>2021-06-17T08:51:01Z</time>
      </trkpt>
      <trkpt lat="47.94011" lon="7.17564">
        <ele>426.74365234</ele>
        <time>2021-06-17T08:51:04Z</time>
      </trkpt>
      <trkpt lat="47.94006" lon="7.17552">
        <ele>425.58035278</ele>
        <time>2021-06-17T08:51:06Z</time>
      </trkpt>
      <trkpt lat="47.94006" lon="7.17537">
        <ele>425.58035278</ele>
        <time>2021-06-17T08:51:09Z</time>
      </trkpt>
      <trkpt lat="47.94012" lon="7.17522">
        <ele>425.58035278</ele>
        <time>2021-06-17T08:51:13Z</time>
      </trkpt>
      <trkpt lat="47.94015" lon="7.17515">
        <ele>424.54949951</ele>
        <time>2021-06-17T08:51:14Z</time>
      </trkpt>
      <trkpt lat="47.94015" lon="7.17507">
        <ele>424.54949951</ele>
        <time>2021-06-17T08:51:19Z</time>
      </trkpt>
      <trkpt lat="47.94017" lon="7.17492">
        <ele>424.54949951</ele>
        <time>2021-06-17T08:51:24Z</time>
      </trkpt>
      <trkpt lat="47.94018" lon="7.17476">
        <ele>424.54949951</ele>
        <time>2021-06-17T08:51:28Z</time>
      </trkpt>
      <trkpt lat="47.94021" lon="7.17462">
        <ele>425.30404663</ele>
        <time>2021-06-17T08:51:31Z</time>
      </trkpt>
      <trkpt lat="47.94024" lon="7.17448">
        <ele>425.30404663</ele>
        <time>2021-06-17T08:51:34Z</time>
      </trkpt>
      <trkpt lat="47.94026" lon="7.17432">
        <ele>425.30404663</ele>
        <time>2021-06-17T08:51:37Z</time>
      </trkpt>
      <trkpt lat="47.94029" lon="7.17416">
        <ele>425.30404663</ele>
        <time>2021-06-17T08:51:40Z</time>
      </trkpt>
      <trkpt lat="47.94033" lon="7.17402">
        <ele>425.30404663</ele>
        <time>2021-06-17T08:51:43Z</time>
      </trkpt>
      <trkpt lat="47.94037" lon="7.17385">
        <ele>425.30404663</ele>
        <time>2021-06-17T08:51:46Z</time>
      </trkpt>
      <trkpt lat="47.94038" lon="7.17364">
        <ele>426.35797119</ele>
        <time>2021-06-17T08:51:49Z</time>
      </trkpt>
      <trkpt lat="47.94038" lon="7.17345">
        <ele>426.35797119</ele>
        <time>2021-06-17T08:51:51Z</time>
      </trkpt>
      <trkpt lat="47.94036" lon="7.17328">
        <ele>426.35797119</ele>
        <time>2021-06-17T08:51:53Z</time>
      </trkpt>
      <trkpt lat="47.94035" lon="7.17312">
        <ele>426.35797119</ele>
        <time>2021-06-17T08:51:55Z</time>
      </trkpt>
      <trkpt lat="47.94033" lon="7.17296">
        <ele>426.35797119</ele>
        <time>2021-06-17T08:51:57Z</time>
      </trkpt>
      <trkpt lat="47.94032" lon="7.17279">
        <ele>426.35797119</ele>
        <time>2021-06-17T08:51:59Z</time>
      </trkpt>
      <trkpt lat="47.94031" lon="7.17264">
        <ele>426.35797119</ele>
        <time>2021-06-17T08:52:01Z</time>
      </trkpt>
      <trkpt lat="47.94029" lon="7.17248">
        <ele>426.35797119</ele>
        <time>2021-06-17T08:52:03Z</time>
      </trkpt>
      <trkpt lat="47.94027" lon="7.17233">
        <ele>426.35797119</ele>
        <time>2021-06-17T08:52:05Z</time>
      </trkpt>
      <trkpt lat="47.94027" lon="7.17216">
        <ele>426.35797119</ele>
        <time>2021-06-17T08:52:08Z</time>
      </trkpt>
      <trkpt lat="47.94026" lon="7.17198">
        <ele>426.35797119</ele>
        <time>2021-06-17T08:52:10Z</time>
      </trkpt>
      <trkpt lat="47.94025" lon="7.17183">
        <ele>426.35797119</ele>
        <time>2021-06-17T08:52:12Z</time>
      </trkpt>
      <trkpt lat="47.94024" lon="7.17165">
        <ele>427.05505371</ele>
        <time>2021-06-17T08:52:14Z</time>
      </trkpt>
      <trkpt lat="47.94024" lon="7.17152">
        <ele>427.05505371</ele>
        <time>2021-06-17T08:52:16Z</time>
      </trkpt>
      <trkpt lat="47.94023" lon="7.17137">
        <ele>427.05505371</ele>
        <time>2021-06-17T08:52:18Z</time>
      </trkpt>
      <trkpt lat="47.94024" lon="7.17123">
        <ele>427.05505371</ele>
        <time>2021-06-17T08:52:20Z</time>
      </trkpt>
      <trkpt lat="47.94027" lon="7.17108">
        <ele>427.05505371</ele>
        <time>2021-06-17T08:52:23Z</time>
      </trkpt>
      <trkpt lat="47.94029" lon="7.17092">
        <ele>427.05505371</ele>
        <time>2021-06-17T08:52:26Z</time>
      </trkpt>
      <trkpt lat="47.94032" lon="7.17076">
        <ele>427.62036133</ele>
        <time>2021-06-17T08:52:29Z</time>
      </trkpt>
      <trkpt lat="47.94037" lon="7.17063">
        <ele>427.62036133</ele>
        <time>2021-06-17T08:52:32Z</time>
      </trkpt>
      <trkpt lat="47.94041" lon="7.17049">
        <ele>428.9848938</ele>
        <time>2021-06-17T08:52:35Z</time>
      </trkpt>
      <trkpt lat="47.94045" lon="7.17033">
        <ele>428.9848938</ele>
        <time>2021-06-17T08:52:38Z</time>
      </trkpt>
      <trkpt lat="47.94048" lon="7.17018">
        <ele>428.9848938</ele>
        <time>2021-06-17T08:52:41Z</time>
      </trkpt>
      <trkpt lat="47.94052" lon="7.17003">
        <ele>428.9848938</ele>
        <time>2021-06-17T08:52:44Z</time>
      </trkpt>
      <trkpt lat="47.94058" lon="7.16989">
        <ele>430.13647461</ele>
        <time>2021-06-17T08:52:48Z</time>
      </trkpt>
      <trkpt lat="47.94061" lon="7.16972">
        <ele>430.13647461</ele>
        <time>2021-06-17T08:52:50Z</time>
      </trkpt>
      <trkpt lat="47.94064" lon="7.16956">
        <ele>430.13647461</ele>
        <time>2021-06-17T08:52:53Z</time>
      </trkpt>
      <trkpt lat="47.94066" lon="7.16937">
        <ele>430.13647461</ele>
        <time>2021-06-17T08:52:56Z</time>
      </trkpt>
      <trkpt lat="47.94068" lon="7.1692">
        <ele>431.04263306</ele>
        <time>2021-06-17T08:52:58Z</time>
      </trkpt>
      <trkpt lat="47.94068" lon="7.16905">
        <ele>431.04263306</ele>
        <time>2021-06-17T08:53:00Z</time>
      </trkpt>
      <trkpt lat="47.94072" lon="7.16891">
        <ele>431.04263306</ele>
        <time>2021-06-17T08:53:03Z</time>
      </trkpt>
      <trkpt lat="47.94074" lon="7.16875">
        <ele>431.04263306</ele>
        <time>2021-06-17T08:53:05Z</time>
      </trkpt>
      <trkpt lat="47.94075" lon="7.16858">
        <ele>431.04263306</ele>
        <time>2021-06-17T08:53:07Z</time>
      </trkpt>
      <trkpt lat="47.94076" lon="7.16843">
        <ele>431.04263306</ele>
        <time>2021-06-17T08:53:09Z</time>
      </trkpt>
      <trkpt lat="47.94079" lon="7.16829">
        <ele>431.04263306</ele>
        <time>2021-06-17T08:53:11Z</time>
      </trkpt>
      <trkpt lat="47.94085" lon="7.16811">
        <ele>431.67416382</ele>
        <time>2021-06-17T08:53:14Z</time>
      </trkpt>
      <trkpt lat="47.94087" lon="7.16801">
        <ele>431.67416382</ele>
        <time>2021-06-17T08:53:17Z</time>
      </trkpt>
      <trkpt lat="47.94088" lon="7.16785">
        <ele>431.67416382</ele>
        <time>2021-06-17T08:53:20Z</time>
      </trkpt>
      <trkpt lat="47.94087" lon="7.16768">
        <ele>431.67416382</ele>
        <time>2021-06-17T08:53:22Z</time>
      </trkpt>
      <trkpt lat="47.94085" lon="7.16753">
        <ele>431.67416382</ele>
        <time>2021-06-17T08:53:24Z</time>
      </trkpt>
      <trkpt lat="47.94085" lon="7.16739">
        <ele>431.67416382</ele>
        <time>2021-06-17T08:53:26Z</time>
      </trkpt>
      <trkpt lat="47.94083" lon="7.16724">
        <ele>431.67416382</ele>
        <time>2021-06-17T08:53:28Z</time>
      </trkpt>
      <trkpt lat="47.94082" lon="7.16708">
        <ele>431.67416382</ele>
        <time>2021-06-17T08:53:30Z</time>
      </trkpt>
      <trkpt lat="47.94082" lon="7.16693">
        <ele>431.67416382</ele>
        <time>2021-06-17T08:53:32Z</time>
      </trkpt>
      <trkpt lat="47.94083" lon="7.16678">
        <ele>431.67416382</ele>
        <time>2021-06-17T08:53:34Z</time>
      </trkpt>
      <trkpt lat="47.94082" lon="7.16662">
        <ele>431.67416382</ele>
        <time>2021-06-17T08:53:36Z</time>
      </trkpt>
      <trkpt lat="47.94082" lon="7.16645">
        <ele>431.53485107</ele>
        <time>2021-06-17T08:53:38Z</time>
      </trkpt>
      <trkpt lat="47.9408" lon="7.16628">
        <ele>431.53485107</ele>
        <time>2021-06-17T08:53:40Z</time>
      </trkpt>
      <trkpt lat="47.94078" lon="7.16612">
        <ele>431.53485107</ele>
        <time>2021-06-17T08:53:42Z</time>
      </trkpt>
      <trkpt lat="47.94078" lon="7.16594">
        <ele>431.53485107</ele>
        <time>2021-06-17T08:53:44Z</time>
      </trkpt>
      <trkpt lat="47.94078" lon="7.16577">
        <ele>431.53485107</ele>
        <time>2021-06-17T08:53:46Z</time>
      </trkpt>
      <trkpt lat="47.94076" lon="7.16559">
        <ele>431.53485107</ele>
        <time>2021-06-17T08:53:48Z</time>
      </trkpt>
      <trkpt lat="47.94076" lon="7.1654">
        <ele>431.53485107</ele>
        <time>2021-06-17T08:53:50Z</time>
      </trkpt>
      <trkpt lat="47.94077" lon="7.16524">
        <ele>430.33984375</ele>
        <time>2021-06-17T08:53:52Z</time>
      </trkpt>
      <trkpt lat="47.94078" lon="7.16507">
        <ele>430.33984375</ele>
        <time>2021-06-17T08:53:54Z</time>
      </trkpt>
      <trkpt lat="47.94076" lon="7.1649">
        <ele>430.33984375</ele>
        <time>2021-06-17T08:53:56Z</time>
      </trkpt>
      <trkpt lat="47.94076" lon="7.16474">
        <ele>430.33984375</ele>
        <time>2021-06-17T08:53:58Z</time>
      </trkpt>
      <trkpt lat="47.94077" lon="7.16459">
        <ele>430.33984375</ele>
        <time>2021-06-17T08:54:00Z</time>
      </trkpt>
      <trkpt lat="47.9408" lon="7.16443">
        <ele>430.33984375</ele>
        <time>2021-06-17T08:54:03Z</time>
      </trkpt>
      <trkpt lat="47.94084" lon="7.16426">
        <ele>430.33984375</ele>
        <time>2021-06-17T08:54:06Z</time>
      </trkpt>
      <trkpt lat="47.9409" lon="7.16412">
        <ele>430.33984375</ele>
        <time>2021-06-17T08:54:08Z</time>
      </trkpt>
      <trkpt lat="47.94096" lon="7.164">
        <ele>430.33984375</ele>
        <time>2021-06-17T08:54:10Z</time>
      </trkpt>
      <trkpt lat="47.94101" lon="7.16387">
        <ele>430.00491333</ele>
        <time>2021-06-17T08:54:13Z</time>
      </trkpt>
      <trkpt lat="47.94107" lon="7.16376">
        <ele>430.86306763</ele>
        <time>2021-06-17T08:54:14Z</time>
      </trkpt>
      <trkpt lat="47.94111" lon="7.16364">
        <ele>430.86306763</ele>
        <time>2021-06-17T08:54:17Z</time>
      </trkpt>
      <trkpt lat="47.94116" lon="7.16348">
        <ele>430.86306763</ele>
        <time>2021-06-17T08:54:20Z</time>
      </trkpt>
      <trkpt lat="47.9412" lon="7.1633">
        <ele>430.86306763</ele>
        <time>2021-06-17T08:54:23Z</time>
      </trkpt>
      <trkpt lat="47.94122" lon="7.16312">
        <ele>431.43405151</ele>
        <time>2021-06-17T08:54:26Z</time>
      </trkpt>
      <trkpt lat="47.94125" lon="7.16298">
        <ele>431.43405151</ele>
        <time>2021-06-17T08:54:29Z</time>
      </trkpt>
      <trkpt lat="47.94128" lon="7.16284">
        <ele>431.43405151</ele>
        <time>2021-06-17T08:54:32Z</time>
      </trkpt>
      <trkpt lat="47.94126" lon="7.16268">
        <ele>431.43405151</ele>
        <time>2021-06-17T08:54:34Z</time>
      </trkpt>
      <trkpt lat="47.94124" lon="7.16251">
        <ele>431.43405151</ele>
        <time>2021-06-17T08:54:37Z</time>
      </trkpt>
      <trkpt lat="47.94122" lon="7.16233">
        <ele>432.5652771</ele>
        <time>2021-06-17T08:54:40Z</time>
      </trkpt>
      <trkpt lat="47.9412" lon="7.16217">
        <ele>432.5652771</ele>
        <time>2021-06-17T08:54:42Z</time>
      </trkpt>
      <trkpt lat="47.94117" lon="7.16203">
        <ele>432.5652771</ele>
        <time>2021-06-17T08:54:44Z</time>
      </trkpt>
      <trkpt lat="47.94116" lon="7.16189">
        <ele>432.5652771</ele>
        <time>2021-06-17T08:54:47Z</time>
      </trkpt>
      <trkpt lat="47.94117" lon="7.16172">
        <ele>432.5652771</ele>
        <time>2021-06-17T08:54:50Z</time>
      </trkpt>
      <trkpt lat="47.9412" lon="7.16156">
        <ele>432.5652771</ele>
        <time>2021-06-17T08:54:53Z</time>
      </trkpt>
      <trkpt lat="47.94126" lon="7.16143">
        <ele>433.43878174</ele>
        <time>2021-06-17T08:54:56Z</time>
      </trkpt>
      <trkpt lat="47.94132" lon="7.1613">
        <ele>433.43878174</ele>
        <time>2021-06-17T08:54:59Z</time>
      </trkpt>
      <trkpt lat="47.94136" lon="7.16116">
        <ele>433.43878174</ele>
        <time>2021-06-17T08:55:02Z</time>
      </trkpt>
      <trkpt lat="47.94134" lon="7.161">
        <ele>433.43878174</ele>
        <time>2021-06-17T08:55:04Z</time>
      </trkpt>
      <trkpt lat="47.9413" lon="7.16085">
        <ele>433.43878174</ele>
        <time>2021-06-17T08:55:07Z</time>
      </trkpt>
      <trkpt lat="47.94127" lon="7.16068">
        <ele>433.43878174</ele>
        <time>2021-06-17T08:55:09Z</time>
      </trkpt>
      <trkpt lat="47.94123" lon="7.16053">
        <ele>433.43878174</ele>
        <time>2021-06-17T08:55:12Z</time>
      </trkpt>
      <trkpt lat="47.9412" lon="7.16039">
        <ele>434.38223267</ele>
        <time>2021-06-17T08:55:14Z</time>
      </trkpt>
      <trkpt lat="47.9412" lon="7.16025">
        <ele>434.38223267</ele>
        <time>2021-06-17T08:55:17Z</time>
      </trkpt>
      <trkpt lat="47.94124" lon="7.16008">
        <ele>434.38223267</ele>
        <time>2021-06-17T08:55:20Z</time>
      </trkpt>
      <trkpt lat="47.94128" lon="7.1599">
        <ele>434.38223267</ele>
        <time>2021-06-17T08:55:23Z</time>
      </trkpt>
      <trkpt lat="47.94132" lon="7.15973">
        <ele>434.38223267</ele>
        <time>2021-06-17T08:55:26Z</time>
      </trkpt>
      <trkpt lat="47.94138" lon="7.15957">
        <ele>434.64575195</ele>
        <time>2021-06-17T08:55:29Z</time>
      </trkpt>
      <trkpt lat="47.94143" lon="7.1594">
        <ele>434.64575195</ele>
        <time>2021-06-17T08:55:32Z</time>
      </trkpt>
      <trkpt lat="47.94146" lon="7.15924">
        <ele>434.64575195</ele>
        <time>2021-06-17T08:55:35Z</time>
      </trkpt>
      <trkpt lat="47.94148" lon="7.15906">
        <ele>435.90383911</ele>
        <time>2021-06-17T08:55:38Z</time>
      </trkpt>
      <trkpt lat="47.94144" lon="7.15888">
        <ele>435.90383911</ele>
        <time>2021-06-17T08:55:40Z</time>
      </trkpt>
      <trkpt lat="47.94141" lon="7.15875">
        <ele>435.90383911</ele>
        <time>2021-06-17T08:55:43Z</time>
      </trkpt>
      <trkpt lat="47.94136" lon="7.15862">
        <ele>435.90383911</ele>
        <time>2021-06-17T08:55:47Z</time>
      </trkpt>
      <trkpt lat="47.94132" lon="7.15848">
        <ele>436.89111328</ele>
        <time>2021-06-17T08:55:53Z</time>
      </trkpt>
      <trkpt lat="47.94136" lon="7.15843">
        <ele>438.11471558</ele>
        <time>2021-06-17T08:56:46Z</time>
      </trkpt>
      <trkpt lat="47.94137" lon="7.1585">
        <ele>438.11471558</ele>
        <time>2021-06-17T08:56:54Z</time>
      </trkpt>
      <trkpt lat="47.94136" lon="7.15827">
        <ele>438.11471558</ele>
        <time>2021-06-17T08:56:59Z</time>
      </trkpt>
      <trkpt lat="47.94138" lon="7.15813">
        <ele>438.11471558</ele>
        <time>2021-06-17T08:57:03Z</time>
      </trkpt>
      <trkpt lat="47.94139" lon="7.15798">
        <ele>438.11471558</ele>
        <time>2021-06-17T08:57:09Z</time>
      </trkpt>
      <trkpt lat="47.94138" lon="7.1578">
        <ele>438.11471558</ele>
        <time>2021-06-17T08:57:13Z</time>
      </trkpt>
      <trkpt lat="47.94138" lon="7.15769">
        <ele>438.14859009</ele>
        <time>2021-06-17T08:57:14Z</time>
      </trkpt>
      <trkpt lat="47.94137" lon="7.15759">
        <ele>438.14859009</ele>
        <time>2021-06-17T08:57:17Z</time>
      </trkpt>
      <trkpt lat="47.94137" lon="7.15743">
        <ele>438.14859009</ele>
        <time>2021-06-17T08:57:20Z</time>
      </trkpt>
      <trkpt lat="47.94141" lon="7.1573">
        <ele>438.14859009</ele>
        <time>2021-06-17T08:57:23Z</time>
      </trkpt>
      <trkpt lat="47.94145" lon="7.15716">
        <ele>438.14859009</ele>
        <time>2021-06-17T08:57:27Z</time>
      </trkpt>
      <trkpt lat="47.94148" lon="7.157">
        <ele>438.14859009</ele>
        <time>2021-06-17T08:57:31Z</time>
      </trkpt>
      <trkpt lat="47.94152" lon="7.15686">
        <ele>438.87585449</ele>
        <time>2021-06-17T08:57:35Z</time>
      </trkpt>
      <trkpt lat="47.94155" lon="7.15674">
        <ele>438.87585449</ele>
        <time>2021-06-17T08:57:39Z</time>
      </trkpt>
      <trkpt lat="47.94157" lon="7.15656">
        <ele>438.87585449</ele>
        <time>2021-06-17T08:57:42Z</time>
      </trkpt>
      <trkpt lat="47.94162" lon="7.15641">
        <ele>438.87585449</ele>
        <time>2021-06-17T08:57:46Z</time>
      </trkpt>
      <trkpt lat="47.94168" lon="7.15628">
        <ele>438.87585449</ele>
        <time>2021-06-17T08:57:49Z</time>
      </trkpt>
      <trkpt lat="47.94174" lon="7.15614">
        <ele>438.87585449</ele>
        <time>2021-06-17T08:57:52Z</time>
      </trkpt>
      <trkpt lat="47.94179" lon="7.15599">
        <ele>440.29507446</ele>
        <time>2021-06-17T08:57:55Z</time>
      </trkpt>
      <trkpt lat="47.94184" lon="7.15587">
        <ele>440.29507446</ele>
        <time>2021-06-17T08:57:58Z</time>
      </trkpt>
      <trkpt lat="47.9419" lon="7.15572">
        <ele>440.29507446</ele>
        <time>2021-06-17T08:58:01Z</time>
      </trkpt>
      <trkpt lat="47.94193" lon="7.15557">
        <ele>440.29507446</ele>
        <time>2021-06-17T08:58:04Z</time>
      </trkpt>
      <trkpt lat="47.942" lon="7.15545">
        <ele>441.20581055</ele>
        <time>2021-06-17T08:58:07Z</time>
      </trkpt>
      <trkpt lat="47.94207" lon="7.15533">
        <ele>441.20581055</ele>
        <time>2021-06-17T08:58:10Z</time>
      </trkpt>
      <trkpt lat="47.94214" lon="7.15521">
        <ele>441.20581055</ele>
        <time>2021-06-17T08:58:13Z</time>
      </trkpt>
      <trkpt lat="47.94218" lon="7.15513">
        <ele>442.05456543</ele>
        <time>2021-06-17T08:58:14Z</time>
      </trkpt>
      <trkpt lat="47.94224" lon="7.15508">
        <ele>442.05456543</ele>
        <time>2021-06-17T08:58:18Z</time>
      </trkpt>
      <trkpt lat="47.94229" lon="7.15493">
        <ele>442.05456543</ele>
        <time>2021-06-17T08:58:21Z</time>
      </trkpt>
      <trkpt lat="47.94236" lon="7.15485">
        <ele>443.05075073</ele>
        <time>2021-06-17T08:58:24Z</time>
      </trkpt>
      <trkpt lat="47.9424" lon="7.15472">
        <ele>443.05075073</ele>
        <time>2021-06-17T08:58:27Z</time>
      </trkpt>
      <trkpt lat="47.94244" lon="7.15459">
        <ele>443.05075073</ele>
        <time>2021-06-17T08:58:30Z</time>
      </trkpt>
      <trkpt lat="47.94248" lon="7.15446">
        <ele>443.05075073</ele>
        <time>2021-06-17T08:58:33Z</time>
      </trkpt>
      <trkpt lat="47.94251" lon="7.15434">
        <ele>443.05075073</ele>
        <time>2021-06-17T08:58:36Z</time>
      </trkpt>
      <trkpt lat="47.94253" lon="7.15418">
        <ele>444.03720093</ele>
        <time>2021-06-17T08:58:39Z</time>
      </trkpt>
      <trkpt lat="47.94256" lon="7.15403">
        <ele>444.03720093</ele>
        <time>2021-06-17T08:58:43Z</time>
      </trkpt>
      <trkpt lat="47.94259" lon="7.15386">
        <ele>444.03720093</ele>
        <time>2021-06-17T08:58:46Z</time>
      </trkpt>
      <trkpt lat="47.94265" lon="7.15374">
        <ele>444.99468994</ele>
        <time>2021-06-17T08:58:50Z</time>
      </trkpt>
      <trkpt lat="47.94271" lon="7.15359">
        <ele>444.99468994</ele>
        <time>2021-06-17T08:58:54Z</time>
      </trkpt>
      <trkpt lat="47.94273" lon="7.15343">
        <ele>446.20629883</ele>
        <time>2021-06-17T08:58:57Z</time>
      </trkpt>
      <trkpt lat="47.94276" lon="7.15328">
        <ele>446.20629883</ele>
        <time>2021-06-17T08:59:00Z</time>
      </trkpt>
      <trkpt lat="47.94278" lon="7.15313">
        <ele>447.23855591</ele>
        <time>2021-06-17T08:59:03Z</time>
      </trkpt>
      <trkpt lat="47.94281" lon="7.15301">
        <ele>447.23855591</ele>
        <time>2021-06-17T08:59:06Z</time>
      </trkpt>
      <trkpt lat="47.94283" lon="7.15286">
        <ele>448.26727295</ele>
        <time>2021-06-17T08:59:10Z</time>
      </trkpt>
      <trkpt lat="47.94282" lon="7.15267">
        <ele>448.26727295</ele>
        <time>2021-06-17T08:59:13Z</time>
      </trkpt>
      <trkpt lat="47.94281" lon="7.15255">
        <ele>449.03186035</ele>
        <time>2021-06-17T08:59:14Z</time>
      </trkpt>
      <trkpt lat="47.9428" lon="7.15244">
        <ele>449.03186035</ele>
        <time>2021-06-17T08:59:17Z</time>
      </trkpt>
      <trkpt lat="47.94279" lon="7.15226">
        <ele>449.03186035</ele>
        <time>2021-06-17T08:59:20Z</time>
      </trkpt>
      <trkpt lat="47.94276" lon="7.15209">
        <ele>449.03186035</ele>
        <time>2021-06-17T08:59:23Z</time>
      </trkpt>
      <trkpt lat="47.94272" lon="7.15194">
        <ele>449.03186035</ele>
        <time>2021-06-17T08:59:27Z</time>
      </trkpt>
      <trkpt lat="47.9427" lon="7.15177">
        <ele>449.03186035</ele>
        <time>2021-06-17T08:59:30Z</time>
      </trkpt>
      <trkpt lat="47.9427" lon="7.1516">
        <ele>449.03186035</ele>
        <time>2021-06-17T08:59:33Z</time>
      </trkpt>
      <trkpt lat="47.94268" lon="7.15145">
        <ele>449.03186035</ele>
        <time>2021-06-17T08:59:36Z</time>
      </trkpt>
      <trkpt lat="47.94269" lon="7.15127">
        <ele>449.03186035</ele>
        <time>2021-06-17T08:59:39Z</time>
      </trkpt>
      <trkpt lat="47.94269" lon="7.1511">
        <ele>449.03186035</ele>
        <time>2021-06-17T08:59:41Z</time>
      </trkpt>
      <trkpt lat="47.94267" lon="7.15095">
        <ele>449.03186035</ele>
        <time>2021-06-17T08:59:44Z</time>
      </trkpt>
      <trkpt lat="47.94267" lon="7.15079">
        <ele>449.03186035</ele>
        <time>2021-06-17T08:59:47Z</time>
      </trkpt>
      <trkpt lat="47.94267" lon="7.15063">
        <ele>449.03186035</ele>
        <time>2021-06-17T08:59:50Z</time>
      </trkpt>
      <trkpt lat="47.94265" lon="7.15049">
        <ele>449.03186035</ele>
        <time>2021-06-17T08:59:53Z</time>
      </trkpt>
      <trkpt lat="47.94262" lon="7.15036">
        <ele>449.03186035</ele>
        <time>2021-06-17T08:59:57Z</time>
      </trkpt>
      <trkpt lat="47.94261" lon="7.1502">
        <ele>449.16970825</ele>
        <time>2021-06-17T09:00:01Z</time>
      </trkpt>
      <trkpt lat="47.94268" lon="7.15006">
        <ele>449.16970825</ele>
        <time>2021-06-17T09:00:04Z</time>
      </trkpt>
      <trkpt lat="47.94274" lon="7.14995">
        <ele>449.16970825</ele>
        <time>2021-06-17T09:00:07Z</time>
      </trkpt>
      <trkpt lat="47.94282" lon="7.14984">
        <ele>450.94122314</ele>
        <time>2021-06-17T09:00:11Z</time>
      </trkpt>
      <trkpt lat="47.94292" lon="7.14966">
        <ele>451.94827271</ele>
        <time>2021-06-17T09:00:14Z</time>
      </trkpt>
      <trkpt lat="47.94294" lon="7.14957">
        <ele>451.94827271</ele>
        <time>2021-06-17T09:00:17Z</time>
      </trkpt>
      <trkpt lat="47.943" lon="7.14947">
        <ele>451.94827271</ele>
        <time>2021-06-17T09:00:20Z</time>
      </trkpt>
      <trkpt lat="47.94305" lon="7.14936">
        <ele>452.86550903</ele>
        <time>2021-06-17T09:00:23Z</time>
      </trkpt>
      <trkpt lat="47.94311" lon="7.14926">
        <ele>452.86550903</ele>
        <time>2021-06-17T09:00:26Z</time>
      </trkpt>
      <trkpt lat="47.94316" lon="7.14914">
        <ele>452.86550903</ele>
        <time>2021-06-17T09:00:29Z</time>
      </trkpt>
      <trkpt lat="47.94321" lon="7.149">
        <ele>453.93289185</ele>
        <time>2021-06-17T09:00:32Z</time>
      </trkpt>
      <trkpt lat="47.94325" lon="7.14884">
        <ele>453.93289185</ele>
        <time>2021-06-17T09:00:35Z</time>
      </trkpt>
      <trkpt lat="47.9433" lon="7.14869">
        <ele>453.93289185</ele>
        <time>2021-06-17T09:00:38Z</time>
      </trkpt>
      <trkpt lat="47.94333" lon="7.14854">
        <ele>453.93289185</ele>
        <time>2021-06-17T09:00:41Z</time>
      </trkpt>
      <trkpt lat="47.94338" lon="7.1484">
        <ele>453.93289185</ele>
        <time>2021-06-17T09:00:44Z</time>
      </trkpt>
      <trkpt lat="47.94342" lon="7.14825">
        <ele>453.93289185</ele>
        <time>2021-06-17T09:00:47Z</time>
      </trkpt>
      <trkpt lat="47.94346" lon="7.1481">
        <ele>453.93289185</ele>
        <time>2021-06-17T09:00:49Z</time>
      </trkpt>
      <trkpt lat="47.94352" lon="7.14797">
        <ele>453.93289185</ele>
        <time>2021-06-17T09:00:52Z</time>
      </trkpt>
      <trkpt lat="47.9436" lon="7.14784">
        <ele>455.1071167</ele>
        <time>2021-06-17T09:00:55Z</time>
      </trkpt>
      <trkpt lat="47.94365" lon="7.14768">
        <ele>455.1071167</ele>
        <time>2021-06-17T09:00:57Z</time>
      </trkpt>
      <trkpt lat="47.94371" lon="7.14757">
        <ele>455.1071167</ele>
        <time>2021-06-17T09:01:00Z</time>
      </trkpt>
      <trkpt lat="47.94376" lon="7.14741">
        <ele>455.1071167</ele>
        <time>2021-06-17T09:01:02Z</time>
      </trkpt>
      <trkpt lat="47.94381" lon="7.14727">
        <ele>455.1071167</ele>
        <time>2021-06-17T09:01:05Z</time>
      </trkpt>
      <trkpt lat="47.94389" lon="7.14713">
        <ele>455.1071167</ele>
        <time>2021-06-17T09:01:08Z</time>
      </trkpt>
      <trkpt lat="47.94395" lon="7.14699">
        <ele>455.96755981</ele>
        <time>2021-06-17T09:01:11Z</time>
      </trkpt>
      <trkpt lat="47.94404" lon="7.14677">
        <ele>456.55831909</ele>
        <time>2021-06-17T09:01:14Z</time>
      </trkpt>
      <trkpt lat="47.94407" lon="7.14667">
        <ele>456.55831909</ele>
        <time>2021-06-17T09:01:17Z</time>
      </trkpt>
      <trkpt lat="47.94411" lon="7.14651">
        <ele>456.55831909</ele>
        <time>2021-06-17T09:01:20Z</time>
      </trkpt>
      <trkpt lat="47.94415" lon="7.14635">
        <ele>457.27560425</ele>
        <time>2021-06-17T09:01:23Z</time>
      </trkpt>
      <trkpt lat="47.94418" lon="7.14617">
        <ele>457.27560425</ele>
        <time>2021-06-17T09:01:26Z</time>
      </trkpt>
      <trkpt lat="47.94421" lon="7.14601">
        <ele>457.27560425</ele>
        <time>2021-06-17T09:01:28Z</time>
      </trkpt>
      <trkpt lat="47.94424" lon="7.14587">
        <ele>458.28106689</ele>
        <time>2021-06-17T09:01:31Z</time>
      </trkpt>
      <trkpt lat="47.94429" lon="7.14573">
        <ele>458.28106689</ele>
        <time>2021-06-17T09:01:34Z</time>
      </trkpt>
      <trkpt lat="47.94434" lon="7.1456">
        <ele>458.28106689</ele>
        <time>2021-06-17T09:01:37Z</time>
      </trkpt>
      <trkpt lat="47.94438" lon="7.14547">
        <ele>458.28106689</ele>
        <time>2021-06-17T09:01:40Z</time>
      </trkpt>
      <trkpt lat="47.94444" lon="7.14532">
        <ele>458.28106689</ele>
        <time>2021-06-17T09:01:43Z</time>
      </trkpt>
      <trkpt lat="47.94448" lon="7.14516">
        <ele>459.40686035</ele>
        <time>2021-06-17T09:01:46Z</time>
      </trkpt>
      <trkpt lat="47.94452" lon="7.145">
        <ele>459.40686035</ele>
        <time>2021-06-17T09:01:49Z</time>
      </trkpt>
      <trkpt lat="47.94457" lon="7.14485">
        <ele>459.40686035</ele>
        <time>2021-06-17T09:01:52Z</time>
      </trkpt>
      <trkpt lat="47.94461" lon="7.14468">
        <ele>459.40686035</ele>
        <time>2021-06-17T09:01:55Z</time>
      </trkpt>
      <trkpt lat="47.94466" lon="7.14451">
        <ele>460.31323242</ele>
        <time>2021-06-17T09:01:58Z</time>
      </trkpt>
      <trkpt lat="47.94471" lon="7.14437">
        <ele>460.31323242</ele>
        <time>2021-06-17T09:02:01Z</time>
      </trkpt>
      <trkpt lat="47.94474" lon="7.14423">
        <ele>461.51275635</ele>
        <time>2021-06-17T09:02:04Z</time>
      </trkpt>
      <trkpt lat="47.94477" lon="7.14408">
        <ele>461.51275635</ele>
        <time>2021-06-17T09:02:07Z</time>
      </trkpt>
      <trkpt lat="47.9448" lon="7.14394">
        <ele>461.51275635</ele>
        <time>2021-06-17T09:02:10Z</time>
      </trkpt>
      <trkpt lat="47.94483" lon="7.14378">
        <ele>462.6602478</ele>
        <time>2021-06-17T09:02:13Z</time>
      </trkpt>
      <trkpt lat="47.94484" lon="7.14367">
        <ele>463.16070557</ele>
        <time>2021-06-17T09:02:14Z</time>
      </trkpt>
      <trkpt lat="47.94485" lon="7.14356">
        <ele>463.16070557</ele>
        <time>2021-06-17T09:02:17Z</time>
      </trkpt>
      <trkpt lat="47.94487" lon="7.14339">
        <ele>463.16070557</ele>
        <time>2021-06-17T09:02:20Z</time>
      </trkpt>
      <trkpt lat="47.94487" lon="7.14322">
        <ele>463.16070557</ele>
        <time>2021-06-17T09:02:23Z</time>
      </trkpt>
      <trkpt lat="47.94487" lon="7.14304">
        <ele>463.16070557</ele>
        <time>2021-06-17T09:02:26Z</time>
      </trkpt>
      <trkpt lat="47.94489" lon="7.14286">
        <ele>463.66610718</ele>
        <time>2021-06-17T09:02:29Z</time>
      </trkpt>
      <trkpt lat="47.9449" lon="7.14267">
        <ele>463.66610718</ele>
        <time>2021-06-17T09:02:32Z</time>
      </trkpt>
      <trkpt lat="47.9449" lon="7.14248">
        <ele>463.66610718</ele>
        <time>2021-06-17T09:02:35Z</time>
      </trkpt>
      <trkpt lat="47.94493" lon="7.14232">
        <ele>464.76010132</ele>
        <time>2021-06-17T09:02:38Z</time>
      </trkpt>
      <trkpt lat="47.94494" lon="7.14214">
        <ele>464.76010132</ele>
        <time>2021-06-17T09:02:41Z</time>
      </trkpt>
      <trkpt lat="47.94496" lon="7.14198">
        <ele>464.76010132</ele>
        <time>2021-06-17T09:02:45Z</time>
      </trkpt>
      <trkpt lat="47.945" lon="7.14182">
        <ele>464.76010132</ele>
        <time>2021-06-17T09:02:48Z</time>
      </trkpt>
      <trkpt lat="47.94503" lon="7.14168">
        <ele>465.88293457</ele>
        <time>2021-06-17T09:02:51Z</time>
      </trkpt>
      <trkpt lat="47.94507" lon="7.14152">
        <ele>465.88293457</ele>
        <time>2021-06-17T09:02:54Z</time>
      </trkpt>
      <trkpt lat="47.94507" lon="7.14136">
        <ele>465.88293457</ele>
        <time>2021-06-17T09:02:57Z</time>
      </trkpt>
      <trkpt lat="47.94507" lon="7.14117">
        <ele>465.88293457</ele>
        <time>2021-06-17T09:03:00Z</time>
      </trkpt>
      <trkpt lat="47.94505" lon="7.14103">
        <ele>466.71182251</ele>
        <time>2021-06-17T09:03:02Z</time>
      </trkpt>
      <trkpt lat="47.94506" lon="7.14089">
        <ele>466.71182251</ele>
        <time>2021-06-17T09:03:05Z</time>
      </trkpt>
      <trkpt lat="47.94508" lon="7.14071">
        <ele>466.71182251</ele>
        <time>2021-06-17T09:03:08Z</time>
      </trkpt>
      <trkpt lat="47.94512" lon="7.14057">
        <ele>466.71182251</ele>
        <time>2021-06-17T09:03:11Z</time>
      </trkpt>
      <trkpt lat="47.94516" lon="7.14035">
        <ele>467.83538818</ele>
        <time>2021-06-17T09:03:14Z</time>
      </trkpt>
      <trkpt lat="47.94517" lon="7.14024">
        <ele>467.83538818</ele>
        <time>2021-06-17T09:03:17Z</time>
      </trkpt>
      <trkpt lat="47.94518" lon="7.14008">
        <ele>467.83538818</ele>
        <time>2021-06-17T09:03:19Z</time>
      </trkpt>
      <trkpt lat="47.94519" lon="7.13992">
        <ele>467.83538818</ele>
        <time>2021-06-17T09:03:22Z</time>
      </trkpt>
      <trkpt lat="47.94519" lon="7.13974">
        <ele>467.83538818</ele>
        <time>2021-06-17T09:03:25Z</time>
      </trkpt>
      <trkpt lat="47.94521" lon="7.13957">
        <ele>468.88745117</ele>
        <time>2021-06-17T09:03:28Z</time>
      </trkpt>
      <trkpt lat="47.94521" lon="7.13942">
        <ele>468.88745117</ele>
        <time>2021-06-17T09:03:31Z</time>
      </trkpt>
      <trkpt lat="47.94521" lon="7.13926">
        <ele>468.88745117</ele>
        <time>2021-06-17T09:03:34Z</time>
      </trkpt>
      <trkpt lat="47.94524" lon="7.13913">
        <ele>469.91241455</ele>
        <time>2021-06-17T09:03:37Z</time>
      </trkpt>
      <trkpt lat="47.94526" lon="7.13898">
        <ele>469.91241455</ele>
        <time>2021-06-17T09:03:40Z</time>
      </trkpt>
      <trkpt lat="47.94526" lon="7.13882">
        <ele>470.95480347</ele>
        <time>2021-06-17T09:03:43Z</time>
      </trkpt>
      <trkpt lat="47.94526" lon="7.13864">
        <ele>470.95480347</ele>
        <time>2021-06-17T09:03:46Z</time>
      </trkpt>
      <trkpt lat="47.94527" lon="7.13846">
        <ele>470.95480347</ele>
        <time>2021-06-17T09:03:49Z</time>
      </trkpt>
      <trkpt lat="47.94527" lon="7.13829">
        <ele>470.95480347</ele>
        <time>2021-06-17T09:03:52Z</time>
      </trkpt>
      <trkpt lat="47.94528" lon="7.13814">
        <ele>470.95480347</ele>
        <time>2021-06-17T09:03:55Z</time>
      </trkpt>
      <trkpt lat="47.94529" lon="7.13798">
        <ele>472.03738403</ele>
        <time>2021-06-17T09:03:58Z</time>
      </trkpt>
      <trkpt lat="47.9453" lon="7.13781">
        <ele>472.03738403</ele>
        <time>2021-06-17T09:04:01Z</time>
      </trkpt>
      <trkpt lat="47.94533" lon="7.13765">
        <ele>472.03738403</ele>
        <time>2021-06-17T09:04:04Z</time>
      </trkpt>
      <trkpt lat="47.94535" lon="7.1375">
        <ele>472.98156738</ele>
        <time>2021-06-17T09:04:07Z</time>
      </trkpt>
      <trkpt lat="47.94536" lon="7.13734">
        <ele>472.98156738</ele>
        <time>2021-06-17T09:04:10Z</time>
      </trkpt>
      <trkpt lat="47.94535" lon="7.13717">
        <ele>474.12097168</ele>
        <time>2021-06-17T09:04:13Z</time>
      </trkpt>
      <trkpt lat="47.94535" lon="7.13705">
        <ele>474.62277222</ele>
        <time>2021-06-17T09:04:14Z</time>
      </trkpt>
      <trkpt lat="47.94536" lon="7.13693">
        <ele>474.62277222</ele>
        <time>2021-06-17T09:04:17Z</time>
      </trkpt>
      <trkpt lat="47.94536" lon="7.13675">
        <ele>474.62277222</ele>
        <time>2021-06-17T09:04:20Z</time>
      </trkpt>
      <trkpt lat="47.94535" lon="7.13658">
        <ele>475.24731445</ele>
        <time>2021-06-17T09:04:23Z</time>
      </trkpt>
      <trkpt lat="47.94531" lon="7.13642">
        <ele>475.24731445</ele>
        <time>2021-06-17T09:04:26Z</time>
      </trkpt>
      <trkpt lat="47.94527" lon="7.13627">
        <ele>475.24731445</ele>
        <time>2021-06-17T09:04:29Z</time>
      </trkpt>
      <trkpt lat="47.94525" lon="7.13612">
        <ele>476.26663208</ele>
        <time>2021-06-17T09:04:32Z</time>
      </trkpt>
      <trkpt lat="47.94522" lon="7.13596">
        <ele>476.26663208</ele>
        <time>2021-06-17T09:04:35Z</time>
      </trkpt>
      <trkpt lat="47.94519" lon="7.13579">
        <ele>476.26663208</ele>
        <time>2021-06-17T09:04:38Z</time>
      </trkpt>
      <trkpt lat="47.94515" lon="7.13564">
        <ele>476.26663208</ele>
        <time>2021-06-17T09:04:41Z</time>
      </trkpt>
      <trkpt lat="47.94512" lon="7.13549">
        <ele>477.26730347</ele>
        <time>2021-06-17T09:04:44Z</time>
      </trkpt>
      <trkpt lat="47.94509" lon="7.13534">
        <ele>477.26730347</ele>
        <time>2021-06-17T09:04:47Z</time>
      </trkpt>
      <trkpt lat="47.94505" lon="7.13517">
        <ele>477.26730347</ele>
        <time>2021-06-17T09:04:50Z</time>
      </trkpt>
      <trkpt lat="47.94502" lon="7.13499">
        <ele>477.26730347</ele>
        <time>2021-06-17T09:04:53Z</time>
      </trkpt>
      <trkpt lat="47.94499" lon="7.13482">
        <ele>477.26730347</ele>
        <time>2021-06-17T09:04:56Z</time>
      </trkpt>
      <trkpt lat="47.94497" lon="7.13466">
        <ele>478.26437378</ele>
        <time>2021-06-17T09:05:00Z</time>
      </trkpt>
      <trkpt lat="47.94498" lon="7.1345">
        <ele>478.26437378</ele>
        <time>2021-06-17T09:05:04Z</time>
      </trkpt>
      <trkpt lat="47.94498" lon="7.13431">
        <ele>478.26437378</ele>
        <time>2021-06-17T09:05:07Z</time>
      </trkpt>
      <trkpt lat="47.94498" lon="7.13416">
        <ele>478.26437378</ele>
        <time>2021-06-17T09:05:10Z</time>
      </trkpt>
      <trkpt lat="47.94496" lon="7.13398">
        <ele>479.40039062</ele>
        <time>2021-06-17T09:05:13Z</time>
      </trkpt>
      <trkpt lat="47.94494" lon="7.13386">
        <ele>479.86260986</ele>
        <time>2021-06-17T09:05:14Z</time>
      </trkpt>
      <trkpt lat="47.94493" lon="7.13374">
        <ele>479.86260986</ele>
        <time>2021-06-17T09:05:17Z</time>
      </trkpt>
      <trkpt lat="47.94492" lon="7.13357">
        <ele>479.86260986</ele>
        <time>2021-06-17T09:05:20Z</time>
      </trkpt>
      <trkpt lat="47.9449" lon="7.13339">
        <ele>479.86260986</ele>
        <time>2021-06-17T09:05:23Z</time>
      </trkpt>
      <trkpt lat="47.94489" lon="7.13322">
        <ele>479.86260986</ele>
        <time>2021-06-17T09:05:26Z</time>
      </trkpt>
      <trkpt lat="47.94489" lon="7.13304">
        <ele>479.86260986</ele>
        <time>2021-06-17T09:05:29Z</time>
      </trkpt>
      <trkpt lat="47.94487" lon="7.13287">
        <ele>480.36505127</ele>
        <time>2021-06-17T09:05:32Z</time>
      </trkpt>
      <trkpt lat="47.94487" lon="7.13268">
        <ele>480.36505127</ele>
        <time>2021-06-17T09:05:35Z</time>
      </trkpt>
      <trkpt lat="47.94486" lon="7.1325">
        <ele>480.36505127</ele>
        <time>2021-06-17T09:05:38Z</time>
      </trkpt>
      <trkpt lat="47.94486" lon="7.13234">
        <ele>481.5395813</ele>
        <time>2021-06-17T09:05:41Z</time>
      </trkpt>
      <trkpt lat="47.94489" lon="7.13219">
        <ele>481.5395813</ele>
        <time>2021-06-17T09:05:45Z</time>
      </trkpt>
      <trkpt lat="47.94491" lon="7.13202">
        <ele>481.5395813</ele>
        <time>2021-06-17T09:05:48Z</time>
      </trkpt>
      <trkpt lat="47.94492" lon="7.13186">
        <ele>482.65045166</ele>
        <time>2021-06-17T09:05:51Z</time>
      </trkpt>
      <trkpt lat="47.94495" lon="7.13174">
        <ele>483.81347656</ele>
        <time>2021-06-17T09:05:55Z</time>
      </trkpt>
      <trkpt lat="47.945" lon="7.1316">
        <ele>483.81347656</ele>
        <time>2021-06-17T09:05:59Z</time>
      </trkpt>
      <trkpt lat="47.94505" lon="7.13145">
        <ele>484.91070557</ele>
        <time>2021-06-17T09:06:03Z</time>
      </trkpt>
      <trkpt lat="47.94509" lon="7.13131">
        <ele>486.06817627</ele>
        <time>2021-06-17T09:06:07Z</time>
      </trkpt>
      <trkpt lat="47.94515" lon="7.13118">
        <ele>486.06817627</ele>
        <time>2021-06-17T09:06:11Z</time>
      </trkpt>
      <trkpt lat="47.94521" lon="7.13106">
        <ele>487.80328369</ele>
        <time>2021-06-17T09:06:14Z</time>
      </trkpt>
      <trkpt lat="47.94527" lon="7.13098">
        <ele>487.80328369</ele>
        <time>2021-06-17T09:06:17Z</time>
      </trkpt>
      <trkpt lat="47.94535" lon="7.13088">
        <ele>488.41668701</ele>
        <time>2021-06-17T09:06:22Z</time>
      </trkpt>
      <trkpt lat="47.94544" lon="7.13079">
        <ele>488.41668701</ele>
        <time>2021-06-17T09:06:25Z</time>
      </trkpt>
      <trkpt lat="47.94552" lon="7.13071">
        <ele>488.41668701</ele>
        <time>2021-06-17T09:06:29Z</time>
      </trkpt>
      <trkpt lat="47.9456" lon="7.13065">
        <ele>489.37435913</ele>
        <time>2021-06-17T09:06:33Z</time>
      </trkpt>
      <trkpt lat="47.94568" lon="7.13056">
        <ele>489.37435913</ele>
        <time>2021-06-17T09:06:36Z</time>
      </trkpt>
      <trkpt lat="47.94575" lon="7.13043">
        <ele>489.37435913</ele>
        <time>2021-06-17T09:06:39Z</time>
      </trkpt>
      <trkpt lat="47.94577" lon="7.13029">
        <ele>490.67282104</ele>
        <time>2021-06-17T09:06:42Z</time>
      </trkpt>
      <trkpt lat="47.94576" lon="7.13014">
        <ele>490.67282104</ele>
        <time>2021-06-17T09:06:46Z</time>
      </trkpt>
      <trkpt lat="47.94571" lon="7.12997">
        <ele>490.67282104</ele>
        <time>2021-06-17T09:06:49Z</time>
      </trkpt>
      <trkpt lat="47.94567" lon="7.12981">
        <ele>491.60095215</ele>
        <time>2021-06-17T09:06:52Z</time>
      </trkpt>
      <trkpt lat="47.94562" lon="7.12965">
        <ele>491.60095215</ele>
        <time>2021-06-17T09:06:55Z</time>
      </trkpt>
      <trkpt lat="47.94556" lon="7.12951">
        <ele>491.60095215</ele>
        <time>2021-06-17T09:06:58Z</time>
      </trkpt>
      <trkpt lat="47.9455" lon="7.12935">
        <ele>491.60095215</ele>
        <time>2021-06-17T09:07:01Z</time>
      </trkpt>
      <trkpt lat="47.94546" lon="7.1292">
        <ele>491.60095215</ele>
        <time>2021-06-17T09:07:03Z</time>
      </trkpt>
      <trkpt lat="47.94543" lon="7.12904">
        <ele>491.60095215</ele>
        <time>2021-06-17T09:07:06Z</time>
      </trkpt>
      <trkpt lat="47.94537" lon="7.12888">
        <ele>491.60095215</ele>
        <time>2021-06-17T09:07:08Z</time>
      </trkpt>
      <trkpt lat="47.94534" lon="7.12875">
        <ele>491.60095215</ele>
        <time>2021-06-17T09:07:10Z</time>
      </trkpt>
      <trkpt lat="47.94528" lon="7.1286">
        <ele>491.60095215</ele>
        <time>2021-06-17T09:07:13Z</time>
      </trkpt>
      <trkpt lat="47.94524" lon="7.1285">
        <ele>492.24914551</ele>
        <time>2021-06-17T09:07:14Z</time>
      </trkpt>
      <trkpt lat="47.94521" lon="7.12839">
        <ele>492.24914551</ele>
        <time>2021-06-17T09:07:17Z</time>
      </trkpt>
      <trkpt lat="47.94517" lon="7.12821">
        <ele>492.24914551</ele>
        <time>2021-06-17T09:07:20Z</time>
      </trkpt>
      <trkpt lat="47.94514" lon="7.12805">
        <ele>492.24914551</ele>
        <time>2021-06-17T09:07:22Z</time>
      </trkpt>
      <trkpt lat="47.94509" lon="7.1279">
        <ele>492.24914551</ele>
        <time>2021-06-17T09:07:25Z</time>
      </trkpt>
      <trkpt lat="47.94503" lon="7.12773">
        <ele>492.24914551</ele>
        <time>2021-06-17T09:07:28Z</time>
      </trkpt>
      <trkpt lat="47.94498" lon="7.12755">
        <ele>492.24914551</ele>
        <time>2021-06-17T09:07:31Z</time>
      </trkpt>
      <trkpt lat="47.94495" lon="7.12739">
        <ele>492.24914551</ele>
        <time>2021-06-17T09:07:33Z</time>
      </trkpt>
      <trkpt lat="47.9449" lon="7.12725">
        <ele>492.24914551</ele>
        <time>2021-06-17T09:07:35Z</time>
      </trkpt>
      <trkpt lat="47.94486" lon="7.12711">
        <ele>492.24914551</ele>
        <time>2021-06-17T09:07:37Z</time>
      </trkpt>
      <trkpt lat="47.94481" lon="7.12698">
        <ele>492.24914551</ele>
        <time>2021-06-17T09:07:39Z</time>
      </trkpt>
      <trkpt lat="47.94476" lon="7.12684">
        <ele>492.24914551</ele>
        <time>2021-06-17T09:07:41Z</time>
      </trkpt>
      <trkpt lat="47.94472" lon="7.12672">
        <ele>492.24914551</ele>
        <time>2021-06-17T09:07:43Z</time>
      </trkpt>
      <trkpt lat="47.94467" lon="7.1266">
        <ele>492.175354</ele>
        <time>2021-06-17T09:07:45Z</time>
      </trkpt>
      <trkpt lat="47.94462" lon="7.12648">
        <ele>492.175354</ele>
        <time>2021-06-17T09:07:47Z</time>
      </trkpt>
      <trkpt lat="47.94457" lon="7.12636">
        <ele>492.175354</ele>
        <time>2021-06-17T09:07:49Z</time>
      </trkpt>
      <trkpt lat="47.94451" lon="7.12625">
        <ele>492.175354</ele>
        <time>2021-06-17T09:07:51Z</time>
      </trkpt>
      <trkpt lat="47.94444" lon="7.12616">
        <ele>492.175354</ele>
        <time>2021-06-17T09:07:53Z</time>
      </trkpt>
      <trkpt lat="47.94438" lon="7.12606">
        <ele>493.57315063</ele>
        <time>2021-06-17T09:07:55Z</time>
      </trkpt>
      <trkpt lat="47.9443" lon="7.12595">
        <ele>493.57315063</ele>
        <time>2021-06-17T09:07:57Z</time>
      </trkpt>
      <trkpt lat="47.94423" lon="7.12585">
        <ele>493.57315063</ele>
        <time>2021-06-17T09:08:00Z</time>
      </trkpt>
      <trkpt lat="47.94415" lon="7.12574">
        <ele>493.57315063</ele>
        <time>2021-06-17T09:08:03Z</time>
      </trkpt>
      <trkpt lat="47.94406" lon="7.12561">
        <ele>494.63760376</ele>
        <time>2021-06-17T09:08:06Z</time>
      </trkpt>
      <trkpt lat="47.94398" lon="7.12546">
        <ele>494.63760376</ele>
        <time>2021-06-17T09:08:09Z</time>
      </trkpt>
      <trkpt lat="47.94392" lon="7.12533">
        <ele>494.63760376</ele>
        <time>2021-06-17T09:08:11Z</time>
      </trkpt>
      <trkpt lat="47.94382" lon="7.12515">
        <ele>495.63650513</ele>
        <time>2021-06-17T09:08:14Z</time>
      </trkpt>
      <trkpt lat="47.94377" lon="7.12506">
        <ele>495.63650513</ele>
        <time>2021-06-17T09:08:17Z</time>
      </trkpt>
      <trkpt lat="47.94371" lon="7.12489">
        <ele>495.63650513</ele>
        <time>2021-06-17T09:08:20Z</time>
      </trkpt>
      <trkpt lat="47.94367" lon="7.1247">
        <ele>495.63650513</ele>
        <time>2021-06-17T09:08:23Z</time>
      </trkpt>
      <trkpt lat="47.94362" lon="7.12454">
        <ele>496.47662354</ele>
        <time>2021-06-17T09:08:26Z</time>
      </trkpt>
      <trkpt lat="47.94358" lon="7.12436">
        <ele>496.47662354</ele>
        <time>2021-06-17T09:08:29Z</time>
      </trkpt>
      <trkpt lat="47.94358" lon="7.12418">
        <ele>497.65109253</ele>
        <time>2021-06-17T09:08:32Z</time>
      </trkpt>
      <trkpt lat="47.94357" lon="7.12402">
        <ele>497.65109253</ele>
        <time>2021-06-17T09:08:35Z</time>
      </trkpt>
      <trkpt lat="47.94355" lon="7.12384">
        <ele>497.65109253</ele>
        <time>2021-06-17T09:08:38Z</time>
      </trkpt>
      <trkpt lat="47.94352" lon="7.12368">
        <ele>498.61077881</ele>
        <time>2021-06-17T09:08:41Z</time>
      </trkpt>
      <trkpt lat="47.94349" lon="7.12351">
        <ele>498.61077881</ele>
        <time>2021-06-17T09:08:44Z</time>
      </trkpt>
      <trkpt lat="47.94347" lon="7.12336">
        <ele>499.83486938</ele>
        <time>2021-06-17T09:08:47Z</time>
      </trkpt>
      <trkpt lat="47.94344" lon="7.12321">
        <ele>499.83486938</ele>
        <time>2021-06-17T09:08:50Z</time>
      </trkpt>
      <trkpt lat="47.94342" lon="7.12307">
        <ele>499.83486938</ele>
        <time>2021-06-17T09:08:53Z</time>
      </trkpt>
      <trkpt lat="47.94339" lon="7.12291">
        <ele>499.83486938</ele>
        <time>2021-06-17T09:08:56Z</time>
      </trkpt>
      <trkpt lat="47.94335" lon="7.12277">
        <ele>500.76733398</ele>
        <time>2021-06-17T09:08:59Z</time>
      </trkpt>
      <trkpt lat="47.94333" lon="7.12261">
        <ele>500.76733398</ele>
        <time>2021-06-17T09:09:02Z</time>
      </trkpt>
      <trkpt lat="47.94331" lon="7.12246">
        <ele>500.76733398</ele>
        <time>2021-06-17T09:09:05Z</time>
      </trkpt>
      <trkpt lat="47.94329" lon="7.12233">
        <ele>501.86398315</ele>
        <time>2021-06-17T09:09:08Z</time>
      </trkpt>
      <trkpt lat="47.94328" lon="7.12217">
        <ele>501.86398315</ele>
        <time>2021-06-17T09:09:11Z</time>
      </trkpt>
      <trkpt lat="47.94327" lon="7.12203">
        <ele>502.9883728</ele>
        <time>2021-06-17T09:09:14Z</time>
      </trkpt>
      <trkpt lat="47.94326" lon="7.12188">
        <ele>502.9883728</ele>
        <time>2021-06-17T09:09:17Z</time>
      </trkpt>
      <trkpt lat="47.94323" lon="7.12174">
        <ele>502.9883728</ele>
        <time>2021-06-17T09:09:20Z</time>
      </trkpt>
      <trkpt lat="47.94321" lon="7.12159">
        <ele>502.9883728</ele>
        <time>2021-06-17T09:09:23Z</time>
      </trkpt>
      <trkpt lat="47.94318" lon="7.12146">
        <ele>503.78198242</ele>
        <time>2021-06-17T09:09:26Z</time>
      </trkpt>
      <trkpt lat="47.94315" lon="7.1213">
        <ele>503.78198242</ele>
        <time>2021-06-17T09:09:29Z</time>
      </trkpt>
      <trkpt lat="47.94312" lon="7.12115">
        <ele>503.78198242</ele>
        <time>2021-06-17T09:09:32Z</time>
      </trkpt>
      <trkpt lat="47.94307" lon="7.12099">
        <ele>504.94104004</ele>
        <time>2021-06-17T09:09:35Z</time>
      </trkpt>
      <trkpt lat="47.94303" lon="7.12085">
        <ele>504.94104004</ele>
        <time>2021-06-17T09:09:38Z</time>
      </trkpt>
      <trkpt lat="47.94296" lon="7.12073">
        <ele>504.94104004</ele>
        <time>2021-06-17T09:09:41Z</time>
      </trkpt>
      <trkpt lat="47.94289" lon="7.12059">
        <ele>504.94104004</ele>
        <time>2021-06-17T09:09:44Z</time>
      </trkpt>
      <trkpt lat="47.94284" lon="7.12047">
        <ele>505.9619751</ele>
        <time>2021-06-17T09:09:47Z</time>
      </trkpt>
      <trkpt lat="47.94276" lon="7.12036">
        <ele>505.9619751</ele>
        <time>2021-06-17T09:09:50Z</time>
      </trkpt>
      <trkpt lat="47.9427" lon="7.12023">
        <ele>505.9619751</ele>
        <time>2021-06-17T09:09:53Z</time>
      </trkpt>
      <trkpt lat="47.94268" lon="7.12008">
        <ele>507.07830811</ele>
        <time>2021-06-17T09:09:56Z</time>
      </trkpt>
      <trkpt lat="47.94266" lon="7.1199">
        <ele>507.07830811</ele>
        <time>2021-06-17T09:09:59Z</time>
      </trkpt>
      <trkpt lat="47.94265" lon="7.11975">
        <ele>507.07830811</ele>
        <time>2021-06-17T09:10:02Z</time>
      </trkpt>
      <trkpt lat="47.94264" lon="7.11961">
        <ele>508.09561157</ele>
        <time>2021-06-17T09:10:05Z</time>
      </trkpt>
      <trkpt lat="47.94264" lon="7.11944">
        <ele>508.09561157</ele>
        <time>2021-06-17T09:10:08Z</time>
      </trkpt>
      <trkpt lat="47.94261" lon="7.11925">
        <ele>508.09561157</ele>
        <time>2021-06-17T09:10:11Z</time>
      </trkpt>
      <trkpt lat="47.9426" lon="7.11901">
        <ele>508.82449341</ele>
        <time>2021-06-17T09:10:14Z</time>
      </trkpt>
      <trkpt lat="47.94259" lon="7.11891">
        <ele>508.82449341</ele>
        <time>2021-06-17T09:10:17Z</time>
      </trkpt>
      <trkpt lat="47.9426" lon="7.11874">
        <ele>508.82449341</ele>
        <time>2021-06-17T09:10:20Z</time>
      </trkpt>
      <trkpt lat="47.9426" lon="7.11856">
        <ele>508.82449341</ele>
        <time>2021-06-17T09:10:23Z</time>
      </trkpt>
      <trkpt lat="47.94259" lon="7.11838">
        <ele>509.56066895</ele>
        <time>2021-06-17T09:10:26Z</time>
      </trkpt>
      <trkpt lat="47.94256" lon="7.1182">
        <ele>509.56066895</ele>
        <time>2021-06-17T09:10:29Z</time>
      </trkpt>
      <trkpt lat="47.94252" lon="7.11802">
        <ele>509.56066895</ele>
        <time>2021-06-17T09:10:32Z</time>
      </trkpt>
      <trkpt lat="47.94247" lon="7.11787">
        <ele>509.56066895</ele>
        <time>2021-06-17T09:10:35Z</time>
      </trkpt>
      <trkpt lat="47.94243" lon="7.11773">
        <ele>510.63174438</ele>
        <time>2021-06-17T09:10:38Z</time>
      </trkpt>
      <trkpt lat="47.94239" lon="7.11759">
        <ele>510.63174438</ele>
        <time>2021-06-17T09:10:41Z</time>
      </trkpt>
      <trkpt lat="47.94234" lon="7.11742">
        <ele>510.63174438</ele>
        <time>2021-06-17T09:10:44Z</time>
      </trkpt>
      <trkpt lat="47.9423" lon="7.11727">
        <ele>511.65185547</ele>
        <time>2021-06-17T09:10:47Z</time>
      </trkpt>
      <trkpt lat="47.94225" lon="7.11711">
        <ele>511.65185547</ele>
        <time>2021-06-17T09:10:50Z</time>
      </trkpt>
      <trkpt lat="47.9422" lon="7.11696">
        <ele>511.65185547</ele>
        <time>2021-06-17T09:10:53Z</time>
      </trkpt>
      <trkpt lat="47.94215" lon="7.11682">
        <ele>512.68347168</ele>
        <time>2021-06-17T09:10:56Z</time>
      </trkpt>
      <trkpt lat="47.94212" lon="7.11666">
        <ele>512.68347168</ele>
        <time>2021-06-17T09:10:59Z</time>
      </trkpt>
      <trkpt lat="47.94208" lon="7.11652">
        <ele>513.73699951</ele>
        <time>2021-06-17T09:11:02Z</time>
      </trkpt>
      <trkpt lat="47.94204" lon="7.11639">
        <ele>513.73699951</ele>
        <time>2021-06-17T09:11:05Z</time>
      </trkpt>
      <trkpt lat="47.94201" lon="7.11626">
        <ele>513.73699951</ele>
        <time>2021-06-17T09:11:08Z</time>
      </trkpt>
      <trkpt lat="47.94196" lon="7.11613">
        <ele>514.82122803</ele>
        <time>2021-06-17T09:11:11Z</time>
      </trkpt>
      <trkpt lat="47.94189" lon="7.11594">
        <ele>515.69329834</ele>
        <time>2021-06-17T09:11:14Z</time>
      </trkpt>
      <trkpt lat="47.94187" lon="7.11585">
        <ele>515.69329834</ele>
        <time>2021-06-17T09:11:17Z</time>
      </trkpt>
      <trkpt lat="47.94183" lon="7.1157">
        <ele>515.69329834</ele>
        <time>2021-06-17T09:11:20Z</time>
      </trkpt>
      <trkpt lat="47.94178" lon="7.11555">
        <ele>515.69329834</ele>
        <time>2021-06-17T09:11:23Z</time>
      </trkpt>
      <trkpt lat="47.94174" lon="7.1154">
        <ele>516.5725708</ele>
        <time>2021-06-17T09:11:26Z</time>
      </trkpt>
      <trkpt lat="47.9417" lon="7.11525">
        <ele>516.5725708</ele>
        <time>2021-06-17T09:11:29Z</time>
      </trkpt>
      <trkpt lat="47.94167" lon="7.11511">
        <ele>516.5725708</ele>
        <time>2021-06-17T09:11:32Z</time>
      </trkpt>
      <trkpt lat="47.94166" lon="7.11497">
        <ele>517.53222656</ele>
        <time>2021-06-17T09:11:35Z</time>
      </trkpt>
      <trkpt lat="47.94165" lon="7.11482">
        <ele>517.53222656</ele>
        <time>2021-06-17T09:11:38Z</time>
      </trkpt>
      <trkpt lat="47.94164" lon="7.11468">
        <ele>517.53222656</ele>
        <time>2021-06-17T09:11:41Z</time>
      </trkpt>
      <trkpt lat="47.94165" lon="7.11455">
        <ele>518.6550293</ele>
        <time>2021-06-17T09:11:44Z</time>
      </trkpt>
      <trkpt lat="47.94166" lon="7.11439">
        <ele>518.6550293</ele>
        <time>2021-06-17T09:11:47Z</time>
      </trkpt>
      <trkpt lat="47.94167" lon="7.11425">
        <ele>519.90106201</ele>
        <time>2021-06-17T09:11:50Z</time>
      </trkpt>
      <trkpt lat="47.9417" lon="7.1141">
        <ele>519.90106201</ele>
        <time>2021-06-17T09:11:54Z</time>
      </trkpt>
      <trkpt lat="47.94172" lon="7.11395">
        <ele>521.03076172</ele>
        <time>2021-06-17T09:11:57Z</time>
      </trkpt>
      <trkpt lat="47.94172" lon="7.1138">
        <ele>521.03076172</ele>
        <time>2021-06-17T09:12:00Z</time>
      </trkpt>
      <trkpt lat="47.94172" lon="7.11363">
        <ele>521.03076172</ele>
        <time>2021-06-17T09:12:03Z</time>
      </trkpt>
      <trkpt lat="47.94169" lon="7.11348">
        <ele>521.03076172</ele>
        <time>2021-06-17T09:12:06Z</time>
      </trkpt>
      <trkpt lat="47.94169" lon="7.11334">
        <ele>521.97570801</ele>
        <time>2021-06-17T09:12:09Z</time>
      </trkpt>
      <trkpt lat="47.94169" lon="7.11319">
        <ele>521.97570801</ele>
        <time>2021-06-17T09:12:13Z</time>
      </trkpt>
      <trkpt lat="47.94167" lon="7.11306">
        <ele>522.77545166</ele>
        <time>2021-06-17T09:12:14Z</time>
      </trkpt>
      <trkpt lat="47.94167" lon="7.11294">
        <ele>522.77545166</ele>
        <time>2021-06-17T09:12:17Z</time>
      </trkpt>
      <trkpt lat="47.94166" lon="7.11277">
        <ele>522.77545166</ele>
        <time>2021-06-17T09:12:20Z</time>
      </trkpt>
      <trkpt lat="47.94165" lon="7.11259">
        <ele>522.77545166</ele>
        <time>2021-06-17T09:12:23Z</time>
      </trkpt>
      <trkpt lat="47.94167" lon="7.11243">
        <ele>523.49914551</ele>
        <time>2021-06-17T09:12:27Z</time>
      </trkpt>
      <trkpt lat="47.94167" lon="7.11227">
        <ele>523.49914551</ele>
        <time>2021-06-17T09:12:30Z</time>
      </trkpt>
      <trkpt lat="47.94167" lon="7.11212">
        <ele>523.49914551</ele>
        <time>2021-06-17T09:12:33Z</time>
      </trkpt>
      <trkpt lat="47.94167" lon="7.11196">
        <ele>523.49914551</ele>
        <time>2021-06-17T09:12:36Z</time>
      </trkpt>
      <trkpt lat="47.94165" lon="7.11181">
        <ele>524.61755371</ele>
        <time>2021-06-17T09:12:39Z</time>
      </trkpt>
      <trkpt lat="47.94164" lon="7.11166">
        <ele>524.61755371</ele>
        <time>2021-06-17T09:12:43Z</time>
      </trkpt>
      <trkpt lat="47.94164" lon="7.11152">
        <ele>525.8894043</ele>
        <time>2021-06-17T09:12:47Z</time>
      </trkpt>
      <trkpt lat="47.94163" lon="7.11136">
        <ele>525.8894043</ele>
        <time>2021-06-17T09:12:51Z</time>
      </trkpt>
      <trkpt lat="47.94166" lon="7.11121">
        <ele>527.02368164</ele>
        <time>2021-06-17T09:12:54Z</time>
      </trkpt>
      <trkpt lat="47.94163" lon="7.11108">
        <ele>527.02368164</ele>
        <time>2021-06-17T09:12:57Z</time>
      </trkpt>
      <trkpt lat="47.94161" lon="7.11094">
        <ele>527.02368164</ele>
        <time>2021-06-17T09:13:01Z</time>
      </trkpt>
      <trkpt lat="47.94158" lon="7.11079">
        <ele>527.96856689</ele>
        <time>2021-06-17T09:13:04Z</time>
      </trkpt>
      <trkpt lat="47.94153" lon="7.11067">
        <ele>527.96856689</ele>
        <time>2021-06-17T09:13:07Z</time>
      </trkpt>
      <trkpt lat="47.9415" lon="7.11051">
        <ele>527.96856689</ele>
        <time>2021-06-17T09:13:10Z</time>
      </trkpt>
      <trkpt lat="47.94148" lon="7.11037">
        <ele>527.96856689</ele>
        <time>2021-06-17T09:13:13Z</time>
      </trkpt>
      <trkpt lat="47.94146" lon="7.1103">
        <ele>528.85742188</ele>
        <time>2021-06-17T09:13:14Z</time>
      </trkpt>
      <trkpt lat="47.94145" lon="7.11021">
        <ele>528.85742188</ele>
        <time>2021-06-17T09:13:18Z</time>
      </trkpt>
      <trkpt lat="47.94144" lon="7.11006">
        <ele>528.85742188</ele>
        <time>2021-06-17T09:13:22Z</time>
      </trkpt>
      <trkpt lat="47.94145" lon="7.1099">
        <ele>529.58514404</ele>
        <time>2021-06-17T09:13:26Z</time>
      </trkpt>
      <trkpt lat="47.94146" lon="7.10976">
        <ele>530.93707275</ele>
        <time>2021-06-17T09:13:30Z</time>
      </trkpt>
      <trkpt lat="47.94149" lon="7.10963">
        <ele>530.93707275</ele>
        <time>2021-06-17T09:13:34Z</time>
      </trkpt>
      <trkpt lat="47.94151" lon="7.10949">
        <ele>531.91430664</ele>
        <time>2021-06-17T09:13:39Z</time>
      </trkpt>
      <trkpt lat="47.94154" lon="7.10932">
        <ele>533.0380249</ele>
        <time>2021-06-17T09:13:43Z</time>
      </trkpt>
      <trkpt lat="47.94154" lon="7.10915">
        <ele>533.0380249</ele>
        <time>2021-06-17T09:13:48Z</time>
      </trkpt>
      <trkpt lat="47.94157" lon="7.109">
        <ele>534.06744385</ele>
        <time>2021-06-17T09:13:52Z</time>
      </trkpt>
      <trkpt lat="47.94159" lon="7.10886">
        <ele>535.19073486</ele>
        <time>2021-06-17T09:13:56Z</time>
      </trkpt>
      <trkpt lat="47.94158" lon="7.1087">
        <ele>535.19073486</ele>
        <time>2021-06-17T09:14:00Z</time>
      </trkpt>
      <trkpt lat="47.94157" lon="7.10853">
        <ele>536.2088623</ele>
        <time>2021-06-17T09:14:04Z</time>
      </trkpt>
      <trkpt lat="47.94157" lon="7.10838">
        <ele>537.29241943</ele>
        <time>2021-06-17T09:14:08Z</time>
      </trkpt>
      <trkpt lat="47.94157" lon="7.10823">
        <ele>537.29241943</ele>
        <time>2021-06-17T09:14:13Z</time>
      </trkpt>
      <trkpt lat="47.94155" lon="7.1081">
        <ele>537.98260498</ele>
        <time>2021-06-17T09:14:14Z</time>
      </trkpt>
      <trkpt lat="47.94153" lon="7.108">
        <ele>537.98260498</ele>
        <time>2021-06-17T09:14:17Z</time>
      </trkpt>
      <trkpt lat="47.94152" lon="7.10787">
        <ele>537.98260498</ele>
        <time>2021-06-17T09:14:21Z</time>
      </trkpt>
      <trkpt lat="47.94149" lon="7.1077">
        <ele>538.70697021</ele>
        <time>2021-06-17T09:14:25Z</time>
      </trkpt>
      <trkpt lat="47.94146" lon="7.10753">
        <ele>538.70697021</ele>
        <time>2021-06-17T09:14:28Z</time>
      </trkpt>
      <trkpt lat="47.94144" lon="7.1074">
        <ele>538.70697021</ele>
        <time>2021-06-17T09:14:31Z</time>
      </trkpt>
      <trkpt lat="47.9414" lon="7.10728">
        <ele>538.70697021</ele>
        <time>2021-06-17T09:14:34Z</time>
      </trkpt>
      <trkpt lat="47.94136" lon="7.10713">
        <ele>538.70697021</ele>
        <time>2021-06-17T09:14:38Z</time>
      </trkpt>
      <trkpt lat="47.94132" lon="7.10698">
        <ele>538.70697021</ele>
        <time>2021-06-17T09:14:41Z</time>
      </trkpt>
      <trkpt lat="47.94127" lon="7.10686">
        <ele>538.70697021</ele>
        <time>2021-06-17T09:14:45Z</time>
      </trkpt>
      <trkpt lat="47.94122" lon="7.10673">
        <ele>538.70697021</ele>
        <time>2021-06-17T09:14:48Z</time>
      </trkpt>
      <trkpt lat="47.94115" lon="7.10661">
        <ele>538.70697021</ele>
        <time>2021-06-17T09:14:51Z</time>
      </trkpt>
      <trkpt lat="47.94108" lon="7.10649">
        <ele>538.70697021</ele>
        <time>2021-06-17T09:14:54Z</time>
      </trkpt>
      <trkpt lat="47.94101" lon="7.10636">
        <ele>538.70697021</ele>
        <time>2021-06-17T09:14:57Z</time>
      </trkpt>
      <trkpt lat="47.94095" lon="7.10623">
        <ele>539.79907227</ele>
        <time>2021-06-17T09:15:00Z</time>
      </trkpt>
      <trkpt lat="47.94088" lon="7.10612">
        <ele>539.79907227</ele>
        <time>2021-06-17T09:15:03Z</time>
      </trkpt>
      <trkpt lat="47.94082" lon="7.10601">
        <ele>539.79907227</ele>
        <time>2021-06-17T09:15:06Z</time>
      </trkpt>
      <trkpt lat="47.94076" lon="7.10587">
        <ele>540.84240723</ele>
        <time>2021-06-17T09:15:10Z</time>
      </trkpt>
      <trkpt lat="47.94067" lon="7.1057">
        <ele>541.71191406</ele>
        <time>2021-06-17T09:15:14Z</time>
      </trkpt>
      <trkpt lat="47.94063" lon="7.10562">
        <ele>541.71191406</ele>
        <time>2021-06-17T09:15:18Z</time>
      </trkpt>
      <trkpt lat="47.94058" lon="7.10549">
        <ele>542.88635254</ele>
        <time>2021-06-17T09:15:22Z</time>
      </trkpt>
      <trkpt lat="47.94053" lon="7.10535">
        <ele>544.05340576</ele>
        <time>2021-06-17T09:15:26Z</time>
      </trkpt>
      <trkpt lat="47.94046" lon="7.10524">
        <ele>545.22644043</ele>
        <time>2021-06-17T09:15:30Z</time>
      </trkpt>
      <trkpt lat="47.9404" lon="7.10512">
        <ele>545.22644043</ele>
        <time>2021-06-17T09:15:34Z</time>
      </trkpt>
      <trkpt lat="47.94034" lon="7.10498">
        <ele>546.46405029</ele>
        <time>2021-06-17T09:15:39Z</time>
      </trkpt>
      <trkpt lat="47.9403" lon="7.10485">
        <ele>546.46405029</ele>
        <time>2021-06-17T09:15:44Z</time>
      </trkpt>
      <trkpt lat="47.94024" lon="7.10471">
        <ele>547.42102051</ele>
        <time>2021-06-17T09:15:48Z</time>
      </trkpt>
      <trkpt lat="47.94019" lon="7.10457">
        <ele>548.5</ele>
        <time>2021-06-17T09:15:53Z</time>
      </trkpt>
      <trkpt lat="47.94013" lon="7.10445">
        <ele>548.5</ele>
        <time>2021-06-17T09:15:57Z</time>
      </trkpt>
      <trkpt lat="47.94006" lon="7.10431">
        <ele>549.621521</ele>
        <time>2021-06-17T09:16:01Z</time>
      </trkpt>
      <trkpt lat="47.94" lon="7.10418">
        <ele>549.621521</ele>
        <time>2021-06-17T09:16:05Z</time>
      </trkpt>
      <trkpt lat="47.93998" lon="7.10405">
        <ele>550.65075684</ele>
        <time>2021-06-17T09:16:10Z</time>
      </trkpt>
      <trkpt lat="47.93993" lon="7.10384">
        <ele>551.49938965</ele>
        <time>2021-06-17T09:16:14Z</time>
      </trkpt>
      <trkpt lat="47.93991" lon="7.10375">
        <ele>551.49938965</ele>
        <time>2021-06-17T09:16:18Z</time>
      </trkpt>
      <trkpt lat="47.93988" lon="7.10361">
        <ele>552.4541626</ele>
        <time>2021-06-17T09:16:23Z</time>
      </trkpt>
      <trkpt lat="47.93986" lon="7.10345">
        <ele>552.4541626</ele>
        <time>2021-06-17T09:16:27Z</time>
      </trkpt>
      <trkpt lat="47.93986" lon="7.1033">
        <ele>553.50146484</ele>
        <time>2021-06-17T09:16:32Z</time>
      </trkpt>
      <trkpt lat="47.93983" lon="7.10315">
        <ele>553.50146484</ele>
        <time>2021-06-17T09:16:37Z</time>
      </trkpt>
      <trkpt lat="47.93979" lon="7.10301">
        <ele>554.36688232</ele>
        <time>2021-06-17T09:16:41Z</time>
      </trkpt>
      <trkpt lat="47.93977" lon="7.10286">
        <ele>555.58892822</ele>
        <time>2021-06-17T09:16:46Z</time>
      </trkpt>
      <trkpt lat="47.93974" lon="7.1027">
        <ele>555.58892822</ele>
        <time>2021-06-17T09:16:50Z</time>
      </trkpt>
      <trkpt lat="47.93974" lon="7.10259">
        <ele>556.69104004</ele>
        <time>2021-06-17T09:16:55Z</time>
      </trkpt>
      <trkpt lat="47.93974" lon="7.10243">
        <ele>556.69104004</ele>
        <time>2021-06-17T09:16:58Z</time>
      </trkpt>
      <trkpt lat="47.93971" lon="7.1023">
        <ele>557.65856934</ele>
        <time>2021-06-17T09:17:03Z</time>
      </trkpt>
      <trkpt lat="47.9397" lon="7.10216">
        <ele>557.65856934</ele>
        <time>2021-06-17T09:17:07Z</time>
      </trkpt>
      <trkpt lat="47.93967" lon="7.10199">
        <ele>557.65856934</ele>
        <time>2021-06-17T09:17:10Z</time>
      </trkpt>
      <trkpt lat="47.93965" lon="7.10179">
        <ele>559.45782471</ele>
        <time>2021-06-17T09:17:14Z</time>
      </trkpt>
      <trkpt lat="47.93964" lon="7.1017">
        <ele>559.45782471</ele>
        <time>2021-06-17T09:17:19Z</time>
      </trkpt>
      <trkpt lat="47.93964" lon="7.10155">
        <ele>559.45782471</ele>
        <time>2021-06-17T09:17:23Z</time>
      </trkpt>
      <trkpt lat="47.93959" lon="7.10138">
        <ele>560.00195312</ele>
        <time>2021-06-17T09:17:25Z</time>
      </trkpt>
      <trkpt lat="47.93955" lon="7.10125">
        <ele>561.23223877</ele>
        <time>2021-06-17T09:17:31Z</time>
      </trkpt>
      <trkpt lat="47.9395" lon="7.10113">
        <ele>561.23223877</ele>
        <time>2021-06-17T09:17:35Z</time>
      </trkpt>
      <trkpt lat="47.93946" lon="7.101">
        <ele>562.46972656</ele>
        <time>2021-06-17T09:17:38Z</time>
      </trkpt>
      <trkpt lat="47.93941" lon="7.10087">
        <ele>562.46972656</ele>
        <time>2021-06-17T09:17:43Z</time>
      </trkpt>
      <trkpt lat="47.93934" lon="7.10072">
        <ele>563.51550293</ele>
        <time>2021-06-17T09:17:48Z</time>
      </trkpt>
      <trkpt lat="47.93928" lon="7.10062">
        <ele>564.59228516</ele>
        <time>2021-06-17T09:17:54Z</time>
      </trkpt>
      <trkpt lat="47.93919" lon="7.10054">
        <ele>565.59997559</ele>
        <time>2021-06-17T09:17:59Z</time>
      </trkpt>
      <trkpt lat="47.93911" lon="7.10044">
        <ele>565.59997559</ele>
        <time>2021-06-17T09:18:04Z</time>
      </trkpt>
      <trkpt lat="47.93904" lon="7.10032">
        <ele>566.73193359</ele>
        <time>2021-06-17T09:18:09Z</time>
      </trkpt>
      <trkpt lat="47.939" lon="7.10012">
        <ele>568.54156494</ele>
        <time>2021-06-17T09:18:14Z</time>
      </trkpt>
      <trkpt lat="47.93897" lon="7.10004">
        <ele>568.54156494</ele>
        <time>2021-06-17T09:18:19Z</time>
      </trkpt>
      <trkpt lat="47.93892" lon="7.09993">
        <ele>569.21954346</ele>
        <time>2021-06-17T09:18:24Z</time>
      </trkpt>
      <trkpt lat="47.93887" lon="7.09982">
        <ele>569.21954346</ele>
        <time>2021-06-17T09:18:28Z</time>
      </trkpt>
      <trkpt lat="47.93882" lon="7.0997">
        <ele>570.2701416</ele>
        <time>2021-06-17T09:18:33Z</time>
      </trkpt>
      <trkpt lat="47.93879" lon="7.09953">
        <ele>571.52307129</ele>
        <time>2021-06-17T09:18:36Z</time>
      </trkpt>
      <trkpt lat="47.93875" lon="7.0994">
        <ele>571.52307129</ele>
        <time>2021-06-17T09:18:40Z</time>
      </trkpt>
      <trkpt lat="47.93868" lon="7.09926">
        <ele>572.64422607</ele>
        <time>2021-06-17T09:18:44Z</time>
      </trkpt>
      <trkpt lat="47.93861" lon="7.09914">
        <ele>572.64422607</ele>
        <time>2021-06-17T09:18:48Z</time>
      </trkpt>
      <trkpt lat="47.93856" lon="7.09901">
        <ele>572.64422607</ele>
        <time>2021-06-17T09:18:52Z</time>
      </trkpt>
      <trkpt lat="47.93848" lon="7.09891">
        <ele>573.72436523</ele>
        <time>2021-06-17T09:18:56Z</time>
      </trkpt>
      <trkpt lat="47.9384" lon="7.09882">
        <ele>573.72436523</ele>
        <time>2021-06-17T09:19:01Z</time>
      </trkpt>
      <trkpt lat="47.93831" lon="7.09877">
        <ele>573.72436523</ele>
        <time>2021-06-17T09:19:04Z</time>
      </trkpt>
      <trkpt lat="47.9382" lon="7.09872">
        <ele>573.72436523</ele>
        <time>2021-06-17T09:19:08Z</time>
      </trkpt>
      <trkpt lat="47.93811" lon="7.09864">
        <ele>573.72436523</ele>
        <time>2021-06-17T09:19:11Z</time>
      </trkpt>
      <trkpt lat="47.93798" lon="7.09855">
        <ele>574.45739746</ele>
        <time>2021-06-17T09:19:14Z</time>
      </trkpt>
      <trkpt lat="47.93793" lon="7.09849">
        <ele>574.45739746</ele>
        <time>2021-06-17T09:19:17Z</time>
      </trkpt>
      <trkpt lat="47.93782" lon="7.0984">
        <ele>574.45739746</ele>
        <time>2021-06-17T09:19:20Z</time>
      </trkpt>
      <trkpt lat="47.93773" lon="7.09829">
        <ele>574.45739746</ele>
        <time>2021-06-17T09:19:23Z</time>
      </trkpt>
      <trkpt lat="47.93765" lon="7.09814">
        <ele>574.45739746</ele>
        <time>2021-06-17T09:19:26Z</time>
      </trkpt>
      <trkpt lat="47.93761" lon="7.09798">
        <ele>574.45739746</ele>
        <time>2021-06-17T09:19:29Z</time>
      </trkpt>
      <trkpt lat="47.93761" lon="7.09784">
        <ele>574.45739746</ele>
        <time>2021-06-17T09:19:33Z</time>
      </trkpt>
      <trkpt lat="47.93762" lon="7.09767">
        <ele>574.45739746</ele>
        <time>2021-06-17T09:19:37Z</time>
      </trkpt>
      <trkpt lat="47.93762" lon="7.09748">
        <ele>574.45739746</ele>
        <time>2021-06-17T09:19:40Z</time>
      </trkpt>
      <trkpt lat="47.93758" lon="7.0973">
        <ele>574.45739746</ele>
        <time>2021-06-17T09:19:43Z</time>
      </trkpt>
      <trkpt lat="47.93752" lon="7.09715">
        <ele>574.45739746</ele>
        <time>2021-06-17T09:19:45Z</time>
      </trkpt>
      <trkpt lat="47.93746" lon="7.09699">
        <ele>574.45739746</ele>
        <time>2021-06-17T09:19:46Z</time>
      </trkpt>
      <trkpt lat="47.93741" lon="7.09685">
        <ele>574.45739746</ele>
        <time>2021-06-17T09:19:47Z</time>
      </trkpt>
      <trkpt lat="47.93734" lon="7.09675">
        <ele>574.45739746</ele>
        <time>2021-06-17T09:19:48Z</time>
      </trkpt>
      <trkpt lat="47.93729" lon="7.09665">
        <ele>574.45739746</ele>
        <time>2021-06-17T09:19:50Z</time>
      </trkpt>
      <trkpt lat="47.93723" lon="7.09656">
        <ele>574.45739746</ele>
        <time>2021-06-17T09:19:53Z</time>
      </trkpt>
      <trkpt lat="47.93716" lon="7.09646">
        <ele>575.00805664</ele>
        <time>2021-06-17T09:19:56Z</time>
      </trkpt>
      <trkpt lat="47.9371" lon="7.09635">
        <ele>575.00805664</ele>
        <time>2021-06-17T09:19:59Z</time>
      </trkpt>
      <trkpt lat="47.93703" lon="7.09623">
        <ele>575.00805664</ele>
        <time>2021-06-17T09:20:02Z</time>
      </trkpt>
      <trkpt lat="47.93696" lon="7.09611">
        <ele>575.00805664</ele>
        <time>2021-06-17T09:20:05Z</time>
      </trkpt>
      <trkpt lat="47.93693" lon="7.09595">
        <ele>576.16778564</ele>
        <time>2021-06-17T09:20:09Z</time>
      </trkpt>
      <trkpt lat="47.93691" lon="7.09576">
        <ele>576.16778564</ele>
        <time>2021-06-17T09:20:12Z</time>
      </trkpt>
      <trkpt lat="47.9369" lon="7.09563">
        <ele>577.0335083</ele>
        <time>2021-06-17T09:20:14Z</time>
      </trkpt>
      <trkpt lat="47.9369" lon="7.09551">
        <ele>577.0335083</ele>
        <time>2021-06-17T09:20:18Z</time>
      </trkpt>
      <trkpt lat="47.93687" lon="7.09535">
        <ele>577.0335083</ele>
        <time>2021-06-17T09:20:21Z</time>
      </trkpt>
      <trkpt lat="47.93685" lon="7.0952">
        <ele>577.78442383</ele>
        <time>2021-06-17T09:20:25Z</time>
      </trkpt>
      <trkpt lat="47.93683" lon="7.09502">
        <ele>577.78442383</ele>
        <time>2021-06-17T09:20:28Z</time>
      </trkpt>
      <trkpt lat="47.93681" lon="7.09485">
        <ele>577.78442383</ele>
        <time>2021-06-17T09:20:31Z</time>
      </trkpt>
      <trkpt lat="47.9368" lon="7.09471">
        <ele>578.85266113</ele>
        <time>2021-06-17T09:20:35Z</time>
      </trkpt>
      <trkpt lat="47.93677" lon="7.09456">
        <ele>578.85266113</ele>
        <time>2021-06-17T09:20:39Z</time>
      </trkpt>
      <trkpt lat="47.93676" lon="7.09438">
        <ele>578.85266113</ele>
        <time>2021-06-17T09:20:43Z</time>
      </trkpt>
      <trkpt lat="47.93674" lon="7.0942">
        <ele>580.00616455</ele>
        <time>2021-06-17T09:20:47Z</time>
      </trkpt>
      <trkpt lat="47.93673" lon="7.09399">
        <ele>580.00616455</ele>
        <time>2021-06-17T09:20:50Z</time>
      </trkpt>
      <trkpt lat="47.9367" lon="7.09384">
        <ele>580.00616455</ele>
        <time>2021-06-17T09:20:53Z</time>
      </trkpt>
      <trkpt lat="47.93666" lon="7.09367">
        <ele>580.00616455</ele>
        <time>2021-06-17T09:20:55Z</time>
      </trkpt>
      <trkpt lat="47.93664" lon="7.09355">
        <ele>580.90600586</ele>
        <time>2021-06-17T09:20:59Z</time>
      </trkpt>
      <trkpt lat="47.93661" lon="7.09339">
        <ele>580.90600586</ele>
        <time>2021-06-17T09:21:02Z</time>
      </trkpt>
      <trkpt lat="47.9366" lon="7.09325">
        <ele>582.08221436</ele>
        <time>2021-06-17T09:21:06Z</time>
      </trkpt>
      <trkpt lat="47.93658" lon="7.09305">
        <ele>582.08221436</ele>
        <time>2021-06-17T09:21:10Z</time>
      </trkpt>
      <trkpt lat="47.93655" lon="7.0929">
        <ele>584.03082275</ele>
        <time>2021-06-17T09:21:14Z</time>
      </trkpt>
      <trkpt lat="47.93657" lon="7.09289">
        <ele>585.06829834</ele>
        <time>2021-06-17T09:22:45Z</time>
      </trkpt>
      <trkpt lat="47.93657" lon="7.09286">
        <ele>585.06829834</ele>
        <time>2021-06-17T09:22:46Z</time>
      </trkpt>
      <trkpt lat="47.93646" lon="7.09279">
        <ele>585.06829834</ele>
        <time>2021-06-17T09:22:51Z</time>
      </trkpt>
      <trkpt lat="47.93641" lon="7.09267">
        <ele>585.06829834</ele>
        <time>2021-06-17T09:22:56Z</time>
      </trkpt>
      <trkpt lat="47.93639" lon="7.09251">
        <ele>585.06829834</ele>
        <time>2021-06-17T09:22:59Z</time>
      </trkpt>
      <trkpt lat="47.93644" lon="7.09234">
        <ele>585.11779785</ele>
        <time>2021-06-17T09:23:03Z</time>
      </trkpt>
      <trkpt lat="47.93643" lon="7.09222">
        <ele>585.11779785</ele>
        <time>2021-06-17T09:23:08Z</time>
      </trkpt>
      <trkpt lat="47.93638" lon="7.0921">
        <ele>585.11779785</ele>
        <time>2021-06-17T09:23:12Z</time>
      </trkpt>
      <trkpt lat="47.93634" lon="7.092">
        <ele>587.21691895</ele>
        <time>2021-06-17T09:23:14Z</time>
      </trkpt>
      <trkpt lat="47.93631" lon="7.09191">
        <ele>587.21691895</ele>
        <time>2021-06-17T09:23:18Z</time>
      </trkpt>
      <trkpt lat="47.9363" lon="7.09176">
        <ele>587.86682129</ele>
        <time>2021-06-17T09:23:23Z</time>
      </trkpt>
      <trkpt lat="47.93624" lon="7.09162">
        <ele>587.86682129</ele>
        <time>2021-06-17T09:23:27Z</time>
      </trkpt>
      <trkpt lat="47.93617" lon="7.09149">
        <ele>588.87908936</ele>
        <time>2021-06-17T09:23:32Z</time>
      </trkpt>
      <trkpt lat="47.93609" lon="7.09139">
        <ele>590.15911865</ele>
        <time>2021-06-17T09:23:37Z</time>
      </trkpt>
      <trkpt lat="47.93602" lon="7.09129">
        <ele>590.15911865</ele>
        <time>2021-06-17T09:23:42Z</time>
      </trkpt>
      <trkpt lat="47.93594" lon="7.09119">
        <ele>591.23443604</ele>
        <time>2021-06-17T09:23:47Z</time>
      </trkpt>
      <trkpt lat="47.93586" lon="7.09111">
        <ele>592.20080566</ele>
        <time>2021-06-17T09:23:52Z</time>
      </trkpt>
      <trkpt lat="47.93577" lon="7.09104">
        <ele>592.20080566</ele>
        <time>2021-06-17T09:23:56Z</time>
      </trkpt>
      <trkpt lat="47.93567" lon="7.09096">
        <ele>592.20080566</ele>
        <time>2021-06-17T09:24:00Z</time>
      </trkpt>
      <trkpt lat="47.9356" lon="7.09086">
        <ele>593.28369141</ele>
        <time>2021-06-17T09:24:04Z</time>
      </trkpt>
      <trkpt lat="47.93551" lon="7.09082">
        <ele>593.28369141</ele>
        <time>2021-06-17T09:24:08Z</time>
      </trkpt>
      <trkpt lat="47.93541" lon="7.09077">
        <ele>594.40612793</ele>
        <time>2021-06-17T09:24:13Z</time>
      </trkpt>
      <trkpt lat="47.93539" lon="7.09063">
        <ele>594.90216064</ele>
        <time>2021-06-17T09:24:14Z</time>
      </trkpt>
      <trkpt lat="47.93536" lon="7.09056">
        <ele>594.90216064</ele>
        <time>2021-06-17T09:24:17Z</time>
      </trkpt>
      <trkpt lat="47.93527" lon="7.09051">
        <ele>594.90216064</ele>
        <time>2021-06-17T09:24:21Z</time>
      </trkpt>
      <trkpt lat="47.93518" lon="7.09043">
        <ele>594.90216064</ele>
        <time>2021-06-17T09:24:25Z</time>
      </trkpt>
      <trkpt lat="47.93512" lon="7.09029">
        <ele>595.42102051</ele>
        <time>2021-06-17T09:24:29Z</time>
      </trkpt>
      <trkpt lat="47.93506" lon="7.09019">
        <ele>595.42102051</ele>
        <time>2021-06-17T09:24:34Z</time>
      </trkpt>
      <trkpt lat="47.935" lon="7.09006">
        <ele>596.49346924</ele>
        <time>2021-06-17T09:24:37Z</time>
      </trkpt>
      <trkpt lat="47.93496" lon="7.08991">
        <ele>596.49346924</ele>
        <time>2021-06-17T09:24:41Z</time>
      </trkpt>
      <trkpt lat="47.93491" lon="7.08977">
        <ele>597.50494385</ele>
        <time>2021-06-17T09:24:45Z</time>
      </trkpt>
      <trkpt lat="47.93487" lon="7.08964">
        <ele>597.50494385</ele>
        <time>2021-06-17T09:24:49Z</time>
      </trkpt>
      <trkpt lat="47.93483" lon="7.0895">
        <ele>598.67028809</ele>
        <time>2021-06-17T09:24:54Z</time>
      </trkpt>
      <trkpt lat="47.9348" lon="7.08936">
        <ele>599.75787354</ele>
        <time>2021-06-17T09:24:58Z</time>
      </trkpt>
      <trkpt lat="47.93477" lon="7.08922">
        <ele>600.8706665</ele>
        <time>2021-06-17T09:25:03Z</time>
      </trkpt>
      <trkpt lat="47.93475" lon="7.08908">
        <ele>602.04040527</ele>
        <time>2021-06-17T09:25:07Z</time>
      </trkpt>
      <trkpt lat="47.93472" lon="7.08893">
        <ele>602.04040527</ele>
        <time>2021-06-17T09:25:11Z</time>
      </trkpt>
      <trkpt lat="47.93469" lon="7.08884">
        <ele>603.53759766</ele>
        <time>2021-06-17T09:25:14Z</time>
      </trkpt>
      <trkpt lat="47.93467" lon="7.08873">
        <ele>603.53759766</ele>
        <time>2021-06-17T09:25:19Z</time>
      </trkpt>
      <trkpt lat="47.93465" lon="7.08859">
        <ele>603.53759766</ele>
        <time>2021-06-17T09:25:24Z</time>
      </trkpt>
      <trkpt lat="47.93464" lon="7.08843">
        <ele>603.99432373</ele>
        <time>2021-06-17T09:25:29Z</time>
      </trkpt>
      <trkpt lat="47.93463" lon="7.08827">
        <ele>603.99432373</ele>
        <time>2021-06-17T09:25:35Z</time>
      </trkpt>
      <trkpt lat="47.93464" lon="7.08813">
        <ele>605.20172119</ele>
        <time>2021-06-17T09:25:39Z</time>
      </trkpt>
      <trkpt lat="47.93467" lon="7.08799">
        <ele>605.20172119</ele>
        <time>2021-06-17T09:25:42Z</time>
      </trkpt>
      <trkpt lat="47.93469" lon="7.08784">
        <ele>605.20172119</ele>
        <time>2021-06-17T09:25:46Z</time>
      </trkpt>
      <trkpt lat="47.9347" lon="7.08767">
        <ele>605.20172119</ele>
        <time>2021-06-17T09:25:49Z</time>
      </trkpt>
      <trkpt lat="47.93475" lon="7.08756">
        <ele>605.85217285</ele>
        <time>2021-06-17T09:25:53Z</time>
      </trkpt>
      <trkpt lat="47.9348" lon="7.08743">
        <ele>607.29260254</ele>
        <time>2021-06-17T09:25:58Z</time>
      </trkpt>
      <trkpt lat="47.93483" lon="7.08725">
        <ele>607.29260254</ele>
        <time>2021-06-17T09:26:02Z</time>
      </trkpt>
      <trkpt lat="47.93482" lon="7.08708">
        <ele>608.32000732</ele>
        <time>2021-06-17T09:26:05Z</time>
      </trkpt>
      <trkpt lat="47.93481" lon="7.08694">
        <ele>608.32000732</ele>
        <time>2021-06-17T09:26:08Z</time>
      </trkpt>
      <trkpt lat="47.93479" lon="7.0868">
        <ele>608.32000732</ele>
        <time>2021-06-17T09:26:11Z</time>
      </trkpt>
      <trkpt lat="47.93477" lon="7.08662">
        <ele>609.8717041</ele>
        <time>2021-06-17T09:26:14Z</time>
      </trkpt>
      <trkpt lat="47.93478" lon="7.08652">
        <ele>609.8717041</ele>
        <time>2021-06-17T09:26:19Z</time>
      </trkpt>
      <trkpt lat="47.93477" lon="7.08635">
        <ele>610.46875</ele>
        <time>2021-06-17T09:26:23Z</time>
      </trkpt>
      <trkpt lat="47.93477" lon="7.0862">
        <ele>610.46875</ele>
        <time>2021-06-17T09:26:27Z</time>
      </trkpt>
      <trkpt lat="47.93475" lon="7.08603">
        <ele>610.46875</ele>
        <time>2021-06-17T09:26:31Z</time>
      </trkpt>
      <trkpt lat="47.93474" lon="7.08589">
        <ele>611.48693848</ele>
        <time>2021-06-17T09:26:35Z</time>
      </trkpt>
      <trkpt lat="47.93474" lon="7.08574">
        <ele>611.48693848</ele>
        <time>2021-06-17T09:26:40Z</time>
      </trkpt>
      <trkpt lat="47.93472" lon="7.08557">
        <ele>612.61907959</ele>
        <time>2021-06-17T09:26:44Z</time>
      </trkpt>
      <trkpt lat="47.93472" lon="7.0854">
        <ele>612.61907959</ele>
        <time>2021-06-17T09:26:48Z</time>
      </trkpt>
      <trkpt lat="47.93472" lon="7.08524">
        <ele>612.61907959</ele>
        <time>2021-06-17T09:26:52Z</time>
      </trkpt>
      <trkpt lat="47.93473" lon="7.08509">
        <ele>613.63409424</ele>
        <time>2021-06-17T09:26:57Z</time>
      </trkpt>
      <trkpt lat="47.93473" lon="7.08494">
        <ele>613.63409424</ele>
        <time>2021-06-17T09:27:01Z</time>
      </trkpt>
      <trkpt lat="47.93475" lon="7.08481">
        <ele>614.85540771</ele>
        <time>2021-06-17T09:27:05Z</time>
      </trkpt>
      <trkpt lat="47.9348" lon="7.08469">
        <ele>614.85540771</ele>
        <time>2021-06-17T09:27:08Z</time>
      </trkpt>
      <trkpt lat="47.93483" lon="7.08454">
        <ele>615.91003418</ele>
        <time>2021-06-17T09:27:13Z</time>
      </trkpt>
      <trkpt lat="47.93483" lon="7.08444">
        <ele>616.70501709</ele>
        <time>2021-06-17T09:27:14Z</time>
      </trkpt>
      <trkpt lat="47.93481" lon="7.08434">
        <ele>616.70501709</ele>
        <time>2021-06-17T09:27:17Z</time>
      </trkpt>
      <trkpt lat="47.93483" lon="7.08423">
        <ele>616.70501709</ele>
        <time>2021-06-17T09:27:21Z</time>
      </trkpt>
      <trkpt lat="47.93484" lon="7.08409">
        <ele>616.70501709</ele>
        <time>2021-06-17T09:27:24Z</time>
      </trkpt>
      <trkpt lat="47.93483" lon="7.08393">
        <ele>617.55340576</ele>
        <time>2021-06-17T09:27:27Z</time>
      </trkpt>
      <trkpt lat="47.93484" lon="7.08378">
        <ele>617.55340576</ele>
        <time>2021-06-17T09:27:31Z</time>
      </trkpt>
      <trkpt lat="47.93488" lon="7.08364">
        <ele>617.55340576</ele>
        <time>2021-06-17T09:27:36Z</time>
      </trkpt>
      <trkpt lat="47.9349" lon="7.08346">
        <ele>618.52709961</ele>
        <time>2021-06-17T09:27:38Z</time>
      </trkpt>
      <trkpt lat="47.9349" lon="7.08334">
        <ele>618.52709961</ele>
        <time>2021-06-17T09:27:41Z</time>
      </trkpt>
      <trkpt lat="47.93491" lon="7.08319">
        <ele>618.52709961</ele>
        <time>2021-06-17T09:27:45Z</time>
      </trkpt>
      <trkpt lat="47.93493" lon="7.08303">
        <ele>619.54174805</ele>
        <time>2021-06-17T09:27:50Z</time>
      </trkpt>
      <trkpt lat="47.93493" lon="7.08285">
        <ele>619.54174805</ele>
        <time>2021-06-17T09:27:53Z</time>
      </trkpt>
      <trkpt lat="47.93492" lon="7.08267">
        <ele>619.54174805</ele>
        <time>2021-06-17T09:27:56Z</time>
      </trkpt>
      <trkpt lat="47.93488" lon="7.08251">
        <ele>620.71795654</ele>
        <time>2021-06-17T09:28:00Z</time>
      </trkpt>
      <trkpt lat="47.93485" lon="7.08235">
        <ele>620.71795654</ele>
        <time>2021-06-17T09:28:04Z</time>
      </trkpt>
      <trkpt lat="47.93485" lon="7.08219">
        <ele>620.71795654</ele>
        <time>2021-06-17T09:28:07Z</time>
      </trkpt>
      <trkpt lat="47.93483" lon="7.08206">
        <ele>620.71795654</ele>
        <time>2021-06-17T09:28:10Z</time>
      </trkpt>
      <trkpt lat="47.93479" lon="7.08186">
        <ele>622.37469482</ele>
        <time>2021-06-17T09:28:14Z</time>
      </trkpt>
      <trkpt lat="47.93478" lon="7.08177">
        <ele>622.37469482</ele>
        <time>2021-06-17T09:28:18Z</time>
      </trkpt>
      <trkpt lat="47.93478" lon="7.0816">
        <ele>623.0458374</ele>
        <time>2021-06-17T09:28:22Z</time>
      </trkpt>
      <trkpt lat="47.93476" lon="7.08144">
        <ele>623.0458374</ele>
        <time>2021-06-17T09:28:26Z</time>
      </trkpt>
      <trkpt lat="47.93471" lon="7.08129">
        <ele>624.20404053</ele>
        <time>2021-06-17T09:28:30Z</time>
      </trkpt>
      <trkpt lat="47.93468" lon="7.08115">
        <ele>625.21185303</ele>
        <time>2021-06-17T09:28:33Z</time>
      </trkpt>
      <trkpt lat="47.93464" lon="7.08102">
        <ele>625.21185303</ele>
        <time>2021-06-17T09:28:36Z</time>
      </trkpt>
      <trkpt lat="47.93463" lon="7.08086">
        <ele>626.3170166</ele>
        <time>2021-06-17T09:28:40Z</time>
      </trkpt>
      <trkpt lat="47.9346" lon="7.08071">
        <ele>627.30389404</ele>
        <time>2021-06-17T09:28:43Z</time>
      </trkpt>
      <trkpt lat="47.93457" lon="7.08057">
        <ele>627.30389404</ele>
        <time>2021-06-17T09:28:47Z</time>
      </trkpt>
      <trkpt lat="47.93454" lon="7.08045">
        <ele>628.34234619</ele>
        <time>2021-06-17T09:28:51Z</time>
      </trkpt>
      <trkpt lat="47.93451" lon="7.08029">
        <ele>629.44647217</ele>
        <time>2021-06-17T09:28:55Z</time>
      </trkpt>
      <trkpt lat="47.93449" lon="7.08012">
        <ele>629.44647217</ele>
        <time>2021-06-17T09:28:59Z</time>
      </trkpt>
      <trkpt lat="47.93449" lon="7.07998">
        <ele>630.5402832</ele>
        <time>2021-06-17T09:29:03Z</time>
      </trkpt>
      <trkpt lat="47.93449" lon="7.07983">
        <ele>631.56970215</ele>
        <time>2021-06-17T09:29:07Z</time>
      </trkpt>
      <trkpt lat="47.93448" lon="7.07966">
        <ele>631.56970215</ele>
        <time>2021-06-17T09:29:11Z</time>
      </trkpt>
      <trkpt lat="47.93447" lon="7.07953">
        <ele>633.01757812</ele>
        <time>2021-06-17T09:29:14Z</time>
      </trkpt>
      <trkpt lat="47.93445" lon="7.07941">
        <ele>633.01757812</ele>
        <time>2021-06-17T09:29:17Z</time>
      </trkpt>
      <trkpt lat="47.93441" lon="7.07927">
        <ele>633.01757812</ele>
        <time>2021-06-17T09:29:20Z</time>
      </trkpt>
      <trkpt lat="47.9344" lon="7.07915">
        <ele>633.61108398</ele>
        <time>2021-06-17T09:29:26Z</time>
      </trkpt>
      <trkpt lat="47.9344" lon="7.07901">
        <ele>633.61108398</ele>
        <time>2021-06-17T09:29:32Z</time>
      </trkpt>
      <trkpt lat="47.93443" lon="7.07886">
        <ele>634.6640625</ele>
        <time>2021-06-17T09:29:37Z</time>
      </trkpt>
      <trkpt lat="47.93441" lon="7.07871">
        <ele>634.6640625</ele>
        <time>2021-06-17T09:29:42Z</time>
      </trkpt>
      <trkpt lat="47.93438" lon="7.07854">
        <ele>635.82714844</ele>
        <time>2021-06-17T09:29:47Z</time>
      </trkpt>
      <trkpt lat="47.93438" lon="7.07838">
        <ele>635.82714844</ele>
        <time>2021-06-17T09:29:51Z</time>
      </trkpt>
      <trkpt lat="47.93438" lon="7.07824">
        <ele>636.7767334</ele>
        <time>2021-06-17T09:29:55Z</time>
      </trkpt>
      <trkpt lat="47.93438" lon="7.0781">
        <ele>636.7767334</ele>
        <time>2021-06-17T09:29:59Z</time>
      </trkpt>
      <trkpt lat="47.93436" lon="7.07794">
        <ele>637.93249512</ele>
        <time>2021-06-17T09:30:03Z</time>
      </trkpt>
      <trkpt lat="47.93437" lon="7.07778">
        <ele>637.93249512</ele>
        <time>2021-06-17T09:30:06Z</time>
      </trkpt>
      <trkpt lat="47.93437" lon="7.07763">
        <ele>638.99334717</ele>
        <time>2021-06-17T09:30:11Z</time>
      </trkpt>
      <trkpt lat="47.93435" lon="7.07749">
        <ele>639.81420898</ele>
        <time>2021-06-17T09:30:14Z</time>
      </trkpt>
      <trkpt lat="47.93436" lon="7.07737">
        <ele>639.81420898</ele>
        <time>2021-06-17T09:30:18Z</time>
      </trkpt>
      <trkpt lat="47.93435" lon="7.07723">
        <ele>640.56622314</ele>
        <time>2021-06-17T09:30:24Z</time>
      </trkpt>
      <trkpt lat="47.93433" lon="7.07706">
        <ele>640.56622314</ele>
        <time>2021-06-17T09:30:28Z</time>
      </trkpt>
      <trkpt lat="47.93432" lon="7.07689">
        <ele>641.69189453</ele>
        <time>2021-06-17T09:30:32Z</time>
      </trkpt>
      <trkpt lat="47.93429" lon="7.07674">
        <ele>642.82434082</ele>
        <time>2021-06-17T09:30:35Z</time>
      </trkpt>
      <trkpt lat="47.93428" lon="7.0766">
        <ele>642.82434082</ele>
        <time>2021-06-17T09:30:40Z</time>
      </trkpt>
      <trkpt lat="47.93427" lon="7.07642">
        <ele>643.91430664</ele>
        <time>2021-06-17T09:30:44Z</time>
      </trkpt>
      <trkpt lat="47.93426" lon="7.07629">
        <ele>643.91430664</ele>
        <time>2021-06-17T09:30:48Z</time>
      </trkpt>
      <trkpt lat="47.93424" lon="7.07615">
        <ele>644.97149658</ele>
        <time>2021-06-17T09:30:52Z</time>
      </trkpt>
      <trkpt lat="47.93425" lon="7.07602">
        <ele>646.11828613</ele>
        <time>2021-06-17T09:30:58Z</time>
      </trkpt>
      <trkpt lat="47.93427" lon="7.07586">
        <ele>647.34362793</ele>
        <time>2021-06-17T09:31:04Z</time>
      </trkpt>
      <trkpt lat="47.93427" lon="7.07569">
        <ele>647.34362793</ele>
        <time>2021-06-17T09:31:08Z</time>
      </trkpt>
      <trkpt lat="47.93428" lon="7.07548">
        <ele>649.17736816</ele>
        <time>2021-06-17T09:31:14Z</time>
      </trkpt>
      <trkpt lat="47.93427" lon="7.07538">
        <ele>649.17736816</ele>
        <time>2021-06-17T09:31:19Z</time>
      </trkpt>
      <trkpt lat="47.93428" lon="7.07522">
        <ele>649.17736816</ele>
        <time>2021-06-17T09:31:25Z</time>
      </trkpt>
      <trkpt lat="47.93428" lon="7.07506">
        <ele>649.59326172</ele>
        <time>2021-06-17T09:31:30Z</time>
      </trkpt>
      <trkpt lat="47.9343" lon="7.07492">
        <ele>649.59326172</ele>
        <time>2021-06-17T09:31:34Z</time>
      </trkpt>
      <trkpt lat="47.9343" lon="7.07475">
        <ele>649.59326172</ele>
        <time>2021-06-17T09:31:37Z</time>
      </trkpt>
      <trkpt lat="47.93429" lon="7.07458">
        <ele>649.59326172</ele>
        <time>2021-06-17T09:31:40Z</time>
      </trkpt>
      <trkpt lat="47.93428" lon="7.07441">
        <ele>649.59326172</ele>
        <time>2021-06-17T09:31:42Z</time>
      </trkpt>
      <trkpt lat="47.93427" lon="7.07428">
        <ele>650.91192627</ele>
        <time>2021-06-17T09:31:45Z</time>
      </trkpt>
      <trkpt lat="47.93427" lon="7.07411">
        <ele>650.91192627</ele>
        <time>2021-06-17T09:31:48Z</time>
      </trkpt>
      <trkpt lat="47.93427" lon="7.07383">
        <ele>651.8949585</ele>
        <time>2021-06-17T09:31:56Z</time>
      </trkpt>
      <trkpt lat="47.93423" lon="7.07368">
        <ele>651.8949585</ele>
        <time>2021-06-17T09:32:00Z</time>
      </trkpt>
      <trkpt lat="47.93421" lon="7.07353">
        <ele>653.10217285</ele>
        <time>2021-06-17T09:32:04Z</time>
      </trkpt>
      <trkpt lat="47.93423" lon="7.07337">
        <ele>653.10217285</ele>
        <time>2021-06-17T09:32:08Z</time>
      </trkpt>
      <trkpt lat="47.93423" lon="7.07322">
        <ele>654.22546387</ele>
        <time>2021-06-17T09:32:13Z</time>
      </trkpt>
      <trkpt lat="47.93422" lon="7.07311">
        <ele>654.97454834</ele>
        <time>2021-06-17T09:32:14Z</time>
      </trkpt>
      <trkpt lat="47.93421" lon="7.07302">
        <ele>654.97454834</ele>
        <time>2021-06-17T09:32:18Z</time>
      </trkpt>
      <trkpt lat="47.93419" lon="7.07287">
        <ele>655.77246094</ele>
        <time>2021-06-17T09:32:22Z</time>
      </trkpt>
      <trkpt lat="47.93418" lon="7.07271">
        <ele>655.77246094</ele>
        <time>2021-06-17T09:32:26Z</time>
      </trkpt>
      <trkpt lat="47.93416" lon="7.07254">
        <ele>657.02679443</ele>
        <time>2021-06-17T09:32:30Z</time>
      </trkpt>
      <trkpt lat="47.93415" lon="7.07239">
        <ele>658.11956787</ele>
        <time>2021-06-17T09:32:34Z</time>
      </trkpt>
      <trkpt lat="47.93415" lon="7.07224">
        <ele>658.11956787</ele>
        <time>2021-06-17T09:32:38Z</time>
      </trkpt>
      <trkpt lat="47.93418" lon="7.0721">
        <ele>659.21551514</ele>
        <time>2021-06-17T09:32:43Z</time>
      </trkpt>
      <trkpt lat="47.93419" lon="7.07195">
        <ele>660.19555664</ele>
        <time>2021-06-17T09:32:48Z</time>
      </trkpt>
      <trkpt lat="47.93415" lon="7.07181">
        <ele>660.19555664</ele>
        <time>2021-06-17T09:32:52Z</time>
      </trkpt>
      <trkpt lat="47.93417" lon="7.07167">
        <ele>661.30291748</ele>
        <time>2021-06-17T09:32:56Z</time>
      </trkpt>
      <trkpt lat="47.93421" lon="7.07155">
        <ele>661.30291748</ele>
        <time>2021-06-17T09:33:00Z</time>
      </trkpt>
      <trkpt lat="47.93424" lon="7.07142">
        <ele>662.36895752</ele>
        <time>2021-06-17T09:33:05Z</time>
      </trkpt>
      <trkpt lat="47.93424" lon="7.07124">
        <ele>662.36895752</ele>
        <time>2021-06-17T09:33:08Z</time>
      </trkpt>
      <trkpt lat="47.93425" lon="7.0711">
        <ele>663.53253174</ele>
        <time>2021-06-17T09:33:12Z</time>
      </trkpt>
      <trkpt lat="47.93424" lon="7.07099">
        <ele>664.08428955</ele>
        <time>2021-06-17T09:33:14Z</time>
      </trkpt>
      <trkpt lat="47.9342" lon="7.07088">
        <ele>664.08428955</ele>
        <time>2021-06-17T09:33:17Z</time>
      </trkpt>
      <trkpt lat="47.9342" lon="7.07077">
        <ele>664.08428955</ele>
        <time>2021-06-17T09:33:21Z</time>
      </trkpt>
      <trkpt lat="47.93419" lon="7.07062">
        <ele>664.71289062</ele>
        <time>2021-06-17T09:33:24Z</time>
      </trkpt>
      <trkpt lat="47.93417" lon="7.07048">
        <ele>665.86016846</ele>
        <time>2021-06-17T09:33:29Z</time>
      </trkpt>
      <trkpt lat="47.93417" lon="7.07039">
        <ele>666.97753906</ele>
        <time>2021-06-17T09:34:08Z</time>
      </trkpt>
      <trkpt lat="47.93416" lon="7.07018">
        <ele>666.97753906</ele>
        <time>2021-06-17T09:34:13Z</time>
      </trkpt>
      <trkpt lat="47.93415" lon="7.0701">
        <ele>667.10284424</ele>
        <time>2021-06-17T09:34:14Z</time>
      </trkpt>
      <trkpt lat="47.93414" lon="7.07002">
        <ele>667.10284424</ele>
        <time>2021-06-17T09:34:20Z</time>
      </trkpt>
      <trkpt lat="47.93409" lon="7.06987">
        <ele>667.92346191</ele>
        <time>2021-06-17T09:34:25Z</time>
      </trkpt>
      <trkpt lat="47.93406" lon="7.06972">
        <ele>668.9586792</ele>
        <time>2021-06-17T09:34:31Z</time>
      </trkpt>
      <trkpt lat="47.93404" lon="7.06957">
        <ele>668.9586792</ele>
        <time>2021-06-17T09:34:36Z</time>
      </trkpt>
      <trkpt lat="47.93404" lon="7.06944">
        <ele>670.10998535</ele>
        <time>2021-06-17T09:34:40Z</time>
      </trkpt>
      <trkpt lat="47.93404" lon="7.06931">
        <ele>671.21075439</ele>
        <time>2021-06-17T09:34:46Z</time>
      </trkpt>
      <trkpt lat="47.93404" lon="7.06914">
        <ele>672.11126709</ele>
        <time>2021-06-17T09:34:50Z</time>
      </trkpt>
      <trkpt lat="47.93404" lon="7.069">
        <ele>672.11126709</ele>
        <time>2021-06-17T09:34:55Z</time>
      </trkpt>
      <trkpt lat="47.93403" lon="7.06881">
        <ele>673.25811768</ele>
        <time>2021-06-17T09:35:02Z</time>
      </trkpt>
      <trkpt lat="47.93403" lon="7.06866">
        <ele>674.34960938</ele>
        <time>2021-06-17T09:35:07Z</time>
      </trkpt>
      <trkpt lat="47.93401" lon="7.06852">
        <ele>675.37780762</ele>
        <time>2021-06-17T09:35:11Z</time>
      </trkpt>
      <trkpt lat="47.93396" lon="7.06833">
        <ele>676.1762085</ele>
        <time>2021-06-17T09:35:14Z</time>
      </trkpt>
      <trkpt lat="47.93393" lon="7.06825">
        <ele>676.1762085</ele>
        <time>2021-06-17T09:35:18Z</time>
      </trkpt>
      <trkpt lat="47.93389" lon="7.06808">
        <ele>676.99633789</ele>
        <time>2021-06-17T09:35:22Z</time>
      </trkpt>
      <trkpt lat="47.93386" lon="7.06795">
        <ele>676.99633789</ele>
        <time>2021-06-17T09:35:26Z</time>
      </trkpt>
      <trkpt lat="47.93388" lon="7.0678">
        <ele>678.08898926</ele>
        <time>2021-06-17T09:35:30Z</time>
      </trkpt>
      <trkpt lat="47.93385" lon="7.06765">
        <ele>679.25439453</ele>
        <time>2021-06-17T09:35:34Z</time>
      </trkpt>
      <trkpt lat="47.93382" lon="7.06749">
        <ele>679.25439453</ele>
        <time>2021-06-17T09:35:38Z</time>
      </trkpt>
      <trkpt lat="47.93378" lon="7.06733">
        <ele>680.48736572</ele>
        <time>2021-06-17T09:35:42Z</time>
      </trkpt>
      <trkpt lat="47.93376" lon="7.06717">
        <ele>680.48736572</ele>
        <time>2021-06-17T09:35:45Z</time>
      </trkpt>
      <trkpt lat="47.93372" lon="7.06703">
        <ele>681.57647705</ele>
        <time>2021-06-17T09:35:49Z</time>
      </trkpt>
      <trkpt lat="47.9337" lon="7.06689">
        <ele>682.76586914</ele>
        <time>2021-06-17T09:35:54Z</time>
      </trkpt>
      <trkpt lat="47.93369" lon="7.06673">
        <ele>683.81884766</ele>
        <time>2021-06-17T09:35:59Z</time>
      </trkpt>
      <trkpt lat="47.93367" lon="7.06657">
        <ele>685.06304932</ele>
        <time>2021-06-17T09:36:03Z</time>
      </trkpt>
      <trkpt lat="47.93364" lon="7.06642">
        <ele>686.12902832</ele>
        <time>2021-06-17T09:36:07Z</time>
      </trkpt>
      <trkpt lat="47.93361" lon="7.06627">
        <ele>687.15563965</ele>
        <time>2021-06-17T09:36:12Z</time>
      </trkpt>
      <trkpt lat="47.93358" lon="7.06615">
        <ele>687.93670654</ele>
        <time>2021-06-17T09:36:14Z</time>
      </trkpt>
      <trkpt lat="47.93358" lon="7.06603">
        <ele>688.75543213</ele>
        <time>2021-06-17T09:36:20Z</time>
      </trkpt>
      <trkpt lat="47.93351" lon="7.06586">
        <ele>688.75543213</ele>
        <time>2021-06-17T09:36:24Z</time>
      </trkpt>
      <trkpt lat="47.93348" lon="7.0657">
        <ele>689.85791016</ele>
        <time>2021-06-17T09:36:27Z</time>
      </trkpt>
      <trkpt lat="47.93346" lon="7.06557">
        <ele>691.01879883</ele>
        <time>2021-06-17T09:36:31Z</time>
      </trkpt>
      <trkpt lat="47.93341" lon="7.06544">
        <ele>692.18798828</ele>
        <time>2021-06-17T09:36:36Z</time>
      </trkpt>
      <trkpt lat="47.93337" lon="7.0653">
        <ele>693.18847656</ele>
        <time>2021-06-17T09:36:40Z</time>
      </trkpt>
      <trkpt lat="47.93333" lon="7.06515">
        <ele>694.2578125</ele>
        <time>2021-06-17T09:36:44Z</time>
      </trkpt>
      <trkpt lat="47.93327" lon="7.06504">
        <ele>694.2578125</ele>
        <time>2021-06-17T09:36:48Z</time>
      </trkpt>
      <trkpt lat="47.93323" lon="7.06488">
        <ele>695.24743652</ele>
        <time>2021-06-17T09:36:52Z</time>
      </trkpt>
      <trkpt lat="47.9332" lon="7.06473">
        <ele>696.36907959</ele>
        <time>2021-06-17T09:36:57Z</time>
      </trkpt>
      <trkpt lat="47.93313" lon="7.06459">
        <ele>697.45098877</ele>
        <time>2021-06-17T09:37:01Z</time>
      </trkpt>
      <trkpt lat="47.93308" lon="7.06446">
        <ele>698.59320068</ele>
        <time>2021-06-17T09:37:05Z</time>
      </trkpt>
      <trkpt lat="47.93301" lon="7.06436">
        <ele>698.59320068</ele>
        <time>2021-06-17T09:37:09Z</time>
      </trkpt>
      <trkpt lat="47.93294" lon="7.06424">
        <ele>699.74884033</ele>
        <time>2021-06-17T09:37:13Z</time>
      </trkpt>
      <trkpt lat="47.9329" lon="7.06416">
        <ele>700.75585938</ele>
        <time>2021-06-17T09:37:14Z</time>
      </trkpt>
      <trkpt lat="47.93288" lon="7.06407">
        <ele>701.80828857</ele>
        <time>2021-06-17T09:37:20Z</time>
      </trkpt>
      <trkpt lat="47.93285" lon="7.06392">
        <ele>701.80828857</ele>
        <time>2021-06-17T09:37:24Z</time>
      </trkpt>
      <trkpt lat="47.93281" lon="7.06379">
        <ele>702.93792725</ele>
        <time>2021-06-17T09:37:29Z</time>
      </trkpt>
      <trkpt lat="47.93281" lon="7.06365">
        <ele>704.02227783</ele>
        <time>2021-06-17T09:37:33Z</time>
      </trkpt>
      <trkpt lat="47.93279" lon="7.06353">
        <ele>705.13391113</ele>
        <time>2021-06-17T09:37:38Z</time>
      </trkpt>
      <trkpt lat="47.93272" lon="7.0634">
        <ele>705.13391113</ele>
        <time>2021-06-17T09:37:41Z</time>
      </trkpt>
      <trkpt lat="47.93268" lon="7.06329">
        <ele>706.24334717</ele>
        <time>2021-06-17T09:37:46Z</time>
      </trkpt>
      <trkpt lat="47.93265" lon="7.06314">
        <ele>707.35015869</ele>
        <time>2021-06-17T09:37:51Z</time>
      </trkpt>
      <trkpt lat="47.93266" lon="7.06299">
        <ele>708.35974121</ele>
        <time>2021-06-17T09:37:56Z</time>
      </trkpt>
      <trkpt lat="47.93263" lon="7.06286">
        <ele>710.5881958</ele>
        <time>2021-06-17T09:38:03Z</time>
      </trkpt>
      <trkpt lat="47.9326" lon="7.0627">
        <ele>710.5881958</ele>
        <time>2021-06-17T09:38:07Z</time>
      </trkpt>
      <trkpt lat="47.93261" lon="7.06253">
        <ele>711.59851074</ele>
        <time>2021-06-17T09:38:10Z</time>
      </trkpt>
      <trkpt lat="47.93258" lon="7.06232">
        <ele>713.41210938</ele>
        <time>2021-06-17T09:38:14Z</time>
      </trkpt>
      <trkpt lat="47.93255" lon="7.06224">
        <ele>713.41210938</ele>
        <time>2021-06-17T09:38:17Z</time>
      </trkpt>
      <trkpt lat="47.93255" lon="7.0621">
        <ele>714.17706299</ele>
        <time>2021-06-17T09:38:20Z</time>
      </trkpt>
      <trkpt lat="47.93254" lon="7.06194">
        <ele>714.17706299</ele>
        <time>2021-06-17T09:38:23Z</time>
      </trkpt>
      <trkpt lat="47.93256" lon="7.06177">
        <ele>715.12243652</ele>
        <time>2021-06-17T09:38:26Z</time>
      </trkpt>
      <trkpt lat="47.93263" lon="7.06169">
        <ele>715.12243652</ele>
        <time>2021-06-17T09:38:30Z</time>
      </trkpt>
      <trkpt lat="47.93272" lon="7.06163">
        <ele>716.24194336</ele>
        <time>2021-06-17T09:38:34Z</time>
      </trkpt>
      <trkpt lat="47.93281" lon="7.06168">
        <ele>717.31195068</ele>
        <time>2021-06-17T09:38:37Z</time>
      </trkpt>
      <trkpt lat="47.93287" lon="7.0618">
        <ele>717.31195068</ele>
        <time>2021-06-17T09:38:41Z</time>
      </trkpt>
      <trkpt lat="47.93293" lon="7.06193">
        <ele>718.35974121</ele>
        <time>2021-06-17T09:38:45Z</time>
      </trkpt>
      <trkpt lat="47.93297" lon="7.0621">
        <ele>719.37402344</ele>
        <time>2021-06-17T09:38:49Z</time>
      </trkpt>
      <trkpt lat="47.93299" lon="7.06227">
        <ele>719.37402344</ele>
        <time>2021-06-17T09:38:52Z</time>
      </trkpt>
      <trkpt lat="47.93303" lon="7.06239">
        <ele>720.44073486</ele>
        <time>2021-06-17T09:38:55Z</time>
      </trkpt>
      <trkpt lat="47.93307" lon="7.06253">
        <ele>721.55859375</ele>
        <time>2021-06-17T09:38:59Z</time>
      </trkpt>
      <trkpt lat="47.9331" lon="7.06269">
        <ele>721.55859375</ele>
        <time>2021-06-17T09:39:03Z</time>
      </trkpt>
      <trkpt lat="47.93314" lon="7.06286">
        <ele>722.69561768</ele>
        <time>2021-06-17T09:39:06Z</time>
      </trkpt>
      <trkpt lat="47.93319" lon="7.063">
        <ele>722.69561768</ele>
        <time>2021-06-17T09:39:09Z</time>
      </trkpt>
      <trkpt lat="47.93325" lon="7.06312">
        <ele>723.80584717</ele>
        <time>2021-06-17T09:39:12Z</time>
      </trkpt>
      <trkpt lat="47.9333" lon="7.06321">
        <ele>725.49578857</ele>
        <time>2021-06-17T09:39:14Z</time>
      </trkpt>
      <trkpt lat="47.93336" lon="7.0633">
        <ele>726.18951416</ele>
        <time>2021-06-17T09:39:17Z</time>
      </trkpt>
      <trkpt lat="47.93344" lon="7.06335">
        <ele>727.3190918</ele>
        <time>2021-06-17T09:39:21Z</time>
      </trkpt>
      <trkpt lat="47.93354" lon="7.06341">
        <ele>727.3190918</ele>
        <time>2021-06-17T09:39:24Z</time>
      </trkpt>
      <trkpt lat="47.93362" lon="7.06351">
        <ele>728.36236572</ele>
        <time>2021-06-17T09:39:27Z</time>
      </trkpt>
      <trkpt lat="47.93369" lon="7.06362">
        <ele>729.4855957</ele>
        <time>2021-06-17T09:39:30Z</time>
      </trkpt>
      <trkpt lat="47.93377" lon="7.06371">
        <ele>729.4855957</ele>
        <time>2021-06-17T09:39:34Z</time>
      </trkpt>
      <trkpt lat="47.93385" lon="7.06381">
        <ele>730.56207275</ele>
        <time>2021-06-17T09:39:38Z</time>
      </trkpt>
      <trkpt lat="47.93391" lon="7.06395">
        <ele>731.74542236</ele>
        <time>2021-06-17T09:39:43Z</time>
      </trkpt>
      <trkpt lat="47.93396" lon="7.06407">
        <ele>732.99414062</ele>
        <time>2021-06-17T09:39:47Z</time>
      </trkpt>
      <trkpt lat="47.93397" lon="7.06422">
        <ele>733.95092773</ele>
        <time>2021-06-17T09:39:52Z</time>
      </trkpt>
      <trkpt lat="47.93402" lon="7.06437">
        <ele>733.95092773</ele>
        <time>2021-06-17T09:39:57Z</time>
      </trkpt>
      <trkpt lat="47.93405" lon="7.06452">
        <ele>735.0222168</ele>
        <time>2021-06-17T09:40:01Z</time>
      </trkpt>
      <trkpt lat="47.9341" lon="7.06464">
        <ele>736.10784912</ele>
        <time>2021-06-17T09:40:07Z</time>
      </trkpt>
      <trkpt lat="47.93418" lon="7.06477">
        <ele>737.17010498</ele>
        <time>2021-06-17T09:40:12Z</time>
      </trkpt>
      <trkpt lat="47.93424" lon="7.06486">
        <ele>738.00543213</ele>
        <time>2021-06-17T09:40:14Z</time>
      </trkpt>
      <trkpt lat="47.93429" lon="7.06494">
        <ele>738.00543213</ele>
        <time>2021-06-17T09:40:18Z</time>
      </trkpt>
      <trkpt lat="47.93434" lon="7.06505">
        <ele>738.87921143</ele>
        <time>2021-06-17T09:40:22Z</time>
      </trkpt>
      <trkpt lat="47.9344" lon="7.06517">
        <ele>739.96881104</ele>
        <time>2021-06-17T09:40:26Z</time>
      </trkpt>
      <trkpt lat="47.93446" lon="7.0653">
        <ele>741.06616211</ele>
        <time>2021-06-17T09:40:30Z</time>
      </trkpt>
      <trkpt lat="47.93453" lon="7.06541">
        <ele>742.12872314</ele>
        <time>2021-06-17T09:40:34Z</time>
      </trkpt>
      <trkpt lat="47.93457" lon="7.06556">
        <ele>743.29962158</ele>
        <time>2021-06-17T09:40:37Z</time>
      </trkpt>
      <trkpt lat="47.93463" lon="7.06569">
        <ele>743.29962158</ele>
        <time>2021-06-17T09:40:41Z</time>
      </trkpt>
      <trkpt lat="47.9347" lon="7.06578">
        <ele>744.48675537</ele>
        <time>2021-06-17T09:40:45Z</time>
      </trkpt>
      <trkpt lat="47.93477" lon="7.06589">
        <ele>745.59716797</ele>
        <time>2021-06-17T09:40:48Z</time>
      </trkpt>
      <trkpt lat="47.93481" lon="7.06603">
        <ele>746.71759033</ele>
        <time>2021-06-17T09:40:52Z</time>
      </trkpt>
      <trkpt lat="47.93485" lon="7.06617">
        <ele>747.90283203</ele>
        <time>2021-06-17T09:40:56Z</time>
      </trkpt>
      <trkpt lat="47.9349" lon="7.06629">
        <ele>748.89886475</ele>
        <time>2021-06-17T09:41:01Z</time>
      </trkpt>
      <trkpt lat="47.93494" lon="7.06642">
        <ele>749.9901123</ele>
        <time>2021-06-17T09:41:06Z</time>
      </trkpt>
      <trkpt lat="47.93499" lon="7.06655">
        <ele>751.10864258</ele>
        <time>2021-06-17T09:41:10Z</time>
      </trkpt>
      <trkpt lat="47.93503" lon="7.06666">
        <ele>752.01208496</ele>
        <time>2021-06-17T09:41:14Z</time>
      </trkpt>
      <trkpt lat="47.93508" lon="7.06676">
        <ele>753.05041504</ele>
        <time>2021-06-17T09:41:19Z</time>
      </trkpt>
      <trkpt lat="47.93512" lon="7.06691">
        <ele>754.09552002</ele>
        <time>2021-06-17T09:41:24Z</time>
      </trkpt>
      <trkpt lat="47.93518" lon="7.06704">
        <ele>755.14306641</ele>
        <time>2021-06-17T09:41:28Z</time>
      </trkpt>
      <trkpt lat="47.93524" lon="7.06716">
        <ele>755.14306641</ele>
        <time>2021-06-17T09:41:32Z</time>
      </trkpt>
      <trkpt lat="47.93527" lon="7.06731">
        <ele>756.33660889</ele>
        <time>2021-06-17T09:41:37Z</time>
      </trkpt>
      <trkpt lat="47.93533" lon="7.06744">
        <ele>757.39398193</ele>
        <time>2021-06-17T09:41:42Z</time>
      </trkpt>
      <trkpt lat="47.93539" lon="7.06757">
        <ele>758.53149414</ele>
        <time>2021-06-17T09:41:46Z</time>
      </trkpt>
      <trkpt lat="47.93543" lon="7.06771">
        <ele>759.72747803</ele>
        <time>2021-06-17T09:41:50Z</time>
      </trkpt>
      <trkpt lat="47.93547" lon="7.06786">
        <ele>760.78100586</ele>
        <time>2021-06-17T09:41:54Z</time>
      </trkpt>
      <trkpt lat="47.93552" lon="7.068">
        <ele>761.90576172</ele>
        <time>2021-06-17T09:41:59Z</time>
      </trkpt>
      <trkpt lat="47.93557" lon="7.06812">
        <ele>761.90576172</ele>
        <time>2021-06-17T09:42:04Z</time>
      </trkpt>
      <trkpt lat="47.93564" lon="7.06823">
        <ele>762.95904541</ele>
        <time>2021-06-17T09:42:09Z</time>
      </trkpt>
      <trkpt lat="47.93576" lon="7.06828">
        <ele>763.96264648</ele>
        <time>2021-06-17T09:42:14Z</time>
      </trkpt>
      <trkpt lat="47.93578" lon="7.06824">
        <ele>763.96264648</ele>
        <time>2021-06-17T09:43:02Z</time>
      </trkpt>
      <trkpt lat="47.93587" lon="7.0682">
        <ele>763.96264648</ele>
        <time>2021-06-17T09:43:09Z</time>
      </trkpt>
      <trkpt lat="47.93599" lon="7.06818">
        <ele>764.95825195</ele>
        <time>2021-06-17T09:43:13Z</time>
      </trkpt>
      <trkpt lat="47.93604" lon="7.06816">
        <ele>765.89862061</ele>
        <time>2021-06-17T09:43:14Z</time>
      </trkpt>
      <trkpt lat="47.9361" lon="7.06815">
        <ele>765.89862061</ele>
        <time>2021-06-17T09:43:18Z</time>
      </trkpt>
      <trkpt lat="47.93619" lon="7.06815">
        <ele>766.94415283</ele>
        <time>2021-06-17T09:43:22Z</time>
      </trkpt>
      <trkpt lat="47.93629" lon="7.06815">
        <ele>767.98443604</ele>
        <time>2021-06-17T09:43:26Z</time>
      </trkpt>
      <trkpt lat="47.93641" lon="7.06818">
        <ele>769.06292725</ele>
        <time>2021-06-17T09:43:31Z</time>
      </trkpt>
      <trkpt lat="47.93649" lon="7.06819">
        <ele>770.29614258</ele>
        <time>2021-06-17T09:43:39Z</time>
      </trkpt>
      <trkpt lat="47.93662" lon="7.06817">
        <ele>771.49047852</ele>
        <time>2021-06-17T09:43:43Z</time>
      </trkpt>
      <trkpt lat="47.93673" lon="7.0682">
        <ele>772.574646</ele>
        <time>2021-06-17T09:43:47Z</time>
      </trkpt>
      <trkpt lat="47.93683" lon="7.06817">
        <ele>773.64196777</ele>
        <time>2021-06-17T09:43:52Z</time>
      </trkpt>
      <trkpt lat="47.93692" lon="7.06815">
        <ele>774.77209473</ele>
        <time>2021-06-17T09:43:56Z</time>
      </trkpt>
      <trkpt lat="47.93704" lon="7.06812">
        <ele>774.77209473</ele>
        <time>2021-06-17T09:43:59Z</time>
      </trkpt>
      <trkpt lat="47.93713" lon="7.06811">
        <ele>775.92596436</ele>
        <time>2021-06-17T09:44:03Z</time>
      </trkpt>
      <trkpt lat="47.93721" lon="7.06808">
        <ele>777.15545654</ele>
        <time>2021-06-17T09:44:06Z</time>
      </trkpt>
      <trkpt lat="47.93731" lon="7.06804">
        <ele>777.15545654</ele>
        <time>2021-06-17T09:44:10Z</time>
      </trkpt>
      <trkpt lat="47.93743" lon="7.06801">
        <ele>779.25463867</ele>
        <time>2021-06-17T09:44:14Z</time>
      </trkpt>
      <trkpt lat="47.9375" lon="7.068">
        <ele>780.1159668</ele>
        <time>2021-06-17T09:44:18Z</time>
      </trkpt>
      <trkpt lat="47.93759" lon="7.06798">
        <ele>780.1159668</ele>
        <time>2021-06-17T09:44:22Z</time>
      </trkpt>
      <trkpt lat="47.93769" lon="7.06792">
        <ele>781.11639404</ele>
        <time>2021-06-17T09:44:26Z</time>
      </trkpt>
      <trkpt lat="47.93781" lon="7.06791">
        <ele>782.21661377</ele>
        <time>2021-06-17T09:44:29Z</time>
      </trkpt>
      <trkpt lat="47.93791" lon="7.06792">
        <ele>783.2956543</ele>
        <time>2021-06-17T09:44:33Z</time>
      </trkpt>
      <trkpt lat="47.93801" lon="7.06791">
        <ele>784.41027832</ele>
        <time>2021-06-17T09:44:38Z</time>
      </trkpt>
      <trkpt lat="47.93811" lon="7.06786">
        <ele>784.41027832</ele>
        <time>2021-06-17T09:44:43Z</time>
      </trkpt>
      <trkpt lat="47.93821" lon="7.06785">
        <ele>785.45257568</ele>
        <time>2021-06-17T09:44:47Z</time>
      </trkpt>
      <trkpt lat="47.93831" lon="7.06789">
        <ele>785.45257568</ele>
        <time>2021-06-17T09:44:51Z</time>
      </trkpt>
      <trkpt lat="47.9384" lon="7.06797">
        <ele>786.43560791</ele>
        <time>2021-06-17T09:44:56Z</time>
      </trkpt>
      <trkpt lat="47.93843" lon="7.06813">
        <ele>786.43560791</ele>
        <time>2021-06-17T09:44:59Z</time>
      </trkpt>
      <trkpt lat="47.93843" lon="7.06827">
        <ele>787.61047363</ele>
        <time>2021-06-17T09:45:02Z</time>
      </trkpt>
      <trkpt lat="47.9384" lon="7.06841">
        <ele>787.61047363</ele>
        <time>2021-06-17T09:45:05Z</time>
      </trkpt>
      <trkpt lat="47.93836" lon="7.06855">
        <ele>788.75531006</ele>
        <time>2021-06-17T09:45:09Z</time>
      </trkpt>
      <trkpt lat="47.93832" lon="7.06871">
        <ele>788.75531006</ele>
        <time>2021-06-17T09:45:13Z</time>
      </trkpt>
      <trkpt lat="47.93831" lon="7.0688">
        <ele>789.70184326</ele>
        <time>2021-06-17T09:45:14Z</time>
      </trkpt>
      <trkpt lat="47.93828" lon="7.06889">
        <ele>789.70184326</ele>
        <time>2021-06-17T09:45:18Z</time>
      </trkpt>
      <trkpt lat="47.93824" lon="7.06906">
        <ele>790.77264404</ele>
        <time>2021-06-17T09:45:22Z</time>
      </trkpt>
      <trkpt lat="47.9382" lon="7.06923">
        <ele>791.95874023</ele>
        <time>2021-06-17T09:45:26Z</time>
      </trkpt>
      <trkpt lat="47.93815" lon="7.06936">
        <ele>793.10742188</ele>
        <time>2021-06-17T09:45:30Z</time>
      </trkpt>
      <trkpt lat="47.93816" lon="7.06952">
        <ele>794.1463623</ele>
        <time>2021-06-17T09:45:34Z</time>
      </trkpt>
      <trkpt lat="47.93815" lon="7.06969">
        <ele>794.1463623</ele>
        <time>2021-06-17T09:45:38Z</time>
      </trkpt>
      <trkpt lat="47.93814" lon="7.06985">
        <ele>795.2611084</ele>
        <time>2021-06-17T09:45:42Z</time>
      </trkpt>
      <trkpt lat="47.93808" lon="7.06996">
        <ele>796.40576172</ele>
        <time>2021-06-17T09:45:47Z</time>
      </trkpt>
      <trkpt lat="47.93801" lon="7.07006">
        <ele>797.41101074</ele>
        <time>2021-06-17T09:45:52Z</time>
      </trkpt>
      <trkpt lat="47.93795" lon="7.07017">
        <ele>798.4800415</ele>
        <time>2021-06-17T09:45:57Z</time>
      </trkpt>
      <trkpt lat="47.93787" lon="7.0703">
        <ele>799.44110107</ele>
        <time>2021-06-17T09:46:02Z</time>
      </trkpt>
      <trkpt lat="47.9378" lon="7.07041">
        <ele>800.51318359</ele>
        <time>2021-06-17T09:46:07Z</time>
      </trkpt>
      <trkpt lat="47.93775" lon="7.07054">
        <ele>801.57653809</ele>
        <time>2021-06-17T09:46:11Z</time>
      </trkpt>
      <trkpt lat="47.9377" lon="7.07072">
        <ele>803.09246826</ele>
        <time>2021-06-17T09:46:14Z</time>
      </trkpt>
      <trkpt lat="47.93767" lon="7.07082">
        <ele>803.09246826</ele>
        <time>2021-06-17T09:46:18Z</time>
      </trkpt>
      <trkpt lat="47.93761" lon="7.07094">
        <ele>803.7432251</ele>
        <time>2021-06-17T09:46:22Z</time>
      </trkpt>
      <trkpt lat="47.93756" lon="7.07105">
        <ele>804.83154297</ele>
        <time>2021-06-17T09:46:27Z</time>
      </trkpt>
      <trkpt lat="47.93747" lon="7.07115">
        <ele>805.86883545</ele>
        <time>2021-06-17T09:46:31Z</time>
      </trkpt>
      <trkpt lat="47.93743" lon="7.07129">
        <ele>807.03533936</ele>
        <time>2021-06-17T09:46:36Z</time>
      </trkpt>
      <trkpt lat="47.93737" lon="7.07142">
        <ele>808.06268311</ele>
        <time>2021-06-17T09:46:40Z</time>
      </trkpt>
      <trkpt lat="47.93734" lon="7.07158">
        <ele>808.06268311</ele>
        <time>2021-06-17T09:46:44Z</time>
      </trkpt>
      <trkpt lat="47.93727" lon="7.07171">
        <ele>809.07714844</ele>
        <time>2021-06-17T09:46:48Z</time>
      </trkpt>
      <trkpt lat="47.93722" lon="7.07185">
        <ele>810.20819092</ele>
        <time>2021-06-17T09:46:52Z</time>
      </trkpt>
      <trkpt lat="47.93714" lon="7.07196">
        <ele>811.21972656</ele>
        <time>2021-06-17T09:46:57Z</time>
      </trkpt>
      <trkpt lat="47.9371" lon="7.07209">
        <ele>812.31970215</ele>
        <time>2021-06-17T09:47:02Z</time>
      </trkpt>
      <trkpt lat="47.93705" lon="7.07223">
        <ele>813.45703125</ele>
        <time>2021-06-17T09:47:06Z</time>
      </trkpt>
      <trkpt lat="47.93701" lon="7.07236">
        <ele>814.58795166</ele>
        <time>2021-06-17T09:47:10Z</time>
      </trkpt>
      <trkpt lat="47.93698" lon="7.07249">
        <ele>815.4776001</ele>
        <time>2021-06-17T09:47:14Z</time>
      </trkpt>
      <trkpt lat="47.93694" lon="7.07262">
        <ele>816.53033447</ele>
        <time>2021-06-17T09:47:19Z</time>
      </trkpt>
      <trkpt lat="47.9369" lon="7.0728">
        <ele>816.53033447</ele>
        <time>2021-06-17T09:47:22Z</time>
      </trkpt>
      <trkpt lat="47.93689" lon="7.07295">
        <ele>817.81219482</ele>
        <time>2021-06-17T09:47:26Z</time>
      </trkpt>
      <trkpt lat="47.93691" lon="7.07312">
        <ele>818.93237305</ele>
        <time>2021-06-17T09:47:29Z</time>
      </trkpt>
      <trkpt lat="47.93691" lon="7.07324">
        <ele>818.93237305</ele>
        <time>2021-06-17T09:47:32Z</time>
      </trkpt>
      <trkpt lat="47.93694" lon="7.07339">
        <ele>820.05859375</ele>
        <time>2021-06-17T09:47:35Z</time>
      </trkpt>
      <trkpt lat="47.93694" lon="7.07353">
        <ele>820.05859375</ele>
        <time>2021-06-17T09:47:39Z</time>
      </trkpt>
      <trkpt lat="47.93695" lon="7.07369">
        <ele>821.25799561</ele>
        <time>2021-06-17T09:47:42Z</time>
      </trkpt>
      <trkpt lat="47.93698" lon="7.07383">
        <ele>822.2779541</ele>
        <time>2021-06-17T09:47:46Z</time>
      </trkpt>
      <trkpt lat="47.93699" lon="7.07397">
        <ele>823.37536621</ele>
        <time>2021-06-17T09:47:51Z</time>
      </trkpt>
      <trkpt lat="47.93702" lon="7.0741">
        <ele>823.37536621</ele>
        <time>2021-06-17T09:47:55Z</time>
      </trkpt>
      <trkpt lat="47.93709" lon="7.07421">
        <ele>824.47351074</ele>
        <time>2021-06-17T09:48:00Z</time>
      </trkpt>
      <trkpt lat="47.93717" lon="7.07418">
        <ele>825.503479</ele>
        <time>2021-06-17T09:48:04Z</time>
      </trkpt>
      <trkpt lat="47.93722" lon="7.07404">
        <ele>825.503479</ele>
        <time>2021-06-17T09:48:09Z</time>
      </trkpt>
      <trkpt lat="47.93723" lon="7.07381">
        <ele>827.43951416</ele>
        <time>2021-06-17T09:48:14Z</time>
      </trkpt>
      <trkpt lat="47.93722" lon="7.07372">
        <ele>827.43951416</ele>
        <time>2021-06-17T09:48:18Z</time>
      </trkpt>
      <trkpt lat="47.9372" lon="7.07355">
        <ele>828.3659668</ele>
        <time>2021-06-17T09:48:22Z</time>
      </trkpt>
      <trkpt lat="47.9372" lon="7.07338">
        <ele>828.3659668</ele>
        <time>2021-06-17T09:48:25Z</time>
      </trkpt>
      <trkpt lat="47.93724" lon="7.07323">
        <ele>829.51342773</ele>
        <time>2021-06-17T09:48:29Z</time>
      </trkpt>
      <trkpt lat="47.93728" lon="7.0731">
        <ele>830.57446289</ele>
        <time>2021-06-17T09:48:33Z</time>
      </trkpt>
      <trkpt lat="47.93734" lon="7.07297">
        <ele>831.58935547</ele>
        <time>2021-06-17T09:48:37Z</time>
      </trkpt>
      <trkpt lat="47.93742" lon="7.07287">
        <ele>832.73077393</ele>
        <time>2021-06-17T09:48:41Z</time>
      </trkpt>
      <trkpt lat="47.93749" lon="7.07279">
        <ele>833.75726318</ele>
        <time>2021-06-17T09:48:46Z</time>
      </trkpt>
      <trkpt lat="47.93757" lon="7.07271">
        <ele>834.90344238</ele>
        <time>2021-06-17T09:48:51Z</time>
      </trkpt>
      <trkpt lat="47.93766" lon="7.07262">
        <ele>834.90344238</ele>
        <time>2021-06-17T09:48:55Z</time>
      </trkpt>
      <trkpt lat="47.93774" lon="7.07252">
        <ele>836.09295654</ele>
        <time>2021-06-17T09:49:00Z</time>
      </trkpt>
      <trkpt lat="47.93783" lon="7.07243">
        <ele>837.11077881</ele>
        <time>2021-06-17T09:49:04Z</time>
      </trkpt>
      <trkpt lat="47.9379" lon="7.07235">
        <ele>838.4074707</ele>
        <time>2021-06-17T09:49:09Z</time>
      </trkpt>
      <trkpt lat="47.938" lon="7.07222">
        <ele>840.23376465</ele>
        <time>2021-06-17T09:49:14Z</time>
      </trkpt>
      <trkpt lat="47.93806" lon="7.07217">
        <ele>840.23376465</ele>
        <time>2021-06-17T09:49:18Z</time>
      </trkpt>
      <trkpt lat="47.93813" lon="7.07207">
        <ele>840.95837402</ele>
        <time>2021-06-17T09:49:23Z</time>
      </trkpt>
      <trkpt lat="47.93819" lon="7.07196">
        <ele>842.06726074</ele>
        <time>2021-06-17T09:49:27Z</time>
      </trkpt>
      <trkpt lat="47.93827" lon="7.07188">
        <ele>843.1192627</ele>
        <time>2021-06-17T09:49:32Z</time>
      </trkpt>
      <trkpt lat="47.93836" lon="7.0718">
        <ele>843.1192627</ele>
        <time>2021-06-17T09:49:36Z</time>
      </trkpt>
      <trkpt lat="47.93844" lon="7.0717">
        <ele>844.25787354</ele>
        <time>2021-06-17T09:49:40Z</time>
      </trkpt>
      <trkpt lat="47.93851" lon="7.07158">
        <ele>845.34790039</ele>
        <time>2021-06-17T09:49:45Z</time>
      </trkpt>
      <trkpt lat="47.93859" lon="7.07149">
        <ele>846.40008545</ele>
        <time>2021-06-17T09:49:49Z</time>
      </trkpt>
      <trkpt lat="47.93868" lon="7.07142">
        <ele>847.45831299</ele>
        <time>2021-06-17T09:49:55Z</time>
      </trkpt>
      <trkpt lat="47.93877" lon="7.07132">
        <ele>848.50598145</ele>
        <time>2021-06-17T09:50:00Z</time>
      </trkpt>
      <trkpt lat="47.93885" lon="7.07121">
        <ele>849.57946777</ele>
        <time>2021-06-17T09:50:04Z</time>
      </trkpt>
      <trkpt lat="47.93893" lon="7.07115">
        <ele>849.57946777</ele>
        <time>2021-06-17T09:50:08Z</time>
      </trkpt>
      <trkpt lat="47.93901" lon="7.07105">
        <ele>850.69232178</ele>
        <time>2021-06-17T09:50:12Z</time>
      </trkpt>
      <trkpt lat="47.93908" lon="7.07098">
        <ele>852.09527588</ele>
        <time>2021-06-17T09:50:14Z</time>
      </trkpt>
      <trkpt lat="47.93913" lon="7.07091">
        <ele>852.09527588</ele>
        <time>2021-06-17T09:50:19Z</time>
      </trkpt>
      <trkpt lat="47.93921" lon="7.07083">
        <ele>852.78118896</ele>
        <time>2021-06-17T09:50:24Z</time>
      </trkpt>
      <trkpt lat="47.9393" lon="7.07075">
        <ele>853.89221191</ele>
        <time>2021-06-17T09:50:28Z</time>
      </trkpt>
      <trkpt lat="47.93937" lon="7.07066">
        <ele>854.90985107</ele>
        <time>2021-06-17T09:50:32Z</time>
      </trkpt>
      <trkpt lat="47.93946" lon="7.07056">
        <ele>856.046875</ele>
        <time>2021-06-17T09:50:36Z</time>
      </trkpt>
      <trkpt lat="47.93953" lon="7.07048">
        <ele>856.046875</ele>
        <time>2021-06-17T09:50:40Z</time>
      </trkpt>
      <trkpt lat="47.93962" lon="7.0704">
        <ele>857.2388916</ele>
        <time>2021-06-17T09:50:44Z</time>
      </trkpt>
      <trkpt lat="47.93969" lon="7.07034">
        <ele>858.2822876</ele>
        <time>2021-06-17T09:50:49Z</time>
      </trkpt>
      <trkpt lat="47.9398" lon="7.07027">
        <ele>859.38928223</ele>
        <time>2021-06-17T09:50:53Z</time>
      </trkpt>
      <trkpt lat="47.93988" lon="7.07017">
        <ele>860.5916748</ele>
        <time>2021-06-17T09:50:57Z</time>
      </trkpt>
      <trkpt lat="47.93996" lon="7.07006">
        <ele>861.82165527</ele>
        <time>2021-06-17T09:51:00Z</time>
      </trkpt>
      <trkpt lat="47.94004" lon="7.06997">
        <ele>861.82165527</ele>
        <time>2021-06-17T09:51:03Z</time>
      </trkpt>
      <trkpt lat="47.94011" lon="7.06989">
        <ele>863.01501465</ele>
        <time>2021-06-17T09:51:08Z</time>
      </trkpt>
      <trkpt lat="47.9402" lon="7.06982">
        <ele>864.19799805</ele>
        <time>2021-06-17T09:51:12Z</time>
      </trkpt>
      <trkpt lat="47.94025" lon="7.06977">
        <ele>865.07629395</ele>
        <time>2021-06-17T09:51:14Z</time>
      </trkpt>
      <trkpt lat="47.94032" lon="7.06973">
        <ele>865.07629395</ele>
        <time>2021-06-17T09:51:18Z</time>
      </trkpt>
      <trkpt lat="47.9404" lon="7.06968">
        <ele>866.01269531</ele>
        <time>2021-06-17T09:51:22Z</time>
      </trkpt>
      <trkpt lat="47.94049" lon="7.06959">
        <ele>867.06738281</ele>
        <time>2021-06-17T09:51:27Z</time>
      </trkpt>
      <trkpt lat="47.94056" lon="7.06949">
        <ele>868.15960693</ele>
        <time>2021-06-17T09:51:31Z</time>
      </trkpt>
      <trkpt lat="47.94064" lon="7.06942">
        <ele>869.33728027</ele>
        <time>2021-06-17T09:51:35Z</time>
      </trkpt>
      <trkpt lat="47.94073" lon="7.06935">
        <ele>869.33728027</ele>
        <time>2021-06-17T09:51:39Z</time>
      </trkpt>
      <trkpt lat="47.94082" lon="7.0693">
        <ele>870.41223145</ele>
        <time>2021-06-17T09:51:44Z</time>
      </trkpt>
      <trkpt lat="47.94091" lon="7.06923">
        <ele>871.44384766</ele>
        <time>2021-06-17T09:51:48Z</time>
      </trkpt>
      <trkpt lat="47.94099" lon="7.06915">
        <ele>872.49450684</ele>
        <time>2021-06-17T09:51:53Z</time>
      </trkpt>
      <trkpt lat="47.94107" lon="7.06905">
        <ele>873.51965332</ele>
        <time>2021-06-17T09:51:57Z</time>
      </trkpt>
      <trkpt lat="47.94116" lon="7.06897">
        <ele>874.63824463</ele>
        <time>2021-06-17T09:52:01Z</time>
      </trkpt>
      <trkpt lat="47.94125" lon="7.06887">
        <ele>875.72399902</ele>
        <time>2021-06-17T09:52:06Z</time>
      </trkpt>
      <trkpt lat="47.94134" lon="7.06882">
        <ele>875.72399902</ele>
        <time>2021-06-17T09:52:09Z</time>
      </trkpt>
      <trkpt lat="47.94144" lon="7.06869">
        <ele>877.48052979</ele>
        <time>2021-06-17T09:52:14Z</time>
      </trkpt>
      <trkpt lat="47.94149" lon="7.06864">
        <ele>877.48052979</ele>
        <time>2021-06-17T09:52:18Z</time>
      </trkpt>
      <trkpt lat="47.94158" lon="7.06858">
        <ele>879.34466553</ele>
        <time>2021-06-17T09:52:24Z</time>
      </trkpt>
      <trkpt lat="47.94169" lon="7.06852">
        <ele>879.34466553</ele>
        <time>2021-06-17T09:52:27Z</time>
      </trkpt>
      <trkpt lat="47.94178" lon="7.0685">
        <ele>880.37860107</ele>
        <time>2021-06-17T09:52:31Z</time>
      </trkpt>
      <trkpt lat="47.94187" lon="7.06845">
        <ele>881.3850708</ele>
        <time>2021-06-17T09:52:35Z</time>
      </trkpt>
      <trkpt lat="47.94195" lon="7.06834">
        <ele>882.41802979</ele>
        <time>2021-06-17T09:52:39Z</time>
      </trkpt>
      <trkpt lat="47.94202" lon="7.06822">
        <ele>882.41802979</ele>
        <time>2021-06-17T09:52:43Z</time>
      </trkpt>
      <trkpt lat="47.94208" lon="7.06813">
        <ele>883.53106689</ele>
        <time>2021-06-17T09:52:47Z</time>
      </trkpt>
      <trkpt lat="47.94215" lon="7.06802">
        <ele>884.59124756</ele>
        <time>2021-06-17T09:52:51Z</time>
      </trkpt>
      <trkpt lat="47.94222" lon="7.0679">
        <ele>885.85247803</ele>
        <time>2021-06-17T09:52:56Z</time>
      </trkpt>
      <trkpt lat="47.94228" lon="7.06778">
        <ele>885.85247803</ele>
        <time>2021-06-17T09:53:00Z</time>
      </trkpt>
      <trkpt lat="47.94234" lon="7.06768">
        <ele>886.90979004</ele>
        <time>2021-06-17T09:53:04Z</time>
      </trkpt>
      <trkpt lat="47.94243" lon="7.06756">
        <ele>887.99304199</ele>
        <time>2021-06-17T09:53:08Z</time>
      </trkpt>
      <trkpt lat="47.9425" lon="7.06745">
        <ele>887.99304199</ele>
        <time>2021-06-17T09:53:11Z</time>
      </trkpt>
      <trkpt lat="47.94256" lon="7.06738">
        <ele>889.62982178</ele>
        <time>2021-06-17T09:53:14Z</time>
      </trkpt>
      <trkpt lat="47.94262" lon="7.06729">
        <ele>889.62982178</ele>
        <time>2021-06-17T09:53:18Z</time>
      </trkpt>
      <trkpt lat="47.94269" lon="7.06716">
        <ele>890.2109375</ele>
        <time>2021-06-17T09:53:22Z</time>
      </trkpt>
      <trkpt lat="47.94276" lon="7.06702">
        <ele>890.2109375</ele>
        <time>2021-06-17T09:53:26Z</time>
      </trkpt>
      <trkpt lat="47.94277" lon="7.06691">
        <ele>891.23693848</ele>
        <time>2021-06-17T09:53:31Z</time>
      </trkpt>
      <trkpt lat="47.94269" lon="7.06671">
        <ele>891.23693848</ele>
        <time>2021-06-17T09:53:34Z</time>
      </trkpt>
      <trkpt lat="47.94264" lon="7.0666">
        <ele>891.23693848</ele>
        <time>2021-06-17T09:53:36Z</time>
      </trkpt>
      <trkpt lat="47.94257" lon="7.06649">
        <ele>891.23693848</ele>
        <time>2021-06-17T09:53:38Z</time>
      </trkpt>
      <trkpt lat="47.94251" lon="7.06639">
        <ele>892.24707031</ele>
        <time>2021-06-17T09:53:40Z</time>
      </trkpt>
      <trkpt lat="47.94245" lon="7.06629">
        <ele>892.24707031</ele>
        <time>2021-06-17T09:53:44Z</time>
      </trkpt>
      <trkpt lat="47.94237" lon="7.06618">
        <ele>893.34350586</ele>
        <time>2021-06-17T09:53:47Z</time>
      </trkpt>
      <trkpt lat="47.94233" lon="7.06605">
        <ele>893.34350586</ele>
        <time>2021-06-17T09:53:51Z</time>
      </trkpt>
      <trkpt lat="47.94228" lon="7.06591">
        <ele>894.38696289</ele>
        <time>2021-06-17T09:53:55Z</time>
      </trkpt>
      <trkpt lat="47.94225" lon="7.06577">
        <ele>895.5291748</ele>
        <time>2021-06-17T09:53:59Z</time>
      </trkpt>
      <trkpt lat="47.94222" lon="7.06562">
        <ele>895.5291748</ele>
        <time>2021-06-17T09:54:03Z</time>
      </trkpt>
      <trkpt lat="47.94218" lon="7.06547">
        <ele>896.61950684</ele>
        <time>2021-06-17T09:54:07Z</time>
      </trkpt>
      <trkpt lat="47.94215" lon="7.06531">
        <ele>897.68151855</ele>
        <time>2021-06-17T09:54:11Z</time>
      </trkpt>
      <trkpt lat="47.94212" lon="7.0651">
        <ele>899.66052246</ele>
        <time>2021-06-17T09:54:14Z</time>
      </trkpt>
      <trkpt lat="47.94211" lon="7.065">
        <ele>899.66052246</ele>
        <time>2021-06-17T09:54:17Z</time>
      </trkpt>
      <trkpt lat="47.94208" lon="7.06486">
        <ele>901.90100098</ele>
        <time>2021-06-17T09:54:22Z</time>
      </trkpt>
      <trkpt lat="47.94204" lon="7.06472">
        <ele>902.89630127</ele>
        <time>2021-06-17T09:54:27Z</time>
      </trkpt>
      <trkpt lat="47.94194" lon="7.06456">
        <ele>905.20068359</ele>
        <time>2021-06-17T09:55:25Z</time>
      </trkpt>
      <trkpt lat="47.94189" lon="7.06453">
        <ele>905.20068359</ele>
        <time>2021-06-17T09:55:30Z</time>
      </trkpt>
      <trkpt lat="47.94181" lon="7.0644">
        <ele>905.20068359</ele>
        <time>2021-06-17T09:55:34Z</time>
      </trkpt>
      <trkpt lat="47.94173" lon="7.06428">
        <ele>905.19763184</ele>
        <time>2021-06-17T09:55:39Z</time>
      </trkpt>
      <trkpt lat="47.94168" lon="7.06416">
        <ele>906.53167725</ele>
        <time>2021-06-17T09:55:44Z</time>
      </trkpt>
      <trkpt lat="47.94159" lon="7.06407">
        <ele>907.64044189</ele>
        <time>2021-06-17T09:55:48Z</time>
      </trkpt>
      <trkpt lat="47.94151" lon="7.06397">
        <ele>908.67199707</ele>
        <time>2021-06-17T09:55:53Z</time>
      </trkpt>
      <trkpt lat="47.94143" lon="7.06389">
        <ele>909.76367188</ele>
        <time>2021-06-17T09:55:57Z</time>
      </trkpt>
      <trkpt lat="47.94134" lon="7.06381">
        <ele>909.76367188</ele>
        <time>2021-06-17T09:56:01Z</time>
      </trkpt>
      <trkpt lat="47.94125" lon="7.06376">
        <ele>910.93029785</ele>
        <time>2021-06-17T09:56:05Z</time>
      </trkpt>
      <trkpt lat="47.94114" lon="7.06374">
        <ele>911.98065186</ele>
        <time>2021-06-17T09:56:09Z</time>
      </trkpt>
      <trkpt lat="47.94099" lon="7.06373">
        <ele>913.86578369</ele>
        <time>2021-06-17T09:56:14Z</time>
      </trkpt>
      <trkpt lat="47.94093" lon="7.06371">
        <ele>913.86578369</ele>
        <time>2021-06-17T09:56:18Z</time>
      </trkpt>
      <trkpt lat="47.94081" lon="7.06365">
        <ele>914.57183838</ele>
        <time>2021-06-17T09:56:21Z</time>
      </trkpt>
      <trkpt lat="47.9407" lon="7.06362">
        <ele>915.7713623</ele>
        <time>2021-06-17T09:56:24Z</time>
      </trkpt>
      <trkpt lat="47.94059" lon="7.06362">
        <ele>915.7713623</ele>
        <time>2021-06-17T09:56:28Z</time>
      </trkpt>
      <trkpt lat="47.9405" lon="7.06364">
        <ele>916.89373779</ele>
        <time>2021-06-17T09:56:33Z</time>
      </trkpt>
      <trkpt lat="47.9404" lon="7.06365">
        <ele>917.99890137</ele>
        <time>2021-06-17T09:56:37Z</time>
      </trkpt>
      <trkpt lat="47.94029" lon="7.06365">
        <ele>919.07891846</ele>
        <time>2021-06-17T09:56:40Z</time>
      </trkpt>
      <trkpt lat="47.94018" lon="7.06365">
        <ele>919.07891846</ele>
        <time>2021-06-17T09:56:43Z</time>
      </trkpt>
      <trkpt lat="47.94009" lon="7.06369">
        <ele>919.98162842</ele>
        <time>2021-06-17T09:56:47Z</time>
      </trkpt>
      <trkpt lat="47.94002" lon="7.06377">
        <ele>921.13916016</ele>
        <time>2021-06-17T09:56:53Z</time>
      </trkpt>
      <trkpt lat="47.93998" lon="7.06392">
        <ele>923.41760254</ele>
        <time>2021-06-17T09:57:06Z</time>
      </trkpt>
      <trkpt lat="47.93983" lon="7.06381">
        <ele>924.53601074</ele>
        <time>2021-06-17T09:57:11Z</time>
      </trkpt>
      <trkpt lat="47.93978" lon="7.06376">
        <ele>926.58410645</ele>
        <time>2021-06-17T09:57:14Z</time>
      </trkpt>
      <trkpt lat="47.93972" lon="7.0637">
        <ele>927.54711914</ele>
        <time>2021-06-17T09:57:19Z</time>
      </trkpt>
      <trkpt lat="47.93964" lon="7.06358">
        <ele>928.67852783</ele>
        <time>2021-06-17T09:57:24Z</time>
      </trkpt>
      <trkpt lat="47.93958" lon="7.06346">
        <ele>929.76055908</ele>
        <time>2021-06-17T09:57:29Z</time>
      </trkpt>
      <trkpt lat="47.93948" lon="7.06335">
        <ele>930.81854248</ele>
        <time>2021-06-17T09:57:34Z</time>
      </trkpt>
      <trkpt lat="47.9394" lon="7.06326">
        <ele>930.81854248</ele>
        <time>2021-06-17T09:57:38Z</time>
      </trkpt>
      <trkpt lat="47.93931" lon="7.06319">
        <ele>931.9954834</ele>
        <time>2021-06-17T09:57:43Z</time>
      </trkpt>
      <trkpt lat="47.93924" lon="7.06313">
        <ele>933.10949707</ele>
        <time>2021-06-17T09:57:48Z</time>
      </trkpt>
      <trkpt lat="47.93913" lon="7.06306">
        <ele>934.4152832</ele>
        <time>2021-06-17T09:57:51Z</time>
      </trkpt>
      <trkpt lat="47.93901" lon="7.06303">
        <ele>936.13006592</ele>
        <time>2021-06-17T09:58:35Z</time>
      </trkpt>
      <trkpt lat="47.939" lon="7.06304">
        <ele>936.13006592</ele>
        <time>2021-06-17T09:58:42Z</time>
      </trkpt>
      <trkpt lat="47.93886" lon="7.06309">
        <ele>936.13006592</ele>
        <time>2021-06-17T09:58:48Z</time>
      </trkpt>
      <trkpt lat="47.93878" lon="7.06311">
        <ele>936.3793335</ele>
        <time>2021-06-17T09:58:56Z</time>
      </trkpt>
      <trkpt lat="47.93867" lon="7.0632">
        <ele>936.3793335</ele>
        <time>2021-06-17T09:59:00Z</time>
      </trkpt>
      <trkpt lat="47.9386" lon="7.06327">
        <ele>937.93951416</ele>
        <time>2021-06-17T09:59:05Z</time>
      </trkpt>
      <trkpt lat="47.93851" lon="7.06334">
        <ele>937.93951416</ele>
        <time>2021-06-17T09:59:11Z</time>
      </trkpt>
      <trkpt lat="47.93842" lon="7.06337">
        <ele>939.671875</ele>
        <time>2021-06-17T09:59:14Z</time>
      </trkpt>
      <trkpt lat="47.93837" lon="7.06346">
        <ele>939.671875</ele>
        <time>2021-06-17T09:59:19Z</time>
      </trkpt>
      <trkpt lat="47.93829" lon="7.06356">
        <ele>940.3104248</ele>
        <time>2021-06-17T09:59:25Z</time>
      </trkpt>
      <trkpt lat="47.93821" lon="7.06367">
        <ele>940.3104248</ele>
        <time>2021-06-17T09:59:29Z</time>
      </trkpt>
      <trkpt lat="47.93811" lon="7.06376">
        <ele>941.26391602</ele>
        <time>2021-06-17T09:59:33Z</time>
      </trkpt>
      <trkpt lat="47.93802" lon="7.06382">
        <ele>941.26391602</ele>
        <time>2021-06-17T09:59:37Z</time>
      </trkpt>
      <trkpt lat="47.93793" lon="7.06383">
        <ele>941.26391602</ele>
        <time>2021-06-17T09:59:40Z</time>
      </trkpt>
      <trkpt lat="47.93783" lon="7.06383">
        <ele>942.33093262</ele>
        <time>2021-06-17T09:59:45Z</time>
      </trkpt>
      <trkpt lat="47.93774" lon="7.06383">
        <ele>943.48602295</ele>
        <time>2021-06-17T09:59:50Z</time>
      </trkpt>
      <trkpt lat="47.93765" lon="7.0638">
        <ele>943.48602295</ele>
        <time>2021-06-17T09:59:56Z</time>
      </trkpt>
      <trkpt lat="47.93755" lon="7.06375">
        <ele>944.54437256</ele>
        <time>2021-06-17T10:00:00Z</time>
      </trkpt>
      <trkpt lat="47.93747" lon="7.06371">
        <ele>945.59344482</ele>
        <time>2021-06-17T10:00:06Z</time>
      </trkpt>
      <trkpt lat="47.93736" lon="7.06366">
        <ele>945.59344482</ele>
        <time>2021-06-17T10:00:10Z</time>
      </trkpt>
      <trkpt lat="47.9373" lon="7.06359">
        <ele>946.3190918</ele>
        <time>2021-06-17T10:00:14Z</time>
      </trkpt>
      <trkpt lat="47.93723" lon="7.06349">
        <ele>946.3190918</ele>
        <time>2021-06-17T10:00:19Z</time>
      </trkpt>
      <trkpt lat="47.9372" lon="7.06337">
        <ele>947.27490234</ele>
        <time>2021-06-17T10:00:24Z</time>
      </trkpt>
      <trkpt lat="47.9372" lon="7.06321">
        <ele>948.40838623</ele>
        <time>2021-06-17T10:00:29Z</time>
      </trkpt>
      <trkpt lat="47.93722" lon="7.06306">
        <ele>948.40838623</ele>
        <time>2021-06-17T10:00:33Z</time>
      </trkpt>
      <trkpt lat="47.93726" lon="7.06292">
        <ele>949.35638428</ele>
        <time>2021-06-17T10:00:38Z</time>
      </trkpt>
      <trkpt lat="47.93731" lon="7.06279">
        <ele>949.35638428</ele>
        <time>2021-06-17T10:00:43Z</time>
      </trkpt>
      <trkpt lat="47.93736" lon="7.06268">
        <ele>950.40899658</ele>
        <time>2021-06-17T10:00:47Z</time>
      </trkpt>
      <trkpt lat="47.93742" lon="7.06257">
        <ele>950.40899658</ele>
        <time>2021-06-17T10:00:52Z</time>
      </trkpt>
      <trkpt lat="47.93747" lon="7.06244">
        <ele>951.55688477</ele>
        <time>2021-06-17T10:00:57Z</time>
      </trkpt>
      <trkpt lat="47.93752" lon="7.0623">
        <ele>952.65454102</ele>
        <time>2021-06-17T10:01:02Z</time>
      </trkpt>
      <trkpt lat="47.93757" lon="7.06216">
        <ele>952.65454102</ele>
        <time>2021-06-17T10:01:08Z</time>
      </trkpt>
      <trkpt lat="47.93763" lon="7.06205">
        <ele>953.72888184</ele>
        <time>2021-06-17T10:01:13Z</time>
      </trkpt>
      <trkpt lat="47.93768" lon="7.06199">
        <ele>954.58972168</ele>
        <time>2021-06-17T10:01:14Z</time>
      </trkpt>
      <trkpt lat="47.93772" lon="7.06192">
        <ele>954.58972168</ele>
        <time>2021-06-17T10:01:19Z</time>
      </trkpt>
      <trkpt lat="47.93775" lon="7.06178">
        <ele>955.47259521</ele>
        <time>2021-06-17T10:01:23Z</time>
      </trkpt>
      <trkpt lat="47.93779" lon="7.06165">
        <ele>955.47259521</ele>
        <time>2021-06-17T10:01:27Z</time>
      </trkpt>
      <trkpt lat="47.93784" lon="7.06152">
        <ele>956.59277344</ele>
        <time>2021-06-17T10:01:31Z</time>
      </trkpt>
      <trkpt lat="47.93788" lon="7.06139">
        <ele>957.77172852</ele>
        <time>2021-06-17T10:01:36Z</time>
      </trkpt>
      <trkpt lat="47.93792" lon="7.06126">
        <ele>958.76483154</ele>
        <time>2021-06-17T10:01:44Z</time>
      </trkpt>
      <trkpt lat="47.93787" lon="7.06109">
        <ele>958.76483154</ele>
        <time>2021-06-17T10:01:47Z</time>
      </trkpt>
      <trkpt lat="47.93781" lon="7.06093">
        <ele>959.85443115</ele>
        <time>2021-06-17T10:01:51Z</time>
      </trkpt>
      <trkpt lat="47.93776" lon="7.06081">
        <ele>959.85443115</ele>
        <time>2021-06-17T10:01:56Z</time>
      </trkpt>
      <trkpt lat="47.9377" lon="7.0607">
        <ele>959.85443115</ele>
        <time>2021-06-17T10:02:00Z</time>
      </trkpt>
      <trkpt lat="47.93767" lon="7.06056">
        <ele>960.83221436</ele>
        <time>2021-06-17T10:02:03Z</time>
      </trkpt>
      <trkpt lat="47.93762" lon="7.06044">
        <ele>960.83221436</ele>
        <time>2021-06-17T10:02:06Z</time>
      </trkpt>
      <trkpt lat="47.93755" lon="7.06034">
        <ele>961.93786621</ele>
        <time>2021-06-17T10:02:09Z</time>
      </trkpt>
      <trkpt lat="47.93747" lon="7.06017">
        <ele>962.87780762</ele>
        <time>2021-06-17T10:02:14Z</time>
      </trkpt>
      <trkpt lat="47.93743" lon="7.06011">
        <ele>962.87780762</ele>
        <time>2021-06-17T10:02:19Z</time>
      </trkpt>
      <trkpt lat="47.93736" lon="7.06">
        <ele>963.71313477</ele>
        <time>2021-06-17T10:02:23Z</time>
      </trkpt>
      <trkpt lat="47.93729" lon="7.05991">
        <ele>964.85882568</ele>
        <time>2021-06-17T10:02:27Z</time>
      </trkpt>
      <trkpt lat="47.93722" lon="7.05981">
        <ele>964.85882568</ele>
        <time>2021-06-17T10:02:31Z</time>
      </trkpt>
      <trkpt lat="47.93715" lon="7.0597">
        <ele>965.88122559</ele>
        <time>2021-06-17T10:02:36Z</time>
      </trkpt>
      <trkpt lat="47.93711" lon="7.05959">
        <ele>965.88122559</ele>
        <time>2021-06-17T10:02:41Z</time>
      </trkpt>
      <trkpt lat="47.93707" lon="7.05945">
        <ele>966.95013428</ele>
        <time>2021-06-17T10:02:46Z</time>
      </trkpt>
      <trkpt lat="47.93704" lon="7.0593">
        <ele>968.00775146</ele>
        <time>2021-06-17T10:02:51Z</time>
      </trkpt>
      <trkpt lat="47.93701" lon="7.05917">
        <ele>968.00775146</ele>
        <time>2021-06-17T10:02:56Z</time>
      </trkpt>
      <trkpt lat="47.93699" lon="7.05903">
        <ele>969.09741211</ele>
        <time>2021-06-17T10:03:01Z</time>
      </trkpt>
      <trkpt lat="47.93695" lon="7.05888">
        <ele>970.81872559</ele>
        <time>2021-06-17T10:03:46Z</time>
      </trkpt>
      <trkpt lat="47.93684" lon="7.05887">
        <ele>970.81872559</ele>
        <time>2021-06-17T10:03:50Z</time>
      </trkpt>
      <trkpt lat="47.93681" lon="7.05869">
        <ele>970.81872559</ele>
        <time>2021-06-17T10:03:55Z</time>
      </trkpt>
      <trkpt lat="47.9368" lon="7.05856">
        <ele>970.91308594</ele>
        <time>2021-06-17T10:04:00Z</time>
      </trkpt>
      <trkpt lat="47.93684" lon="7.0584">
        <ele>970.91308594</ele>
        <time>2021-06-17T10:04:04Z</time>
      </trkpt>
      <trkpt lat="47.93686" lon="7.05825">
        <ele>972.30725098</ele>
        <time>2021-06-17T10:04:08Z</time>
      </trkpt>
      <trkpt lat="47.93691" lon="7.05805">
        <ele>973.94091797</ele>
        <time>2021-06-17T10:04:14Z</time>
      </trkpt>
      <trkpt lat="47.93693" lon="7.05797">
        <ele>973.94091797</ele>
        <time>2021-06-17T10:04:18Z</time>
      </trkpt>
      <trkpt lat="47.93697" lon="7.05784">
        <ele>974.53503418</ele>
        <time>2021-06-17T10:04:23Z</time>
      </trkpt>
      <trkpt lat="47.93702" lon="7.0577">
        <ele>974.53503418</ele>
        <time>2021-06-17T10:04:28Z</time>
      </trkpt>
      <trkpt lat="47.93707" lon="7.05759">
        <ele>975.73144531</ele>
        <time>2021-06-17T10:04:35Z</time>
      </trkpt>
      <trkpt lat="47.93714" lon="7.05746">
        <ele>975.73144531</ele>
        <time>2021-06-17T10:04:40Z</time>
      </trkpt>
      <trkpt lat="47.9372" lon="7.05734">
        <ele>976.83422852</ele>
        <time>2021-06-17T10:04:44Z</time>
      </trkpt>
      <trkpt lat="47.93726" lon="7.05723">
        <ele>977.92504883</ele>
        <time>2021-06-17T10:04:49Z</time>
      </trkpt>
      <trkpt lat="47.93735" lon="7.05712">
        <ele>977.92504883</ele>
        <time>2021-06-17T10:04:53Z</time>
      </trkpt>
      <trkpt lat="47.93743" lon="7.05707">
        <ele>979.12481689</ele>
        <time>2021-06-17T10:04:58Z</time>
      </trkpt>
      <trkpt lat="47.93752" lon="7.05705">
        <ele>980.2600708</ele>
        <time>2021-06-17T10:05:02Z</time>
      </trkpt>
      <trkpt lat="47.93761" lon="7.05701">
        <ele>981.24707031</ele>
        <time>2021-06-17T10:05:08Z</time>
      </trkpt>
      <trkpt lat="47.9377" lon="7.05692">
        <ele>981.24707031</ele>
        <time>2021-06-17T10:05:12Z</time>
      </trkpt>
      <trkpt lat="47.93776" lon="7.05683">
        <ele>982.69604492</ele>
        <time>2021-06-17T10:05:14Z</time>
      </trkpt>
      <trkpt lat="47.93782" lon="7.05678">
        <ele>982.69604492</ele>
        <time>2021-06-17T10:05:18Z</time>
      </trkpt>
      <trkpt lat="47.93788" lon="7.05666">
        <ele>983.28771973</ele>
        <time>2021-06-17T10:05:23Z</time>
      </trkpt>
      <trkpt lat="47.93796" lon="7.05656">
        <ele>983.28771973</ele>
        <time>2021-06-17T10:05:27Z</time>
      </trkpt>
      <trkpt lat="47.93801" lon="7.05645">
        <ele>984.47058105</ele>
        <time>2021-06-17T10:05:31Z</time>
      </trkpt>
      <trkpt lat="47.93805" lon="7.05631">
        <ele>985.76159668</ele>
        <time>2021-06-17T10:05:35Z</time>
      </trkpt>
      <trkpt lat="47.93808" lon="7.05618">
        <ele>985.76159668</ele>
        <time>2021-06-17T10:05:40Z</time>
      </trkpt>
      <trkpt lat="47.9381" lon="7.05605">
        <ele>986.77752686</ele>
        <time>2021-06-17T10:05:45Z</time>
      </trkpt>
      <trkpt lat="47.93806" lon="7.0559">
        <ele>986.77752686</ele>
        <time>2021-06-17T10:05:49Z</time>
      </trkpt>
      <trkpt lat="47.93803" lon="7.05574">
        <ele>987.93774414</ele>
        <time>2021-06-17T10:05:53Z</time>
      </trkpt>
      <trkpt lat="47.93798" lon="7.05558">
        <ele>987.93774414</ele>
        <time>2021-06-17T10:05:58Z</time>
      </trkpt>
      <trkpt lat="47.93793" lon="7.05544">
        <ele>987.93774414</ele>
        <time>2021-06-17T10:06:03Z</time>
      </trkpt>
      <trkpt lat="47.93788" lon="7.05527">
        <ele>988.89776611</ele>
        <time>2021-06-17T10:06:08Z</time>
      </trkpt>
      <trkpt lat="47.93778" lon="7.05505">
        <ele>988.89776611</ele>
        <time>2021-06-17T10:06:10Z</time>
      </trkpt>
      <trkpt lat="47.93776" lon="7.05486">
        <ele>989.79492188</ele>
        <time>2021-06-17T10:06:14Z</time>
      </trkpt>
      <trkpt lat="47.93779" lon="7.05475">
        <ele>989.79492188</ele>
        <time>2021-06-17T10:06:17Z</time>
      </trkpt>
      <trkpt lat="47.93784" lon="7.05463">
        <ele>989.79492188</ele>
        <time>2021-06-17T10:06:20Z</time>
      </trkpt>
      <trkpt lat="47.93789" lon="7.05451">
        <ele>989.79492188</ele>
        <time>2021-06-17T10:06:23Z</time>
      </trkpt>
      <trkpt lat="47.93789" lon="7.05435">
        <ele>989.79492188</ele>
        <time>2021-06-17T10:06:26Z</time>
      </trkpt>
      <trkpt lat="47.93791" lon="7.05418">
        <ele>989.79492188</ele>
        <time>2021-06-17T10:06:29Z</time>
      </trkpt>
      <trkpt lat="47.93794" lon="7.05401">
        <ele>989.79492188</ele>
        <time>2021-06-17T10:06:32Z</time>
      </trkpt>
      <trkpt lat="47.93797" lon="7.05382">
        <ele>990.03961182</ele>
        <time>2021-06-17T10:06:35Z</time>
      </trkpt>
      <trkpt lat="47.938" lon="7.05364">
        <ele>990.03961182</ele>
        <time>2021-06-17T10:06:37Z</time>
      </trkpt>
      <trkpt lat="47.93803" lon="7.05346">
        <ele>988.33361816</ele>
        <time>2021-06-17T10:06:39Z</time>
      </trkpt>
      <trkpt lat="47.93807" lon="7.05326">
        <ele>987.13354492</ele>
        <time>2021-06-17T10:06:41Z</time>
      </trkpt>
      <trkpt lat="47.93809" lon="7.05303">
        <ele>987.13354492</ele>
        <time>2021-06-17T10:06:43Z</time>
      </trkpt>
      <trkpt lat="47.93812" lon="7.05278">
        <ele>985.86248779</ele>
        <time>2021-06-17T10:06:45Z</time>
      </trkpt>
      <trkpt lat="47.93817" lon="7.05258">
        <ele>984.59399414</ele>
        <time>2021-06-17T10:06:46Z</time>
      </trkpt>
      <trkpt lat="47.9382" lon="7.05244">
        <ele>984.59399414</ele>
        <time>2021-06-17T10:06:47Z</time>
      </trkpt>
      <trkpt lat="47.93823" lon="7.05229">
        <ele>983.33026123</ele>
        <time>2021-06-17T10:06:48Z</time>
      </trkpt>
      <trkpt lat="47.93826" lon="7.05214">
        <ele>983.33026123</ele>
        <time>2021-06-17T10:06:49Z</time>
      </trkpt>
      <trkpt lat="47.93829" lon="7.05196">
        <ele>982.05444336</ele>
        <time>2021-06-17T10:06:50Z</time>
      </trkpt>
      <trkpt lat="47.93832" lon="7.05178">
        <ele>982.05444336</ele>
        <time>2021-06-17T10:06:51Z</time>
      </trkpt>
      <trkpt lat="47.93835" lon="7.0516">
        <ele>980.70861816</ele>
        <time>2021-06-17T10:06:52Z</time>
      </trkpt>
      <trkpt lat="47.93838" lon="7.05142">
        <ele>980.70861816</ele>
        <time>2021-06-17T10:06:53Z</time>
      </trkpt>
      <trkpt lat="47.93842" lon="7.05124">
        <ele>979.36010742</ele>
        <time>2021-06-17T10:06:54Z</time>
      </trkpt>
      <trkpt lat="47.93845" lon="7.05108">
        <ele>979.36010742</ele>
        <time>2021-06-17T10:06:55Z</time>
      </trkpt>
      <trkpt lat="47.93848" lon="7.05092">
        <ele>977.99328613</ele>
        <time>2021-06-17T10:06:56Z</time>
      </trkpt>
      <trkpt lat="47.9385" lon="7.05078">
        <ele>977.99328613</ele>
        <time>2021-06-17T10:06:57Z</time>
      </trkpt>
      <trkpt lat="47.93852" lon="7.05064">
        <ele>976.60345459</ele>
        <time>2021-06-17T10:06:58Z</time>
      </trkpt>
      <trkpt lat="47.93852" lon="7.05045">
        <ele>975.32763672</ele>
        <time>2021-06-17T10:07:00Z</time>
      </trkpt>
      <trkpt lat="47.9385" lon="7.05025">
        <ele>975.32763672</ele>
        <time>2021-06-17T10:07:01Z</time>
      </trkpt>
      <trkpt lat="47.93847" lon="7.0501">
        <ele>973.89453125</ele>
        <time>2021-06-17T10:07:02Z</time>
      </trkpt>
      <trkpt lat="47.93844" lon="7.04994">
        <ele>973.89453125</ele>
        <time>2021-06-17T10:07:03Z</time>
      </trkpt>
      <trkpt lat="47.9384" lon="7.04978">
        <ele>972.39196777</ele>
        <time>2021-06-17T10:07:04Z</time>
      </trkpt>
      <trkpt lat="47.93837" lon="7.04962">
        <ele>972.39196777</ele>
        <time>2021-06-17T10:07:05Z</time>
      </trkpt>
      <trkpt lat="47.93832" lon="7.04945">
        <ele>970.95288086</ele>
        <time>2021-06-17T10:07:06Z</time>
      </trkpt>
      <trkpt lat="47.93827" lon="7.04928">
        <ele>970.95288086</ele>
        <time>2021-06-17T10:07:07Z</time>
      </trkpt>
      <trkpt lat="47.9382" lon="7.04907">
        <ele>969.39550781</ele>
        <time>2021-06-17T10:07:08Z</time>
      </trkpt>
      <trkpt lat="47.93814" lon="7.04884">
        <ele>969.39550781</ele>
        <time>2021-06-17T10:07:09Z</time>
      </trkpt>
      <trkpt lat="47.93807" lon="7.04861">
        <ele>967.87347412</ele>
        <time>2021-06-17T10:07:10Z</time>
      </trkpt>
      <trkpt lat="47.93799" lon="7.04838">
        <ele>967.87347412</ele>
        <time>2021-06-17T10:07:11Z</time>
      </trkpt>
      <trkpt lat="47.93792" lon="7.04818">
        <ele>966.37817383</ele>
        <time>2021-06-17T10:07:12Z</time>
      </trkpt>
      <trkpt lat="47.93786" lon="7.04799">
        <ele>966.37817383</ele>
        <time>2021-06-17T10:07:13Z</time>
      </trkpt>
      <trkpt lat="47.93779" lon="7.04781">
        <ele>964.36401367</ele>
        <time>2021-06-17T10:07:14Z</time>
      </trkpt>
      <trkpt lat="47.93769" lon="7.04762">
        <ele>964.36401367</ele>
        <time>2021-06-17T10:07:15Z</time>
      </trkpt>
      <trkpt lat="47.93757" lon="7.04742">
        <ele>963.12890625</ele>
        <time>2021-06-17T10:07:16Z</time>
      </trkpt>
      <trkpt lat="47.93744" lon="7.04723">
        <ele>963.12890625</ele>
        <time>2021-06-17T10:07:17Z</time>
      </trkpt>
      <trkpt lat="47.93733" lon="7.04705">
        <ele>961.59844971</ele>
        <time>2021-06-17T10:07:18Z</time>
      </trkpt>
      <trkpt lat="47.93723" lon="7.0469">
        <ele>961.59844971</ele>
        <time>2021-06-17T10:07:19Z</time>
      </trkpt>
      <trkpt lat="47.93713" lon="7.04679">
        <ele>960.23291016</ele>
        <time>2021-06-17T10:07:20Z</time>
      </trkpt>
      <trkpt lat="47.93703" lon="7.04667">
        <ele>960.23291016</ele>
        <time>2021-06-17T10:07:21Z</time>
      </trkpt>
      <trkpt lat="47.93692" lon="7.04656">
        <ele>959.11254883</ele>
        <time>2021-06-17T10:07:22Z</time>
      </trkpt>
      <trkpt lat="47.93683" lon="7.04645">
        <ele>959.11254883</ele>
        <time>2021-06-17T10:07:23Z</time>
      </trkpt>
      <trkpt lat="47.93673" lon="7.04634">
        <ele>959.11254883</ele>
        <time>2021-06-17T10:07:24Z</time>
      </trkpt>
      <trkpt lat="47.93664" lon="7.04624">
        <ele>958.00183105</ele>
        <time>2021-06-17T10:07:25Z</time>
      </trkpt>
      <trkpt lat="47.93657" lon="7.04616">
        <ele>958.00183105</ele>
        <time>2021-06-17T10:07:26Z</time>
      </trkpt>
      <trkpt lat="47.93649" lon="7.04608">
        <ele>958.00183105</ele>
        <time>2021-06-17T10:07:27Z</time>
      </trkpt>
      <trkpt lat="47.9364" lon="7.04597">
        <ele>958.00183105</ele>
        <time>2021-06-17T10:07:29Z</time>
      </trkpt>
      <trkpt lat="47.93634" lon="7.04585">
        <ele>956.89239502</ele>
        <time>2021-06-17T10:07:33Z</time>
      </trkpt>
      <trkpt lat="47.93636" lon="7.04587">
        <ele>955.29815674</ele>
        <time>2021-06-17T10:13:52Z</time>
      </trkpt>
      <trkpt lat="47.93634" lon="7.04585">
        <ele>955.29815674</ele>
        <time>2021-06-17T10:13:54Z</time>
      </trkpt>
      <trkpt lat="47.93623" lon="7.04574">
        <ele>955.29815674</ele>
        <time>2021-06-17T10:14:00Z</time>
      </trkpt>
      <trkpt lat="47.93613" lon="7.04566">
        <ele>955.29815674</ele>
        <time>2021-06-17T10:14:04Z</time>
      </trkpt>
      <trkpt lat="47.93608" lon="7.04554">
        <ele>955.29815674</ele>
        <time>2021-06-17T10:14:09Z</time>
      </trkpt>
      <trkpt lat="47.93605" lon="7.04533">
        <ele>955.29815674</ele>
        <time>2021-06-17T10:14:12Z</time>
      </trkpt>
      <trkpt lat="47.93607" lon="7.04518">
        <ele>955.33532715</ele>
        <time>2021-06-17T10:14:14Z</time>
      </trkpt>
      <trkpt lat="47.9361" lon="7.04506">
        <ele>955.33532715</ele>
        <time>2021-06-17T10:14:17Z</time>
      </trkpt>
      <trkpt lat="47.93614" lon="7.04492">
        <ele>955.33532715</ele>
        <time>2021-06-17T10:14:21Z</time>
      </trkpt>
      <trkpt lat="47.9362" lon="7.04476">
        <ele>955.33532715</ele>
        <time>2021-06-17T10:14:24Z</time>
      </trkpt>
      <trkpt lat="47.93624" lon="7.04463">
        <ele>955.33532715</ele>
        <time>2021-06-17T10:14:27Z</time>
      </trkpt>
      <trkpt lat="47.93628" lon="7.04449">
        <ele>955.33532715</ele>
        <time>2021-06-17T10:14:30Z</time>
      </trkpt>
      <trkpt lat="47.93632" lon="7.04434">
        <ele>955.33532715</ele>
        <time>2021-06-17T10:14:33Z</time>
      </trkpt>
      <trkpt lat="47.93634" lon="7.04419">
        <ele>955.60272217</ele>
        <time>2021-06-17T10:14:37Z</time>
      </trkpt>
      <trkpt lat="47.93638" lon="7.04406">
        <ele>955.60272217</ele>
        <time>2021-06-17T10:14:40Z</time>
      </trkpt>
      <trkpt lat="47.93639" lon="7.04391">
        <ele>955.60272217</ele>
        <time>2021-06-17T10:14:43Z</time>
      </trkpt>
      <trkpt lat="47.93644" lon="7.04378">
        <ele>955.60272217</ele>
        <time>2021-06-17T10:14:46Z</time>
      </trkpt>
      <trkpt lat="47.93649" lon="7.04367">
        <ele>955.60272217</ele>
        <time>2021-06-17T10:14:50Z</time>
      </trkpt>
      <trkpt lat="47.93655" lon="7.04356">
        <ele>956.87585449</ele>
        <time>2021-06-17T10:14:54Z</time>
      </trkpt>
      <trkpt lat="47.93662" lon="7.04346">
        <ele>956.87585449</ele>
        <time>2021-06-17T10:14:57Z</time>
      </trkpt>
      <trkpt lat="47.93667" lon="7.04333">
        <ele>956.87585449</ele>
        <time>2021-06-17T10:15:00Z</time>
      </trkpt>
      <trkpt lat="47.93673" lon="7.04321">
        <ele>956.87585449</ele>
        <time>2021-06-17T10:15:04Z</time>
      </trkpt>
      <trkpt lat="47.93678" lon="7.04309">
        <ele>957.82189941</ele>
        <time>2021-06-17T10:15:07Z</time>
      </trkpt>
      <trkpt lat="47.93684" lon="7.04298">
        <ele>957.82189941</ele>
        <time>2021-06-17T10:15:10Z</time>
      </trkpt>
      <trkpt lat="47.93688" lon="7.04285">
        <ele>957.82189941</ele>
        <time>2021-06-17T10:15:13Z</time>
      </trkpt>
      <trkpt lat="47.93691" lon="7.04276">
        <ele>958.7255249</ele>
        <time>2021-06-17T10:15:14Z</time>
      </trkpt>
      <trkpt lat="47.93694" lon="7.04268">
        <ele>958.7255249</ele>
        <time>2021-06-17T10:15:18Z</time>
      </trkpt>
      <trkpt lat="47.93703" lon="7.04257">
        <ele>958.7255249</ele>
        <time>2021-06-17T10:15:22Z</time>
      </trkpt>
      <trkpt lat="47.93712" lon="7.04247">
        <ele>958.7255249</ele>
        <time>2021-06-17T10:15:26Z</time>
      </trkpt>
      <trkpt lat="47.9372" lon="7.04237">
        <ele>958.7255249</ele>
        <time>2021-06-17T10:15:30Z</time>
      </trkpt>
      <trkpt lat="47.93726" lon="7.04223">
        <ele>959.36395264</ele>
        <time>2021-06-17T10:15:34Z</time>
      </trkpt>
      <trkpt lat="47.93733" lon="7.04209">
        <ele>959.36395264</ele>
        <time>2021-06-17T10:15:37Z</time>
      </trkpt>
      <trkpt lat="47.93741" lon="7.042">
        <ele>959.36395264</ele>
        <time>2021-06-17T10:15:40Z</time>
      </trkpt>
      <trkpt lat="47.93748" lon="7.0419">
        <ele>959.36395264</ele>
        <time>2021-06-17T10:15:43Z</time>
      </trkpt>
      <trkpt lat="47.93755" lon="7.04179">
        <ele>959.36395264</ele>
        <time>2021-06-17T10:15:47Z</time>
      </trkpt>
      <trkpt lat="47.93763" lon="7.04168">
        <ele>959.36395264</ele>
        <time>2021-06-17T10:15:50Z</time>
      </trkpt>
      <trkpt lat="47.93767" lon="7.04156">
        <ele>959.36395264</ele>
        <time>2021-06-17T10:15:53Z</time>
      </trkpt>
      <trkpt lat="47.93768" lon="7.04142">
        <ele>960.71551514</ele>
        <time>2021-06-17T10:15:57Z</time>
      </trkpt>
      <trkpt lat="47.93767" lon="7.04124">
        <ele>960.71551514</ele>
        <time>2021-06-17T10:16:00Z</time>
      </trkpt>
      <trkpt lat="47.93763" lon="7.04109">
        <ele>960.71551514</ele>
        <time>2021-06-17T10:16:04Z</time>
      </trkpt>
      <trkpt lat="47.93757" lon="7.04096">
        <ele>961.62451172</ele>
        <time>2021-06-17T10:16:08Z</time>
      </trkpt>
      <trkpt lat="47.93747" lon="7.0408">
        <ele>961.62451172</ele>
        <time>2021-06-17T10:16:10Z</time>
      </trkpt>
      <trkpt lat="47.93739" lon="7.04072">
        <ele>961.62451172</ele>
        <time>2021-06-17T10:16:13Z</time>
      </trkpt>
      <trkpt lat="47.93732" lon="7.04068">
        <ele>962.1640625</ele>
        <time>2021-06-17T10:16:14Z</time>
      </trkpt>
      <trkpt lat="47.93725" lon="7.04064">
        <ele>962.1640625</ele>
        <time>2021-06-17T10:16:18Z</time>
      </trkpt>
      <trkpt lat="47.93715" lon="7.04062">
        <ele>962.1640625</ele>
        <time>2021-06-17T10:16:21Z</time>
      </trkpt>
      <trkpt lat="47.93705" lon="7.04056">
        <ele>962.1640625</ele>
        <time>2021-06-17T10:16:24Z</time>
      </trkpt>
      <trkpt lat="47.93696" lon="7.04057">
        <ele>962.1640625</ele>
        <time>2021-06-17T10:16:27Z</time>
      </trkpt>
      <trkpt lat="47.93686" lon="7.04057">
        <ele>962.1640625</ele>
        <time>2021-06-17T10:16:31Z</time>
      </trkpt>
      <trkpt lat="47.93675" lon="7.04051">
        <ele>962.1640625</ele>
        <time>2021-06-17T10:16:34Z</time>
      </trkpt>
      <trkpt lat="47.93665" lon="7.04047">
        <ele>962.1640625</ele>
        <time>2021-06-17T10:16:37Z</time>
      </trkpt>
      <trkpt lat="47.93657" lon="7.04041">
        <ele>962.1640625</ele>
        <time>2021-06-17T10:16:40Z</time>
      </trkpt>
      <trkpt lat="47.93648" lon="7.04034">
        <ele>962.1640625</ele>
        <time>2021-06-17T10:16:44Z</time>
      </trkpt>
      <trkpt lat="47.93641" lon="7.04022">
        <ele>962.1640625</ele>
        <time>2021-06-17T10:16:49Z</time>
      </trkpt>
      <trkpt lat="47.93628" lon="7.04001">
        <ele>963.84130859</ele>
        <time>2021-06-17T10:16:58Z</time>
      </trkpt>
      <trkpt lat="47.93621" lon="7.03993">
        <ele>964.99206543</ele>
        <time>2021-06-17T10:17:05Z</time>
      </trkpt>
      <trkpt lat="47.93615" lon="7.03982">
        <ele>966.13891602</ele>
        <time>2021-06-17T10:17:10Z</time>
      </trkpt>
      <trkpt lat="47.93611" lon="7.03972">
        <ele>967.02642822</ele>
        <time>2021-06-17T10:17:14Z</time>
      </trkpt>
      <trkpt lat="47.93604" lon="7.03964">
        <ele>968.07977295</ele>
        <time>2021-06-17T10:17:20Z</time>
      </trkpt>
      <trkpt lat="47.93597" lon="7.03951">
        <ele>968.07977295</ele>
        <time>2021-06-17T10:17:25Z</time>
      </trkpt>
      <trkpt lat="47.9359" lon="7.03942">
        <ele>969.23236084</ele>
        <time>2021-06-17T10:17:31Z</time>
      </trkpt>
      <trkpt lat="47.93582" lon="7.03932">
        <ele>970.34222412</ele>
        <time>2021-06-17T10:17:36Z</time>
      </trkpt>
      <trkpt lat="47.93574" lon="7.03924">
        <ele>971.38452148</ele>
        <time>2021-06-17T10:17:40Z</time>
      </trkpt>
      <trkpt lat="47.93567" lon="7.03916">
        <ele>972.37756348</ele>
        <time>2021-06-17T10:17:45Z</time>
      </trkpt>
      <trkpt lat="47.9356" lon="7.03907">
        <ele>972.37756348</ele>
        <time>2021-06-17T10:17:50Z</time>
      </trkpt>
      <trkpt lat="47.93552" lon="7.03901">
        <ele>973.45159912</ele>
        <time>2021-06-17T10:17:55Z</time>
      </trkpt>
      <trkpt lat="47.93544" lon="7.03891">
        <ele>974.50842285</ele>
        <time>2021-06-17T10:18:03Z</time>
      </trkpt>
      <trkpt lat="47.93537" lon="7.03882">
        <ele>975.63543701</ele>
        <time>2021-06-17T10:18:09Z</time>
      </trkpt>
      <trkpt lat="47.9353" lon="7.03873">
        <ele>977.29699707</ele>
        <time>2021-06-17T10:18:14Z</time>
      </trkpt>
      <trkpt lat="47.93523" lon="7.03866">
        <ele>977.29699707</ele>
        <time>2021-06-17T10:18:21Z</time>
      </trkpt>
      <trkpt lat="47.93517" lon="7.03856">
        <ele>978.02911377</ele>
        <time>2021-06-17T10:18:27Z</time>
      </trkpt>
      <trkpt lat="47.93508" lon="7.03845">
        <ele>979.08898926</ele>
        <time>2021-06-17T10:18:32Z</time>
      </trkpt>
      <trkpt lat="47.93501" lon="7.03835">
        <ele>980.2479248</ele>
        <time>2021-06-17T10:18:39Z</time>
      </trkpt>
      <trkpt lat="47.93494" lon="7.03828">
        <ele>981.21173096</ele>
        <time>2021-06-17T10:18:45Z</time>
      </trkpt>
      <trkpt lat="47.93485" lon="7.03823">
        <ele>982.36315918</ele>
        <time>2021-06-17T10:18:51Z</time>
      </trkpt>
      <trkpt lat="47.93477" lon="7.03819">
        <ele>983.5222168</ele>
        <time>2021-06-17T10:18:56Z</time>
      </trkpt>
      <trkpt lat="47.93463" lon="7.03816">
        <ele>983.5222168</ele>
        <time>2021-06-17T10:18:58Z</time>
      </trkpt>
      <trkpt lat="47.93456" lon="7.03814">
        <ele>984.58361816</ele>
        <time>2021-06-17T10:19:03Z</time>
      </trkpt>
      <trkpt lat="47.93448" lon="7.03807">
        <ele>986.7833252</ele>
        <time>2021-06-17T10:19:09Z</time>
      </trkpt>
      <trkpt lat="47.93438" lon="7.03792">
        <ele>987.74035645</ele>
        <time>2021-06-17T10:19:14Z</time>
      </trkpt>
      <trkpt lat="47.93433" lon="7.03785">
        <ele>987.74035645</ele>
        <time>2021-06-17T10:19:18Z</time>
      </trkpt>
      <trkpt lat="47.93428" lon="7.03771">
        <ele>988.7331543</ele>
        <time>2021-06-17T10:19:22Z</time>
      </trkpt>
      <trkpt lat="47.93422" lon="7.03761">
        <ele>989.92266846</ele>
        <time>2021-06-17T10:19:27Z</time>
      </trkpt>
      <trkpt lat="47.93416" lon="7.03747">
        <ele>991.21844482</ele>
        <time>2021-06-17T10:19:31Z</time>
      </trkpt>
      <trkpt lat="47.9341" lon="7.03736">
        <ele>992.45300293</ele>
        <time>2021-06-17T10:19:36Z</time>
      </trkpt>
      <trkpt lat="47.93406" lon="7.03722">
        <ele>992.45300293</ele>
        <time>2021-06-17T10:19:40Z</time>
      </trkpt>
      <trkpt lat="47.93399" lon="7.03712">
        <ele>993.5012207</ele>
        <time>2021-06-17T10:19:45Z</time>
      </trkpt>
      <trkpt lat="47.93395" lon="7.037">
        <ele>994.64764404</ele>
        <time>2021-06-17T10:19:49Z</time>
      </trkpt>
      <trkpt lat="47.93392" lon="7.03685">
        <ele>994.64764404</ele>
        <time>2021-06-17T10:19:53Z</time>
      </trkpt>
      <trkpt lat="47.93388" lon="7.03671">
        <ele>995.65167236</ele>
        <time>2021-06-17T10:19:57Z</time>
      </trkpt>
      <trkpt lat="47.93382" lon="7.03664">
        <ele>995.65167236</ele>
        <time>2021-06-17T10:20:01Z</time>
      </trkpt>
      <trkpt lat="47.93373" lon="7.03655">
        <ele>996.71514893</ele>
        <time>2021-06-17T10:20:06Z</time>
      </trkpt>
      <trkpt lat="47.93365" lon="7.03644">
        <ele>997.90710449</ele>
        <time>2021-06-17T10:20:10Z</time>
      </trkpt>
      <trkpt lat="47.93359" lon="7.03635">
        <ele>999.99633789</ele>
        <time>2021-06-17T10:20:14Z</time>
      </trkpt>
      <trkpt lat="47.9335" lon="7.03627">
        <ele>999.99633789</ele>
        <time>2021-06-17T10:20:18Z</time>
      </trkpt>
      <trkpt lat="47.93342" lon="7.03617">
        <ele>1000.99731445</ele>
        <time>2021-06-17T10:20:22Z</time>
      </trkpt>
      <trkpt lat="47.93335" lon="7.03604">
        <ele>1002.2253418</ele>
        <time>2021-06-17T10:20:26Z</time>
      </trkpt>
      <trkpt lat="47.93328" lon="7.03594">
        <ele>1003.25286865</ele>
        <time>2021-06-17T10:20:30Z</time>
      </trkpt>
      <trkpt lat="47.9332" lon="7.03583">
        <ele>1004.39068604</ele>
        <time>2021-06-17T10:20:34Z</time>
      </trkpt>
      <trkpt lat="47.93311" lon="7.03574">
        <ele>1005.58044434</ele>
        <time>2021-06-17T10:20:38Z</time>
      </trkpt>
      <trkpt lat="47.93301" lon="7.03567">
        <ele>1005.58044434</ele>
        <time>2021-06-17T10:20:41Z</time>
      </trkpt>
      <trkpt lat="47.93294" lon="7.0356">
        <ele>1006.61950684</ele>
        <time>2021-06-17T10:20:45Z</time>
      </trkpt>
      <trkpt lat="47.93287" lon="7.0355">
        <ele>1007.67254639</ele>
        <time>2021-06-17T10:20:49Z</time>
      </trkpt>
      <trkpt lat="47.93278" lon="7.03542">
        <ele>1008.7822876</ele>
        <time>2021-06-17T10:20:54Z</time>
      </trkpt>
      <trkpt lat="47.93269" lon="7.03531">
        <ele>1008.7822876</ele>
        <time>2021-06-17T10:20:59Z</time>
      </trkpt>
      <trkpt lat="47.93262" lon="7.03521">
        <ele>1009.82678223</ele>
        <time>2021-06-17T10:21:03Z</time>
      </trkpt>
      <trkpt lat="47.93254" lon="7.03512">
        <ele>1011.0355835</ele>
        <time>2021-06-17T10:21:08Z</time>
      </trkpt>
      <trkpt lat="47.9325" lon="7.03498">
        <ele>1012.0814209</ele>
        <time>2021-06-17T10:21:12Z</time>
      </trkpt>
      <trkpt lat="47.93247" lon="7.03488">
        <ele>1012.97009277</ele>
        <time>2021-06-17T10:21:14Z</time>
      </trkpt>
      <trkpt lat="47.93243" lon="7.03478">
        <ele>1013.83398438</ele>
        <time>2021-06-17T10:21:19Z</time>
      </trkpt>
      <trkpt lat="47.93236" lon="7.03467">
        <ele>1014.96820068</ele>
        <time>2021-06-17T10:21:23Z</time>
      </trkpt>
      <trkpt lat="47.93229" lon="7.03458">
        <ele>1015.99731445</ele>
        <time>2021-06-17T10:21:54Z</time>
      </trkpt>
      <trkpt lat="47.93223" lon="7.0346">
        <ele>1015.99731445</ele>
        <time>2021-06-17T10:22:00Z</time>
      </trkpt>
      <trkpt lat="47.93221" lon="7.03445">
        <ele>1015.99731445</ele>
        <time>2021-06-17T10:22:09Z</time>
      </trkpt>
      <trkpt lat="47.93216" lon="7.03435">
        <ele>1017.70788574</ele>
        <time>2021-06-17T10:22:14Z</time>
      </trkpt>
      <trkpt lat="47.93216" lon="7.0342">
        <ele>1017.70788574</ele>
        <time>2021-06-17T10:22:19Z</time>
      </trkpt>
      <trkpt lat="47.9321" lon="7.03409">
        <ele>1017.70788574</ele>
        <time>2021-06-17T10:22:24Z</time>
      </trkpt>
      <trkpt lat="47.932" lon="7.03409">
        <ele>1018.5222168</ele>
        <time>2021-06-17T10:22:31Z</time>
      </trkpt>
      <trkpt lat="47.93198" lon="7.03425">
        <ele>1019.37609863</ele>
        <time>2021-06-17T10:22:36Z</time>
      </trkpt>
      <trkpt lat="47.93193" lon="7.03442">
        <ele>1019.37609863</ele>
        <time>2021-06-17T10:22:41Z</time>
      </trkpt>
      <trkpt lat="47.9319" lon="7.03458">
        <ele>1019.37609863</ele>
        <time>2021-06-17T10:22:46Z</time>
      </trkpt>
      <trkpt lat="47.93187" lon="7.03473">
        <ele>1020.52044678</ele>
        <time>2021-06-17T10:22:49Z</time>
      </trkpt>
      <trkpt lat="47.93184" lon="7.03487">
        <ele>1021.57189941</ele>
        <time>2021-06-17T10:22:54Z</time>
      </trkpt>
      <trkpt lat="47.93184" lon="7.03501">
        <ele>1022.69592285</ele>
        <time>2021-06-17T10:23:00Z</time>
      </trkpt>
      <trkpt lat="47.93184" lon="7.03516">
        <ele>1023.87188721</ele>
        <time>2021-06-17T10:23:06Z</time>
      </trkpt>
      <trkpt lat="47.93183" lon="7.03532">
        <ele>1023.87188721</ele>
        <time>2021-06-17T10:23:11Z</time>
      </trkpt>
      <trkpt lat="47.93177" lon="7.03541">
        <ele>1025.66162109</ele>
        <time>2021-06-17T10:23:14Z</time>
      </trkpt>
      <trkpt lat="47.93168" lon="7.0355">
        <ele>1025.66162109</ele>
        <time>2021-06-17T10:23:17Z</time>
      </trkpt>
      <trkpt lat="47.93162" lon="7.0356">
        <ele>1026.45495605</ele>
        <time>2021-06-17T10:23:22Z</time>
      </trkpt>
      <trkpt lat="47.93155" lon="7.03569">
        <ele>1027.34619141</ele>
        <time>2021-06-17T10:23:28Z</time>
      </trkpt>
      <trkpt lat="47.9315" lon="7.03582">
        <ele>1027.34619141</ele>
        <time>2021-06-17T10:23:34Z</time>
      </trkpt>
      <trkpt lat="47.93144" lon="7.03594">
        <ele>1028.4375</ele>
        <time>2021-06-17T10:23:39Z</time>
      </trkpt>
      <trkpt lat="47.93137" lon="7.03605">
        <ele>1029.54882812</ele>
        <time>2021-06-17T10:23:45Z</time>
      </trkpt>
      <trkpt lat="47.93129" lon="7.03618">
        <ele>1030.43859863</ele>
        <time>2021-06-17T10:23:50Z</time>
      </trkpt>
      <trkpt lat="47.93121" lon="7.03628">
        <ele>1031.63354492</ele>
        <time>2021-06-17T10:23:55Z</time>
      </trkpt>
      <trkpt lat="47.93113" lon="7.03636">
        <ele>1032.81738281</ele>
        <time>2021-06-17T10:24:01Z</time>
      </trkpt>
      <trkpt lat="47.93106" lon="7.03642">
        <ele>1033.84545898</ele>
        <time>2021-06-17T10:24:06Z</time>
      </trkpt>
      <trkpt lat="47.93096" lon="7.03646">
        <ele>1033.84545898</ele>
        <time>2021-06-17T10:24:10Z</time>
      </trkpt>
      <trkpt lat="47.93084" lon="7.03643">
        <ele>1035.75219727</ele>
        <time>2021-06-17T10:24:14Z</time>
      </trkpt>
      <trkpt lat="47.93077" lon="7.0364">
        <ele>1035.75219727</ele>
        <time>2021-06-17T10:24:17Z</time>
      </trkpt>
      <trkpt lat="47.93068" lon="7.03635">
        <ele>1036.59277344</ele>
        <time>2021-06-17T10:24:21Z</time>
      </trkpt>
      <trkpt lat="47.9306" lon="7.03626">
        <ele>1037.68774414</ele>
        <time>2021-06-17T10:24:26Z</time>
      </trkpt>
      <trkpt lat="47.9305" lon="7.03616">
        <ele>1037.68774414</ele>
        <time>2021-06-17T10:24:30Z</time>
      </trkpt>
      <trkpt lat="47.93042" lon="7.0361">
        <ele>1038.73901367</ele>
        <time>2021-06-17T10:24:34Z</time>
      </trkpt>
      <trkpt lat="47.93031" lon="7.0361">
        <ele>1038.73901367</ele>
        <time>2021-06-17T10:24:38Z</time>
      </trkpt>
      <trkpt lat="47.9302" lon="7.03619">
        <ele>1038.73901367</ele>
        <time>2021-06-17T10:24:41Z</time>
      </trkpt>
      <trkpt lat="47.93013" lon="7.03633">
        <ele>1039.67114258</ele>
        <time>2021-06-17T10:24:44Z</time>
      </trkpt>
      <trkpt lat="47.93014" lon="7.03646">
        <ele>1039.67114258</ele>
        <time>2021-06-17T10:24:49Z</time>
      </trkpt>
      <trkpt lat="47.93022" lon="7.0366">
        <ele>1040.8605957</ele>
        <time>2021-06-17T10:24:53Z</time>
      </trkpt>
      <trkpt lat="47.93028" lon="7.03671">
        <ele>1042.05908203</ele>
        <time>2021-06-17T10:24:57Z</time>
      </trkpt>
      <trkpt lat="47.93034" lon="7.03684">
        <ele>1042.05908203</ele>
        <time>2021-06-17T10:25:00Z</time>
      </trkpt>
      <trkpt lat="47.9304" lon="7.03697">
        <ele>1043.18676758</ele>
        <time>2021-06-17T10:25:04Z</time>
      </trkpt>
      <trkpt lat="47.93047" lon="7.0371">
        <ele>1044.38122559</ele>
        <time>2021-06-17T10:25:08Z</time>
      </trkpt>
      <trkpt lat="47.9305" lon="7.03727">
        <ele>1044.38122559</ele>
        <time>2021-06-17T10:25:11Z</time>
      </trkpt>
      <trkpt lat="47.93055" lon="7.0375">
        <ele>1046.2989502</ele>
        <time>2021-06-17T10:25:14Z</time>
      </trkpt>
      <trkpt lat="47.93058" lon="7.0376">
        <ele>1046.2989502</ele>
        <time>2021-06-17T10:25:16Z</time>
      </trkpt>
      <trkpt lat="47.93062" lon="7.03774">
        <ele>1047.05993652</ele>
        <time>2021-06-17T10:25:19Z</time>
      </trkpt>
      <trkpt lat="47.93066" lon="7.03789">
        <ele>1048.28381348</ele>
        <time>2021-06-17T10:25:22Z</time>
      </trkpt>
      <trkpt lat="47.93067" lon="7.03803">
        <ele>1049.33996582</ele>
        <time>2021-06-17T10:25:26Z</time>
      </trkpt>
      <trkpt lat="47.93066" lon="7.03816">
        <ele>1049.33996582</ele>
        <time>2021-06-17T10:25:30Z</time>
      </trkpt>
      <trkpt lat="47.93065" lon="7.03833">
        <ele>1050.42602539</ele>
        <time>2021-06-17T10:25:34Z</time>
      </trkpt>
      <trkpt lat="47.93064" lon="7.03846">
        <ele>1051.60961914</ele>
        <time>2021-06-17T10:25:38Z</time>
      </trkpt>
      <trkpt lat="47.93063" lon="7.03861">
        <ele>1052.91357422</ele>
        <time>2021-06-17T10:25:42Z</time>
      </trkpt>
      <trkpt lat="47.93057" lon="7.03875">
        <ele>1054.01782227</ele>
        <time>2021-06-17T10:25:45Z</time>
      </trkpt>
      <trkpt lat="47.93053" lon="7.03886">
        <ele>1054.01782227</ele>
        <time>2021-06-17T10:25:48Z</time>
      </trkpt>
      <trkpt lat="47.93049" lon="7.039">
        <ele>1055.1875</ele>
        <time>2021-06-17T10:25:51Z</time>
      </trkpt>
      <trkpt lat="47.93049" lon="7.03915">
        <ele>1056.2532959</ele>
        <time>2021-06-17T10:25:56Z</time>
      </trkpt>
      <trkpt lat="47.93045" lon="7.03929">
        <ele>1057.33508301</ele>
        <time>2021-06-17T10:26:01Z</time>
      </trkpt>
      <trkpt lat="47.93042" lon="7.03942">
        <ele>1058.3848877</ele>
        <time>2021-06-17T10:26:04Z</time>
      </trkpt>
      <trkpt lat="47.93035" lon="7.03957">
        <ele>1058.3848877</ele>
        <time>2021-06-17T10:26:06Z</time>
      </trkpt>
      <trkpt lat="47.93033" lon="7.03967">
        <ele>1059.46630859</ele>
        <time>2021-06-17T10:26:10Z</time>
      </trkpt>
      <trkpt lat="47.93024" lon="7.03986">
        <ele>1060.46008301</ele>
        <time>2021-06-17T10:26:14Z</time>
      </trkpt>
      <trkpt lat="47.93022" lon="7.03997">
        <ele>1060.46008301</ele>
        <time>2021-06-17T10:26:18Z</time>
      </trkpt>
      <trkpt lat="47.93023" lon="7.04013">
        <ele>1061.4309082</ele>
        <time>2021-06-17T10:26:23Z</time>
      </trkpt>
      <trkpt lat="47.93023" lon="7.04027">
        <ele>1062.58093262</ele>
        <time>2021-06-17T10:26:27Z</time>
      </trkpt>
      <trkpt lat="47.93026" lon="7.04041">
        <ele>1062.58093262</ele>
        <time>2021-06-17T10:26:30Z</time>
      </trkpt>
      <trkpt lat="47.93026" lon="7.04055">
        <ele>1062.58093262</ele>
        <time>2021-06-17T10:26:34Z</time>
      </trkpt>
      <trkpt lat="47.93025" lon="7.04072">
        <ele>1063.6619873</ele>
        <time>2021-06-17T10:26:38Z</time>
      </trkpt>
      <trkpt lat="47.93024" lon="7.04087">
        <ele>1064.89025879</ele>
        <time>2021-06-17T10:26:42Z</time>
      </trkpt>
      <trkpt lat="47.93026" lon="7.04101">
        <ele>1066.07250977</ele>
        <time>2021-06-17T10:26:47Z</time>
      </trkpt>
      <trkpt lat="47.93024" lon="7.04114">
        <ele>1066.07250977</ele>
        <time>2021-06-17T10:26:51Z</time>
      </trkpt>
      <trkpt lat="47.93019" lon="7.04127">
        <ele>1067.07556152</ele>
        <time>2021-06-17T10:26:56Z</time>
      </trkpt>
      <trkpt lat="47.93018" lon="7.04143">
        <ele>1068.20373535</ele>
        <time>2021-06-17T10:27:00Z</time>
      </trkpt>
      <trkpt lat="47.93018" lon="7.04157">
        <ele>1069.38842773</ele>
        <time>2021-06-17T10:27:04Z</time>
      </trkpt>
      <trkpt lat="47.93016" lon="7.04173">
        <ele>1070.50927734</ele>
        <time>2021-06-17T10:27:08Z</time>
      </trkpt>
      <trkpt lat="47.93014" lon="7.04189">
        <ele>1070.50927734</ele>
        <time>2021-06-17T10:27:12Z</time>
      </trkpt>
      <trkpt lat="47.93013" lon="7.04201">
        <ele>1072.31152344</ele>
        <time>2021-06-17T10:27:14Z</time>
      </trkpt>
      <trkpt lat="47.93013" lon="7.04213">
        <ele>1072.31152344</ele>
        <time>2021-06-17T10:27:18Z</time>
      </trkpt>
      <trkpt lat="47.93016" lon="7.04232">
        <ele>1073.01928711</ele>
        <time>2021-06-17T10:27:22Z</time>
      </trkpt>
      <trkpt lat="47.93021" lon="7.04244">
        <ele>1074.13366699</ele>
        <time>2021-06-17T10:27:26Z</time>
      </trkpt>
      <trkpt lat="47.93024" lon="7.04258">
        <ele>1074.13366699</ele>
        <time>2021-06-17T10:27:29Z</time>
      </trkpt>
      <trkpt lat="47.93022" lon="7.04272">
        <ele>1075.34875488</ele>
        <time>2021-06-17T10:27:33Z</time>
      </trkpt>
      <trkpt lat="47.9302" lon="7.04289">
        <ele>1076.52709961</ele>
        <time>2021-06-17T10:27:37Z</time>
      </trkpt>
      <trkpt lat="47.93018" lon="7.04305">
        <ele>1077.66699219</ele>
        <time>2021-06-17T10:27:41Z</time>
      </trkpt>
      <trkpt lat="47.93019" lon="7.04322">
        <ele>1078.78808594</ele>
        <time>2021-06-17T10:27:45Z</time>
      </trkpt>
      <trkpt lat="47.93019" lon="7.04337">
        <ele>1079.9597168</ele>
        <time>2021-06-17T10:27:50Z</time>
      </trkpt>
      <trkpt lat="47.93021" lon="7.04353">
        <ele>1081.03271484</ele>
        <time>2021-06-17T10:27:54Z</time>
      </trkpt>
      <trkpt lat="47.93023" lon="7.0437">
        <ele>1082.23522949</ele>
        <time>2021-06-17T10:27:58Z</time>
      </trkpt>
      <trkpt lat="47.93023" lon="7.04382">
        <ele>1083.48034668</ele>
        <time>2021-06-17T10:28:02Z</time>
      </trkpt>
      <trkpt lat="47.93021" lon="7.04397">
        <ele>1084.50732422</ele>
        <time>2021-06-17T10:28:06Z</time>
      </trkpt>
      <trkpt lat="47.93017" lon="7.04412">
        <ele>1084.50732422</ele>
        <time>2021-06-17T10:28:10Z</time>
      </trkpt>
      <trkpt lat="47.93015" lon="7.04432">
        <ele>1086.22167969</ele>
        <time>2021-06-17T10:28:14Z</time>
      </trkpt>
      <trkpt lat="47.93018" lon="7.04442">
        <ele>1086.22167969</ele>
        <time>2021-06-17T10:28:18Z</time>
      </trkpt>
      <trkpt lat="47.93018" lon="7.04456">
        <ele>1086.89465332</ele>
        <time>2021-06-17T10:28:23Z</time>
      </trkpt>
      <trkpt lat="47.93017" lon="7.04472">
        <ele>1088.10058594</ele>
        <time>2021-06-17T10:28:26Z</time>
      </trkpt>
      <trkpt lat="47.93013" lon="7.04486">
        <ele>1088.10058594</ele>
        <time>2021-06-17T10:28:30Z</time>
      </trkpt>
      <trkpt lat="47.93012" lon="7.045">
        <ele>1089.08825684</ele>
        <time>2021-06-17T10:28:34Z</time>
      </trkpt>
      <trkpt lat="47.93008" lon="7.04514">
        <ele>1090.18798828</ele>
        <time>2021-06-17T10:28:38Z</time>
      </trkpt>
      <trkpt lat="47.93004" lon="7.04528">
        <ele>1090.18798828</ele>
        <time>2021-06-17T10:28:42Z</time>
      </trkpt>
      <trkpt lat="47.93004" lon="7.04542">
        <ele>1091.30615234</ele>
        <time>2021-06-17T10:28:47Z</time>
      </trkpt>
      <trkpt lat="47.93008" lon="7.04557">
        <ele>1092.33251953</ele>
        <time>2021-06-17T10:28:51Z</time>
      </trkpt>
      <trkpt lat="47.93005" lon="7.04571">
        <ele>1093.49926758</ele>
        <time>2021-06-17T10:28:55Z</time>
      </trkpt>
      <trkpt lat="47.92999" lon="7.04585">
        <ele>1094.73657227</ele>
        <time>2021-06-17T10:29:01Z</time>
      </trkpt>
      <trkpt lat="47.92994" lon="7.04599">
        <ele>1095.74609375</ele>
        <time>2021-06-17T10:29:05Z</time>
      </trkpt>
      <trkpt lat="47.92987" lon="7.0461">
        <ele>1096.8104248</ele>
        <time>2021-06-17T10:29:10Z</time>
      </trkpt>
      <trkpt lat="47.92984" lon="7.04622">
        <ele>1098.41931152</ele>
        <time>2021-06-17T10:29:14Z</time>
      </trkpt>
      <trkpt lat="47.92978" lon="7.04635">
        <ele>1099.10205078</ele>
        <time>2021-06-17T10:29:18Z</time>
      </trkpt>
      <trkpt lat="47.9297" lon="7.04648">
        <ele>1099.10205078</ele>
        <time>2021-06-17T10:29:21Z</time>
      </trkpt>
      <trkpt lat="47.92966" lon="7.04662">
        <ele>1100.22045898</ele>
        <time>2021-06-17T10:29:24Z</time>
      </trkpt>
      <trkpt lat="47.92961" lon="7.04673">
        <ele>1101.40429688</ele>
        <time>2021-06-17T10:29:28Z</time>
      </trkpt>
      <trkpt lat="47.92954" lon="7.04686">
        <ele>1101.40429688</ele>
        <time>2021-06-17T10:29:32Z</time>
      </trkpt>
      <trkpt lat="47.92948" lon="7.04699">
        <ele>1102.61499023</ele>
        <time>2021-06-17T10:29:37Z</time>
      </trkpt>
      <trkpt lat="47.92944" lon="7.04711">
        <ele>1103.69238281</ele>
        <time>2021-06-17T10:29:41Z</time>
      </trkpt>
      <trkpt lat="47.92937" lon="7.04721">
        <ele>1104.7253418</ele>
        <time>2021-06-17T10:29:44Z</time>
      </trkpt>
      <trkpt lat="47.9293" lon="7.04732">
        <ele>1104.7253418</ele>
        <time>2021-06-17T10:29:48Z</time>
      </trkpt>
      <trkpt lat="47.92922" lon="7.04741">
        <ele>1105.85131836</ele>
        <time>2021-06-17T10:29:51Z</time>
      </trkpt>
      <trkpt lat="47.92922" lon="7.04754">
        <ele>1106.9140625</ele>
        <time>2021-06-17T10:29:55Z</time>
      </trkpt>
      <trkpt lat="47.92932" lon="7.04766">
        <ele>1108.14672852</ele>
        <time>2021-06-17T10:29:58Z</time>
      </trkpt>
      <trkpt lat="47.92933" lon="7.04772">
        <ele>1109.24658203</ele>
        <time>2021-06-17T10:30:07Z</time>
      </trkpt>
      <trkpt lat="47.92929" lon="7.04793">
        <ele>1110.28674316</ele>
        <time>2021-06-17T10:30:10Z</time>
      </trkpt>
      <trkpt lat="47.92926" lon="7.04813">
        <ele>1111.21606445</ele>
        <time>2021-06-17T10:30:14Z</time>
      </trkpt>
      <trkpt lat="47.92923" lon="7.0482">
        <ele>1111.21606445</ele>
        <time>2021-06-17T10:30:19Z</time>
      </trkpt>
      <trkpt lat="47.92915" lon="7.04824">
        <ele>1112.24963379</ele>
        <time>2021-06-17T10:30:23Z</time>
      </trkpt>
      <trkpt lat="47.92906" lon="7.0482">
        <ele>1113.37866211</ele>
        <time>2021-06-17T10:30:29Z</time>
      </trkpt>
      <trkpt lat="47.92898" lon="7.0481">
        <ele>1114.45983887</ele>
        <time>2021-06-17T10:30:34Z</time>
      </trkpt>
      <trkpt lat="47.92896" lon="7.04794">
        <ele>1115.59606934</ele>
        <time>2021-06-17T10:30:39Z</time>
      </trkpt>
      <trkpt lat="47.92896" lon="7.04779">
        <ele>1115.59606934</ele>
        <time>2021-06-17T10:30:44Z</time>
      </trkpt>
      <trkpt lat="47.929" lon="7.04764">
        <ele>1116.68615723</ele>
        <time>2021-06-17T10:30:49Z</time>
      </trkpt>
      <trkpt lat="47.92906" lon="7.04751">
        <ele>1117.80749512</ele>
        <time>2021-06-17T10:30:54Z</time>
      </trkpt>
      <trkpt lat="47.9291" lon="7.04736">
        <ele>1118.90966797</ele>
        <time>2021-06-17T10:30:59Z</time>
      </trkpt>
      <trkpt lat="47.92912" lon="7.04722">
        <ele>1120.09387207</ele>
        <time>2021-06-17T10:31:04Z</time>
      </trkpt>
      <trkpt lat="47.9291" lon="7.04707">
        <ele>1121.21777344</ele>
        <time>2021-06-17T10:31:08Z</time>
      </trkpt>
      <trkpt lat="47.92909" lon="7.04693">
        <ele>1122.36071777</ele>
        <time>2021-06-17T10:31:13Z</time>
      </trkpt>
      <trkpt lat="47.92909" lon="7.04681">
        <ele>1123.32861328</ele>
        <time>2021-06-17T10:31:14Z</time>
      </trkpt>
      <trkpt lat="47.9291" lon="7.04672">
        <ele>1123.32861328</ele>
        <time>2021-06-17T10:31:18Z</time>
      </trkpt>
      <trkpt lat="47.92912" lon="7.04656">
        <ele>1124.26635742</ele>
        <time>2021-06-17T10:31:22Z</time>
      </trkpt>
      <trkpt lat="47.92914" lon="7.04639">
        <ele>1125.41320801</ele>
        <time>2021-06-17T10:31:25Z</time>
      </trkpt>
      <trkpt lat="47.92915" lon="7.04627">
        <ele>1126.52856445</ele>
        <time>2021-06-17T10:31:29Z</time>
      </trkpt>
      <trkpt lat="47.92917" lon="7.04612">
        <ele>1127.56665039</ele>
        <time>2021-06-17T10:31:33Z</time>
      </trkpt>
      <trkpt lat="47.92916" lon="7.04596">
        <ele>1127.56665039</ele>
        <time>2021-06-17T10:31:37Z</time>
      </trkpt>
      <trkpt lat="47.92915" lon="7.0458">
        <ele>1128.64880371</ele>
        <time>2021-06-17T10:31:41Z</time>
      </trkpt>
      <trkpt lat="47.92913" lon="7.04566">
        <ele>1129.74353027</ele>
        <time>2021-06-17T10:31:45Z</time>
      </trkpt>
      <trkpt lat="47.9291" lon="7.04555">
        <ele>1130.75488281</ele>
        <time>2021-06-17T10:31:50Z</time>
      </trkpt>
      <trkpt lat="47.9291" lon="7.04538">
        <ele>1131.86877441</ele>
        <time>2021-06-17T10:31:55Z</time>
      </trkpt>
      <trkpt lat="47.92911" lon="7.04523">
        <ele>1132.95739746</ele>
        <time>2021-06-17T10:32:01Z</time>
      </trkpt>
      <trkpt lat="47.92912" lon="7.04506">
        <ele>1134.09619141</ele>
        <time>2021-06-17T10:32:06Z</time>
      </trkpt>
      <trkpt lat="47.92909" lon="7.04492">
        <ele>1135.05786133</ele>
        <time>2021-06-17T10:32:11Z</time>
      </trkpt>
      <trkpt lat="47.92901" lon="7.04473">
        <ele>1136.00244141</ele>
        <time>2021-06-17T10:32:14Z</time>
      </trkpt>
      <trkpt lat="47.929" lon="7.04464">
        <ele>1136.00244141</ele>
        <time>2021-06-17T10:32:19Z</time>
      </trkpt>
      <trkpt lat="47.92897" lon="7.04451">
        <ele>1136.8782959</ele>
        <time>2021-06-17T10:32:23Z</time>
      </trkpt>
      <trkpt lat="47.9289" lon="7.04438">
        <ele>1138.10375977</ele>
        <time>2021-06-17T10:32:27Z</time>
      </trkpt>
      <trkpt lat="47.92886" lon="7.04425">
        <ele>1139.19909668</ele>
        <time>2021-06-17T10:32:32Z</time>
      </trkpt>
      <trkpt lat="47.92885" lon="7.04412">
        <ele>1140.32434082</ele>
        <time>2021-06-17T10:32:36Z</time>
      </trkpt>
      <trkpt lat="47.9288" lon="7.04396">
        <ele>1140.32434082</ele>
        <time>2021-06-17T10:32:39Z</time>
      </trkpt>
      <trkpt lat="47.92874" lon="7.04382">
        <ele>1141.56140137</ele>
        <time>2021-06-17T10:32:43Z</time>
      </trkpt>
      <trkpt lat="47.92868" lon="7.0437">
        <ele>1142.7520752</ele>
        <time>2021-06-17T10:32:47Z</time>
      </trkpt>
      <trkpt lat="47.92864" lon="7.04359">
        <ele>1142.7520752</ele>
        <time>2021-06-17T10:32:52Z</time>
      </trkpt>
      <trkpt lat="47.92859" lon="7.04346">
        <ele>1143.73657227</ele>
        <time>2021-06-17T10:32:56Z</time>
      </trkpt>
      <trkpt lat="47.92853" lon="7.04332">
        <ele>1144.8182373</ele>
        <time>2021-06-17T10:33:01Z</time>
      </trkpt>
      <trkpt lat="47.92851" lon="7.04318">
        <ele>1144.8182373</ele>
        <time>2021-06-17T10:33:05Z</time>
      </trkpt>
      <trkpt lat="47.92847" lon="7.04303">
        <ele>1145.95898438</ele>
        <time>2021-06-17T10:33:09Z</time>
      </trkpt>
      <trkpt lat="47.92841" lon="7.04291">
        <ele>1147.1159668</ele>
        <time>2021-06-17T10:33:12Z</time>
      </trkpt>
      <trkpt lat="47.92836" lon="7.04281">
        <ele>1147.71484375</ele>
        <time>2021-06-17T10:33:14Z</time>
      </trkpt>
      <trkpt lat="47.92831" lon="7.04272">
        <ele>1147.71484375</ele>
        <time>2021-06-17T10:33:18Z</time>
      </trkpt>
      <trkpt lat="47.92826" lon="7.04259">
        <ele>1148.35351562</ele>
        <time>2021-06-17T10:33:22Z</time>
      </trkpt>
      <trkpt lat="47.92817" lon="7.04248">
        <ele>1149.43383789</ele>
        <time>2021-06-17T10:33:25Z</time>
      </trkpt>
      <trkpt lat="47.92815" lon="7.04235">
        <ele>1149.43383789</ele>
        <time>2021-06-17T10:33:28Z</time>
      </trkpt>
      <trkpt lat="47.92812" lon="7.04222">
        <ele>1150.57800293</ele>
        <time>2021-06-17T10:33:31Z</time>
      </trkpt>
      <trkpt lat="47.92807" lon="7.04211">
        <ele>1151.74560547</ele>
        <time>2021-06-17T10:33:34Z</time>
      </trkpt>
      <trkpt lat="47.92801" lon="7.042">
        <ele>1151.74560547</ele>
        <time>2021-06-17T10:33:37Z</time>
      </trkpt>
      <trkpt lat="47.92794" lon="7.04187">
        <ele>1152.81225586</ele>
        <time>2021-06-17T10:33:40Z</time>
      </trkpt>
      <trkpt lat="47.92788" lon="7.04183">
        <ele>1154.08032227</ele>
        <time>2021-06-17T10:33:44Z</time>
      </trkpt>
      <trkpt lat="47.92779" lon="7.04177">
        <ele>1154.08032227</ele>
        <time>2021-06-17T10:33:47Z</time>
      </trkpt>
      <trkpt lat="47.92772" lon="7.04166">
        <ele>1155.1418457</ele>
        <time>2021-06-17T10:33:50Z</time>
      </trkpt>
      <trkpt lat="47.92768" lon="7.04155">
        <ele>1156.33361816</ele>
        <time>2021-06-17T10:33:55Z</time>
      </trkpt>
      <trkpt lat="47.92763" lon="7.04141">
        <ele>1156.33361816</ele>
        <time>2021-06-17T10:33:59Z</time>
      </trkpt>
      <trkpt lat="47.92756" lon="7.04132">
        <ele>1157.46899414</ele>
        <time>2021-06-17T10:34:05Z</time>
      </trkpt>
      <trkpt lat="47.9275" lon="7.04117">
        <ele>1158.37036133</ele>
        <time>2021-06-17T10:34:09Z</time>
      </trkpt>
      <trkpt lat="47.92741" lon="7.04101">
        <ele>1160.33728027</ele>
        <time>2021-06-17T10:34:14Z</time>
      </trkpt>
      <trkpt lat="47.92736" lon="7.04093">
        <ele>1161.23413086</ele>
        <time>2021-06-17T10:34:18Z</time>
      </trkpt>
      <trkpt lat="47.92729" lon="7.04083">
        <ele>1162.39624023</ele>
        <time>2021-06-17T10:34:23Z</time>
      </trkpt>
      <trkpt lat="47.92721" lon="7.0407">
        <ele>1163.5526123</ele>
        <time>2021-06-17T10:34:29Z</time>
      </trkpt>
      <trkpt lat="47.92713" lon="7.04059">
        <ele>1164.6809082</ele>
        <time>2021-06-17T10:34:33Z</time>
      </trkpt>
      <trkpt lat="47.92705" lon="7.04049">
        <ele>1165.69921875</ele>
        <time>2021-06-17T10:34:37Z</time>
      </trkpt>
      <trkpt lat="47.92698" lon="7.04044">
        <ele>1165.69921875</ele>
        <time>2021-06-17T10:34:41Z</time>
      </trkpt>
      <trkpt lat="47.9269" lon="7.04033">
        <ele>1166.84057617</ele>
        <time>2021-06-17T10:34:45Z</time>
      </trkpt>
      <trkpt lat="47.92682" lon="7.04019">
        <ele>1168.01965332</ele>
        <time>2021-06-17T10:34:49Z</time>
      </trkpt>
      <trkpt lat="47.92675" lon="7.04005">
        <ele>1169.0723877</ele>
        <time>2021-06-17T10:34:52Z</time>
      </trkpt>
      <trkpt lat="47.92668" lon="7.0399">
        <ele>1169.0723877</ele>
        <time>2021-06-17T10:34:55Z</time>
      </trkpt>
      <trkpt lat="47.92662" lon="7.03975">
        <ele>1170.28161621</ele>
        <time>2021-06-17T10:34:59Z</time>
      </trkpt>
      <trkpt lat="47.92655" lon="7.03964">
        <ele>1170.28161621</ele>
        <time>2021-06-17T10:35:03Z</time>
      </trkpt>
      <trkpt lat="47.92651" lon="7.03951">
        <ele>1171.37109375</ele>
        <time>2021-06-17T10:35:07Z</time>
      </trkpt>
      <trkpt lat="47.92647" lon="7.03938">
        <ele>1171.37109375</ele>
        <time>2021-06-17T10:35:13Z</time>
      </trkpt>
      <trkpt lat="47.92643" lon="7.03928">
        <ele>1172.30505371</ele>
        <time>2021-06-17T10:35:14Z</time>
      </trkpt>
      <trkpt lat="47.9264" lon="7.03921">
        <ele>1172.30505371</ele>
        <time>2021-06-17T10:35:17Z</time>
      </trkpt>
      <trkpt lat="47.92636" lon="7.03905">
        <ele>1172.30505371</ele>
        <time>2021-06-17T10:35:21Z</time>
      </trkpt>
      <trkpt lat="47.92629" lon="7.0389">
        <ele>1173.07507324</ele>
        <time>2021-06-17T10:35:24Z</time>
      </trkpt>
      <trkpt lat="47.92622" lon="7.03875">
        <ele>1173.07507324</ele>
        <time>2021-06-17T10:35:27Z</time>
      </trkpt>
      <trkpt lat="47.92616" lon="7.03862">
        <ele>1173.07507324</ele>
        <time>2021-06-17T10:35:31Z</time>
      </trkpt>
      <trkpt lat="47.92611" lon="7.03849">
        <ele>1173.07507324</ele>
        <time>2021-06-17T10:35:36Z</time>
      </trkpt>
      <trkpt lat="47.92604" lon="7.03835">
        <ele>1173.07507324</ele>
        <time>2021-06-17T10:35:39Z</time>
      </trkpt>
      <trkpt lat="47.92598" lon="7.03825">
        <ele>1174.42211914</ele>
        <time>2021-06-17T10:35:44Z</time>
      </trkpt>
      <trkpt lat="47.92592" lon="7.03813">
        <ele>1174.42211914</ele>
        <time>2021-06-17T10:35:48Z</time>
      </trkpt>
      <trkpt lat="47.92586" lon="7.038">
        <ele>1175.29833984</ele>
        <time>2021-06-17T10:35:52Z</time>
      </trkpt>
      <trkpt lat="47.92579" lon="7.03789">
        <ele>1175.29833984</ele>
        <time>2021-06-17T10:35:56Z</time>
      </trkpt>
      <trkpt lat="47.92569" lon="7.03774">
        <ele>1176.42810059</ele>
        <time>2021-06-17T10:35:59Z</time>
      </trkpt>
      <trkpt lat="47.92564" lon="7.03762">
        <ele>1176.42810059</ele>
        <time>2021-06-17T10:36:02Z</time>
      </trkpt>
      <trkpt lat="47.92556" lon="7.03747">
        <ele>1176.42810059</ele>
        <time>2021-06-17T10:36:05Z</time>
      </trkpt>
      <trkpt lat="47.92547" lon="7.03732">
        <ele>1176.42810059</ele>
        <time>2021-06-17T10:36:07Z</time>
      </trkpt>
      <trkpt lat="47.9254" lon="7.03722">
        <ele>1176.42810059</ele>
        <time>2021-06-17T10:36:09Z</time>
      </trkpt>
      <trkpt lat="47.92534" lon="7.03711">
        <ele>1176.42810059</ele>
        <time>2021-06-17T10:36:13Z</time>
      </trkpt>
      <trkpt lat="47.92529" lon="7.03701">
        <ele>1177.3494873</ele>
        <time>2021-06-17T10:36:14Z</time>
      </trkpt>
      <trkpt lat="47.92524" lon="7.03693">
        <ele>1177.3494873</ele>
        <time>2021-06-17T10:36:16Z</time>
      </trkpt>
      <trkpt lat="47.92518" lon="7.03682">
        <ele>1177.3494873</ele>
        <time>2021-06-17T10:36:19Z</time>
      </trkpt>
      <trkpt lat="47.92511" lon="7.0367">
        <ele>1177.3494873</ele>
        <time>2021-06-17T10:36:22Z</time>
      </trkpt>
      <trkpt lat="47.92501" lon="7.0366">
        <ele>1177.3494873</ele>
        <time>2021-06-17T10:36:24Z</time>
      </trkpt>
      <trkpt lat="47.92494" lon="7.03649">
        <ele>1177.3494873</ele>
        <time>2021-06-17T10:36:27Z</time>
      </trkpt>
      <trkpt lat="47.92484" lon="7.03637">
        <ele>1177.3494873</ele>
        <time>2021-06-17T10:36:30Z</time>
      </trkpt>
      <trkpt lat="47.92473" lon="7.03627">
        <ele>1177.3494873</ele>
        <time>2021-06-17T10:36:33Z</time>
      </trkpt>
      <trkpt lat="47.92466" lon="7.03615">
        <ele>1177.87963867</ele>
        <time>2021-06-17T10:36:36Z</time>
      </trkpt>
      <trkpt lat="47.92458" lon="7.03604">
        <ele>1177.87963867</ele>
        <time>2021-06-17T10:36:39Z</time>
      </trkpt>
      <trkpt lat="47.92448" lon="7.03596">
        <ele>1177.87963867</ele>
        <time>2021-06-17T10:36:42Z</time>
      </trkpt>
      <trkpt lat="47.9244" lon="7.03585">
        <ele>1177.87963867</ele>
        <time>2021-06-17T10:36:45Z</time>
      </trkpt>
      <trkpt lat="47.92429" lon="7.03574">
        <ele>1179.41467285</ele>
        <time>2021-06-17T10:36:48Z</time>
      </trkpt>
      <trkpt lat="47.9242" lon="7.03565">
        <ele>1179.41467285</ele>
        <time>2021-06-17T10:36:51Z</time>
      </trkpt>
      <trkpt lat="47.92414" lon="7.03558">
        <ele>1180.79589844</ele>
        <time>2021-06-17T10:37:17Z</time>
      </trkpt>
      <trkpt lat="47.92415" lon="7.03555">
        <ele>1180.26318359</ele>
        <time>2021-06-17T10:41:25Z</time>
      </trkpt>
      <trkpt lat="47.92418" lon="7.03555">
        <ele>1180.19775391</ele>
        <time>2021-06-17T10:43:46Z</time>
      </trkpt>
      <trkpt lat="47.92414" lon="7.03554">
        <ele>1180.19775391</ele>
        <time>2021-06-17T10:43:47Z</time>
      </trkpt>
      <trkpt lat="47.92405" lon="7.03546">
        <ele>1180.19775391</ele>
        <time>2021-06-17T10:43:53Z</time>
      </trkpt>
      <trkpt lat="47.92395" lon="7.03539">
        <ele>1180.19775391</ele>
        <time>2021-06-17T10:43:57Z</time>
      </trkpt>
      <trkpt lat="47.92386" lon="7.0353">
        <ele>1180.19775391</ele>
        <time>2021-06-17T10:44:00Z</time>
      </trkpt>
      <trkpt lat="47.92378" lon="7.03522">
        <ele>1180.19775391</ele>
        <time>2021-06-17T10:44:03Z</time>
      </trkpt>
      <trkpt lat="47.92371" lon="7.03513">
        <ele>1180.19775391</ele>
        <time>2021-06-17T10:44:06Z</time>
      </trkpt>
      <trkpt lat="47.92364" lon="7.03502">
        <ele>1180.19775391</ele>
        <time>2021-06-17T10:44:09Z</time>
      </trkpt>
      <trkpt lat="47.92359" lon="7.03491">
        <ele>1180.19775391</ele>
        <time>2021-06-17T10:44:12Z</time>
      </trkpt>
      <trkpt lat="47.92355" lon="7.03479">
        <ele>1179.05664062</ele>
        <time>2021-06-17T10:44:14Z</time>
      </trkpt>
      <trkpt lat="47.92352" lon="7.03466">
        <ele>1179.05664062</ele>
        <time>2021-06-17T10:44:17Z</time>
      </trkpt>
      <trkpt lat="47.92349" lon="7.03452">
        <ele>1179.05664062</ele>
        <time>2021-06-17T10:44:20Z</time>
      </trkpt>
      <trkpt lat="47.92347" lon="7.03438">
        <ele>1179.05664062</ele>
        <time>2021-06-17T10:44:23Z</time>
      </trkpt>
      <trkpt lat="47.92344" lon="7.03424">
        <ele>1179.05664062</ele>
        <time>2021-06-17T10:44:26Z</time>
      </trkpt>
      <trkpt lat="47.92341" lon="7.0341">
        <ele>1179.05664062</ele>
        <time>2021-06-17T10:44:29Z</time>
      </trkpt>
      <trkpt lat="47.92339" lon="7.03395">
        <ele>1179.05664062</ele>
        <time>2021-06-17T10:44:33Z</time>
      </trkpt>
      <trkpt lat="47.92337" lon="7.03379">
        <ele>1179.05664062</ele>
        <time>2021-06-17T10:44:37Z</time>
      </trkpt>
      <trkpt lat="47.92334" lon="7.03363">
        <ele>1179.05664062</ele>
        <time>2021-06-17T10:44:40Z</time>
      </trkpt>
      <trkpt lat="47.9233" lon="7.03348">
        <ele>1179.05664062</ele>
        <time>2021-06-17T10:44:44Z</time>
      </trkpt>
      <trkpt lat="47.92327" lon="7.03332">
        <ele>1179.05664062</ele>
        <time>2021-06-17T10:44:48Z</time>
      </trkpt>
      <trkpt lat="47.92324" lon="7.03316">
        <ele>1179.015625</ele>
        <time>2021-06-17T10:44:52Z</time>
      </trkpt>
      <trkpt lat="47.92321" lon="7.03301">
        <ele>1179.015625</ele>
        <time>2021-06-17T10:44:56Z</time>
      </trkpt>
      <trkpt lat="47.92317" lon="7.03286">
        <ele>1180.65466309</ele>
        <time>2021-06-17T10:45:00Z</time>
      </trkpt>
      <trkpt lat="47.92314" lon="7.03271">
        <ele>1180.65466309</ele>
        <time>2021-06-17T10:45:04Z</time>
      </trkpt>
      <trkpt lat="47.92312" lon="7.03255">
        <ele>1180.65466309</ele>
        <time>2021-06-17T10:45:08Z</time>
      </trkpt>
      <trkpt lat="47.92309" lon="7.03238">
        <ele>1181.63513184</ele>
        <time>2021-06-17T10:45:11Z</time>
      </trkpt>
      <trkpt lat="47.92307" lon="7.0322">
        <ele>1182.55981445</ele>
        <time>2021-06-17T10:45:14Z</time>
      </trkpt>
      <trkpt lat="47.92309" lon="7.03209">
        <ele>1182.55981445</ele>
        <time>2021-06-17T10:45:17Z</time>
      </trkpt>
      <trkpt lat="47.92313" lon="7.03193">
        <ele>1182.55981445</ele>
        <time>2021-06-17T10:45:20Z</time>
      </trkpt>
      <trkpt lat="47.92316" lon="7.0318">
        <ele>1183.4395752</ele>
        <time>2021-06-17T10:45:23Z</time>
      </trkpt>
      <trkpt lat="47.92321" lon="7.03167">
        <ele>1183.4395752</ele>
        <time>2021-06-17T10:45:26Z</time>
      </trkpt>
      <trkpt lat="47.92326" lon="7.03152">
        <ele>1183.4395752</ele>
        <time>2021-06-17T10:45:29Z</time>
      </trkpt>
      <trkpt lat="47.9233" lon="7.0314">
        <ele>1183.4395752</ele>
        <time>2021-06-17T10:45:32Z</time>
      </trkpt>
      <trkpt lat="47.92336" lon="7.03127">
        <ele>1183.4395752</ele>
        <time>2021-06-17T10:45:36Z</time>
      </trkpt>
      <trkpt lat="47.92342" lon="7.03111">
        <ele>1184.29907227</ele>
        <time>2021-06-17T10:45:39Z</time>
      </trkpt>
      <trkpt lat="47.9235" lon="7.031">
        <ele>1184.29907227</ele>
        <time>2021-06-17T10:45:42Z</time>
      </trkpt>
      <trkpt lat="47.92359" lon="7.0309">
        <ele>1184.29907227</ele>
        <time>2021-06-17T10:45:46Z</time>
      </trkpt>
      <trkpt lat="47.92368" lon="7.03078">
        <ele>1185.45410156</ele>
        <time>2021-06-17T10:45:50Z</time>
      </trkpt>
      <trkpt lat="47.92376" lon="7.03068">
        <ele>1185.45410156</ele>
        <time>2021-06-17T10:45:53Z</time>
      </trkpt>
      <trkpt lat="47.92384" lon="7.03059">
        <ele>1185.45410156</ele>
        <time>2021-06-17T10:45:56Z</time>
      </trkpt>
      <trkpt lat="47.92392" lon="7.0305">
        <ele>1186.50598145</ele>
        <time>2021-06-17T10:46:00Z</time>
      </trkpt>
      <trkpt lat="47.924" lon="7.03039">
        <ele>1186.50598145</ele>
        <time>2021-06-17T10:46:05Z</time>
      </trkpt>
      <trkpt lat="47.92409" lon="7.03031">
        <ele>1186.50598145</ele>
        <time>2021-06-17T10:46:09Z</time>
      </trkpt>
      <trkpt lat="47.92415" lon="7.0302">
        <ele>1187.63293457</ele>
        <time>2021-06-17T10:46:13Z</time>
      </trkpt>
      <trkpt lat="47.92418" lon="7.03012">
        <ele>1188.17431641</ele>
        <time>2021-06-17T10:46:14Z</time>
      </trkpt>
      <trkpt lat="47.92421" lon="7.03006">
        <ele>1189.42041016</ele>
        <time>2021-06-17T11:52:14Z</time>
      </trkpt>
      <trkpt lat="47.92421" lon="7.0301">
        <ele>1189.42041016</ele>
        <time>2021-06-17T11:52:16Z</time>
      </trkpt>
      <trkpt lat="47.92434" lon="7.03015">
        <ele>1189.42041016</ele>
        <time>2021-06-17T11:52:20Z</time>
      </trkpt>
      <trkpt lat="47.92445" lon="7.03011">
        <ele>1189.42041016</ele>
        <time>2021-06-17T11:52:24Z</time>
      </trkpt>
      <trkpt lat="47.92458" lon="7.03005">
        <ele>1189.11560059</ele>
        <time>2021-06-17T11:52:28Z</time>
      </trkpt>
      <trkpt lat="47.92463" lon="7.03002">
        <ele>1189.11560059</ele>
        <time>2021-06-17T11:52:31Z</time>
      </trkpt>
      <trkpt lat="47.92472" lon="7.02995">
        <ele>1189.11560059</ele>
        <time>2021-06-17T11:52:36Z</time>
      </trkpt>
      <trkpt lat="47.92481" lon="7.02994">
        <ele>1189.11560059</ele>
        <time>2021-06-17T11:52:38Z</time>
      </trkpt>
      <trkpt lat="47.9249" lon="7.02992">
        <ele>1189.11560059</ele>
        <time>2021-06-17T11:52:42Z</time>
      </trkpt>
      <trkpt lat="47.925" lon="7.02991">
        <ele>1189.11560059</ele>
        <time>2021-06-17T11:52:45Z</time>
      </trkpt>
      <trkpt lat="47.92511" lon="7.02989">
        <ele>1190.12280273</ele>
        <time>2021-06-17T11:52:48Z</time>
      </trkpt>
      <trkpt lat="47.92522" lon="7.02988">
        <ele>1190.12280273</ele>
        <time>2021-06-17T11:52:52Z</time>
      </trkpt>
      <trkpt lat="47.92532" lon="7.02988">
        <ele>1191.36730957</ele>
        <time>2021-06-17T11:52:58Z</time>
      </trkpt>
      <trkpt lat="47.92546" lon="7.02983">
        <ele>1191.36730957</ele>
        <time>2021-06-17T11:53:01Z</time>
      </trkpt>
      <trkpt lat="47.92558" lon="7.02981">
        <ele>1192.45751953</ele>
        <time>2021-06-17T11:53:04Z</time>
      </trkpt>
      <trkpt lat="47.92567" lon="7.0298">
        <ele>1192.45751953</ele>
        <time>2021-06-17T11:53:09Z</time>
      </trkpt>
      <trkpt lat="47.92579" lon="7.02977">
        <ele>1192.45751953</ele>
        <time>2021-06-17T11:53:12Z</time>
      </trkpt>
      <trkpt lat="47.92588" lon="7.02975">
        <ele>1193.44140625</ele>
        <time>2021-06-17T11:53:16Z</time>
      </trkpt>
      <trkpt lat="47.926" lon="7.0297">
        <ele>1193.44140625</ele>
        <time>2021-06-17T11:53:20Z</time>
      </trkpt>
      <trkpt lat="47.9261" lon="7.02966">
        <ele>1194.69482422</ele>
        <time>2021-06-17T11:53:24Z</time>
      </trkpt>
      <trkpt lat="47.92619" lon="7.02966">
        <ele>1195.55883789</ele>
        <time>2021-06-17T11:53:28Z</time>
      </trkpt>
      <trkpt lat="47.92629" lon="7.02969">
        <ele>1195.55883789</ele>
        <time>2021-06-17T11:53:29Z</time>
      </trkpt>
      <trkpt lat="47.92639" lon="7.02971">
        <ele>1195.55883789</ele>
        <time>2021-06-17T11:53:31Z</time>
      </trkpt>
      <trkpt lat="47.92646" lon="7.02973">
        <ele>1195.55883789</ele>
        <time>2021-06-17T11:53:35Z</time>
      </trkpt>
      <trkpt lat="47.92655" lon="7.02963">
        <ele>1196.56591797</ele>
        <time>2021-06-17T11:53:40Z</time>
      </trkpt>
      <trkpt lat="47.92667" lon="7.02962">
        <ele>1196.56591797</ele>
        <time>2021-06-17T11:53:43Z</time>
      </trkpt>
      <trkpt lat="47.9268" lon="7.02962">
        <ele>1197.58239746</ele>
        <time>2021-06-17T11:53:46Z</time>
      </trkpt>
      <trkpt lat="47.9269" lon="7.02955">
        <ele>1197.58239746</ele>
        <time>2021-06-17T11:53:50Z</time>
      </trkpt>
      <trkpt lat="47.92692" lon="7.02937">
        <ele>1197.58239746</ele>
        <time>2021-06-17T11:53:54Z</time>
      </trkpt>
      <trkpt lat="47.92701" lon="7.02929">
        <ele>1197.58239746</ele>
        <time>2021-06-17T11:53:57Z</time>
      </trkpt>
      <trkpt lat="47.92708" lon="7.02926">
        <ele>1198.73828125</ele>
        <time>2021-06-17T11:54:00Z</time>
      </trkpt>
      <trkpt lat="47.9272" lon="7.0292">
        <ele>1199.82446289</ele>
        <time>2021-06-17T11:54:05Z</time>
      </trkpt>
      <trkpt lat="47.92727" lon="7.0291">
        <ele>1199.82446289</ele>
        <time>2021-06-17T11:54:08Z</time>
      </trkpt>
      <trkpt lat="47.92735" lon="7.029">
        <ele>1199.82446289</ele>
        <time>2021-06-17T11:54:13Z</time>
      </trkpt>
      <trkpt lat="47.9274" lon="7.02886">
        <ele>1200.91723633</ele>
        <time>2021-06-17T11:54:16Z</time>
      </trkpt>
      <trkpt lat="47.92741" lon="7.02871">
        <ele>1200.91723633</ele>
        <time>2021-06-17T11:54:19Z</time>
      </trkpt>
      <trkpt lat="47.92744" lon="7.02859">
        <ele>1200.91723633</ele>
        <time>2021-06-17T11:54:25Z</time>
      </trkpt>
      <trkpt lat="47.92746" lon="7.02845">
        <ele>1202.88354492</ele>
        <time>2021-06-17T11:54:28Z</time>
      </trkpt>
      <trkpt lat="47.92748" lon="7.02829">
        <ele>1202.88354492</ele>
        <time>2021-06-17T11:54:30Z</time>
      </trkpt>
      <trkpt lat="47.92748" lon="7.02814">
        <ele>1203.63623047</ele>
        <time>2021-06-17T11:54:33Z</time>
      </trkpt>
      <trkpt lat="47.92749" lon="7.02799">
        <ele>1203.63623047</ele>
        <time>2021-06-17T11:54:37Z</time>
      </trkpt>
      <trkpt lat="47.92751" lon="7.02782">
        <ele>1203.63623047</ele>
        <time>2021-06-17T11:54:40Z</time>
      </trkpt>
      <trkpt lat="47.92751" lon="7.02767">
        <ele>1204.5814209</ele>
        <time>2021-06-17T11:54:43Z</time>
      </trkpt>
      <trkpt lat="47.92751" lon="7.02752">
        <ele>1204.5814209</ele>
        <time>2021-06-17T11:54:47Z</time>
      </trkpt>
      <trkpt lat="47.92751" lon="7.02734">
        <ele>1205.69238281</ele>
        <time>2021-06-17T11:54:51Z</time>
      </trkpt>
      <trkpt lat="47.92753" lon="7.02716">
        <ele>1205.69238281</ele>
        <time>2021-06-17T11:54:55Z</time>
      </trkpt>
      <trkpt lat="47.92753" lon="7.02699">
        <ele>1205.69238281</ele>
        <time>2021-06-17T11:54:58Z</time>
      </trkpt>
      <trkpt lat="47.92753" lon="7.02683">
        <ele>1206.93322754</ele>
        <time>2021-06-17T11:55:02Z</time>
      </trkpt>
      <trkpt lat="47.92755" lon="7.02667">
        <ele>1206.93322754</ele>
        <time>2021-06-17T11:55:06Z</time>
      </trkpt>
      <trkpt lat="47.92756" lon="7.0265">
        <ele>1207.90100098</ele>
        <time>2021-06-17T11:55:09Z</time>
      </trkpt>
      <trkpt lat="47.92759" lon="7.02638">
        <ele>1207.90100098</ele>
        <time>2021-06-17T11:55:12Z</time>
      </trkpt>
      <trkpt lat="47.92765" lon="7.02622">
        <ele>1207.90100098</ele>
        <time>2021-06-17T11:55:15Z</time>
      </trkpt>
      <trkpt lat="47.92771" lon="7.02609">
        <ele>1208.68530273</ele>
        <time>2021-06-17T11:55:19Z</time>
      </trkpt>
      <trkpt lat="47.92778" lon="7.026">
        <ele>1208.68530273</ele>
        <time>2021-06-17T11:55:22Z</time>
      </trkpt>
      <trkpt lat="47.92785" lon="7.02589">
        <ele>1208.68530273</ele>
        <time>2021-06-17T11:55:25Z</time>
      </trkpt>
      <trkpt lat="47.92789" lon="7.0258">
        <ele>1210.04528809</ele>
        <time>2021-06-17T11:55:28Z</time>
      </trkpt>
      <trkpt lat="47.92795" lon="7.02569">
        <ele>1210.04528809</ele>
        <time>2021-06-17T11:55:31Z</time>
      </trkpt>
      <trkpt lat="47.92804" lon="7.02557">
        <ele>1210.04528809</ele>
        <time>2021-06-17T11:55:35Z</time>
      </trkpt>
      <trkpt lat="47.92812" lon="7.02539">
        <ele>1211.04516602</ele>
        <time>2021-06-17T11:55:38Z</time>
      </trkpt>
      <trkpt lat="47.92817" lon="7.02524">
        <ele>1211.04516602</ele>
        <time>2021-06-17T11:55:41Z</time>
      </trkpt>
      <trkpt lat="47.92821" lon="7.02511">
        <ele>1211.04516602</ele>
        <time>2021-06-17T11:55:44Z</time>
      </trkpt>
      <trkpt lat="47.92826" lon="7.02495">
        <ele>1211.04516602</ele>
        <time>2021-06-17T11:55:47Z</time>
      </trkpt>
      <trkpt lat="47.92829" lon="7.02477">
        <ele>1212.15881348</ele>
        <time>2021-06-17T11:55:50Z</time>
      </trkpt>
      <trkpt lat="47.92833" lon="7.02458">
        <ele>1212.15881348</ele>
        <time>2021-06-17T11:55:53Z</time>
      </trkpt>
      <trkpt lat="47.92836" lon="7.02439">
        <ele>1212.15881348</ele>
        <time>2021-06-17T11:55:56Z</time>
      </trkpt>
      <trkpt lat="47.92838" lon="7.02422">
        <ele>1212.15881348</ele>
        <time>2021-06-17T11:55:58Z</time>
      </trkpt>
      <trkpt lat="47.9284" lon="7.02409">
        <ele>1213.35253906</ele>
        <time>2021-06-17T11:56:00Z</time>
      </trkpt>
      <trkpt lat="47.92841" lon="7.02395">
        <ele>1213.35253906</ele>
        <time>2021-06-17T11:56:02Z</time>
      </trkpt>
      <trkpt lat="47.92841" lon="7.02381">
        <ele>1213.35253906</ele>
        <time>2021-06-17T11:56:04Z</time>
      </trkpt>
      <trkpt lat="47.92841" lon="7.02367">
        <ele>1213.35253906</ele>
        <time>2021-06-17T11:56:07Z</time>
      </trkpt>
      <trkpt lat="47.92844" lon="7.02349">
        <ele>1214.09753418</ele>
        <time>2021-06-17T11:56:10Z</time>
      </trkpt>
      <trkpt lat="47.92847" lon="7.02333">
        <ele>1214.09753418</ele>
        <time>2021-06-17T11:56:12Z</time>
      </trkpt>
      <trkpt lat="47.9285" lon="7.0232">
        <ele>1214.09753418</ele>
        <time>2021-06-17T11:56:15Z</time>
      </trkpt>
      <trkpt lat="47.92849" lon="7.02304">
        <ele>1215.28137207</ele>
        <time>2021-06-17T11:56:18Z</time>
      </trkpt>
      <trkpt lat="47.9285" lon="7.02286">
        <ele>1215.28137207</ele>
        <time>2021-06-17T11:56:21Z</time>
      </trkpt>
      <trkpt lat="47.92851" lon="7.02269">
        <ele>1215.28137207</ele>
        <time>2021-06-17T11:56:24Z</time>
      </trkpt>
      <trkpt lat="47.92854" lon="7.02252">
        <ele>1215.28137207</ele>
        <time>2021-06-17T11:56:27Z</time>
      </trkpt>
      <trkpt lat="47.92856" lon="7.02249">
        <ele>1216.03808594</ele>
        <time>2021-06-17T11:56:28Z</time>
      </trkpt>
      <trkpt lat="47.92857" lon="7.02237">
        <ele>1216.03808594</ele>
        <time>2021-06-17T11:56:30Z</time>
      </trkpt>
      <trkpt lat="47.92855" lon="7.02221">
        <ele>1216.03808594</ele>
        <time>2021-06-17T11:56:32Z</time>
      </trkpt>
      <trkpt lat="47.92851" lon="7.02207">
        <ele>1216.03808594</ele>
        <time>2021-06-17T11:56:34Z</time>
      </trkpt>
      <trkpt lat="47.92844" lon="7.02179">
        <ele>1216.03808594</ele>
        <time>2021-06-17T11:56:38Z</time>
      </trkpt>
      <trkpt lat="47.92839" lon="7.02164">
        <ele>1216.03808594</ele>
        <time>2021-06-17T11:56:41Z</time>
      </trkpt>
      <trkpt lat="47.92834" lon="7.02149">
        <ele>1216.03808594</ele>
        <time>2021-06-17T11:56:43Z</time>
      </trkpt>
      <trkpt lat="47.9283" lon="7.02137">
        <ele>1216.03808594</ele>
        <time>2021-06-17T11:56:45Z</time>
      </trkpt>
      <trkpt lat="47.92825" lon="7.02121">
        <ele>1216.03808594</ele>
        <time>2021-06-17T11:56:48Z</time>
      </trkpt>
      <trkpt lat="47.92822" lon="7.02105">
        <ele>1216.03808594</ele>
        <time>2021-06-17T11:56:51Z</time>
      </trkpt>
      <trkpt lat="47.92816" lon="7.0209">
        <ele>1216.6776123</ele>
        <time>2021-06-17T11:56:54Z</time>
      </trkpt>
      <trkpt lat="47.9281" lon="7.02075">
        <ele>1216.6776123</ele>
        <time>2021-06-17T11:56:57Z</time>
      </trkpt>
      <trkpt lat="47.92806" lon="7.02057">
        <ele>1216.6776123</ele>
        <time>2021-06-17T11:57:00Z</time>
      </trkpt>
      <trkpt lat="47.92801" lon="7.0204">
        <ele>1216.6776123</ele>
        <time>2021-06-17T11:57:03Z</time>
      </trkpt>
      <trkpt lat="47.92796" lon="7.02022">
        <ele>1216.6776123</ele>
        <time>2021-06-17T11:57:06Z</time>
      </trkpt>
      <trkpt lat="47.92795" lon="7.02009">
        <ele>1216.6776123</ele>
        <time>2021-06-17T11:57:09Z</time>
      </trkpt>
      <trkpt lat="47.928" lon="7.01994">
        <ele>1216.6776123</ele>
        <time>2021-06-17T11:57:11Z</time>
      </trkpt>
      <trkpt lat="47.92807" lon="7.01982">
        <ele>1216.6776123</ele>
        <time>2021-06-17T11:57:13Z</time>
      </trkpt>
      <trkpt lat="47.92816" lon="7.01975">
        <ele>1216.6776123</ele>
        <time>2021-06-17T11:57:15Z</time>
      </trkpt>
      <trkpt lat="47.92825" lon="7.01971">
        <ele>1216.6776123</ele>
        <time>2021-06-17T11:57:17Z</time>
      </trkpt>
      <trkpt lat="47.92836" lon="7.01968">
        <ele>1217.5501709</ele>
        <time>2021-06-17T11:57:19Z</time>
      </trkpt>
      <trkpt lat="47.92846" lon="7.01969">
        <ele>1217.5501709</ele>
        <time>2021-06-17T11:57:21Z</time>
      </trkpt>
      <trkpt lat="47.92856" lon="7.01969">
        <ele>1217.5501709</ele>
        <time>2021-06-17T11:57:23Z</time>
      </trkpt>
      <trkpt lat="47.92867" lon="7.01971">
        <ele>1217.5501709</ele>
        <time>2021-06-17T11:57:26Z</time>
      </trkpt>
      <trkpt lat="47.92876" lon="7.01974">
        <ele>1218.33532715</ele>
        <time>2021-06-17T11:57:28Z</time>
      </trkpt>
      <trkpt lat="47.92883" lon="7.01977">
        <ele>1218.33532715</ele>
        <time>2021-06-17T11:57:29Z</time>
      </trkpt>
      <trkpt lat="47.92893" lon="7.01983">
        <ele>1218.33532715</ele>
        <time>2021-06-17T11:57:31Z</time>
      </trkpt>
      <trkpt lat="47.92904" lon="7.01989">
        <ele>1218.33532715</ele>
        <time>2021-06-17T11:57:34Z</time>
      </trkpt>
      <trkpt lat="47.92915" lon="7.01995">
        <ele>1218.33532715</ele>
        <time>2021-06-17T11:57:37Z</time>
      </trkpt>
      <trkpt lat="47.92927" lon="7.02">
        <ele>1218.33532715</ele>
        <time>2021-06-17T11:57:39Z</time>
      </trkpt>
      <trkpt lat="47.92937" lon="7.02003">
        <ele>1218.33532715</ele>
        <time>2021-06-17T11:57:42Z</time>
      </trkpt>
      <trkpt lat="47.92949" lon="7.02009">
        <ele>1218.33532715</ele>
        <time>2021-06-17T11:57:45Z</time>
      </trkpt>
      <trkpt lat="47.92961" lon="7.02012">
        <ele>1218.33532715</ele>
        <time>2021-06-17T11:57:48Z</time>
      </trkpt>
      <trkpt lat="47.92971" lon="7.02016">
        <ele>1218.33532715</ele>
        <time>2021-06-17T11:57:51Z</time>
      </trkpt>
      <trkpt lat="47.92983" lon="7.0202">
        <ele>1218.33532715</ele>
        <time>2021-06-17T11:57:54Z</time>
      </trkpt>
      <trkpt lat="47.92995" lon="7.0202">
        <ele>1218.33532715</ele>
        <time>2021-06-17T11:57:56Z</time>
      </trkpt>
      <trkpt lat="47.93005" lon="7.02022">
        <ele>1218.28039551</ele>
        <time>2021-06-17T11:57:58Z</time>
      </trkpt>
      <trkpt lat="47.93016" lon="7.02023">
        <ele>1218.28039551</ele>
        <time>2021-06-17T11:58:00Z</time>
      </trkpt>
      <trkpt lat="47.93026" lon="7.02024">
        <ele>1218.28039551</ele>
        <time>2021-06-17T11:58:02Z</time>
      </trkpt>
      <trkpt lat="47.93037" lon="7.02025">
        <ele>1218.28039551</ele>
        <time>2021-06-17T11:58:04Z</time>
      </trkpt>
      <trkpt lat="47.93049" lon="7.02025">
        <ele>1216.84753418</ele>
        <time>2021-06-17T11:58:06Z</time>
      </trkpt>
      <trkpt lat="47.93064" lon="7.02024">
        <ele>1216.84753418</ele>
        <time>2021-06-17T11:58:08Z</time>
      </trkpt>
      <trkpt lat="47.93079" lon="7.02022">
        <ele>1216.84753418</ele>
        <time>2021-06-17T11:58:10Z</time>
      </trkpt>
      <trkpt lat="47.93094" lon="7.02021">
        <ele>1215.70349121</ele>
        <time>2021-06-17T11:58:12Z</time>
      </trkpt>
      <trkpt lat="47.9311" lon="7.02016">
        <ele>1215.70349121</ele>
        <time>2021-06-17T11:58:14Z</time>
      </trkpt>
      <trkpt lat="47.93124" lon="7.02012">
        <ele>1215.70349121</ele>
        <time>2021-06-17T11:58:16Z</time>
      </trkpt>
      <trkpt lat="47.93139" lon="7.02004">
        <ele>1214.62512207</ele>
        <time>2021-06-17T11:58:18Z</time>
      </trkpt>
      <trkpt lat="47.93154" lon="7.01995">
        <ele>1214.62512207</ele>
        <time>2021-06-17T11:58:20Z</time>
      </trkpt>
      <trkpt lat="47.93169" lon="7.01985">
        <ele>1213.22119141</ele>
        <time>2021-06-17T11:58:21Z</time>
      </trkpt>
      <trkpt lat="47.9318" lon="7.01976">
        <ele>1213.22119141</ele>
        <time>2021-06-17T11:58:23Z</time>
      </trkpt>
      <trkpt lat="47.93192" lon="7.01966">
        <ele>1211.85656738</ele>
        <time>2021-06-17T11:58:24Z</time>
      </trkpt>
      <trkpt lat="47.93205" lon="7.01957">
        <ele>1211.85656738</ele>
        <time>2021-06-17T11:58:26Z</time>
      </trkpt>
      <trkpt lat="47.93224" lon="7.01938">
        <ele>1210.93774414</ele>
        <time>2021-06-17T11:58:28Z</time>
      </trkpt>
      <trkpt lat="47.93234" lon="7.01927">
        <ele>1210.93774414</ele>
        <time>2021-06-17T11:58:29Z</time>
      </trkpt>
      <trkpt lat="47.93243" lon="7.01922">
        <ele>1210.93774414</ele>
        <time>2021-06-17T11:58:30Z</time>
      </trkpt>
      <trkpt lat="47.93251" lon="7.01914">
        <ele>1210.93774414</ele>
        <time>2021-06-17T11:58:31Z</time>
      </trkpt>
      <trkpt lat="47.93258" lon="7.01907">
        <ele>1210.93774414</ele>
        <time>2021-06-17T11:58:33Z</time>
      </trkpt>
      <trkpt lat="47.93271" lon="7.019">
        <ele>1210.93774414</ele>
        <time>2021-06-17T11:58:35Z</time>
      </trkpt>
      <trkpt lat="47.93285" lon="7.01894">
        <ele>1210.93774414</ele>
        <time>2021-06-17T11:58:37Z</time>
      </trkpt>
      <trkpt lat="47.93296" lon="7.0189">
        <ele>1210.93774414</ele>
        <time>2021-06-17T11:58:39Z</time>
      </trkpt>
      <trkpt lat="47.93308" lon="7.01887">
        <ele>1210.93774414</ele>
        <time>2021-06-17T11:58:41Z</time>
      </trkpt>
      <trkpt lat="47.9332" lon="7.01885">
        <ele>1210.93774414</ele>
        <time>2021-06-17T11:58:43Z</time>
      </trkpt>
      <trkpt lat="47.93331" lon="7.01886">
        <ele>1210.93774414</ele>
        <time>2021-06-17T11:58:45Z</time>
      </trkpt>
      <trkpt lat="47.93341" lon="7.01888">
        <ele>1210.93774414</ele>
        <time>2021-06-17T11:58:47Z</time>
      </trkpt>
      <trkpt lat="47.93351" lon="7.0189">
        <ele>1210.93774414</ele>
        <time>2021-06-17T11:58:49Z</time>
      </trkpt>
      <trkpt lat="47.93362" lon="7.01891">
        <ele>1210.93774414</ele>
        <time>2021-06-17T11:58:51Z</time>
      </trkpt>
      <trkpt lat="47.93374" lon="7.01894">
        <ele>1210.93774414</ele>
        <time>2021-06-17T11:58:53Z</time>
      </trkpt>
      <trkpt lat="47.93386" lon="7.01897">
        <ele>1210.93774414</ele>
        <time>2021-06-17T11:58:55Z</time>
      </trkpt>
      <trkpt lat="47.93398" lon="7.01902">
        <ele>1210.93774414</ele>
        <time>2021-06-17T11:58:57Z</time>
      </trkpt>
      <trkpt lat="47.93412" lon="7.01908">
        <ele>1210.93774414</ele>
        <time>2021-06-17T11:58:59Z</time>
      </trkpt>
      <trkpt lat="47.93425" lon="7.01918">
        <ele>1210.93774414</ele>
        <time>2021-06-17T11:59:01Z</time>
      </trkpt>
      <trkpt lat="47.93438" lon="7.01926">
        <ele>1210.93774414</ele>
        <time>2021-06-17T11:59:03Z</time>
      </trkpt>
      <trkpt lat="47.93449" lon="7.01933">
        <ele>1210.93774414</ele>
        <time>2021-06-17T11:59:05Z</time>
      </trkpt>
      <trkpt lat="47.93458" lon="7.01941">
        <ele>1210.93774414</ele>
        <time>2021-06-17T11:59:07Z</time>
      </trkpt>
      <trkpt lat="47.93469" lon="7.01948">
        <ele>1210.93774414</ele>
        <time>2021-06-17T11:59:09Z</time>
      </trkpt>
      <trkpt lat="47.93478" lon="7.01955">
        <ele>1210.93774414</ele>
        <time>2021-06-17T11:59:11Z</time>
      </trkpt>
      <trkpt lat="47.9349" lon="7.01961">
        <ele>1210.93774414</ele>
        <time>2021-06-17T11:59:13Z</time>
      </trkpt>
      <trkpt lat="47.935" lon="7.01968">
        <ele>1210.93774414</ele>
        <time>2021-06-17T11:59:15Z</time>
      </trkpt>
      <trkpt lat="47.93511" lon="7.01976">
        <ele>1210.93774414</ele>
        <time>2021-06-17T11:59:17Z</time>
      </trkpt>
      <trkpt lat="47.93523" lon="7.01984">
        <ele>1210.93774414</ele>
        <time>2021-06-17T11:59:19Z</time>
      </trkpt>
      <trkpt lat="47.93535" lon="7.01992">
        <ele>1210.93774414</ele>
        <time>2021-06-17T11:59:21Z</time>
      </trkpt>
      <trkpt lat="47.93546" lon="7.02">
        <ele>1210.58312988</ele>
        <time>2021-06-17T11:59:23Z</time>
      </trkpt>
      <trkpt lat="47.9356" lon="7.02008">
        <ele>1210.58312988</ele>
        <time>2021-06-17T11:59:25Z</time>
      </trkpt>
      <trkpt lat="47.93573" lon="7.02015">
        <ele>1210.58312988</ele>
        <time>2021-06-17T11:59:27Z</time>
      </trkpt>
      <trkpt lat="47.93576" lon="7.02017">
        <ele>1209.26123047</ele>
        <time>2021-06-17T11:59:28Z</time>
      </trkpt>
      <trkpt lat="47.93586" lon="7.02022">
        <ele>1209.26123047</ele>
        <time>2021-06-17T11:59:29Z</time>
      </trkpt>
      <trkpt lat="47.93599" lon="7.02031">
        <ele>1209.26123047</ele>
        <time>2021-06-17T11:59:31Z</time>
      </trkpt>
      <trkpt lat="47.93611" lon="7.0204">
        <ele>1208.00866699</ele>
        <time>2021-06-17T11:59:33Z</time>
      </trkpt>
      <trkpt lat="47.93623" lon="7.02047">
        <ele>1208.00866699</ele>
        <time>2021-06-17T11:59:35Z</time>
      </trkpt>
      <trkpt lat="47.93635" lon="7.02053">
        <ele>1208.00866699</ele>
        <time>2021-06-17T11:59:37Z</time>
      </trkpt>
      <trkpt lat="47.93646" lon="7.02062">
        <ele>1208.00866699</ele>
        <time>2021-06-17T11:59:39Z</time>
      </trkpt>
      <trkpt lat="47.93656" lon="7.02069">
        <ele>1208.00866699</ele>
        <time>2021-06-17T11:59:41Z</time>
      </trkpt>
      <trkpt lat="47.93667" lon="7.02075">
        <ele>1208.1784668</ele>
        <time>2021-06-17T11:59:44Z</time>
      </trkpt>
      <trkpt lat="47.93679" lon="7.02081">
        <ele>1208.1784668</ele>
        <time>2021-06-17T11:59:46Z</time>
      </trkpt>
      <trkpt lat="47.93688" lon="7.02087">
        <ele>1209.56286621</ele>
        <time>2021-06-17T11:59:48Z</time>
      </trkpt>
      <trkpt lat="47.93698" lon="7.02095">
        <ele>1209.56286621</ele>
        <time>2021-06-17T11:59:50Z</time>
      </trkpt>
      <trkpt lat="47.93708" lon="7.02102">
        <ele>1209.56286621</ele>
        <time>2021-06-17T11:59:52Z</time>
      </trkpt>
      <trkpt lat="47.93718" lon="7.02111">
        <ele>1209.56286621</ele>
        <time>2021-06-17T11:59:54Z</time>
      </trkpt>
      <trkpt lat="47.93728" lon="7.02121">
        <ele>1209.56286621</ele>
        <time>2021-06-17T11:59:56Z</time>
      </trkpt>
      <trkpt lat="47.93737" lon="7.02134">
        <ele>1209.56286621</ele>
        <time>2021-06-17T11:59:58Z</time>
      </trkpt>
      <trkpt lat="47.93747" lon="7.02147">
        <ele>1209.56286621</ele>
        <time>2021-06-17T12:00:00Z</time>
      </trkpt>
      <trkpt lat="47.93756" lon="7.0216">
        <ele>1209.56286621</ele>
        <time>2021-06-17T12:00:02Z</time>
      </trkpt>
      <trkpt lat="47.93763" lon="7.02176">
        <ele>1209.56286621</ele>
        <time>2021-06-17T12:00:04Z</time>
      </trkpt>
      <trkpt lat="47.93771" lon="7.02191">
        <ele>1209.56286621</ele>
        <time>2021-06-17T12:00:06Z</time>
      </trkpt>
      <trkpt lat="47.93779" lon="7.02204">
        <ele>1209.85192871</ele>
        <time>2021-06-17T12:00:08Z</time>
      </trkpt>
      <trkpt lat="47.93789" lon="7.02215">
        <ele>1209.85192871</ele>
        <time>2021-06-17T12:00:10Z</time>
      </trkpt>
      <trkpt lat="47.938" lon="7.02222">
        <ele>1209.85192871</ele>
        <time>2021-06-17T12:00:12Z</time>
      </trkpt>
      <trkpt lat="47.93811" lon="7.02225">
        <ele>1209.85192871</ele>
        <time>2021-06-17T12:00:14Z</time>
      </trkpt>
      <trkpt lat="47.93823" lon="7.02222">
        <ele>1209.85192871</ele>
        <time>2021-06-17T12:00:16Z</time>
      </trkpt>
      <trkpt lat="47.93834" lon="7.02214">
        <ele>1209.85192871</ele>
        <time>2021-06-17T12:00:18Z</time>
      </trkpt>
      <trkpt lat="47.93844" lon="7.02201">
        <ele>1209.85192871</ele>
        <time>2021-06-17T12:00:20Z</time>
      </trkpt>
      <trkpt lat="47.93855" lon="7.02191">
        <ele>1209.85192871</ele>
        <time>2021-06-17T12:00:22Z</time>
      </trkpt>
      <trkpt lat="47.93864" lon="7.0218">
        <ele>1209.85192871</ele>
        <time>2021-06-17T12:00:24Z</time>
      </trkpt>
      <trkpt lat="47.93873" lon="7.02171">
        <ele>1209.85192871</ele>
        <time>2021-06-17T12:00:26Z</time>
      </trkpt>
      <trkpt lat="47.9388" lon="7.02164">
        <ele>1209.13427734</ele>
        <time>2021-06-17T12:00:28Z</time>
      </trkpt>
      <trkpt lat="47.93887" lon="7.02156">
        <ele>1209.13427734</ele>
        <time>2021-06-17T12:00:30Z</time>
      </trkpt>
      <trkpt lat="47.93897" lon="7.02145">
        <ele>1209.13427734</ele>
        <time>2021-06-17T12:00:33Z</time>
      </trkpt>
      <trkpt lat="47.93908" lon="7.02137">
        <ele>1209.13427734</ele>
        <time>2021-06-17T12:00:36Z</time>
      </trkpt>
      <trkpt lat="47.93917" lon="7.02126">
        <ele>1210.37561035</ele>
        <time>2021-06-17T12:00:39Z</time>
      </trkpt>
      <trkpt lat="47.93926" lon="7.0212">
        <ele>1210.37561035</ele>
        <time>2021-06-17T12:00:42Z</time>
      </trkpt>
      <trkpt lat="47.93934" lon="7.02115">
        <ele>1211.46716309</ele>
        <time>2021-06-17T12:00:45Z</time>
      </trkpt>
      <trkpt lat="47.93945" lon="7.02112">
        <ele>1212.68798828</ele>
        <time>2021-06-17T12:00:48Z</time>
      </trkpt>
      <trkpt lat="47.93955" lon="7.02112">
        <ele>1212.68798828</ele>
        <time>2021-06-17T12:00:51Z</time>
      </trkpt>
      <trkpt lat="47.93967" lon="7.02114">
        <ele>1212.68798828</ele>
        <time>2021-06-17T12:00:54Z</time>
      </trkpt>
      <trkpt lat="47.93979" lon="7.02118">
        <ele>1213.78295898</ele>
        <time>2021-06-17T12:00:57Z</time>
      </trkpt>
      <trkpt lat="47.9399" lon="7.02125">
        <ele>1213.78295898</ele>
        <time>2021-06-17T12:00:59Z</time>
      </trkpt>
      <trkpt lat="47.93999" lon="7.02132">
        <ele>1213.78295898</ele>
        <time>2021-06-17T12:01:02Z</time>
      </trkpt>
      <trkpt lat="47.94009" lon="7.02142">
        <ele>1213.78295898</ele>
        <time>2021-06-17T12:01:05Z</time>
      </trkpt>
      <trkpt lat="47.9402" lon="7.02153">
        <ele>1213.78295898</ele>
        <time>2021-06-17T12:01:08Z</time>
      </trkpt>
      <trkpt lat="47.94032" lon="7.02163">
        <ele>1213.78295898</ele>
        <time>2021-06-17T12:01:11Z</time>
      </trkpt>
      <trkpt lat="47.94041" lon="7.02173">
        <ele>1213.78295898</ele>
        <time>2021-06-17T12:01:13Z</time>
      </trkpt>
      <trkpt lat="47.94048" lon="7.02181">
        <ele>1213.78295898</ele>
        <time>2021-06-17T12:01:15Z</time>
      </trkpt>
      <trkpt lat="47.94056" lon="7.02189">
        <ele>1213.78295898</ele>
        <time>2021-06-17T12:01:17Z</time>
      </trkpt>
      <trkpt lat="47.94062" lon="7.02198">
        <ele>1214.7142334</ele>
        <time>2021-06-17T12:01:19Z</time>
      </trkpt>
      <trkpt lat="47.9407" lon="7.02206">
        <ele>1214.7142334</ele>
        <time>2021-06-17T12:01:21Z</time>
      </trkpt>
      <trkpt lat="47.94077" lon="7.02216">
        <ele>1214.7142334</ele>
        <time>2021-06-17T12:01:23Z</time>
      </trkpt>
      <trkpt lat="47.94084" lon="7.02227">
        <ele>1214.7142334</ele>
        <time>2021-06-17T12:01:25Z</time>
      </trkpt>
      <trkpt lat="47.94091" lon="7.02238">
        <ele>1214.7142334</ele>
        <time>2021-06-17T12:01:27Z</time>
      </trkpt>
      <trkpt lat="47.94093" lon="7.02241">
        <ele>1215.2454834</ele>
        <time>2021-06-17T12:01:28Z</time>
      </trkpt>
      <trkpt lat="47.94098" lon="7.02251">
        <ele>1215.2454834</ele>
        <time>2021-06-17T12:01:30Z</time>
      </trkpt>
      <trkpt lat="47.94104" lon="7.02266">
        <ele>1215.2454834</ele>
        <time>2021-06-17T12:01:33Z</time>
      </trkpt>
      <trkpt lat="47.94119" lon="7.02295">
        <ele>1215.2454834</ele>
        <time>2021-06-17T12:01:38Z</time>
      </trkpt>
      <trkpt lat="47.94126" lon="7.02304">
        <ele>1215.2454834</ele>
        <time>2021-06-17T12:01:40Z</time>
      </trkpt>
      <trkpt lat="47.94135" lon="7.02312">
        <ele>1215.2454834</ele>
        <time>2021-06-17T12:01:42Z</time>
      </trkpt>
      <trkpt lat="47.94144" lon="7.02317">
        <ele>1215.2454834</ele>
        <time>2021-06-17T12:01:44Z</time>
      </trkpt>
      <trkpt lat="47.94155" lon="7.02318">
        <ele>1215.2454834</ele>
        <time>2021-06-17T12:01:47Z</time>
      </trkpt>
      <trkpt lat="47.94167" lon="7.02316">
        <ele>1215.78723145</ele>
        <time>2021-06-17T12:01:49Z</time>
      </trkpt>
      <trkpt lat="47.94177" lon="7.02311">
        <ele>1215.78723145</ele>
        <time>2021-06-17T12:01:52Z</time>
      </trkpt>
      <trkpt lat="47.94186" lon="7.02301">
        <ele>1215.78723145</ele>
        <time>2021-06-17T12:01:55Z</time>
      </trkpt>
      <trkpt lat="47.94194" lon="7.0229">
        <ele>1215.78723145</ele>
        <time>2021-06-17T12:01:57Z</time>
      </trkpt>
      <trkpt lat="47.94201" lon="7.0228">
        <ele>1215.78723145</ele>
        <time>2021-06-17T12:01:59Z</time>
      </trkpt>
      <trkpt lat="47.94205" lon="7.02268">
        <ele>1217.07434082</ele>
        <time>2021-06-17T12:02:01Z</time>
      </trkpt>
      <trkpt lat="47.9421" lon="7.02255">
        <ele>1217.07434082</ele>
        <time>2021-06-17T12:02:03Z</time>
      </trkpt>
      <trkpt lat="47.94212" lon="7.02241">
        <ele>1217.07434082</ele>
        <time>2021-06-17T12:02:05Z</time>
      </trkpt>
      <trkpt lat="47.94217" lon="7.02226">
        <ele>1217.89294434</ele>
        <time>2021-06-17T12:02:08Z</time>
      </trkpt>
      <trkpt lat="47.94222" lon="7.02209">
        <ele>1217.89294434</ele>
        <time>2021-06-17T12:02:11Z</time>
      </trkpt>
      <trkpt lat="47.94227" lon="7.02191">
        <ele>1219.09411621</ele>
        <time>2021-06-17T12:02:14Z</time>
      </trkpt>
      <trkpt lat="47.94233" lon="7.02175">
        <ele>1219.09411621</ele>
        <time>2021-06-17T12:02:17Z</time>
      </trkpt>
      <trkpt lat="47.94239" lon="7.02161">
        <ele>1220.06079102</ele>
        <time>2021-06-17T12:02:19Z</time>
      </trkpt>
      <trkpt lat="47.94243" lon="7.02147">
        <ele>1221.14855957</ele>
        <time>2021-06-17T12:02:22Z</time>
      </trkpt>
      <trkpt lat="47.94249" lon="7.02134">
        <ele>1222.36730957</ele>
        <time>2021-06-17T12:02:26Z</time>
      </trkpt>
      <trkpt lat="47.94251" lon="7.02125">
        <ele>1223.17553711</ele>
        <time>2021-06-17T12:02:28Z</time>
      </trkpt>
      <trkpt lat="47.94254" lon="7.02116">
        <ele>1223.17553711</ele>
        <time>2021-06-17T12:02:32Z</time>
      </trkpt>
      <trkpt lat="47.9426" lon="7.02104">
        <ele>1224.04431152</ele>
        <time>2021-06-17T12:02:36Z</time>
      </trkpt>
      <trkpt lat="47.94268" lon="7.02096">
        <ele>1226.36181641</ele>
        <time>2021-06-17T12:02:48Z</time>
      </trkpt>
      <trkpt lat="47.9427" lon="7.02085">
        <ele>1227.33630371</ele>
        <time>2021-06-17T12:04:08Z</time>
      </trkpt>
      <trkpt lat="47.94266" lon="7.0209">
        <ele>1227.33630371</ele>
        <time>2021-06-17T12:04:14Z</time>
      </trkpt>
      <trkpt lat="47.9428" lon="7.02092">
        <ele>1227.33630371</ele>
        <time>2021-06-17T12:04:17Z</time>
      </trkpt>
      <trkpt lat="47.94289" lon="7.02084">
        <ele>1227.33630371</ele>
        <time>2021-06-17T12:04:20Z</time>
      </trkpt>
      <trkpt lat="47.94296" lon="7.02071">
        <ele>1226.98718262</ele>
        <time>2021-06-17T12:04:23Z</time>
      </trkpt>
      <trkpt lat="47.94302" lon="7.02057">
        <ele>1228.39111328</ele>
        <time>2021-06-17T12:04:27Z</time>
      </trkpt>
      <trkpt lat="47.94303" lon="7.02052">
        <ele>1229.38525391</ele>
        <time>2021-06-17T12:04:28Z</time>
      </trkpt>
      <trkpt lat="47.94307" lon="7.02044">
        <ele>1229.38525391</ele>
        <time>2021-06-17T12:04:31Z</time>
      </trkpt>
      <trkpt lat="47.94324" lon="7.0202">
        <ele>1231.35449219</ele>
        <time>2021-06-17T12:04:39Z</time>
      </trkpt>
      <trkpt lat="47.94333" lon="7.02015">
        <ele>1232.62451172</ele>
        <time>2021-06-17T12:04:43Z</time>
      </trkpt>
      <trkpt lat="47.94343" lon="7.0201">
        <ele>1233.7623291</ele>
        <time>2021-06-17T12:04:46Z</time>
      </trkpt>
      <trkpt lat="47.94353" lon="7.02007">
        <ele>1234.77380371</ele>
        <time>2021-06-17T12:04:50Z</time>
      </trkpt>
      <trkpt lat="47.94363" lon="7.02003">
        <ele>1234.77380371</ele>
        <time>2021-06-17T12:04:53Z</time>
      </trkpt>
      <trkpt lat="47.94374" lon="7.02002">
        <ele>1235.93737793</ele>
        <time>2021-06-17T12:04:57Z</time>
      </trkpt>
      <trkpt lat="47.94383" lon="7.02">
        <ele>1237.04248047</ele>
        <time>2021-06-17T12:05:01Z</time>
      </trkpt>
      <trkpt lat="47.94393" lon="7.01998">
        <ele>1237.04248047</ele>
        <time>2021-06-17T12:05:04Z</time>
      </trkpt>
      <trkpt lat="47.94404" lon="7.01998">
        <ele>1238.16589355</ele>
        <time>2021-06-17T12:05:08Z</time>
      </trkpt>
      <trkpt lat="47.94413" lon="7.02002">
        <ele>1238.16589355</ele>
        <time>2021-06-17T12:05:11Z</time>
      </trkpt>
      <trkpt lat="47.94422" lon="7.02008">
        <ele>1239.12744141</ele>
        <time>2021-06-17T12:05:14Z</time>
      </trkpt>
      <trkpt lat="47.94431" lon="7.02015">
        <ele>1240.57446289</ele>
        <time>2021-06-17T12:05:17Z</time>
      </trkpt>
      <trkpt lat="47.94439" lon="7.02025">
        <ele>1241.71008301</ele>
        <time>2021-06-17T12:05:21Z</time>
      </trkpt>
      <trkpt lat="47.94446" lon="7.02038">
        <ele>1242.64819336</ele>
        <time>2021-06-17T12:05:25Z</time>
      </trkpt>
      <trkpt lat="47.94452" lon="7.02047">
        <ele>1243.23803711</ele>
        <time>2021-06-17T12:05:28Z</time>
      </trkpt>
      <trkpt lat="47.94454" lon="7.02057">
        <ele>1243.23803711</ele>
        <time>2021-06-17T12:05:31Z</time>
      </trkpt>
      <trkpt lat="47.94457" lon="7.02071">
        <ele>1243.88708496</ele>
        <time>2021-06-17T12:05:35Z</time>
      </trkpt>
      <trkpt lat="47.94464" lon="7.02085">
        <ele>1243.88708496</ele>
        <time>2021-06-17T12:05:39Z</time>
      </trkpt>
      <trkpt lat="47.94471" lon="7.02099">
        <ele>1244.99316406</ele>
        <time>2021-06-17T12:05:43Z</time>
      </trkpt>
      <trkpt lat="47.94478" lon="7.02111">
        <ele>1244.99316406</ele>
        <time>2021-06-17T12:05:47Z</time>
      </trkpt>
      <trkpt lat="47.94482" lon="7.02124">
        <ele>1246.12133789</ele>
        <time>2021-06-17T12:05:52Z</time>
      </trkpt>
      <trkpt lat="47.9449" lon="7.02138">
        <ele>1247.12573242</ele>
        <time>2021-06-17T12:05:56Z</time>
      </trkpt>
      <trkpt lat="47.94497" lon="7.02151">
        <ele>1248.27160645</ele>
        <time>2021-06-17T12:05:59Z</time>
      </trkpt>
      <trkpt lat="47.94504" lon="7.02161">
        <ele>1248.27160645</ele>
        <time>2021-06-17T12:06:02Z</time>
      </trkpt>
      <trkpt lat="47.94512" lon="7.02171">
        <ele>1249.48071289</ele>
        <time>2021-06-17T12:06:05Z</time>
      </trkpt>
      <trkpt lat="47.94519" lon="7.02183">
        <ele>1250.51916504</ele>
        <time>2021-06-17T12:06:09Z</time>
      </trkpt>
      <trkpt lat="47.94526" lon="7.02195">
        <ele>1250.51916504</ele>
        <time>2021-06-17T12:06:12Z</time>
      </trkpt>
      <trkpt lat="47.94532" lon="7.02205">
        <ele>1251.77807617</ele>
        <time>2021-06-17T12:06:15Z</time>
      </trkpt>
      <trkpt lat="47.94538" lon="7.02216">
        <ele>1252.9765625</ele>
        <time>2021-06-17T12:06:19Z</time>
      </trkpt>
      <trkpt lat="47.94543" lon="7.02228">
        <ele>1254.14025879</ele>
        <time>2021-06-17T12:06:24Z</time>
      </trkpt>
      <trkpt lat="47.94547" lon="7.02239">
        <ele>1255.92102051</ele>
        <time>2021-06-17T12:06:28Z</time>
      </trkpt>
      <trkpt lat="47.9455" lon="7.0225">
        <ele>1255.92102051</ele>
        <time>2021-06-17T12:06:31Z</time>
      </trkpt>
      <trkpt lat="47.94554" lon="7.02262">
        <ele>1256.81384277</ele>
        <time>2021-06-17T12:06:35Z</time>
      </trkpt>
      <trkpt lat="47.94557" lon="7.02275">
        <ele>1256.81384277</ele>
        <time>2021-06-17T12:06:39Z</time>
      </trkpt>
      <trkpt lat="47.94559" lon="7.0229">
        <ele>1257.99255371</ele>
        <time>2021-06-17T12:06:44Z</time>
      </trkpt>
      <trkpt lat="47.94562" lon="7.02303">
        <ele>1257.99255371</ele>
        <time>2021-06-17T12:06:49Z</time>
      </trkpt>
      <trkpt lat="47.94565" lon="7.02319">
        <ele>1258.99389648</ele>
        <time>2021-06-17T12:06:54Z</time>
      </trkpt>
      <trkpt lat="47.94568" lon="7.02334">
        <ele>1260.07189941</ele>
        <time>2021-06-17T12:06:59Z</time>
      </trkpt>
      <trkpt lat="47.94571" lon="7.02349">
        <ele>1260.07189941</ele>
        <time>2021-06-17T12:07:03Z</time>
      </trkpt>
      <trkpt lat="47.94572" lon="7.02365">
        <ele>1260.95751953</ele>
        <time>2021-06-17T12:07:07Z</time>
      </trkpt>
      <trkpt lat="47.94576" lon="7.02382">
        <ele>1260.95751953</ele>
        <time>2021-06-17T12:07:11Z</time>
      </trkpt>
      <trkpt lat="47.9458" lon="7.02398">
        <ele>1262.08813477</ele>
        <time>2021-06-17T12:07:14Z</time>
      </trkpt>
      <trkpt lat="47.94582" lon="7.02414">
        <ele>1262.08813477</ele>
        <time>2021-06-17T12:07:18Z</time>
      </trkpt>
      <trkpt lat="47.94584" lon="7.0243">
        <ele>1262.08813477</ele>
        <time>2021-06-17T12:07:23Z</time>
      </trkpt>
      <trkpt lat="47.94587" lon="7.02445">
        <ele>1263.25317383</ele>
        <time>2021-06-17T12:07:27Z</time>
      </trkpt>
      <trkpt lat="47.94588" lon="7.0245">
        <ele>1264.02575684</ele>
        <time>2021-06-17T12:07:28Z</time>
      </trkpt>
      <trkpt lat="47.9459" lon="7.02459">
        <ele>1264.02575684</ele>
        <time>2021-06-17T12:07:31Z</time>
      </trkpt>
      <trkpt lat="47.94594" lon="7.02472">
        <ele>1264.89135742</ele>
        <time>2021-06-17T12:07:37Z</time>
      </trkpt>
      <trkpt lat="47.94597" lon="7.02487">
        <ele>1264.89135742</ele>
        <time>2021-06-17T12:07:43Z</time>
      </trkpt>
      <trkpt lat="47.946" lon="7.02501">
        <ele>1264.89135742</ele>
        <time>2021-06-17T12:07:47Z</time>
      </trkpt>
      <trkpt lat="47.94603" lon="7.02516">
        <ele>1264.89135742</ele>
        <time>2021-06-17T12:07:52Z</time>
      </trkpt>
      <trkpt lat="47.94606" lon="7.02532">
        <ele>1264.89135742</ele>
        <time>2021-06-17T12:07:56Z</time>
      </trkpt>
      <trkpt lat="47.9461" lon="7.02546">
        <ele>1265.66101074</ele>
        <time>2021-06-17T12:08:02Z</time>
      </trkpt>
      <trkpt lat="47.94616" lon="7.02573">
        <ele>1265.66101074</ele>
        <time>2021-06-17T12:08:11Z</time>
      </trkpt>
      <trkpt lat="47.9462" lon="7.02588">
        <ele>1266.83007812</ele>
        <time>2021-06-17T12:08:16Z</time>
      </trkpt>
      <trkpt lat="47.94626" lon="7.02603">
        <ele>1266.83007812</ele>
        <time>2021-06-17T12:08:19Z</time>
      </trkpt>
      <trkpt lat="47.9463" lon="7.02615">
        <ele>1266.83007812</ele>
        <time>2021-06-17T12:08:22Z</time>
      </trkpt>
      <trkpt lat="47.94636" lon="7.02627">
        <ele>1266.83007812</ele>
        <time>2021-06-17T12:08:26Z</time>
      </trkpt>
      <trkpt lat="47.94641" lon="7.02634">
        <ele>1268.58129883</ele>
        <time>2021-06-17T12:08:28Z</time>
      </trkpt>
      <trkpt lat="47.94645" lon="7.02642">
        <ele>1268.58129883</ele>
        <time>2021-06-17T12:08:30Z</time>
      </trkpt>
      <trkpt lat="47.94653" lon="7.02653">
        <ele>1268.58129883</ele>
        <time>2021-06-17T12:08:33Z</time>
      </trkpt>
      <trkpt lat="47.94659" lon="7.02664">
        <ele>1268.58129883</ele>
        <time>2021-06-17T12:08:36Z</time>
      </trkpt>
      <trkpt lat="47.94666" lon="7.02675">
        <ele>1269.1998291</ele>
        <time>2021-06-17T12:08:39Z</time>
      </trkpt>
      <trkpt lat="47.94672" lon="7.02686">
        <ele>1269.1998291</ele>
        <time>2021-06-17T12:08:42Z</time>
      </trkpt>
      <trkpt lat="47.94679" lon="7.02698">
        <ele>1270.42687988</ele>
        <time>2021-06-17T12:08:46Z</time>
      </trkpt>
      <trkpt lat="47.94688" lon="7.0271">
        <ele>1270.42687988</ele>
        <time>2021-06-17T12:08:50Z</time>
      </trkpt>
      <trkpt lat="47.94695" lon="7.02722">
        <ele>1271.39196777</ele>
        <time>2021-06-17T12:08:53Z</time>
      </trkpt>
      <trkpt lat="47.94703" lon="7.02732">
        <ele>1271.39196777</ele>
        <time>2021-06-17T12:08:56Z</time>
      </trkpt>
      <trkpt lat="47.94709" lon="7.02742">
        <ele>1271.39196777</ele>
        <time>2021-06-17T12:08:59Z</time>
      </trkpt>
      <trkpt lat="47.94716" lon="7.02752">
        <ele>1271.39196777</ele>
        <time>2021-06-17T12:09:02Z</time>
      </trkpt>
      <trkpt lat="47.94725" lon="7.02764">
        <ele>1272.51367188</ele>
        <time>2021-06-17T12:09:05Z</time>
      </trkpt>
      <trkpt lat="47.94734" lon="7.02772">
        <ele>1272.51367188</ele>
        <time>2021-06-17T12:09:08Z</time>
      </trkpt>
      <trkpt lat="47.94743" lon="7.02781">
        <ele>1272.51367188</ele>
        <time>2021-06-17T12:09:11Z</time>
      </trkpt>
      <trkpt lat="47.94751" lon="7.0279">
        <ele>1272.51367188</ele>
        <time>2021-06-17T12:09:14Z</time>
      </trkpt>
      <trkpt lat="47.9476" lon="7.02801">
        <ele>1272.51367188</ele>
        <time>2021-06-17T12:09:17Z</time>
      </trkpt>
      <trkpt lat="47.9477" lon="7.02813">
        <ele>1273.73046875</ele>
        <time>2021-06-17T12:09:20Z</time>
      </trkpt>
      <trkpt lat="47.94779" lon="7.02823">
        <ele>1273.73046875</ele>
        <time>2021-06-17T12:09:23Z</time>
      </trkpt>
      <trkpt lat="47.94787" lon="7.02832">
        <ele>1273.73046875</ele>
        <time>2021-06-17T12:09:26Z</time>
      </trkpt>
      <trkpt lat="47.94793" lon="7.02837">
        <ele>1274.79260254</ele>
        <time>2021-06-17T12:09:28Z</time>
      </trkpt>
      <trkpt lat="47.948" lon="7.02843">
        <ele>1274.79260254</ele>
        <time>2021-06-17T12:09:30Z</time>
      </trkpt>
      <trkpt lat="47.94811" lon="7.02853">
        <ele>1274.79260254</ele>
        <time>2021-06-17T12:09:33Z</time>
      </trkpt>
      <trkpt lat="47.94819" lon="7.02863">
        <ele>1274.79260254</ele>
        <time>2021-06-17T12:09:35Z</time>
      </trkpt>
      <trkpt lat="47.94834" lon="7.02883">
        <ele>1274.79260254</ele>
        <time>2021-06-17T12:09:39Z</time>
      </trkpt>
      <trkpt lat="47.94842" lon="7.02893">
        <ele>1274.79260254</ele>
        <time>2021-06-17T12:09:41Z</time>
      </trkpt>
      <trkpt lat="47.94851" lon="7.02904">
        <ele>1274.3684082</ele>
        <time>2021-06-17T12:09:43Z</time>
      </trkpt>
      <trkpt lat="47.9486" lon="7.02916">
        <ele>1274.3684082</ele>
        <time>2021-06-17T12:09:45Z</time>
      </trkpt>
      <trkpt lat="47.94868" lon="7.02928">
        <ele>1274.3684082</ele>
        <time>2021-06-17T12:09:47Z</time>
      </trkpt>
      <trkpt lat="47.94877" lon="7.02943">
        <ele>1273.06433105</ele>
        <time>2021-06-17T12:09:49Z</time>
      </trkpt>
      <trkpt lat="47.94886" lon="7.0296">
        <ele>1273.06433105</ele>
        <time>2021-06-17T12:09:51Z</time>
      </trkpt>
      <trkpt lat="47.94896" lon="7.02977">
        <ele>1271.90820312</ele>
        <time>2021-06-17T12:09:53Z</time>
      </trkpt>
      <trkpt lat="47.94906" lon="7.02993">
        <ele>1271.90820312</ele>
        <time>2021-06-17T12:09:55Z</time>
      </trkpt>
      <trkpt lat="47.94915" lon="7.03012">
        <ele>1271.90820312</ele>
        <time>2021-06-17T12:09:57Z</time>
      </trkpt>
      <trkpt lat="47.94926" lon="7.03031">
        <ele>1270.84643555</ele>
        <time>2021-06-17T12:09:59Z</time>
      </trkpt>
      <trkpt lat="47.94938" lon="7.0305">
        <ele>1270.84643555</ele>
        <time>2021-06-17T12:10:01Z</time>
      </trkpt>
      <trkpt lat="47.94949" lon="7.03068">
        <ele>1269.62390137</ele>
        <time>2021-06-17T12:10:03Z</time>
      </trkpt>
      <trkpt lat="47.94959" lon="7.03087">
        <ele>1269.62390137</ele>
        <time>2021-06-17T12:10:05Z</time>
      </trkpt>
      <trkpt lat="47.94971" lon="7.03105">
        <ele>1268.56665039</ele>
        <time>2021-06-17T12:10:07Z</time>
      </trkpt>
      <trkpt lat="47.94983" lon="7.03124">
        <ele>1267.40380859</ele>
        <time>2021-06-17T12:10:09Z</time>
      </trkpt>
      <trkpt lat="47.94996" lon="7.03142">
        <ele>1267.40380859</ele>
        <time>2021-06-17T12:10:11Z</time>
      </trkpt>
      <trkpt lat="47.95006" lon="7.03156">
        <ele>1265.97558594</ele>
        <time>2021-06-17T12:10:12Z</time>
      </trkpt>
      <trkpt lat="47.95015" lon="7.03171">
        <ele>1265.97558594</ele>
        <time>2021-06-17T12:10:14Z</time>
      </trkpt>
      <trkpt lat="47.95026" lon="7.03185">
        <ele>1264.53381348</ele>
        <time>2021-06-17T12:10:15Z</time>
      </trkpt>
      <trkpt lat="47.95035" lon="7.03198">
        <ele>1263.32543945</ele>
        <time>2021-06-17T12:10:17Z</time>
      </trkpt>
      <trkpt lat="47.95047" lon="7.03215">
        <ele>1262.19787598</ele>
        <time>2021-06-17T12:10:19Z</time>
      </trkpt>
      <trkpt lat="47.95061" lon="7.03233">
        <ele>1260.86694336</ele>
        <time>2021-06-17T12:10:21Z</time>
      </trkpt>
      <trkpt lat="47.95072" lon="7.03246">
        <ele>1260.86694336</ele>
        <time>2021-06-17T12:10:22Z</time>
      </trkpt>
      <trkpt lat="47.95079" lon="7.03254">
        <ele>1259.40893555</ele>
        <time>2021-06-17T12:10:23Z</time>
      </trkpt>
      <trkpt lat="47.95088" lon="7.03262">
        <ele>1259.40893555</ele>
        <time>2021-06-17T12:10:24Z</time>
      </trkpt>
      <trkpt lat="47.95097" lon="7.03269">
        <ele>1257.9666748</ele>
        <time>2021-06-17T12:10:25Z</time>
      </trkpt>
      <trkpt lat="47.95107" lon="7.03278">
        <ele>1257.9666748</ele>
        <time>2021-06-17T12:10:26Z</time>
      </trkpt>
      <trkpt lat="47.95117" lon="7.03286">
        <ele>1256.38085938</ele>
        <time>2021-06-17T12:10:27Z</time>
      </trkpt>
      <trkpt lat="47.95127" lon="7.03295">
        <ele>1255.03442383</ele>
        <time>2021-06-17T12:10:28Z</time>
      </trkpt>
      <trkpt lat="47.95137" lon="7.03305">
        <ele>1255.03442383</ele>
        <time>2021-06-17T12:10:29Z</time>
      </trkpt>
      <trkpt lat="47.95149" lon="7.03316">
        <ele>1253.67321777</ele>
        <time>2021-06-17T12:10:30Z</time>
      </trkpt>
      <trkpt lat="47.9516" lon="7.03326">
        <ele>1253.67321777</ele>
        <time>2021-06-17T12:10:31Z</time>
      </trkpt>
      <trkpt lat="47.95171" lon="7.03334">
        <ele>1251.96057129</ele>
        <time>2021-06-17T12:10:32Z</time>
      </trkpt>
      <trkpt lat="47.95182" lon="7.03345">
        <ele>1251.96057129</ele>
        <time>2021-06-17T12:10:33Z</time>
      </trkpt>
      <trkpt lat="47.95193" lon="7.03353">
        <ele>1250.27416992</ele>
        <time>2021-06-17T12:10:34Z</time>
      </trkpt>
      <trkpt lat="47.95203" lon="7.03358">
        <ele>1250.27416992</ele>
        <time>2021-06-17T12:10:35Z</time>
      </trkpt>
      <trkpt lat="47.95213" lon="7.03365">
        <ele>1248.6027832</ele>
        <time>2021-06-17T12:10:36Z</time>
      </trkpt>
      <trkpt lat="47.95221" lon="7.03372">
        <ele>1248.6027832</ele>
        <time>2021-06-17T12:10:37Z</time>
      </trkpt>
      <trkpt lat="47.95232" lon="7.03377">
        <ele>1246.95300293</ele>
        <time>2021-06-17T12:10:38Z</time>
      </trkpt>
      <trkpt lat="47.95242" lon="7.03382">
        <ele>1246.95300293</ele>
        <time>2021-06-17T12:10:39Z</time>
      </trkpt>
      <trkpt lat="47.95253" lon="7.03384">
        <ele>1245.49780273</ele>
        <time>2021-06-17T12:10:40Z</time>
      </trkpt>
      <trkpt lat="47.95264" lon="7.03385">
        <ele>1245.49780273</ele>
        <time>2021-06-17T12:10:41Z</time>
      </trkpt>
      <trkpt lat="47.95275" lon="7.03386">
        <ele>1244.25317383</ele>
        <time>2021-06-17T12:10:42Z</time>
      </trkpt>
      <trkpt lat="47.95287" lon="7.03385">
        <ele>1244.25317383</ele>
        <time>2021-06-17T12:10:43Z</time>
      </trkpt>
      <trkpt lat="47.95298" lon="7.03383">
        <ele>1243.15942383</ele>
        <time>2021-06-17T12:10:44Z</time>
      </trkpt>
      <trkpt lat="47.95308" lon="7.0338">
        <ele>1243.15942383</ele>
        <time>2021-06-17T12:10:45Z</time>
      </trkpt>
      <trkpt lat="47.95319" lon="7.03377">
        <ele>1243.15942383</ele>
        <time>2021-06-17T12:10:46Z</time>
      </trkpt>
      <trkpt lat="47.95329" lon="7.03376">
        <ele>1241.98352051</ele>
        <time>2021-06-17T12:10:47Z</time>
      </trkpt>
      <trkpt lat="47.9534" lon="7.03373">
        <ele>1241.98352051</ele>
        <time>2021-06-17T12:10:48Z</time>
      </trkpt>
      <trkpt lat="47.95351" lon="7.0337">
        <ele>1241.98352051</ele>
        <time>2021-06-17T12:10:49Z</time>
      </trkpt>
      <trkpt lat="47.9536" lon="7.03367">
        <ele>1241.98352051</ele>
        <time>2021-06-17T12:10:50Z</time>
      </trkpt>
      <trkpt lat="47.95369" lon="7.03365">
        <ele>1241.98352051</ele>
        <time>2021-06-17T12:10:51Z</time>
      </trkpt>
      <trkpt lat="47.95379" lon="7.03362">
        <ele>1240.86206055</ele>
        <time>2021-06-17T12:10:52Z</time>
      </trkpt>
      <trkpt lat="47.95388" lon="7.03359">
        <ele>1240.86206055</ele>
        <time>2021-06-17T12:10:53Z</time>
      </trkpt>
      <trkpt lat="47.954" lon="7.03354">
        <ele>1240.86206055</ele>
        <time>2021-06-17T12:10:55Z</time>
      </trkpt>
      <trkpt lat="47.95416" lon="7.03347">
        <ele>1240.86206055</ele>
        <time>2021-06-17T12:10:57Z</time>
      </trkpt>
      <trkpt lat="47.95431" lon="7.0334">
        <ele>1240.86206055</ele>
        <time>2021-06-17T12:10:59Z</time>
      </trkpt>
      <trkpt lat="47.95445" lon="7.03334">
        <ele>1240.86206055</ele>
        <time>2021-06-17T12:11:01Z</time>
      </trkpt>
      <trkpt lat="47.9546" lon="7.0333">
        <ele>1240.86206055</ele>
        <time>2021-06-17T12:11:03Z</time>
      </trkpt>
      <trkpt lat="47.95473" lon="7.03324">
        <ele>1240.86206055</ele>
        <time>2021-06-17T12:11:05Z</time>
      </trkpt>
      <trkpt lat="47.955" lon="7.0332">
        <ele>1240.86206055</ele>
        <time>2021-06-17T12:11:09Z</time>
      </trkpt>
      <trkpt lat="47.95511" lon="7.0332">
        <ele>1240.86206055</ele>
        <time>2021-06-17T12:11:11Z</time>
      </trkpt>
      <trkpt lat="47.95524" lon="7.03323">
        <ele>1241.05126953</ele>
        <time>2021-06-17T12:11:13Z</time>
      </trkpt>
      <trkpt lat="47.95535" lon="7.0333">
        <ele>1241.05126953</ele>
        <time>2021-06-17T12:11:15Z</time>
      </trkpt>
      <trkpt lat="47.95546" lon="7.03339">
        <ele>1241.05126953</ele>
        <time>2021-06-17T12:11:17Z</time>
      </trkpt>
      <trkpt lat="47.95554" lon="7.03348">
        <ele>1241.05126953</ele>
        <time>2021-06-17T12:11:19Z</time>
      </trkpt>
      <trkpt lat="47.95563" lon="7.03358">
        <ele>1242.15820312</ele>
        <time>2021-06-17T12:11:21Z</time>
      </trkpt>
      <trkpt lat="47.95571" lon="7.03369">
        <ele>1242.15820312</ele>
        <time>2021-06-17T12:11:23Z</time>
      </trkpt>
      <trkpt lat="47.95579" lon="7.03382">
        <ele>1242.15820312</ele>
        <time>2021-06-17T12:11:25Z</time>
      </trkpt>
      <trkpt lat="47.95586" lon="7.03395">
        <ele>1242.15820312</ele>
        <time>2021-06-17T12:11:27Z</time>
      </trkpt>
      <trkpt lat="47.95587" lon="7.03399">
        <ele>1242.96765137</ele>
        <time>2021-06-17T12:11:28Z</time>
      </trkpt>
      <trkpt lat="47.95591" lon="7.03409">
        <ele>1242.96765137</ele>
        <time>2021-06-17T12:11:29Z</time>
      </trkpt>
      <trkpt lat="47.95597" lon="7.03424">
        <ele>1242.96765137</ele>
        <time>2021-06-17T12:11:31Z</time>
      </trkpt>
      <trkpt lat="47.95602" lon="7.03437">
        <ele>1242.96765137</ele>
        <time>2021-06-17T12:11:33Z</time>
      </trkpt>
      <trkpt lat="47.95607" lon="7.03451">
        <ele>1242.96765137</ele>
        <time>2021-06-17T12:11:35Z</time>
      </trkpt>
      <trkpt lat="47.95612" lon="7.03463">
        <ele>1242.96765137</ele>
        <time>2021-06-17T12:11:37Z</time>
      </trkpt>
      <trkpt lat="47.95615" lon="7.03477">
        <ele>1242.96765137</ele>
        <time>2021-06-17T12:11:39Z</time>
      </trkpt>
      <trkpt lat="47.9562" lon="7.0349">
        <ele>1242.96765137</ele>
        <time>2021-06-17T12:11:41Z</time>
      </trkpt>
      <trkpt lat="47.95629" lon="7.03504">
        <ele>1242.96765137</ele>
        <time>2021-06-17T12:11:43Z</time>
      </trkpt>
      <trkpt lat="47.95638" lon="7.03517">
        <ele>1242.69055176</ele>
        <time>2021-06-17T12:11:45Z</time>
      </trkpt>
      <trkpt lat="47.95648" lon="7.03529">
        <ele>1242.69055176</ele>
        <time>2021-06-17T12:11:47Z</time>
      </trkpt>
      <trkpt lat="47.95657" lon="7.0354">
        <ele>1242.69055176</ele>
        <time>2021-06-17T12:11:49Z</time>
      </trkpt>
      <trkpt lat="47.95668" lon="7.03549">
        <ele>1242.69055176</ele>
        <time>2021-06-17T12:11:51Z</time>
      </trkpt>
      <trkpt lat="47.95678" lon="7.03558">
        <ele>1242.69055176</ele>
        <time>2021-06-17T12:11:53Z</time>
      </trkpt>
      <trkpt lat="47.95689" lon="7.03568">
        <ele>1242.69055176</ele>
        <time>2021-06-17T12:11:55Z</time>
      </trkpt>
      <trkpt lat="47.95699" lon="7.03578">
        <ele>1242.69055176</ele>
        <time>2021-06-17T12:11:57Z</time>
      </trkpt>
      <trkpt lat="47.95709" lon="7.03587">
        <ele>1242.69055176</ele>
        <time>2021-06-17T12:11:59Z</time>
      </trkpt>
      <trkpt lat="47.9572" lon="7.03595">
        <ele>1242.69055176</ele>
        <time>2021-06-17T12:12:01Z</time>
      </trkpt>
      <trkpt lat="47.95729" lon="7.03604">
        <ele>1241.54760742</ele>
        <time>2021-06-17T12:12:03Z</time>
      </trkpt>
      <trkpt lat="47.95741" lon="7.03613">
        <ele>1241.54760742</ele>
        <time>2021-06-17T12:12:05Z</time>
      </trkpt>
      <trkpt lat="47.95751" lon="7.03622">
        <ele>1241.54760742</ele>
        <time>2021-06-17T12:12:07Z</time>
      </trkpt>
      <trkpt lat="47.95763" lon="7.0363">
        <ele>1241.54760742</ele>
        <time>2021-06-17T12:12:09Z</time>
      </trkpt>
      <trkpt lat="47.95777" lon="7.0364">
        <ele>1241.54760742</ele>
        <time>2021-06-17T12:12:11Z</time>
      </trkpt>
      <trkpt lat="47.95789" lon="7.03647">
        <ele>1241.54760742</ele>
        <time>2021-06-17T12:12:13Z</time>
      </trkpt>
      <trkpt lat="47.95801" lon="7.03654">
        <ele>1241.54760742</ele>
        <time>2021-06-17T12:12:15Z</time>
      </trkpt>
      <trkpt lat="47.95813" lon="7.03663">
        <ele>1241.54760742</ele>
        <time>2021-06-17T12:12:17Z</time>
      </trkpt>
      <trkpt lat="47.95823" lon="7.03671">
        <ele>1241.54760742</ele>
        <time>2021-06-17T12:12:19Z</time>
      </trkpt>
      <trkpt lat="47.95833" lon="7.03677">
        <ele>1241.54760742</ele>
        <time>2021-06-17T12:12:21Z</time>
      </trkpt>
      <trkpt lat="47.95845" lon="7.03685">
        <ele>1241.54760742</ele>
        <time>2021-06-17T12:12:23Z</time>
      </trkpt>
      <trkpt lat="47.95855" lon="7.03692">
        <ele>1241.54760742</ele>
        <time>2021-06-17T12:12:25Z</time>
      </trkpt>
      <trkpt lat="47.95867" lon="7.03699">
        <ele>1241.54760742</ele>
        <time>2021-06-17T12:12:27Z</time>
      </trkpt>
      <trkpt lat="47.9587" lon="7.03701">
        <ele>1241.24353027</ele>
        <time>2021-06-17T12:12:28Z</time>
      </trkpt>
      <trkpt lat="47.95879" lon="7.03705">
        <ele>1241.24353027</ele>
        <time>2021-06-17T12:12:29Z</time>
      </trkpt>
      <trkpt lat="47.95891" lon="7.03711">
        <ele>1241.24353027</ele>
        <time>2021-06-17T12:12:31Z</time>
      </trkpt>
      <trkpt lat="47.95902" lon="7.03716">
        <ele>1241.24353027</ele>
        <time>2021-06-17T12:12:33Z</time>
      </trkpt>
      <trkpt lat="47.95915" lon="7.03718">
        <ele>1241.24353027</ele>
        <time>2021-06-17T12:12:35Z</time>
      </trkpt>
      <trkpt lat="47.95928" lon="7.03721">
        <ele>1241.24353027</ele>
        <time>2021-06-17T12:12:37Z</time>
      </trkpt>
      <trkpt lat="47.95941" lon="7.03724">
        <ele>1241.24353027</ele>
        <time>2021-06-17T12:12:39Z</time>
      </trkpt>
      <trkpt lat="47.95954" lon="7.0373">
        <ele>1241.24353027</ele>
        <time>2021-06-17T12:12:41Z</time>
      </trkpt>
      <trkpt lat="47.95966" lon="7.03732">
        <ele>1241.24353027</ele>
        <time>2021-06-17T12:12:43Z</time>
      </trkpt>
      <trkpt lat="47.95977" lon="7.03733">
        <ele>1241.24353027</ele>
        <time>2021-06-17T12:12:45Z</time>
      </trkpt>
      <trkpt lat="47.95989" lon="7.03735">
        <ele>1241.24353027</ele>
        <time>2021-06-17T12:12:48Z</time>
      </trkpt>
      <trkpt lat="47.96002" lon="7.03737">
        <ele>1241.79040527</ele>
        <time>2021-06-17T12:12:51Z</time>
      </trkpt>
      <trkpt lat="47.96014" lon="7.03739">
        <ele>1241.79040527</ele>
        <time>2021-06-17T12:12:54Z</time>
      </trkpt>
      <trkpt lat="47.96024" lon="7.03744">
        <ele>1243.56005859</ele>
        <time>2021-06-17T12:12:56Z</time>
      </trkpt>
      <trkpt lat="47.96034" lon="7.03746">
        <ele>1243.56005859</ele>
        <time>2021-06-17T12:12:58Z</time>
      </trkpt>
      <trkpt lat="47.96043" lon="7.03748">
        <ele>1244.8815918</ele>
        <time>2021-06-17T12:13:00Z</time>
      </trkpt>
      <trkpt lat="47.96052" lon="7.03751">
        <ele>1244.8815918</ele>
        <time>2021-06-17T12:13:02Z</time>
      </trkpt>
      <trkpt lat="47.96063" lon="7.03754">
        <ele>1245.95068359</ele>
        <time>2021-06-17T12:13:05Z</time>
      </trkpt>
      <trkpt lat="47.96072" lon="7.03757">
        <ele>1245.95068359</ele>
        <time>2021-06-17T12:13:08Z</time>
      </trkpt>
      <trkpt lat="47.96082" lon="7.03756">
        <ele>1245.95068359</ele>
        <time>2021-06-17T12:13:11Z</time>
      </trkpt>
      <trkpt lat="47.96092" lon="7.03753">
        <ele>1247.04760742</ele>
        <time>2021-06-17T12:13:14Z</time>
      </trkpt>
      <trkpt lat="47.96103" lon="7.03754">
        <ele>1247.04760742</ele>
        <time>2021-06-17T12:13:17Z</time>
      </trkpt>
      <trkpt lat="47.96115" lon="7.03753">
        <ele>1247.04760742</ele>
        <time>2021-06-17T12:13:20Z</time>
      </trkpt>
      <trkpt lat="47.96127" lon="7.03751">
        <ele>1246.93847656</ele>
        <time>2021-06-17T12:13:22Z</time>
      </trkpt>
      <trkpt lat="47.96138" lon="7.03748">
        <ele>1246.93847656</ele>
        <time>2021-06-17T12:13:24Z</time>
      </trkpt>
      <trkpt lat="47.96151" lon="7.03745">
        <ele>1246.93847656</ele>
        <time>2021-06-17T12:13:26Z</time>
      </trkpt>
      <trkpt lat="47.9616" lon="7.03742">
        <ele>1245.20996094</ele>
        <time>2021-06-17T12:13:28Z</time>
      </trkpt>
      <trkpt lat="47.96168" lon="7.0374">
        <ele>1245.20996094</ele>
        <time>2021-06-17T12:13:29Z</time>
      </trkpt>
      <trkpt lat="47.96179" lon="7.03736">
        <ele>1245.20996094</ele>
        <time>2021-06-17T12:13:31Z</time>
      </trkpt>
      <trkpt lat="47.96194" lon="7.03733">
        <ele>1245.20996094</ele>
        <time>2021-06-17T12:13:33Z</time>
      </trkpt>
      <trkpt lat="47.9621" lon="7.03728">
        <ele>1245.20996094</ele>
        <time>2021-06-17T12:13:35Z</time>
      </trkpt>
      <trkpt lat="47.96227" lon="7.03726">
        <ele>1244.65124512</ele>
        <time>2021-06-17T12:13:37Z</time>
      </trkpt>
      <trkpt lat="47.96243" lon="7.03724">
        <ele>1244.65124512</ele>
        <time>2021-06-17T12:13:39Z</time>
      </trkpt>
      <trkpt lat="47.96259" lon="7.0372">
        <ele>1243.47497559</ele>
        <time>2021-06-17T12:13:41Z</time>
      </trkpt>
      <trkpt lat="47.96276" lon="7.03722">
        <ele>1243.47497559</ele>
        <time>2021-06-17T12:13:43Z</time>
      </trkpt>
      <trkpt lat="47.96293" lon="7.03725">
        <ele>1243.47497559</ele>
        <time>2021-06-17T12:13:45Z</time>
      </trkpt>
      <trkpt lat="47.96308" lon="7.03723">
        <ele>1242.36413574</ele>
        <time>2021-06-17T12:13:46Z</time>
      </trkpt>
      <trkpt lat="47.96317" lon="7.03719">
        <ele>1242.36413574</ele>
        <time>2021-06-17T12:13:47Z</time>
      </trkpt>
      <trkpt lat="47.96331" lon="7.03696">
        <ele>1240.7154541</ele>
        <time>2021-06-17T12:13:49Z</time>
      </trkpt>
      <trkpt lat="47.96336" lon="7.0368">
        <ele>1239.24145508</ele>
        <time>2021-06-17T12:13:50Z</time>
      </trkpt>
      <trkpt lat="47.96339" lon="7.03664">
        <ele>1239.24145508</ele>
        <time>2021-06-17T12:13:51Z</time>
      </trkpt>
      <trkpt lat="47.96342" lon="7.03647">
        <ele>1237.51257324</ele>
        <time>2021-06-17T12:13:52Z</time>
      </trkpt>
      <trkpt lat="47.96346" lon="7.03632">
        <ele>1237.51257324</ele>
        <time>2021-06-17T12:13:53Z</time>
      </trkpt>
      <trkpt lat="47.96352" lon="7.03616">
        <ele>1235.81347656</ele>
        <time>2021-06-17T12:13:54Z</time>
      </trkpt>
      <trkpt lat="47.96359" lon="7.03601">
        <ele>1234.28015137</ele>
        <time>2021-06-17T12:13:55Z</time>
      </trkpt>
      <trkpt lat="47.96367" lon="7.03588">
        <ele>1233.27038574</ele>
        <time>2021-06-17T12:13:56Z</time>
      </trkpt>
      <trkpt lat="47.96378" lon="7.03573">
        <ele>1232.21704102</ele>
        <time>2021-06-17T12:13:57Z</time>
      </trkpt>
      <trkpt lat="47.96388" lon="7.03558">
        <ele>1231.09460449</ele>
        <time>2021-06-17T12:13:58Z</time>
      </trkpt>
      <trkpt lat="47.96399" lon="7.03544">
        <ele>1229.88562012</ele>
        <time>2021-06-17T12:13:59Z</time>
      </trkpt>
      <trkpt lat="47.9641" lon="7.03529">
        <ele>1228.64172363</ele>
        <time>2021-06-17T12:14:00Z</time>
      </trkpt>
      <trkpt lat="47.96421" lon="7.03514">
        <ele>1227.31860352</ele>
        <time>2021-06-17T12:14:01Z</time>
      </trkpt>
      <trkpt lat="47.96432" lon="7.035">
        <ele>1225.94128418</ele>
        <time>2021-06-17T12:14:02Z</time>
      </trkpt>
      <trkpt lat="47.96442" lon="7.03486">
        <ele>1224.53515625</ele>
        <time>2021-06-17T12:14:03Z</time>
      </trkpt>
      <trkpt lat="47.96453" lon="7.03471">
        <ele>1223.0489502</ele>
        <time>2021-06-17T12:14:04Z</time>
      </trkpt>
      <trkpt lat="47.96465" lon="7.0346">
        <ele>1221.5826416</ele>
        <time>2021-06-17T12:14:05Z</time>
      </trkpt>
      <trkpt lat="47.96478" lon="7.03449">
        <ele>1220.08435059</ele>
        <time>2021-06-17T12:14:06Z</time>
      </trkpt>
      <trkpt lat="47.96491" lon="7.03442">
        <ele>1218.66833496</ele>
        <time>2021-06-17T12:14:07Z</time>
      </trkpt>
      <trkpt lat="47.96505" lon="7.03432">
        <ele>1217.37316895</ele>
        <time>2021-06-17T12:14:08Z</time>
      </trkpt>
      <trkpt lat="47.9652" lon="7.03423">
        <ele>1216.06054688</ele>
        <time>2021-06-17T12:14:09Z</time>
      </trkpt>
      <trkpt lat="47.96534" lon="7.03415">
        <ele>1214.55004883</ele>
        <time>2021-06-17T12:14:10Z</time>
      </trkpt>
      <trkpt lat="47.96549" lon="7.03409">
        <ele>1213.02734375</ele>
        <time>2021-06-17T12:14:11Z</time>
      </trkpt>
      <trkpt lat="47.96563" lon="7.03403">
        <ele>1211.67956543</ele>
        <time>2021-06-17T12:14:12Z</time>
      </trkpt>
      <trkpt lat="47.96578" lon="7.03396">
        <ele>1210.33374023</ele>
        <time>2021-06-17T12:14:13Z</time>
      </trkpt>
      <trkpt lat="47.96594" lon="7.03389">
        <ele>1208.91577148</ele>
        <time>2021-06-17T12:14:14Z</time>
      </trkpt>
      <trkpt lat="47.96608" lon="7.03383">
        <ele>1207.52453613</ele>
        <time>2021-06-17T12:14:15Z</time>
      </trkpt>
      <trkpt lat="47.96623" lon="7.03379">
        <ele>1206.2545166</ele>
        <time>2021-06-17T12:14:16Z</time>
      </trkpt>
      <trkpt lat="47.96637" lon="7.03375">
        <ele>1204.99084473</ele>
        <time>2021-06-17T12:14:17Z</time>
      </trkpt>
      <trkpt lat="47.96665" lon="7.03372">
        <ele>1202.52722168</ele>
        <time>2021-06-17T12:14:19Z</time>
      </trkpt>
      <trkpt lat="47.96679" lon="7.03374">
        <ele>1201.27648926</ele>
        <time>2021-06-17T12:14:20Z</time>
      </trkpt>
      <trkpt lat="47.96693" lon="7.03377">
        <ele>1200.08227539</ele>
        <time>2021-06-17T12:14:21Z</time>
      </trkpt>
      <trkpt lat="47.96707" lon="7.03381">
        <ele>1198.84936523</ele>
        <time>2021-06-17T12:14:22Z</time>
      </trkpt>
      <trkpt lat="47.9672" lon="7.03386">
        <ele>1197.63684082</ele>
        <time>2021-06-17T12:14:23Z</time>
      </trkpt>
      <trkpt lat="47.96732" lon="7.03393">
        <ele>1196.46411133</ele>
        <time>2021-06-17T12:14:24Z</time>
      </trkpt>
      <trkpt lat="47.96744" lon="7.03403">
        <ele>1195.33666992</ele>
        <time>2021-06-17T12:14:25Z</time>
      </trkpt>
      <trkpt lat="47.96754" lon="7.03415">
        <ele>1194.16015625</ele>
        <time>2021-06-17T12:14:26Z</time>
      </trkpt>
      <trkpt lat="47.96761" lon="7.0343">
        <ele>1192.99853516</ele>
        <time>2021-06-17T12:14:27Z</time>
      </trkpt>
      <trkpt lat="47.96768" lon="7.03448">
        <ele>1191.72290039</ele>
        <time>2021-06-17T12:14:28Z</time>
      </trkpt>
      <trkpt lat="47.96776" lon="7.03465">
        <ele>1190.39562988</ele>
        <time>2021-06-17T12:14:29Z</time>
      </trkpt>
      <trkpt lat="47.96782" lon="7.03484">
        <ele>1189.19592285</ele>
        <time>2021-06-17T12:14:30Z</time>
      </trkpt>
      <trkpt lat="47.96789" lon="7.03505">
        <ele>1187.98413086</ele>
        <time>2021-06-17T12:14:31Z</time>
      </trkpt>
      <trkpt lat="47.96795" lon="7.03527">
        <ele>1186.69335938</ele>
        <time>2021-06-17T12:14:32Z</time>
      </trkpt>
      <trkpt lat="47.968" lon="7.03547">
        <ele>1185.49084473</ele>
        <time>2021-06-17T12:14:33Z</time>
      </trkpt>
      <trkpt lat="47.96805" lon="7.03568">
        <ele>1184.22521973</ele>
        <time>2021-06-17T12:14:34Z</time>
      </trkpt>
      <trkpt lat="47.96807" lon="7.03588">
        <ele>1183.03137207</ele>
        <time>2021-06-17T12:14:35Z</time>
      </trkpt>
      <trkpt lat="47.96811" lon="7.03608">
        <ele>1181.89587402</ele>
        <time>2021-06-17T12:14:36Z</time>
      </trkpt>
      <trkpt lat="47.96814" lon="7.03629">
        <ele>1180.67236328</ele>
        <time>2021-06-17T12:14:37Z</time>
      </trkpt>
      <trkpt lat="47.96815" lon="7.03653">
        <ele>1179.51855469</ele>
        <time>2021-06-17T12:14:38Z</time>
      </trkpt>
      <trkpt lat="47.96816" lon="7.03675">
        <ele>1178.35400391</ele>
        <time>2021-06-17T12:14:39Z</time>
      </trkpt>
      <trkpt lat="47.96817" lon="7.03699">
        <ele>1177.29675293</ele>
        <time>2021-06-17T12:14:40Z</time>
      </trkpt>
      <trkpt lat="47.96817" lon="7.03722">
        <ele>1177.29675293</ele>
        <time>2021-06-17T12:14:41Z</time>
      </trkpt>
      <trkpt lat="47.96817" lon="7.03744">
        <ele>1175.92529297</ele>
        <time>2021-06-17T12:14:42Z</time>
      </trkpt>
      <trkpt lat="47.96816" lon="7.03767">
        <ele>1175.92529297</ele>
        <time>2021-06-17T12:14:43Z</time>
      </trkpt>
      <trkpt lat="47.96815" lon="7.03789">
        <ele>1174.65283203</ele>
        <time>2021-06-17T12:14:44Z</time>
      </trkpt>
      <trkpt lat="47.96812" lon="7.03809">
        <ele>1174.65283203</ele>
        <time>2021-06-17T12:14:45Z</time>
      </trkpt>
      <trkpt lat="47.9681" lon="7.03829">
        <ele>1174.65283203</ele>
        <time>2021-06-17T12:14:46Z</time>
      </trkpt>
      <trkpt lat="47.96808" lon="7.03848">
        <ele>1174.65283203</ele>
        <time>2021-06-17T12:14:47Z</time>
      </trkpt>
      <trkpt lat="47.96807" lon="7.03884">
        <ele>1174.65283203</ele>
        <time>2021-06-17T12:14:49Z</time>
      </trkpt>
      <trkpt lat="47.96808" lon="7.03901">
        <ele>1174.65283203</ele>
        <time>2021-06-17T12:14:50Z</time>
      </trkpt>
      <trkpt lat="47.9681" lon="7.03917">
        <ele>1174.65283203</ele>
        <time>2021-06-17T12:14:51Z</time>
      </trkpt>
      <trkpt lat="47.96814" lon="7.03933">
        <ele>1174.65283203</ele>
        <time>2021-06-17T12:14:52Z</time>
      </trkpt>
      <trkpt lat="47.96817" lon="7.03946">
        <ele>1174.65283203</ele>
        <time>2021-06-17T12:14:53Z</time>
      </trkpt>
      <trkpt lat="47.96821" lon="7.0396">
        <ele>1174.65283203</ele>
        <time>2021-06-17T12:14:55Z</time>
      </trkpt>
      <trkpt lat="47.96828" lon="7.03982">
        <ele>1174.65283203</ele>
        <time>2021-06-17T12:14:57Z</time>
      </trkpt>
      <trkpt lat="47.96835" lon="7.04004">
        <ele>1174.65283203</ele>
        <time>2021-06-17T12:14:59Z</time>
      </trkpt>
      <trkpt lat="47.96843" lon="7.04023">
        <ele>1174.65283203</ele>
        <time>2021-06-17T12:15:01Z</time>
      </trkpt>
      <trkpt lat="47.96852" lon="7.04039">
        <ele>1174.65283203</ele>
        <time>2021-06-17T12:15:03Z</time>
      </trkpt>
      <trkpt lat="47.96861" lon="7.0405">
        <ele>1174.2520752</ele>
        <time>2021-06-17T12:15:05Z</time>
      </trkpt>
      <trkpt lat="47.96869" lon="7.04062">
        <ele>1174.2520752</ele>
        <time>2021-06-17T12:15:07Z</time>
      </trkpt>
      <trkpt lat="47.96875" lon="7.04073">
        <ele>1176.13354492</ele>
        <time>2021-06-17T12:15:09Z</time>
      </trkpt>
      <trkpt lat="47.96883" lon="7.04083">
        <ele>1176.13354492</ele>
        <time>2021-06-17T12:15:11Z</time>
      </trkpt>
      <trkpt lat="47.96891" lon="7.04093">
        <ele>1177.20483398</ele>
        <time>2021-06-17T12:15:14Z</time>
      </trkpt>
      <trkpt lat="47.96902" lon="7.04105">
        <ele>1178.49291992</ele>
        <time>2021-06-17T12:15:17Z</time>
      </trkpt>
      <trkpt lat="47.96909" lon="7.04118">
        <ele>1180.30249023</ele>
        <time>2021-06-17T12:15:49Z</time>
      </trkpt>
      <trkpt lat="47.96909" lon="7.04117">
        <ele>1180.30249023</ele>
        <time>2021-06-17T12:16:02Z</time>
      </trkpt>
      <trkpt lat="47.9692" lon="7.04135">
        <ele>1180.3560791</ele>
        <time>2021-06-17T12:16:06Z</time>
      </trkpt>
      <trkpt lat="47.96927" lon="7.04146">
        <ele>1180.3560791</ele>
        <time>2021-06-17T12:16:09Z</time>
      </trkpt>
      <trkpt lat="47.96935" lon="7.04158">
        <ele>1180.3560791</ele>
        <time>2021-06-17T12:16:11Z</time>
      </trkpt>
      <trkpt lat="47.96945" lon="7.04174">
        <ele>1182.23828125</ele>
        <time>2021-06-17T12:16:13Z</time>
      </trkpt>
      <trkpt lat="47.96952" lon="7.04188">
        <ele>1182.23828125</ele>
        <time>2021-06-17T12:16:15Z</time>
      </trkpt>
      <trkpt lat="47.96962" lon="7.04211">
        <ele>1184.51672363</ele>
        <time>2021-06-17T12:16:21Z</time>
      </trkpt>
      <trkpt lat="47.96963" lon="7.04225">
        <ele>1184.51672363</ele>
        <time>2021-06-17T12:16:25Z</time>
      </trkpt>
      <trkpt lat="47.9696" lon="7.0424">
        <ele>1185.23510742</ele>
        <time>2021-06-17T12:16:28Z</time>
      </trkpt>
      <trkpt lat="47.96958" lon="7.04255">
        <ele>1185.23510742</ele>
        <time>2021-06-17T12:16:30Z</time>
      </trkpt>
      <trkpt lat="47.96953" lon="7.04271">
        <ele>1185.23510742</ele>
        <time>2021-06-17T12:16:32Z</time>
      </trkpt>
      <trkpt lat="47.96948" lon="7.04283">
        <ele>1185.23510742</ele>
        <time>2021-06-17T12:16:34Z</time>
      </trkpt>
      <trkpt lat="47.96943" lon="7.04297">
        <ele>1185.2130127</ele>
        <time>2021-06-17T12:16:36Z</time>
      </trkpt>
      <trkpt lat="47.9694" lon="7.04314">
        <ele>1185.2130127</ele>
        <time>2021-06-17T12:16:38Z</time>
      </trkpt>
      <trkpt lat="47.96935" lon="7.04333">
        <ele>1183.42175293</ele>
        <time>2021-06-17T12:16:40Z</time>
      </trkpt>
      <trkpt lat="47.96932" lon="7.04357">
        <ele>1182.14990234</ele>
        <time>2021-06-17T12:16:42Z</time>
      </trkpt>
      <trkpt lat="47.96935" lon="7.04377">
        <ele>1180.92089844</ele>
        <time>2021-06-17T12:16:43Z</time>
      </trkpt>
      <trkpt lat="47.96939" lon="7.04393">
        <ele>1180.92089844</ele>
        <time>2021-06-17T12:16:44Z</time>
      </trkpt>
      <trkpt lat="47.96945" lon="7.04405">
        <ele>1179.65722656</ele>
        <time>2021-06-17T12:16:45Z</time>
      </trkpt>
      <trkpt lat="47.96954" lon="7.04417">
        <ele>1179.65722656</ele>
        <time>2021-06-17T12:16:46Z</time>
      </trkpt>
      <trkpt lat="47.96962" lon="7.04426">
        <ele>1178.0847168</ele>
        <time>2021-06-17T12:16:47Z</time>
      </trkpt>
      <trkpt lat="47.96973" lon="7.04436">
        <ele>1178.0847168</ele>
        <time>2021-06-17T12:16:48Z</time>
      </trkpt>
      <trkpt lat="47.96981" lon="7.04445">
        <ele>1176.33129883</ele>
        <time>2021-06-17T12:16:49Z</time>
      </trkpt>
      <trkpt lat="47.96992" lon="7.04455">
        <ele>1176.33129883</ele>
        <time>2021-06-17T12:16:50Z</time>
      </trkpt>
      <trkpt lat="47.97002" lon="7.04463">
        <ele>1174.35742188</ele>
        <time>2021-06-17T12:16:51Z</time>
      </trkpt>
      <trkpt lat="47.97014" lon="7.04469">
        <ele>1172.83056641</ele>
        <time>2021-06-17T12:16:52Z</time>
      </trkpt>
      <trkpt lat="47.97025" lon="7.04474">
        <ele>1171.74572754</ele>
        <time>2021-06-17T12:16:53Z</time>
      </trkpt>
      <trkpt lat="47.97038" lon="7.04481">
        <ele>1170.54724121</ele>
        <time>2021-06-17T12:16:54Z</time>
      </trkpt>
      <trkpt lat="47.97054" lon="7.04487">
        <ele>1169.31164551</ele>
        <time>2021-06-17T12:16:55Z</time>
      </trkpt>
      <trkpt lat="47.97072" lon="7.04493">
        <ele>1167.99853516</ele>
        <time>2021-06-17T12:16:56Z</time>
      </trkpt>
      <trkpt lat="47.9709" lon="7.045">
        <ele>1166.69506836</ele>
        <time>2021-06-17T12:16:57Z</time>
      </trkpt>
      <trkpt lat="47.97107" lon="7.04507">
        <ele>1165.30395508</ele>
        <time>2021-06-17T12:16:58Z</time>
      </trkpt>
      <trkpt lat="47.97122" lon="7.04515">
        <ele>1163.91137695</ele>
        <time>2021-06-17T12:16:59Z</time>
      </trkpt>
      <trkpt lat="47.97136" lon="7.04526">
        <ele>1162.57250977</ele>
        <time>2021-06-17T12:17:00Z</time>
      </trkpt>
      <trkpt lat="47.97149" lon="7.04536">
        <ele>1161.1583252</ele>
        <time>2021-06-17T12:17:01Z</time>
      </trkpt>
      <trkpt lat="47.97166" lon="7.04544">
        <ele>1159.82983398</ele>
        <time>2021-06-17T12:17:02Z</time>
      </trkpt>
      <trkpt lat="47.97181" lon="7.04556">
        <ele>1158.35522461</ele>
        <time>2021-06-17T12:17:03Z</time>
      </trkpt>
      <trkpt lat="47.97197" lon="7.04565">
        <ele>1156.9017334</ele>
        <time>2021-06-17T12:17:04Z</time>
      </trkpt>
      <trkpt lat="47.97211" lon="7.04575">
        <ele>1155.38537598</ele>
        <time>2021-06-17T12:17:05Z</time>
      </trkpt>
      <trkpt lat="47.97227" lon="7.04584">
        <ele>1153.78991699</ele>
        <time>2021-06-17T12:17:06Z</time>
      </trkpt>
      <trkpt lat="47.97241" lon="7.04593">
        <ele>1152.13122559</ele>
        <time>2021-06-17T12:17:07Z</time>
      </trkpt>
      <trkpt lat="47.97253" lon="7.04598">
        <ele>1150.35522461</ele>
        <time>2021-06-17T12:17:08Z</time>
      </trkpt>
      <trkpt lat="47.97266" lon="7.04606">
        <ele>1148.62402344</ele>
        <time>2021-06-17T12:17:09Z</time>
      </trkpt>
      <trkpt lat="47.97279" lon="7.04613">
        <ele>1146.92443848</ele>
        <time>2021-06-17T12:17:10Z</time>
      </trkpt>
      <trkpt lat="47.97294" lon="7.0462">
        <ele>1145.23925781</ele>
        <time>2021-06-17T12:17:11Z</time>
      </trkpt>
      <trkpt lat="47.97309" lon="7.04629">
        <ele>1143.68310547</ele>
        <time>2021-06-17T12:17:12Z</time>
      </trkpt>
      <trkpt lat="47.97323" lon="7.04636">
        <ele>1142.07775879</ele>
        <time>2021-06-17T12:17:13Z</time>
      </trkpt>
      <trkpt lat="47.97337" lon="7.04641">
        <ele>1140.37768555</ele>
        <time>2021-06-17T12:17:14Z</time>
      </trkpt>
      <trkpt lat="47.97353" lon="7.04648">
        <ele>1138.75317383</ele>
        <time>2021-06-17T12:17:15Z</time>
      </trkpt>
      <trkpt lat="47.97368" lon="7.04653">
        <ele>1137.11193848</ele>
        <time>2021-06-17T12:17:16Z</time>
      </trkpt>
      <trkpt lat="47.97385" lon="7.04656">
        <ele>1135.48913574</ele>
        <time>2021-06-17T12:17:17Z</time>
      </trkpt>
      <trkpt lat="47.97402" lon="7.04658">
        <ele>1133.74572754</ele>
        <time>2021-06-17T12:17:18Z</time>
      </trkpt>
      <trkpt lat="47.97415" lon="7.0466">
        <ele>1131.96911621</ele>
        <time>2021-06-17T12:17:19Z</time>
      </trkpt>
      <trkpt lat="47.97427" lon="7.04668">
        <ele>1130.25097656</ele>
        <time>2021-06-17T12:17:20Z</time>
      </trkpt>
      <trkpt lat="47.97441" lon="7.04679">
        <ele>1128.52600098</ele>
        <time>2021-06-17T12:17:21Z</time>
      </trkpt>
      <trkpt lat="47.97455" lon="7.04691">
        <ele>1126.76647949</ele>
        <time>2021-06-17T12:17:22Z</time>
      </trkpt>
      <trkpt lat="47.9747" lon="7.04706">
        <ele>1124.9185791</ele>
        <time>2021-06-17T12:17:23Z</time>
      </trkpt>
      <trkpt lat="47.97487" lon="7.04719">
        <ele>1123.04138184</ele>
        <time>2021-06-17T12:17:24Z</time>
      </trkpt>
      <trkpt lat="47.97501" lon="7.0473">
        <ele>1121.2322998</ele>
        <time>2021-06-17T12:17:25Z</time>
      </trkpt>
      <trkpt lat="47.97514" lon="7.04743">
        <ele>1119.37145996</ele>
        <time>2021-06-17T12:17:26Z</time>
      </trkpt>
      <trkpt lat="47.97542" lon="7.04774">
        <ele>1115.64855957</ele>
        <time>2021-06-17T12:17:28Z</time>
      </trkpt>
      <trkpt lat="47.97556" lon="7.0479">
        <ele>1113.83239746</ele>
        <time>2021-06-17T12:17:29Z</time>
      </trkpt>
      <trkpt lat="47.97569" lon="7.04809">
        <ele>1112.13476562</ele>
        <time>2021-06-17T12:17:30Z</time>
      </trkpt>
      <trkpt lat="47.9758" lon="7.04828">
        <ele>1110.51086426</ele>
        <time>2021-06-17T12:17:31Z</time>
      </trkpt>
      <trkpt lat="47.97591" lon="7.0485">
        <ele>1108.82226562</ele>
        <time>2021-06-17T12:17:32Z</time>
      </trkpt>
      <trkpt lat="47.97602" lon="7.04869">
        <ele>1107.12268066</ele>
        <time>2021-06-17T12:17:33Z</time>
      </trkpt>
      <trkpt lat="47.97611" lon="7.04891">
        <ele>1105.30297852</ele>
        <time>2021-06-17T12:17:34Z</time>
      </trkpt>
      <trkpt lat="47.97619" lon="7.04912">
        <ele>1103.60351562</ele>
        <time>2021-06-17T12:17:35Z</time>
      </trkpt>
      <trkpt lat="47.97627" lon="7.0493">
        <ele>1101.89135742</ele>
        <time>2021-06-17T12:17:36Z</time>
      </trkpt>
      <trkpt lat="47.97633" lon="7.04948">
        <ele>1100.18457031</ele>
        <time>2021-06-17T12:17:37Z</time>
      </trkpt>
      <trkpt lat="47.97639" lon="7.04966">
        <ele>1098.4942627</ele>
        <time>2021-06-17T12:17:38Z</time>
      </trkpt>
      <trkpt lat="47.97643" lon="7.04986">
        <ele>1096.86474609</ele>
        <time>2021-06-17T12:17:39Z</time>
      </trkpt>
      <trkpt lat="47.97648" lon="7.05006">
        <ele>1095.17883301</ele>
        <time>2021-06-17T12:17:40Z</time>
      </trkpt>
      <trkpt lat="47.97649" lon="7.05025">
        <ele>1093.75170898</ele>
        <time>2021-06-17T12:17:41Z</time>
      </trkpt>
      <trkpt lat="47.9765" lon="7.05046">
        <ele>1090.95996094</ele>
        <time>2021-06-17T12:17:43Z</time>
      </trkpt>
      <trkpt lat="47.97652" lon="7.05073">
        <ele>1089.56860352</ele>
        <time>2021-06-17T12:17:44Z</time>
      </trkpt>
      <trkpt lat="47.97654" lon="7.05091">
        <ele>1088.2109375</ele>
        <time>2021-06-17T12:17:45Z</time>
      </trkpt>
      <trkpt lat="47.97656" lon="7.05108">
        <ele>1086.88647461</ele>
        <time>2021-06-17T12:17:46Z</time>
      </trkpt>
      <trkpt lat="47.97659" lon="7.05123">
        <ele>1085.62133789</ele>
        <time>2021-06-17T12:17:47Z</time>
      </trkpt>
      <trkpt lat="47.97661" lon="7.05137">
        <ele>1084.37927246</ele>
        <time>2021-06-17T12:17:48Z</time>
      </trkpt>
      <trkpt lat="47.97664" lon="7.05151">
        <ele>1083.16137695</ele>
        <time>2021-06-17T12:17:49Z</time>
      </trkpt>
      <trkpt lat="47.97669" lon="7.05164">
        <ele>1081.90686035</ele>
        <time>2021-06-17T12:17:50Z</time>
      </trkpt>
      <trkpt lat="47.97675" lon="7.05177">
        <ele>1080.7199707</ele>
        <time>2021-06-17T12:17:51Z</time>
      </trkpt>
      <trkpt lat="47.97682" lon="7.05194">
        <ele>1079.50866699</ele>
        <time>2021-06-17T12:17:52Z</time>
      </trkpt>
      <trkpt lat="47.97691" lon="7.05208">
        <ele>1078.23779297</ele>
        <time>2021-06-17T12:17:53Z</time>
      </trkpt>
      <trkpt lat="47.97699" lon="7.05223">
        <ele>1077.00219727</ele>
        <time>2021-06-17T12:17:54Z</time>
      </trkpt>
      <trkpt lat="47.97708" lon="7.05237">
        <ele>1075.69921875</ele>
        <time>2021-06-17T12:17:55Z</time>
      </trkpt>
      <trkpt lat="47.97716" lon="7.05251">
        <ele>1074.37365723</ele>
        <time>2021-06-17T12:17:56Z</time>
      </trkpt>
      <trkpt lat="47.97725" lon="7.05264">
        <ele>1073.08776855</ele>
        <time>2021-06-17T12:17:57Z</time>
      </trkpt>
      <trkpt lat="47.97736" lon="7.05278">
        <ele>1071.7244873</ele>
        <time>2021-06-17T12:17:58Z</time>
      </trkpt>
      <trkpt lat="47.97746" lon="7.05289">
        <ele>1070.33239746</ele>
        <time>2021-06-17T12:17:59Z</time>
      </trkpt>
      <trkpt lat="47.97759" lon="7.05302">
        <ele>1068.82995605</ele>
        <time>2021-06-17T12:18:00Z</time>
      </trkpt>
      <trkpt lat="47.97768" lon="7.05313">
        <ele>1067.25866699</ele>
        <time>2021-06-17T12:18:01Z</time>
      </trkpt>
      <trkpt lat="47.97778" lon="7.05323">
        <ele>1065.69995117</ele>
        <time>2021-06-17T12:18:02Z</time>
      </trkpt>
      <trkpt lat="47.97788" lon="7.05327">
        <ele>1064.16918945</ele>
        <time>2021-06-17T12:18:03Z</time>
      </trkpt>
      <trkpt lat="47.978" lon="7.05328">
        <ele>1062.61315918</ele>
        <time>2021-06-17T12:18:04Z</time>
      </trkpt>
      <trkpt lat="47.97813" lon="7.05332">
        <ele>1061.13757324</ele>
        <time>2021-06-17T12:18:05Z</time>
      </trkpt>
      <trkpt lat="47.97829" lon="7.05337">
        <ele>1059.67333984</ele>
        <time>2021-06-17T12:18:06Z</time>
      </trkpt>
      <trkpt lat="47.97842" lon="7.05338">
        <ele>1058.28063965</ele>
        <time>2021-06-17T12:18:07Z</time>
      </trkpt>
      <trkpt lat="47.97855" lon="7.05337">
        <ele>1056.94665527</ele>
        <time>2021-06-17T12:18:08Z</time>
      </trkpt>
      <trkpt lat="47.97866" lon="7.05334">
        <ele>1055.7565918</ele>
        <time>2021-06-17T12:18:09Z</time>
      </trkpt>
      <trkpt lat="47.97879" lon="7.05328">
        <ele>1054.5255127</ele>
        <time>2021-06-17T12:18:10Z</time>
      </trkpt>
      <trkpt lat="47.97892" lon="7.0532">
        <ele>1053.32897949</ele>
        <time>2021-06-17T12:18:11Z</time>
      </trkpt>
      <trkpt lat="47.97907" lon="7.0531">
        <ele>1052.11767578</ele>
        <time>2021-06-17T12:18:12Z</time>
      </trkpt>
      <trkpt lat="47.97922" lon="7.05297">
        <ele>1050.8963623</ele>
        <time>2021-06-17T12:18:13Z</time>
      </trkpt>
      <trkpt lat="47.97937" lon="7.05282">
        <ele>1049.6072998</ele>
        <time>2021-06-17T12:18:14Z</time>
      </trkpt>
      <trkpt lat="47.97949" lon="7.05267">
        <ele>1048.32519531</ele>
        <time>2021-06-17T12:18:15Z</time>
      </trkpt>
      <trkpt lat="47.97956" lon="7.05248">
        <ele>1047.09265137</ele>
        <time>2021-06-17T12:18:16Z</time>
      </trkpt>
      <trkpt lat="47.97958" lon="7.05223">
        <ele>1045.95825195</ele>
        <time>2021-06-17T12:18:17Z</time>
      </trkpt>
      <trkpt lat="47.97965" lon="7.05202">
        <ele>1044.86303711</ele>
        <time>2021-06-17T12:18:18Z</time>
      </trkpt>
      <trkpt lat="47.9797" lon="7.0518">
        <ele>1044.86303711</ele>
        <time>2021-06-17T12:18:19Z</time>
      </trkpt>
      <trkpt lat="47.97974" lon="7.05157">
        <ele>1043.49072266</ele>
        <time>2021-06-17T12:18:20Z</time>
      </trkpt>
      <trkpt lat="47.97977" lon="7.05136">
        <ele>1043.49072266</ele>
        <time>2021-06-17T12:18:21Z</time>
      </trkpt>
      <trkpt lat="47.97979" lon="7.05115">
        <ele>1041.79370117</ele>
        <time>2021-06-17T12:18:22Z</time>
      </trkpt>
      <trkpt lat="47.97986" lon="7.05098">
        <ele>1041.79370117</ele>
        <time>2021-06-17T12:18:23Z</time>
      </trkpt>
      <trkpt lat="47.97995" lon="7.05089">
        <ele>1040.30859375</ele>
        <time>2021-06-17T12:18:24Z</time>
      </trkpt>
      <trkpt lat="47.98006" lon="7.05084">
        <ele>1040.30859375</ele>
        <time>2021-06-17T12:18:25Z</time>
      </trkpt>
      <trkpt lat="47.98015" lon="7.05077">
        <ele>1040.30859375</ele>
        <time>2021-06-17T12:18:26Z</time>
      </trkpt>
      <trkpt lat="47.98025" lon="7.05073">
        <ele>1039.04101562</ele>
        <time>2021-06-17T12:18:27Z</time>
      </trkpt>
      <trkpt lat="47.98036" lon="7.05066">
        <ele>1038.18408203</ele>
        <time>2021-06-17T12:18:28Z</time>
      </trkpt>
      <trkpt lat="47.98045" lon="7.0506">
        <ele>1038.18408203</ele>
        <time>2021-06-17T12:18:29Z</time>
      </trkpt>
      <trkpt lat="47.98055" lon="7.05057">
        <ele>1038.18408203</ele>
        <time>2021-06-17T12:18:30Z</time>
      </trkpt>
      <trkpt lat="47.98063" lon="7.05049">
        <ele>1038.18408203</ele>
        <time>2021-06-17T12:18:31Z</time>
      </trkpt>
      <trkpt lat="47.98074" lon="7.05046">
        <ele>1037.35913086</ele>
        <time>2021-06-17T12:18:32Z</time>
      </trkpt>
      <trkpt lat="47.98084" lon="7.05046">
        <ele>1037.35913086</ele>
        <time>2021-06-17T12:18:33Z</time>
      </trkpt>
      <trkpt lat="47.98096" lon="7.05054">
        <ele>1037.35913086</ele>
        <time>2021-06-17T12:18:34Z</time>
      </trkpt>
      <trkpt lat="47.98106" lon="7.05057">
        <ele>1037.35913086</ele>
        <time>2021-06-17T12:18:35Z</time>
      </trkpt>
      <trkpt lat="47.98116" lon="7.05057">
        <ele>1036.18664551</ele>
        <time>2021-06-17T12:18:37Z</time>
      </trkpt>
      <trkpt lat="47.98127" lon="7.05054">
        <ele>1036.18664551</ele>
        <time>2021-06-17T12:18:39Z</time>
      </trkpt>
      <trkpt lat="47.98139" lon="7.05052">
        <ele>1036.18664551</ele>
        <time>2021-06-17T12:18:42Z</time>
      </trkpt>
      <trkpt lat="47.98151" lon="7.05061">
        <ele>1035.03894043</ele>
        <time>2021-06-17T12:18:44Z</time>
      </trkpt>
      <trkpt lat="47.98146" lon="7.0508">
        <ele>1035.03894043</ele>
        <time>2021-06-17T12:18:46Z</time>
      </trkpt>
      <trkpt lat="47.98134" lon="7.05088">
        <ele>1033.91162109</ele>
        <time>2021-06-17T12:18:48Z</time>
      </trkpt>
      <trkpt lat="47.98119" lon="7.05087">
        <ele>1033.91162109</ele>
        <time>2021-06-17T12:18:50Z</time>
      </trkpt>
      <trkpt lat="47.98103" lon="7.05088">
        <ele>1032.55419922</ele>
        <time>2021-06-17T12:18:52Z</time>
      </trkpt>
      <trkpt lat="47.98087" lon="7.05088">
        <ele>1031.46813965</ele>
        <time>2021-06-17T12:18:54Z</time>
      </trkpt>
      <trkpt lat="47.98072" lon="7.05091">
        <ele>1031.46813965</ele>
        <time>2021-06-17T12:18:56Z</time>
      </trkpt>
      <trkpt lat="47.98055" lon="7.05096">
        <ele>1030.19775391</ele>
        <time>2021-06-17T12:18:58Z</time>
      </trkpt>
      <trkpt lat="47.98043" lon="7.05103">
        <ele>1030.19775391</ele>
        <time>2021-06-17T12:18:59Z</time>
      </trkpt>
      <trkpt lat="47.98034" lon="7.0511">
        <ele>1028.85437012</ele>
        <time>2021-06-17T12:19:00Z</time>
      </trkpt>
      <trkpt lat="47.98024" lon="7.05116">
        <ele>1028.85437012</ele>
        <time>2021-06-17T12:19:01Z</time>
      </trkpt>
      <trkpt lat="47.98017" lon="7.05124">
        <ele>1027.61901855</ele>
        <time>2021-06-17T12:19:02Z</time>
      </trkpt>
      <trkpt lat="47.98007" lon="7.05139">
        <ele>1026.50012207</ele>
        <time>2021-06-17T12:19:04Z</time>
      </trkpt>
      <trkpt lat="47.97995" lon="7.05155">
        <ele>1026.50012207</ele>
        <time>2021-06-17T12:19:05Z</time>
      </trkpt>
      <trkpt lat="47.97986" lon="7.0517">
        <ele>1025.22192383</ele>
        <time>2021-06-17T12:19:06Z</time>
      </trkpt>
      <trkpt lat="47.97977" lon="7.05186">
        <ele>1025.22192383</ele>
        <time>2021-06-17T12:19:07Z</time>
      </trkpt>
      <trkpt lat="47.97971" lon="7.052">
        <ele>1023.98449707</ele>
        <time>2021-06-17T12:19:08Z</time>
      </trkpt>
      <trkpt lat="47.97964" lon="7.05212">
        <ele>1023.98449707</ele>
        <time>2021-06-17T12:19:09Z</time>
      </trkpt>
      <trkpt lat="47.97957" lon="7.05225">
        <ele>1022.66943359</ele>
        <time>2021-06-17T12:19:10Z</time>
      </trkpt>
      <trkpt lat="47.9795" lon="7.05244">
        <ele>1022.66943359</ele>
        <time>2021-06-17T12:19:11Z</time>
      </trkpt>
      <trkpt lat="47.97943" lon="7.0526">
        <ele>1021.41870117</ele>
        <time>2021-06-17T12:19:12Z</time>
      </trkpt>
      <trkpt lat="47.97936" lon="7.05277">
        <ele>1021.41870117</ele>
        <time>2021-06-17T12:19:13Z</time>
      </trkpt>
      <trkpt lat="47.9793" lon="7.05294">
        <ele>1020.16809082</ele>
        <time>2021-06-17T12:19:14Z</time>
      </trkpt>
      <trkpt lat="47.97924" lon="7.05311">
        <ele>1020.16809082</ele>
        <time>2021-06-17T12:19:15Z</time>
      </trkpt>
      <trkpt lat="47.97918" lon="7.05326">
        <ele>1018.78503418</ele>
        <time>2021-06-17T12:19:16Z</time>
      </trkpt>
      <trkpt lat="47.97913" lon="7.05342">
        <ele>1018.78503418</ele>
        <time>2021-06-17T12:19:17Z</time>
      </trkpt>
      <trkpt lat="47.97904" lon="7.05381">
        <ele>1017.38842773</ele>
        <time>2021-06-17T12:19:19Z</time>
      </trkpt>
      <trkpt lat="47.97901" lon="7.05399">
        <ele>1015.83093262</ele>
        <time>2021-06-17T12:19:20Z</time>
      </trkpt>
      <trkpt lat="47.97897" lon="7.05417">
        <ele>1015.83093262</ele>
        <time>2021-06-17T12:19:21Z</time>
      </trkpt>
      <trkpt lat="47.97894" lon="7.05435">
        <ele>1014.24029541</ele>
        <time>2021-06-17T12:19:22Z</time>
      </trkpt>
      <trkpt lat="47.97891" lon="7.05452">
        <ele>1014.24029541</ele>
        <time>2021-06-17T12:19:23Z</time>
      </trkpt>
      <trkpt lat="47.97888" lon="7.05465">
        <ele>1012.77227783</ele>
        <time>2021-06-17T12:19:24Z</time>
      </trkpt>
      <trkpt lat="47.97884" lon="7.0548">
        <ele>1012.77227783</ele>
        <time>2021-06-17T12:19:25Z</time>
      </trkpt>
      <trkpt lat="47.97878" lon="7.05494">
        <ele>1011.31719971</ele>
        <time>2021-06-17T12:19:26Z</time>
      </trkpt>
      <trkpt lat="47.97873" lon="7.05505">
        <ele>1009.44921875</ele>
        <time>2021-06-17T12:19:28Z</time>
      </trkpt>
      <trkpt lat="47.97865" lon="7.05521">
        <ele>1009.44921875</ele>
        <time>2021-06-17T12:19:29Z</time>
      </trkpt>
      <trkpt lat="47.97854" lon="7.05534">
        <ele>1008.41967773</ele>
        <time>2021-06-17T12:19:31Z</time>
      </trkpt>
      <trkpt lat="47.97843" lon="7.05541">
        <ele>1007.10333252</ele>
        <time>2021-06-17T12:19:33Z</time>
      </trkpt>
      <trkpt lat="47.97841" lon="7.05557">
        <ele>1005.86956787</ele>
        <time>2021-06-17T12:19:36Z</time>
      </trkpt>
      <trkpt lat="47.97851" lon="7.05573">
        <ele>1004.60406494</ele>
        <time>2021-06-17T12:19:38Z</time>
      </trkpt>
      <trkpt lat="47.97864" lon="7.05574">
        <ele>1004.60406494</ele>
        <time>2021-06-17T12:19:39Z</time>
      </trkpt>
      <trkpt lat="47.97873" lon="7.05568">
        <ele>1003.52514648</ele>
        <time>2021-06-17T12:19:40Z</time>
      </trkpt>
      <trkpt lat="47.97884" lon="7.05561">
        <ele>1003.52514648</ele>
        <time>2021-06-17T12:19:41Z</time>
      </trkpt>
      <trkpt lat="47.97895" lon="7.05554">
        <ele>1002.17199707</ele>
        <time>2021-06-17T12:19:42Z</time>
      </trkpt>
      <trkpt lat="47.97905" lon="7.0555">
        <ele>1002.17199707</ele>
        <time>2021-06-17T12:19:43Z</time>
      </trkpt>
      <trkpt lat="47.97913" lon="7.05537">
        <ele>1000.47460938</ele>
        <time>2021-06-17T12:19:44Z</time>
      </trkpt>
      <trkpt lat="47.97923" lon="7.05525">
        <ele>1000.47460938</ele>
        <time>2021-06-17T12:19:45Z</time>
      </trkpt>
      <trkpt lat="47.97933" lon="7.05507">
        <ele>998.53216553</ele>
        <time>2021-06-17T12:19:46Z</time>
      </trkpt>
      <trkpt lat="47.97943" lon="7.0549">
        <ele>996.92260742</ele>
        <time>2021-06-17T12:19:47Z</time>
      </trkpt>
      <trkpt lat="47.97952" lon="7.05473">
        <ele>995.7401123</ele>
        <time>2021-06-17T12:19:48Z</time>
      </trkpt>
      <trkpt lat="47.97962" lon="7.05458">
        <ele>994.60809326</ele>
        <time>2021-06-17T12:19:49Z</time>
      </trkpt>
      <trkpt lat="47.97971" lon="7.05441">
        <ele>993.35662842</ele>
        <time>2021-06-17T12:19:50Z</time>
      </trkpt>
      <trkpt lat="47.9798" lon="7.05425">
        <ele>992.13909912</ele>
        <time>2021-06-17T12:19:51Z</time>
      </trkpt>
      <trkpt lat="47.97986" lon="7.05408">
        <ele>990.93774414</ele>
        <time>2021-06-17T12:19:52Z</time>
      </trkpt>
      <trkpt lat="47.97993" lon="7.05393">
        <ele>989.84283447</ele>
        <time>2021-06-17T12:19:53Z</time>
      </trkpt>
      <trkpt lat="47.98002" lon="7.05376">
        <ele>988.74359131</ele>
        <time>2021-06-17T12:19:54Z</time>
      </trkpt>
      <trkpt lat="47.98011" lon="7.05361">
        <ele>987.52770996</ele>
        <time>2021-06-17T12:19:55Z</time>
      </trkpt>
      <trkpt lat="47.98019" lon="7.05348">
        <ele>986.29650879</ele>
        <time>2021-06-17T12:19:56Z</time>
      </trkpt>
      <trkpt lat="47.98028" lon="7.05336">
        <ele>985.08477783</ele>
        <time>2021-06-17T12:19:57Z</time>
      </trkpt>
      <trkpt lat="47.98039" lon="7.0533">
        <ele>983.92907715</ele>
        <time>2021-06-17T12:19:58Z</time>
      </trkpt>
      <trkpt lat="47.9805" lon="7.05325">
        <ele>982.52185059</ele>
        <time>2021-06-17T12:19:59Z</time>
      </trkpt>
      <trkpt lat="47.98063" lon="7.0532">
        <ele>981.10205078</ele>
        <time>2021-06-17T12:20:00Z</time>
      </trkpt>
      <trkpt lat="47.98076" lon="7.05318">
        <ele>979.69848633</ele>
        <time>2021-06-17T12:20:01Z</time>
      </trkpt>
      <trkpt lat="47.98088" lon="7.05316">
        <ele>978.2946167</ele>
        <time>2021-06-17T12:20:02Z</time>
      </trkpt>
      <trkpt lat="47.98097" lon="7.05313">
        <ele>976.90307617</ele>
        <time>2021-06-17T12:20:03Z</time>
      </trkpt>
      <trkpt lat="47.98107" lon="7.0531">
        <ele>975.48962402</ele>
        <time>2021-06-17T12:20:04Z</time>
      </trkpt>
      <trkpt lat="47.98116" lon="7.05307">
        <ele>974.23937988</ele>
        <time>2021-06-17T12:20:05Z</time>
      </trkpt>
      <trkpt lat="47.98126" lon="7.05308">
        <ele>972.824646</ele>
        <time>2021-06-17T12:20:06Z</time>
      </trkpt>
      <trkpt lat="47.98138" lon="7.05319">
        <ele>971.47912598</ele>
        <time>2021-06-17T12:20:07Z</time>
      </trkpt>
      <trkpt lat="47.98148" lon="7.05329">
        <ele>970.2890625</ele>
        <time>2021-06-17T12:20:08Z</time>
      </trkpt>
      <trkpt lat="47.98166" lon="7.05371">
        <ele>967.91046143</ele>
        <time>2021-06-17T12:20:10Z</time>
      </trkpt>
      <trkpt lat="47.98174" lon="7.05384">
        <ele>966.61755371</ele>
        <time>2021-06-17T12:20:11Z</time>
      </trkpt>
      <trkpt lat="47.98183" lon="7.05394">
        <ele>965.31536865</ele>
        <time>2021-06-17T12:20:12Z</time>
      </trkpt>
      <trkpt lat="47.98194" lon="7.05404">
        <ele>964.09454346</ele>
        <time>2021-06-17T12:20:13Z</time>
      </trkpt>
      <trkpt lat="47.98204" lon="7.05415">
        <ele>962.76403809</ele>
        <time>2021-06-17T12:20:14Z</time>
      </trkpt>
      <trkpt lat="47.98217" lon="7.05422">
        <ele>961.35144043</ele>
        <time>2021-06-17T12:20:15Z</time>
      </trkpt>
      <trkpt lat="47.98233" lon="7.05431">
        <ele>959.94726562</ele>
        <time>2021-06-17T12:20:16Z</time>
      </trkpt>
      <trkpt lat="47.98248" lon="7.05444">
        <ele>958.51025391</ele>
        <time>2021-06-17T12:20:17Z</time>
      </trkpt>
      <trkpt lat="47.98261" lon="7.05453">
        <ele>957.11755371</ele>
        <time>2021-06-17T12:20:18Z</time>
      </trkpt>
      <trkpt lat="47.98273" lon="7.05461">
        <ele>955.63012695</ele>
        <time>2021-06-17T12:20:19Z</time>
      </trkpt>
      <trkpt lat="47.98285" lon="7.0547">
        <ele>954.17272949</ele>
        <time>2021-06-17T12:20:20Z</time>
      </trkpt>
      <trkpt lat="47.98297" lon="7.05479">
        <ele>952.76574707</ele>
        <time>2021-06-17T12:20:21Z</time>
      </trkpt>
      <trkpt lat="47.98309" lon="7.05486">
        <ele>951.38983154</ele>
        <time>2021-06-17T12:20:22Z</time>
      </trkpt>
      <trkpt lat="47.9832" lon="7.05489">
        <ele>950.08355713</ele>
        <time>2021-06-17T12:20:23Z</time>
      </trkpt>
      <trkpt lat="47.98331" lon="7.05492">
        <ele>948.90588379</ele>
        <time>2021-06-17T12:20:24Z</time>
      </trkpt>
      <trkpt lat="47.98345" lon="7.05494">
        <ele>947.72119141</ele>
        <time>2021-06-17T12:20:25Z</time>
      </trkpt>
      <trkpt lat="47.98358" lon="7.05496">
        <ele>946.49145508</ele>
        <time>2021-06-17T12:20:26Z</time>
      </trkpt>
      <trkpt lat="47.98371" lon="7.05496">
        <ele>945.23101807</ele>
        <time>2021-06-17T12:20:27Z</time>
      </trkpt>
      <trkpt lat="47.98383" lon="7.05493">
        <ele>943.89245605</ele>
        <time>2021-06-17T12:20:28Z</time>
      </trkpt>
      <trkpt lat="47.98396" lon="7.05489">
        <ele>942.54034424</ele>
        <time>2021-06-17T12:20:29Z</time>
      </trkpt>
      <trkpt lat="47.98407" lon="7.05487">
        <ele>941.15698242</ele>
        <time>2021-06-17T12:20:30Z</time>
      </trkpt>
      <trkpt lat="47.98418" lon="7.05487">
        <ele>939.71429443</ele>
        <time>2021-06-17T12:20:31Z</time>
      </trkpt>
      <trkpt lat="47.9843" lon="7.05488">
        <ele>938.20080566</ele>
        <time>2021-06-17T12:20:32Z</time>
      </trkpt>
      <trkpt lat="47.98441" lon="7.05495">
        <ele>936.78387451</ele>
        <time>2021-06-17T12:20:33Z</time>
      </trkpt>
      <trkpt lat="47.98454" lon="7.055">
        <ele>935.46405029</ele>
        <time>2021-06-17T12:20:34Z</time>
      </trkpt>
      <trkpt lat="47.98464" lon="7.05511">
        <ele>934.19396973</ele>
        <time>2021-06-17T12:20:35Z</time>
      </trkpt>
      <trkpt lat="47.98475" lon="7.0552">
        <ele>932.89868164</ele>
        <time>2021-06-17T12:20:36Z</time>
      </trkpt>
      <trkpt lat="47.98488" lon="7.05531">
        <ele>931.51385498</ele>
        <time>2021-06-17T12:20:37Z</time>
      </trkpt>
      <trkpt lat="47.985" lon="7.05545">
        <ele>930.22174072</ele>
        <time>2021-06-17T12:20:38Z</time>
      </trkpt>
      <trkpt lat="47.98513" lon="7.05556">
        <ele>928.91925049</ele>
        <time>2021-06-17T12:20:39Z</time>
      </trkpt>
      <trkpt lat="47.98525" lon="7.05568">
        <ele>927.54650879</ele>
        <time>2021-06-17T12:20:40Z</time>
      </trkpt>
      <trkpt lat="47.98537" lon="7.05579">
        <ele>926.14978027</ele>
        <time>2021-06-17T12:20:41Z</time>
      </trkpt>
      <trkpt lat="47.98548" lon="7.05592">
        <ele>924.75817871</ele>
        <time>2021-06-17T12:20:42Z</time>
      </trkpt>
      <trkpt lat="47.98559" lon="7.05602">
        <ele>923.38769531</ele>
        <time>2021-06-17T12:20:43Z</time>
      </trkpt>
      <trkpt lat="47.9857" lon="7.05613">
        <ele>921.92938232</ele>
        <time>2021-06-17T12:20:44Z</time>
      </trkpt>
      <trkpt lat="47.9858" lon="7.05622">
        <ele>920.54608154</ele>
        <time>2021-06-17T12:20:45Z</time>
      </trkpt>
      <trkpt lat="47.98589" lon="7.05629">
        <ele>919.21624756</ele>
        <time>2021-06-17T12:20:46Z</time>
      </trkpt>
      <trkpt lat="47.98599" lon="7.05638">
        <ele>917.86297607</ele>
        <time>2021-06-17T12:20:47Z</time>
      </trkpt>
      <trkpt lat="47.98608" lon="7.05646">
        <ele>916.50769043</ele>
        <time>2021-06-17T12:20:48Z</time>
      </trkpt>
      <trkpt lat="47.98617" lon="7.05652">
        <ele>915.16137695</ele>
        <time>2021-06-17T12:20:49Z</time>
      </trkpt>
      <trkpt lat="47.98626" lon="7.05658">
        <ele>913.85699463</ele>
        <time>2021-06-17T12:20:50Z</time>
      </trkpt>
      <trkpt lat="47.98635" lon="7.05663">
        <ele>912.68408203</ele>
        <time>2021-06-17T12:20:51Z</time>
      </trkpt>
      <trkpt lat="47.98645" lon="7.05666">
        <ele>911.56842041</ele>
        <time>2021-06-17T12:20:52Z</time>
      </trkpt>
      <trkpt lat="47.98658" lon="7.05668">
        <ele>910.4644165</ele>
        <time>2021-06-17T12:20:53Z</time>
      </trkpt>
      <trkpt lat="47.98669" lon="7.05668">
        <ele>909.31109619</ele>
        <time>2021-06-17T12:20:54Z</time>
      </trkpt>
      <trkpt lat="47.9868" lon="7.05668">
        <ele>908.14251709</ele>
        <time>2021-06-17T12:20:55Z</time>
      </trkpt>
      <trkpt lat="47.98691" lon="7.05668">
        <ele>906.92578125</ele>
        <time>2021-06-17T12:20:56Z</time>
      </trkpt>
      <trkpt lat="47.98702" lon="7.05667">
        <ele>905.68609619</ele>
        <time>2021-06-17T12:20:57Z</time>
      </trkpt>
      <trkpt lat="47.98714" lon="7.05666">
        <ele>904.41589355</ele>
        <time>2021-06-17T12:20:58Z</time>
      </trkpt>
      <trkpt lat="47.98725" lon="7.05666">
        <ele>903.17980957</ele>
        <time>2021-06-17T12:20:59Z</time>
      </trkpt>
      <trkpt lat="47.98736" lon="7.05666">
        <ele>901.90167236</ele>
        <time>2021-06-17T12:21:00Z</time>
      </trkpt>
      <trkpt lat="47.98746" lon="7.05653">
        <ele>900.65441895</ele>
        <time>2021-06-17T12:21:01Z</time>
      </trkpt>
      <trkpt lat="47.98755" lon="7.05649">
        <ele>899.49835205</ele>
        <time>2021-06-17T12:21:02Z</time>
      </trkpt>
      <trkpt lat="47.98764" lon="7.05634">
        <ele>898.31829834</ele>
        <time>2021-06-17T12:21:03Z</time>
      </trkpt>
      <trkpt lat="47.98774" lon="7.05623">
        <ele>897.13232422</ele>
        <time>2021-06-17T12:21:04Z</time>
      </trkpt>
      <trkpt lat="47.9878" lon="7.05609">
        <ele>895.98931885</ele>
        <time>2021-06-17T12:21:05Z</time>
      </trkpt>
      <trkpt lat="47.98785" lon="7.05598">
        <ele>894.93634033</ele>
        <time>2021-06-17T12:21:06Z</time>
      </trkpt>
      <trkpt lat="47.98791" lon="7.05584">
        <ele>894.93634033</ele>
        <time>2021-06-17T12:21:07Z</time>
      </trkpt>
      <trkpt lat="47.98794" lon="7.05571">
        <ele>893.60461426</ele>
        <time>2021-06-17T12:21:08Z</time>
      </trkpt>
      <trkpt lat="47.98794" lon="7.05554">
        <ele>892.01928711</ele>
        <time>2021-06-17T12:21:10Z</time>
      </trkpt>
      <trkpt lat="47.98791" lon="7.05558">
        <ele>890.49279785</ele>
        <time>2021-06-17T12:21:13Z</time>
      </trkpt>
      <trkpt lat="47.98777" lon="7.05596">
        <ele>889.03759766</ele>
        <time>2021-06-17T12:21:14Z</time>
      </trkpt>
      <trkpt lat="47.9877" lon="7.05605">
        <ele>889.03759766</ele>
        <time>2021-06-17T12:21:15Z</time>
      </trkpt>
      <trkpt lat="47.9876" lon="7.05619">
        <ele>887.50390625</ele>
        <time>2021-06-17T12:21:17Z</time>
      </trkpt>
      <trkpt lat="47.98751" lon="7.05637">
        <ele>885.88446045</ele>
        <time>2021-06-17T12:21:18Z</time>
      </trkpt>
      <trkpt lat="47.98744" lon="7.05652">
        <ele>885.88446045</ele>
        <time>2021-06-17T12:21:19Z</time>
      </trkpt>
      <trkpt lat="47.98736" lon="7.05667">
        <ele>884.21343994</ele>
        <time>2021-06-17T12:21:20Z</time>
      </trkpt>
      <trkpt lat="47.98727" lon="7.05682">
        <ele>884.21343994</ele>
        <time>2021-06-17T12:21:21Z</time>
      </trkpt>
      <trkpt lat="47.98719" lon="7.05696">
        <ele>882.43267822</ele>
        <time>2021-06-17T12:21:22Z</time>
      </trkpt>
      <trkpt lat="47.98711" lon="7.05713">
        <ele>882.43267822</ele>
        <time>2021-06-17T12:21:23Z</time>
      </trkpt>
      <trkpt lat="47.98703" lon="7.05727">
        <ele>880.49694824</ele>
        <time>2021-06-17T12:21:24Z</time>
      </trkpt>
      <trkpt lat="47.98694" lon="7.05748">
        <ele>880.49694824</ele>
        <time>2021-06-17T12:21:25Z</time>
      </trkpt>
      <trkpt lat="47.98686" lon="7.05764">
        <ele>878.73486328</ele>
        <time>2021-06-17T12:21:26Z</time>
      </trkpt>
      <trkpt lat="47.98677" lon="7.0578">
        <ele>878.73486328</ele>
        <time>2021-06-17T12:21:27Z</time>
      </trkpt>
      <trkpt lat="47.98671" lon="7.05793">
        <ele>877.1739502</ele>
        <time>2021-06-17T12:21:28Z</time>
      </trkpt>
      <trkpt lat="47.98665" lon="7.05805">
        <ele>877.1739502</ele>
        <time>2021-06-17T12:21:29Z</time>
      </trkpt>
      <trkpt lat="47.98658" lon="7.05816">
        <ele>877.1739502</ele>
        <time>2021-06-17T12:21:30Z</time>
      </trkpt>
      <trkpt lat="47.98653" lon="7.05827">
        <ele>876.22125244</ele>
        <time>2021-06-17T12:21:31Z</time>
      </trkpt>
      <trkpt lat="47.98644" lon="7.05835">
        <ele>876.22125244</ele>
        <time>2021-06-17T12:21:32Z</time>
      </trkpt>
      <trkpt lat="47.9863" lon="7.05833">
        <ele>876.22125244</ele>
        <time>2021-06-17T12:21:33Z</time>
      </trkpt>
      <trkpt lat="47.98617" lon="7.05831">
        <ele>874.84283447</ele>
        <time>2021-06-17T12:21:34Z</time>
      </trkpt>
      <trkpt lat="47.98607" lon="7.0583">
        <ele>874.84283447</ele>
        <time>2021-06-17T12:21:35Z</time>
      </trkpt>
      <trkpt lat="47.98597" lon="7.05827">
        <ele>874.84283447</ele>
        <time>2021-06-17T12:21:36Z</time>
      </trkpt>
      <trkpt lat="47.98587" lon="7.0582">
        <ele>873.58795166</ele>
        <time>2021-06-17T12:21:37Z</time>
      </trkpt>
      <trkpt lat="47.98578" lon="7.05814">
        <ele>873.58795166</ele>
        <time>2021-06-17T12:21:38Z</time>
      </trkpt>
      <trkpt lat="47.98568" lon="7.05806">
        <ele>873.58795166</ele>
        <time>2021-06-17T12:21:39Z</time>
      </trkpt>
      <trkpt lat="47.98559" lon="7.05801">
        <ele>873.58795166</ele>
        <time>2021-06-17T12:21:40Z</time>
      </trkpt>
      <trkpt lat="47.98552" lon="7.05791">
        <ele>873.58795166</ele>
        <time>2021-06-17T12:21:41Z</time>
      </trkpt>
      <trkpt lat="47.98539" lon="7.05782">
        <ele>872.45532227</ele>
        <time>2021-06-17T12:21:43Z</time>
      </trkpt>
      <trkpt lat="47.98526" lon="7.05769">
        <ele>872.45532227</ele>
        <time>2021-06-17T12:21:44Z</time>
      </trkpt>
      <trkpt lat="47.98514" lon="7.05761">
        <ele>872.45532227</ele>
        <time>2021-06-17T12:21:46Z</time>
      </trkpt>
      <trkpt lat="47.98499" lon="7.05749">
        <ele>871.27111816</ele>
        <time>2021-06-17T12:21:48Z</time>
      </trkpt>
      <trkpt lat="47.98486" lon="7.05735">
        <ele>871.27111816</ele>
        <time>2021-06-17T12:21:50Z</time>
      </trkpt>
      <trkpt lat="47.98472" lon="7.05729">
        <ele>871.27111816</ele>
        <time>2021-06-17T12:21:51Z</time>
      </trkpt>
      <trkpt lat="47.98463" lon="7.05725">
        <ele>870.07116699</ele>
        <time>2021-06-17T12:21:52Z</time>
      </trkpt>
      <trkpt lat="47.98451" lon="7.05718">
        <ele>870.07116699</ele>
        <time>2021-06-17T12:21:54Z</time>
      </trkpt>
      <trkpt lat="47.98435" lon="7.05711">
        <ele>870.07116699</ele>
        <time>2021-06-17T12:21:56Z</time>
      </trkpt>
      <trkpt lat="47.98421" lon="7.05713">
        <ele>868.9833374</ele>
        <time>2021-06-17T12:21:58Z</time>
      </trkpt>
      <trkpt lat="47.98412" lon="7.05723">
        <ele>868.9833374</ele>
        <time>2021-06-17T12:22:00Z</time>
      </trkpt>
      <trkpt lat="47.98415" lon="7.0574">
        <ele>867.73083496</ele>
        <time>2021-06-17T12:22:03Z</time>
      </trkpt>
      <trkpt lat="47.98425" lon="7.05755">
        <ele>866.17852783</ele>
        <time>2021-06-17T12:22:05Z</time>
      </trkpt>
      <trkpt lat="47.98443" lon="7.05763">
        <ele>864.79614258</ele>
        <time>2021-06-17T12:22:07Z</time>
      </trkpt>
      <trkpt lat="47.98457" lon="7.05772">
        <ele>864.79614258</ele>
        <time>2021-06-17T12:22:08Z</time>
      </trkpt>
      <trkpt lat="47.98468" lon="7.05784">
        <ele>863.52001953</ele>
        <time>2021-06-17T12:22:09Z</time>
      </trkpt>
      <trkpt lat="47.98478" lon="7.05793">
        <ele>863.52001953</ele>
        <time>2021-06-17T12:22:10Z</time>
      </trkpt>
      <trkpt lat="47.98488" lon="7.05802">
        <ele>862.02404785</ele>
        <time>2021-06-17T12:22:11Z</time>
      </trkpt>
      <trkpt lat="47.98499" lon="7.05813">
        <ele>862.02404785</ele>
        <time>2021-06-17T12:22:12Z</time>
      </trkpt>
      <trkpt lat="47.9851" lon="7.05823">
        <ele>860.40869141</ele>
        <time>2021-06-17T12:22:13Z</time>
      </trkpt>
      <trkpt lat="47.98524" lon="7.05839">
        <ele>860.40869141</ele>
        <time>2021-06-17T12:22:14Z</time>
      </trkpt>
      <trkpt lat="47.98536" lon="7.05854">
        <ele>858.66833496</ele>
        <time>2021-06-17T12:22:15Z</time>
      </trkpt>
      <trkpt lat="47.98547" lon="7.05866">
        <ele>858.66833496</ele>
        <time>2021-06-17T12:22:16Z</time>
      </trkpt>
      <trkpt lat="47.98558" lon="7.05878">
        <ele>856.78955078</ele>
        <time>2021-06-17T12:22:17Z</time>
      </trkpt>
      <trkpt lat="47.9857" lon="7.0589">
        <ele>855.30847168</ele>
        <time>2021-06-17T12:22:18Z</time>
      </trkpt>
      <trkpt lat="47.98589" lon="7.05905">
        <ele>854.25097656</ele>
        <time>2021-06-17T12:22:19Z</time>
      </trkpt>
      <trkpt lat="47.98603" lon="7.05917">
        <ele>853.12145996</ele>
        <time>2021-06-17T12:22:20Z</time>
      </trkpt>
      <trkpt lat="47.98613" lon="7.05928">
        <ele>852.00848389</ele>
        <time>2021-06-17T12:22:21Z</time>
      </trkpt>
      <trkpt lat="47.98621" lon="7.05942">
        <ele>850.7388916</ele>
        <time>2021-06-17T12:22:22Z</time>
      </trkpt>
      <trkpt lat="47.98629" lon="7.05953">
        <ele>849.47436523</ele>
        <time>2021-06-17T12:22:23Z</time>
      </trkpt>
      <trkpt lat="47.98637" lon="7.05964">
        <ele>848.18981934</ele>
        <time>2021-06-17T12:22:24Z</time>
      </trkpt>
      <trkpt lat="47.98645" lon="7.05976">
        <ele>846.85028076</ele>
        <time>2021-06-17T12:22:25Z</time>
      </trkpt>
      <trkpt lat="47.98653" lon="7.05987">
        <ele>845.53656006</ele>
        <time>2021-06-17T12:22:26Z</time>
      </trkpt>
      <trkpt lat="47.98661" lon="7.05996">
        <ele>844.27160645</ele>
        <time>2021-06-17T12:22:27Z</time>
      </trkpt>
      <trkpt lat="47.98669" lon="7.06005">
        <ele>843.06738281</ele>
        <time>2021-06-17T12:22:28Z</time>
      </trkpt>
      <trkpt lat="47.98678" lon="7.06011">
        <ele>841.79180908</ele>
        <time>2021-06-17T12:22:29Z</time>
      </trkpt>
      <trkpt lat="47.98689" lon="7.06014">
        <ele>840.48962402</ele>
        <time>2021-06-17T12:22:30Z</time>
      </trkpt>
      <trkpt lat="47.98697" lon="7.06019">
        <ele>839.30657959</ele>
        <time>2021-06-17T12:22:31Z</time>
      </trkpt>
      <trkpt lat="47.98709" lon="7.06024">
        <ele>837.17260742</ele>
        <time>2021-06-17T12:22:33Z</time>
      </trkpt>
      <trkpt lat="47.98723" lon="7.06025">
        <ele>837.17260742</ele>
        <time>2021-06-17T12:22:34Z</time>
      </trkpt>
      <trkpt lat="47.98735" lon="7.06024">
        <ele>835.79772949</ele>
        <time>2021-06-17T12:22:36Z</time>
      </trkpt>
      <trkpt lat="47.9875" lon="7.06009">
        <ele>834.00891113</ele>
        <time>2021-06-17T12:22:38Z</time>
      </trkpt>
      <trkpt lat="47.98763" lon="7.05988">
        <ele>832.14367676</ele>
        <time>2021-06-17T12:22:39Z</time>
      </trkpt>
      <trkpt lat="47.98771" lon="7.05972">
        <ele>832.14367676</ele>
        <time>2021-06-17T12:22:40Z</time>
      </trkpt>
      <trkpt lat="47.9878" lon="7.0596">
        <ele>830.16186523</ele>
        <time>2021-06-17T12:22:41Z</time>
      </trkpt>
      <trkpt lat="47.98791" lon="7.05947">
        <ele>828.61871338</ele>
        <time>2021-06-17T12:22:42Z</time>
      </trkpt>
      <trkpt lat="47.98801" lon="7.05935">
        <ele>827.49151611</ele>
        <time>2021-06-17T12:22:43Z</time>
      </trkpt>
      <trkpt lat="47.9881" lon="7.05924">
        <ele>826.35028076</ele>
        <time>2021-06-17T12:22:44Z</time>
      </trkpt>
      <trkpt lat="47.98822" lon="7.05912">
        <ele>825.14263916</ele>
        <time>2021-06-17T12:22:45Z</time>
      </trkpt>
      <trkpt lat="47.98834" lon="7.05901">
        <ele>823.89331055</ele>
        <time>2021-06-17T12:22:46Z</time>
      </trkpt>
      <trkpt lat="47.98844" lon="7.05889">
        <ele>822.6451416</ele>
        <time>2021-06-17T12:22:47Z</time>
      </trkpt>
      <trkpt lat="47.98854" lon="7.05879">
        <ele>821.31439209</ele>
        <time>2021-06-17T12:22:48Z</time>
      </trkpt>
      <trkpt lat="47.98864" lon="7.05869">
        <ele>819.91418457</ele>
        <time>2021-06-17T12:22:49Z</time>
      </trkpt>
      <trkpt lat="47.98872" lon="7.0586">
        <ele>818.52227783</ele>
        <time>2021-06-17T12:22:50Z</time>
      </trkpt>
      <trkpt lat="47.98881" lon="7.0585">
        <ele>817.23016357</ele>
        <time>2021-06-17T12:22:51Z</time>
      </trkpt>
      <trkpt lat="47.9889" lon="7.05843">
        <ele>815.92028809</ele>
        <time>2021-06-17T12:22:52Z</time>
      </trkpt>
      <trkpt lat="47.98901" lon="7.05837">
        <ele>814.56378174</ele>
        <time>2021-06-17T12:22:53Z</time>
      </trkpt>
      <trkpt lat="47.98911" lon="7.0583">
        <ele>813.20526123</ele>
        <time>2021-06-17T12:22:54Z</time>
      </trkpt>
      <trkpt lat="47.98924" lon="7.05822">
        <ele>811.9442749</ele>
        <time>2021-06-17T12:22:55Z</time>
      </trkpt>
      <trkpt lat="47.98937" lon="7.05819">
        <ele>810.69378662</ele>
        <time>2021-06-17T12:22:56Z</time>
      </trkpt>
      <trkpt lat="47.98949" lon="7.05811">
        <ele>809.44836426</ele>
        <time>2021-06-17T12:22:57Z</time>
      </trkpt>
      <trkpt lat="47.98959" lon="7.05803">
        <ele>808.28845215</ele>
        <time>2021-06-17T12:22:58Z</time>
      </trkpt>
      <trkpt lat="47.98967" lon="7.05795">
        <ele>807.09875488</ele>
        <time>2021-06-17T12:22:59Z</time>
      </trkpt>
      <trkpt lat="47.98975" lon="7.05788">
        <ele>805.87658691</ele>
        <time>2021-06-17T12:23:00Z</time>
      </trkpt>
      <trkpt lat="47.98986" lon="7.05783">
        <ele>803.64575195</ele>
        <time>2021-06-17T12:23:02Z</time>
      </trkpt>
      <trkpt lat="47.99001" lon="7.0579">
        <ele>802.55114746</ele>
        <time>2021-06-17T12:23:03Z</time>
      </trkpt>
      <trkpt lat="47.99012" lon="7.05799">
        <ele>800.32159424</ele>
        <time>2021-06-17T12:23:05Z</time>
      </trkpt>
      <trkpt lat="47.99026" lon="7.05823">
        <ele>799.26428223</ele>
        <time>2021-06-17T12:23:06Z</time>
      </trkpt>
      <trkpt lat="47.99033" lon="7.05842">
        <ele>798.25164795</ele>
        <time>2021-06-17T12:23:07Z</time>
      </trkpt>
      <trkpt lat="47.99048" lon="7.05873">
        <ele>797.2456665</ele>
        <time>2021-06-17T12:23:09Z</time>
      </trkpt>
      <trkpt lat="47.99055" lon="7.0589">
        <ele>795.73547363</ele>
        <time>2021-06-17T12:23:10Z</time>
      </trkpt>
      <trkpt lat="47.99062" lon="7.0591">
        <ele>794.06365967</ele>
        <time>2021-06-17T12:23:11Z</time>
      </trkpt>
      <trkpt lat="47.99069" lon="7.05928">
        <ele>792.94354248</ele>
        <time>2021-06-17T12:23:12Z</time>
      </trkpt>
      <trkpt lat="47.99072" lon="7.05948">
        <ele>791.80175781</ele>
        <time>2021-06-17T12:23:13Z</time>
      </trkpt>
      <trkpt lat="47.99075" lon="7.05968">
        <ele>790.55267334</ele>
        <time>2021-06-17T12:23:14Z</time>
      </trkpt>
      <trkpt lat="47.9908" lon="7.05987">
        <ele>789.27984619</ele>
        <time>2021-06-17T12:23:15Z</time>
      </trkpt>
      <trkpt lat="47.99084" lon="7.06008">
        <ele>787.94744873</ele>
        <time>2021-06-17T12:23:16Z</time>
      </trkpt>
      <trkpt lat="47.99089" lon="7.06029">
        <ele>786.52624512</ele>
        <time>2021-06-17T12:23:17Z</time>
      </trkpt>
      <trkpt lat="47.99094" lon="7.06051">
        <ele>785.09063721</ele>
        <time>2021-06-17T12:23:18Z</time>
      </trkpt>
      <trkpt lat="47.99099" lon="7.0607">
        <ele>783.58575439</ele>
        <time>2021-06-17T12:23:19Z</time>
      </trkpt>
      <trkpt lat="47.99103" lon="7.06091">
        <ele>782.02410889</ele>
        <time>2021-06-17T12:23:20Z</time>
      </trkpt>
      <trkpt lat="47.99107" lon="7.06113">
        <ele>780.54956055</ele>
        <time>2021-06-17T12:23:21Z</time>
      </trkpt>
      <trkpt lat="47.99112" lon="7.06135">
        <ele>779.03283691</ele>
        <time>2021-06-17T12:23:22Z</time>
      </trkpt>
      <trkpt lat="47.99118" lon="7.06161">
        <ele>777.44104004</ele>
        <time>2021-06-17T12:23:23Z</time>
      </trkpt>
      <trkpt lat="47.99125" lon="7.06186">
        <ele>775.81591797</ele>
        <time>2021-06-17T12:23:24Z</time>
      </trkpt>
      <trkpt lat="47.99131" lon="7.06209">
        <ele>774.26196289</ele>
        <time>2021-06-17T12:23:25Z</time>
      </trkpt>
      <trkpt lat="47.99139" lon="7.06234">
        <ele>772.76141357</ele>
        <time>2021-06-17T12:23:26Z</time>
      </trkpt>
      <trkpt lat="47.9915" lon="7.06258">
        <ele>771.16571045</ele>
        <time>2021-06-17T12:23:27Z</time>
      </trkpt>
      <trkpt lat="47.99157" lon="7.06281">
        <ele>769.47381592</ele>
        <time>2021-06-17T12:23:28Z</time>
      </trkpt>
      <trkpt lat="47.99164" lon="7.06305">
        <ele>767.77789307</ele>
        <time>2021-06-17T12:23:29Z</time>
      </trkpt>
      <trkpt lat="47.9917" lon="7.06325">
        <ele>766.0345459</ele>
        <time>2021-06-17T12:23:30Z</time>
      </trkpt>
      <trkpt lat="47.99178" lon="7.06345">
        <ele>764.35705566</ele>
        <time>2021-06-17T12:23:31Z</time>
      </trkpt>
      <trkpt lat="47.99185" lon="7.06366">
        <ele>762.67443848</ele>
        <time>2021-06-17T12:23:32Z</time>
      </trkpt>
      <trkpt lat="47.99192" lon="7.06385">
        <ele>760.9352417</ele>
        <time>2021-06-17T12:23:33Z</time>
      </trkpt>
      <trkpt lat="47.99199" lon="7.06411">
        <ele>759.26397705</ele>
        <time>2021-06-17T12:23:34Z</time>
      </trkpt>
      <trkpt lat="47.9921" lon="7.06429">
        <ele>757.5670166</ele>
        <time>2021-06-17T12:23:35Z</time>
      </trkpt>
      <trkpt lat="47.9922" lon="7.06445">
        <ele>755.89471436</ele>
        <time>2021-06-17T12:23:36Z</time>
      </trkpt>
      <trkpt lat="47.99228" lon="7.0646">
        <ele>754.23724365</ele>
        <time>2021-06-17T12:23:37Z</time>
      </trkpt>
      <trkpt lat="47.99237" lon="7.06474">
        <ele>752.51409912</ele>
        <time>2021-06-17T12:23:38Z</time>
      </trkpt>
      <trkpt lat="47.99247" lon="7.06487">
        <ele>750.87121582</ele>
        <time>2021-06-17T12:23:39Z</time>
      </trkpt>
      <trkpt lat="47.9926" lon="7.06502">
        <ele>749.29516602</ele>
        <time>2021-06-17T12:23:40Z</time>
      </trkpt>
      <trkpt lat="47.9927" lon="7.06514">
        <ele>747.84796143</ele>
        <time>2021-06-17T12:23:41Z</time>
      </trkpt>
      <trkpt lat="47.99282" lon="7.06522">
        <ele>746.48529053</ele>
        <time>2021-06-17T12:23:42Z</time>
      </trkpt>
      <trkpt lat="47.99293" lon="7.06533">
        <ele>745.14227295</ele>
        <time>2021-06-17T12:23:43Z</time>
      </trkpt>
      <trkpt lat="47.99308" lon="7.0654">
        <ele>743.73187256</ele>
        <time>2021-06-17T12:23:44Z</time>
      </trkpt>
      <trkpt lat="47.99321" lon="7.06548">
        <ele>742.25305176</ele>
        <time>2021-06-17T12:23:45Z</time>
      </trkpt>
      <trkpt lat="47.99335" lon="7.06555">
        <ele>740.69885254</ele>
        <time>2021-06-17T12:23:46Z</time>
      </trkpt>
      <trkpt lat="47.99347" lon="7.06559">
        <ele>739.22259521</ele>
        <time>2021-06-17T12:23:47Z</time>
      </trkpt>
      <trkpt lat="47.9936" lon="7.06562">
        <ele>737.74609375</ele>
        <time>2021-06-17T12:23:48Z</time>
      </trkpt>
      <trkpt lat="47.99372" lon="7.0656">
        <ele>736.37121582</ele>
        <time>2021-06-17T12:23:49Z</time>
      </trkpt>
      <trkpt lat="47.99382" lon="7.06564">
        <ele>735.08837891</ele>
        <time>2021-06-17T12:23:50Z</time>
      </trkpt>
      <trkpt lat="47.99393" lon="7.06564">
        <ele>733.97143555</ele>
        <time>2021-06-17T12:23:51Z</time>
      </trkpt>
      <trkpt lat="47.99402" lon="7.06562">
        <ele>732.90692139</ele>
        <time>2021-06-17T12:23:52Z</time>
      </trkpt>
      <trkpt lat="47.99412" lon="7.06557">
        <ele>731.85980225</ele>
        <time>2021-06-17T12:23:53Z</time>
      </trkpt>
      <trkpt lat="47.99424" lon="7.06537">
        <ele>731.85980225</ele>
        <time>2021-06-17T12:23:54Z</time>
      </trkpt>
      <trkpt lat="47.99432" lon="7.06513">
        <ele>730.44451904</ele>
        <time>2021-06-17T12:23:55Z</time>
      </trkpt>
      <trkpt lat="47.99437" lon="7.06492">
        <ele>730.44451904</ele>
        <time>2021-06-17T12:23:56Z</time>
      </trkpt>
      <trkpt lat="47.99439" lon="7.06468">
        <ele>728.66003418</ele>
        <time>2021-06-17T12:23:57Z</time>
      </trkpt>
      <trkpt lat="47.99443" lon="7.06447">
        <ele>728.66003418</ele>
        <time>2021-06-17T12:23:58Z</time>
      </trkpt>
      <trkpt lat="47.99446" lon="7.06426">
        <ele>726.88208008</ele>
        <time>2021-06-17T12:23:59Z</time>
      </trkpt>
      <trkpt lat="47.99451" lon="7.06409">
        <ele>725.41546631</ele>
        <time>2021-06-17T12:24:00Z</time>
      </trkpt>
      <trkpt lat="47.99455" lon="7.06389">
        <ele>725.41546631</ele>
        <time>2021-06-17T12:24:01Z</time>
      </trkpt>
      <trkpt lat="47.99459" lon="7.06372">
        <ele>723.96679688</ele>
        <time>2021-06-17T12:24:02Z</time>
      </trkpt>
      <trkpt lat="47.99464" lon="7.06358">
        <ele>722.48486328</ele>
        <time>2021-06-17T12:24:03Z</time>
      </trkpt>
      <trkpt lat="47.99469" lon="7.06345">
        <ele>722.48486328</ele>
        <time>2021-06-17T12:24:04Z</time>
      </trkpt>
      <trkpt lat="47.99476" lon="7.0633">
        <ele>721.00561523</ele>
        <time>2021-06-17T12:24:06Z</time>
      </trkpt>
      <trkpt lat="47.99482" lon="7.06315">
        <ele>719.20288086</ele>
        <time>2021-06-17T12:24:08Z</time>
      </trkpt>
      <trkpt lat="47.99497" lon="7.06321">
        <ele>717.55163574</ele>
        <time>2021-06-17T12:24:10Z</time>
      </trkpt>
      <trkpt lat="47.99509" lon="7.06339">
        <ele>716.22363281</ele>
        <time>2021-06-17T12:24:11Z</time>
      </trkpt>
      <trkpt lat="47.99515" lon="7.0635">
        <ele>716.22363281</ele>
        <time>2021-06-17T12:24:12Z</time>
      </trkpt>
      <trkpt lat="47.99521" lon="7.06362">
        <ele>714.76635742</ele>
        <time>2021-06-17T12:24:13Z</time>
      </trkpt>
      <trkpt lat="47.99527" lon="7.06377">
        <ele>714.76635742</ele>
        <time>2021-06-17T12:24:14Z</time>
      </trkpt>
      <trkpt lat="47.99533" lon="7.0639">
        <ele>713.12902832</ele>
        <time>2021-06-17T12:24:15Z</time>
      </trkpt>
      <trkpt lat="47.99538" lon="7.06404">
        <ele>713.12902832</ele>
        <time>2021-06-17T12:24:16Z</time>
      </trkpt>
      <trkpt lat="47.99544" lon="7.06418">
        <ele>711.43804932</ele>
        <time>2021-06-17T12:24:17Z</time>
      </trkpt>
      <trkpt lat="47.99551" lon="7.06436">
        <ele>711.43804932</ele>
        <time>2021-06-17T12:24:18Z</time>
      </trkpt>
      <trkpt lat="47.99558" lon="7.06452">
        <ele>709.61218262</ele>
        <time>2021-06-17T12:24:19Z</time>
      </trkpt>
      <trkpt lat="47.99566" lon="7.06467">
        <ele>709.61218262</ele>
        <time>2021-06-17T12:24:20Z</time>
      </trkpt>
      <trkpt lat="47.99571" lon="7.0648">
        <ele>707.76000977</ele>
        <time>2021-06-17T12:24:21Z</time>
      </trkpt>
      <trkpt lat="47.99577" lon="7.06494">
        <ele>707.76000977</ele>
        <time>2021-06-17T12:24:22Z</time>
      </trkpt>
      <trkpt lat="47.99585" lon="7.06504">
        <ele>706.00482178</ele>
        <time>2021-06-17T12:24:23Z</time>
      </trkpt>
      <trkpt lat="47.9959" lon="7.06518">
        <ele>704.48999023</ele>
        <time>2021-06-17T12:24:25Z</time>
      </trkpt>
      <trkpt lat="47.99591" lon="7.06543">
        <ele>702.25372314</ele>
        <time>2021-06-17T12:24:28Z</time>
      </trkpt>
      <trkpt lat="47.99585" lon="7.06548">
        <ele>702.25372314</ele>
        <time>2021-06-17T12:24:29Z</time>
      </trkpt>
      <trkpt lat="47.99576" lon="7.06538">
        <ele>700.4564209</ele>
        <time>2021-06-17T12:24:32Z</time>
      </trkpt>
      <trkpt lat="47.99566" lon="7.06515">
        <ele>700.4564209</ele>
        <time>2021-06-17T12:24:34Z</time>
      </trkpt>
      <trkpt lat="47.99557" lon="7.06497">
        <ele>699.31573486</ele>
        <time>2021-06-17T12:24:35Z</time>
      </trkpt>
      <trkpt lat="47.99551" lon="7.06485">
        <ele>699.31573486</ele>
        <time>2021-06-17T12:24:36Z</time>
      </trkpt>
      <trkpt lat="47.99545" lon="7.06473">
        <ele>699.31573486</ele>
        <time>2021-06-17T12:24:37Z</time>
      </trkpt>
      <trkpt lat="47.99538" lon="7.06462">
        <ele>699.31573486</ele>
        <time>2021-06-17T12:24:38Z</time>
      </trkpt>
      <trkpt lat="47.99523" lon="7.06439">
        <ele>698.11889648</ele>
        <time>2021-06-17T12:24:41Z</time>
      </trkpt>
      <trkpt lat="47.99512" lon="7.06439">
        <ele>697.034729</ele>
        <time>2021-06-17T12:24:43Z</time>
      </trkpt>
      <trkpt lat="47.99499" lon="7.06451">
        <ele>697.034729</ele>
        <time>2021-06-17T12:24:45Z</time>
      </trkpt>
      <trkpt lat="47.99489" lon="7.06467">
        <ele>695.89544678</ele>
        <time>2021-06-17T12:24:46Z</time>
      </trkpt>
      <trkpt lat="47.99483" lon="7.06479">
        <ele>695.89544678</ele>
        <time>2021-06-17T12:24:47Z</time>
      </trkpt>
      <trkpt lat="47.99477" lon="7.06498">
        <ele>694.52984619</ele>
        <time>2021-06-17T12:24:49Z</time>
      </trkpt>
      <trkpt lat="47.99472" lon="7.0652">
        <ele>694.52984619</ele>
        <time>2021-06-17T12:24:50Z</time>
      </trkpt>
      <trkpt lat="47.99469" lon="7.06536">
        <ele>693.03747559</ele>
        <time>2021-06-17T12:24:51Z</time>
      </trkpt>
      <trkpt lat="47.99464" lon="7.06551">
        <ele>693.03747559</ele>
        <time>2021-06-17T12:24:52Z</time>
      </trkpt>
      <trkpt lat="47.9946" lon="7.06566">
        <ele>691.85900879</ele>
        <time>2021-06-17T12:24:53Z</time>
      </trkpt>
      <trkpt lat="47.99454" lon="7.06583">
        <ele>691.85900879</ele>
        <time>2021-06-17T12:24:54Z</time>
      </trkpt>
      <trkpt lat="47.99449" lon="7.066">
        <ele>690.82788086</ele>
        <time>2021-06-17T12:24:55Z</time>
      </trkpt>
      <trkpt lat="47.99445" lon="7.06618">
        <ele>690.82788086</ele>
        <time>2021-06-17T12:24:56Z</time>
      </trkpt>
      <trkpt lat="47.99439" lon="7.06635">
        <ele>689.75793457</ele>
        <time>2021-06-17T12:24:57Z</time>
      </trkpt>
      <trkpt lat="47.99433" lon="7.06652">
        <ele>689.75793457</ele>
        <time>2021-06-17T12:24:58Z</time>
      </trkpt>
      <trkpt lat="47.99425" lon="7.06668">
        <ele>688.75744629</ele>
        <time>2021-06-17T12:24:59Z</time>
      </trkpt>
      <trkpt lat="47.99416" lon="7.06681">
        <ele>688.75744629</ele>
        <time>2021-06-17T12:25:00Z</time>
      </trkpt>
      <trkpt lat="47.99406" lon="7.06691">
        <ele>687.69732666</ele>
        <time>2021-06-17T12:25:01Z</time>
      </trkpt>
      <trkpt lat="47.99395" lon="7.06698">
        <ele>687.69732666</ele>
        <time>2021-06-17T12:25:02Z</time>
      </trkpt>
      <trkpt lat="47.99383" lon="7.067">
        <ele>686.49145508</ele>
        <time>2021-06-17T12:25:03Z</time>
      </trkpt>
      <trkpt lat="47.99372" lon="7.06705">
        <ele>686.49145508</ele>
        <time>2021-06-17T12:25:04Z</time>
      </trkpt>
      <trkpt lat="47.9936" lon="7.0671">
        <ele>685.30133057</ele>
        <time>2021-06-17T12:25:05Z</time>
      </trkpt>
      <trkpt lat="47.99348" lon="7.0671">
        <ele>685.30133057</ele>
        <time>2021-06-17T12:25:06Z</time>
      </trkpt>
      <trkpt lat="47.99335" lon="7.0671">
        <ele>684.13415527</ele>
        <time>2021-06-17T12:25:07Z</time>
      </trkpt>
      <trkpt lat="47.99322" lon="7.06707">
        <ele>684.13415527</ele>
        <time>2021-06-17T12:25:08Z</time>
      </trkpt>
      <trkpt lat="47.9931" lon="7.06702">
        <ele>683.01171875</ele>
        <time>2021-06-17T12:25:09Z</time>
      </trkpt>
      <trkpt lat="47.99299" lon="7.06693">
        <ele>683.01171875</ele>
        <time>2021-06-17T12:25:10Z</time>
      </trkpt>
      <trkpt lat="47.99284" lon="7.06694">
        <ele>681.87976074</ele>
        <time>2021-06-17T12:25:11Z</time>
      </trkpt>
      <trkpt lat="47.99271" lon="7.0669">
        <ele>681.87976074</ele>
        <time>2021-06-17T12:25:12Z</time>
      </trkpt>
      <trkpt lat="47.99259" lon="7.06687">
        <ele>680.77612305</ele>
        <time>2021-06-17T12:25:13Z</time>
      </trkpt>
      <trkpt lat="47.99245" lon="7.06683">
        <ele>680.77612305</ele>
        <time>2021-06-17T12:25:14Z</time>
      </trkpt>
      <trkpt lat="47.99232" lon="7.06678">
        <ele>679.72460938</ele>
        <time>2021-06-17T12:25:15Z</time>
      </trkpt>
      <trkpt lat="47.99221" lon="7.06674">
        <ele>679.72460938</ele>
        <time>2021-06-17T12:25:16Z</time>
      </trkpt>
      <trkpt lat="47.99205" lon="7.06669">
        <ele>678.64160156</ele>
        <time>2021-06-17T12:25:17Z</time>
      </trkpt>
      <trkpt lat="47.99194" lon="7.06664">
        <ele>678.64160156</ele>
        <time>2021-06-17T12:25:18Z</time>
      </trkpt>
      <trkpt lat="47.99178" lon="7.06667">
        <ele>677.24462891</ele>
        <time>2021-06-17T12:25:19Z</time>
      </trkpt>
      <trkpt lat="47.99165" lon="7.06669">
        <ele>677.24462891</ele>
        <time>2021-06-17T12:25:20Z</time>
      </trkpt>
      <trkpt lat="47.99153" lon="7.06672">
        <ele>675.32397461</ele>
        <time>2021-06-17T12:25:21Z</time>
      </trkpt>
      <trkpt lat="47.99141" lon="7.06678">
        <ele>673.70410156</ele>
        <time>2021-06-17T12:25:22Z</time>
      </trkpt>
      <trkpt lat="47.99129" lon="7.06682">
        <ele>672.55303955</ele>
        <time>2021-06-17T12:25:23Z</time>
      </trkpt>
      <trkpt lat="47.99117" lon="7.06684">
        <ele>671.39349365</ele>
        <time>2021-06-17T12:25:24Z</time>
      </trkpt>
      <trkpt lat="47.99107" lon="7.06681">
        <ele>670.19439697</ele>
        <time>2021-06-17T12:25:25Z</time>
      </trkpt>
      <trkpt lat="47.99096" lon="7.06678">
        <ele>669.05548096</ele>
        <time>2021-06-17T12:25:26Z</time>
      </trkpt>
      <trkpt lat="47.99084" lon="7.06677">
        <ele>667.9510498</ele>
        <time>2021-06-17T12:25:27Z</time>
      </trkpt>
      <trkpt lat="47.99073" lon="7.06675">
        <ele>666.80065918</ele>
        <time>2021-06-17T12:25:28Z</time>
      </trkpt>
      <trkpt lat="47.99063" lon="7.06673">
        <ele>665.72698975</ele>
        <time>2021-06-17T12:25:29Z</time>
      </trkpt>
      <trkpt lat="47.99052" lon="7.06669">
        <ele>664.58966064</ele>
        <time>2021-06-17T12:25:30Z</time>
      </trkpt>
      <trkpt lat="47.99041" lon="7.06664">
        <ele>663.51361084</ele>
        <time>2021-06-17T12:25:31Z</time>
      </trkpt>
      <trkpt lat="47.9903" lon="7.06662">
        <ele>662.45587158</ele>
        <time>2021-06-17T12:25:32Z</time>
      </trkpt>
      <trkpt lat="47.9902" lon="7.06659">
        <ele>661.37896729</ele>
        <time>2021-06-17T12:25:33Z</time>
      </trkpt>
      <trkpt lat="47.99008" lon="7.06658">
        <ele>660.33966064</ele>
        <time>2021-06-17T12:25:34Z</time>
      </trkpt>
      <trkpt lat="47.98998" lon="7.06659">
        <ele>659.23345947</ele>
        <time>2021-06-17T12:25:35Z</time>
      </trkpt>
      <trkpt lat="47.98987" lon="7.06661">
        <ele>658.15472412</ele>
        <time>2021-06-17T12:25:36Z</time>
      </trkpt>
      <trkpt lat="47.98978" lon="7.06666">
        <ele>657.06860352</ele>
        <time>2021-06-17T12:25:37Z</time>
      </trkpt>
      <trkpt lat="47.98959" lon="7.06681">
        <ele>655.0456543</ele>
        <time>2021-06-17T12:25:39Z</time>
      </trkpt>
      <trkpt lat="47.98948" lon="7.0669">
        <ele>653.9855957</ele>
        <time>2021-06-17T12:25:40Z</time>
      </trkpt>
      <trkpt lat="47.98938" lon="7.06698">
        <ele>652.98022461</ele>
        <time>2021-06-17T12:25:41Z</time>
      </trkpt>
      <trkpt lat="47.98927" lon="7.06707">
        <ele>651.93908691</ele>
        <time>2021-06-17T12:25:42Z</time>
      </trkpt>
      <trkpt lat="47.98916" lon="7.06716">
        <ele>650.87774658</ele>
        <time>2021-06-17T12:25:43Z</time>
      </trkpt>
      <trkpt lat="47.98905" lon="7.06725">
        <ele>650.87774658</ele>
        <time>2021-06-17T12:25:44Z</time>
      </trkpt>
      <trkpt lat="47.98895" lon="7.06735">
        <ele>649.40905762</ele>
        <time>2021-06-17T12:25:45Z</time>
      </trkpt>
      <trkpt lat="47.98884" lon="7.06744">
        <ele>649.40905762</ele>
        <time>2021-06-17T12:25:46Z</time>
      </trkpt>
      <trkpt lat="47.98874" lon="7.06752">
        <ele>647.41809082</ele>
        <time>2021-06-17T12:25:47Z</time>
      </trkpt>
      <trkpt lat="47.98865" lon="7.0676">
        <ele>647.41809082</ele>
        <time>2021-06-17T12:25:48Z</time>
      </trkpt>
      <trkpt lat="47.98856" lon="7.06767">
        <ele>645.44732666</ele>
        <time>2021-06-17T12:25:49Z</time>
      </trkpt>
      <trkpt lat="47.98847" lon="7.06774">
        <ele>643.91040039</ele>
        <time>2021-06-17T12:25:50Z</time>
      </trkpt>
      <trkpt lat="47.98838" lon="7.0678">
        <ele>643.91040039</ele>
        <time>2021-06-17T12:25:51Z</time>
      </trkpt>
      <trkpt lat="47.98828" lon="7.06789">
        <ele>642.39929199</ele>
        <time>2021-06-17T12:25:53Z</time>
      </trkpt>
      <trkpt lat="47.9882" lon="7.06804">
        <ele>640.41802979</ele>
        <time>2021-06-17T12:25:54Z</time>
      </trkpt>
      <trkpt lat="47.9882" lon="7.0682">
        <ele>640.41802979</ele>
        <time>2021-06-17T12:25:55Z</time>
      </trkpt>
      <trkpt lat="47.98826" lon="7.06841">
        <ele>638.61633301</ele>
        <time>2021-06-17T12:25:56Z</time>
      </trkpt>
      <trkpt lat="47.98833" lon="7.0686">
        <ele>638.61633301</ele>
        <time>2021-06-17T12:25:57Z</time>
      </trkpt>
      <trkpt lat="47.9884" lon="7.06877">
        <ele>636.76403809</ele>
        <time>2021-06-17T12:25:58Z</time>
      </trkpt>
      <trkpt lat="47.98849" lon="7.06892">
        <ele>636.76403809</ele>
        <time>2021-06-17T12:25:59Z</time>
      </trkpt>
      <trkpt lat="47.98857" lon="7.06902">
        <ele>634.86993408</ele>
        <time>2021-06-17T12:26:00Z</time>
      </trkpt>
      <trkpt lat="47.98868" lon="7.06912">
        <ele>634.86993408</ele>
        <time>2021-06-17T12:26:01Z</time>
      </trkpt>
      <trkpt lat="47.98881" lon="7.0692">
        <ele>632.88952637</ele>
        <time>2021-06-17T12:26:02Z</time>
      </trkpt>
      <trkpt lat="47.98895" lon="7.06923">
        <ele>632.88952637</ele>
        <time>2021-06-17T12:26:03Z</time>
      </trkpt>
      <trkpt lat="47.98907" lon="7.06926">
        <ele>630.91943359</ele>
        <time>2021-06-17T12:26:04Z</time>
      </trkpt>
      <trkpt lat="47.9892" lon="7.06929">
        <ele>629.24865723</ele>
        <time>2021-06-17T12:26:05Z</time>
      </trkpt>
      <trkpt lat="47.98933" lon="7.06935">
        <ele>628.15594482</ele>
        <time>2021-06-17T12:26:06Z</time>
      </trkpt>
      <trkpt lat="47.98945" lon="7.0694">
        <ele>628.15594482</ele>
        <time>2021-06-17T12:26:07Z</time>
      </trkpt>
      <trkpt lat="47.98957" lon="7.06946">
        <ele>626.78826904</ele>
        <time>2021-06-17T12:26:08Z</time>
      </trkpt>
      <trkpt lat="47.98979" lon="7.06965">
        <ele>625.26959229</ele>
        <time>2021-06-17T12:26:10Z</time>
      </trkpt>
      <trkpt lat="47.9899" lon="7.06973">
        <ele>625.26959229</ele>
        <time>2021-06-17T12:26:11Z</time>
      </trkpt>
      <trkpt lat="47.99001" lon="7.06981">
        <ele>625.26959229</ele>
        <time>2021-06-17T12:26:12Z</time>
      </trkpt>
      <trkpt lat="47.99012" lon="7.06987">
        <ele>624.07891846</ele>
        <time>2021-06-17T12:26:13Z</time>
      </trkpt>
      <trkpt lat="47.99023" lon="7.06993">
        <ele>624.07891846</ele>
        <time>2021-06-17T12:26:14Z</time>
      </trkpt>
      <trkpt lat="47.99034" lon="7.06997">
        <ele>624.07891846</ele>
        <time>2021-06-17T12:26:15Z</time>
      </trkpt>
      <trkpt lat="47.99046" lon="7.06999">
        <ele>622.86535645</ele>
        <time>2021-06-17T12:26:16Z</time>
      </trkpt>
      <trkpt lat="47.99057" lon="7.06999">
        <ele>622.86535645</ele>
        <time>2021-06-17T12:26:17Z</time>
      </trkpt>
      <trkpt lat="47.99069" lon="7.06999">
        <ele>622.86535645</ele>
        <time>2021-06-17T12:26:18Z</time>
      </trkpt>
      <trkpt lat="47.99081" lon="7.06998">
        <ele>621.4864502</ele>
        <time>2021-06-17T12:26:19Z</time>
      </trkpt>
      <trkpt lat="47.99093" lon="7.06997">
        <ele>621.4864502</ele>
        <time>2021-06-17T12:26:20Z</time>
      </trkpt>
      <trkpt lat="47.99104" lon="7.06994">
        <ele>620.03503418</ele>
        <time>2021-06-17T12:26:21Z</time>
      </trkpt>
      <trkpt lat="47.99113" lon="7.06989">
        <ele>620.03503418</ele>
        <time>2021-06-17T12:26:22Z</time>
      </trkpt>
      <trkpt lat="47.99123" lon="7.06987">
        <ele>618.75646973</ele>
        <time>2021-06-17T12:26:23Z</time>
      </trkpt>
      <trkpt lat="47.99132" lon="7.06985">
        <ele>618.75646973</ele>
        <time>2021-06-17T12:26:24Z</time>
      </trkpt>
      <trkpt lat="47.99142" lon="7.06982">
        <ele>617.40899658</ele>
        <time>2021-06-17T12:26:26Z</time>
      </trkpt>
      <trkpt lat="47.9915" lon="7.0698">
        <ele>615.35809326</ele>
        <time>2021-06-17T12:26:28Z</time>
      </trkpt>
      <trkpt lat="47.99158" lon="7.0698">
        <ele>615.35809326</ele>
        <time>2021-06-17T12:26:29Z</time>
      </trkpt>
      <trkpt lat="47.99168" lon="7.0698">
        <ele>614.53076172</ele>
        <time>2021-06-17T12:26:33Z</time>
      </trkpt>
      <trkpt lat="47.99175" lon="7.06979">
        <ele>611.3470459</ele>
        <time>2021-06-17T12:34:34Z</time>
      </trkpt>
      <trkpt lat="47.99178" lon="7.06976">
        <ele>611.3470459</ele>
        <time>2021-06-17T12:34:38Z</time>
      </trkpt>
      <trkpt lat="47.99191" lon="7.06977">
        <ele>611.23474121</ele>
        <time>2021-06-17T12:34:44Z</time>
      </trkpt>
      <trkpt lat="47.992" lon="7.06983">
        <ele>609.7822876</ele>
        <time>2021-06-17T12:34:48Z</time>
      </trkpt>
      <trkpt lat="47.99209" lon="7.06993">
        <ele>609.7822876</ele>
        <time>2021-06-17T12:34:50Z</time>
      </trkpt>
      <trkpt lat="47.99219" lon="7.07003">
        <ele>608.4598999</ele>
        <time>2021-06-17T12:34:52Z</time>
      </trkpt>
      <trkpt lat="47.9923" lon="7.07012">
        <ele>607.17907715</ele>
        <time>2021-06-17T12:34:54Z</time>
      </trkpt>
      <trkpt lat="47.99247" lon="7.07024">
        <ele>607.17907715</ele>
        <time>2021-06-17T12:34:56Z</time>
      </trkpt>
      <trkpt lat="47.99265" lon="7.07036">
        <ele>605.89520264</ele>
        <time>2021-06-17T12:34:58Z</time>
      </trkpt>
      <trkpt lat="47.99278" lon="7.07046">
        <ele>604.5916748</ele>
        <time>2021-06-17T12:34:59Z</time>
      </trkpt>
      <trkpt lat="47.99289" lon="7.07055">
        <ele>603.5682373</ele>
        <time>2021-06-17T12:35:01Z</time>
      </trkpt>
      <trkpt lat="47.99305" lon="7.07066">
        <ele>603.5682373</ele>
        <time>2021-06-17T12:35:03Z</time>
      </trkpt>
      <trkpt lat="47.9932" lon="7.07074">
        <ele>602.48724365</ele>
        <time>2021-06-17T12:35:05Z</time>
      </trkpt>
      <trkpt lat="47.99337" lon="7.07079">
        <ele>601.36883545</ele>
        <time>2021-06-17T12:35:07Z</time>
      </trkpt>
      <trkpt lat="47.99355" lon="7.07084">
        <ele>601.36883545</ele>
        <time>2021-06-17T12:35:09Z</time>
      </trkpt>
      <trkpt lat="47.99371" lon="7.07089">
        <ele>600.29827881</ele>
        <time>2021-06-17T12:35:11Z</time>
      </trkpt>
      <trkpt lat="47.99385" lon="7.07094">
        <ele>600.29827881</ele>
        <time>2021-06-17T12:35:13Z</time>
      </trkpt>
      <trkpt lat="47.99398" lon="7.07099">
        <ele>599.24761963</ele>
        <time>2021-06-17T12:35:15Z</time>
      </trkpt>
      <trkpt lat="47.99412" lon="7.07103">
        <ele>597.97039795</ele>
        <time>2021-06-17T12:35:17Z</time>
      </trkpt>
      <trkpt lat="47.99424" lon="7.07106">
        <ele>597.97039795</ele>
        <time>2021-06-17T12:35:19Z</time>
      </trkpt>
      <trkpt lat="47.99435" lon="7.07112">
        <ele>596.76977539</ele>
        <time>2021-06-17T12:35:21Z</time>
      </trkpt>
      <trkpt lat="47.99445" lon="7.07121">
        <ele>596.76977539</ele>
        <time>2021-06-17T12:35:23Z</time>
      </trkpt>
      <trkpt lat="47.99452" lon="7.07135">
        <ele>595.79974365</ele>
        <time>2021-06-17T12:35:25Z</time>
      </trkpt>
      <trkpt lat="47.99456" lon="7.07153">
        <ele>595.79974365</ele>
        <time>2021-06-17T12:35:27Z</time>
      </trkpt>
      <trkpt lat="47.99456" lon="7.07157">
        <ele>594.89880371</ele>
        <time>2021-06-17T12:35:28Z</time>
      </trkpt>
      <trkpt lat="47.99459" lon="7.07173">
        <ele>594.89880371</ele>
        <time>2021-06-17T12:35:29Z</time>
      </trkpt>
      <trkpt lat="47.99465" lon="7.07192">
        <ele>594.89880371</ele>
        <time>2021-06-17T12:35:31Z</time>
      </trkpt>
      <trkpt lat="47.99473" lon="7.07209">
        <ele>594.89880371</ele>
        <time>2021-06-17T12:35:33Z</time>
      </trkpt>
      <trkpt lat="47.99482" lon="7.07221">
        <ele>594.89880371</ele>
        <time>2021-06-17T12:35:35Z</time>
      </trkpt>
      <trkpt lat="47.99493" lon="7.07231">
        <ele>594.00854492</ele>
        <time>2021-06-17T12:35:37Z</time>
      </trkpt>
      <trkpt lat="47.99505" lon="7.07239">
        <ele>594.00854492</ele>
        <time>2021-06-17T12:35:39Z</time>
      </trkpt>
      <trkpt lat="47.99517" lon="7.07247">
        <ele>594.00854492</ele>
        <time>2021-06-17T12:35:41Z</time>
      </trkpt>
      <trkpt lat="47.9953" lon="7.07254">
        <ele>592.99481201</ele>
        <time>2021-06-17T12:35:43Z</time>
      </trkpt>
      <trkpt lat="47.99543" lon="7.07258">
        <ele>592.99481201</ele>
        <time>2021-06-17T12:35:45Z</time>
      </trkpt>
      <trkpt lat="47.99556" lon="7.07263">
        <ele>591.64086914</ele>
        <time>2021-06-17T12:35:47Z</time>
      </trkpt>
      <trkpt lat="47.99571" lon="7.07267">
        <ele>591.64086914</ele>
        <time>2021-06-17T12:35:48Z</time>
      </trkpt>
      <trkpt lat="47.99584" lon="7.07271">
        <ele>590.26617432</ele>
        <time>2021-06-17T12:35:50Z</time>
      </trkpt>
      <trkpt lat="47.99598" lon="7.07273">
        <ele>590.26617432</ele>
        <time>2021-06-17T12:35:51Z</time>
      </trkpt>
      <trkpt lat="47.99609" lon="7.07275">
        <ele>588.96313477</ele>
        <time>2021-06-17T12:35:52Z</time>
      </trkpt>
      <trkpt lat="47.99619" lon="7.07276">
        <ele>588.96313477</ele>
        <time>2021-06-17T12:35:53Z</time>
      </trkpt>
      <trkpt lat="47.9963" lon="7.07279">
        <ele>588.96313477</ele>
        <time>2021-06-17T12:35:54Z</time>
      </trkpt>
      <trkpt lat="47.99641" lon="7.07283">
        <ele>587.77716064</ele>
        <time>2021-06-17T12:35:55Z</time>
      </trkpt>
      <trkpt lat="47.99651" lon="7.07288">
        <ele>587.77716064</ele>
        <time>2021-06-17T12:35:56Z</time>
      </trkpt>
      <trkpt lat="47.99659" lon="7.07296">
        <ele>587.77716064</ele>
        <time>2021-06-17T12:35:57Z</time>
      </trkpt>
      <trkpt lat="47.99667" lon="7.07305">
        <ele>586.45489502</ele>
        <time>2021-06-17T12:35:58Z</time>
      </trkpt>
      <trkpt lat="47.99674" lon="7.07314">
        <ele>586.45489502</ele>
        <time>2021-06-17T12:35:59Z</time>
      </trkpt>
      <trkpt lat="47.99683" lon="7.07326">
        <ele>586.45489502</ele>
        <time>2021-06-17T12:36:01Z</time>
      </trkpt>
      <trkpt lat="47.99696" lon="7.07343">
        <ele>585.24505615</ele>
        <time>2021-06-17T12:36:03Z</time>
      </trkpt>
      <trkpt lat="47.99707" lon="7.07358">
        <ele>585.24505615</ele>
        <time>2021-06-17T12:36:05Z</time>
      </trkpt>
      <trkpt lat="47.99717" lon="7.07372">
        <ele>584.06115723</ele>
        <time>2021-06-17T12:36:07Z</time>
      </trkpt>
      <trkpt lat="47.99728" lon="7.07386">
        <ele>584.06115723</ele>
        <time>2021-06-17T12:36:09Z</time>
      </trkpt>
      <trkpt lat="47.99739" lon="7.07397">
        <ele>584.06115723</ele>
        <time>2021-06-17T12:36:11Z</time>
      </trkpt>
      <trkpt lat="47.99751" lon="7.07407">
        <ele>582.93847656</ele>
        <time>2021-06-17T12:36:13Z</time>
      </trkpt>
      <trkpt lat="47.99764" lon="7.07415">
        <ele>582.93847656</ele>
        <time>2021-06-17T12:36:15Z</time>
      </trkpt>
      <trkpt lat="47.99777" lon="7.07422">
        <ele>582.93847656</ele>
        <time>2021-06-17T12:36:17Z</time>
      </trkpt>
      <trkpt lat="47.99789" lon="7.07428">
        <ele>581.8861084</ele>
        <time>2021-06-17T12:36:19Z</time>
      </trkpt>
      <trkpt lat="47.99801" lon="7.07437">
        <ele>581.8861084</ele>
        <time>2021-06-17T12:36:21Z</time>
      </trkpt>
      <trkpt lat="47.99814" lon="7.07448">
        <ele>581.8861084</ele>
        <time>2021-06-17T12:36:23Z</time>
      </trkpt>
      <trkpt lat="47.99826" lon="7.07457">
        <ele>581.8861084</ele>
        <time>2021-06-17T12:36:25Z</time>
      </trkpt>
      <trkpt lat="47.9984" lon="7.07464">
        <ele>580.84783936</ele>
        <time>2021-06-17T12:36:27Z</time>
      </trkpt>
      <trkpt lat="47.99844" lon="7.07465">
        <ele>580.19476318</ele>
        <time>2021-06-17T12:36:28Z</time>
      </trkpt>
      <trkpt lat="47.99854" lon="7.07467">
        <ele>580.19476318</ele>
        <time>2021-06-17T12:36:29Z</time>
      </trkpt>
      <trkpt lat="47.99869" lon="7.07466">
        <ele>580.19476318</ele>
        <time>2021-06-17T12:36:31Z</time>
      </trkpt>
      <trkpt lat="47.99884" lon="7.07467">
        <ele>579.48327637</ele>
        <time>2021-06-17T12:36:33Z</time>
      </trkpt>
      <trkpt lat="47.99898" lon="7.07464">
        <ele>578.25689697</ele>
        <time>2021-06-17T12:36:35Z</time>
      </trkpt>
      <trkpt lat="47.99912" lon="7.07463">
        <ele>578.25689697</ele>
        <time>2021-06-17T12:36:37Z</time>
      </trkpt>
      <trkpt lat="47.99928" lon="7.07463">
        <ele>576.9899292</ele>
        <time>2021-06-17T12:36:39Z</time>
      </trkpt>
      <trkpt lat="47.99943" lon="7.07463">
        <ele>575.68109131</ele>
        <time>2021-06-17T12:36:41Z</time>
      </trkpt>
      <trkpt lat="47.9996" lon="7.07462">
        <ele>575.68109131</ele>
        <time>2021-06-17T12:36:43Z</time>
      </trkpt>
      <trkpt lat="47.99976" lon="7.07463">
        <ele>574.36358643</ele>
        <time>2021-06-17T12:36:45Z</time>
      </trkpt>
      <trkpt lat="47.99989" lon="7.07465">
        <ele>574.36358643</ele>
        <time>2021-06-17T12:36:46Z</time>
      </trkpt>
      <trkpt lat="48.00002" lon="7.0747">
        <ele>573.08026123</ele>
        <time>2021-06-17T12:36:48Z</time>
      </trkpt>
      <trkpt lat="48.00015" lon="7.07474">
        <ele>573.08026123</ele>
        <time>2021-06-17T12:36:49Z</time>
      </trkpt>
      <trkpt lat="48.00024" lon="7.07479">
        <ele>573.08026123</ele>
        <time>2021-06-17T12:36:50Z</time>
      </trkpt>
      <trkpt lat="48.00033" lon="7.07482">
        <ele>571.8404541</ele>
        <time>2021-06-17T12:36:51Z</time>
      </trkpt>
      <trkpt lat="48.00043" lon="7.07485">
        <ele>571.8404541</ele>
        <time>2021-06-17T12:36:52Z</time>
      </trkpt>
      <trkpt lat="48.00056" lon="7.07488">
        <ele>571.8404541</ele>
        <time>2021-06-17T12:36:54Z</time>
      </trkpt>
      <trkpt lat="48.00073" lon="7.07491">
        <ele>570.70410156</ele>
        <time>2021-06-17T12:36:56Z</time>
      </trkpt>
      <trkpt lat="48.00091" lon="7.07494">
        <ele>570.70410156</ele>
        <time>2021-06-17T12:36:58Z</time>
      </trkpt>
      <trkpt lat="48.00105" lon="7.07495">
        <ele>569.56311035</ele>
        <time>2021-06-17T12:36:59Z</time>
      </trkpt>
      <trkpt lat="48.00114" lon="7.07496">
        <ele>569.56311035</ele>
        <time>2021-06-17T12:37:00Z</time>
      </trkpt>
      <trkpt lat="48.00123" lon="7.07497">
        <ele>569.56311035</ele>
        <time>2021-06-17T12:37:01Z</time>
      </trkpt>
      <trkpt lat="48.00137" lon="7.07498">
        <ele>568.49145508</ele>
        <time>2021-06-17T12:37:03Z</time>
      </trkpt>
      <trkpt lat="48.00151" lon="7.07499">
        <ele>568.49145508</ele>
        <time>2021-06-17T12:37:04Z</time>
      </trkpt>
      <trkpt lat="48.00164" lon="7.07498">
        <ele>567.41925049</ele>
        <time>2021-06-17T12:37:06Z</time>
      </trkpt>
      <trkpt lat="48.00179" lon="7.07497">
        <ele>567.41925049</ele>
        <time>2021-06-17T12:37:07Z</time>
      </trkpt>
      <trkpt lat="48.00189" lon="7.07497">
        <ele>567.41925049</ele>
        <time>2021-06-17T12:37:08Z</time>
      </trkpt>
      <trkpt lat="48.00199" lon="7.07498">
        <ele>566.32727051</ele>
        <time>2021-06-17T12:37:09Z</time>
      </trkpt>
      <trkpt lat="48.00209" lon="7.07497">
        <ele>566.32727051</ele>
        <time>2021-06-17T12:37:10Z</time>
      </trkpt>
      <trkpt lat="48.00218" lon="7.07496">
        <ele>566.32727051</ele>
        <time>2021-06-17T12:37:11Z</time>
      </trkpt>
      <trkpt lat="48.00228" lon="7.07494">
        <ele>566.32727051</ele>
        <time>2021-06-17T12:37:12Z</time>
      </trkpt>
      <trkpt lat="48.00238" lon="7.07492">
        <ele>565.14324951</ele>
        <time>2021-06-17T12:37:13Z</time>
      </trkpt>
      <trkpt lat="48.00248" lon="7.0749">
        <ele>565.14324951</ele>
        <time>2021-06-17T12:37:14Z</time>
      </trkpt>
      <trkpt lat="48.00258" lon="7.07487">
        <ele>565.14324951</ele>
        <time>2021-06-17T12:37:15Z</time>
      </trkpt>
      <trkpt lat="48.00271" lon="7.07485">
        <ele>563.95214844</ele>
        <time>2021-06-17T12:37:17Z</time>
      </trkpt>
      <trkpt lat="48.00285" lon="7.07481">
        <ele>563.95214844</ele>
        <time>2021-06-17T12:37:18Z</time>
      </trkpt>
      <trkpt lat="48.00295" lon="7.07478">
        <ele>563.95214844</ele>
        <time>2021-06-17T12:37:19Z</time>
      </trkpt>
      <trkpt lat="48.00304" lon="7.07475">
        <ele>562.7699585</ele>
        <time>2021-06-17T12:37:20Z</time>
      </trkpt>
      <trkpt lat="48.00314" lon="7.0747">
        <ele>562.7699585</ele>
        <time>2021-06-17T12:37:21Z</time>
      </trkpt>
      <trkpt lat="48.00324" lon="7.07466">
        <ele>562.7699585</ele>
        <time>2021-06-17T12:37:22Z</time>
      </trkpt>
      <trkpt lat="48.00333" lon="7.07463">
        <ele>562.7699585</ele>
        <time>2021-06-17T12:37:23Z</time>
      </trkpt>
      <trkpt lat="48.00342" lon="7.0746">
        <ele>561.69140625</ele>
        <time>2021-06-17T12:37:24Z</time>
      </trkpt>
      <trkpt lat="48.00352" lon="7.07457">
        <ele>561.69140625</ele>
        <time>2021-06-17T12:37:25Z</time>
      </trkpt>
      <trkpt lat="48.00362" lon="7.07454">
        <ele>561.69140625</ele>
        <time>2021-06-17T12:37:26Z</time>
      </trkpt>
      <trkpt lat="48.00372" lon="7.07449">
        <ele>561.69140625</ele>
        <time>2021-06-17T12:37:27Z</time>
      </trkpt>
      <trkpt lat="48.00381" lon="7.07445">
        <ele>559.96307373</ele>
        <time>2021-06-17T12:37:28Z</time>
      </trkpt>
      <trkpt lat="48.0039" lon="7.0744">
        <ele>559.96307373</ele>
        <time>2021-06-17T12:37:29Z</time>
      </trkpt>
      <trkpt lat="48.00402" lon="7.07433">
        <ele>559.96307373</ele>
        <time>2021-06-17T12:37:31Z</time>
      </trkpt>
      <trkpt lat="48.00414" lon="7.07425">
        <ele>559.96307373</ele>
        <time>2021-06-17T12:37:32Z</time>
      </trkpt>
      <trkpt lat="48.00423" lon="7.07421">
        <ele>559.24798584</ele>
        <time>2021-06-17T12:37:33Z</time>
      </trkpt>
      <trkpt lat="48.00433" lon="7.07417">
        <ele>559.24798584</ele>
        <time>2021-06-17T12:37:34Z</time>
      </trkpt>
      <trkpt lat="48.00442" lon="7.07414">
        <ele>559.24798584</ele>
        <time>2021-06-17T12:37:35Z</time>
      </trkpt>
      <trkpt lat="48.00452" lon="7.07409">
        <ele>559.24798584</ele>
        <time>2021-06-17T12:37:36Z</time>
      </trkpt>
      <trkpt lat="48.00461" lon="7.07406">
        <ele>559.24798584</ele>
        <time>2021-06-17T12:37:37Z</time>
      </trkpt>
      <trkpt lat="48.0047" lon="7.07403">
        <ele>559.24798584</ele>
        <time>2021-06-17T12:37:38Z</time>
      </trkpt>
      <trkpt lat="48.0048" lon="7.07399">
        <ele>558.23608398</ele>
        <time>2021-06-17T12:37:39Z</time>
      </trkpt>
      <trkpt lat="48.00489" lon="7.07396">
        <ele>558.23608398</ele>
        <time>2021-06-17T12:37:40Z</time>
      </trkpt>
      <trkpt lat="48.00499" lon="7.07393">
        <ele>558.23608398</ele>
        <time>2021-06-17T12:37:41Z</time>
      </trkpt>
      <trkpt lat="48.00512" lon="7.07387">
        <ele>558.23608398</ele>
        <time>2021-06-17T12:37:43Z</time>
      </trkpt>
      <trkpt lat="48.00526" lon="7.07381">
        <ele>557.14178467</ele>
        <time>2021-06-17T12:37:44Z</time>
      </trkpt>
      <trkpt lat="48.00534" lon="7.07378">
        <ele>557.14178467</ele>
        <time>2021-06-17T12:37:45Z</time>
      </trkpt>
      <trkpt lat="48.00544" lon="7.07374">
        <ele>557.14178467</ele>
        <time>2021-06-17T12:37:46Z</time>
      </trkpt>
      <trkpt lat="48.00552" lon="7.07369">
        <ele>557.14178467</ele>
        <time>2021-06-17T12:37:47Z</time>
      </trkpt>
      <trkpt lat="48.00562" lon="7.07365">
        <ele>555.9510498</ele>
        <time>2021-06-17T12:37:48Z</time>
      </trkpt>
      <trkpt lat="48.00571" lon="7.0736">
        <ele>555.9510498</ele>
        <time>2021-06-17T12:37:49Z</time>
      </trkpt>
      <trkpt lat="48.00581" lon="7.07356">
        <ele>555.9510498</ele>
        <time>2021-06-17T12:37:50Z</time>
      </trkpt>
      <trkpt lat="48.00591" lon="7.07352">
        <ele>554.72052002</ele>
        <time>2021-06-17T12:37:51Z</time>
      </trkpt>
      <trkpt lat="48.006" lon="7.07346">
        <ele>554.72052002</ele>
        <time>2021-06-17T12:37:52Z</time>
      </trkpt>
      <trkpt lat="48.00609" lon="7.0734">
        <ele>554.72052002</ele>
        <time>2021-06-17T12:37:53Z</time>
      </trkpt>
      <trkpt lat="48.00618" lon="7.07333">
        <ele>553.39178467</ele>
        <time>2021-06-17T12:37:54Z</time>
      </trkpt>
      <trkpt lat="48.00626" lon="7.07326">
        <ele>553.39178467</ele>
        <time>2021-06-17T12:37:55Z</time>
      </trkpt>
      <trkpt lat="48.00634" lon="7.07318">
        <ele>553.39178467</ele>
        <time>2021-06-17T12:37:56Z</time>
      </trkpt>
      <trkpt lat="48.00644" lon="7.0731">
        <ele>551.99066162</ele>
        <time>2021-06-17T12:37:57Z</time>
      </trkpt>
      <trkpt lat="48.00652" lon="7.07303">
        <ele>551.99066162</ele>
        <time>2021-06-17T12:37:58Z</time>
      </trkpt>
      <trkpt lat="48.0066" lon="7.07293">
        <ele>550.7800293</ele>
        <time>2021-06-17T12:37:59Z</time>
      </trkpt>
      <trkpt lat="48.00667" lon="7.07283">
        <ele>550.7800293</ele>
        <time>2021-06-17T12:38:00Z</time>
      </trkpt>
      <trkpt lat="48.00675" lon="7.07273">
        <ele>549.70281982</ele>
        <time>2021-06-17T12:38:01Z</time>
      </trkpt>
      <trkpt lat="48.00682" lon="7.07262">
        <ele>549.70281982</ele>
        <time>2021-06-17T12:38:02Z</time>
      </trkpt>
      <trkpt lat="48.00688" lon="7.0725">
        <ele>548.57958984</ele>
        <time>2021-06-17T12:38:03Z</time>
      </trkpt>
      <trkpt lat="48.00693" lon="7.07237">
        <ele>548.57958984</ele>
        <time>2021-06-17T12:38:04Z</time>
      </trkpt>
      <trkpt lat="48.00698" lon="7.07225">
        <ele>547.52355957</ele>
        <time>2021-06-17T12:38:05Z</time>
      </trkpt>
      <trkpt lat="48.00703" lon="7.07213">
        <ele>547.52355957</ele>
        <time>2021-06-17T12:38:06Z</time>
      </trkpt>
      <trkpt lat="48.00708" lon="7.072">
        <ele>546.47027588</ele>
        <time>2021-06-17T12:38:07Z</time>
      </trkpt>
      <trkpt lat="48.00714" lon="7.07184">
        <ele>545.41760254</ele>
        <time>2021-06-17T12:38:09Z</time>
      </trkpt>
      <trkpt lat="48.00721" lon="7.07164">
        <ele>545.41760254</ele>
        <time>2021-06-17T12:38:11Z</time>
      </trkpt>
      <trkpt lat="48.0073" lon="7.07145">
        <ele>544.28283691</ele>
        <time>2021-06-17T12:38:13Z</time>
      </trkpt>
      <trkpt lat="48.00742" lon="7.07129">
        <ele>542.95526123</ele>
        <time>2021-06-17T12:38:15Z</time>
      </trkpt>
      <trkpt lat="48.00756" lon="7.07118">
        <ele>542.95526123</ele>
        <time>2021-06-17T12:38:17Z</time>
      </trkpt>
      <trkpt lat="48.00771" lon="7.07112">
        <ele>541.74414062</ele>
        <time>2021-06-17T12:38:19Z</time>
      </trkpt>
      <trkpt lat="48.00786" lon="7.07109">
        <ele>541.74414062</ele>
        <time>2021-06-17T12:38:21Z</time>
      </trkpt>
      <trkpt lat="48.008" lon="7.07113">
        <ele>540.57727051</ele>
        <time>2021-06-17T12:38:23Z</time>
      </trkpt>
      <trkpt lat="48.00815" lon="7.0712">
        <ele>540.57727051</ele>
        <time>2021-06-17T12:38:25Z</time>
      </trkpt>
      <trkpt lat="48.00828" lon="7.07129">
        <ele>539.33190918</ele>
        <time>2021-06-17T12:38:27Z</time>
      </trkpt>
      <trkpt lat="48.00832" lon="7.0713">
        <ele>538.33648682</ele>
        <time>2021-06-17T12:38:28Z</time>
      </trkpt>
      <trkpt lat="48.00842" lon="7.07132">
        <ele>538.33648682</ele>
        <time>2021-06-17T12:38:29Z</time>
      </trkpt>
      <trkpt lat="48.00857" lon="7.07132">
        <ele>537.48406982</ele>
        <time>2021-06-17T12:38:31Z</time>
      </trkpt>
      <trkpt lat="48.00873" lon="7.07131">
        <ele>537.48406982</ele>
        <time>2021-06-17T12:38:33Z</time>
      </trkpt>
      <trkpt lat="48.00887" lon="7.07133">
        <ele>536.38641357</ele>
        <time>2021-06-17T12:38:35Z</time>
      </trkpt>
      <trkpt lat="48.009" lon="7.07136">
        <ele>536.38641357</ele>
        <time>2021-06-17T12:38:37Z</time>
      </trkpt>
      <trkpt lat="48.00913" lon="7.07128">
        <ele>535.22967529</ele>
        <time>2021-06-17T12:38:38Z</time>
      </trkpt>
      <trkpt lat="48.00925" lon="7.07122">
        <ele>535.22967529</ele>
        <time>2021-06-17T12:38:40Z</time>
      </trkpt>
      <trkpt lat="48.00942" lon="7.07117">
        <ele>534.08966064</ele>
        <time>2021-06-17T12:38:42Z</time>
      </trkpt>
      <trkpt lat="48.00958" lon="7.07112">
        <ele>534.08966064</ele>
        <time>2021-06-17T12:38:44Z</time>
      </trkpt>
      <trkpt lat="48.00975" lon="7.07109">
        <ele>534.08966064</ele>
        <time>2021-06-17T12:38:46Z</time>
      </trkpt>
      <trkpt lat="48.00991" lon="7.07108">
        <ele>533.05834961</ele>
        <time>2021-06-17T12:38:48Z</time>
      </trkpt>
      <trkpt lat="48.01005" lon="7.07108">
        <ele>533.05834961</ele>
        <time>2021-06-17T12:38:49Z</time>
      </trkpt>
      <trkpt lat="48.01018" lon="7.07104">
        <ele>533.05834961</ele>
        <time>2021-06-17T12:38:51Z</time>
      </trkpt>
      <trkpt lat="48.01035" lon="7.07097">
        <ele>533.05834961</ele>
        <time>2021-06-17T12:38:53Z</time>
      </trkpt>
      <trkpt lat="48.01049" lon="7.07087">
        <ele>531.91711426</ele>
        <time>2021-06-17T12:38:55Z</time>
      </trkpt>
      <trkpt lat="48.01062" lon="7.07077">
        <ele>531.91711426</ele>
        <time>2021-06-17T12:38:57Z</time>
      </trkpt>
      <trkpt lat="48.01077" lon="7.0707">
        <ele>530.71569824</ele>
        <time>2021-06-17T12:38:59Z</time>
      </trkpt>
      <trkpt lat="48.01092" lon="7.07065">
        <ele>530.71569824</ele>
        <time>2021-06-17T12:39:01Z</time>
      </trkpt>
      <trkpt lat="48.01107" lon="7.07064">
        <ele>530.71569824</ele>
        <time>2021-06-17T12:39:03Z</time>
      </trkpt>
      <trkpt lat="48.01123" lon="7.07069">
        <ele>529.43359375</ele>
        <time>2021-06-17T12:39:05Z</time>
      </trkpt>
      <trkpt lat="48.0114" lon="7.07077">
        <ele>529.43359375</ele>
        <time>2021-06-17T12:39:07Z</time>
      </trkpt>
      <trkpt lat="48.01152" lon="7.07084">
        <ele>528.19299316</ele>
        <time>2021-06-17T12:39:08Z</time>
      </trkpt>
      <trkpt lat="48.01164" lon="7.0709">
        <ele>528.19299316</ele>
        <time>2021-06-17T12:39:10Z</time>
      </trkpt>
      <trkpt lat="48.01179" lon="7.071">
        <ele>528.19299316</ele>
        <time>2021-06-17T12:39:12Z</time>
      </trkpt>
      <trkpt lat="48.01194" lon="7.07112">
        <ele>527.00695801</ele>
        <time>2021-06-17T12:39:14Z</time>
      </trkpt>
      <trkpt lat="48.01208" lon="7.07122">
        <ele>527.00695801</ele>
        <time>2021-06-17T12:39:16Z</time>
      </trkpt>
      <trkpt lat="48.01222" lon="7.07132">
        <ele>525.8973999</ele>
        <time>2021-06-17T12:39:18Z</time>
      </trkpt>
      <trkpt lat="48.01238" lon="7.07139">
        <ele>525.8973999</ele>
        <time>2021-06-17T12:39:20Z</time>
      </trkpt>
      <trkpt lat="48.01254" lon="7.07145">
        <ele>524.76947021</ele>
        <time>2021-06-17T12:39:22Z</time>
      </trkpt>
      <trkpt lat="48.01269" lon="7.07151">
        <ele>524.76947021</ele>
        <time>2021-06-17T12:39:24Z</time>
      </trkpt>
      <trkpt lat="48.01285" lon="7.07155">
        <ele>524.76947021</ele>
        <time>2021-06-17T12:39:26Z</time>
      </trkpt>
      <trkpt lat="48.01296" lon="7.07157">
        <ele>523.81494141</ele>
        <time>2021-06-17T12:39:28Z</time>
      </trkpt>
      <trkpt lat="48.01307" lon="7.07159">
        <ele>523.81494141</ele>
        <time>2021-06-17T12:39:29Z</time>
      </trkpt>
      <trkpt lat="48.01322" lon="7.0716">
        <ele>523.81494141</ele>
        <time>2021-06-17T12:39:31Z</time>
      </trkpt>
      <trkpt lat="48.01333" lon="7.07159">
        <ele>523.81494141</ele>
        <time>2021-06-17T12:39:33Z</time>
      </trkpt>
      <trkpt lat="48.01344" lon="7.07158">
        <ele>523.81494141</ele>
        <time>2021-06-17T12:39:35Z</time>
      </trkpt>
      <trkpt lat="48.01355" lon="7.07157">
        <ele>522.95800781</ele>
        <time>2021-06-17T12:39:37Z</time>
      </trkpt>
      <trkpt lat="48.01366" lon="7.07156">
        <ele>522.95800781</ele>
        <time>2021-06-17T12:39:39Z</time>
      </trkpt>
      <trkpt lat="48.01377" lon="7.07155">
        <ele>522.95800781</ele>
        <time>2021-06-17T12:39:41Z</time>
      </trkpt>
      <trkpt lat="48.01387" lon="7.07156">
        <ele>522.95800781</ele>
        <time>2021-06-17T12:39:43Z</time>
      </trkpt>
      <trkpt lat="48.01399" lon="7.07157">
        <ele>522.95800781</ele>
        <time>2021-06-17T12:39:45Z</time>
      </trkpt>
      <trkpt lat="48.0141" lon="7.07158">
        <ele>522.95800781</ele>
        <time>2021-06-17T12:39:47Z</time>
      </trkpt>
      <trkpt lat="48.01419" lon="7.07163">
        <ele>522.95800781</ele>
        <time>2021-06-17T12:39:49Z</time>
      </trkpt>
      <trkpt lat="48.01429" lon="7.0717">
        <ele>522.95800781</ele>
        <time>2021-06-17T12:39:51Z</time>
      </trkpt>
      <trkpt lat="48.01437" lon="7.07176">
        <ele>522.95800781</ele>
        <time>2021-06-17T12:39:53Z</time>
      </trkpt>
      <trkpt lat="48.01445" lon="7.07185">
        <ele>522.95800781</ele>
        <time>2021-06-17T12:39:55Z</time>
      </trkpt>
      <trkpt lat="48.01453" lon="7.07192">
        <ele>522.95800781</ele>
        <time>2021-06-17T12:39:57Z</time>
      </trkpt>
      <trkpt lat="48.0146" lon="7.07202">
        <ele>522.51818848</ele>
        <time>2021-06-17T12:39:59Z</time>
      </trkpt>
      <trkpt lat="48.01467" lon="7.07211">
        <ele>522.51818848</ele>
        <time>2021-06-17T12:40:01Z</time>
      </trkpt>
      <trkpt lat="48.01474" lon="7.0722">
        <ele>522.51818848</ele>
        <time>2021-06-17T12:40:04Z</time>
      </trkpt>
      <trkpt lat="48.01484" lon="7.0723">
        <ele>524.19244385</ele>
        <time>2021-06-17T12:40:07Z</time>
      </trkpt>
      <trkpt lat="48.01494" lon="7.07242">
        <ele>524.19244385</ele>
        <time>2021-06-17T12:40:10Z</time>
      </trkpt>
      <trkpt lat="48.01505" lon="7.0725">
        <ele>524.19244385</ele>
        <time>2021-06-17T12:40:13Z</time>
      </trkpt>
      <trkpt lat="48.01515" lon="7.07257">
        <ele>524.19244385</ele>
        <time>2021-06-17T12:40:15Z</time>
      </trkpt>
      <trkpt lat="48.01523" lon="7.07264">
        <ele>524.19244385</ele>
        <time>2021-06-17T12:40:17Z</time>
      </trkpt>
      <trkpt lat="48.01531" lon="7.07272">
        <ele>525.18255615</ele>
        <time>2021-06-17T12:40:19Z</time>
      </trkpt>
      <trkpt lat="48.01539" lon="7.0728">
        <ele>525.18255615</ele>
        <time>2021-06-17T12:40:22Z</time>
      </trkpt>
      <trkpt lat="48.01545" lon="7.0729">
        <ele>525.18255615</ele>
        <time>2021-06-17T12:40:26Z</time>
      </trkpt>
      <trkpt lat="48.01548" lon="7.07297">
        <ele>526.23608398</ele>
        <time>2021-06-17T12:40:28Z</time>
      </trkpt>
      <trkpt lat="48.01553" lon="7.07303">
        <ele>526.23608398</ele>
        <time>2021-06-17T12:40:31Z</time>
      </trkpt>
      <trkpt lat="48.01561" lon="7.07312">
        <ele>526.23608398</ele>
        <time>2021-06-17T12:40:35Z</time>
      </trkpt>
      <trkpt lat="48.01571" lon="7.0732">
        <ele>526.23608398</ele>
        <time>2021-06-17T12:40:38Z</time>
      </trkpt>
      <trkpt lat="48.01582" lon="7.07328">
        <ele>526.23608398</ele>
        <time>2021-06-17T12:40:41Z</time>
      </trkpt>
      <trkpt lat="48.01593" lon="7.07334">
        <ele>526.23608398</ele>
        <time>2021-06-17T12:40:44Z</time>
      </trkpt>
      <trkpt lat="48.01604" lon="7.0734">
        <ele>526.23608398</ele>
        <time>2021-06-17T12:40:46Z</time>
      </trkpt>
      <trkpt lat="48.01613" lon="7.07344">
        <ele>526.23608398</ele>
        <time>2021-06-17T12:40:48Z</time>
      </trkpt>
      <trkpt lat="48.01622" lon="7.07348">
        <ele>526.23608398</ele>
        <time>2021-06-17T12:40:50Z</time>
      </trkpt>
      <trkpt lat="48.01632" lon="7.07352">
        <ele>526.23608398</ele>
        <time>2021-06-17T12:40:52Z</time>
      </trkpt>
      <trkpt lat="48.01641" lon="7.07358">
        <ele>526.23608398</ele>
        <time>2021-06-17T12:40:54Z</time>
      </trkpt>
      <trkpt lat="48.0165" lon="7.07363">
        <ele>526.23608398</ele>
        <time>2021-06-17T12:40:56Z</time>
      </trkpt>
      <trkpt lat="48.0166" lon="7.07365">
        <ele>526.23608398</ele>
        <time>2021-06-17T12:40:58Z</time>
      </trkpt>
      <trkpt lat="48.01669" lon="7.07367">
        <ele>526.23608398</ele>
        <time>2021-06-17T12:41:00Z</time>
      </trkpt>
      <trkpt lat="48.01679" lon="7.07371">
        <ele>526.23608398</ele>
        <time>2021-06-17T12:41:02Z</time>
      </trkpt>
      <trkpt lat="48.01689" lon="7.07376">
        <ele>526.23608398</ele>
        <time>2021-06-17T12:41:04Z</time>
      </trkpt>
      <trkpt lat="48.01701" lon="7.07381">
        <ele>526.23608398</ele>
        <time>2021-06-17T12:41:06Z</time>
      </trkpt>
      <trkpt lat="48.01713" lon="7.07388">
        <ele>526.47290039</ele>
        <time>2021-06-17T12:41:08Z</time>
      </trkpt>
      <trkpt lat="48.01726" lon="7.07394">
        <ele>526.47290039</ele>
        <time>2021-06-17T12:41:10Z</time>
      </trkpt>
      <trkpt lat="48.01738" lon="7.07401">
        <ele>526.47290039</ele>
        <time>2021-06-17T12:41:12Z</time>
      </trkpt>
      <trkpt lat="48.0175" lon="7.0741">
        <ele>524.8684082</ele>
        <time>2021-06-17T12:41:14Z</time>
      </trkpt>
      <trkpt lat="48.01764" lon="7.07419">
        <ele>524.8684082</ele>
        <time>2021-06-17T12:41:16Z</time>
      </trkpt>
      <trkpt lat="48.01778" lon="7.0743">
        <ele>524.8684082</ele>
        <time>2021-06-17T12:41:18Z</time>
      </trkpt>
      <trkpt lat="48.01792" lon="7.07442">
        <ele>523.74298096</ele>
        <time>2021-06-17T12:41:20Z</time>
      </trkpt>
      <trkpt lat="48.01806" lon="7.07453">
        <ele>523.74298096</ele>
        <time>2021-06-17T12:41:22Z</time>
      </trkpt>
      <trkpt lat="48.01819" lon="7.07464">
        <ele>523.74298096</ele>
        <time>2021-06-17T12:41:24Z</time>
      </trkpt>
      <trkpt lat="48.01833" lon="7.07473">
        <ele>523.74298096</ele>
        <time>2021-06-17T12:41:26Z</time>
      </trkpt>
      <trkpt lat="48.01843" lon="7.07479">
        <ele>522.08850098</ele>
        <time>2021-06-17T12:41:28Z</time>
      </trkpt>
      <trkpt lat="48.01854" lon="7.07484">
        <ele>522.08850098</ele>
        <time>2021-06-17T12:41:29Z</time>
      </trkpt>
      <trkpt lat="48.01869" lon="7.0749">
        <ele>522.08850098</ele>
        <time>2021-06-17T12:41:31Z</time>
      </trkpt>
      <trkpt lat="48.01885" lon="7.07495">
        <ele>522.08850098</ele>
        <time>2021-06-17T12:41:33Z</time>
      </trkpt>
      <trkpt lat="48.01902" lon="7.07499">
        <ele>521.44439697</ele>
        <time>2021-06-17T12:41:35Z</time>
      </trkpt>
      <trkpt lat="48.01918" lon="7.07501">
        <ele>521.44439697</ele>
        <time>2021-06-17T12:41:37Z</time>
      </trkpt>
      <trkpt lat="48.01935" lon="7.07504">
        <ele>521.44439697</ele>
        <time>2021-06-17T12:41:39Z</time>
      </trkpt>
      <trkpt lat="48.01951" lon="7.07506">
        <ele>520.37805176</ele>
        <time>2021-06-17T12:41:41Z</time>
      </trkpt>
      <trkpt lat="48.01967" lon="7.0751">
        <ele>520.37805176</ele>
        <time>2021-06-17T12:41:43Z</time>
      </trkpt>
      <trkpt lat="48.0198" lon="7.07514">
        <ele>519.21313477</ele>
        <time>2021-06-17T12:41:44Z</time>
      </trkpt>
      <trkpt lat="48.01989" lon="7.07518">
        <ele>519.21313477</ele>
        <time>2021-06-17T12:41:45Z</time>
      </trkpt>
      <trkpt lat="48.02" lon="7.07524">
        <ele>519.21313477</ele>
        <time>2021-06-17T12:41:47Z</time>
      </trkpt>
      <trkpt lat="48.02013" lon="7.07531">
        <ele>519.21313477</ele>
        <time>2021-06-17T12:41:48Z</time>
      </trkpt>
      <trkpt lat="48.02021" lon="7.07535">
        <ele>519.21313477</ele>
        <time>2021-06-17T12:41:49Z</time>
      </trkpt>
      <trkpt lat="48.02034" lon="7.07543">
        <ele>519.21313477</ele>
        <time>2021-06-17T12:41:51Z</time>
      </trkpt>
      <trkpt lat="48.02049" lon="7.07554">
        <ele>519.21313477</ele>
        <time>2021-06-17T12:41:53Z</time>
      </trkpt>
      <trkpt lat="48.02064" lon="7.07564">
        <ele>519.21313477</ele>
        <time>2021-06-17T12:41:55Z</time>
      </trkpt>
      <trkpt lat="48.02078" lon="7.07574">
        <ele>519.21313477</ele>
        <time>2021-06-17T12:41:57Z</time>
      </trkpt>
      <trkpt lat="48.02091" lon="7.07583">
        <ele>519.21313477</ele>
        <time>2021-06-17T12:41:59Z</time>
      </trkpt>
      <trkpt lat="48.02105" lon="7.07593">
        <ele>519.21313477</ele>
        <time>2021-06-17T12:42:01Z</time>
      </trkpt>
      <trkpt lat="48.02118" lon="7.07603">
        <ele>519.21313477</ele>
        <time>2021-06-17T12:42:03Z</time>
      </trkpt>
      <trkpt lat="48.02131" lon="7.07612">
        <ele>519.21313477</ele>
        <time>2021-06-17T12:42:05Z</time>
      </trkpt>
      <trkpt lat="48.02144" lon="7.07621">
        <ele>518.00689697</ele>
        <time>2021-06-17T12:42:07Z</time>
      </trkpt>
      <trkpt lat="48.02166" lon="7.07641">
        <ele>518.00689697</ele>
        <time>2021-06-17T12:42:11Z</time>
      </trkpt>
      <trkpt lat="48.02179" lon="7.07651">
        <ele>518.00689697</ele>
        <time>2021-06-17T12:42:13Z</time>
      </trkpt>
      <trkpt lat="48.02193" lon="7.07663">
        <ele>517.17144775</ele>
        <time>2021-06-17T12:42:15Z</time>
      </trkpt>
      <trkpt lat="48.02206" lon="7.07677">
        <ele>517.17144775</ele>
        <time>2021-06-17T12:42:17Z</time>
      </trkpt>
      <trkpt lat="48.02218" lon="7.07691">
        <ele>517.17144775</ele>
        <time>2021-06-17T12:42:19Z</time>
      </trkpt>
      <trkpt lat="48.02231" lon="7.07708">
        <ele>516.03057861</ele>
        <time>2021-06-17T12:42:21Z</time>
      </trkpt>
      <trkpt lat="48.02242" lon="7.07724">
        <ele>516.03057861</ele>
        <time>2021-06-17T12:42:23Z</time>
      </trkpt>
      <trkpt lat="48.02253" lon="7.07743">
        <ele>516.03057861</ele>
        <time>2021-06-17T12:42:25Z</time>
      </trkpt>
      <trkpt lat="48.02264" lon="7.07762">
        <ele>514.91131592</ele>
        <time>2021-06-17T12:42:27Z</time>
      </trkpt>
      <trkpt lat="48.02267" lon="7.07767">
        <ele>514.30895996</ele>
        <time>2021-06-17T12:42:28Z</time>
      </trkpt>
      <trkpt lat="48.02275" lon="7.07781">
        <ele>514.30895996</ele>
        <time>2021-06-17T12:42:29Z</time>
      </trkpt>
      <trkpt lat="48.02285" lon="7.07799">
        <ele>514.30895996</ele>
        <time>2021-06-17T12:42:31Z</time>
      </trkpt>
      <trkpt lat="48.02294" lon="7.07817">
        <ele>514.30895996</ele>
        <time>2021-06-17T12:42:33Z</time>
      </trkpt>
      <trkpt lat="48.02305" lon="7.07834">
        <ele>514.30895996</ele>
        <time>2021-06-17T12:42:35Z</time>
      </trkpt>
      <trkpt lat="48.02315" lon="7.0785">
        <ele>514.30895996</ele>
        <time>2021-06-17T12:42:37Z</time>
      </trkpt>
      <trkpt lat="48.02325" lon="7.07866">
        <ele>514.30895996</ele>
        <time>2021-06-17T12:42:39Z</time>
      </trkpt>
      <trkpt lat="48.02335" lon="7.07883">
        <ele>513.71826172</ele>
        <time>2021-06-17T12:42:41Z</time>
      </trkpt>
      <trkpt lat="48.02345" lon="7.079">
        <ele>513.71826172</ele>
        <time>2021-06-17T12:42:43Z</time>
      </trkpt>
      <trkpt lat="48.02355" lon="7.07916">
        <ele>513.71826172</ele>
        <time>2021-06-17T12:42:45Z</time>
      </trkpt>
      <trkpt lat="48.02366" lon="7.07933">
        <ele>513.71826172</ele>
        <time>2021-06-17T12:42:47Z</time>
      </trkpt>
      <trkpt lat="48.02375" lon="7.07948">
        <ele>513.71826172</ele>
        <time>2021-06-17T12:42:49Z</time>
      </trkpt>
      <trkpt lat="48.02385" lon="7.07963">
        <ele>513.71826172</ele>
        <time>2021-06-17T12:42:51Z</time>
      </trkpt>
      <trkpt lat="48.02394" lon="7.07976">
        <ele>513.71826172</ele>
        <time>2021-06-17T12:42:53Z</time>
      </trkpt>
      <trkpt lat="48.02403" lon="7.0799">
        <ele>513.71826172</ele>
        <time>2021-06-17T12:42:55Z</time>
      </trkpt>
      <trkpt lat="48.0241" lon="7.08003">
        <ele>513.71826172</ele>
        <time>2021-06-17T12:42:57Z</time>
      </trkpt>
      <trkpt lat="48.02416" lon="7.08015">
        <ele>513.71826172</ele>
        <time>2021-06-17T12:42:59Z</time>
      </trkpt>
      <trkpt lat="48.02423" lon="7.08026">
        <ele>513.71826172</ele>
        <time>2021-06-17T12:43:01Z</time>
      </trkpt>
      <trkpt lat="48.0243" lon="7.08039">
        <ele>513.2611084</ele>
        <time>2021-06-17T12:43:04Z</time>
      </trkpt>
      <trkpt lat="48.02437" lon="7.08053">
        <ele>513.2611084</ele>
        <time>2021-06-17T12:43:06Z</time>
      </trkpt>
      <trkpt lat="48.02443" lon="7.08065">
        <ele>513.2611084</ele>
        <time>2021-06-17T12:43:08Z</time>
      </trkpt>
      <trkpt lat="48.02449" lon="7.08079">
        <ele>515.07519531</ele>
        <time>2021-06-17T12:43:11Z</time>
      </trkpt>
      <trkpt lat="48.02454" lon="7.08094">
        <ele>516.20758057</ele>
        <time>2021-06-17T12:43:13Z</time>
      </trkpt>
      <trkpt lat="48.02461" lon="7.08108">
        <ele>516.20758057</ele>
        <time>2021-06-17T12:43:16Z</time>
      </trkpt>
      <trkpt lat="48.02467" lon="7.08123">
        <ele>516.20758057</ele>
        <time>2021-06-17T12:43:18Z</time>
      </trkpt>
      <trkpt lat="48.02473" lon="7.08135">
        <ele>517.26928711</ele>
        <time>2021-06-17T12:43:20Z</time>
      </trkpt>
      <trkpt lat="48.0248" lon="7.08147">
        <ele>517.26928711</ele>
        <time>2021-06-17T12:43:23Z</time>
      </trkpt>
      <trkpt lat="48.02486" lon="7.08159">
        <ele>518.4085083</ele>
        <time>2021-06-17T12:43:25Z</time>
      </trkpt>
      <trkpt lat="48.02493" lon="7.08168">
        <ele>518.4085083</ele>
        <time>2021-06-17T12:43:27Z</time>
      </trkpt>
      <trkpt lat="48.02494" lon="7.08171">
        <ele>519.45733643</ele>
        <time>2021-06-17T12:43:28Z</time>
      </trkpt>
      <trkpt lat="48.02501" lon="7.0818">
        <ele>519.45733643</ele>
        <time>2021-06-17T12:43:29Z</time>
      </trkpt>
      <trkpt lat="48.02508" lon="7.08192">
        <ele>519.45733643</ele>
        <time>2021-06-17T12:43:31Z</time>
      </trkpt>
      <trkpt lat="48.02516" lon="7.08204">
        <ele>519.45733643</ele>
        <time>2021-06-17T12:43:33Z</time>
      </trkpt>
      <trkpt lat="48.02523" lon="7.08214">
        <ele>520.42810059</ele>
        <time>2021-06-17T12:43:35Z</time>
      </trkpt>
      <trkpt lat="48.0253" lon="7.08225">
        <ele>520.42810059</ele>
        <time>2021-06-17T12:43:38Z</time>
      </trkpt>
      <trkpt lat="48.02536" lon="7.0824">
        <ele>520.42810059</ele>
        <time>2021-06-17T12:43:41Z</time>
      </trkpt>
      <trkpt lat="48.02543" lon="7.08257">
        <ele>520.42810059</ele>
        <time>2021-06-17T12:43:44Z</time>
      </trkpt>
      <trkpt lat="48.02549" lon="7.08275">
        <ele>520.42810059</ele>
        <time>2021-06-17T12:43:46Z</time>
      </trkpt>
      <trkpt lat="48.02551" lon="7.08294">
        <ele>520.71643066</ele>
        <time>2021-06-17T12:43:48Z</time>
      </trkpt>
      <trkpt lat="48.02553" lon="7.08314">
        <ele>520.71643066</ele>
        <time>2021-06-17T12:43:50Z</time>
      </trkpt>
      <trkpt lat="48.02553" lon="7.08337">
        <ele>518.70501709</ele>
        <time>2021-06-17T12:43:52Z</time>
      </trkpt>
      <trkpt lat="48.02553" lon="7.08362">
        <ele>517.26055908</ele>
        <time>2021-06-17T12:43:54Z</time>
      </trkpt>
      <trkpt lat="48.02552" lon="7.08383">
        <ele>517.26055908</ele>
        <time>2021-06-17T12:43:55Z</time>
      </trkpt>
      <trkpt lat="48.02552" lon="7.08398">
        <ele>517.26055908</ele>
        <time>2021-06-17T12:43:56Z</time>
      </trkpt>
      <trkpt lat="48.02552" lon="7.08412">
        <ele>515.86187744</ele>
        <time>2021-06-17T12:43:57Z</time>
      </trkpt>
      <trkpt lat="48.02552" lon="7.08427">
        <ele>515.86187744</ele>
        <time>2021-06-17T12:43:58Z</time>
      </trkpt>
      <trkpt lat="48.02552" lon="7.08446">
        <ele>514.66088867</ele>
        <time>2021-06-17T12:44:00Z</time>
      </trkpt>
      <trkpt lat="48.02551" lon="7.08466">
        <ele>514.66088867</ele>
        <time>2021-06-17T12:44:02Z</time>
      </trkpt>
      <trkpt lat="48.02552" lon="7.0848">
        <ele>513.4967041</ele>
        <time>2021-06-17T12:44:07Z</time>
      </trkpt>
      <trkpt lat="48.02554" lon="7.08519">
        <ele>512.49401855</ele>
        <time>2021-06-17T12:44:12Z</time>
      </trkpt>
      <trkpt lat="48.02557" lon="7.08535">
        <ele>511.26177979</ele>
        <time>2021-06-17T12:44:14Z</time>
      </trkpt>
      <trkpt lat="48.02561" lon="7.08552">
        <ele>511.26177979</ele>
        <time>2021-06-17T12:44:16Z</time>
      </trkpt>
      <trkpt lat="48.02564" lon="7.08569">
        <ele>511.26177979</ele>
        <time>2021-06-17T12:44:18Z</time>
      </trkpt>
      <trkpt lat="48.02567" lon="7.08587">
        <ele>511.26177979</ele>
        <time>2021-06-17T12:44:20Z</time>
      </trkpt>
      <trkpt lat="48.02573" lon="7.08603">
        <ele>511.26177979</ele>
        <time>2021-06-17T12:44:22Z</time>
      </trkpt>
      <trkpt lat="48.02576" lon="7.08619">
        <ele>511.26177979</ele>
        <time>2021-06-17T12:44:24Z</time>
      </trkpt>
      <trkpt lat="48.02578" lon="7.08635">
        <ele>511.26177979</ele>
        <time>2021-06-17T12:44:26Z</time>
      </trkpt>
      <trkpt lat="48.0258" lon="7.08646">
        <ele>510.68151855</ele>
        <time>2021-06-17T12:44:28Z</time>
      </trkpt>
      <trkpt lat="48.02583" lon="7.08658">
        <ele>510.68151855</ele>
        <time>2021-06-17T12:44:29Z</time>
      </trkpt>
      <trkpt lat="48.02584" lon="7.08675">
        <ele>510.68151855</ele>
        <time>2021-06-17T12:44:31Z</time>
      </trkpt>
      <trkpt lat="48.02585" lon="7.08691">
        <ele>510.68151855</ele>
        <time>2021-06-17T12:44:33Z</time>
      </trkpt>
      <trkpt lat="48.02584" lon="7.08708">
        <ele>510.68151855</ele>
        <time>2021-06-17T12:44:35Z</time>
      </trkpt>
      <trkpt lat="48.02585" lon="7.08726">
        <ele>510.24960327</ele>
        <time>2021-06-17T12:44:37Z</time>
      </trkpt>
      <trkpt lat="48.0258" lon="7.0877">
        <ele>508.8470459</ele>
        <time>2021-06-17T12:44:41Z</time>
      </trkpt>
      <trkpt lat="48.02578" lon="7.0879">
        <ele>508.8470459</ele>
        <time>2021-06-17T12:44:42Z</time>
      </trkpt>
      <trkpt lat="48.02576" lon="7.08804">
        <ele>507.67605591</ele>
        <time>2021-06-17T12:44:43Z</time>
      </trkpt>
      <trkpt lat="48.02574" lon="7.08817">
        <ele>507.67605591</ele>
        <time>2021-06-17T12:44:44Z</time>
      </trkpt>
      <trkpt lat="48.02572" lon="7.08832">
        <ele>507.67605591</ele>
        <time>2021-06-17T12:44:45Z</time>
      </trkpt>
      <trkpt lat="48.02571" lon="7.08847">
        <ele>506.53302002</ele>
        <time>2021-06-17T12:44:46Z</time>
      </trkpt>
      <trkpt lat="48.0257" lon="7.08861">
        <ele>506.53302002</ele>
        <time>2021-06-17T12:44:47Z</time>
      </trkpt>
      <trkpt lat="48.02569" lon="7.08876">
        <ele>506.53302002</ele>
        <time>2021-06-17T12:44:48Z</time>
      </trkpt>
      <trkpt lat="48.02568" lon="7.0889">
        <ele>505.23754883</ele>
        <time>2021-06-17T12:44:49Z</time>
      </trkpt>
      <trkpt lat="48.02569" lon="7.08904">
        <ele>505.23754883</ele>
        <time>2021-06-17T12:44:50Z</time>
      </trkpt>
      <trkpt lat="48.02571" lon="7.0892">
        <ele>505.23754883</ele>
        <time>2021-06-17T12:44:51Z</time>
      </trkpt>
      <trkpt lat="48.02573" lon="7.08935">
        <ele>503.90652466</ele>
        <time>2021-06-17T12:44:52Z</time>
      </trkpt>
      <trkpt lat="48.02576" lon="7.08951">
        <ele>503.90652466</ele>
        <time>2021-06-17T12:44:53Z</time>
      </trkpt>
      <trkpt lat="48.02579" lon="7.08967">
        <ele>503.90652466</ele>
        <time>2021-06-17T12:44:54Z</time>
      </trkpt>
      <trkpt lat="48.02583" lon="7.08982">
        <ele>502.6178894</ele>
        <time>2021-06-17T12:44:55Z</time>
      </trkpt>
      <trkpt lat="48.02587" lon="7.08997">
        <ele>502.6178894</ele>
        <time>2021-06-17T12:44:56Z</time>
      </trkpt>
      <trkpt lat="48.0259" lon="7.09013">
        <ele>502.6178894</ele>
        <time>2021-06-17T12:44:57Z</time>
      </trkpt>
      <trkpt lat="48.02594" lon="7.09028">
        <ele>502.6178894</ele>
        <time>2021-06-17T12:44:58Z</time>
      </trkpt>
      <trkpt lat="48.02598" lon="7.09043">
        <ele>502.6178894</ele>
        <time>2021-06-17T12:44:59Z</time>
      </trkpt>
      <trkpt lat="48.02601" lon="7.09058">
        <ele>501.53448486</ele>
        <time>2021-06-17T12:45:00Z</time>
      </trkpt>
      <trkpt lat="48.02605" lon="7.09073">
        <ele>501.53448486</ele>
        <time>2021-06-17T12:45:01Z</time>
      </trkpt>
      <trkpt lat="48.02607" lon="7.09088">
        <ele>501.53448486</ele>
        <time>2021-06-17T12:45:02Z</time>
      </trkpt>
      <trkpt lat="48.02607" lon="7.09104">
        <ele>501.53448486</ele>
        <time>2021-06-17T12:45:03Z</time>
      </trkpt>
      <trkpt lat="48.02607" lon="7.0912">
        <ele>501.53448486</ele>
        <time>2021-06-17T12:45:04Z</time>
      </trkpt>
      <trkpt lat="48.02606" lon="7.09136">
        <ele>500.41793823</ele>
        <time>2021-06-17T12:45:05Z</time>
      </trkpt>
      <trkpt lat="48.02605" lon="7.09152">
        <ele>500.41793823</ele>
        <time>2021-06-17T12:45:06Z</time>
      </trkpt>
      <trkpt lat="48.02603" lon="7.09167">
        <ele>500.41793823</ele>
        <time>2021-06-17T12:45:07Z</time>
      </trkpt>
      <trkpt lat="48.02603" lon="7.09184">
        <ele>499.11364746</ele>
        <time>2021-06-17T12:45:08Z</time>
      </trkpt>
      <trkpt lat="48.02602" lon="7.09199">
        <ele>499.11364746</ele>
        <time>2021-06-17T12:45:09Z</time>
      </trkpt>
      <trkpt lat="48.02601" lon="7.09215">
        <ele>499.11364746</ele>
        <time>2021-06-17T12:45:10Z</time>
      </trkpt>
      <trkpt lat="48.02599" lon="7.09231">
        <ele>497.68826294</ele>
        <time>2021-06-17T12:45:11Z</time>
      </trkpt>
      <trkpt lat="48.02597" lon="7.09248">
        <ele>497.68826294</ele>
        <time>2021-06-17T12:45:12Z</time>
      </trkpt>
      <trkpt lat="48.02595" lon="7.09264">
        <ele>497.68826294</ele>
        <time>2021-06-17T12:45:13Z</time>
      </trkpt>
      <trkpt lat="48.02593" lon="7.0928">
        <ele>496.34747314</ele>
        <time>2021-06-17T12:45:14Z</time>
      </trkpt>
      <trkpt lat="48.02592" lon="7.09297">
        <ele>496.34747314</ele>
        <time>2021-06-17T12:45:15Z</time>
      </trkpt>
      <trkpt lat="48.02591" lon="7.09313">
        <ele>495.09521484</ele>
        <time>2021-06-17T12:45:16Z</time>
      </trkpt>
      <trkpt lat="48.0259" lon="7.09331">
        <ele>495.09521484</ele>
        <time>2021-06-17T12:45:17Z</time>
      </trkpt>
      <trkpt lat="48.02589" lon="7.09348">
        <ele>495.09521484</ele>
        <time>2021-06-17T12:45:18Z</time>
      </trkpt>
      <trkpt lat="48.02589" lon="7.09365">
        <ele>493.9367981</ele>
        <time>2021-06-17T12:45:19Z</time>
      </trkpt>
      <trkpt lat="48.02587" lon="7.09383">
        <ele>493.9367981</ele>
        <time>2021-06-17T12:45:20Z</time>
      </trkpt>
      <trkpt lat="48.02586" lon="7.094">
        <ele>493.9367981</ele>
        <time>2021-06-17T12:45:21Z</time>
      </trkpt>
      <trkpt lat="48.02586" lon="7.09416">
        <ele>493.9367981</ele>
        <time>2021-06-17T12:45:22Z</time>
      </trkpt>
      <trkpt lat="48.02585" lon="7.09432">
        <ele>492.71984863</ele>
        <time>2021-06-17T12:45:23Z</time>
      </trkpt>
      <trkpt lat="48.02585" lon="7.09448">
        <ele>492.71984863</ele>
        <time>2021-06-17T12:45:24Z</time>
      </trkpt>
      <trkpt lat="48.02585" lon="7.09463">
        <ele>492.71984863</ele>
        <time>2021-06-17T12:45:25Z</time>
      </trkpt>
      <trkpt lat="48.02585" lon="7.09477">
        <ele>492.71984863</ele>
        <time>2021-06-17T12:45:26Z</time>
      </trkpt>
      <trkpt lat="48.02586" lon="7.09491">
        <ele>492.71984863</ele>
        <time>2021-06-17T12:45:27Z</time>
      </trkpt>
      <trkpt lat="48.02587" lon="7.09507">
        <ele>491.32086182</ele>
        <time>2021-06-17T12:45:28Z</time>
      </trkpt>
      <trkpt lat="48.02589" lon="7.09521">
        <ele>491.32086182</ele>
        <time>2021-06-17T12:45:29Z</time>
      </trkpt>
      <trkpt lat="48.02591" lon="7.09534">
        <ele>491.32086182</ele>
        <time>2021-06-17T12:45:30Z</time>
      </trkpt>
      <trkpt lat="48.02596" lon="7.09553">
        <ele>491.32086182</ele>
        <time>2021-06-17T12:45:32Z</time>
      </trkpt>
      <trkpt lat="48.02602" lon="7.09576">
        <ele>490.66448975</ele>
        <time>2021-06-17T12:45:34Z</time>
      </trkpt>
      <trkpt lat="48.02611" lon="7.09599">
        <ele>490.66448975</ele>
        <time>2021-06-17T12:45:36Z</time>
      </trkpt>
      <trkpt lat="48.02619" lon="7.09616">
        <ele>490.66448975</ele>
        <time>2021-06-17T12:45:37Z</time>
      </trkpt>
      <trkpt lat="48.02625" lon="7.09633">
        <ele>489.50830078</ele>
        <time>2021-06-17T12:45:39Z</time>
      </trkpt>
      <trkpt lat="48.02632" lon="7.0965">
        <ele>489.50830078</ele>
        <time>2021-06-17T12:45:40Z</time>
      </trkpt>
      <trkpt lat="48.02638" lon="7.09663">
        <ele>489.50830078</ele>
        <time>2021-06-17T12:45:41Z</time>
      </trkpt>
      <trkpt lat="48.02642" lon="7.09675">
        <ele>489.50830078</ele>
        <time>2021-06-17T12:45:42Z</time>
      </trkpt>
      <trkpt lat="48.02647" lon="7.09687">
        <ele>489.50830078</ele>
        <time>2021-06-17T12:45:43Z</time>
      </trkpt>
      <trkpt lat="48.02652" lon="7.09703">
        <ele>489.50830078</ele>
        <time>2021-06-17T12:45:45Z</time>
      </trkpt>
      <trkpt lat="48.02656" lon="7.09724">
        <ele>489.50830078</ele>
        <time>2021-06-17T12:45:47Z</time>
      </trkpt>
      <trkpt lat="48.0266" lon="7.09744">
        <ele>488.51333618</ele>
        <time>2021-06-17T12:45:49Z</time>
      </trkpt>
      <trkpt lat="48.02662" lon="7.09766">
        <ele>488.51333618</ele>
        <time>2021-06-17T12:45:51Z</time>
      </trkpt>
      <trkpt lat="48.02665" lon="7.0979">
        <ele>487.33398438</ele>
        <time>2021-06-17T12:45:53Z</time>
      </trkpt>
      <trkpt lat="48.02668" lon="7.09813">
        <ele>487.33398438</ele>
        <time>2021-06-17T12:45:55Z</time>
      </trkpt>
      <trkpt lat="48.02671" lon="7.09835">
        <ele>487.33398438</ele>
        <time>2021-06-17T12:45:57Z</time>
      </trkpt>
      <trkpt lat="48.02674" lon="7.09857">
        <ele>487.33398438</ele>
        <time>2021-06-17T12:45:59Z</time>
      </trkpt>
      <trkpt lat="48.02677" lon="7.09878">
        <ele>487.33398438</ele>
        <time>2021-06-17T12:46:01Z</time>
      </trkpt>
      <trkpt lat="48.02681" lon="7.09899">
        <ele>487.33398438</ele>
        <time>2021-06-17T12:46:03Z</time>
      </trkpt>
      <trkpt lat="48.02684" lon="7.09918">
        <ele>487.33398438</ele>
        <time>2021-06-17T12:46:05Z</time>
      </trkpt>
      <trkpt lat="48.02688" lon="7.09936">
        <ele>487.33398438</ele>
        <time>2021-06-17T12:46:07Z</time>
      </trkpt>
      <trkpt lat="48.02689" lon="7.09953">
        <ele>487.33398438</ele>
        <time>2021-06-17T12:46:09Z</time>
      </trkpt>
      <trkpt lat="48.02691" lon="7.09969">
        <ele>487.33398438</ele>
        <time>2021-06-17T12:46:11Z</time>
      </trkpt>
      <trkpt lat="48.02694" lon="7.09985">
        <ele>487.33398438</ele>
        <time>2021-06-17T12:46:13Z</time>
      </trkpt>
      <trkpt lat="48.02698" lon="7.10001">
        <ele>487.33398438</ele>
        <time>2021-06-17T12:46:15Z</time>
      </trkpt>
      <trkpt lat="48.02705" lon="7.10016">
        <ele>487.33398438</ele>
        <time>2021-06-17T12:46:17Z</time>
      </trkpt>
      <trkpt lat="48.02713" lon="7.10031">
        <ele>487.33398438</ele>
        <time>2021-06-17T12:46:19Z</time>
      </trkpt>
      <trkpt lat="48.0272" lon="7.10047">
        <ele>487.33398438</ele>
        <time>2021-06-17T12:46:21Z</time>
      </trkpt>
      <trkpt lat="48.02728" lon="7.10063">
        <ele>487.33398438</ele>
        <time>2021-06-17T12:46:23Z</time>
      </trkpt>
      <trkpt lat="48.02736" lon="7.10081">
        <ele>486.44241333</ele>
        <time>2021-06-17T12:46:25Z</time>
      </trkpt>
      <trkpt lat="48.02744" lon="7.101">
        <ele>486.44241333</ele>
        <time>2021-06-17T12:46:27Z</time>
      </trkpt>
      <trkpt lat="48.02746" lon="7.10105">
        <ele>485.51419067</ele>
        <time>2021-06-17T12:46:28Z</time>
      </trkpt>
      <trkpt lat="48.02752" lon="7.1012">
        <ele>485.51419067</ele>
        <time>2021-06-17T12:46:29Z</time>
      </trkpt>
      <trkpt lat="48.0276" lon="7.1014">
        <ele>485.51419067</ele>
        <time>2021-06-17T12:46:31Z</time>
      </trkpt>
      <trkpt lat="48.02768" lon="7.10157">
        <ele>484.5993042</ele>
        <time>2021-06-17T12:46:32Z</time>
      </trkpt>
      <trkpt lat="48.02772" lon="7.10169">
        <ele>484.5993042</ele>
        <time>2021-06-17T12:46:33Z</time>
      </trkpt>
      <trkpt lat="48.02776" lon="7.10182">
        <ele>484.5993042</ele>
        <time>2021-06-17T12:46:34Z</time>
      </trkpt>
      <trkpt lat="48.02779" lon="7.10195">
        <ele>483.40911865</ele>
        <time>2021-06-17T12:46:35Z</time>
      </trkpt>
      <trkpt lat="48.02782" lon="7.10209">
        <ele>483.40911865</ele>
        <time>2021-06-17T12:46:36Z</time>
      </trkpt>
      <trkpt lat="48.02785" lon="7.10223">
        <ele>482.20092773</ele>
        <time>2021-06-17T12:46:37Z</time>
      </trkpt>
      <trkpt lat="48.02787" lon="7.10238">
        <ele>482.20092773</ele>
        <time>2021-06-17T12:46:38Z</time>
      </trkpt>
      <trkpt lat="48.02795" lon="7.10266">
        <ele>481.13323975</ele>
        <time>2021-06-17T12:46:40Z</time>
      </trkpt>
      <trkpt lat="48.02802" lon="7.10282">
        <ele>480.0723877</ele>
        <time>2021-06-17T12:46:42Z</time>
      </trkpt>
      <trkpt lat="48.02811" lon="7.10301">
        <ele>480.0723877</ele>
        <time>2021-06-17T12:46:44Z</time>
      </trkpt>
      <trkpt lat="48.02823" lon="7.1032">
        <ele>480.0723877</ele>
        <time>2021-06-17T12:46:46Z</time>
      </trkpt>
      <trkpt lat="48.02832" lon="7.10337">
        <ele>478.98202515</ele>
        <time>2021-06-17T12:46:48Z</time>
      </trkpt>
      <trkpt lat="48.02842" lon="7.10353">
        <ele>478.98202515</ele>
        <time>2021-06-17T12:46:50Z</time>
      </trkpt>
      <trkpt lat="48.02851" lon="7.10368">
        <ele>478.98202515</ele>
        <time>2021-06-17T12:46:52Z</time>
      </trkpt>
      <trkpt lat="48.0286" lon="7.10385">
        <ele>478.98202515</ele>
        <time>2021-06-17T12:46:54Z</time>
      </trkpt>
      <trkpt lat="48.02869" lon="7.10401">
        <ele>478.98202515</ele>
        <time>2021-06-17T12:46:56Z</time>
      </trkpt>
      <trkpt lat="48.02878" lon="7.10417">
        <ele>478.98202515</ele>
        <time>2021-06-17T12:46:58Z</time>
      </trkpt>
      <trkpt lat="48.02887" lon="7.10432">
        <ele>478.98202515</ele>
        <time>2021-06-17T12:47:00Z</time>
      </trkpt>
      <trkpt lat="48.02894" lon="7.10448">
        <ele>478.05218506</ele>
        <time>2021-06-17T12:47:02Z</time>
      </trkpt>
      <trkpt lat="48.02903" lon="7.10465">
        <ele>478.05218506</ele>
        <time>2021-06-17T12:47:04Z</time>
      </trkpt>
      <trkpt lat="48.0291" lon="7.10481">
        <ele>478.05218506</ele>
        <time>2021-06-17T12:47:06Z</time>
      </trkpt>
      <trkpt lat="48.02919" lon="7.10497">
        <ele>478.05218506</ele>
        <time>2021-06-17T12:47:08Z</time>
      </trkpt>
      <trkpt lat="48.02928" lon="7.10513">
        <ele>478.05218506</ele>
        <time>2021-06-17T12:47:10Z</time>
      </trkpt>
      <trkpt lat="48.02937" lon="7.10529">
        <ele>478.05218506</ele>
        <time>2021-06-17T12:47:12Z</time>
      </trkpt>
      <trkpt lat="48.02945" lon="7.10547">
        <ele>478.05218506</ele>
        <time>2021-06-17T12:47:14Z</time>
      </trkpt>
      <trkpt lat="48.02954" lon="7.10562">
        <ele>478.05218506</ele>
        <time>2021-06-17T12:47:16Z</time>
      </trkpt>
      <trkpt lat="48.02963" lon="7.10577">
        <ele>478.05218506</ele>
        <time>2021-06-17T12:47:18Z</time>
      </trkpt>
      <trkpt lat="48.02972" lon="7.10593">
        <ele>477.1184082</ele>
        <time>2021-06-17T12:47:20Z</time>
      </trkpt>
      <trkpt lat="48.02983" lon="7.10609">
        <ele>477.1184082</ele>
        <time>2021-06-17T12:47:22Z</time>
      </trkpt>
      <trkpt lat="48.02993" lon="7.10626">
        <ele>475.85067749</ele>
        <time>2021-06-17T12:47:24Z</time>
      </trkpt>
      <trkpt lat="48.03003" lon="7.10643">
        <ele>475.85067749</ele>
        <time>2021-06-17T12:47:26Z</time>
      </trkpt>
      <trkpt lat="48.03011" lon="7.10656">
        <ele>474.72332764</ele>
        <time>2021-06-17T12:47:28Z</time>
      </trkpt>
      <trkpt lat="48.03019" lon="7.10669">
        <ele>474.72332764</ele>
        <time>2021-06-17T12:47:29Z</time>
      </trkpt>
      <trkpt lat="48.0303" lon="7.10686">
        <ele>474.72332764</ele>
        <time>2021-06-17T12:47:31Z</time>
      </trkpt>
      <trkpt lat="48.03041" lon="7.10703">
        <ele>474.72332764</ele>
        <time>2021-06-17T12:47:33Z</time>
      </trkpt>
      <trkpt lat="48.03051" lon="7.1072">
        <ele>474.72332764</ele>
        <time>2021-06-17T12:47:35Z</time>
      </trkpt>
      <trkpt lat="48.03059" lon="7.1074">
        <ele>473.73669434</ele>
        <time>2021-06-17T12:47:37Z</time>
      </trkpt>
      <trkpt lat="48.03069" lon="7.1076">
        <ele>473.73669434</ele>
        <time>2021-06-17T12:47:39Z</time>
      </trkpt>
      <trkpt lat="48.03079" lon="7.10782">
        <ele>472.61300659</ele>
        <time>2021-06-17T12:47:41Z</time>
      </trkpt>
      <trkpt lat="48.0309" lon="7.10804">
        <ele>472.61300659</ele>
        <time>2021-06-17T12:47:43Z</time>
      </trkpt>
      <trkpt lat="48.03098" lon="7.1082">
        <ele>471.32852173</ele>
        <time>2021-06-17T12:47:44Z</time>
      </trkpt>
      <trkpt lat="48.03104" lon="7.10832">
        <ele>471.32852173</ele>
        <time>2021-06-17T12:47:45Z</time>
      </trkpt>
      <trkpt lat="48.03109" lon="7.10843">
        <ele>471.32852173</ele>
        <time>2021-06-17T12:47:46Z</time>
      </trkpt>
      <trkpt lat="48.03114" lon="7.10854">
        <ele>471.32852173</ele>
        <time>2021-06-17T12:47:47Z</time>
      </trkpt>
      <trkpt lat="48.0312" lon="7.10865">
        <ele>471.32852173</ele>
        <time>2021-06-17T12:47:48Z</time>
      </trkpt>
      <trkpt lat="48.03126" lon="7.10876">
        <ele>471.32852173</ele>
        <time>2021-06-17T12:47:49Z</time>
      </trkpt>
      <trkpt lat="48.03132" lon="7.10886">
        <ele>470.28933716</ele>
        <time>2021-06-17T12:47:50Z</time>
      </trkpt>
      <trkpt lat="48.03141" lon="7.109">
        <ele>470.28933716</ele>
        <time>2021-06-17T12:47:52Z</time>
      </trkpt>
      <trkpt lat="48.03154" lon="7.10917">
        <ele>470.28933716</ele>
        <time>2021-06-17T12:47:54Z</time>
      </trkpt>
      <trkpt lat="48.03167" lon="7.10933">
        <ele>470.28933716</ele>
        <time>2021-06-17T12:47:56Z</time>
      </trkpt>
      <trkpt lat="48.0318" lon="7.10948">
        <ele>470.28933716</ele>
        <time>2021-06-17T12:47:58Z</time>
      </trkpt>
      <trkpt lat="48.03193" lon="7.10961">
        <ele>470.28933716</ele>
        <time>2021-06-17T12:48:00Z</time>
      </trkpt>
      <trkpt lat="48.03205" lon="7.10972">
        <ele>470.28933716</ele>
        <time>2021-06-17T12:48:02Z</time>
      </trkpt>
      <trkpt lat="48.03217" lon="7.10983">
        <ele>470.28933716</ele>
        <time>2021-06-17T12:48:04Z</time>
      </trkpt>
      <trkpt lat="48.03229" lon="7.10994">
        <ele>470.28933716</ele>
        <time>2021-06-17T12:48:06Z</time>
      </trkpt>
      <trkpt lat="48.0324" lon="7.11004">
        <ele>470.28933716</ele>
        <time>2021-06-17T12:48:08Z</time>
      </trkpt>
      <trkpt lat="48.03252" lon="7.11016">
        <ele>470.28933716</ele>
        <time>2021-06-17T12:48:10Z</time>
      </trkpt>
      <trkpt lat="48.03262" lon="7.11033">
        <ele>470.28933716</ele>
        <time>2021-06-17T12:48:12Z</time>
      </trkpt>
      <trkpt lat="48.0327" lon="7.1105">
        <ele>469.23248291</ele>
        <time>2021-06-17T12:48:14Z</time>
      </trkpt>
      <trkpt lat="48.0328" lon="7.11068">
        <ele>469.23248291</ele>
        <time>2021-06-17T12:48:16Z</time>
      </trkpt>
      <trkpt lat="48.03287" lon="7.11088">
        <ele>469.23248291</ele>
        <time>2021-06-17T12:48:18Z</time>
      </trkpt>
      <trkpt lat="48.03295" lon="7.1111">
        <ele>468.36712646</ele>
        <time>2021-06-17T12:48:20Z</time>
      </trkpt>
      <trkpt lat="48.03304" lon="7.11131">
        <ele>468.36712646</ele>
        <time>2021-06-17T12:48:22Z</time>
      </trkpt>
      <trkpt lat="48.03312" lon="7.11147">
        <ele>467.08691406</ele>
        <time>2021-06-17T12:48:23Z</time>
      </trkpt>
      <trkpt lat="48.03321" lon="7.11162">
        <ele>467.08691406</ele>
        <time>2021-06-17T12:48:25Z</time>
      </trkpt>
      <trkpt lat="48.03332" lon="7.11182">
        <ele>465.93569946</ele>
        <time>2021-06-17T12:48:27Z</time>
      </trkpt>
      <trkpt lat="48.03342" lon="7.11198">
        <ele>465.00772095</ele>
        <time>2021-06-17T12:48:28Z</time>
      </trkpt>
      <trkpt lat="48.03348" lon="7.1121">
        <ele>465.00772095</ele>
        <time>2021-06-17T12:48:29Z</time>
      </trkpt>
      <trkpt lat="48.03354" lon="7.11223">
        <ele>465.00772095</ele>
        <time>2021-06-17T12:48:30Z</time>
      </trkpt>
      <trkpt lat="48.03359" lon="7.11236">
        <ele>464.14691162</ele>
        <time>2021-06-17T12:48:31Z</time>
      </trkpt>
      <trkpt lat="48.03364" lon="7.1125">
        <ele>464.14691162</ele>
        <time>2021-06-17T12:48:32Z</time>
      </trkpt>
      <trkpt lat="48.03369" lon="7.11264">
        <ele>462.87969971</ele>
        <time>2021-06-17T12:48:33Z</time>
      </trkpt>
      <trkpt lat="48.03373" lon="7.1128">
        <ele>462.87969971</ele>
        <time>2021-06-17T12:48:34Z</time>
      </trkpt>
      <trkpt lat="48.03378" lon="7.11295">
        <ele>462.87969971</ele>
        <time>2021-06-17T12:48:35Z</time>
      </trkpt>
      <trkpt lat="48.03382" lon="7.1131">
        <ele>461.71270752</ele>
        <time>2021-06-17T12:48:36Z</time>
      </trkpt>
      <trkpt lat="48.03386" lon="7.11326">
        <ele>461.71270752</ele>
        <time>2021-06-17T12:48:37Z</time>
      </trkpt>
      <trkpt lat="48.03391" lon="7.11341">
        <ele>461.71270752</ele>
        <time>2021-06-17T12:48:38Z</time>
      </trkpt>
      <trkpt lat="48.03399" lon="7.11371">
        <ele>460.44580078</ele>
        <time>2021-06-17T12:48:40Z</time>
      </trkpt>
      <trkpt lat="48.03404" lon="7.11386">
        <ele>460.44580078</ele>
        <time>2021-06-17T12:48:41Z</time>
      </trkpt>
      <trkpt lat="48.03407" lon="7.114">
        <ele>460.44580078</ele>
        <time>2021-06-17T12:48:42Z</time>
      </trkpt>
      <trkpt lat="48.03411" lon="7.11415">
        <ele>459.4276123</ele>
        <time>2021-06-17T12:48:43Z</time>
      </trkpt>
      <trkpt lat="48.03415" lon="7.11428">
        <ele>459.4276123</ele>
        <time>2021-06-17T12:48:44Z</time>
      </trkpt>
      <trkpt lat="48.03418" lon="7.11442">
        <ele>459.4276123</ele>
        <time>2021-06-17T12:48:45Z</time>
      </trkpt>
      <trkpt lat="48.03421" lon="7.11457">
        <ele>459.4276123</ele>
        <time>2021-06-17T12:48:46Z</time>
      </trkpt>
      <trkpt lat="48.03425" lon="7.11471">
        <ele>459.4276123</ele>
        <time>2021-06-17T12:48:47Z</time>
      </trkpt>
      <trkpt lat="48.03426" lon="7.11486">
        <ele>459.4276123</ele>
        <time>2021-06-17T12:48:48Z</time>
      </trkpt>
      <trkpt lat="48.03429" lon="7.115">
        <ele>458.33761597</ele>
        <time>2021-06-17T12:48:49Z</time>
      </trkpt>
      <trkpt lat="48.03432" lon="7.11514">
        <ele>458.33761597</ele>
        <time>2021-06-17T12:48:50Z</time>
      </trkpt>
      <trkpt lat="48.03435" lon="7.11527">
        <ele>458.33761597</ele>
        <time>2021-06-17T12:48:51Z</time>
      </trkpt>
      <trkpt lat="48.0344" lon="7.11546">
        <ele>458.33761597</ele>
        <time>2021-06-17T12:48:53Z</time>
      </trkpt>
      <trkpt lat="48.03447" lon="7.1157">
        <ele>458.33761597</ele>
        <time>2021-06-17T12:48:55Z</time>
      </trkpt>
      <trkpt lat="48.03454" lon="7.11587">
        <ele>458.33761597</ele>
        <time>2021-06-17T12:48:56Z</time>
      </trkpt>
      <trkpt lat="48.03459" lon="7.11599">
        <ele>458.33761597</ele>
        <time>2021-06-17T12:48:57Z</time>
      </trkpt>
      <trkpt lat="48.03463" lon="7.11611">
        <ele>458.33761597</ele>
        <time>2021-06-17T12:48:58Z</time>
      </trkpt>
      <trkpt lat="48.03468" lon="7.11623">
        <ele>458.33761597</ele>
        <time>2021-06-17T12:48:59Z</time>
      </trkpt>
      <trkpt lat="48.03472" lon="7.11636">
        <ele>457.50558472</ele>
        <time>2021-06-17T12:49:00Z</time>
      </trkpt>
      <trkpt lat="48.03476" lon="7.11649">
        <ele>457.50558472</ele>
        <time>2021-06-17T12:49:01Z</time>
      </trkpt>
      <trkpt lat="48.03481" lon="7.11661">
        <ele>457.50558472</ele>
        <time>2021-06-17T12:49:02Z</time>
      </trkpt>
      <trkpt lat="48.03486" lon="7.11673">
        <ele>457.50558472</ele>
        <time>2021-06-17T12:49:03Z</time>
      </trkpt>
      <trkpt lat="48.0349" lon="7.11686">
        <ele>457.50558472</ele>
        <time>2021-06-17T12:49:04Z</time>
      </trkpt>
      <trkpt lat="48.03495" lon="7.11698">
        <ele>457.50558472</ele>
        <time>2021-06-17T12:49:05Z</time>
      </trkpt>
      <trkpt lat="48.03501" lon="7.11714">
        <ele>457.50558472</ele>
        <time>2021-06-17T12:49:07Z</time>
      </trkpt>
      <trkpt lat="48.03509" lon="7.11734">
        <ele>457.50558472</ele>
        <time>2021-06-17T12:49:09Z</time>
      </trkpt>
      <trkpt lat="48.03516" lon="7.11753">
        <ele>457.50558472</ele>
        <time>2021-06-17T12:49:11Z</time>
      </trkpt>
      <trkpt lat="48.03524" lon="7.11772">
        <ele>457.50558472</ele>
        <time>2021-06-17T12:49:13Z</time>
      </trkpt>
      <trkpt lat="48.03531" lon="7.11792">
        <ele>457.50558472</ele>
        <time>2021-06-17T12:49:15Z</time>
      </trkpt>
      <trkpt lat="48.0354" lon="7.11812">
        <ele>456.62026978</ele>
        <time>2021-06-17T12:49:17Z</time>
      </trkpt>
      <trkpt lat="48.03548" lon="7.1183">
        <ele>456.62026978</ele>
        <time>2021-06-17T12:49:19Z</time>
      </trkpt>
      <trkpt lat="48.03558" lon="7.11848">
        <ele>456.62026978</ele>
        <time>2021-06-17T12:49:21Z</time>
      </trkpt>
      <trkpt lat="48.03569" lon="7.11864">
        <ele>456.62026978</ele>
        <time>2021-06-17T12:49:23Z</time>
      </trkpt>
      <trkpt lat="48.0358" lon="7.1188">
        <ele>456.62026978</ele>
        <time>2021-06-17T12:49:25Z</time>
      </trkpt>
      <trkpt lat="48.03591" lon="7.11894">
        <ele>456.62026978</ele>
        <time>2021-06-17T12:49:27Z</time>
      </trkpt>
      <trkpt lat="48.03593" lon="7.11897">
        <ele>455.20437622</ele>
        <time>2021-06-17T12:49:28Z</time>
      </trkpt>
      <trkpt lat="48.03603" lon="7.11909">
        <ele>455.20437622</ele>
        <time>2021-06-17T12:49:29Z</time>
      </trkpt>
      <trkpt lat="48.03614" lon="7.11923">
        <ele>455.20437622</ele>
        <time>2021-06-17T12:49:31Z</time>
      </trkpt>
      <trkpt lat="48.03624" lon="7.11937">
        <ele>455.20437622</ele>
        <time>2021-06-17T12:49:33Z</time>
      </trkpt>
      <trkpt lat="48.03633" lon="7.11952">
        <ele>455.20437622</ele>
        <time>2021-06-17T12:49:35Z</time>
      </trkpt>
      <trkpt lat="48.03643" lon="7.11968">
        <ele>454.35635376</ele>
        <time>2021-06-17T12:49:37Z</time>
      </trkpt>
      <trkpt lat="48.03652" lon="7.11985">
        <ele>454.35635376</ele>
        <time>2021-06-17T12:49:39Z</time>
      </trkpt>
      <trkpt lat="48.03662" lon="7.12002">
        <ele>454.35635376</ele>
        <time>2021-06-17T12:49:41Z</time>
      </trkpt>
      <trkpt lat="48.03671" lon="7.12019">
        <ele>454.35635376</ele>
        <time>2021-06-17T12:49:43Z</time>
      </trkpt>
      <trkpt lat="48.03677" lon="7.12038">
        <ele>453.19030762</ele>
        <time>2021-06-17T12:49:45Z</time>
      </trkpt>
      <trkpt lat="48.03683" lon="7.12059">
        <ele>453.19030762</ele>
        <time>2021-06-17T12:49:47Z</time>
      </trkpt>
      <trkpt lat="48.0369" lon="7.12081">
        <ele>453.19030762</ele>
        <time>2021-06-17T12:49:49Z</time>
      </trkpt>
      <trkpt lat="48.03695" lon="7.12101">
        <ele>452.07568359</ele>
        <time>2021-06-17T12:49:51Z</time>
      </trkpt>
      <trkpt lat="48.037" lon="7.12123">
        <ele>452.07568359</ele>
        <time>2021-06-17T12:49:53Z</time>
      </trkpt>
      <trkpt lat="48.03705" lon="7.12145">
        <ele>450.91699219</ele>
        <time>2021-06-17T12:49:55Z</time>
      </trkpt>
      <trkpt lat="48.03711" lon="7.12166">
        <ele>450.91699219</ele>
        <time>2021-06-17T12:49:57Z</time>
      </trkpt>
      <trkpt lat="48.03716" lon="7.12187">
        <ele>450.91699219</ele>
        <time>2021-06-17T12:49:59Z</time>
      </trkpt>
      <trkpt lat="48.03721" lon="7.12208">
        <ele>450.91699219</ele>
        <time>2021-06-17T12:50:01Z</time>
      </trkpt>
      <trkpt lat="48.03725" lon="7.12231">
        <ele>449.75656128</ele>
        <time>2021-06-17T12:50:03Z</time>
      </trkpt>
      <trkpt lat="48.0373" lon="7.12252">
        <ele>449.75656128</ele>
        <time>2021-06-17T12:50:05Z</time>
      </trkpt>
      <trkpt lat="48.03734" lon="7.1227">
        <ele>449.75656128</ele>
        <time>2021-06-17T12:50:07Z</time>
      </trkpt>
      <trkpt lat="48.03738" lon="7.12288">
        <ele>448.6729126</ele>
        <time>2021-06-17T12:50:09Z</time>
      </trkpt>
      <trkpt lat="48.03741" lon="7.12307">
        <ele>448.6729126</ele>
        <time>2021-06-17T12:50:11Z</time>
      </trkpt>
      <trkpt lat="48.03745" lon="7.12325">
        <ele>448.6729126</ele>
        <time>2021-06-17T12:50:13Z</time>
      </trkpt>
      <trkpt lat="48.0375" lon="7.12344">
        <ele>447.61575317</ele>
        <time>2021-06-17T12:50:15Z</time>
      </trkpt>
      <trkpt lat="48.03755" lon="7.12363">
        <ele>447.61575317</ele>
        <time>2021-06-17T12:50:17Z</time>
      </trkpt>
      <trkpt lat="48.03759" lon="7.12382">
        <ele>447.61575317</ele>
        <time>2021-06-17T12:50:19Z</time>
      </trkpt>
      <trkpt lat="48.03762" lon="7.12401">
        <ele>447.61575317</ele>
        <time>2021-06-17T12:50:21Z</time>
      </trkpt>
      <trkpt lat="48.03767" lon="7.12421">
        <ele>447.61575317</ele>
        <time>2021-06-17T12:50:23Z</time>
      </trkpt>
      <trkpt lat="48.03771" lon="7.1244">
        <ele>446.54742432</ele>
        <time>2021-06-17T12:50:25Z</time>
      </trkpt>
      <trkpt lat="48.03776" lon="7.12456">
        <ele>446.54742432</ele>
        <time>2021-06-17T12:50:27Z</time>
      </trkpt>
      <trkpt lat="48.03778" lon="7.1246">
        <ele>445.95239258</ele>
        <time>2021-06-17T12:50:28Z</time>
      </trkpt>
      <trkpt lat="48.03783" lon="7.12473">
        <ele>445.95239258</ele>
        <time>2021-06-17T12:50:29Z</time>
      </trkpt>
      <trkpt lat="48.03791" lon="7.12488">
        <ele>445.95239258</ele>
        <time>2021-06-17T12:50:31Z</time>
      </trkpt>
      <trkpt lat="48.03799" lon="7.12503">
        <ele>445.95239258</ele>
        <time>2021-06-17T12:50:33Z</time>
      </trkpt>
      <trkpt lat="48.03807" lon="7.12518">
        <ele>445.95239258</ele>
        <time>2021-06-17T12:50:35Z</time>
      </trkpt>
      <trkpt lat="48.03817" lon="7.12531">
        <ele>445.95239258</ele>
        <time>2021-06-17T12:50:37Z</time>
      </trkpt>
      <trkpt lat="48.03827" lon="7.12544">
        <ele>445.28652954</ele>
        <time>2021-06-17T12:50:39Z</time>
      </trkpt>
      <trkpt lat="48.03836" lon="7.12561">
        <ele>445.28652954</ele>
        <time>2021-06-17T12:50:41Z</time>
      </trkpt>
      <trkpt lat="48.03845" lon="7.12578">
        <ele>445.28652954</ele>
        <time>2021-06-17T12:50:43Z</time>
      </trkpt>
      <trkpt lat="48.03854" lon="7.12595">
        <ele>445.28652954</ele>
        <time>2021-06-17T12:50:45Z</time>
      </trkpt>
      <trkpt lat="48.03861" lon="7.12611">
        <ele>444.31863403</ele>
        <time>2021-06-17T12:50:47Z</time>
      </trkpt>
      <trkpt lat="48.0387" lon="7.12629">
        <ele>444.31863403</ele>
        <time>2021-06-17T12:50:49Z</time>
      </trkpt>
      <trkpt lat="48.03878" lon="7.12646">
        <ele>444.31863403</ele>
        <time>2021-06-17T12:50:51Z</time>
      </trkpt>
      <trkpt lat="48.03886" lon="7.12663">
        <ele>444.31863403</ele>
        <time>2021-06-17T12:50:53Z</time>
      </trkpt>
      <trkpt lat="48.03896" lon="7.1268">
        <ele>443.21829224</ele>
        <time>2021-06-17T12:50:55Z</time>
      </trkpt>
      <trkpt lat="48.03906" lon="7.12696">
        <ele>443.21829224</ele>
        <time>2021-06-17T12:50:57Z</time>
      </trkpt>
      <trkpt lat="48.03915" lon="7.12713">
        <ele>443.21829224</ele>
        <time>2021-06-17T12:50:59Z</time>
      </trkpt>
      <trkpt lat="48.03924" lon="7.12729">
        <ele>443.21829224</ele>
        <time>2021-06-17T12:51:01Z</time>
      </trkpt>
      <trkpt lat="48.03932" lon="7.12746">
        <ele>443.21829224</ele>
        <time>2021-06-17T12:51:03Z</time>
      </trkpt>
      <trkpt lat="48.0394" lon="7.12762">
        <ele>441.97375488</ele>
        <time>2021-06-17T12:51:05Z</time>
      </trkpt>
      <trkpt lat="48.03954" lon="7.12797">
        <ele>441.97375488</ele>
        <time>2021-06-17T12:51:09Z</time>
      </trkpt>
      <trkpt lat="48.0396" lon="7.12814">
        <ele>441.97375488</ele>
        <time>2021-06-17T12:51:11Z</time>
      </trkpt>
      <trkpt lat="48.03965" lon="7.12831">
        <ele>441.97375488</ele>
        <time>2021-06-17T12:51:13Z</time>
      </trkpt>
      <trkpt lat="48.0397" lon="7.12847">
        <ele>441.97375488</ele>
        <time>2021-06-17T12:51:15Z</time>
      </trkpt>
      <trkpt lat="48.03974" lon="7.12864">
        <ele>441.97375488</ele>
        <time>2021-06-17T12:51:17Z</time>
      </trkpt>
      <trkpt lat="48.03972" lon="7.12882">
        <ele>441.97375488</ele>
        <time>2021-06-17T12:51:19Z</time>
      </trkpt>
      <trkpt lat="48.0397" lon="7.12902">
        <ele>441.97375488</ele>
        <time>2021-06-17T12:51:21Z</time>
      </trkpt>
      <trkpt lat="48.03969" lon="7.12924">
        <ele>441.97375488</ele>
        <time>2021-06-17T12:51:23Z</time>
      </trkpt>
      <trkpt lat="48.03969" lon="7.12945">
        <ele>441.50982666</ele>
        <time>2021-06-17T12:51:25Z</time>
      </trkpt>
      <trkpt lat="48.0397" lon="7.12969">
        <ele>441.50982666</ele>
        <time>2021-06-17T12:51:27Z</time>
      </trkpt>
      <trkpt lat="48.0397" lon="7.12976">
        <ele>440.03106689</ele>
        <time>2021-06-17T12:51:28Z</time>
      </trkpt>
      <trkpt lat="48.0397" lon="7.12993">
        <ele>440.03106689</ele>
        <time>2021-06-17T12:51:29Z</time>
      </trkpt>
      <trkpt lat="48.03972" lon="7.13017">
        <ele>440.03106689</ele>
        <time>2021-06-17T12:51:31Z</time>
      </trkpt>
      <trkpt lat="48.03972" lon="7.13041">
        <ele>438.98233032</ele>
        <time>2021-06-17T12:51:33Z</time>
      </trkpt>
      <trkpt lat="48.03975" lon="7.13066">
        <ele>438.98233032</ele>
        <time>2021-06-17T12:51:35Z</time>
      </trkpt>
      <trkpt lat="48.03978" lon="7.13115">
        <ele>437.73446655</ele>
        <time>2021-06-17T12:51:39Z</time>
      </trkpt>
      <trkpt lat="48.03978" lon="7.13139">
        <ele>437.73446655</ele>
        <time>2021-06-17T12:51:41Z</time>
      </trkpt>
      <trkpt lat="48.03979" lon="7.13163">
        <ele>437.73446655</ele>
        <time>2021-06-17T12:51:43Z</time>
      </trkpt>
      <trkpt lat="48.03979" lon="7.13187">
        <ele>436.62210083</ele>
        <time>2021-06-17T12:51:45Z</time>
      </trkpt>
      <trkpt lat="48.03981" lon="7.1321">
        <ele>436.62210083</ele>
        <time>2021-06-17T12:51:47Z</time>
      </trkpt>
      <trkpt lat="48.03985" lon="7.13232">
        <ele>436.62210083</ele>
        <time>2021-06-17T12:51:49Z</time>
      </trkpt>
      <trkpt lat="48.03986" lon="7.13253">
        <ele>436.62210083</ele>
        <time>2021-06-17T12:51:51Z</time>
      </trkpt>
      <trkpt lat="48.03987" lon="7.13272">
        <ele>435.49926758</ele>
        <time>2021-06-17T12:51:53Z</time>
      </trkpt>
      <trkpt lat="48.03989" lon="7.13293">
        <ele>435.49926758</ele>
        <time>2021-06-17T12:51:55Z</time>
      </trkpt>
      <trkpt lat="48.0399" lon="7.13312">
        <ele>435.49926758</ele>
        <time>2021-06-17T12:51:57Z</time>
      </trkpt>
      <trkpt lat="48.03991" lon="7.13331">
        <ele>435.49926758</ele>
        <time>2021-06-17T12:51:59Z</time>
      </trkpt>
      <trkpt lat="48.0399" lon="7.13351">
        <ele>434.36178589</ele>
        <time>2021-06-17T12:52:01Z</time>
      </trkpt>
      <trkpt lat="48.03991" lon="7.13371">
        <ele>434.36178589</ele>
        <time>2021-06-17T12:52:03Z</time>
      </trkpt>
      <trkpt lat="48.03992" lon="7.13387">
        <ele>434.36178589</ele>
        <time>2021-06-17T12:52:06Z</time>
      </trkpt>
      <trkpt lat="48.03997" lon="7.13402">
        <ele>434.36178589</ele>
        <time>2021-06-17T12:52:10Z</time>
      </trkpt>
      <trkpt lat="48.04011" lon="7.13404">
        <ele>432.53515625</ele>
        <time>2021-06-17T12:54:44Z</time>
      </trkpt>
      <trkpt lat="48.0401" lon="7.13405">
        <ele>432.53515625</ele>
        <time>2021-06-17T12:54:49Z</time>
      </trkpt>
      <trkpt lat="48.04025" lon="7.13407">
        <ele>432.53515625</ele>
        <time>2021-06-17T12:54:52Z</time>
      </trkpt>
      <trkpt lat="48.04036" lon="7.13411">
        <ele>432.53515625</ele>
        <time>2021-06-17T12:54:55Z</time>
      </trkpt>
      <trkpt lat="48.04048" lon="7.13415">
        <ele>432.53515625</ele>
        <time>2021-06-17T12:54:59Z</time>
      </trkpt>
      <trkpt lat="48.04059" lon="7.1342">
        <ele>432.53515625</ele>
        <time>2021-06-17T12:55:02Z</time>
      </trkpt>
      <trkpt lat="48.04068" lon="7.13426">
        <ele>432.53515625</ele>
        <time>2021-06-17T12:55:06Z</time>
      </trkpt>
      <trkpt lat="48.0407" lon="7.13438">
        <ele>432.53515625</ele>
        <time>2021-06-17T12:55:12Z</time>
      </trkpt>
      <trkpt lat="48.04065" lon="7.13455">
        <ele>432.53515625</ele>
        <time>2021-06-17T12:55:15Z</time>
      </trkpt>
      <trkpt lat="48.04062" lon="7.13469">
        <ele>432.53515625</ele>
        <time>2021-06-17T12:55:17Z</time>
      </trkpt>
      <trkpt lat="48.04058" lon="7.13485">
        <ele>432.53515625</ele>
        <time>2021-06-17T12:55:20Z</time>
      </trkpt>
      <trkpt lat="48.04058" lon="7.13502">
        <ele>432.53515625</ele>
        <time>2021-06-17T12:55:22Z</time>
      </trkpt>
      <trkpt lat="48.04059" lon="7.13518">
        <ele>432.25570679</ele>
        <time>2021-06-17T12:55:24Z</time>
      </trkpt>
      <trkpt lat="48.04061" lon="7.13534">
        <ele>432.25570679</ele>
        <time>2021-06-17T12:55:27Z</time>
      </trkpt>
      <trkpt lat="48.04061" lon="7.13541">
        <ele>431.20758057</ele>
        <time>2021-06-17T12:55:28Z</time>
      </trkpt>
      <trkpt lat="48.04063" lon="7.13552">
        <ele>431.20758057</ele>
        <time>2021-06-17T12:55:29Z</time>
      </trkpt>
      <trkpt lat="48.04066" lon="7.13567">
        <ele>431.20758057</ele>
        <time>2021-06-17T12:55:31Z</time>
      </trkpt>
      <trkpt lat="48.0407" lon="7.13582">
        <ele>431.20758057</ele>
        <time>2021-06-17T12:55:33Z</time>
      </trkpt>
      <trkpt lat="48.04075" lon="7.13601">
        <ele>431.20758057</ele>
        <time>2021-06-17T12:55:35Z</time>
      </trkpt>
      <trkpt lat="48.04077" lon="7.13619">
        <ele>431.20758057</ele>
        <time>2021-06-17T12:55:37Z</time>
      </trkpt>
      <trkpt lat="48.04075" lon="7.13636">
        <ele>430.72247314</ele>
        <time>2021-06-17T12:55:39Z</time>
      </trkpt>
      <trkpt lat="48.04076" lon="7.13652">
        <ele>430.72247314</ele>
        <time>2021-06-17T12:55:41Z</time>
      </trkpt>
      <trkpt lat="48.04076" lon="7.13667">
        <ele>430.72247314</ele>
        <time>2021-06-17T12:55:43Z</time>
      </trkpt>
      <trkpt lat="48.04077" lon="7.13683">
        <ele>430.72247314</ele>
        <time>2021-06-17T12:55:45Z</time>
      </trkpt>
      <trkpt lat="48.04077" lon="7.13699">
        <ele>430.72247314</ele>
        <time>2021-06-17T12:55:47Z</time>
      </trkpt>
      <trkpt lat="48.04079" lon="7.13716">
        <ele>429.51660156</ele>
        <time>2021-06-17T12:55:49Z</time>
      </trkpt>
      <trkpt lat="48.04083" lon="7.13733">
        <ele>429.51660156</ele>
        <time>2021-06-17T12:55:51Z</time>
      </trkpt>
      <trkpt lat="48.04084" lon="7.13751">
        <ele>429.51660156</ele>
        <time>2021-06-17T12:55:53Z</time>
      </trkpt>
      <trkpt lat="48.04086" lon="7.1377">
        <ele>429.51660156</ele>
        <time>2021-06-17T12:55:55Z</time>
      </trkpt>
      <trkpt lat="48.04087" lon="7.13791">
        <ele>428.46234131</ele>
        <time>2021-06-17T12:55:57Z</time>
      </trkpt>
      <trkpt lat="48.04089" lon="7.1381">
        <ele>428.46234131</ele>
        <time>2021-06-17T12:55:59Z</time>
      </trkpt>
      <trkpt lat="48.04091" lon="7.13827">
        <ele>428.46234131</ele>
        <time>2021-06-17T12:56:01Z</time>
      </trkpt>
      <trkpt lat="48.04091" lon="7.13843">
        <ele>428.46234131</ele>
        <time>2021-06-17T12:56:04Z</time>
      </trkpt>
      <trkpt lat="48.04091" lon="7.13853">
        <ele>426.99560547</ele>
        <time>2021-06-17T12:56:49Z</time>
      </trkpt>
      <trkpt lat="48.04093" lon="7.13852">
        <ele>426.99560547</ele>
        <time>2021-06-17T12:56:52Z</time>
      </trkpt>
      <trkpt lat="48.04097" lon="7.13877">
        <ele>426.83291626</ele>
        <time>2021-06-17T12:56:55Z</time>
      </trkpt>
      <trkpt lat="48.04101" lon="7.13894">
        <ele>426.83291626</ele>
        <time>2021-06-17T12:56:57Z</time>
      </trkpt>
      <trkpt lat="48.04105" lon="7.13907">
        <ele>426.83291626</ele>
        <time>2021-06-17T12:56:59Z</time>
      </trkpt>
      <trkpt lat="48.04108" lon="7.13921">
        <ele>426.83291626</ele>
        <time>2021-06-17T12:57:02Z</time>
      </trkpt>
      <trkpt lat="48.04109" lon="7.13931">
        <ele>425.47314453</ele>
        <time>2021-06-17T12:57:12Z</time>
      </trkpt>
      <trkpt lat="48.04114" lon="7.13949">
        <ele>425.47314453</ele>
        <time>2021-06-17T12:57:15Z</time>
      </trkpt>
      <trkpt lat="48.04118" lon="7.13963">
        <ele>425.47314453</ele>
        <time>2021-06-17T12:57:17Z</time>
      </trkpt>
      <trkpt lat="48.04122" lon="7.13979">
        <ele>425.47314453</ele>
        <time>2021-06-17T12:57:20Z</time>
      </trkpt>
      <trkpt lat="48.04129" lon="7.13992">
        <ele>425.47314453</ele>
        <time>2021-06-17T12:57:23Z</time>
      </trkpt>
      <trkpt lat="48.04136" lon="7.14004">
        <ele>425.47314453</ele>
        <time>2021-06-17T12:57:26Z</time>
      </trkpt>
      <trkpt lat="48.0414" lon="7.14012">
        <ele>425.07879639</ele>
        <time>2021-06-17T12:57:28Z</time>
      </trkpt>
      <trkpt lat="48.04145" lon="7.14018">
        <ele>425.07879639</ele>
        <time>2021-06-17T12:57:30Z</time>
      </trkpt>
      <trkpt lat="48.04152" lon="7.14026">
        <ele>425.07879639</ele>
        <time>2021-06-17T12:57:33Z</time>
      </trkpt>
      <trkpt lat="48.04158" lon="7.14037">
        <ele>425.07879639</ele>
        <time>2021-06-17T12:57:36Z</time>
      </trkpt>
      <trkpt lat="48.04157" lon="7.14055">
        <ele>425.07879639</ele>
        <time>2021-06-17T12:57:39Z</time>
      </trkpt>
      <trkpt lat="48.04151" lon="7.14072">
        <ele>425.07879639</ele>
        <time>2021-06-17T12:57:42Z</time>
      </trkpt>
      <trkpt lat="48.04147" lon="7.1409">
        <ele>425.07879639</ele>
        <time>2021-06-17T12:57:45Z</time>
      </trkpt>
      <trkpt lat="48.04145" lon="7.14107">
        <ele>425.07879639</ele>
        <time>2021-06-17T12:57:48Z</time>
      </trkpt>
      <trkpt lat="48.04141" lon="7.14124">
        <ele>425.07879639</ele>
        <time>2021-06-17T12:57:51Z</time>
      </trkpt>
      <trkpt lat="48.04137" lon="7.14142">
        <ele>425.07879639</ele>
        <time>2021-06-17T12:57:53Z</time>
      </trkpt>
      <trkpt lat="48.04136" lon="7.1416">
        <ele>425.07879639</ele>
        <time>2021-06-17T12:57:55Z</time>
      </trkpt>
      <trkpt lat="48.04135" lon="7.14179">
        <ele>425.07879639</ele>
        <time>2021-06-17T12:57:57Z</time>
      </trkpt>
      <trkpt lat="48.04134" lon="7.14199">
        <ele>425.30917358</ele>
        <time>2021-06-17T12:57:59Z</time>
      </trkpt>
      <trkpt lat="48.04133" lon="7.14219">
        <ele>425.30917358</ele>
        <time>2021-06-17T12:58:01Z</time>
      </trkpt>
      <trkpt lat="48.04134" lon="7.14238">
        <ele>425.30917358</ele>
        <time>2021-06-17T12:58:03Z</time>
      </trkpt>
      <trkpt lat="48.04139" lon="7.14258">
        <ele>425.30917358</ele>
        <time>2021-06-17T12:58:05Z</time>
      </trkpt>
      <trkpt lat="48.04144" lon="7.14277">
        <ele>425.30917358</ele>
        <time>2021-06-17T12:58:08Z</time>
      </trkpt>
      <trkpt lat="48.04152" lon="7.14298">
        <ele>423.7986145</ele>
        <time>2021-06-17T12:58:09Z</time>
      </trkpt>
      <trkpt lat="48.04159" lon="7.14318">
        <ele>423.7986145</ele>
        <time>2021-06-17T12:58:11Z</time>
      </trkpt>
      <trkpt lat="48.04168" lon="7.14335">
        <ele>423.7986145</ele>
        <time>2021-06-17T12:58:13Z</time>
      </trkpt>
      <trkpt lat="48.04179" lon="7.14351">
        <ele>423.7986145</ele>
        <time>2021-06-17T12:58:15Z</time>
      </trkpt>
      <trkpt lat="48.04189" lon="7.14367">
        <ele>423.7986145</ele>
        <time>2021-06-17T12:58:17Z</time>
      </trkpt>
      <trkpt lat="48.04197" lon="7.14382">
        <ele>423.7986145</ele>
        <time>2021-06-17T12:58:19Z</time>
      </trkpt>
      <trkpt lat="48.04205" lon="7.14399">
        <ele>423.7986145</ele>
        <time>2021-06-17T12:58:21Z</time>
      </trkpt>
      <trkpt lat="48.0421" lon="7.14416">
        <ele>423.7986145</ele>
        <time>2021-06-17T12:58:23Z</time>
      </trkpt>
      <trkpt lat="48.04213" lon="7.14434">
        <ele>423.7986145</ele>
        <time>2021-06-17T12:58:25Z</time>
      </trkpt>
      <trkpt lat="48.04217" lon="7.14452">
        <ele>423.7986145</ele>
        <time>2021-06-17T12:58:27Z</time>
      </trkpt>
      <trkpt lat="48.04218" lon="7.14456">
        <ele>422.97171021</ele>
        <time>2021-06-17T12:58:28Z</time>
      </trkpt>
      <trkpt lat="48.04221" lon="7.1447">
        <ele>422.97171021</ele>
        <time>2021-06-17T12:58:29Z</time>
      </trkpt>
      <trkpt lat="48.04224" lon="7.14488">
        <ele>422.97171021</ele>
        <time>2021-06-17T12:58:31Z</time>
      </trkpt>
      <trkpt lat="48.04227" lon="7.14506">
        <ele>422.97171021</ele>
        <time>2021-06-17T12:58:33Z</time>
      </trkpt>
      <trkpt lat="48.04232" lon="7.14524">
        <ele>422.97171021</ele>
        <time>2021-06-17T12:58:35Z</time>
      </trkpt>
      <trkpt lat="48.04243" lon="7.14556">
        <ele>422.97171021</ele>
        <time>2021-06-17T12:58:39Z</time>
      </trkpt>
      <trkpt lat="48.04251" lon="7.14571">
        <ele>422.97171021</ele>
        <time>2021-06-17T12:58:41Z</time>
      </trkpt>
      <trkpt lat="48.04259" lon="7.14587">
        <ele>422.97171021</ele>
        <time>2021-06-17T12:58:43Z</time>
      </trkpt>
      <trkpt lat="48.04267" lon="7.14602">
        <ele>422.97171021</ele>
        <time>2021-06-17T12:58:45Z</time>
      </trkpt>
      <trkpt lat="48.04274" lon="7.14618">
        <ele>422.97171021</ele>
        <time>2021-06-17T12:58:47Z</time>
      </trkpt>
      <trkpt lat="48.04279" lon="7.14635">
        <ele>422.97171021</ele>
        <time>2021-06-17T12:58:49Z</time>
      </trkpt>
      <trkpt lat="48.04282" lon="7.14654">
        <ele>422.97171021</ele>
        <time>2021-06-17T12:58:51Z</time>
      </trkpt>
      <trkpt lat="48.04285" lon="7.14673">
        <ele>422.97171021</ele>
        <time>2021-06-17T12:58:53Z</time>
      </trkpt>
      <trkpt lat="48.04287" lon="7.14692">
        <ele>422.97171021</ele>
        <time>2021-06-17T12:58:55Z</time>
      </trkpt>
      <trkpt lat="48.0429" lon="7.14713">
        <ele>422.97171021</ele>
        <time>2021-06-17T12:58:57Z</time>
      </trkpt>
      <trkpt lat="48.04293" lon="7.14732">
        <ele>422.97171021</ele>
        <time>2021-06-17T12:58:59Z</time>
      </trkpt>
      <trkpt lat="48.04297" lon="7.14752">
        <ele>422.97171021</ele>
        <time>2021-06-17T12:59:01Z</time>
      </trkpt>
      <trkpt lat="48.043" lon="7.1477">
        <ele>422.97171021</ele>
        <time>2021-06-17T12:59:03Z</time>
      </trkpt>
      <trkpt lat="48.04303" lon="7.14788">
        <ele>422.97171021</ele>
        <time>2021-06-17T12:59:05Z</time>
      </trkpt>
      <trkpt lat="48.04305" lon="7.14806">
        <ele>422.97171021</ele>
        <time>2021-06-17T12:59:07Z</time>
      </trkpt>
      <trkpt lat="48.04307" lon="7.14824">
        <ele>422.97171021</ele>
        <time>2021-06-17T12:59:09Z</time>
      </trkpt>
      <trkpt lat="48.04309" lon="7.14841">
        <ele>422.97171021</ele>
        <time>2021-06-17T12:59:11Z</time>
      </trkpt>
      <trkpt lat="48.04309" lon="7.14858">
        <ele>422.97171021</ele>
        <time>2021-06-17T12:59:13Z</time>
      </trkpt>
      <trkpt lat="48.04309" lon="7.14875">
        <ele>422.97171021</ele>
        <time>2021-06-17T12:59:15Z</time>
      </trkpt>
      <trkpt lat="48.0431" lon="7.14894">
        <ele>422.97171021</ele>
        <time>2021-06-17T12:59:17Z</time>
      </trkpt>
      <trkpt lat="48.0431" lon="7.14911">
        <ele>422.97171021</ele>
        <time>2021-06-17T12:59:19Z</time>
      </trkpt>
      <trkpt lat="48.04311" lon="7.1493">
        <ele>422.97171021</ele>
        <time>2021-06-17T12:59:21Z</time>
      </trkpt>
      <trkpt lat="48.04311" lon="7.14949">
        <ele>422.97171021</ele>
        <time>2021-06-17T12:59:23Z</time>
      </trkpt>
      <trkpt lat="48.04313" lon="7.14968">
        <ele>422.97171021</ele>
        <time>2021-06-17T12:59:25Z</time>
      </trkpt>
      <trkpt lat="48.04318" lon="7.14988">
        <ele>422.97171021</ele>
        <time>2021-06-17T12:59:27Z</time>
      </trkpt>
      <trkpt lat="48.0432" lon="7.14994">
        <ele>423.06298828</ele>
        <time>2021-06-17T12:59:28Z</time>
      </trkpt>
      <trkpt lat="48.04325" lon="7.15008">
        <ele>423.06298828</ele>
        <time>2021-06-17T12:59:29Z</time>
      </trkpt>
      <trkpt lat="48.0433" lon="7.15028">
        <ele>423.06298828</ele>
        <time>2021-06-17T12:59:31Z</time>
      </trkpt>
      <trkpt lat="48.04336" lon="7.15049">
        <ele>423.06298828</ele>
        <time>2021-06-17T12:59:33Z</time>
      </trkpt>
      <trkpt lat="48.04341" lon="7.15071">
        <ele>422.53878784</ele>
        <time>2021-06-17T12:59:35Z</time>
      </trkpt>
      <trkpt lat="48.04346" lon="7.15093">
        <ele>422.53878784</ele>
        <time>2021-06-17T12:59:37Z</time>
      </trkpt>
      <trkpt lat="48.04352" lon="7.15116">
        <ele>421.27981567</ele>
        <time>2021-06-17T12:59:39Z</time>
      </trkpt>
      <trkpt lat="48.04358" lon="7.15139">
        <ele>421.27981567</ele>
        <time>2021-06-17T12:59:41Z</time>
      </trkpt>
      <trkpt lat="48.04362" lon="7.15162">
        <ele>421.27981567</ele>
        <time>2021-06-17T12:59:43Z</time>
      </trkpt>
      <trkpt lat="48.04366" lon="7.15187">
        <ele>420.24545288</ele>
        <time>2021-06-17T12:59:45Z</time>
      </trkpt>
      <trkpt lat="48.0437" lon="7.1521">
        <ele>420.24545288</ele>
        <time>2021-06-17T12:59:47Z</time>
      </trkpt>
      <trkpt lat="48.04373" lon="7.15233">
        <ele>420.24545288</ele>
        <time>2021-06-17T12:59:49Z</time>
      </trkpt>
      <trkpt lat="48.04376" lon="7.15255">
        <ele>419.14920044</ele>
        <time>2021-06-17T12:59:51Z</time>
      </trkpt>
      <trkpt lat="48.04381" lon="7.15276">
        <ele>419.14920044</ele>
        <time>2021-06-17T12:59:53Z</time>
      </trkpt>
      <trkpt lat="48.04386" lon="7.15297">
        <ele>419.14920044</ele>
        <time>2021-06-17T12:59:55Z</time>
      </trkpt>
      <trkpt lat="48.04391" lon="7.15318">
        <ele>419.14920044</ele>
        <time>2021-06-17T12:59:57Z</time>
      </trkpt>
      <trkpt lat="48.04396" lon="7.15339">
        <ele>419.14920044</ele>
        <time>2021-06-17T12:59:59Z</time>
      </trkpt>
      <trkpt lat="48.044" lon="7.15358">
        <ele>419.14920044</ele>
        <time>2021-06-17T13:00:01Z</time>
      </trkpt>
      <trkpt lat="48.04403" lon="7.15377">
        <ele>418.19464111</ele>
        <time>2021-06-17T13:00:03Z</time>
      </trkpt>
      <trkpt lat="48.04406" lon="7.15395">
        <ele>418.19464111</ele>
        <time>2021-06-17T13:00:05Z</time>
      </trkpt>
      <trkpt lat="48.04408" lon="7.15415">
        <ele>418.19464111</ele>
        <time>2021-06-17T13:00:07Z</time>
      </trkpt>
      <trkpt lat="48.04409" lon="7.15436">
        <ele>418.19464111</ele>
        <time>2021-06-17T13:00:09Z</time>
      </trkpt>
      <trkpt lat="48.0441" lon="7.15455">
        <ele>418.19464111</ele>
        <time>2021-06-17T13:00:11Z</time>
      </trkpt>
      <trkpt lat="48.04411" lon="7.15471">
        <ele>418.19464111</ele>
        <time>2021-06-17T13:00:13Z</time>
      </trkpt>
      <trkpt lat="48.0441" lon="7.15487">
        <ele>417.21047974</ele>
        <time>2021-06-17T13:00:15Z</time>
      </trkpt>
      <trkpt lat="48.04408" lon="7.15502">
        <ele>417.21047974</ele>
        <time>2021-06-17T13:00:17Z</time>
      </trkpt>
      <trkpt lat="48.04405" lon="7.15516">
        <ele>417.21047974</ele>
        <time>2021-06-17T13:00:20Z</time>
      </trkpt>
      <trkpt lat="48.04403" lon="7.15529">
        <ele>415.63601685</ele>
        <time>2021-06-17T13:00:28Z</time>
      </trkpt>
      <trkpt lat="48.04411" lon="7.15532">
        <ele>415.63601685</ele>
        <time>2021-06-17T13:00:31Z</time>
      </trkpt>
      <trkpt lat="48.04419" lon="7.15522">
        <ele>415.63601685</ele>
        <time>2021-06-17T13:00:35Z</time>
      </trkpt>
      <trkpt lat="48.04427" lon="7.15513">
        <ele>415.63601685</ele>
        <time>2021-06-17T13:00:39Z</time>
      </trkpt>
      <trkpt lat="48.04437" lon="7.15515">
        <ele>415.63601685</ele>
        <time>2021-06-17T13:00:42Z</time>
      </trkpt>
      <trkpt lat="48.04446" lon="7.15525">
        <ele>416.00500488</ele>
        <time>2021-06-17T13:00:45Z</time>
      </trkpt>
      <trkpt lat="48.04453" lon="7.1554">
        <ele>416.00500488</ele>
        <time>2021-06-17T13:00:48Z</time>
      </trkpt>
      <trkpt lat="48.04456" lon="7.15558">
        <ele>416.00500488</ele>
        <time>2021-06-17T13:00:51Z</time>
      </trkpt>
      <trkpt lat="48.04459" lon="7.15574">
        <ele>416.00500488</ele>
        <time>2021-06-17T13:00:53Z</time>
      </trkpt>
      <trkpt lat="48.04461" lon="7.15591">
        <ele>416.00500488</ele>
        <time>2021-06-17T13:00:56Z</time>
      </trkpt>
      <trkpt lat="48.04462" lon="7.15609">
        <ele>416.00500488</ele>
        <time>2021-06-17T13:00:58Z</time>
      </trkpt>
      <trkpt lat="48.04461" lon="7.15625">
        <ele>416.00500488</ele>
        <time>2021-06-17T13:01:00Z</time>
      </trkpt>
      <trkpt lat="48.04462" lon="7.15641">
        <ele>416.00500488</ele>
        <time>2021-06-17T13:01:02Z</time>
      </trkpt>
      <trkpt lat="48.04462" lon="7.15657">
        <ele>416.00500488</ele>
        <time>2021-06-17T13:01:04Z</time>
      </trkpt>
      <trkpt lat="48.04462" lon="7.15671">
        <ele>416.00500488</ele>
        <time>2021-06-17T13:01:06Z</time>
      </trkpt>
      <trkpt lat="48.04463" lon="7.15685">
        <ele>416.00500488</ele>
        <time>2021-06-17T13:01:08Z</time>
      </trkpt>
      <trkpt lat="48.04464" lon="7.15699">
        <ele>416.00500488</ele>
        <time>2021-06-17T13:01:10Z</time>
      </trkpt>
      <trkpt lat="48.04466" lon="7.15716">
        <ele>416.00500488</ele>
        <time>2021-06-17T13:01:12Z</time>
      </trkpt>
      <trkpt lat="48.0447" lon="7.15732">
        <ele>416.00500488</ele>
        <time>2021-06-17T13:01:14Z</time>
      </trkpt>
      <trkpt lat="48.04476" lon="7.15748">
        <ele>416.00500488</ele>
        <time>2021-06-17T13:01:16Z</time>
      </trkpt>
      <trkpt lat="48.04483" lon="7.15766">
        <ele>416.00500488</ele>
        <time>2021-06-17T13:01:18Z</time>
      </trkpt>
      <trkpt lat="48.04492" lon="7.15785">
        <ele>416.00500488</ele>
        <time>2021-06-17T13:01:20Z</time>
      </trkpt>
      <trkpt lat="48.04499" lon="7.15805">
        <ele>416.79769897</ele>
        <time>2021-06-17T13:01:22Z</time>
      </trkpt>
      <trkpt lat="48.04505" lon="7.15827">
        <ele>416.79769897</ele>
        <time>2021-06-17T13:01:24Z</time>
      </trkpt>
      <trkpt lat="48.04512" lon="7.15849">
        <ele>416.79769897</ele>
        <time>2021-06-17T13:01:26Z</time>
      </trkpt>
      <trkpt lat="48.04517" lon="7.15866">
        <ele>414.09793091</ele>
        <time>2021-06-17T13:01:28Z</time>
      </trkpt>
      <trkpt lat="48.04521" lon="7.15884">
        <ele>414.09793091</ele>
        <time>2021-06-17T13:01:29Z</time>
      </trkpt>
      <trkpt lat="48.04527" lon="7.15909">
        <ele>414.09793091</ele>
        <time>2021-06-17T13:01:31Z</time>
      </trkpt>
      <trkpt lat="48.04531" lon="7.15934">
        <ele>413.42687988</ele>
        <time>2021-06-17T13:01:33Z</time>
      </trkpt>
      <trkpt lat="48.04533" lon="7.15961">
        <ele>413.42687988</ele>
        <time>2021-06-17T13:01:35Z</time>
      </trkpt>
      <trkpt lat="48.04534" lon="7.15986">
        <ele>413.42687988</ele>
        <time>2021-06-17T13:01:37Z</time>
      </trkpt>
      <trkpt lat="48.04535" lon="7.16011">
        <ele>413.42687988</ele>
        <time>2021-06-17T13:01:39Z</time>
      </trkpt>
      <trkpt lat="48.04535" lon="7.16035">
        <ele>412.28753662</ele>
        <time>2021-06-17T13:01:41Z</time>
      </trkpt>
      <trkpt lat="48.04537" lon="7.16058">
        <ele>412.28753662</ele>
        <time>2021-06-17T13:01:43Z</time>
      </trkpt>
      <trkpt lat="48.0454" lon="7.16082">
        <ele>412.28753662</ele>
        <time>2021-06-17T13:01:45Z</time>
      </trkpt>
      <trkpt lat="48.04544" lon="7.16105">
        <ele>412.28753662</ele>
        <time>2021-06-17T13:01:47Z</time>
      </trkpt>
      <trkpt lat="48.04546" lon="7.16127">
        <ele>412.28753662</ele>
        <time>2021-06-17T13:01:49Z</time>
      </trkpt>
      <trkpt lat="48.04548" lon="7.16147">
        <ele>412.28753662</ele>
        <time>2021-06-17T13:01:51Z</time>
      </trkpt>
      <trkpt lat="48.04549" lon="7.16167">
        <ele>412.28753662</ele>
        <time>2021-06-17T13:01:53Z</time>
      </trkpt>
      <trkpt lat="48.04553" lon="7.16187">
        <ele>412.28753662</ele>
        <time>2021-06-17T13:01:55Z</time>
      </trkpt>
      <trkpt lat="48.04554" lon="7.16209">
        <ele>411.45706177</ele>
        <time>2021-06-17T13:01:57Z</time>
      </trkpt>
      <trkpt lat="48.04557" lon="7.1623">
        <ele>411.45706177</ele>
        <time>2021-06-17T13:01:59Z</time>
      </trkpt>
      <trkpt lat="48.04559" lon="7.16254">
        <ele>411.45706177</ele>
        <time>2021-06-17T13:02:01Z</time>
      </trkpt>
      <trkpt lat="48.04562" lon="7.16276">
        <ele>410.05813599</ele>
        <time>2021-06-17T13:02:03Z</time>
      </trkpt>
      <trkpt lat="48.04564" lon="7.16299">
        <ele>410.05813599</ele>
        <time>2021-06-17T13:02:05Z</time>
      </trkpt>
      <trkpt lat="48.04565" lon="7.16321">
        <ele>410.05813599</ele>
        <time>2021-06-17T13:02:07Z</time>
      </trkpt>
      <trkpt lat="48.04566" lon="7.16344">
        <ele>410.05813599</ele>
        <time>2021-06-17T13:02:09Z</time>
      </trkpt>
      <trkpt lat="48.04565" lon="7.16366">
        <ele>410.05813599</ele>
        <time>2021-06-17T13:02:11Z</time>
      </trkpt>
      <trkpt lat="48.04562" lon="7.16388">
        <ele>409.1607666</ele>
        <time>2021-06-17T13:02:13Z</time>
      </trkpt>
      <trkpt lat="48.04559" lon="7.1641">
        <ele>409.1607666</ele>
        <time>2021-06-17T13:02:15Z</time>
      </trkpt>
      <trkpt lat="48.04557" lon="7.16433">
        <ele>409.1607666</ele>
        <time>2021-06-17T13:02:17Z</time>
      </trkpt>
      <trkpt lat="48.04556" lon="7.16456">
        <ele>407.93972778</ele>
        <time>2021-06-17T13:02:19Z</time>
      </trkpt>
      <trkpt lat="48.04556" lon="7.16478">
        <ele>407.93972778</ele>
        <time>2021-06-17T13:02:21Z</time>
      </trkpt>
      <trkpt lat="48.04556" lon="7.16499">
        <ele>406.77319336</ele>
        <time>2021-06-17T13:02:23Z</time>
      </trkpt>
      <trkpt lat="48.04557" lon="7.16514">
        <ele>405.53173828</ele>
        <time>2021-06-17T13:02:26Z</time>
      </trkpt>
      <trkpt lat="48.04556" lon="7.16518">
        <ele>404.98248291</ele>
        <time>2021-06-17T13:02:44Z</time>
      </trkpt>
      <trkpt lat="48.04558" lon="7.16517">
        <ele>404.58599854</ele>
        <time>2021-06-17T13:02:48Z</time>
      </trkpt>
      <trkpt lat="48.04573" lon="7.16524">
        <ele>404.58599854</ele>
        <time>2021-06-17T13:02:51Z</time>
      </trkpt>
      <trkpt lat="48.04581" lon="7.16534">
        <ele>404.29592896</ele>
        <time>2021-06-17T13:02:55Z</time>
      </trkpt>
      <trkpt lat="48.04591" lon="7.16537">
        <ele>407.0597229</ele>
        <time>2021-06-17T13:02:59Z</time>
      </trkpt>
      <trkpt lat="48.046" lon="7.16532">
        <ele>408.18612671</ele>
        <time>2021-06-17T13:03:03Z</time>
      </trkpt>
      <trkpt lat="48.04609" lon="7.16527">
        <ele>409.49203491</ele>
        <time>2021-06-17T13:03:06Z</time>
      </trkpt>
      <trkpt lat="48.04618" lon="7.1652">
        <ele>410.63934326</ele>
        <time>2021-06-17T13:03:09Z</time>
      </trkpt>
      <trkpt lat="48.04626" lon="7.16507">
        <ele>410.63934326</ele>
        <time>2021-06-17T13:03:12Z</time>
      </trkpt>
      <trkpt lat="48.0463" lon="7.16495">
        <ele>411.81491089</ele>
        <time>2021-06-17T13:03:15Z</time>
      </trkpt>
      <trkpt lat="48.04636" lon="7.16485">
        <ele>414.47872925</ele>
        <time>2021-06-17T13:03:21Z</time>
      </trkpt>
      <trkpt lat="48.04645" lon="7.16491">
        <ele>415.6552124</ele>
        <time>2021-06-17T13:03:25Z</time>
      </trkpt>
      <trkpt lat="48.04647" lon="7.165">
        <ele>417.75091553</ele>
        <time>2021-06-17T13:03:28Z</time>
      </trkpt>
      <trkpt lat="48.04651" lon="7.16508">
        <ele>418.84500122</ele>
        <time>2021-06-17T13:03:31Z</time>
      </trkpt>
      <trkpt lat="48.0466" lon="7.16512">
        <ele>420.03103638</ele>
        <time>2021-06-17T13:03:36Z</time>
      </trkpt>
      <trkpt lat="48.04671" lon="7.16505">
        <ele>421.20687866</ele>
        <time>2021-06-17T13:03:39Z</time>
      </trkpt>
      <trkpt lat="48.04678" lon="7.16497">
        <ele>423.61480713</ele>
        <time>2021-06-17T13:03:44Z</time>
      </trkpt>
      <trkpt lat="48.04686" lon="7.16489">
        <ele>424.68365479</ele>
        <time>2021-06-17T13:03:48Z</time>
      </trkpt>
      <trkpt lat="48.04695" lon="7.16482">
        <ele>425.8147583</ele>
        <time>2021-06-17T13:03:51Z</time>
      </trkpt>
      <trkpt lat="48.04703" lon="7.16474">
        <ele>426.82855225</ele>
        <time>2021-06-17T13:03:55Z</time>
      </trkpt>
      <trkpt lat="48.04712" lon="7.16469">
        <ele>428.07192993</ele>
        <time>2021-06-17T13:03:59Z</time>
      </trkpt>
      <trkpt lat="48.04721" lon="7.16461">
        <ele>429.18463135</ele>
        <time>2021-06-17T13:04:03Z</time>
      </trkpt>
      <trkpt lat="48.04726" lon="7.16449">
        <ele>430.38781738</ele>
        <time>2021-06-17T13:04:06Z</time>
      </trkpt>
      <trkpt lat="48.04732" lon="7.16437">
        <ele>431.59454346</ele>
        <time>2021-06-17T13:04:10Z</time>
      </trkpt>
      <trkpt lat="48.04739" lon="7.16424">
        <ele>432.95620728</ele>
        <time>2021-06-17T13:04:14Z</time>
      </trkpt>
      <trkpt lat="48.04746" lon="7.16412">
        <ele>434.23205566</ele>
        <time>2021-06-17T13:04:18Z</time>
      </trkpt>
      <trkpt lat="48.04753" lon="7.164">
        <ele>436.5057373</ele>
        <time>2021-06-17T13:04:22Z</time>
      </trkpt>
      <trkpt lat="48.0476" lon="7.16389">
        <ele>437.57546997</ele>
        <time>2021-06-17T13:04:26Z</time>
      </trkpt>
      <trkpt lat="48.04764" lon="7.16382">
        <ele>438.47991943</ele>
        <time>2021-06-17T13:04:28Z</time>
      </trkpt>
      <trkpt lat="48.0477" lon="7.16376">
        <ele>438.47991943</ele>
        <time>2021-06-17T13:04:31Z</time>
      </trkpt>
      <trkpt lat="48.04779" lon="7.16371">
        <ele>440.64489746</ele>
        <time>2021-06-17T13:04:36Z</time>
      </trkpt>
      <trkpt lat="48.04789" lon="7.16369">
        <ele>441.97653198</ele>
        <time>2021-06-17T13:04:40Z</time>
      </trkpt>
      <trkpt lat="48.04797" lon="7.16363">
        <ele>443.18499756</ele>
        <time>2021-06-17T13:04:44Z</time>
      </trkpt>
      <trkpt lat="48.04807" lon="7.16357">
        <ele>444.26382446</ele>
        <time>2021-06-17T13:04:48Z</time>
      </trkpt>
      <trkpt lat="48.04815" lon="7.16355">
        <ele>446.54797363</ele>
        <time>2021-06-17T13:04:53Z</time>
      </trkpt>
      <trkpt lat="48.04825" lon="7.16349">
        <ele>447.60192871</ele>
        <time>2021-06-17T13:04:57Z</time>
      </trkpt>
      <trkpt lat="48.04827" lon="7.16333">
        <ele>447.60192871</ele>
        <time>2021-06-17T13:05:00Z</time>
      </trkpt>
      <trkpt lat="48.0482" lon="7.1632">
        <ele>448.56030273</ele>
        <time>2021-06-17T13:05:03Z</time>
      </trkpt>
      <trkpt lat="48.04809" lon="7.16317">
        <ele>449.83737183</ele>
        <time>2021-06-17T13:05:06Z</time>
      </trkpt>
      <trkpt lat="48.04799" lon="7.16316">
        <ele>451.11227417</ele>
        <time>2021-06-17T13:05:10Z</time>
      </trkpt>
      <trkpt lat="48.04788" lon="7.16314">
        <ele>452.43936157</ele>
        <time>2021-06-17T13:05:14Z</time>
      </trkpt>
      <trkpt lat="48.04778" lon="7.16312">
        <ele>453.6960144</ele>
        <time>2021-06-17T13:05:18Z</time>
      </trkpt>
      <trkpt lat="48.0477" lon="7.16306">
        <ele>454.82189941</ele>
        <time>2021-06-17T13:05:23Z</time>
      </trkpt>
      <trkpt lat="48.04767" lon="7.1629">
        <ele>456.03390503</ele>
        <time>2021-06-17T13:05:27Z</time>
      </trkpt>
      <trkpt lat="48.04766" lon="7.16284">
        <ele>457.49240112</ele>
        <time>2021-06-17T13:05:28Z</time>
      </trkpt>
      <trkpt lat="48.04765" lon="7.16276">
        <ele>457.49240112</ele>
        <time>2021-06-17T13:05:31Z</time>
      </trkpt>
      <trkpt lat="48.04765" lon="7.16261">
        <ele>458.09375</ele>
        <time>2021-06-17T13:05:35Z</time>
      </trkpt>
      <trkpt lat="48.04768" lon="7.16246">
        <ele>460.62310791</ele>
        <time>2021-06-17T13:05:39Z</time>
      </trkpt>
      <trkpt lat="48.04775" lon="7.16245">
        <ele>461.83898926</ele>
        <time>2021-06-17T13:05:45Z</time>
      </trkpt>
      <trkpt lat="48.04785" lon="7.16255">
        <ele>463.16152954</ele>
        <time>2021-06-17T13:05:50Z</time>
      </trkpt>
      <trkpt lat="48.04793" lon="7.16248">
        <ele>465.34326172</ele>
        <time>2021-06-17T13:05:54Z</time>
      </trkpt>
      <trkpt lat="48.04791" lon="7.16231">
        <ele>466.4486084</ele>
        <time>2021-06-17T13:05:58Z</time>
      </trkpt>
      <trkpt lat="48.04784" lon="7.16218">
        <ele>467.57348633</ele>
        <time>2021-06-17T13:06:02Z</time>
      </trkpt>
      <trkpt lat="48.04787" lon="7.16205">
        <ele>468.56295776</ele>
        <time>2021-06-17T13:06:07Z</time>
      </trkpt>
      <trkpt lat="48.04798" lon="7.16199">
        <ele>469.61013794</ele>
        <time>2021-06-17T13:06:09Z</time>
      </trkpt>
      <trkpt lat="48.04808" lon="7.16203">
        <ele>470.81234741</ele>
        <time>2021-06-17T13:06:12Z</time>
      </trkpt>
      <trkpt lat="48.04817" lon="7.16208">
        <ele>471.99456787</ele>
        <time>2021-06-17T13:06:15Z</time>
      </trkpt>
      <trkpt lat="48.04825" lon="7.16215">
        <ele>473.0562439</ele>
        <time>2021-06-17T13:06:18Z</time>
      </trkpt>
      <trkpt lat="48.04833" lon="7.16224">
        <ele>474.15185547</ele>
        <time>2021-06-17T13:06:22Z</time>
      </trkpt>
      <trkpt lat="48.04839" lon="7.16237">
        <ele>475.19708252</ele>
        <time>2021-06-17T13:06:27Z</time>
      </trkpt>
      <trkpt lat="48.04839" lon="7.16242">
        <ele>475.6031189</ele>
        <time>2021-06-17T13:06:28Z</time>
      </trkpt>
    </trkseg>
  </trk>
</gpx>